<?xml version="1.0" encoding="UTF-8" standalone="no" ?>
<gpx xmlns="http://www.topografix.com/GPX/1/1" xmlns:xsi="http://www.w3.org/2001/XMLSchema-instance" xsi:schemaLocation="http://www.topografix.com/GPX/1/1 http://www.topografix.com/GPX/1/1/gpx.xsd" version="1.1" creator="VisuGPX - https://www.visugpx.com">
  <metadata>
    <name>forêt de la Combe Noire</name>
    <desc><![CDATA[forêt de la Combe Noire, Vallée de Joux]]></desc>
  </metadata>
  <trk>
    <name><![CDATA[forêt de la Combe Noire_1]]></name>
    <trkseg>
      <trkpt lat="46.66477" lon="6.31837">
        <ele>1016</ele>
        <time>2013-08-18T12:02:33.000Z</time>
      </trkpt>
      <trkpt lat="46.66476" lon="6.31837">
        <ele>1016</ele>
        <time>2013-08-18T12:02:34.000Z</time>
      </trkpt>
      <trkpt lat="46.66481" lon="6.31827">
        <ele>1015</ele>
        <time>2013-08-18T12:02:35.000Z</time>
      </trkpt>
      <trkpt lat="46.6648" lon="6.31832">
        <ele>1015</ele>
        <time>2013-08-18T12:02:36.000Z</time>
      </trkpt>
      <trkpt lat="46.6648" lon="6.31831">
        <ele>1015</ele>
        <time>2013-08-18T12:02:37.000Z</time>
      </trkpt>
      <trkpt lat="46.66479" lon="6.31829">
        <ele>1015</ele>
        <time>2013-08-18T12:02:38.000Z</time>
      </trkpt>
      <trkpt lat="46.66479" lon="6.31828">
        <ele>1015</ele>
        <time>2013-08-18T12:02:39.000Z</time>
      </trkpt>
      <trkpt lat="46.66479" lon="6.31826">
        <ele>1015</ele>
        <time>2013-08-18T12:02:40.000Z</time>
      </trkpt>
      <trkpt lat="46.66478" lon="6.31825">
        <ele>1016</ele>
        <time>2013-08-18T12:02:41.000Z</time>
      </trkpt>
      <trkpt lat="46.66478" lon="6.31824">
        <ele>1016</ele>
        <time>2013-08-18T12:02:42.000Z</time>
      </trkpt>
      <trkpt lat="46.66477" lon="6.31823">
        <ele>1016</ele>
        <time>2013-08-18T12:02:43.000Z</time>
      </trkpt>
      <trkpt lat="46.66477" lon="6.31821">
        <ele>1016</ele>
        <time>2013-08-18T12:02:44.000Z</time>
      </trkpt>
      <trkpt lat="46.66477" lon="6.3182">
        <ele>1016</ele>
        <time>2013-08-18T12:02:45.000Z</time>
      </trkpt>
      <trkpt lat="46.66477" lon="6.3182">
        <ele>1016</ele>
        <time>2013-08-18T12:02:46.000Z</time>
      </trkpt>
      <trkpt lat="46.66476" lon="6.31819">
        <ele>1016</ele>
        <time>2013-08-18T12:02:47.000Z</time>
      </trkpt>
      <trkpt lat="46.66474" lon="6.31819">
        <ele>1016</ele>
        <time>2013-08-18T12:02:48.000Z</time>
      </trkpt>
      <trkpt lat="46.66473" lon="6.31819">
        <ele>1016</ele>
        <time>2013-08-18T12:02:49.000Z</time>
      </trkpt>
      <trkpt lat="46.66473" lon="6.31818">
        <ele>1016</ele>
        <time>2013-08-18T12:02:50.000Z</time>
      </trkpt>
      <trkpt lat="46.66472" lon="6.31817">
        <ele>1017</ele>
        <time>2013-08-18T12:02:51.000Z</time>
      </trkpt>
      <trkpt lat="46.66471" lon="6.31817">
        <ele>1017</ele>
        <time>2013-08-18T12:02:52.000Z</time>
      </trkpt>
      <trkpt lat="46.6647" lon="6.31817">
        <ele>1017</ele>
        <time>2013-08-18T12:02:53.000Z</time>
      </trkpt>
      <trkpt lat="46.66469" lon="6.31817">
        <ele>1017</ele>
        <time>2013-08-18T12:02:54.000Z</time>
      </trkpt>
      <trkpt lat="46.66468" lon="6.31818">
        <ele>1017</ele>
        <time>2013-08-18T12:02:55.000Z</time>
      </trkpt>
      <trkpt lat="46.66467" lon="6.31818">
        <ele>1017</ele>
        <time>2013-08-18T12:02:56.000Z</time>
      </trkpt>
      <trkpt lat="46.66465" lon="6.31819">
        <ele>1017</ele>
        <time>2013-08-18T12:02:57.000Z</time>
      </trkpt>
      <trkpt lat="46.66464" lon="6.3182">
        <ele>1017</ele>
        <time>2013-08-18T12:02:58.000Z</time>
      </trkpt>
      <trkpt lat="46.66463" lon="6.31821">
        <ele>1018</ele>
        <time>2013-08-18T12:02:59.000Z</time>
      </trkpt>
      <trkpt lat="46.66461" lon="6.31822">
        <ele>1018</ele>
        <time>2013-08-18T12:03:00.000Z</time>
      </trkpt>
      <trkpt lat="46.6646" lon="6.31822">
        <ele>1018</ele>
        <time>2013-08-18T12:03:01.000Z</time>
      </trkpt>
      <trkpt lat="46.66458" lon="6.31823">
        <ele>1018</ele>
        <time>2013-08-18T12:03:03.000Z</time>
      </trkpt>
      <trkpt lat="46.66457" lon="6.31824">
        <ele>1018</ele>
        <time>2013-08-18T12:03:04.000Z</time>
      </trkpt>
      <trkpt lat="46.66455" lon="6.31826">
        <ele>1018</ele>
        <time>2013-08-18T12:03:05.000Z</time>
      </trkpt>
      <trkpt lat="46.66454" lon="6.31827">
        <ele>1019</ele>
        <time>2013-08-18T12:03:06.000Z</time>
      </trkpt>
      <trkpt lat="46.66452" lon="6.31829">
        <ele>1019</ele>
        <time>2013-08-18T12:03:07.000Z</time>
      </trkpt>
      <trkpt lat="46.66452" lon="6.31829">
        <ele>1019</ele>
        <time>2013-08-18T12:03:08.000Z</time>
      </trkpt>
      <trkpt lat="46.66451" lon="6.3183">
        <ele>1019</ele>
        <time>2013-08-18T12:03:09.000Z</time>
      </trkpt>
      <trkpt lat="46.66448" lon="6.31829">
        <ele>1019</ele>
        <time>2013-08-18T12:03:12.000Z</time>
      </trkpt>
      <trkpt lat="46.66447" lon="6.31829">
        <ele>1019</ele>
        <time>2013-08-18T12:03:13.000Z</time>
      </trkpt>
      <trkpt lat="46.66445" lon="6.3183">
        <ele>1020</ele>
        <time>2013-08-18T12:03:14.000Z</time>
      </trkpt>
      <trkpt lat="46.66444" lon="6.31829">
        <ele>1020</ele>
        <time>2013-08-18T12:03:15.000Z</time>
      </trkpt>
      <trkpt lat="46.66443" lon="6.31829">
        <ele>1020</ele>
        <time>2013-08-18T12:03:16.000Z</time>
      </trkpt>
      <trkpt lat="46.66443" lon="6.3183">
        <ele>1020</ele>
        <time>2013-08-18T12:03:17.000Z</time>
      </trkpt>
      <trkpt lat="46.66443" lon="6.31829">
        <ele>1020</ele>
        <time>2013-08-18T12:03:18.000Z</time>
      </trkpt>
      <trkpt lat="46.66443" lon="6.31829">
        <ele>1020</ele>
        <time>2013-08-18T12:03:19.000Z</time>
      </trkpt>
      <trkpt lat="46.66443" lon="6.31828">
        <ele>1020</ele>
        <time>2013-08-18T12:03:21.000Z</time>
      </trkpt>
      <trkpt lat="46.66444" lon="6.31829">
        <ele>1020</ele>
        <time>2013-08-18T12:03:22.000Z</time>
      </trkpt>
      <trkpt lat="46.66444" lon="6.3183">
        <ele>1020</ele>
        <time>2013-08-18T12:03:23.000Z</time>
      </trkpt>
      <trkpt lat="46.66443" lon="6.31829">
        <ele>1020</ele>
        <time>2013-08-18T12:03:25.000Z</time>
      </trkpt>
      <trkpt lat="46.66443" lon="6.31829">
        <ele>1020</ele>
        <time>2013-08-18T12:03:26.000Z</time>
      </trkpt>
      <trkpt lat="46.66443" lon="6.31829">
        <ele>1020</ele>
        <time>2013-08-18T12:03:27.000Z</time>
      </trkpt>
      <trkpt lat="46.66443" lon="6.31829">
        <ele>1020</ele>
        <time>2013-08-18T12:03:28.000Z</time>
      </trkpt>
      <trkpt lat="46.66443" lon="6.31829">
        <ele>1020</ele>
        <time>2013-08-18T12:03:34.000Z</time>
      </trkpt>
      <trkpt lat="46.66443" lon="6.31829">
        <ele>1020</ele>
        <time>2013-08-18T12:03:36.000Z</time>
      </trkpt>
      <trkpt lat="46.66443" lon="6.31829">
        <ele>1020</ele>
        <time>2013-08-18T12:03:37.000Z</time>
      </trkpt>
      <trkpt lat="46.66443" lon="6.3183">
        <ele>1020</ele>
        <time>2013-08-18T12:03:38.000Z</time>
      </trkpt>
      <trkpt lat="46.66442" lon="6.3183">
        <ele>1020</ele>
        <time>2013-08-18T12:03:41.000Z</time>
      </trkpt>
      <trkpt lat="46.66442" lon="6.3183">
        <ele>1020</ele>
        <time>2013-08-18T12:03:43.000Z</time>
      </trkpt>
      <trkpt lat="46.66442" lon="6.31829">
        <ele>1020</ele>
        <time>2013-08-18T12:03:46.000Z</time>
      </trkpt>
      <trkpt lat="46.66441" lon="6.31829">
        <ele>1020</ele>
        <time>2013-08-18T12:03:47.000Z</time>
      </trkpt>
      <trkpt lat="46.66441" lon="6.31828">
        <ele>1020</ele>
        <time>2013-08-18T12:03:48.000Z</time>
      </trkpt>
      <trkpt lat="46.66441" lon="6.31828">
        <ele>1020</ele>
        <time>2013-08-18T12:03:50.000Z</time>
      </trkpt>
      <trkpt lat="46.6644" lon="6.31827">
        <ele>1020</ele>
        <time>2013-08-18T12:03:51.000Z</time>
      </trkpt>
      <trkpt lat="46.6644" lon="6.31827">
        <ele>1020</ele>
        <time>2013-08-18T12:03:52.000Z</time>
      </trkpt>
      <trkpt lat="46.66439" lon="6.31828">
        <ele>1020</ele>
        <time>2013-08-18T12:03:53.000Z</time>
      </trkpt>
      <trkpt lat="46.66439" lon="6.31829">
        <ele>1021</ele>
        <time>2013-08-18T12:03:54.000Z</time>
      </trkpt>
      <trkpt lat="46.66439" lon="6.3183">
        <ele>1020</ele>
        <time>2013-08-18T12:03:55.000Z</time>
      </trkpt>
      <trkpt lat="46.66439" lon="6.3183">
        <ele>1021</ele>
        <time>2013-08-18T12:03:57.000Z</time>
      </trkpt>
      <trkpt lat="46.66438" lon="6.3183">
        <ele>1021</ele>
        <time>2013-08-18T12:04:01.000Z</time>
      </trkpt>
      <trkpt lat="46.66438" lon="6.3183">
        <ele>1021</ele>
        <time>2013-08-18T12:04:04.000Z</time>
      </trkpt>
      <trkpt lat="46.66438" lon="6.3183">
        <ele>1021</ele>
        <time>2013-08-18T12:04:05.000Z</time>
      </trkpt>
      <trkpt lat="46.66438" lon="6.31831">
        <ele>1021</ele>
        <time>2013-08-18T12:04:06.000Z</time>
      </trkpt>
      <trkpt lat="46.66438" lon="6.3183">
        <ele>1021</ele>
        <time>2013-08-18T12:04:09.000Z</time>
      </trkpt>
      <trkpt lat="46.66437" lon="6.31831">
        <ele>1021</ele>
        <time>2013-08-18T12:04:12.000Z</time>
      </trkpt>
      <trkpt lat="46.66437" lon="6.3183">
        <ele>1021</ele>
        <time>2013-08-18T12:04:13.000Z</time>
      </trkpt>
      <trkpt lat="46.66436" lon="6.3183">
        <ele>1021</ele>
        <time>2013-08-18T12:04:16.000Z</time>
      </trkpt>
      <trkpt lat="46.66435" lon="6.31829">
        <ele>1021</ele>
        <time>2013-08-18T12:04:17.000Z</time>
      </trkpt>
      <trkpt lat="46.66434" lon="6.31828">
        <ele>1021</ele>
        <time>2013-08-18T12:04:18.000Z</time>
      </trkpt>
      <trkpt lat="46.66434" lon="6.31827">
        <ele>1021</ele>
        <time>2013-08-18T12:04:19.000Z</time>
      </trkpt>
      <trkpt lat="46.66434" lon="6.31826">
        <ele>1021</ele>
        <time>2013-08-18T12:04:20.000Z</time>
      </trkpt>
      <trkpt lat="46.66434" lon="6.31827">
        <ele>1021</ele>
        <time>2013-08-18T12:04:22.000Z</time>
      </trkpt>
      <trkpt lat="46.66434" lon="6.31827">
        <ele>1021</ele>
        <time>2013-08-18T12:04:26.000Z</time>
      </trkpt>
      <trkpt lat="46.66434" lon="6.31826">
        <ele>1021</ele>
        <time>2013-08-18T12:04:29.000Z</time>
      </trkpt>
      <trkpt lat="46.66434" lon="6.31825">
        <ele>1021</ele>
        <time>2013-08-18T12:04:30.000Z</time>
      </trkpt>
      <trkpt lat="46.66433" lon="6.31824">
        <ele>1021</ele>
        <time>2013-08-18T12:04:31.000Z</time>
      </trkpt>
      <trkpt lat="46.66432" lon="6.31823">
        <ele>1021</ele>
        <time>2013-08-18T12:04:32.000Z</time>
      </trkpt>
      <trkpt lat="46.66432" lon="6.31822">
        <ele>1021</ele>
        <time>2013-08-18T12:04:33.000Z</time>
      </trkpt>
      <trkpt lat="46.66431" lon="6.31821">
        <ele>1021</ele>
        <time>2013-08-18T12:04:34.000Z</time>
      </trkpt>
      <trkpt lat="46.66431" lon="6.3182">
        <ele>1021</ele>
        <time>2013-08-18T12:04:35.000Z</time>
      </trkpt>
      <trkpt lat="46.6643" lon="6.31819">
        <ele>1021</ele>
        <time>2013-08-18T12:04:36.000Z</time>
      </trkpt>
      <trkpt lat="46.6643" lon="6.31818">
        <ele>1021</ele>
        <time>2013-08-18T12:04:37.000Z</time>
      </trkpt>
      <trkpt lat="46.66429" lon="6.31816">
        <ele>1021</ele>
        <time>2013-08-18T12:04:38.000Z</time>
      </trkpt>
      <trkpt lat="46.66428" lon="6.31815">
        <ele>1021</ele>
        <time>2013-08-18T12:04:39.000Z</time>
      </trkpt>
      <trkpt lat="46.66428" lon="6.31814">
        <ele>1021</ele>
        <time>2013-08-18T12:04:40.000Z</time>
      </trkpt>
      <trkpt lat="46.66427" lon="6.31813">
        <ele>1021</ele>
        <time>2013-08-18T12:04:41.000Z</time>
      </trkpt>
      <trkpt lat="46.66427" lon="6.31812">
        <ele>1021</ele>
        <time>2013-08-18T12:04:42.000Z</time>
      </trkpt>
      <trkpt lat="46.66427" lon="6.31811">
        <ele>1021</ele>
        <time>2013-08-18T12:04:43.000Z</time>
      </trkpt>
      <trkpt lat="46.66427" lon="6.31811">
        <ele>1021</ele>
        <time>2013-08-18T12:04:44.000Z</time>
      </trkpt>
      <trkpt lat="46.66427" lon="6.3181">
        <ele>1021</ele>
        <time>2013-08-18T12:04:45.000Z</time>
      </trkpt>
      <trkpt lat="46.66426" lon="6.31809">
        <ele>1021</ele>
        <time>2013-08-18T12:04:46.000Z</time>
      </trkpt>
      <trkpt lat="46.66426" lon="6.31808">
        <ele>1021</ele>
        <time>2013-08-18T12:04:47.000Z</time>
      </trkpt>
      <trkpt lat="46.66426" lon="6.31807">
        <ele>1021</ele>
        <time>2013-08-18T12:04:48.000Z</time>
      </trkpt>
      <trkpt lat="46.66425" lon="6.31806">
        <ele>1021</ele>
        <time>2013-08-18T12:04:49.000Z</time>
      </trkpt>
      <trkpt lat="46.66425" lon="6.31806">
        <ele>1021</ele>
        <time>2013-08-18T12:04:50.000Z</time>
      </trkpt>
      <trkpt lat="46.66425" lon="6.31805">
        <ele>1020</ele>
        <time>2013-08-18T12:04:52.000Z</time>
      </trkpt>
      <trkpt lat="46.66424" lon="6.31804">
        <ele>1020</ele>
        <time>2013-08-18T12:04:53.000Z</time>
      </trkpt>
      <trkpt lat="46.66423" lon="6.31802">
        <ele>1020</ele>
        <time>2013-08-18T12:04:54.000Z</time>
      </trkpt>
      <trkpt lat="46.66423" lon="6.31801">
        <ele>1020</ele>
        <time>2013-08-18T12:04:55.000Z</time>
      </trkpt>
      <trkpt lat="46.66421" lon="6.31799">
        <ele>1020</ele>
        <time>2013-08-18T12:04:56.000Z</time>
      </trkpt>
      <trkpt lat="46.6642" lon="6.31797">
        <ele>1020</ele>
        <time>2013-08-18T12:04:57.000Z</time>
      </trkpt>
      <trkpt lat="46.66419" lon="6.31796">
        <ele>1020</ele>
        <time>2013-08-18T12:04:58.000Z</time>
      </trkpt>
      <trkpt lat="46.66419" lon="6.31794">
        <ele>1020</ele>
        <time>2013-08-18T12:04:59.000Z</time>
      </trkpt>
      <trkpt lat="46.66418" lon="6.31793">
        <ele>1020</ele>
        <time>2013-08-18T12:05:00.000Z</time>
      </trkpt>
      <trkpt lat="46.66417" lon="6.31791">
        <ele>1020</ele>
        <time>2013-08-18T12:05:01.000Z</time>
      </trkpt>
      <trkpt lat="46.66416" lon="6.3179">
        <ele>1031</ele>
        <time>2013-08-18T12:05:02.000Z</time>
      </trkpt>
      <trkpt lat="46.66415" lon="6.31789">
        <ele>1031</ele>
        <time>2013-08-18T12:05:03.000Z</time>
      </trkpt>
      <trkpt lat="46.66415" lon="6.31787">
        <ele>1031</ele>
        <time>2013-08-18T12:05:04.000Z</time>
      </trkpt>
      <trkpt lat="46.66415" lon="6.31785">
        <ele>1031</ele>
        <time>2013-08-18T12:05:05.000Z</time>
      </trkpt>
      <trkpt lat="46.66415" lon="6.31783">
        <ele>1031</ele>
        <time>2013-08-18T12:05:06.000Z</time>
      </trkpt>
      <trkpt lat="46.66414" lon="6.31781">
        <ele>1031</ele>
        <time>2013-08-18T12:05:07.000Z</time>
      </trkpt>
      <trkpt lat="46.66414" lon="6.31779">
        <ele>1031</ele>
        <time>2013-08-18T12:05:08.000Z</time>
      </trkpt>
      <trkpt lat="46.66413" lon="6.31777">
        <ele>1031</ele>
        <time>2013-08-18T12:05:09.000Z</time>
      </trkpt>
      <trkpt lat="46.66413" lon="6.31774">
        <ele>1030</ele>
        <time>2013-08-18T12:05:10.000Z</time>
      </trkpt>
      <trkpt lat="46.66412" lon="6.31772">
        <ele>1030</ele>
        <time>2013-08-18T12:05:11.000Z</time>
      </trkpt>
      <trkpt lat="46.66412" lon="6.31769">
        <ele>1030</ele>
        <time>2013-08-18T12:05:12.000Z</time>
      </trkpt>
      <trkpt lat="46.66411" lon="6.31766">
        <ele>1029</ele>
        <time>2013-08-18T12:05:13.000Z</time>
      </trkpt>
      <trkpt lat="46.66411" lon="6.31764">
        <ele>1029</ele>
        <time>2013-08-18T12:05:14.000Z</time>
      </trkpt>
      <trkpt lat="46.6641" lon="6.31761">
        <ele>1028</ele>
        <time>2013-08-18T12:05:15.000Z</time>
      </trkpt>
      <trkpt lat="46.6641" lon="6.31759">
        <ele>1028</ele>
        <time>2013-08-18T12:05:16.000Z</time>
      </trkpt>
      <trkpt lat="46.6641" lon="6.31757">
        <ele>1027</ele>
        <time>2013-08-18T12:05:17.000Z</time>
      </trkpt>
      <trkpt lat="46.66409" lon="6.31754">
        <ele>1027</ele>
        <time>2013-08-18T12:05:18.000Z</time>
      </trkpt>
      <trkpt lat="46.66409" lon="6.31752">
        <ele>1027</ele>
        <time>2013-08-18T12:05:19.000Z</time>
      </trkpt>
      <trkpt lat="46.66409" lon="6.3175">
        <ele>1026</ele>
        <time>2013-08-18T12:05:20.000Z</time>
      </trkpt>
      <trkpt lat="46.66409" lon="6.31748">
        <ele>1026</ele>
        <time>2013-08-18T12:05:21.000Z</time>
      </trkpt>
      <trkpt lat="46.66408" lon="6.31745">
        <ele>1026</ele>
        <time>2013-08-18T12:05:22.000Z</time>
      </trkpt>
      <trkpt lat="46.66408" lon="6.31736">
        <ele>1028</ele>
        <time>2013-08-18T12:05:26.000Z</time>
      </trkpt>
      <trkpt lat="46.66408" lon="6.31735">
        <ele>1028</ele>
        <time>2013-08-18T12:05:27.000Z</time>
      </trkpt>
      <trkpt lat="46.66407" lon="6.31733">
        <ele>1029</ele>
        <time>2013-08-18T12:05:28.000Z</time>
      </trkpt>
      <trkpt lat="46.66407" lon="6.31731">
        <ele>1029</ele>
        <time>2013-08-18T12:05:29.000Z</time>
      </trkpt>
      <trkpt lat="46.66406" lon="6.31729">
        <ele>1029</ele>
        <time>2013-08-18T12:05:30.000Z</time>
      </trkpt>
      <trkpt lat="46.66405" lon="6.31728">
        <ele>1029</ele>
        <time>2013-08-18T12:05:31.000Z</time>
      </trkpt>
      <trkpt lat="46.66404" lon="6.31727">
        <ele>1030</ele>
        <time>2013-08-18T12:05:32.000Z</time>
      </trkpt>
      <trkpt lat="46.66402" lon="6.31726">
        <ele>1030</ele>
        <time>2013-08-18T12:05:33.000Z</time>
      </trkpt>
      <trkpt lat="46.66401" lon="6.31725">
        <ele>1030</ele>
        <time>2013-08-18T12:05:34.000Z</time>
      </trkpt>
      <trkpt lat="46.664" lon="6.31725">
        <ele>1030</ele>
        <time>2013-08-18T12:05:35.000Z</time>
      </trkpt>
      <trkpt lat="46.66399" lon="6.31724">
        <ele>1030</ele>
        <time>2013-08-18T12:05:36.000Z</time>
      </trkpt>
      <trkpt lat="46.66397" lon="6.31725">
        <ele>1031</ele>
        <time>2013-08-18T12:05:37.000Z</time>
      </trkpt>
      <trkpt lat="46.66395" lon="6.31725">
        <ele>1031</ele>
        <time>2013-08-18T12:05:38.000Z</time>
      </trkpt>
      <trkpt lat="46.66394" lon="6.31725">
        <ele>1031</ele>
        <time>2013-08-18T12:05:39.000Z</time>
      </trkpt>
      <trkpt lat="46.66393" lon="6.31725">
        <ele>1031</ele>
        <time>2013-08-18T12:05:40.000Z</time>
      </trkpt>
      <trkpt lat="46.66392" lon="6.31725">
        <ele>1031</ele>
        <time>2013-08-18T12:05:41.000Z</time>
      </trkpt>
      <trkpt lat="46.66391" lon="6.31726">
        <ele>1031</ele>
        <time>2013-08-18T12:05:42.000Z</time>
      </trkpt>
      <trkpt lat="46.66389" lon="6.31727">
        <ele>1032</ele>
        <time>2013-08-18T12:05:43.000Z</time>
      </trkpt>
      <trkpt lat="46.66389" lon="6.31728">
        <ele>1032</ele>
        <time>2013-08-18T12:05:44.000Z</time>
      </trkpt>
      <trkpt lat="46.66388" lon="6.3173">
        <ele>1032</ele>
        <time>2013-08-18T12:05:45.000Z</time>
      </trkpt>
      <trkpt lat="46.66387" lon="6.31732">
        <ele>1032</ele>
        <time>2013-08-18T12:05:46.000Z</time>
      </trkpt>
      <trkpt lat="46.66387" lon="6.31733">
        <ele>1032</ele>
        <time>2013-08-18T12:05:47.000Z</time>
      </trkpt>
      <trkpt lat="46.66386" lon="6.31735">
        <ele>1032</ele>
        <time>2013-08-18T12:05:48.000Z</time>
      </trkpt>
      <trkpt lat="46.66385" lon="6.31736">
        <ele>1032</ele>
        <time>2013-08-18T12:05:49.000Z</time>
      </trkpt>
      <trkpt lat="46.66385" lon="6.31737">
        <ele>1032</ele>
        <time>2013-08-18T12:05:50.000Z</time>
      </trkpt>
      <trkpt lat="46.66384" lon="6.31738">
        <ele>1032</ele>
        <time>2013-08-18T12:05:51.000Z</time>
      </trkpt>
      <trkpt lat="46.66383" lon="6.31739">
        <ele>1032</ele>
        <time>2013-08-18T12:05:52.000Z</time>
      </trkpt>
      <trkpt lat="46.66382" lon="6.31739">
        <ele>1033</ele>
        <time>2013-08-18T12:05:53.000Z</time>
      </trkpt>
      <trkpt lat="46.66381" lon="6.3174">
        <ele>1033</ele>
        <time>2013-08-18T12:05:54.000Z</time>
      </trkpt>
      <trkpt lat="46.66381" lon="6.3174">
        <ele>1033</ele>
        <time>2013-08-18T12:05:55.000Z</time>
      </trkpt>
      <trkpt lat="46.6638" lon="6.3174">
        <ele>1033</ele>
        <time>2013-08-18T12:05:57.000Z</time>
      </trkpt>
      <trkpt lat="46.6638" lon="6.31741">
        <ele>1033</ele>
        <time>2013-08-18T12:05:58.000Z</time>
      </trkpt>
      <trkpt lat="46.6638" lon="6.31741">
        <ele>1033</ele>
        <time>2013-08-18T12:05:59.000Z</time>
      </trkpt>
      <trkpt lat="46.66379" lon="6.31742">
        <ele>1033</ele>
        <time>2013-08-18T12:06:00.000Z</time>
      </trkpt>
      <trkpt lat="46.66379" lon="6.31742">
        <ele>1033</ele>
        <time>2013-08-18T12:06:01.000Z</time>
      </trkpt>
      <trkpt lat="46.66378" lon="6.31743">
        <ele>1033</ele>
        <time>2013-08-18T12:06:02.000Z</time>
      </trkpt>
      <trkpt lat="46.66378" lon="6.31743">
        <ele>1033</ele>
        <time>2013-08-18T12:06:03.000Z</time>
      </trkpt>
      <trkpt lat="46.66377" lon="6.31744">
        <ele>1033</ele>
        <time>2013-08-18T12:06:04.000Z</time>
      </trkpt>
      <trkpt lat="46.66376" lon="6.31744">
        <ele>1034</ele>
        <time>2013-08-18T12:06:05.000Z</time>
      </trkpt>
      <trkpt lat="46.66376" lon="6.31744">
        <ele>1034</ele>
        <time>2013-08-18T12:06:06.000Z</time>
      </trkpt>
      <trkpt lat="46.66375" lon="6.31744">
        <ele>1034</ele>
        <time>2013-08-18T12:06:07.000Z</time>
      </trkpt>
      <trkpt lat="46.66375" lon="6.31745">
        <ele>1034</ele>
        <time>2013-08-18T12:06:08.000Z</time>
      </trkpt>
      <trkpt lat="46.66374" lon="6.31745">
        <ele>1034</ele>
        <time>2013-08-18T12:06:09.000Z</time>
      </trkpt>
      <trkpt lat="46.66374" lon="6.31746">
        <ele>1034</ele>
        <time>2013-08-18T12:06:10.000Z</time>
      </trkpt>
      <trkpt lat="46.66373" lon="6.31746">
        <ele>1034</ele>
        <time>2013-08-18T12:06:11.000Z</time>
      </trkpt>
      <trkpt lat="46.66372" lon="6.31747">
        <ele>1034</ele>
        <time>2013-08-18T12:06:12.000Z</time>
      </trkpt>
      <trkpt lat="46.66372" lon="6.31747">
        <ele>1035</ele>
        <time>2013-08-18T12:06:13.000Z</time>
      </trkpt>
      <trkpt lat="46.66371" lon="6.31747">
        <ele>1035</ele>
        <time>2013-08-18T12:06:14.000Z</time>
      </trkpt>
      <trkpt lat="46.6637" lon="6.31747">
        <ele>1035</ele>
        <time>2013-08-18T12:06:15.000Z</time>
      </trkpt>
      <trkpt lat="46.6637" lon="6.31748">
        <ele>1035</ele>
        <time>2013-08-18T12:06:16.000Z</time>
      </trkpt>
      <trkpt lat="46.66369" lon="6.31748">
        <ele>1035</ele>
        <time>2013-08-18T12:06:17.000Z</time>
      </trkpt>
      <trkpt lat="46.66368" lon="6.31749">
        <ele>1035</ele>
        <time>2013-08-18T12:06:18.000Z</time>
      </trkpt>
      <trkpt lat="46.66368" lon="6.31749">
        <ele>1035</ele>
        <time>2013-08-18T12:06:19.000Z</time>
      </trkpt>
      <trkpt lat="46.66367" lon="6.31749">
        <ele>1036</ele>
        <time>2013-08-18T12:06:20.000Z</time>
      </trkpt>
      <trkpt lat="46.66366" lon="6.3175">
        <ele>1036</ele>
        <time>2013-08-18T12:06:21.000Z</time>
      </trkpt>
      <trkpt lat="46.66365" lon="6.3175">
        <ele>1036</ele>
        <time>2013-08-18T12:06:22.000Z</time>
      </trkpt>
      <trkpt lat="46.66362" lon="6.31749">
        <ele>1037</ele>
        <time>2013-08-18T12:06:27.000Z</time>
      </trkpt>
      <trkpt lat="46.66361" lon="6.31749">
        <ele>1037</ele>
        <time>2013-08-18T12:06:28.000Z</time>
      </trkpt>
      <trkpt lat="46.6636" lon="6.31749">
        <ele>1037</ele>
        <time>2013-08-18T12:06:29.000Z</time>
      </trkpt>
      <trkpt lat="46.6636" lon="6.31748">
        <ele>1037</ele>
        <time>2013-08-18T12:06:30.000Z</time>
      </trkpt>
      <trkpt lat="46.66359" lon="6.31748">
        <ele>1037</ele>
        <time>2013-08-18T12:06:31.000Z</time>
      </trkpt>
      <trkpt lat="46.66359" lon="6.31747">
        <ele>1037</ele>
        <time>2013-08-18T12:06:32.000Z</time>
      </trkpt>
      <trkpt lat="46.66358" lon="6.31747">
        <ele>1038</ele>
        <time>2013-08-18T12:06:33.000Z</time>
      </trkpt>
      <trkpt lat="46.66357" lon="6.31746">
        <ele>1038</ele>
        <time>2013-08-18T12:06:34.000Z</time>
      </trkpt>
      <trkpt lat="46.66357" lon="6.31746">
        <ele>1038</ele>
        <time>2013-08-18T12:06:35.000Z</time>
      </trkpt>
      <trkpt lat="46.66356" lon="6.31746">
        <ele>1038</ele>
        <time>2013-08-18T12:06:36.000Z</time>
      </trkpt>
      <trkpt lat="46.66356" lon="6.31745">
        <ele>1038</ele>
        <time>2013-08-18T12:06:37.000Z</time>
      </trkpt>
      <trkpt lat="46.66356" lon="6.31746">
        <ele>1038</ele>
        <time>2013-08-18T12:06:40.000Z</time>
      </trkpt>
      <trkpt lat="46.66356" lon="6.31746">
        <ele>1038</ele>
        <time>2013-08-18T12:06:43.000Z</time>
      </trkpt>
      <trkpt lat="46.66356" lon="6.31745">
        <ele>1038</ele>
        <time>2013-08-18T12:06:46.000Z</time>
      </trkpt>
      <trkpt lat="46.66355" lon="6.31744">
        <ele>1038</ele>
        <time>2013-08-18T12:06:47.000Z</time>
      </trkpt>
      <trkpt lat="46.66355" lon="6.31743">
        <ele>1038</ele>
        <time>2013-08-18T12:06:48.000Z</time>
      </trkpt>
      <trkpt lat="46.66354" lon="6.31741">
        <ele>1038</ele>
        <time>2013-08-18T12:06:49.000Z</time>
      </trkpt>
      <trkpt lat="46.66354" lon="6.3174">
        <ele>1038</ele>
        <time>2013-08-18T12:06:50.000Z</time>
      </trkpt>
      <trkpt lat="46.66353" lon="6.31738">
        <ele>1038</ele>
        <time>2013-08-18T12:06:51.000Z</time>
      </trkpt>
      <trkpt lat="46.66352" lon="6.31737">
        <ele>1038</ele>
        <time>2013-08-18T12:06:52.000Z</time>
      </trkpt>
      <trkpt lat="46.66351" lon="6.31734">
        <ele>1038</ele>
        <time>2013-08-18T12:06:53.000Z</time>
      </trkpt>
      <trkpt lat="46.66351" lon="6.31733">
        <ele>1038</ele>
        <time>2013-08-18T12:06:54.000Z</time>
      </trkpt>
      <trkpt lat="46.6635" lon="6.31731">
        <ele>1038</ele>
        <time>2013-08-18T12:06:55.000Z</time>
      </trkpt>
      <trkpt lat="46.66349" lon="6.31729">
        <ele>1038</ele>
        <time>2013-08-18T12:06:56.000Z</time>
      </trkpt>
      <trkpt lat="46.66348" lon="6.31727">
        <ele>1038</ele>
        <time>2013-08-18T12:06:57.000Z</time>
      </trkpt>
      <trkpt lat="46.66348" lon="6.31726">
        <ele>1038</ele>
        <time>2013-08-18T12:06:58.000Z</time>
      </trkpt>
      <trkpt lat="46.66347" lon="6.31724">
        <ele>1038</ele>
        <time>2013-08-18T12:06:59.000Z</time>
      </trkpt>
      <trkpt lat="46.66346" lon="6.31722">
        <ele>1038</ele>
        <time>2013-08-18T12:07:00.000Z</time>
      </trkpt>
      <trkpt lat="46.66345" lon="6.31721">
        <ele>1037</ele>
        <time>2013-08-18T12:07:01.000Z</time>
      </trkpt>
      <trkpt lat="46.66345" lon="6.31719">
        <ele>1037</ele>
        <time>2013-08-18T12:07:02.000Z</time>
      </trkpt>
      <trkpt lat="46.66344" lon="6.31717">
        <ele>1037</ele>
        <time>2013-08-18T12:07:03.000Z</time>
      </trkpt>
      <trkpt lat="46.66343" lon="6.31716">
        <ele>1037</ele>
        <time>2013-08-18T12:07:04.000Z</time>
      </trkpt>
      <trkpt lat="46.66342" lon="6.31714">
        <ele>1037</ele>
        <time>2013-08-18T12:07:05.000Z</time>
      </trkpt>
      <trkpt lat="46.66341" lon="6.31713">
        <ele>1037</ele>
        <time>2013-08-18T12:07:06.000Z</time>
      </trkpt>
      <trkpt lat="46.66341" lon="6.31711">
        <ele>1037</ele>
        <time>2013-08-18T12:07:07.000Z</time>
      </trkpt>
      <trkpt lat="46.6634" lon="6.3171">
        <ele>1037</ele>
        <time>2013-08-18T12:07:08.000Z</time>
      </trkpt>
      <trkpt lat="46.66339" lon="6.31708">
        <ele>1037</ele>
        <time>2013-08-18T12:07:09.000Z</time>
      </trkpt>
      <trkpt lat="46.66339" lon="6.31707">
        <ele>1037</ele>
        <time>2013-08-18T12:07:10.000Z</time>
      </trkpt>
      <trkpt lat="46.66338" lon="6.31705">
        <ele>1037</ele>
        <time>2013-08-18T12:07:11.000Z</time>
      </trkpt>
      <trkpt lat="46.66337" lon="6.31704">
        <ele>1037</ele>
        <time>2013-08-18T12:07:12.000Z</time>
      </trkpt>
      <trkpt lat="46.66336" lon="6.31703">
        <ele>1037</ele>
        <time>2013-08-18T12:07:13.000Z</time>
      </trkpt>
      <trkpt lat="46.66335" lon="6.31702">
        <ele>1037</ele>
        <time>2013-08-18T12:07:14.000Z</time>
      </trkpt>
      <trkpt lat="46.66335" lon="6.317">
        <ele>1037</ele>
        <time>2013-08-18T12:07:15.000Z</time>
      </trkpt>
      <trkpt lat="46.66334" lon="6.31699">
        <ele>1037</ele>
        <time>2013-08-18T12:07:16.000Z</time>
      </trkpt>
      <trkpt lat="46.66333" lon="6.31698">
        <ele>1050</ele>
        <time>2013-08-18T12:07:17.000Z</time>
      </trkpt>
      <trkpt lat="46.66332" lon="6.31697">
        <ele>1050</ele>
        <time>2013-08-18T12:07:18.000Z</time>
      </trkpt>
      <trkpt lat="46.66331" lon="6.31696">
        <ele>1050</ele>
        <time>2013-08-18T12:07:19.000Z</time>
      </trkpt>
      <trkpt lat="46.6633" lon="6.31694">
        <ele>1050</ele>
        <time>2013-08-18T12:07:20.000Z</time>
      </trkpt>
      <trkpt lat="46.66329" lon="6.31693">
        <ele>1050</ele>
        <time>2013-08-18T12:07:21.000Z</time>
      </trkpt>
      <trkpt lat="46.66328" lon="6.31691">
        <ele>1050</ele>
        <time>2013-08-18T12:07:22.000Z</time>
      </trkpt>
      <trkpt lat="46.66327" lon="6.3169">
        <ele>1050</ele>
        <time>2013-08-18T12:07:23.000Z</time>
      </trkpt>
      <trkpt lat="46.66327" lon="6.31689">
        <ele>1049</ele>
        <time>2013-08-18T12:07:24.000Z</time>
      </trkpt>
      <trkpt lat="46.66326" lon="6.31688">
        <ele>1049</ele>
        <time>2013-08-18T12:07:25.000Z</time>
      </trkpt>
      <trkpt lat="46.66325" lon="6.31687">
        <ele>1049</ele>
        <time>2013-08-18T12:07:26.000Z</time>
      </trkpt>
      <trkpt lat="46.66324" lon="6.31686">
        <ele>1049</ele>
        <time>2013-08-18T12:07:27.000Z</time>
      </trkpt>
      <trkpt lat="46.66323" lon="6.31685">
        <ele>1049</ele>
        <time>2013-08-18T12:07:28.000Z</time>
      </trkpt>
      <trkpt lat="46.66323" lon="6.31683">
        <ele>1049</ele>
        <time>2013-08-18T12:07:29.000Z</time>
      </trkpt>
      <trkpt lat="46.66322" lon="6.31682">
        <ele>1049</ele>
        <time>2013-08-18T12:07:30.000Z</time>
      </trkpt>
      <trkpt lat="46.66321" lon="6.31681">
        <ele>1049</ele>
        <time>2013-08-18T12:07:31.000Z</time>
      </trkpt>
      <trkpt lat="46.6632" lon="6.3168">
        <ele>1049</ele>
        <time>2013-08-18T12:07:32.000Z</time>
      </trkpt>
      <trkpt lat="46.66319" lon="6.31679">
        <ele>1049</ele>
        <time>2013-08-18T12:07:33.000Z</time>
      </trkpt>
      <trkpt lat="46.66318" lon="6.31678">
        <ele>1049</ele>
        <time>2013-08-18T12:07:34.000Z</time>
      </trkpt>
      <trkpt lat="46.66317" lon="6.31677">
        <ele>1049</ele>
        <time>2013-08-18T12:07:35.000Z</time>
      </trkpt>
      <trkpt lat="46.66317" lon="6.31677">
        <ele>1049</ele>
        <time>2013-08-18T12:07:36.000Z</time>
      </trkpt>
      <trkpt lat="46.66317" lon="6.31676">
        <ele>1049</ele>
        <time>2013-08-18T12:07:38.000Z</time>
      </trkpt>
      <trkpt lat="46.66316" lon="6.31676">
        <ele>1049</ele>
        <time>2013-08-18T12:07:39.000Z</time>
      </trkpt>
      <trkpt lat="46.66315" lon="6.31675">
        <ele>1049</ele>
        <time>2013-08-18T12:07:40.000Z</time>
      </trkpt>
      <trkpt lat="46.66314" lon="6.31675">
        <ele>1050</ele>
        <time>2013-08-18T12:07:41.000Z</time>
      </trkpt>
      <trkpt lat="46.66314" lon="6.31674">
        <ele>1050</ele>
        <time>2013-08-18T12:07:42.000Z</time>
      </trkpt>
      <trkpt lat="46.66313" lon="6.31673">
        <ele>1050</ele>
        <time>2013-08-18T12:07:43.000Z</time>
      </trkpt>
      <trkpt lat="46.66312" lon="6.31672">
        <ele>1050</ele>
        <time>2013-08-18T12:07:44.000Z</time>
      </trkpt>
      <trkpt lat="46.66312" lon="6.31672">
        <ele>1050</ele>
        <time>2013-08-18T12:07:45.000Z</time>
      </trkpt>
      <trkpt lat="46.66311" lon="6.31672">
        <ele>1050</ele>
        <time>2013-08-18T12:07:46.000Z</time>
      </trkpt>
      <trkpt lat="46.6631" lon="6.31671">
        <ele>1050</ele>
        <time>2013-08-18T12:07:47.000Z</time>
      </trkpt>
      <trkpt lat="46.6631" lon="6.31671">
        <ele>1050</ele>
        <time>2013-08-18T12:07:48.000Z</time>
      </trkpt>
      <trkpt lat="46.66309" lon="6.3167">
        <ele>1051</ele>
        <time>2013-08-18T12:07:49.000Z</time>
      </trkpt>
      <trkpt lat="46.66308" lon="6.31669">
        <ele>1051</ele>
        <time>2013-08-18T12:07:50.000Z</time>
      </trkpt>
      <trkpt lat="46.66308" lon="6.31669">
        <ele>1051</ele>
        <time>2013-08-18T12:07:51.000Z</time>
      </trkpt>
      <trkpt lat="46.66307" lon="6.31668">
        <ele>1051</ele>
        <time>2013-08-18T12:07:52.000Z</time>
      </trkpt>
      <trkpt lat="46.66306" lon="6.31668">
        <ele>1051</ele>
        <time>2013-08-18T12:07:53.000Z</time>
      </trkpt>
      <trkpt lat="46.66305" lon="6.31667">
        <ele>1051</ele>
        <time>2013-08-18T12:07:54.000Z</time>
      </trkpt>
      <trkpt lat="46.66305" lon="6.31667">
        <ele>1052</ele>
        <time>2013-08-18T12:07:55.000Z</time>
      </trkpt>
      <trkpt lat="46.66304" lon="6.31667">
        <ele>1048</ele>
        <time>2013-08-18T12:07:56.000Z</time>
      </trkpt>
      <trkpt lat="46.66303" lon="6.31667">
        <ele>1052</ele>
        <time>2013-08-18T12:07:57.000Z</time>
      </trkpt>
      <trkpt lat="46.66303" lon="6.31666">
        <ele>1048</ele>
        <time>2013-08-18T12:07:58.000Z</time>
      </trkpt>
      <trkpt lat="46.66302" lon="6.31665">
        <ele>1048</ele>
        <time>2013-08-18T12:07:59.000Z</time>
      </trkpt>
      <trkpt lat="46.66302" lon="6.31664">
        <ele>1048</ele>
        <time>2013-08-18T12:08:00.000Z</time>
      </trkpt>
      <trkpt lat="46.66302" lon="6.31663">
        <ele>1048</ele>
        <time>2013-08-18T12:08:01.000Z</time>
      </trkpt>
      <trkpt lat="46.66301" lon="6.31661">
        <ele>1048</ele>
        <time>2013-08-18T12:08:02.000Z</time>
      </trkpt>
      <trkpt lat="46.66301" lon="6.3166">
        <ele>1048</ele>
        <time>2013-08-18T12:08:03.000Z</time>
      </trkpt>
      <trkpt lat="46.663" lon="6.31659">
        <ele>1048</ele>
        <time>2013-08-18T12:08:04.000Z</time>
      </trkpt>
      <trkpt lat="46.663" lon="6.31658">
        <ele>1048</ele>
        <time>2013-08-18T12:08:05.000Z</time>
      </trkpt>
      <trkpt lat="46.66299" lon="6.31657">
        <ele>1049</ele>
        <time>2013-08-18T12:08:06.000Z</time>
      </trkpt>
      <trkpt lat="46.66299" lon="6.31656">
        <ele>1049</ele>
        <time>2013-08-18T12:08:07.000Z</time>
      </trkpt>
      <trkpt lat="46.66298" lon="6.31655">
        <ele>1049</ele>
        <time>2013-08-18T12:08:08.000Z</time>
      </trkpt>
      <trkpt lat="46.66297" lon="6.31654">
        <ele>1049</ele>
        <time>2013-08-18T12:08:09.000Z</time>
      </trkpt>
      <trkpt lat="46.66297" lon="6.31653">
        <ele>1049</ele>
        <time>2013-08-18T12:08:10.000Z</time>
      </trkpt>
      <trkpt lat="46.66296" lon="6.31652">
        <ele>1049</ele>
        <time>2013-08-18T12:08:11.000Z</time>
      </trkpt>
      <trkpt lat="46.66296" lon="6.31651">
        <ele>1049</ele>
        <time>2013-08-18T12:08:12.000Z</time>
      </trkpt>
      <trkpt lat="46.66295" lon="6.3165">
        <ele>1049</ele>
        <time>2013-08-18T12:08:13.000Z</time>
      </trkpt>
      <trkpt lat="46.66295" lon="6.31649">
        <ele>1049</ele>
        <time>2013-08-18T12:08:14.000Z</time>
      </trkpt>
      <trkpt lat="46.66294" lon="6.31648">
        <ele>1049</ele>
        <time>2013-08-18T12:08:15.000Z</time>
      </trkpt>
      <trkpt lat="46.66294" lon="6.31648">
        <ele>1049</ele>
        <time>2013-08-18T12:08:16.000Z</time>
      </trkpt>
      <trkpt lat="46.66293" lon="6.31647">
        <ele>1049</ele>
        <time>2013-08-18T12:08:17.000Z</time>
      </trkpt>
      <trkpt lat="46.66292" lon="6.31646">
        <ele>1049</ele>
        <time>2013-08-18T12:08:18.000Z</time>
      </trkpt>
      <trkpt lat="46.66291" lon="6.31646">
        <ele>1050</ele>
        <time>2013-08-18T12:08:19.000Z</time>
      </trkpt>
      <trkpt lat="46.66291" lon="6.31645">
        <ele>1050</ele>
        <time>2013-08-18T12:08:20.000Z</time>
      </trkpt>
      <trkpt lat="46.6629" lon="6.31644">
        <ele>1050</ele>
        <time>2013-08-18T12:08:21.000Z</time>
      </trkpt>
      <trkpt lat="46.66289" lon="6.31643">
        <ele>1050</ele>
        <time>2013-08-18T12:08:22.000Z</time>
      </trkpt>
      <trkpt lat="46.66288" lon="6.31643">
        <ele>1050</ele>
        <time>2013-08-18T12:08:23.000Z</time>
      </trkpt>
      <trkpt lat="46.66288" lon="6.31642">
        <ele>1050</ele>
        <time>2013-08-18T12:08:24.000Z</time>
      </trkpt>
      <trkpt lat="46.66287" lon="6.31641">
        <ele>1050</ele>
        <time>2013-08-18T12:08:25.000Z</time>
      </trkpt>
      <trkpt lat="46.66286" lon="6.3164">
        <ele>1050</ele>
        <time>2013-08-18T12:08:26.000Z</time>
      </trkpt>
      <trkpt lat="46.66285" lon="6.3164">
        <ele>1050</ele>
        <time>2013-08-18T12:08:27.000Z</time>
      </trkpt>
      <trkpt lat="46.66284" lon="6.31639">
        <ele>1050</ele>
        <time>2013-08-18T12:08:28.000Z</time>
      </trkpt>
      <trkpt lat="46.66284" lon="6.31638">
        <ele>1050</ele>
        <time>2013-08-18T12:08:29.000Z</time>
      </trkpt>
      <trkpt lat="46.66284" lon="6.31638">
        <ele>1050</ele>
        <time>2013-08-18T12:08:32.000Z</time>
      </trkpt>
      <trkpt lat="46.66285" lon="6.31638">
        <ele>1050</ele>
        <time>2013-08-18T12:08:35.000Z</time>
      </trkpt>
      <trkpt lat="46.66285" lon="6.31637">
        <ele>1050</ele>
        <time>2013-08-18T12:08:38.000Z</time>
      </trkpt>
      <trkpt lat="46.66286" lon="6.31637">
        <ele>1050</ele>
        <time>2013-08-18T12:08:43.000Z</time>
      </trkpt>
      <trkpt lat="46.66285" lon="6.31637">
        <ele>1050</ele>
        <time>2013-08-18T12:08:44.000Z</time>
      </trkpt>
      <trkpt lat="46.66284" lon="6.31636">
        <ele>1050</ele>
        <time>2013-08-18T12:08:45.000Z</time>
      </trkpt>
      <trkpt lat="46.66283" lon="6.31636">
        <ele>1050</ele>
        <time>2013-08-18T12:08:46.000Z</time>
      </trkpt>
      <trkpt lat="46.66282" lon="6.31636">
        <ele>1050</ele>
        <time>2013-08-18T12:08:47.000Z</time>
      </trkpt>
      <trkpt lat="46.66282" lon="6.31636">
        <ele>1050</ele>
        <time>2013-08-18T12:08:48.000Z</time>
      </trkpt>
      <trkpt lat="46.66281" lon="6.31635">
        <ele>1050</ele>
        <time>2013-08-18T12:08:49.000Z</time>
      </trkpt>
      <trkpt lat="46.6628" lon="6.31634">
        <ele>1051</ele>
        <time>2013-08-18T12:08:50.000Z</time>
      </trkpt>
      <trkpt lat="46.6628" lon="6.31634">
        <ele>1051</ele>
        <time>2013-08-18T12:08:51.000Z</time>
      </trkpt>
      <trkpt lat="46.66279" lon="6.31633">
        <ele>1051</ele>
        <time>2013-08-18T12:08:52.000Z</time>
      </trkpt>
      <trkpt lat="46.66278" lon="6.31632">
        <ele>1051</ele>
        <time>2013-08-18T12:08:53.000Z</time>
      </trkpt>
      <trkpt lat="46.66277" lon="6.31632">
        <ele>1051</ele>
        <time>2013-08-18T12:08:54.000Z</time>
      </trkpt>
      <trkpt lat="46.66277" lon="6.31631">
        <ele>1051</ele>
        <time>2013-08-18T12:08:55.000Z</time>
      </trkpt>
      <trkpt lat="46.66276" lon="6.31631">
        <ele>1051</ele>
        <time>2013-08-18T12:08:56.000Z</time>
      </trkpt>
      <trkpt lat="46.66275" lon="6.3163">
        <ele>1051</ele>
        <time>2013-08-18T12:08:57.000Z</time>
      </trkpt>
      <trkpt lat="46.66274" lon="6.3163">
        <ele>1051</ele>
        <time>2013-08-18T12:08:58.000Z</time>
      </trkpt>
      <trkpt lat="46.66273" lon="6.3163">
        <ele>1051</ele>
        <time>2013-08-18T12:08:59.000Z</time>
      </trkpt>
      <trkpt lat="46.66273" lon="6.3163">
        <ele>1051</ele>
        <time>2013-08-18T12:09:00.000Z</time>
      </trkpt>
      <trkpt lat="46.66272" lon="6.31629">
        <ele>1051</ele>
        <time>2013-08-18T12:09:01.000Z</time>
      </trkpt>
      <trkpt lat="46.66271" lon="6.31628">
        <ele>1051</ele>
        <time>2013-08-18T12:09:02.000Z</time>
      </trkpt>
      <trkpt lat="46.6627" lon="6.31628">
        <ele>1051</ele>
        <time>2013-08-18T12:09:03.000Z</time>
      </trkpt>
      <trkpt lat="46.66269" lon="6.31627">
        <ele>1051</ele>
        <time>2013-08-18T12:09:04.000Z</time>
      </trkpt>
      <trkpt lat="46.66268" lon="6.31626">
        <ele>1051</ele>
        <time>2013-08-18T12:09:05.000Z</time>
      </trkpt>
      <trkpt lat="46.66267" lon="6.31626">
        <ele>1051</ele>
        <time>2013-08-18T12:09:06.000Z</time>
      </trkpt>
      <trkpt lat="46.66267" lon="6.31625">
        <ele>1051</ele>
        <time>2013-08-18T12:09:07.000Z</time>
      </trkpt>
      <trkpt lat="46.66266" lon="6.31624">
        <ele>1051</ele>
        <time>2013-08-18T12:09:08.000Z</time>
      </trkpt>
      <trkpt lat="46.66265" lon="6.31623">
        <ele>1052</ele>
        <time>2013-08-18T12:09:09.000Z</time>
      </trkpt>
      <trkpt lat="46.66264" lon="6.31622">
        <ele>1052</ele>
        <time>2013-08-18T12:09:10.000Z</time>
      </trkpt>
      <trkpt lat="46.66264" lon="6.31622">
        <ele>1052</ele>
        <time>2013-08-18T12:09:11.000Z</time>
      </trkpt>
      <trkpt lat="46.66263" lon="6.31621">
        <ele>1052</ele>
        <time>2013-08-18T12:09:12.000Z</time>
      </trkpt>
      <trkpt lat="46.66262" lon="6.3162">
        <ele>1052</ele>
        <time>2013-08-18T12:09:13.000Z</time>
      </trkpt>
      <trkpt lat="46.66261" lon="6.31619">
        <ele>1052</ele>
        <time>2013-08-18T12:09:14.000Z</time>
      </trkpt>
      <trkpt lat="46.6626" lon="6.31618">
        <ele>1052</ele>
        <time>2013-08-18T12:09:15.000Z</time>
      </trkpt>
      <trkpt lat="46.6626" lon="6.31617">
        <ele>1052</ele>
        <time>2013-08-18T12:09:16.000Z</time>
      </trkpt>
      <trkpt lat="46.66259" lon="6.31615">
        <ele>1052</ele>
        <time>2013-08-18T12:09:17.000Z</time>
      </trkpt>
      <trkpt lat="46.66258" lon="6.31615">
        <ele>1052</ele>
        <time>2013-08-18T12:09:18.000Z</time>
      </trkpt>
      <trkpt lat="46.66257" lon="6.31614">
        <ele>1052</ele>
        <time>2013-08-18T12:09:19.000Z</time>
      </trkpt>
      <trkpt lat="46.66257" lon="6.31613">
        <ele>1052</ele>
        <time>2013-08-18T12:09:20.000Z</time>
      </trkpt>
      <trkpt lat="46.66256" lon="6.31612">
        <ele>1052</ele>
        <time>2013-08-18T12:09:21.000Z</time>
      </trkpt>
      <trkpt lat="46.66255" lon="6.31611">
        <ele>1052</ele>
        <time>2013-08-18T12:09:22.000Z</time>
      </trkpt>
      <trkpt lat="46.66254" lon="6.3161">
        <ele>1052</ele>
        <time>2013-08-18T12:09:23.000Z</time>
      </trkpt>
      <trkpt lat="46.66253" lon="6.31609">
        <ele>1052</ele>
        <time>2013-08-18T12:09:24.000Z</time>
      </trkpt>
      <trkpt lat="46.66252" lon="6.31608">
        <ele>1052</ele>
        <time>2013-08-18T12:09:25.000Z</time>
      </trkpt>
      <trkpt lat="46.66252" lon="6.31607">
        <ele>1052</ele>
        <time>2013-08-18T12:09:26.000Z</time>
      </trkpt>
      <trkpt lat="46.66251" lon="6.31606">
        <ele>1052</ele>
        <time>2013-08-18T12:09:27.000Z</time>
      </trkpt>
      <trkpt lat="46.6625" lon="6.31605">
        <ele>1052</ele>
        <time>2013-08-18T12:09:28.000Z</time>
      </trkpt>
      <trkpt lat="46.6625" lon="6.31604">
        <ele>1061</ele>
        <time>2013-08-18T12:09:29.000Z</time>
      </trkpt>
      <trkpt lat="46.66249" lon="6.31603">
        <ele>1061</ele>
        <time>2013-08-18T12:09:30.000Z</time>
      </trkpt>
      <trkpt lat="46.66248" lon="6.31602">
        <ele>1061</ele>
        <time>2013-08-18T12:09:31.000Z</time>
      </trkpt>
      <trkpt lat="46.66248" lon="6.31601">
        <ele>1061</ele>
        <time>2013-08-18T12:09:32.000Z</time>
      </trkpt>
      <trkpt lat="46.66247" lon="6.31601">
        <ele>1061</ele>
        <time>2013-08-18T12:09:33.000Z</time>
      </trkpt>
      <trkpt lat="46.66246" lon="6.316">
        <ele>1060</ele>
        <time>2013-08-18T12:09:34.000Z</time>
      </trkpt>
      <trkpt lat="46.66245" lon="6.31599">
        <ele>1060</ele>
        <time>2013-08-18T12:09:35.000Z</time>
      </trkpt>
      <trkpt lat="46.66245" lon="6.31598">
        <ele>1060</ele>
        <time>2013-08-18T12:09:36.000Z</time>
      </trkpt>
      <trkpt lat="46.66244" lon="6.31598">
        <ele>1060</ele>
        <time>2013-08-18T12:09:37.000Z</time>
      </trkpt>
      <trkpt lat="46.66243" lon="6.31597">
        <ele>1060</ele>
        <time>2013-08-18T12:09:38.000Z</time>
      </trkpt>
      <trkpt lat="46.66242" lon="6.31596">
        <ele>1060</ele>
        <time>2013-08-18T12:09:39.000Z</time>
      </trkpt>
      <trkpt lat="46.66242" lon="6.31595">
        <ele>1060</ele>
        <time>2013-08-18T12:09:40.000Z</time>
      </trkpt>
      <trkpt lat="46.66241" lon="6.31594">
        <ele>1060</ele>
        <time>2013-08-18T12:09:41.000Z</time>
      </trkpt>
      <trkpt lat="46.6624" lon="6.31594">
        <ele>1060</ele>
        <time>2013-08-18T12:09:42.000Z</time>
      </trkpt>
      <trkpt lat="46.6624" lon="6.31593">
        <ele>1060</ele>
        <time>2013-08-18T12:09:43.000Z</time>
      </trkpt>
      <trkpt lat="46.66239" lon="6.31592">
        <ele>1060</ele>
        <time>2013-08-18T12:09:44.000Z</time>
      </trkpt>
      <trkpt lat="46.66238" lon="6.31591">
        <ele>1060</ele>
        <time>2013-08-18T12:09:45.000Z</time>
      </trkpt>
      <trkpt lat="46.66238" lon="6.3159">
        <ele>1060</ele>
        <time>2013-08-18T12:09:46.000Z</time>
      </trkpt>
      <trkpt lat="46.66237" lon="6.31589">
        <ele>1060</ele>
        <time>2013-08-18T12:09:47.000Z</time>
      </trkpt>
      <trkpt lat="46.66236" lon="6.31588">
        <ele>1060</ele>
        <time>2013-08-18T12:09:48.000Z</time>
      </trkpt>
      <trkpt lat="46.66236" lon="6.31587">
        <ele>1060</ele>
        <time>2013-08-18T12:09:49.000Z</time>
      </trkpt>
      <trkpt lat="46.66235" lon="6.31586">
        <ele>1060</ele>
        <time>2013-08-18T12:09:50.000Z</time>
      </trkpt>
      <trkpt lat="46.66234" lon="6.31586">
        <ele>1060</ele>
        <time>2013-08-18T12:09:51.000Z</time>
      </trkpt>
      <trkpt lat="46.66234" lon="6.31585">
        <ele>1061</ele>
        <time>2013-08-18T12:09:52.000Z</time>
      </trkpt>
      <trkpt lat="46.66233" lon="6.31584">
        <ele>1061</ele>
        <time>2013-08-18T12:09:53.000Z</time>
      </trkpt>
      <trkpt lat="46.66232" lon="6.31584">
        <ele>1061</ele>
        <time>2013-08-18T12:09:54.000Z</time>
      </trkpt>
      <trkpt lat="46.66232" lon="6.31584">
        <ele>1061</ele>
        <time>2013-08-18T12:09:55.000Z</time>
      </trkpt>
      <trkpt lat="46.66231" lon="6.31583">
        <ele>1059</ele>
        <time>2013-08-18T12:09:56.000Z</time>
      </trkpt>
      <trkpt lat="46.6623" lon="6.31582">
        <ele>1059</ele>
        <time>2013-08-18T12:09:57.000Z</time>
      </trkpt>
      <trkpt lat="46.66229" lon="6.31581">
        <ele>1059</ele>
        <time>2013-08-18T12:09:58.000Z</time>
      </trkpt>
      <trkpt lat="46.66229" lon="6.31581">
        <ele>1059</ele>
        <time>2013-08-18T12:09:59.000Z</time>
      </trkpt>
      <trkpt lat="46.66228" lon="6.3158">
        <ele>1059</ele>
        <time>2013-08-18T12:10:00.000Z</time>
      </trkpt>
      <trkpt lat="46.66227" lon="6.3158">
        <ele>1059</ele>
        <time>2013-08-18T12:10:01.000Z</time>
      </trkpt>
      <trkpt lat="46.66227" lon="6.31579">
        <ele>1059</ele>
        <time>2013-08-18T12:10:02.000Z</time>
      </trkpt>
      <trkpt lat="46.66226" lon="6.31579">
        <ele>1059</ele>
        <time>2013-08-18T12:10:03.000Z</time>
      </trkpt>
      <trkpt lat="46.66225" lon="6.31578">
        <ele>1059</ele>
        <time>2013-08-18T12:10:04.000Z</time>
      </trkpt>
      <trkpt lat="46.66225" lon="6.31578">
        <ele>1059</ele>
        <time>2013-08-18T12:10:05.000Z</time>
      </trkpt>
      <trkpt lat="46.66224" lon="6.31577">
        <ele>1060</ele>
        <time>2013-08-18T12:10:06.000Z</time>
      </trkpt>
      <trkpt lat="46.66223" lon="6.31577">
        <ele>1060</ele>
        <time>2013-08-18T12:10:07.000Z</time>
      </trkpt>
      <trkpt lat="46.66222" lon="6.31576">
        <ele>1060</ele>
        <time>2013-08-18T12:10:08.000Z</time>
      </trkpt>
      <trkpt lat="46.66221" lon="6.31575">
        <ele>1060</ele>
        <time>2013-08-18T12:10:09.000Z</time>
      </trkpt>
      <trkpt lat="46.66221" lon="6.31575">
        <ele>1060</ele>
        <time>2013-08-18T12:10:10.000Z</time>
      </trkpt>
      <trkpt lat="46.6622" lon="6.31574">
        <ele>1060</ele>
        <time>2013-08-18T12:10:11.000Z</time>
      </trkpt>
      <trkpt lat="46.66219" lon="6.31573">
        <ele>1060</ele>
        <time>2013-08-18T12:10:12.000Z</time>
      </trkpt>
      <trkpt lat="46.66219" lon="6.31573">
        <ele>1060</ele>
        <time>2013-08-18T12:10:13.000Z</time>
      </trkpt>
      <trkpt lat="46.66218" lon="6.31572">
        <ele>1060</ele>
        <time>2013-08-18T12:10:14.000Z</time>
      </trkpt>
      <trkpt lat="46.66217" lon="6.31572">
        <ele>1061</ele>
        <time>2013-08-18T12:10:15.000Z</time>
      </trkpt>
      <trkpt lat="46.66216" lon="6.31571">
        <ele>1061</ele>
        <time>2013-08-18T12:10:16.000Z</time>
      </trkpt>
      <trkpt lat="46.66216" lon="6.31571">
        <ele>1061</ele>
        <time>2013-08-18T12:10:17.000Z</time>
      </trkpt>
      <trkpt lat="46.66215" lon="6.31571">
        <ele>1061</ele>
        <time>2013-08-18T12:10:18.000Z</time>
      </trkpt>
      <trkpt lat="46.66215" lon="6.3157">
        <ele>1061</ele>
        <time>2013-08-18T12:10:19.000Z</time>
      </trkpt>
      <trkpt lat="46.66214" lon="6.3157">
        <ele>1061</ele>
        <time>2013-08-18T12:10:20.000Z</time>
      </trkpt>
      <trkpt lat="46.66213" lon="6.31569">
        <ele>1061</ele>
        <time>2013-08-18T12:10:21.000Z</time>
      </trkpt>
      <trkpt lat="46.66213" lon="6.31568">
        <ele>1061</ele>
        <time>2013-08-18T12:10:22.000Z</time>
      </trkpt>
      <trkpt lat="46.66212" lon="6.31568">
        <ele>1061</ele>
        <time>2013-08-18T12:10:23.000Z</time>
      </trkpt>
      <trkpt lat="46.66212" lon="6.31568">
        <ele>1061</ele>
        <time>2013-08-18T12:10:24.000Z</time>
      </trkpt>
      <trkpt lat="46.66212" lon="6.31567">
        <ele>1061</ele>
        <time>2013-08-18T12:10:30.000Z</time>
      </trkpt>
      <trkpt lat="46.66211" lon="6.31566">
        <ele>1061</ele>
        <time>2013-08-18T12:10:31.000Z</time>
      </trkpt>
      <trkpt lat="46.66211" lon="6.31566">
        <ele>1061</ele>
        <time>2013-08-18T12:10:32.000Z</time>
      </trkpt>
      <trkpt lat="46.6621" lon="6.31565">
        <ele>1061</ele>
        <time>2013-08-18T12:10:33.000Z</time>
      </trkpt>
      <trkpt lat="46.6621" lon="6.31565">
        <ele>1062</ele>
        <time>2013-08-18T12:10:34.000Z</time>
      </trkpt>
      <trkpt lat="46.66209" lon="6.31564">
        <ele>1062</ele>
        <time>2013-08-18T12:10:35.000Z</time>
      </trkpt>
      <trkpt lat="46.66208" lon="6.31564">
        <ele>1062</ele>
        <time>2013-08-18T12:10:36.000Z</time>
      </trkpt>
      <trkpt lat="46.66208" lon="6.31563">
        <ele>1062</ele>
        <time>2013-08-18T12:10:37.000Z</time>
      </trkpt>
      <trkpt lat="46.66207" lon="6.31563">
        <ele>1062</ele>
        <time>2013-08-18T12:10:38.000Z</time>
      </trkpt>
      <trkpt lat="46.66206" lon="6.31563">
        <ele>1062</ele>
        <time>2013-08-18T12:10:39.000Z</time>
      </trkpt>
      <trkpt lat="46.66205" lon="6.31563">
        <ele>1062</ele>
        <time>2013-08-18T12:10:40.000Z</time>
      </trkpt>
      <trkpt lat="46.66204" lon="6.31562">
        <ele>1062</ele>
        <time>2013-08-18T12:10:42.000Z</time>
      </trkpt>
      <trkpt lat="46.66202" lon="6.31562">
        <ele>1063</ele>
        <time>2013-08-18T12:10:44.000Z</time>
      </trkpt>
      <trkpt lat="46.66201" lon="6.31562">
        <ele>1063</ele>
        <time>2013-08-18T12:10:45.000Z</time>
      </trkpt>
      <trkpt lat="46.662" lon="6.31561">
        <ele>1063</ele>
        <time>2013-08-18T12:10:46.000Z</time>
      </trkpt>
      <trkpt lat="46.66199" lon="6.31561">
        <ele>1063</ele>
        <time>2013-08-18T12:10:47.000Z</time>
      </trkpt>
      <trkpt lat="46.66198" lon="6.3156">
        <ele>1063</ele>
        <time>2013-08-18T12:10:48.000Z</time>
      </trkpt>
      <trkpt lat="46.66197" lon="6.3156">
        <ele>1063</ele>
        <time>2013-08-18T12:10:49.000Z</time>
      </trkpt>
      <trkpt lat="46.66196" lon="6.3156">
        <ele>1063</ele>
        <time>2013-08-18T12:10:50.000Z</time>
      </trkpt>
      <trkpt lat="46.66195" lon="6.31559">
        <ele>1063</ele>
        <time>2013-08-18T12:10:51.000Z</time>
      </trkpt>
      <trkpt lat="46.66195" lon="6.31559">
        <ele>1064</ele>
        <time>2013-08-18T12:10:52.000Z</time>
      </trkpt>
      <trkpt lat="46.66194" lon="6.31559">
        <ele>1064</ele>
        <time>2013-08-18T12:10:53.000Z</time>
      </trkpt>
      <trkpt lat="46.66193" lon="6.31558">
        <ele>1064</ele>
        <time>2013-08-18T12:10:54.000Z</time>
      </trkpt>
      <trkpt lat="46.66192" lon="6.31558">
        <ele>1064</ele>
        <time>2013-08-18T12:10:55.000Z</time>
      </trkpt>
      <trkpt lat="46.66192" lon="6.31557">
        <ele>1064</ele>
        <time>2013-08-18T12:10:56.000Z</time>
      </trkpt>
      <trkpt lat="46.66191" lon="6.31557">
        <ele>1064</ele>
        <time>2013-08-18T12:10:57.000Z</time>
      </trkpt>
      <trkpt lat="46.6619" lon="6.31557">
        <ele>1064</ele>
        <time>2013-08-18T12:10:58.000Z</time>
      </trkpt>
      <trkpt lat="46.66189" lon="6.31557">
        <ele>1064</ele>
        <time>2013-08-18T12:10:59.000Z</time>
      </trkpt>
      <trkpt lat="46.66188" lon="6.31556">
        <ele>1064</ele>
        <time>2013-08-18T12:11:00.000Z</time>
      </trkpt>
      <trkpt lat="46.66187" lon="6.31556">
        <ele>1064</ele>
        <time>2013-08-18T12:11:01.000Z</time>
      </trkpt>
      <trkpt lat="46.66186" lon="6.31556">
        <ele>1065</ele>
        <time>2013-08-18T12:11:02.000Z</time>
      </trkpt>
      <trkpt lat="46.66186" lon="6.31557">
        <ele>1065</ele>
        <time>2013-08-18T12:11:03.000Z</time>
      </trkpt>
      <trkpt lat="46.66184" lon="6.31556">
        <ele>1065</ele>
        <time>2013-08-18T12:11:05.000Z</time>
      </trkpt>
      <trkpt lat="46.66182" lon="6.31556">
        <ele>1065</ele>
        <time>2013-08-18T12:11:07.000Z</time>
      </trkpt>
      <trkpt lat="46.66181" lon="6.31556">
        <ele>1065</ele>
        <time>2013-08-18T12:11:08.000Z</time>
      </trkpt>
      <trkpt lat="46.6618" lon="6.31556">
        <ele>1065</ele>
        <time>2013-08-18T12:11:10.000Z</time>
      </trkpt>
      <trkpt lat="46.66179" lon="6.31556">
        <ele>1065</ele>
        <time>2013-08-18T12:11:14.000Z</time>
      </trkpt>
      <trkpt lat="46.6618" lon="6.31556">
        <ele>1065</ele>
        <time>2013-08-18T12:11:15.000Z</time>
      </trkpt>
      <trkpt lat="46.6618" lon="6.31555">
        <ele>1065</ele>
        <time>2013-08-18T12:11:16.000Z</time>
      </trkpt>
      <trkpt lat="46.6618" lon="6.31555">
        <ele>1065</ele>
        <time>2013-08-18T12:11:18.000Z</time>
      </trkpt>
      <trkpt lat="46.6618" lon="6.31555">
        <ele>1065</ele>
        <time>2013-08-18T12:11:19.000Z</time>
      </trkpt>
      <trkpt lat="46.6618" lon="6.31554">
        <ele>1065</ele>
        <time>2013-08-18T12:11:20.000Z</time>
      </trkpt>
      <trkpt lat="46.6618" lon="6.31554">
        <ele>1065</ele>
        <time>2013-08-18T12:11:22.000Z</time>
      </trkpt>
      <trkpt lat="46.6618" lon="6.31554">
        <ele>1065</ele>
        <time>2013-08-18T12:11:23.000Z</time>
      </trkpt>
      <trkpt lat="46.6618" lon="6.31553">
        <ele>1065</ele>
        <time>2013-08-18T12:11:24.000Z</time>
      </trkpt>
      <trkpt lat="46.66179" lon="6.31552">
        <ele>1065</ele>
        <time>2013-08-18T12:11:25.000Z</time>
      </trkpt>
      <trkpt lat="46.66178" lon="6.31552">
        <ele>1065</ele>
        <time>2013-08-18T12:11:26.000Z</time>
      </trkpt>
      <trkpt lat="46.66177" lon="6.31551">
        <ele>1065</ele>
        <time>2013-08-18T12:11:27.000Z</time>
      </trkpt>
      <trkpt lat="46.66176" lon="6.31551">
        <ele>1065</ele>
        <time>2013-08-18T12:11:28.000Z</time>
      </trkpt>
      <trkpt lat="46.66176" lon="6.31551">
        <ele>1065</ele>
        <time>2013-08-18T12:11:29.000Z</time>
      </trkpt>
      <trkpt lat="46.66175" lon="6.3155">
        <ele>1065</ele>
        <time>2013-08-18T12:11:30.000Z</time>
      </trkpt>
      <trkpt lat="46.66174" lon="6.3155">
        <ele>1065</ele>
        <time>2013-08-18T12:11:31.000Z</time>
      </trkpt>
      <trkpt lat="46.66174" lon="6.31549">
        <ele>1065</ele>
        <time>2013-08-18T12:11:32.000Z</time>
      </trkpt>
      <trkpt lat="46.66173" lon="6.31548">
        <ele>1065</ele>
        <time>2013-08-18T12:11:33.000Z</time>
      </trkpt>
      <trkpt lat="46.66172" lon="6.31548">
        <ele>1065</ele>
        <time>2013-08-18T12:11:34.000Z</time>
      </trkpt>
      <trkpt lat="46.66171" lon="6.31547">
        <ele>1065</ele>
        <time>2013-08-18T12:11:35.000Z</time>
      </trkpt>
      <trkpt lat="46.66171" lon="6.31546">
        <ele>1065</ele>
        <time>2013-08-18T12:11:36.000Z</time>
      </trkpt>
      <trkpt lat="46.6617" lon="6.31545">
        <ele>1065</ele>
        <time>2013-08-18T12:11:37.000Z</time>
      </trkpt>
      <trkpt lat="46.66169" lon="6.31544">
        <ele>1065</ele>
        <time>2013-08-18T12:11:38.000Z</time>
      </trkpt>
      <trkpt lat="46.66168" lon="6.31544">
        <ele>1065</ele>
        <time>2013-08-18T12:11:39.000Z</time>
      </trkpt>
      <trkpt lat="46.66168" lon="6.31543">
        <ele>1065</ele>
        <time>2013-08-18T12:11:40.000Z</time>
      </trkpt>
      <trkpt lat="46.66167" lon="6.31542">
        <ele>1065</ele>
        <time>2013-08-18T12:11:41.000Z</time>
      </trkpt>
      <trkpt lat="46.66167" lon="6.31541">
        <ele>1071</ele>
        <time>2013-08-18T12:11:42.000Z</time>
      </trkpt>
      <trkpt lat="46.66166" lon="6.31541">
        <ele>1071</ele>
        <time>2013-08-18T12:11:43.000Z</time>
      </trkpt>
      <trkpt lat="46.66166" lon="6.31541">
        <ele>1071</ele>
        <time>2013-08-18T12:11:44.000Z</time>
      </trkpt>
      <trkpt lat="46.66166" lon="6.3154">
        <ele>1071</ele>
        <time>2013-08-18T12:11:46.000Z</time>
      </trkpt>
      <trkpt lat="46.66166" lon="6.3154">
        <ele>1071</ele>
        <time>2013-08-18T12:11:49.000Z</time>
      </trkpt>
      <trkpt lat="46.66166" lon="6.3154">
        <ele>1071</ele>
        <time>2013-08-18T12:11:53.000Z</time>
      </trkpt>
      <trkpt lat="46.66165" lon="6.3154">
        <ele>1071</ele>
        <time>2013-08-18T12:11:55.000Z</time>
      </trkpt>
      <trkpt lat="46.66165" lon="6.31539">
        <ele>1071</ele>
        <time>2013-08-18T12:11:59.000Z</time>
      </trkpt>
      <trkpt lat="46.66165" lon="6.31539">
        <ele>1071</ele>
        <time>2013-08-18T12:12:04.000Z</time>
      </trkpt>
      <trkpt lat="46.66164" lon="6.31539">
        <ele>1071</ele>
        <time>2013-08-18T12:12:05.000Z</time>
      </trkpt>
      <trkpt lat="46.66164" lon="6.31539">
        <ele>1071</ele>
        <time>2013-08-18T12:12:09.000Z</time>
      </trkpt>
      <trkpt lat="46.66164" lon="6.31537">
        <ele>1071</ele>
        <time>2013-08-18T12:12:10.000Z</time>
      </trkpt>
      <trkpt lat="46.66163" lon="6.31536">
        <ele>1071</ele>
        <time>2013-08-18T12:12:11.000Z</time>
      </trkpt>
      <trkpt lat="46.66162" lon="6.31534">
        <ele>1071</ele>
        <time>2013-08-18T12:12:12.000Z</time>
      </trkpt>
      <trkpt lat="46.66161" lon="6.31532">
        <ele>1071</ele>
        <time>2013-08-18T12:12:13.000Z</time>
      </trkpt>
      <trkpt lat="46.6616" lon="6.3153">
        <ele>1071</ele>
        <time>2013-08-18T12:12:14.000Z</time>
      </trkpt>
      <trkpt lat="46.66159" lon="6.31528">
        <ele>1071</ele>
        <time>2013-08-18T12:12:15.000Z</time>
      </trkpt>
      <trkpt lat="46.66158" lon="6.31525">
        <ele>1071</ele>
        <time>2013-08-18T12:12:16.000Z</time>
      </trkpt>
      <trkpt lat="46.66156" lon="6.31523">
        <ele>1071</ele>
        <time>2013-08-18T12:12:17.000Z</time>
      </trkpt>
      <trkpt lat="46.66155" lon="6.31521">
        <ele>1071</ele>
        <time>2013-08-18T12:12:18.000Z</time>
      </trkpt>
      <trkpt lat="46.66154" lon="6.31519">
        <ele>1071</ele>
        <time>2013-08-18T12:12:19.000Z</time>
      </trkpt>
      <trkpt lat="46.66152" lon="6.31516">
        <ele>1071</ele>
        <time>2013-08-18T12:12:20.000Z</time>
      </trkpt>
      <trkpt lat="46.66151" lon="6.31514">
        <ele>1071</ele>
        <time>2013-08-18T12:12:21.000Z</time>
      </trkpt>
      <trkpt lat="46.66149" lon="6.31512">
        <ele>1071</ele>
        <time>2013-08-18T12:12:22.000Z</time>
      </trkpt>
      <trkpt lat="46.66148" lon="6.31509">
        <ele>1071</ele>
        <time>2013-08-18T12:12:23.000Z</time>
      </trkpt>
      <trkpt lat="46.66147" lon="6.31507">
        <ele>1071</ele>
        <time>2013-08-18T12:12:24.000Z</time>
      </trkpt>
      <trkpt lat="46.66145" lon="6.31504">
        <ele>1071</ele>
        <time>2013-08-18T12:12:25.000Z</time>
      </trkpt>
      <trkpt lat="46.66144" lon="6.31502">
        <ele>1071</ele>
        <time>2013-08-18T12:12:26.000Z</time>
      </trkpt>
      <trkpt lat="46.66143" lon="6.315">
        <ele>1071</ele>
        <time>2013-08-18T12:12:27.000Z</time>
      </trkpt>
      <trkpt lat="46.66141" lon="6.31497">
        <ele>1071</ele>
        <time>2013-08-18T12:12:28.000Z</time>
      </trkpt>
      <trkpt lat="46.6614" lon="6.31494">
        <ele>1071</ele>
        <time>2013-08-18T12:12:29.000Z</time>
      </trkpt>
      <trkpt lat="46.66139" lon="6.31491">
        <ele>1071</ele>
        <time>2013-08-18T12:12:30.000Z</time>
      </trkpt>
      <trkpt lat="46.66137" lon="6.31489">
        <ele>1071</ele>
        <time>2013-08-18T12:12:31.000Z</time>
      </trkpt>
      <trkpt lat="46.66136" lon="6.31486">
        <ele>1071</ele>
        <time>2013-08-18T12:12:32.000Z</time>
      </trkpt>
      <trkpt lat="46.66135" lon="6.31484">
        <ele>1071</ele>
        <time>2013-08-18T12:12:33.000Z</time>
      </trkpt>
      <trkpt lat="46.66134" lon="6.31483">
        <ele>1071</ele>
        <time>2013-08-18T12:12:34.000Z</time>
      </trkpt>
      <trkpt lat="46.66133" lon="6.31481">
        <ele>1071</ele>
        <time>2013-08-18T12:12:35.000Z</time>
      </trkpt>
      <trkpt lat="46.66131" lon="6.31478">
        <ele>1071</ele>
        <time>2013-08-18T12:12:36.000Z</time>
      </trkpt>
      <trkpt lat="46.6613" lon="6.31476">
        <ele>1071</ele>
        <time>2013-08-18T12:12:37.000Z</time>
      </trkpt>
      <trkpt lat="46.66129" lon="6.31473">
        <ele>1071</ele>
        <time>2013-08-18T12:12:38.000Z</time>
      </trkpt>
      <trkpt lat="46.66127" lon="6.31471">
        <ele>1071</ele>
        <time>2013-08-18T12:12:39.000Z</time>
      </trkpt>
      <trkpt lat="46.66126" lon="6.31469">
        <ele>1070</ele>
        <time>2013-08-18T12:12:40.000Z</time>
      </trkpt>
      <trkpt lat="46.66125" lon="6.31466">
        <ele>1070</ele>
        <time>2013-08-18T12:12:41.000Z</time>
      </trkpt>
      <trkpt lat="46.66124" lon="6.31464">
        <ele>1070</ele>
        <time>2013-08-18T12:12:42.000Z</time>
      </trkpt>
      <trkpt lat="46.66123" lon="6.31461">
        <ele>1070</ele>
        <time>2013-08-18T12:12:43.000Z</time>
      </trkpt>
      <trkpt lat="46.66121" lon="6.31458">
        <ele>1070</ele>
        <time>2013-08-18T12:12:44.000Z</time>
      </trkpt>
      <trkpt lat="46.6612" lon="6.31456">
        <ele>1070</ele>
        <time>2013-08-18T12:12:45.000Z</time>
      </trkpt>
      <trkpt lat="46.66119" lon="6.31452">
        <ele>1070</ele>
        <time>2013-08-18T12:12:46.000Z</time>
      </trkpt>
      <trkpt lat="46.66117" lon="6.31449">
        <ele>1071</ele>
        <time>2013-08-18T12:12:47.000Z</time>
      </trkpt>
      <trkpt lat="46.66116" lon="6.31446">
        <ele>1071</ele>
        <time>2013-08-18T12:12:48.000Z</time>
      </trkpt>
      <trkpt lat="46.66114" lon="6.31443">
        <ele>1071</ele>
        <time>2013-08-18T12:12:49.000Z</time>
      </trkpt>
      <trkpt lat="46.66113" lon="6.3144">
        <ele>1071</ele>
        <time>2013-08-18T12:12:50.000Z</time>
      </trkpt>
      <trkpt lat="46.66111" lon="6.31437">
        <ele>1071</ele>
        <time>2013-08-18T12:12:51.000Z</time>
      </trkpt>
      <trkpt lat="46.6611" lon="6.31435">
        <ele>1071</ele>
        <time>2013-08-18T12:12:52.000Z</time>
      </trkpt>
      <trkpt lat="46.66108" lon="6.31434">
        <ele>1071</ele>
        <time>2013-08-18T12:12:53.000Z</time>
      </trkpt>
      <trkpt lat="46.66107" lon="6.31432">
        <ele>1072</ele>
        <time>2013-08-18T12:12:54.000Z</time>
      </trkpt>
      <trkpt lat="46.66105" lon="6.3143">
        <ele>1072</ele>
        <time>2013-08-18T12:12:55.000Z</time>
      </trkpt>
      <trkpt lat="46.66104" lon="6.31428">
        <ele>1072</ele>
        <time>2013-08-18T12:12:56.000Z</time>
      </trkpt>
      <trkpt lat="46.66102" lon="6.31425">
        <ele>1072</ele>
        <time>2013-08-18T12:12:57.000Z</time>
      </trkpt>
      <trkpt lat="46.66101" lon="6.31422">
        <ele>1073</ele>
        <time>2013-08-18T12:12:58.000Z</time>
      </trkpt>
      <trkpt lat="46.66099" lon="6.31419">
        <ele>1073</ele>
        <time>2013-08-18T12:12:59.000Z</time>
      </trkpt>
      <trkpt lat="46.66097" lon="6.31416">
        <ele>1071</ele>
        <time>2013-08-18T12:13:00.000Z</time>
      </trkpt>
      <trkpt lat="46.66095" lon="6.31413">
        <ele>1072</ele>
        <time>2013-08-18T12:13:01.000Z</time>
      </trkpt>
      <trkpt lat="46.66094" lon="6.3141">
        <ele>1072</ele>
        <time>2013-08-18T12:13:02.000Z</time>
      </trkpt>
      <trkpt lat="46.66092" lon="6.31407">
        <ele>1072</ele>
        <time>2013-08-18T12:13:03.000Z</time>
      </trkpt>
      <trkpt lat="46.66091" lon="6.31404">
        <ele>1071</ele>
        <time>2013-08-18T12:13:04.000Z</time>
      </trkpt>
      <trkpt lat="46.66089" lon="6.31401">
        <ele>1071</ele>
        <time>2013-08-18T12:13:05.000Z</time>
      </trkpt>
      <trkpt lat="46.66088" lon="6.31397">
        <ele>1070</ele>
        <time>2013-08-18T12:13:06.000Z</time>
      </trkpt>
      <trkpt lat="46.66086" lon="6.31394">
        <ele>1070</ele>
        <time>2013-08-18T12:13:07.000Z</time>
      </trkpt>
      <trkpt lat="46.66086" lon="6.3139">
        <ele>1070</ele>
        <time>2013-08-18T12:13:08.000Z</time>
      </trkpt>
      <trkpt lat="46.66085" lon="6.31387">
        <ele>1069</ele>
        <time>2013-08-18T12:13:09.000Z</time>
      </trkpt>
      <trkpt lat="46.66084" lon="6.31385">
        <ele>1069</ele>
        <time>2013-08-18T12:13:10.000Z</time>
      </trkpt>
      <trkpt lat="46.66083" lon="6.31382">
        <ele>1074</ele>
        <time>2013-08-18T12:13:11.000Z</time>
      </trkpt>
      <trkpt lat="46.66082" lon="6.31379">
        <ele>1074</ele>
        <time>2013-08-18T12:13:12.000Z</time>
      </trkpt>
      <trkpt lat="46.66082" lon="6.31376">
        <ele>1074</ele>
        <time>2013-08-18T12:13:13.000Z</time>
      </trkpt>
      <trkpt lat="46.66081" lon="6.31373">
        <ele>1074</ele>
        <time>2013-08-18T12:13:14.000Z</time>
      </trkpt>
      <trkpt lat="46.6608" lon="6.3137">
        <ele>1074</ele>
        <time>2013-08-18T12:13:15.000Z</time>
      </trkpt>
      <trkpt lat="46.66079" lon="6.31366">
        <ele>1074</ele>
        <time>2013-08-18T12:13:16.000Z</time>
      </trkpt>
      <trkpt lat="46.66078" lon="6.31361">
        <ele>1074</ele>
        <time>2013-08-18T12:13:17.000Z</time>
      </trkpt>
      <trkpt lat="46.66077" lon="6.31356">
        <ele>1075</ele>
        <time>2013-08-18T12:13:18.000Z</time>
      </trkpt>
      <trkpt lat="46.66075" lon="6.31352">
        <ele>1075</ele>
        <time>2013-08-18T12:13:19.000Z</time>
      </trkpt>
      <trkpt lat="46.66073" lon="6.31347">
        <ele>1075</ele>
        <time>2013-08-18T12:13:20.000Z</time>
      </trkpt>
      <trkpt lat="46.66071" lon="6.31343">
        <ele>1075</ele>
        <time>2013-08-18T12:13:21.000Z</time>
      </trkpt>
      <trkpt lat="46.66068" lon="6.3134">
        <ele>1075</ele>
        <time>2013-08-18T12:13:22.000Z</time>
      </trkpt>
      <trkpt lat="46.66065" lon="6.31338">
        <ele>1075</ele>
        <time>2013-08-18T12:13:23.000Z</time>
      </trkpt>
      <trkpt lat="46.66063" lon="6.31336">
        <ele>1075</ele>
        <time>2013-08-18T12:13:24.000Z</time>
      </trkpt>
      <trkpt lat="46.66061" lon="6.31335">
        <ele>1074</ele>
        <time>2013-08-18T12:13:25.000Z</time>
      </trkpt>
      <trkpt lat="46.66059" lon="6.31333">
        <ele>1074</ele>
        <time>2013-08-18T12:13:26.000Z</time>
      </trkpt>
      <trkpt lat="46.66057" lon="6.31332">
        <ele>1074</ele>
        <time>2013-08-18T12:13:27.000Z</time>
      </trkpt>
      <trkpt lat="46.66056" lon="6.31332">
        <ele>1074</ele>
        <time>2013-08-18T12:13:28.000Z</time>
      </trkpt>
      <trkpt lat="46.66054" lon="6.31331">
        <ele>1074</ele>
        <time>2013-08-18T12:13:29.000Z</time>
      </trkpt>
      <trkpt lat="46.66052" lon="6.3133">
        <ele>1074</ele>
        <time>2013-08-18T12:13:30.000Z</time>
      </trkpt>
      <trkpt lat="46.6605" lon="6.3133">
        <ele>1074</ele>
        <time>2013-08-18T12:13:31.000Z</time>
      </trkpt>
      <trkpt lat="46.66048" lon="6.3133">
        <ele>1074</ele>
        <time>2013-08-18T12:13:32.000Z</time>
      </trkpt>
      <trkpt lat="46.66047" lon="6.3133">
        <ele>1074</ele>
        <time>2013-08-18T12:13:33.000Z</time>
      </trkpt>
      <trkpt lat="46.66045" lon="6.3133">
        <ele>1074</ele>
        <time>2013-08-18T12:13:34.000Z</time>
      </trkpt>
      <trkpt lat="46.66043" lon="6.31329">
        <ele>1074</ele>
        <time>2013-08-18T12:13:35.000Z</time>
      </trkpt>
      <trkpt lat="46.66041" lon="6.31329">
        <ele>1074</ele>
        <time>2013-08-18T12:13:36.000Z</time>
      </trkpt>
      <trkpt lat="46.66039" lon="6.31328">
        <ele>1074</ele>
        <time>2013-08-18T12:13:37.000Z</time>
      </trkpt>
      <trkpt lat="46.66038" lon="6.31328">
        <ele>1074</ele>
        <time>2013-08-18T12:13:38.000Z</time>
      </trkpt>
      <trkpt lat="46.66036" lon="6.31326">
        <ele>1074</ele>
        <time>2013-08-18T12:13:39.000Z</time>
      </trkpt>
      <trkpt lat="46.66034" lon="6.31325">
        <ele>1074</ele>
        <time>2013-08-18T12:13:40.000Z</time>
      </trkpt>
      <trkpt lat="46.66032" lon="6.31323">
        <ele>1074</ele>
        <time>2013-08-18T12:13:41.000Z</time>
      </trkpt>
      <trkpt lat="46.66031" lon="6.31321">
        <ele>1074</ele>
        <time>2013-08-18T12:13:42.000Z</time>
      </trkpt>
      <trkpt lat="46.66029" lon="6.3132">
        <ele>1074</ele>
        <time>2013-08-18T12:13:43.000Z</time>
      </trkpt>
      <trkpt lat="46.66028" lon="6.31318">
        <ele>1074</ele>
        <time>2013-08-18T12:13:44.000Z</time>
      </trkpt>
      <trkpt lat="46.66027" lon="6.31317">
        <ele>1074</ele>
        <time>2013-08-18T12:13:45.000Z</time>
      </trkpt>
      <trkpt lat="46.66025" lon="6.31315">
        <ele>1074</ele>
        <time>2013-08-18T12:13:46.000Z</time>
      </trkpt>
      <trkpt lat="46.66024" lon="6.31313">
        <ele>1074</ele>
        <time>2013-08-18T12:13:47.000Z</time>
      </trkpt>
      <trkpt lat="46.66022" lon="6.31312">
        <ele>1074</ele>
        <time>2013-08-18T12:13:48.000Z</time>
      </trkpt>
      <trkpt lat="46.66021" lon="6.31309">
        <ele>1074</ele>
        <time>2013-08-18T12:13:49.000Z</time>
      </trkpt>
      <trkpt lat="46.66019" lon="6.31307">
        <ele>1074</ele>
        <time>2013-08-18T12:13:50.000Z</time>
      </trkpt>
      <trkpt lat="46.66017" lon="6.31305">
        <ele>1074</ele>
        <time>2013-08-18T12:13:51.000Z</time>
      </trkpt>
      <trkpt lat="46.66015" lon="6.31302">
        <ele>1074</ele>
        <time>2013-08-18T12:13:52.000Z</time>
      </trkpt>
      <trkpt lat="46.66013" lon="6.313">
        <ele>1075</ele>
        <time>2013-08-18T12:13:53.000Z</time>
      </trkpt>
      <trkpt lat="46.66012" lon="6.31297">
        <ele>1075</ele>
        <time>2013-08-18T12:13:54.000Z</time>
      </trkpt>
      <trkpt lat="46.6601" lon="6.31295">
        <ele>1075</ele>
        <time>2013-08-18T12:13:55.000Z</time>
      </trkpt>
      <trkpt lat="46.66009" lon="6.31292">
        <ele>1075</ele>
        <time>2013-08-18T12:13:56.000Z</time>
      </trkpt>
      <trkpt lat="46.66008" lon="6.3129">
        <ele>1075</ele>
        <time>2013-08-18T12:13:57.000Z</time>
      </trkpt>
      <trkpt lat="46.66007" lon="6.31287">
        <ele>1075</ele>
        <time>2013-08-18T12:13:58.000Z</time>
      </trkpt>
      <trkpt lat="46.66005" lon="6.31284">
        <ele>1076</ele>
        <time>2013-08-18T12:13:59.000Z</time>
      </trkpt>
      <trkpt lat="46.66004" lon="6.31281">
        <ele>1076</ele>
        <time>2013-08-18T12:14:00.000Z</time>
      </trkpt>
      <trkpt lat="46.66003" lon="6.31278">
        <ele>1076</ele>
        <time>2013-08-18T12:14:01.000Z</time>
      </trkpt>
      <trkpt lat="46.66002" lon="6.31275">
        <ele>1077</ele>
        <time>2013-08-18T12:14:02.000Z</time>
      </trkpt>
      <trkpt lat="46.66" lon="6.31271">
        <ele>1077</ele>
        <time>2013-08-18T12:14:03.000Z</time>
      </trkpt>
      <trkpt lat="46.65999" lon="6.31268">
        <ele>1075</ele>
        <time>2013-08-18T12:14:04.000Z</time>
      </trkpt>
      <trkpt lat="46.65998" lon="6.31264">
        <ele>1076</ele>
        <time>2013-08-18T12:14:05.000Z</time>
      </trkpt>
      <trkpt lat="46.65997" lon="6.31261">
        <ele>1077</ele>
        <time>2013-08-18T12:14:06.000Z</time>
      </trkpt>
      <trkpt lat="46.65996" lon="6.31258">
        <ele>1078</ele>
        <time>2013-08-18T12:14:07.000Z</time>
      </trkpt>
      <trkpt lat="46.65994" lon="6.31255">
        <ele>1078</ele>
        <time>2013-08-18T12:14:08.000Z</time>
      </trkpt>
      <trkpt lat="46.65993" lon="6.31252">
        <ele>1079</ele>
        <time>2013-08-18T12:14:09.000Z</time>
      </trkpt>
      <trkpt lat="46.65991" lon="6.31249">
        <ele>1080</ele>
        <time>2013-08-18T12:14:10.000Z</time>
      </trkpt>
      <trkpt lat="46.6599" lon="6.31245">
        <ele>1080</ele>
        <time>2013-08-18T12:14:11.000Z</time>
      </trkpt>
      <trkpt lat="46.65989" lon="6.31242">
        <ele>1080</ele>
        <time>2013-08-18T12:14:12.000Z</time>
      </trkpt>
      <trkpt lat="46.65988" lon="6.3124">
        <ele>1079</ele>
        <time>2013-08-18T12:14:13.000Z</time>
      </trkpt>
      <trkpt lat="46.65987" lon="6.31237">
        <ele>1079</ele>
        <time>2013-08-18T12:14:14.000Z</time>
      </trkpt>
      <trkpt lat="46.65985" lon="6.31234">
        <ele>1079</ele>
        <time>2013-08-18T12:14:15.000Z</time>
      </trkpt>
      <trkpt lat="46.65984" lon="6.31231">
        <ele>1078</ele>
        <time>2013-08-18T12:14:16.000Z</time>
      </trkpt>
      <trkpt lat="46.65983" lon="6.31228">
        <ele>1078</ele>
        <time>2013-08-18T12:14:17.000Z</time>
      </trkpt>
      <trkpt lat="46.65981" lon="6.31226">
        <ele>1078</ele>
        <time>2013-08-18T12:14:18.000Z</time>
      </trkpt>
      <trkpt lat="46.6598" lon="6.31223">
        <ele>1078</ele>
        <time>2013-08-18T12:14:19.000Z</time>
      </trkpt>
      <trkpt lat="46.65979" lon="6.3122">
        <ele>1078</ele>
        <time>2013-08-18T12:14:20.000Z</time>
      </trkpt>
      <trkpt lat="46.65977" lon="6.31217">
        <ele>1078</ele>
        <time>2013-08-18T12:14:21.000Z</time>
      </trkpt>
      <trkpt lat="46.65976" lon="6.31214">
        <ele>1077</ele>
        <time>2013-08-18T12:14:22.000Z</time>
      </trkpt>
      <trkpt lat="46.65974" lon="6.31211">
        <ele>1077</ele>
        <time>2013-08-18T12:14:23.000Z</time>
      </trkpt>
      <trkpt lat="46.65972" lon="6.31208">
        <ele>1077</ele>
        <time>2013-08-18T12:14:24.000Z</time>
      </trkpt>
      <trkpt lat="46.65971" lon="6.31206">
        <ele>1077</ele>
        <time>2013-08-18T12:14:25.000Z</time>
      </trkpt>
      <trkpt lat="46.65969" lon="6.31203">
        <ele>1077</ele>
        <time>2013-08-18T12:14:26.000Z</time>
      </trkpt>
      <trkpt lat="46.65968" lon="6.31201">
        <ele>1077</ele>
        <time>2013-08-18T12:14:27.000Z</time>
      </trkpt>
      <trkpt lat="46.65966" lon="6.31198">
        <ele>1077</ele>
        <time>2013-08-18T12:14:28.000Z</time>
      </trkpt>
      <trkpt lat="46.65964" lon="6.31196">
        <ele>1077</ele>
        <time>2013-08-18T12:14:29.000Z</time>
      </trkpt>
      <trkpt lat="46.65963" lon="6.31193">
        <ele>1077</ele>
        <time>2013-08-18T12:14:30.000Z</time>
      </trkpt>
      <trkpt lat="46.65961" lon="6.31191">
        <ele>1077</ele>
        <time>2013-08-18T12:14:31.000Z</time>
      </trkpt>
      <trkpt lat="46.65959" lon="6.31188">
        <ele>1077</ele>
        <time>2013-08-18T12:14:32.000Z</time>
      </trkpt>
      <trkpt lat="46.65957" lon="6.31185">
        <ele>1077</ele>
        <time>2013-08-18T12:14:33.000Z</time>
      </trkpt>
      <trkpt lat="46.65956" lon="6.31182">
        <ele>1077</ele>
        <time>2013-08-18T12:14:34.000Z</time>
      </trkpt>
      <trkpt lat="46.65954" lon="6.3118">
        <ele>1077</ele>
        <time>2013-08-18T12:14:35.000Z</time>
      </trkpt>
      <trkpt lat="46.65952" lon="6.31177">
        <ele>1077</ele>
        <time>2013-08-18T12:14:36.000Z</time>
      </trkpt>
      <trkpt lat="46.65951" lon="6.31174">
        <ele>1077</ele>
        <time>2013-08-18T12:14:37.000Z</time>
      </trkpt>
      <trkpt lat="46.6595" lon="6.31172">
        <ele>1077</ele>
        <time>2013-08-18T12:14:38.000Z</time>
      </trkpt>
      <trkpt lat="46.65949" lon="6.31169">
        <ele>1078</ele>
        <time>2013-08-18T12:14:39.000Z</time>
      </trkpt>
      <trkpt lat="46.65947" lon="6.31166">
        <ele>1076</ele>
        <time>2013-08-18T12:14:40.000Z</time>
      </trkpt>
      <trkpt lat="46.65946" lon="6.31163">
        <ele>1076</ele>
        <time>2013-08-18T12:14:41.000Z</time>
      </trkpt>
      <trkpt lat="46.65944" lon="6.31161">
        <ele>1076</ele>
        <time>2013-08-18T12:14:42.000Z</time>
      </trkpt>
      <trkpt lat="46.65943" lon="6.31158">
        <ele>1076</ele>
        <time>2013-08-18T12:14:43.000Z</time>
      </trkpt>
      <trkpt lat="46.65941" lon="6.31155">
        <ele>1076</ele>
        <time>2013-08-18T12:14:44.000Z</time>
      </trkpt>
      <trkpt lat="46.65939" lon="6.31151">
        <ele>1076</ele>
        <time>2013-08-18T12:14:45.000Z</time>
      </trkpt>
      <trkpt lat="46.65937" lon="6.31147">
        <ele>1076</ele>
        <time>2013-08-18T12:14:46.000Z</time>
      </trkpt>
      <trkpt lat="46.65935" lon="6.31143">
        <ele>1076</ele>
        <time>2013-08-18T12:14:47.000Z</time>
      </trkpt>
      <trkpt lat="46.65934" lon="6.3114">
        <ele>1076</ele>
        <time>2013-08-18T12:14:48.000Z</time>
      </trkpt>
      <trkpt lat="46.65932" lon="6.31136">
        <ele>1076</ele>
        <time>2013-08-18T12:14:49.000Z</time>
      </trkpt>
      <trkpt lat="46.6593" lon="6.31133">
        <ele>1076</ele>
        <time>2013-08-18T12:14:50.000Z</time>
      </trkpt>
      <trkpt lat="46.65929" lon="6.3113">
        <ele>1076</ele>
        <time>2013-08-18T12:14:51.000Z</time>
      </trkpt>
      <trkpt lat="46.65927" lon="6.31127">
        <ele>1076</ele>
        <time>2013-08-18T12:14:52.000Z</time>
      </trkpt>
      <trkpt lat="46.65925" lon="6.31123">
        <ele>1076</ele>
        <time>2013-08-18T12:14:53.000Z</time>
      </trkpt>
      <trkpt lat="46.65923" lon="6.3112">
        <ele>1076</ele>
        <time>2013-08-18T12:14:54.000Z</time>
      </trkpt>
      <trkpt lat="46.65921" lon="6.31117">
        <ele>1076</ele>
        <time>2013-08-18T12:14:55.000Z</time>
      </trkpt>
      <trkpt lat="46.6592" lon="6.31114">
        <ele>1076</ele>
        <time>2013-08-18T12:14:56.000Z</time>
      </trkpt>
      <trkpt lat="46.65918" lon="6.3111">
        <ele>1077</ele>
        <time>2013-08-18T12:14:57.000Z</time>
      </trkpt>
      <trkpt lat="46.65916" lon="6.31107">
        <ele>1077</ele>
        <time>2013-08-18T12:14:58.000Z</time>
      </trkpt>
      <trkpt lat="46.65914" lon="6.31103">
        <ele>1077</ele>
        <time>2013-08-18T12:14:59.000Z</time>
      </trkpt>
      <trkpt lat="46.65912" lon="6.311">
        <ele>1077</ele>
        <time>2013-08-18T12:15:00.000Z</time>
      </trkpt>
      <trkpt lat="46.6591" lon="6.31097">
        <ele>1077</ele>
        <time>2013-08-18T12:15:01.000Z</time>
      </trkpt>
      <trkpt lat="46.65908" lon="6.31094">
        <ele>1078</ele>
        <time>2013-08-18T12:15:02.000Z</time>
      </trkpt>
      <trkpt lat="46.65906" lon="6.31091">
        <ele>1078</ele>
        <time>2013-08-18T12:15:03.000Z</time>
      </trkpt>
      <trkpt lat="46.65905" lon="6.31087">
        <ele>1078</ele>
        <time>2013-08-18T12:15:04.000Z</time>
      </trkpt>
      <trkpt lat="46.65903" lon="6.31084">
        <ele>1078</ele>
        <time>2013-08-18T12:15:05.000Z</time>
      </trkpt>
      <trkpt lat="46.65901" lon="6.31081">
        <ele>1078</ele>
        <time>2013-08-18T12:15:06.000Z</time>
      </trkpt>
      <trkpt lat="46.65899" lon="6.31077">
        <ele>1078</ele>
        <time>2013-08-18T12:15:07.000Z</time>
      </trkpt>
      <trkpt lat="46.65897" lon="6.31074">
        <ele>1077</ele>
        <time>2013-08-18T12:15:08.000Z</time>
      </trkpt>
      <trkpt lat="46.65895" lon="6.31069">
        <ele>1077</ele>
        <time>2013-08-18T12:15:09.000Z</time>
      </trkpt>
      <trkpt lat="46.65892" lon="6.31065">
        <ele>1077</ele>
        <time>2013-08-18T12:15:10.000Z</time>
      </trkpt>
      <trkpt lat="46.65889" lon="6.3106">
        <ele>1076</ele>
        <time>2013-08-18T12:15:11.000Z</time>
      </trkpt>
      <trkpt lat="46.65887" lon="6.31055">
        <ele>1076</ele>
        <time>2013-08-18T12:15:12.000Z</time>
      </trkpt>
      <trkpt lat="46.65885" lon="6.31051">
        <ele>1076</ele>
        <time>2013-08-18T12:15:13.000Z</time>
      </trkpt>
      <trkpt lat="46.65883" lon="6.31047">
        <ele>1076</ele>
        <time>2013-08-18T12:15:14.000Z</time>
      </trkpt>
      <trkpt lat="46.6588" lon="6.31043">
        <ele>1076</ele>
        <time>2013-08-18T12:15:15.000Z</time>
      </trkpt>
      <trkpt lat="46.65878" lon="6.31037">
        <ele>1076</ele>
        <time>2013-08-18T12:15:16.000Z</time>
      </trkpt>
      <trkpt lat="46.65875" lon="6.31032">
        <ele>1076</ele>
        <time>2013-08-18T12:15:17.000Z</time>
      </trkpt>
      <trkpt lat="46.65872" lon="6.31027">
        <ele>1076</ele>
        <time>2013-08-18T12:15:18.000Z</time>
      </trkpt>
      <trkpt lat="46.65869" lon="6.31022">
        <ele>1076</ele>
        <time>2013-08-18T12:15:19.000Z</time>
      </trkpt>
      <trkpt lat="46.65866" lon="6.31019">
        <ele>1077</ele>
        <time>2013-08-18T12:15:20.000Z</time>
      </trkpt>
      <trkpt lat="46.65864" lon="6.31018">
        <ele>1077</ele>
        <time>2013-08-18T12:15:21.000Z</time>
      </trkpt>
      <trkpt lat="46.65862" lon="6.31017">
        <ele>1077</ele>
        <time>2013-08-18T12:15:22.000Z</time>
      </trkpt>
      <trkpt lat="46.6586" lon="6.31015">
        <ele>1077</ele>
        <time>2013-08-18T12:15:23.000Z</time>
      </trkpt>
      <trkpt lat="46.65857" lon="6.31013">
        <ele>1077</ele>
        <time>2013-08-18T12:15:24.000Z</time>
      </trkpt>
      <trkpt lat="46.65855" lon="6.31011">
        <ele>1078</ele>
        <time>2013-08-18T12:15:25.000Z</time>
      </trkpt>
      <trkpt lat="46.65853" lon="6.31009">
        <ele>1078</ele>
        <time>2013-08-18T12:15:26.000Z</time>
      </trkpt>
      <trkpt lat="46.65851" lon="6.31006">
        <ele>1078</ele>
        <time>2013-08-18T12:15:27.000Z</time>
      </trkpt>
      <trkpt lat="46.65848" lon="6.31003">
        <ele>1079</ele>
        <time>2013-08-18T12:15:28.000Z</time>
      </trkpt>
      <trkpt lat="46.65846" lon="6.31">
        <ele>1079</ele>
        <time>2013-08-18T12:15:29.000Z</time>
      </trkpt>
      <trkpt lat="46.65843" lon="6.30995">
        <ele>1080</ele>
        <time>2013-08-18T12:15:30.000Z</time>
      </trkpt>
      <trkpt lat="46.65841" lon="6.30992">
        <ele>1079</ele>
        <time>2013-08-18T12:15:31.000Z</time>
      </trkpt>
      <trkpt lat="46.65838" lon="6.30989">
        <ele>1079</ele>
        <time>2013-08-18T12:15:32.000Z</time>
      </trkpt>
      <trkpt lat="46.65836" lon="6.30986">
        <ele>1079</ele>
        <time>2013-08-18T12:15:33.000Z</time>
      </trkpt>
      <trkpt lat="46.65835" lon="6.30983">
        <ele>1079</ele>
        <time>2013-08-18T12:15:34.000Z</time>
      </trkpt>
      <trkpt lat="46.65833" lon="6.30979">
        <ele>1078</ele>
        <time>2013-08-18T12:15:35.000Z</time>
      </trkpt>
      <trkpt lat="46.65832" lon="6.30976">
        <ele>1078</ele>
        <time>2013-08-18T12:15:36.000Z</time>
      </trkpt>
      <trkpt lat="46.6583" lon="6.30973">
        <ele>1077</ele>
        <time>2013-08-18T12:15:37.000Z</time>
      </trkpt>
      <trkpt lat="46.65829" lon="6.3097">
        <ele>1077</ele>
        <time>2013-08-18T12:15:38.000Z</time>
      </trkpt>
      <trkpt lat="46.65827" lon="6.30966">
        <ele>1077</ele>
        <time>2013-08-18T12:15:39.000Z</time>
      </trkpt>
      <trkpt lat="46.65825" lon="6.30963">
        <ele>1077</ele>
        <time>2013-08-18T12:15:40.000Z</time>
      </trkpt>
      <trkpt lat="46.65824" lon="6.30961">
        <ele>1077</ele>
        <time>2013-08-18T12:15:41.000Z</time>
      </trkpt>
      <trkpt lat="46.65822" lon="6.30958">
        <ele>1077</ele>
        <time>2013-08-18T12:15:42.000Z</time>
      </trkpt>
      <trkpt lat="46.65821" lon="6.30956">
        <ele>1077</ele>
        <time>2013-08-18T12:15:43.000Z</time>
      </trkpt>
      <trkpt lat="46.65818" lon="6.30953">
        <ele>1077</ele>
        <time>2013-08-18T12:15:44.000Z</time>
      </trkpt>
      <trkpt lat="46.65815" lon="6.30951">
        <ele>1077</ele>
        <time>2013-08-18T12:15:45.000Z</time>
      </trkpt>
      <trkpt lat="46.65813" lon="6.30948">
        <ele>1077</ele>
        <time>2013-08-18T12:15:46.000Z</time>
      </trkpt>
      <trkpt lat="46.65811" lon="6.30946">
        <ele>1077</ele>
        <time>2013-08-18T12:15:47.000Z</time>
      </trkpt>
      <trkpt lat="46.65809" lon="6.30945">
        <ele>1077</ele>
        <time>2013-08-18T12:15:48.000Z</time>
      </trkpt>
      <trkpt lat="46.65807" lon="6.30943">
        <ele>1077</ele>
        <time>2013-08-18T12:15:49.000Z</time>
      </trkpt>
      <trkpt lat="46.65805" lon="6.30941">
        <ele>1077</ele>
        <time>2013-08-18T12:15:50.000Z</time>
      </trkpt>
      <trkpt lat="46.65803" lon="6.30939">
        <ele>1077</ele>
        <time>2013-08-18T12:15:51.000Z</time>
      </trkpt>
      <trkpt lat="46.65801" lon="6.30937">
        <ele>1077</ele>
        <time>2013-08-18T12:15:52.000Z</time>
      </trkpt>
      <trkpt lat="46.65799" lon="6.30936">
        <ele>1077</ele>
        <time>2013-08-18T12:15:53.000Z</time>
      </trkpt>
      <trkpt lat="46.65798" lon="6.30934">
        <ele>1077</ele>
        <time>2013-08-18T12:15:54.000Z</time>
      </trkpt>
      <trkpt lat="46.65797" lon="6.30932">
        <ele>1077</ele>
        <time>2013-08-18T12:15:55.000Z</time>
      </trkpt>
      <trkpt lat="46.65796" lon="6.3093">
        <ele>1077</ele>
        <time>2013-08-18T12:15:56.000Z</time>
      </trkpt>
      <trkpt lat="46.65795" lon="6.30928">
        <ele>1077</ele>
        <time>2013-08-18T12:15:57.000Z</time>
      </trkpt>
      <trkpt lat="46.65794" lon="6.30926">
        <ele>1077</ele>
        <time>2013-08-18T12:15:58.000Z</time>
      </trkpt>
      <trkpt lat="46.65793" lon="6.30924">
        <ele>1077</ele>
        <time>2013-08-18T12:15:59.000Z</time>
      </trkpt>
      <trkpt lat="46.65792" lon="6.30922">
        <ele>1077</ele>
        <time>2013-08-18T12:16:00.000Z</time>
      </trkpt>
      <trkpt lat="46.65791" lon="6.3092">
        <ele>1077</ele>
        <time>2013-08-18T12:16:01.000Z</time>
      </trkpt>
      <trkpt lat="46.6579" lon="6.30918">
        <ele>1077</ele>
        <time>2013-08-18T12:16:02.000Z</time>
      </trkpt>
      <trkpt lat="46.65789" lon="6.30916">
        <ele>1079</ele>
        <time>2013-08-18T12:16:03.000Z</time>
      </trkpt>
      <trkpt lat="46.65788" lon="6.30914">
        <ele>1079</ele>
        <time>2013-08-18T12:16:04.000Z</time>
      </trkpt>
      <trkpt lat="46.65786" lon="6.30911">
        <ele>1079</ele>
        <time>2013-08-18T12:16:05.000Z</time>
      </trkpt>
      <trkpt lat="46.65785" lon="6.30909">
        <ele>1079</ele>
        <time>2013-08-18T12:16:06.000Z</time>
      </trkpt>
      <trkpt lat="46.65783" lon="6.30907">
        <ele>1079</ele>
        <time>2013-08-18T12:16:07.000Z</time>
      </trkpt>
      <trkpt lat="46.65782" lon="6.30905">
        <ele>1079</ele>
        <time>2013-08-18T12:16:08.000Z</time>
      </trkpt>
      <trkpt lat="46.65781" lon="6.30902">
        <ele>1079</ele>
        <time>2013-08-18T12:16:09.000Z</time>
      </trkpt>
      <trkpt lat="46.6578" lon="6.309">
        <ele>1079</ele>
        <time>2013-08-18T12:16:10.000Z</time>
      </trkpt>
      <trkpt lat="46.65779" lon="6.30898">
        <ele>1079</ele>
        <time>2013-08-18T12:16:11.000Z</time>
      </trkpt>
      <trkpt lat="46.65778" lon="6.30896">
        <ele>1079</ele>
        <time>2013-08-18T12:16:12.000Z</time>
      </trkpt>
      <trkpt lat="46.65776" lon="6.30893">
        <ele>1079</ele>
        <time>2013-08-18T12:16:13.000Z</time>
      </trkpt>
      <trkpt lat="46.65775" lon="6.3089">
        <ele>1079</ele>
        <time>2013-08-18T12:16:14.000Z</time>
      </trkpt>
      <trkpt lat="46.65774" lon="6.30887">
        <ele>1079</ele>
        <time>2013-08-18T12:16:15.000Z</time>
      </trkpt>
      <trkpt lat="46.65773" lon="6.30885">
        <ele>1079</ele>
        <time>2013-08-18T12:16:16.000Z</time>
      </trkpt>
      <trkpt lat="46.65772" lon="6.30882">
        <ele>1079</ele>
        <time>2013-08-18T12:16:17.000Z</time>
      </trkpt>
      <trkpt lat="46.65772" lon="6.3088">
        <ele>1079</ele>
        <time>2013-08-18T12:16:18.000Z</time>
      </trkpt>
      <trkpt lat="46.65771" lon="6.30877">
        <ele>1079</ele>
        <time>2013-08-18T12:16:19.000Z</time>
      </trkpt>
      <trkpt lat="46.65769" lon="6.30875">
        <ele>1079</ele>
        <time>2013-08-18T12:16:20.000Z</time>
      </trkpt>
      <trkpt lat="46.65768" lon="6.30872">
        <ele>1079</ele>
        <time>2013-08-18T12:16:21.000Z</time>
      </trkpt>
      <trkpt lat="46.65767" lon="6.30869">
        <ele>1080</ele>
        <time>2013-08-18T12:16:22.000Z</time>
      </trkpt>
      <trkpt lat="46.65765" lon="6.30866">
        <ele>1080</ele>
        <time>2013-08-18T12:16:23.000Z</time>
      </trkpt>
      <trkpt lat="46.65764" lon="6.30863">
        <ele>1080</ele>
        <time>2013-08-18T12:16:24.000Z</time>
      </trkpt>
      <trkpt lat="46.65762" lon="6.30859">
        <ele>1080</ele>
        <time>2013-08-18T12:16:25.000Z</time>
      </trkpt>
      <trkpt lat="46.6576" lon="6.30856">
        <ele>1080</ele>
        <time>2013-08-18T12:16:26.000Z</time>
      </trkpt>
      <trkpt lat="46.65759" lon="6.30852">
        <ele>1081</ele>
        <time>2013-08-18T12:16:27.000Z</time>
      </trkpt>
      <trkpt lat="46.65757" lon="6.30848">
        <ele>1081</ele>
        <time>2013-08-18T12:16:28.000Z</time>
      </trkpt>
      <trkpt lat="46.65755" lon="6.30844">
        <ele>1082</ele>
        <time>2013-08-18T12:16:29.000Z</time>
      </trkpt>
      <trkpt lat="46.65753" lon="6.30841">
        <ele>1082</ele>
        <time>2013-08-18T12:16:30.000Z</time>
      </trkpt>
      <trkpt lat="46.65751" lon="6.30837">
        <ele>1083</ele>
        <time>2013-08-18T12:16:31.000Z</time>
      </trkpt>
      <trkpt lat="46.6575" lon="6.30833">
        <ele>1084</ele>
        <time>2013-08-18T12:16:32.000Z</time>
      </trkpt>
      <trkpt lat="46.65748" lon="6.30828">
        <ele>1083</ele>
        <time>2013-08-18T12:16:33.000Z</time>
      </trkpt>
      <trkpt lat="46.65747" lon="6.30824">
        <ele>1082</ele>
        <time>2013-08-18T12:16:34.000Z</time>
      </trkpt>
      <trkpt lat="46.65745" lon="6.3082">
        <ele>1081</ele>
        <time>2013-08-18T12:16:35.000Z</time>
      </trkpt>
      <trkpt lat="46.65744" lon="6.30817">
        <ele>1081</ele>
        <time>2013-08-18T12:16:36.000Z</time>
      </trkpt>
      <trkpt lat="46.65743" lon="6.30814">
        <ele>1080</ele>
        <time>2013-08-18T12:16:37.000Z</time>
      </trkpt>
      <trkpt lat="46.65742" lon="6.30811">
        <ele>1080</ele>
        <time>2013-08-18T12:16:38.000Z</time>
      </trkpt>
      <trkpt lat="46.65741" lon="6.30809">
        <ele>1080</ele>
        <time>2013-08-18T12:16:39.000Z</time>
      </trkpt>
      <trkpt lat="46.6574" lon="6.30806">
        <ele>1080</ele>
        <time>2013-08-18T12:16:40.000Z</time>
      </trkpt>
      <trkpt lat="46.65739" lon="6.30803">
        <ele>1080</ele>
        <time>2013-08-18T12:16:41.000Z</time>
      </trkpt>
      <trkpt lat="46.65738" lon="6.30801">
        <ele>1080</ele>
        <time>2013-08-18T12:16:42.000Z</time>
      </trkpt>
      <trkpt lat="46.65737" lon="6.30798">
        <ele>1080</ele>
        <time>2013-08-18T12:16:43.000Z</time>
      </trkpt>
      <trkpt lat="46.65735" lon="6.30796">
        <ele>1079</ele>
        <time>2013-08-18T12:16:44.000Z</time>
      </trkpt>
      <trkpt lat="46.65734" lon="6.30794">
        <ele>1079</ele>
        <time>2013-08-18T12:16:45.000Z</time>
      </trkpt>
      <trkpt lat="46.65733" lon="6.30791">
        <ele>1079</ele>
        <time>2013-08-18T12:16:46.000Z</time>
      </trkpt>
      <trkpt lat="46.65732" lon="6.30788">
        <ele>1079</ele>
        <time>2013-08-18T12:16:47.000Z</time>
      </trkpt>
      <trkpt lat="46.6573" lon="6.30785">
        <ele>1080</ele>
        <time>2013-08-18T12:16:48.000Z</time>
      </trkpt>
      <trkpt lat="46.65729" lon="6.30782">
        <ele>1080</ele>
        <time>2013-08-18T12:16:49.000Z</time>
      </trkpt>
      <trkpt lat="46.65727" lon="6.30779">
        <ele>1080</ele>
        <time>2013-08-18T12:16:50.000Z</time>
      </trkpt>
      <trkpt lat="46.65726" lon="6.30777">
        <ele>1080</ele>
        <time>2013-08-18T12:16:51.000Z</time>
      </trkpt>
      <trkpt lat="46.65725" lon="6.30775">
        <ele>1080</ele>
        <time>2013-08-18T12:16:52.000Z</time>
      </trkpt>
      <trkpt lat="46.65723" lon="6.30772">
        <ele>1080</ele>
        <time>2013-08-18T12:16:53.000Z</time>
      </trkpt>
      <trkpt lat="46.65721" lon="6.30769">
        <ele>1080</ele>
        <time>2013-08-18T12:16:54.000Z</time>
      </trkpt>
      <trkpt lat="46.65719" lon="6.30764">
        <ele>1080</ele>
        <time>2013-08-18T12:16:55.000Z</time>
      </trkpt>
      <trkpt lat="46.65717" lon="6.3076">
        <ele>1080</ele>
        <time>2013-08-18T12:16:56.000Z</time>
      </trkpt>
      <trkpt lat="46.65715" lon="6.30755">
        <ele>1080</ele>
        <time>2013-08-18T12:16:57.000Z</time>
      </trkpt>
      <trkpt lat="46.65713" lon="6.30751">
        <ele>1080</ele>
        <time>2013-08-18T12:16:58.000Z</time>
      </trkpt>
      <trkpt lat="46.65711" lon="6.30746">
        <ele>1082</ele>
        <time>2013-08-18T12:16:59.000Z</time>
      </trkpt>
      <trkpt lat="46.65709" lon="6.30742">
        <ele>1082</ele>
        <time>2013-08-18T12:17:00.000Z</time>
      </trkpt>
      <trkpt lat="46.65706" lon="6.30738">
        <ele>1082</ele>
        <time>2013-08-18T12:17:01.000Z</time>
      </trkpt>
      <trkpt lat="46.65704" lon="6.30735">
        <ele>1082</ele>
        <time>2013-08-18T12:17:02.000Z</time>
      </trkpt>
      <trkpt lat="46.65701" lon="6.30731">
        <ele>1082</ele>
        <time>2013-08-18T12:17:03.000Z</time>
      </trkpt>
      <trkpt lat="46.65699" lon="6.30729">
        <ele>1082</ele>
        <time>2013-08-18T12:17:04.000Z</time>
      </trkpt>
      <trkpt lat="46.65697" lon="6.30726">
        <ele>1082</ele>
        <time>2013-08-18T12:17:05.000Z</time>
      </trkpt>
      <trkpt lat="46.65695" lon="6.30724">
        <ele>1082</ele>
        <time>2013-08-18T12:17:06.000Z</time>
      </trkpt>
      <trkpt lat="46.65694" lon="6.30722">
        <ele>1082</ele>
        <time>2013-08-18T12:17:07.000Z</time>
      </trkpt>
      <trkpt lat="46.65692" lon="6.30719">
        <ele>1082</ele>
        <time>2013-08-18T12:17:08.000Z</time>
      </trkpt>
      <trkpt lat="46.6569" lon="6.30715">
        <ele>1082</ele>
        <time>2013-08-18T12:17:09.000Z</time>
      </trkpt>
      <trkpt lat="46.65689" lon="6.30711">
        <ele>1082</ele>
        <time>2013-08-18T12:17:10.000Z</time>
      </trkpt>
      <trkpt lat="46.65687" lon="6.30706">
        <ele>1082</ele>
        <time>2013-08-18T12:17:11.000Z</time>
      </trkpt>
      <trkpt lat="46.65686" lon="6.30701">
        <ele>1082</ele>
        <time>2013-08-18T12:17:12.000Z</time>
      </trkpt>
      <trkpt lat="46.65684" lon="6.30696">
        <ele>1082</ele>
        <time>2013-08-18T12:17:13.000Z</time>
      </trkpt>
      <trkpt lat="46.65682" lon="6.30691">
        <ele>1083</ele>
        <time>2013-08-18T12:17:14.000Z</time>
      </trkpt>
      <trkpt lat="46.65681" lon="6.30686">
        <ele>1083</ele>
        <time>2013-08-18T12:17:15.000Z</time>
      </trkpt>
      <trkpt lat="46.6568" lon="6.30683">
        <ele>1083</ele>
        <time>2013-08-18T12:17:16.000Z</time>
      </trkpt>
      <trkpt lat="46.65679" lon="6.30679">
        <ele>1083</ele>
        <time>2013-08-18T12:17:17.000Z</time>
      </trkpt>
      <trkpt lat="46.65678" lon="6.30677">
        <ele>1084</ele>
        <time>2013-08-18T12:17:18.000Z</time>
      </trkpt>
      <trkpt lat="46.65677" lon="6.30674">
        <ele>1084</ele>
        <time>2013-08-18T12:17:19.000Z</time>
      </trkpt>
      <trkpt lat="46.65676" lon="6.30671">
        <ele>1084</ele>
        <time>2013-08-18T12:17:20.000Z</time>
      </trkpt>
      <trkpt lat="46.65675" lon="6.30668">
        <ele>1085</ele>
        <time>2013-08-18T12:17:21.000Z</time>
      </trkpt>
      <trkpt lat="46.65674" lon="6.30666">
        <ele>1083</ele>
        <time>2013-08-18T12:17:22.000Z</time>
      </trkpt>
      <trkpt lat="46.65673" lon="6.30664">
        <ele>1083</ele>
        <time>2013-08-18T12:17:23.000Z</time>
      </trkpt>
      <trkpt lat="46.65672" lon="6.30661">
        <ele>1083</ele>
        <time>2013-08-18T12:17:24.000Z</time>
      </trkpt>
      <trkpt lat="46.65671" lon="6.30659">
        <ele>1083</ele>
        <time>2013-08-18T12:17:25.000Z</time>
      </trkpt>
      <trkpt lat="46.6567" lon="6.30656">
        <ele>1082</ele>
        <time>2013-08-18T12:17:26.000Z</time>
      </trkpt>
      <trkpt lat="46.65669" lon="6.30654">
        <ele>1082</ele>
        <time>2013-08-18T12:17:27.000Z</time>
      </trkpt>
      <trkpt lat="46.65668" lon="6.30652">
        <ele>1081</ele>
        <time>2013-08-18T12:17:28.000Z</time>
      </trkpt>
      <trkpt lat="46.65667" lon="6.3065">
        <ele>1081</ele>
        <time>2013-08-18T12:17:29.000Z</time>
      </trkpt>
      <trkpt lat="46.65666" lon="6.30648">
        <ele>1084</ele>
        <time>2013-08-18T12:17:30.000Z</time>
      </trkpt>
      <trkpt lat="46.65666" lon="6.30646">
        <ele>1084</ele>
        <time>2013-08-18T12:17:31.000Z</time>
      </trkpt>
      <trkpt lat="46.65664" lon="6.30644">
        <ele>1084</ele>
        <time>2013-08-18T12:17:32.000Z</time>
      </trkpt>
      <trkpt lat="46.65663" lon="6.30642">
        <ele>1084</ele>
        <time>2013-08-18T12:17:33.000Z</time>
      </trkpt>
      <trkpt lat="46.65662" lon="6.3064">
        <ele>1084</ele>
        <time>2013-08-18T12:17:34.000Z</time>
      </trkpt>
      <trkpt lat="46.65661" lon="6.30638">
        <ele>1084</ele>
        <time>2013-08-18T12:17:35.000Z</time>
      </trkpt>
      <trkpt lat="46.65659" lon="6.30636">
        <ele>1084</ele>
        <time>2013-08-18T12:17:36.000Z</time>
      </trkpt>
      <trkpt lat="46.65658" lon="6.30634">
        <ele>1083</ele>
        <time>2013-08-18T12:17:37.000Z</time>
      </trkpt>
      <trkpt lat="46.65656" lon="6.30632">
        <ele>1083</ele>
        <time>2013-08-18T12:17:38.000Z</time>
      </trkpt>
      <trkpt lat="46.65654" lon="6.30629">
        <ele>1083</ele>
        <time>2013-08-18T12:17:39.000Z</time>
      </trkpt>
      <trkpt lat="46.65653" lon="6.30627">
        <ele>1083</ele>
        <time>2013-08-18T12:17:40.000Z</time>
      </trkpt>
      <trkpt lat="46.65651" lon="6.30626">
        <ele>1083</ele>
        <time>2013-08-18T12:17:41.000Z</time>
      </trkpt>
      <trkpt lat="46.65649" lon="6.30624">
        <ele>1083</ele>
        <time>2013-08-18T12:17:42.000Z</time>
      </trkpt>
      <trkpt lat="46.65648" lon="6.30622">
        <ele>1083</ele>
        <time>2013-08-18T12:17:43.000Z</time>
      </trkpt>
      <trkpt lat="46.65645" lon="6.3062">
        <ele>1083</ele>
        <time>2013-08-18T12:17:44.000Z</time>
      </trkpt>
      <trkpt lat="46.65643" lon="6.30618">
        <ele>1083</ele>
        <time>2013-08-18T12:17:45.000Z</time>
      </trkpt>
      <trkpt lat="46.65641" lon="6.30617">
        <ele>1083</ele>
        <time>2013-08-18T12:17:46.000Z</time>
      </trkpt>
      <trkpt lat="46.65639" lon="6.30616">
        <ele>1083</ele>
        <time>2013-08-18T12:17:47.000Z</time>
      </trkpt>
      <trkpt lat="46.65637" lon="6.30614">
        <ele>1083</ele>
        <time>2013-08-18T12:17:48.000Z</time>
      </trkpt>
      <trkpt lat="46.65636" lon="6.30612">
        <ele>1083</ele>
        <time>2013-08-18T12:17:49.000Z</time>
      </trkpt>
      <trkpt lat="46.65634" lon="6.30611">
        <ele>1083</ele>
        <time>2013-08-18T12:17:50.000Z</time>
      </trkpt>
      <trkpt lat="46.65631" lon="6.30609">
        <ele>1083</ele>
        <time>2013-08-18T12:17:51.000Z</time>
      </trkpt>
      <trkpt lat="46.65629" lon="6.30608">
        <ele>1083</ele>
        <time>2013-08-18T12:17:52.000Z</time>
      </trkpt>
      <trkpt lat="46.65627" lon="6.30607">
        <ele>1083</ele>
        <time>2013-08-18T12:17:53.000Z</time>
      </trkpt>
      <trkpt lat="46.65624" lon="6.30605">
        <ele>1083</ele>
        <time>2013-08-18T12:17:54.000Z</time>
      </trkpt>
      <trkpt lat="46.65622" lon="6.30602">
        <ele>1083</ele>
        <time>2013-08-18T12:17:55.000Z</time>
      </trkpt>
      <trkpt lat="46.65619" lon="6.30601">
        <ele>1083</ele>
        <time>2013-08-18T12:17:56.000Z</time>
      </trkpt>
      <trkpt lat="46.65616" lon="6.30599">
        <ele>1084</ele>
        <time>2013-08-18T12:17:57.000Z</time>
      </trkpt>
      <trkpt lat="46.65614" lon="6.30597">
        <ele>1084</ele>
        <time>2013-08-18T12:17:58.000Z</time>
      </trkpt>
      <trkpt lat="46.65611" lon="6.30595">
        <ele>1084</ele>
        <time>2013-08-18T12:17:59.000Z</time>
      </trkpt>
      <trkpt lat="46.65609" lon="6.30592">
        <ele>1084</ele>
        <time>2013-08-18T12:18:00.000Z</time>
      </trkpt>
      <trkpt lat="46.65606" lon="6.30588">
        <ele>1084</ele>
        <time>2013-08-18T12:18:01.000Z</time>
      </trkpt>
      <trkpt lat="46.65604" lon="6.30585">
        <ele>1085</ele>
        <time>2013-08-18T12:18:02.000Z</time>
      </trkpt>
      <trkpt lat="46.65602" lon="6.30583">
        <ele>1084</ele>
        <time>2013-08-18T12:18:03.000Z</time>
      </trkpt>
      <trkpt lat="46.656" lon="6.3058">
        <ele>1084</ele>
        <time>2013-08-18T12:18:04.000Z</time>
      </trkpt>
      <trkpt lat="46.65599" lon="6.30577">
        <ele>1084</ele>
        <time>2013-08-18T12:18:05.000Z</time>
      </trkpt>
      <trkpt lat="46.65597" lon="6.30574">
        <ele>1084</ele>
        <time>2013-08-18T12:18:06.000Z</time>
      </trkpt>
      <trkpt lat="46.65595" lon="6.30572">
        <ele>1084</ele>
        <time>2013-08-18T12:18:07.000Z</time>
      </trkpt>
      <trkpt lat="46.65594" lon="6.30569">
        <ele>1084</ele>
        <time>2013-08-18T12:18:08.000Z</time>
      </trkpt>
      <trkpt lat="46.65593" lon="6.30566">
        <ele>1084</ele>
        <time>2013-08-18T12:18:09.000Z</time>
      </trkpt>
      <trkpt lat="46.65591" lon="6.30563">
        <ele>1084</ele>
        <time>2013-08-18T12:18:10.000Z</time>
      </trkpt>
      <trkpt lat="46.6559" lon="6.30561">
        <ele>1084</ele>
        <time>2013-08-18T12:18:11.000Z</time>
      </trkpt>
      <trkpt lat="46.65589" lon="6.30558">
        <ele>1084</ele>
        <time>2013-08-18T12:18:12.000Z</time>
      </trkpt>
      <trkpt lat="46.65588" lon="6.30555">
        <ele>1084</ele>
        <time>2013-08-18T12:18:13.000Z</time>
      </trkpt>
      <trkpt lat="46.65586" lon="6.30553">
        <ele>1084</ele>
        <time>2013-08-18T12:18:14.000Z</time>
      </trkpt>
      <trkpt lat="46.65585" lon="6.30551">
        <ele>1084</ele>
        <time>2013-08-18T12:18:15.000Z</time>
      </trkpt>
      <trkpt lat="46.65584" lon="6.30548">
        <ele>1084</ele>
        <time>2013-08-18T12:18:16.000Z</time>
      </trkpt>
      <trkpt lat="46.65583" lon="6.30546">
        <ele>1084</ele>
        <time>2013-08-18T12:18:17.000Z</time>
      </trkpt>
      <trkpt lat="46.65583" lon="6.30544">
        <ele>1084</ele>
        <time>2013-08-18T12:18:18.000Z</time>
      </trkpt>
      <trkpt lat="46.65582" lon="6.30542">
        <ele>1084</ele>
        <time>2013-08-18T12:18:19.000Z</time>
      </trkpt>
      <trkpt lat="46.65582" lon="6.3054">
        <ele>1084</ele>
        <time>2013-08-18T12:18:20.000Z</time>
      </trkpt>
      <trkpt lat="46.65581" lon="6.30539">
        <ele>1084</ele>
        <time>2013-08-18T12:18:21.000Z</time>
      </trkpt>
      <trkpt lat="46.65581" lon="6.30537">
        <ele>1084</ele>
        <time>2013-08-18T12:18:22.000Z</time>
      </trkpt>
      <trkpt lat="46.65581" lon="6.30535">
        <ele>1084</ele>
        <time>2013-08-18T12:18:23.000Z</time>
      </trkpt>
      <trkpt lat="46.6558" lon="6.30533">
        <ele>1084</ele>
        <time>2013-08-18T12:18:24.000Z</time>
      </trkpt>
      <trkpt lat="46.6558" lon="6.30531">
        <ele>1084</ele>
        <time>2013-08-18T12:18:25.000Z</time>
      </trkpt>
      <trkpt lat="46.6558" lon="6.30528">
        <ele>1085</ele>
        <time>2013-08-18T12:18:27.000Z</time>
      </trkpt>
      <trkpt lat="46.65579" lon="6.30526">
        <ele>1085</ele>
        <time>2013-08-18T12:18:28.000Z</time>
      </trkpt>
      <trkpt lat="46.65579" lon="6.30525">
        <ele>1085</ele>
        <time>2013-08-18T12:18:29.000Z</time>
      </trkpt>
      <trkpt lat="46.65578" lon="6.30523">
        <ele>1085</ele>
        <time>2013-08-18T12:18:30.000Z</time>
      </trkpt>
      <trkpt lat="46.65577" lon="6.30521">
        <ele>1085</ele>
        <time>2013-08-18T12:18:31.000Z</time>
      </trkpt>
      <trkpt lat="46.65576" lon="6.3052">
        <ele>1085</ele>
        <time>2013-08-18T12:18:32.000Z</time>
      </trkpt>
      <trkpt lat="46.65576" lon="6.30518">
        <ele>1085</ele>
        <time>2013-08-18T12:18:33.000Z</time>
      </trkpt>
      <trkpt lat="46.65576" lon="6.30516">
        <ele>1085</ele>
        <time>2013-08-18T12:18:34.000Z</time>
      </trkpt>
      <trkpt lat="46.65575" lon="6.30515">
        <ele>1086</ele>
        <time>2013-08-18T12:18:35.000Z</time>
      </trkpt>
      <trkpt lat="46.65575" lon="6.30514">
        <ele>1086</ele>
        <time>2013-08-18T12:18:36.000Z</time>
      </trkpt>
      <trkpt lat="46.65575" lon="6.30512">
        <ele>1086</ele>
        <time>2013-08-18T12:18:37.000Z</time>
      </trkpt>
      <trkpt lat="46.65575" lon="6.3051">
        <ele>1086</ele>
        <time>2013-08-18T12:18:38.000Z</time>
      </trkpt>
      <trkpt lat="46.65575" lon="6.30508">
        <ele>1086</ele>
        <time>2013-08-18T12:18:39.000Z</time>
      </trkpt>
      <trkpt lat="46.65574" lon="6.30506">
        <ele>1086</ele>
        <time>2013-08-18T12:18:40.000Z</time>
      </trkpt>
      <trkpt lat="46.65574" lon="6.30504">
        <ele>1087</ele>
        <time>2013-08-18T12:18:41.000Z</time>
      </trkpt>
      <trkpt lat="46.65574" lon="6.30502">
        <ele>1087</ele>
        <time>2013-08-18T12:18:42.000Z</time>
      </trkpt>
      <trkpt lat="46.65573" lon="6.30501">
        <ele>1087</ele>
        <time>2013-08-18T12:18:43.000Z</time>
      </trkpt>
      <trkpt lat="46.65573" lon="6.30499">
        <ele>1088</ele>
        <time>2013-08-18T12:18:44.000Z</time>
      </trkpt>
      <trkpt lat="46.65573" lon="6.30494">
        <ele>1087</ele>
        <time>2013-08-18T12:18:47.000Z</time>
      </trkpt>
      <trkpt lat="46.65573" lon="6.30492">
        <ele>1087</ele>
        <time>2013-08-18T12:18:48.000Z</time>
      </trkpt>
      <trkpt lat="46.65572" lon="6.30489">
        <ele>1087</ele>
        <time>2013-08-18T12:18:50.000Z</time>
      </trkpt>
      <trkpt lat="46.65572" lon="6.30487">
        <ele>1087</ele>
        <time>2013-08-18T12:18:52.000Z</time>
      </trkpt>
      <trkpt lat="46.65572" lon="6.30487">
        <ele>1087</ele>
        <time>2013-08-18T12:18:53.000Z</time>
      </trkpt>
      <trkpt lat="46.65572" lon="6.30486">
        <ele>1087</ele>
        <time>2013-08-18T12:18:55.000Z</time>
      </trkpt>
      <trkpt lat="46.65572" lon="6.30484">
        <ele>1087</ele>
        <time>2013-08-18T12:19:01.000Z</time>
      </trkpt>
      <trkpt lat="46.65572" lon="6.30481">
        <ele>1086</ele>
        <time>2013-08-18T12:19:11.000Z</time>
      </trkpt>
      <trkpt lat="46.65572" lon="6.3048">
        <ele>1086</ele>
        <time>2013-08-18T12:19:16.000Z</time>
      </trkpt>
      <trkpt lat="46.65572" lon="6.30479">
        <ele>1086</ele>
        <time>2013-08-18T12:19:21.000Z</time>
      </trkpt>
      <trkpt lat="46.65572" lon="6.30476">
        <ele>1086</ele>
        <time>2013-08-18T12:19:28.000Z</time>
      </trkpt>
      <trkpt lat="46.65571" lon="6.30474">
        <ele>1086</ele>
        <time>2013-08-18T12:19:29.000Z</time>
      </trkpt>
      <trkpt lat="46.6557" lon="6.30472">
        <ele>1086</ele>
        <time>2013-08-18T12:19:30.000Z</time>
      </trkpt>
      <trkpt lat="46.65569" lon="6.3047">
        <ele>1086</ele>
        <time>2013-08-18T12:19:31.000Z</time>
      </trkpt>
      <trkpt lat="46.65568" lon="6.30468">
        <ele>1086</ele>
        <time>2013-08-18T12:19:32.000Z</time>
      </trkpt>
      <trkpt lat="46.65567" lon="6.30466">
        <ele>1086</ele>
        <time>2013-08-18T12:19:33.000Z</time>
      </trkpt>
      <trkpt lat="46.65566" lon="6.30463">
        <ele>1085</ele>
        <time>2013-08-18T12:19:34.000Z</time>
      </trkpt>
      <trkpt lat="46.65564" lon="6.30462">
        <ele>1085</ele>
        <time>2013-08-18T12:19:35.000Z</time>
      </trkpt>
      <trkpt lat="46.65563" lon="6.3046">
        <ele>1085</ele>
        <time>2013-08-18T12:19:36.000Z</time>
      </trkpt>
      <trkpt lat="46.65562" lon="6.30458">
        <ele>1085</ele>
        <time>2013-08-18T12:19:37.000Z</time>
      </trkpt>
      <trkpt lat="46.65561" lon="6.30457">
        <ele>1085</ele>
        <time>2013-08-18T12:19:38.000Z</time>
      </trkpt>
      <trkpt lat="46.6556" lon="6.30454">
        <ele>1085</ele>
        <time>2013-08-18T12:19:39.000Z</time>
      </trkpt>
      <trkpt lat="46.65559" lon="6.30452">
        <ele>1085</ele>
        <time>2013-08-18T12:19:40.000Z</time>
      </trkpt>
      <trkpt lat="46.65558" lon="6.3045">
        <ele>1085</ele>
        <time>2013-08-18T12:19:41.000Z</time>
      </trkpt>
      <trkpt lat="46.65557" lon="6.30448">
        <ele>1085</ele>
        <time>2013-08-18T12:19:42.000Z</time>
      </trkpt>
      <trkpt lat="46.65555" lon="6.30446">
        <ele>1085</ele>
        <time>2013-08-18T12:19:43.000Z</time>
      </trkpt>
      <trkpt lat="46.65554" lon="6.30444">
        <ele>1085</ele>
        <time>2013-08-18T12:19:44.000Z</time>
      </trkpt>
      <trkpt lat="46.65552" lon="6.30441">
        <ele>1085</ele>
        <time>2013-08-18T12:19:45.000Z</time>
      </trkpt>
      <trkpt lat="46.65551" lon="6.30439">
        <ele>1085</ele>
        <time>2013-08-18T12:19:46.000Z</time>
      </trkpt>
      <trkpt lat="46.65549" lon="6.30436">
        <ele>1085</ele>
        <time>2013-08-18T12:19:47.000Z</time>
      </trkpt>
      <trkpt lat="46.65548" lon="6.30433">
        <ele>1085</ele>
        <time>2013-08-18T12:19:48.000Z</time>
      </trkpt>
      <trkpt lat="46.65546" lon="6.30431">
        <ele>1085</ele>
        <time>2013-08-18T12:19:49.000Z</time>
      </trkpt>
      <trkpt lat="46.65544" lon="6.30428">
        <ele>1086</ele>
        <time>2013-08-18T12:19:50.000Z</time>
      </trkpt>
      <trkpt lat="46.65543" lon="6.30425">
        <ele>1086</ele>
        <time>2013-08-18T12:19:51.000Z</time>
      </trkpt>
      <trkpt lat="46.65541" lon="6.30422">
        <ele>1086</ele>
        <time>2013-08-18T12:19:52.000Z</time>
      </trkpt>
      <trkpt lat="46.65539" lon="6.30419">
        <ele>1086</ele>
        <time>2013-08-18T12:19:53.000Z</time>
      </trkpt>
      <trkpt lat="46.65537" lon="6.30415">
        <ele>1083</ele>
        <time>2013-08-18T12:19:54.000Z</time>
      </trkpt>
      <trkpt lat="46.65535" lon="6.30411">
        <ele>1083</ele>
        <time>2013-08-18T12:19:55.000Z</time>
      </trkpt>
      <trkpt lat="46.65532" lon="6.30407">
        <ele>1084</ele>
        <time>2013-08-18T12:19:56.000Z</time>
      </trkpt>
      <trkpt lat="46.65529" lon="6.30403">
        <ele>1084</ele>
        <time>2013-08-18T12:19:57.000Z</time>
      </trkpt>
      <trkpt lat="46.65527" lon="6.30399">
        <ele>1084</ele>
        <time>2013-08-18T12:19:58.000Z</time>
      </trkpt>
      <trkpt lat="46.65525" lon="6.30396">
        <ele>1084</ele>
        <time>2013-08-18T12:19:59.000Z</time>
      </trkpt>
      <trkpt lat="46.65524" lon="6.30394">
        <ele>1084</ele>
        <time>2013-08-18T12:20:00.000Z</time>
      </trkpt>
      <trkpt lat="46.65522" lon="6.30391">
        <ele>1084</ele>
        <time>2013-08-18T12:20:01.000Z</time>
      </trkpt>
      <trkpt lat="46.6552" lon="6.30388">
        <ele>1084</ele>
        <time>2013-08-18T12:20:02.000Z</time>
      </trkpt>
      <trkpt lat="46.65518" lon="6.30385">
        <ele>1084</ele>
        <time>2013-08-18T12:20:03.000Z</time>
      </trkpt>
      <trkpt lat="46.65517" lon="6.30382">
        <ele>1084</ele>
        <time>2013-08-18T12:20:04.000Z</time>
      </trkpt>
      <trkpt lat="46.65515" lon="6.30379">
        <ele>1084</ele>
        <time>2013-08-18T12:20:05.000Z</time>
      </trkpt>
      <trkpt lat="46.65513" lon="6.30375">
        <ele>1083</ele>
        <time>2013-08-18T12:20:06.000Z</time>
      </trkpt>
      <trkpt lat="46.65512" lon="6.30372">
        <ele>1083</ele>
        <time>2013-08-18T12:20:07.000Z</time>
      </trkpt>
      <trkpt lat="46.6551" lon="6.30369">
        <ele>1084</ele>
        <time>2013-08-18T12:20:08.000Z</time>
      </trkpt>
      <trkpt lat="46.65508" lon="6.30366">
        <ele>1084</ele>
        <time>2013-08-18T12:20:09.000Z</time>
      </trkpt>
      <trkpt lat="46.65506" lon="6.30362">
        <ele>1084</ele>
        <time>2013-08-18T12:20:10.000Z</time>
      </trkpt>
      <trkpt lat="46.65504" lon="6.30359">
        <ele>1084</ele>
        <time>2013-08-18T12:20:11.000Z</time>
      </trkpt>
      <trkpt lat="46.65501" lon="6.30355">
        <ele>1085</ele>
        <time>2013-08-18T12:20:12.000Z</time>
      </trkpt>
      <trkpt lat="46.65499" lon="6.30352">
        <ele>1085</ele>
        <time>2013-08-18T12:20:13.000Z</time>
      </trkpt>
      <trkpt lat="46.65496" lon="6.30349">
        <ele>1086</ele>
        <time>2013-08-18T12:20:14.000Z</time>
      </trkpt>
      <trkpt lat="46.65494" lon="6.30345">
        <ele>1086</ele>
        <time>2013-08-18T12:20:15.000Z</time>
      </trkpt>
      <trkpt lat="46.65492" lon="6.30341">
        <ele>1087</ele>
        <time>2013-08-18T12:20:16.000Z</time>
      </trkpt>
      <trkpt lat="46.6549" lon="6.30336">
        <ele>1087</ele>
        <time>2013-08-18T12:20:17.000Z</time>
      </trkpt>
      <trkpt lat="46.65487" lon="6.30331">
        <ele>1087</ele>
        <time>2013-08-18T12:20:18.000Z</time>
      </trkpt>
      <trkpt lat="46.65484" lon="6.30327">
        <ele>1086</ele>
        <time>2013-08-18T12:20:19.000Z</time>
      </trkpt>
      <trkpt lat="46.65481" lon="6.30323">
        <ele>1085</ele>
        <time>2013-08-18T12:20:20.000Z</time>
      </trkpt>
      <trkpt lat="46.65478" lon="6.30319">
        <ele>1085</ele>
        <time>2013-08-18T12:20:21.000Z</time>
      </trkpt>
      <trkpt lat="46.65476" lon="6.30315">
        <ele>1084</ele>
        <time>2013-08-18T12:20:22.000Z</time>
      </trkpt>
      <trkpt lat="46.65473" lon="6.3031">
        <ele>1084</ele>
        <time>2013-08-18T12:20:23.000Z</time>
      </trkpt>
      <trkpt lat="46.65469" lon="6.30304">
        <ele>1083</ele>
        <time>2013-08-18T12:20:24.000Z</time>
      </trkpt>
      <trkpt lat="46.65466" lon="6.30297">
        <ele>1083</ele>
        <time>2013-08-18T12:20:25.000Z</time>
      </trkpt>
      <trkpt lat="46.65462" lon="6.30291">
        <ele>1083</ele>
        <time>2013-08-18T12:20:26.000Z</time>
      </trkpt>
      <trkpt lat="46.65458" lon="6.30286">
        <ele>1083</ele>
        <time>2013-08-18T12:20:27.000Z</time>
      </trkpt>
      <trkpt lat="46.65456" lon="6.30281">
        <ele>1083</ele>
        <time>2013-08-18T12:20:28.000Z</time>
      </trkpt>
      <trkpt lat="46.65454" lon="6.30278">
        <ele>1083</ele>
        <time>2013-08-18T12:20:29.000Z</time>
      </trkpt>
      <trkpt lat="46.65452" lon="6.30274">
        <ele>1083</ele>
        <time>2013-08-18T12:20:30.000Z</time>
      </trkpt>
      <trkpt lat="46.65451" lon="6.30271">
        <ele>1083</ele>
        <time>2013-08-18T12:20:31.000Z</time>
      </trkpt>
      <trkpt lat="46.65449" lon="6.30269">
        <ele>1083</ele>
        <time>2013-08-18T12:20:32.000Z</time>
      </trkpt>
      <trkpt lat="46.65448" lon="6.30266">
        <ele>1083</ele>
        <time>2013-08-18T12:20:33.000Z</time>
      </trkpt>
      <trkpt lat="46.65447" lon="6.30263">
        <ele>1083</ele>
        <time>2013-08-18T12:20:34.000Z</time>
      </trkpt>
      <trkpt lat="46.65446" lon="6.30259">
        <ele>1083</ele>
        <time>2013-08-18T12:20:35.000Z</time>
      </trkpt>
      <trkpt lat="46.65444" lon="6.30256">
        <ele>1083</ele>
        <time>2013-08-18T12:20:36.000Z</time>
      </trkpt>
      <trkpt lat="46.65443" lon="6.30252">
        <ele>1083</ele>
        <time>2013-08-18T12:20:37.000Z</time>
      </trkpt>
      <trkpt lat="46.65441" lon="6.30249">
        <ele>1080</ele>
        <time>2013-08-18T12:20:38.000Z</time>
      </trkpt>
      <trkpt lat="46.65439" lon="6.30246">
        <ele>1080</ele>
        <time>2013-08-18T12:20:39.000Z</time>
      </trkpt>
      <trkpt lat="46.65437" lon="6.30244">
        <ele>1080</ele>
        <time>2013-08-18T12:20:40.000Z</time>
      </trkpt>
      <trkpt lat="46.65436" lon="6.30242">
        <ele>1080</ele>
        <time>2013-08-18T12:20:41.000Z</time>
      </trkpt>
      <trkpt lat="46.65434" lon="6.3024">
        <ele>1081</ele>
        <time>2013-08-18T12:20:42.000Z</time>
      </trkpt>
      <trkpt lat="46.65433" lon="6.30239">
        <ele>1081</ele>
        <time>2013-08-18T12:20:43.000Z</time>
      </trkpt>
      <trkpt lat="46.65432" lon="6.30237">
        <ele>1081</ele>
        <time>2013-08-18T12:20:44.000Z</time>
      </trkpt>
      <trkpt lat="46.6543" lon="6.30234">
        <ele>1081</ele>
        <time>2013-08-18T12:20:45.000Z</time>
      </trkpt>
      <trkpt lat="46.65428" lon="6.30231">
        <ele>1080</ele>
        <time>2013-08-18T12:20:46.000Z</time>
      </trkpt>
      <trkpt lat="46.65427" lon="6.30228">
        <ele>1080</ele>
        <time>2013-08-18T12:20:47.000Z</time>
      </trkpt>
      <trkpt lat="46.65425" lon="6.30226">
        <ele>1080</ele>
        <time>2013-08-18T12:20:48.000Z</time>
      </trkpt>
      <trkpt lat="46.65424" lon="6.30223">
        <ele>1080</ele>
        <time>2013-08-18T12:20:49.000Z</time>
      </trkpt>
      <trkpt lat="46.65422" lon="6.3022">
        <ele>1080</ele>
        <time>2013-08-18T12:20:50.000Z</time>
      </trkpt>
      <trkpt lat="46.6542" lon="6.30218">
        <ele>1080</ele>
        <time>2013-08-18T12:20:51.000Z</time>
      </trkpt>
      <trkpt lat="46.65419" lon="6.30216">
        <ele>1080</ele>
        <time>2013-08-18T12:20:52.000Z</time>
      </trkpt>
      <trkpt lat="46.65418" lon="6.30214">
        <ele>1080</ele>
        <time>2013-08-18T12:20:53.000Z</time>
      </trkpt>
      <trkpt lat="46.65418" lon="6.30214">
        <ele>1080</ele>
        <time>2013-08-18T12:20:54.000Z</time>
      </trkpt>
      <trkpt lat="46.65418" lon="6.30212">
        <ele>1080</ele>
        <time>2013-08-18T12:20:55.000Z</time>
      </trkpt>
      <trkpt lat="46.65417" lon="6.3021">
        <ele>1080</ele>
        <time>2013-08-18T12:20:56.000Z</time>
      </trkpt>
      <trkpt lat="46.65416" lon="6.30209">
        <ele>1078</ele>
        <time>2013-08-18T12:20:57.000Z</time>
      </trkpt>
      <trkpt lat="46.65415" lon="6.30208">
        <ele>1078</ele>
        <time>2013-08-18T12:20:58.000Z</time>
      </trkpt>
      <trkpt lat="46.65415" lon="6.30208">
        <ele>1078</ele>
        <time>2013-08-18T12:20:59.000Z</time>
      </trkpt>
      <trkpt lat="46.65414" lon="6.30207">
        <ele>1078</ele>
        <time>2013-08-18T12:21:00.000Z</time>
      </trkpt>
      <trkpt lat="46.65414" lon="6.30206">
        <ele>1078</ele>
        <time>2013-08-18T12:21:01.000Z</time>
      </trkpt>
      <trkpt lat="46.65414" lon="6.30203">
        <ele>1078</ele>
        <time>2013-08-18T12:21:06.000Z</time>
      </trkpt>
      <trkpt lat="46.65414" lon="6.30203">
        <ele>1078</ele>
        <time>2013-08-18T12:21:07.000Z</time>
      </trkpt>
      <trkpt lat="46.65413" lon="6.30202">
        <ele>1078</ele>
        <time>2013-08-18T12:21:08.000Z</time>
      </trkpt>
      <trkpt lat="46.65413" lon="6.302">
        <ele>1078</ele>
        <time>2013-08-18T12:21:09.000Z</time>
      </trkpt>
      <trkpt lat="46.65412" lon="6.30199">
        <ele>1078</ele>
        <time>2013-08-18T12:21:10.000Z</time>
      </trkpt>
      <trkpt lat="46.65412" lon="6.30198">
        <ele>1079</ele>
        <time>2013-08-18T12:21:12.000Z</time>
      </trkpt>
      <trkpt lat="46.65412" lon="6.30198">
        <ele>1079</ele>
        <time>2013-08-18T12:21:13.000Z</time>
      </trkpt>
      <trkpt lat="46.65411" lon="6.30197">
        <ele>1079</ele>
        <time>2013-08-18T12:21:17.000Z</time>
      </trkpt>
      <trkpt lat="46.6541" lon="6.30195">
        <ele>1079</ele>
        <time>2013-08-18T12:21:20.000Z</time>
      </trkpt>
      <trkpt lat="46.65409" lon="6.30194">
        <ele>1079</ele>
        <time>2013-08-18T12:21:21.000Z</time>
      </trkpt>
      <trkpt lat="46.65408" lon="6.30192">
        <ele>1079</ele>
        <time>2013-08-18T12:21:22.000Z</time>
      </trkpt>
      <trkpt lat="46.65406" lon="6.3019">
        <ele>1079</ele>
        <time>2013-08-18T12:21:23.000Z</time>
      </trkpt>
      <trkpt lat="46.65405" lon="6.30187">
        <ele>1079</ele>
        <time>2013-08-18T12:21:24.000Z</time>
      </trkpt>
      <trkpt lat="46.65403" lon="6.30184">
        <ele>1079</ele>
        <time>2013-08-18T12:21:25.000Z</time>
      </trkpt>
      <trkpt lat="46.65401" lon="6.30182">
        <ele>1079</ele>
        <time>2013-08-18T12:21:26.000Z</time>
      </trkpt>
      <trkpt lat="46.65399" lon="6.30179">
        <ele>1079</ele>
        <time>2013-08-18T12:21:27.000Z</time>
      </trkpt>
      <trkpt lat="46.65398" lon="6.30175">
        <ele>1079</ele>
        <time>2013-08-18T12:21:28.000Z</time>
      </trkpt>
      <trkpt lat="46.65396" lon="6.30172">
        <ele>1079</ele>
        <time>2013-08-18T12:21:29.000Z</time>
      </trkpt>
      <trkpt lat="46.65395" lon="6.30169">
        <ele>1079</ele>
        <time>2013-08-18T12:21:30.000Z</time>
      </trkpt>
      <trkpt lat="46.65393" lon="6.30166">
        <ele>1081</ele>
        <time>2013-08-18T12:21:31.000Z</time>
      </trkpt>
      <trkpt lat="46.65392" lon="6.30163">
        <ele>1081</ele>
        <time>2013-08-18T12:21:32.000Z</time>
      </trkpt>
      <trkpt lat="46.65391" lon="6.3016">
        <ele>1081</ele>
        <time>2013-08-18T12:21:33.000Z</time>
      </trkpt>
      <trkpt lat="46.65389" lon="6.30157">
        <ele>1081</ele>
        <time>2013-08-18T12:21:34.000Z</time>
      </trkpt>
      <trkpt lat="46.65388" lon="6.30154">
        <ele>1080</ele>
        <time>2013-08-18T12:21:35.000Z</time>
      </trkpt>
      <trkpt lat="46.65386" lon="6.30151">
        <ele>1080</ele>
        <time>2013-08-18T12:21:36.000Z</time>
      </trkpt>
      <trkpt lat="46.65384" lon="6.30148">
        <ele>1080</ele>
        <time>2013-08-18T12:21:37.000Z</time>
      </trkpt>
      <trkpt lat="46.65383" lon="6.30146">
        <ele>1080</ele>
        <time>2013-08-18T12:21:38.000Z</time>
      </trkpt>
      <trkpt lat="46.65381" lon="6.30142">
        <ele>1080</ele>
        <time>2013-08-18T12:21:39.000Z</time>
      </trkpt>
      <trkpt lat="46.6538" lon="6.30139">
        <ele>1080</ele>
        <time>2013-08-18T12:21:40.000Z</time>
      </trkpt>
      <trkpt lat="46.65379" lon="6.30135">
        <ele>1080</ele>
        <time>2013-08-18T12:21:41.000Z</time>
      </trkpt>
      <trkpt lat="46.65378" lon="6.30132">
        <ele>1079</ele>
        <time>2013-08-18T12:21:42.000Z</time>
      </trkpt>
      <trkpt lat="46.65376" lon="6.30128">
        <ele>1079</ele>
        <time>2013-08-18T12:21:43.000Z</time>
      </trkpt>
      <trkpt lat="46.65375" lon="6.30124">
        <ele>1080</ele>
        <time>2013-08-18T12:21:44.000Z</time>
      </trkpt>
      <trkpt lat="46.65374" lon="6.30121">
        <ele>1080</ele>
        <time>2013-08-18T12:21:45.000Z</time>
      </trkpt>
      <trkpt lat="46.65373" lon="6.30118">
        <ele>1080</ele>
        <time>2013-08-18T12:21:46.000Z</time>
      </trkpt>
      <trkpt lat="46.65372" lon="6.30115">
        <ele>1080</ele>
        <time>2013-08-18T12:21:47.000Z</time>
      </trkpt>
      <trkpt lat="46.65371" lon="6.3011">
        <ele>1080</ele>
        <time>2013-08-18T12:21:48.000Z</time>
      </trkpt>
      <trkpt lat="46.6537" lon="6.30106">
        <ele>1080</ele>
        <time>2013-08-18T12:21:49.000Z</time>
      </trkpt>
      <trkpt lat="46.65369" lon="6.30102">
        <ele>1080</ele>
        <time>2013-08-18T12:21:50.000Z</time>
      </trkpt>
      <trkpt lat="46.65367" lon="6.30098">
        <ele>1080</ele>
        <time>2013-08-18T12:21:51.000Z</time>
      </trkpt>
      <trkpt lat="46.65366" lon="6.30093">
        <ele>1080</ele>
        <time>2013-08-18T12:21:52.000Z</time>
      </trkpt>
      <trkpt lat="46.65365" lon="6.30089">
        <ele>1080</ele>
        <time>2013-08-18T12:21:53.000Z</time>
      </trkpt>
      <trkpt lat="46.65363" lon="6.30085">
        <ele>1081</ele>
        <time>2013-08-18T12:21:54.000Z</time>
      </trkpt>
      <trkpt lat="46.65362" lon="6.30082">
        <ele>1080</ele>
        <time>2013-08-18T12:21:55.000Z</time>
      </trkpt>
      <trkpt lat="46.65361" lon="6.30078">
        <ele>1081</ele>
        <time>2013-08-18T12:21:56.000Z</time>
      </trkpt>
      <trkpt lat="46.6536" lon="6.30075">
        <ele>1081</ele>
        <time>2013-08-18T12:21:57.000Z</time>
      </trkpt>
      <trkpt lat="46.65359" lon="6.30072">
        <ele>1081</ele>
        <time>2013-08-18T12:21:58.000Z</time>
      </trkpt>
      <trkpt lat="46.65357" lon="6.30069">
        <ele>1081</ele>
        <time>2013-08-18T12:21:59.000Z</time>
      </trkpt>
      <trkpt lat="46.65356" lon="6.30067">
        <ele>1081</ele>
        <time>2013-08-18T12:22:00.000Z</time>
      </trkpt>
      <trkpt lat="46.65354" lon="6.30064">
        <ele>1081</ele>
        <time>2013-08-18T12:22:01.000Z</time>
      </trkpt>
      <trkpt lat="46.65352" lon="6.30061">
        <ele>1081</ele>
        <time>2013-08-18T12:22:02.000Z</time>
      </trkpt>
      <trkpt lat="46.65351" lon="6.30058">
        <ele>1081</ele>
        <time>2013-08-18T12:22:03.000Z</time>
      </trkpt>
      <trkpt lat="46.65349" lon="6.30055">
        <ele>1081</ele>
        <time>2013-08-18T12:22:04.000Z</time>
      </trkpt>
      <trkpt lat="46.65347" lon="6.30051">
        <ele>1081</ele>
        <time>2013-08-18T12:22:05.000Z</time>
      </trkpt>
      <trkpt lat="46.65345" lon="6.30047">
        <ele>1081</ele>
        <time>2013-08-18T12:22:06.000Z</time>
      </trkpt>
      <trkpt lat="46.65343" lon="6.30043">
        <ele>1081</ele>
        <time>2013-08-18T12:22:07.000Z</time>
      </trkpt>
      <trkpt lat="46.6534" lon="6.3004">
        <ele>1082</ele>
        <time>2013-08-18T12:22:08.000Z</time>
      </trkpt>
      <trkpt lat="46.65338" lon="6.30036">
        <ele>1082</ele>
        <time>2013-08-18T12:22:09.000Z</time>
      </trkpt>
      <trkpt lat="46.65337" lon="6.30032">
        <ele>1082</ele>
        <time>2013-08-18T12:22:10.000Z</time>
      </trkpt>
      <trkpt lat="46.65335" lon="6.30028">
        <ele>1083</ele>
        <time>2013-08-18T12:22:11.000Z</time>
      </trkpt>
      <trkpt lat="46.65333" lon="6.30024">
        <ele>1078</ele>
        <time>2013-08-18T12:22:12.000Z</time>
      </trkpt>
      <trkpt lat="46.65332" lon="6.3002">
        <ele>1079</ele>
        <time>2013-08-18T12:22:13.000Z</time>
      </trkpt>
      <trkpt lat="46.6533" lon="6.30016">
        <ele>1080</ele>
        <time>2013-08-18T12:22:14.000Z</time>
      </trkpt>
      <trkpt lat="46.65328" lon="6.30012">
        <ele>1081</ele>
        <time>2013-08-18T12:22:15.000Z</time>
      </trkpt>
      <trkpt lat="46.65326" lon="6.30008">
        <ele>1082</ele>
        <time>2013-08-18T12:22:16.000Z</time>
      </trkpt>
      <trkpt lat="46.65325" lon="6.30004">
        <ele>1083</ele>
        <time>2013-08-18T12:22:17.000Z</time>
      </trkpt>
      <trkpt lat="46.65323" lon="6.29999">
        <ele>1084</ele>
        <time>2013-08-18T12:22:18.000Z</time>
      </trkpt>
      <trkpt lat="46.6532" lon="6.29996">
        <ele>1083</ele>
        <time>2013-08-18T12:22:19.000Z</time>
      </trkpt>
      <trkpt lat="46.65318" lon="6.29991">
        <ele>1082</ele>
        <time>2013-08-18T12:22:20.000Z</time>
      </trkpt>
      <trkpt lat="46.65316" lon="6.29987">
        <ele>1081</ele>
        <time>2013-08-18T12:22:21.000Z</time>
      </trkpt>
      <trkpt lat="46.65314" lon="6.29983">
        <ele>1080</ele>
        <time>2013-08-18T12:22:22.000Z</time>
      </trkpt>
      <trkpt lat="46.65312" lon="6.29978">
        <ele>1079</ele>
        <time>2013-08-18T12:22:23.000Z</time>
      </trkpt>
      <trkpt lat="46.65309" lon="6.29973">
        <ele>1078</ele>
        <time>2013-08-18T12:22:24.000Z</time>
      </trkpt>
      <trkpt lat="46.65307" lon="6.29968">
        <ele>1078</ele>
        <time>2013-08-18T12:22:25.000Z</time>
      </trkpt>
      <trkpt lat="46.65304" lon="6.29963">
        <ele>1077</ele>
        <time>2013-08-18T12:22:26.000Z</time>
      </trkpt>
      <trkpt lat="46.65302" lon="6.29957">
        <ele>1077</ele>
        <time>2013-08-18T12:22:27.000Z</time>
      </trkpt>
      <trkpt lat="46.653" lon="6.29951">
        <ele>1077</ele>
        <time>2013-08-18T12:22:28.000Z</time>
      </trkpt>
      <trkpt lat="46.65298" lon="6.29946">
        <ele>1077</ele>
        <time>2013-08-18T12:22:29.000Z</time>
      </trkpt>
      <trkpt lat="46.65296" lon="6.29941">
        <ele>1077</ele>
        <time>2013-08-18T12:22:30.000Z</time>
      </trkpt>
      <trkpt lat="46.65294" lon="6.29936">
        <ele>1077</ele>
        <time>2013-08-18T12:22:31.000Z</time>
      </trkpt>
      <trkpt lat="46.65292" lon="6.29931">
        <ele>1077</ele>
        <time>2013-08-18T12:22:32.000Z</time>
      </trkpt>
      <trkpt lat="46.6529" lon="6.29926">
        <ele>1077</ele>
        <time>2013-08-18T12:22:33.000Z</time>
      </trkpt>
      <trkpt lat="46.65288" lon="6.29921">
        <ele>1077</ele>
        <time>2013-08-18T12:22:34.000Z</time>
      </trkpt>
      <trkpt lat="46.65285" lon="6.29915">
        <ele>1077</ele>
        <time>2013-08-18T12:22:35.000Z</time>
      </trkpt>
      <trkpt lat="46.65283" lon="6.2991">
        <ele>1077</ele>
        <time>2013-08-18T12:22:36.000Z</time>
      </trkpt>
      <trkpt lat="46.6528" lon="6.29904">
        <ele>1077</ele>
        <time>2013-08-18T12:22:37.000Z</time>
      </trkpt>
      <trkpt lat="46.65278" lon="6.29899">
        <ele>1077</ele>
        <time>2013-08-18T12:22:38.000Z</time>
      </trkpt>
      <trkpt lat="46.65275" lon="6.29893">
        <ele>1077</ele>
        <time>2013-08-18T12:22:39.000Z</time>
      </trkpt>
      <trkpt lat="46.65274" lon="6.29888">
        <ele>1077</ele>
        <time>2013-08-18T12:22:40.000Z</time>
      </trkpt>
      <trkpt lat="46.65272" lon="6.29883">
        <ele>1077</ele>
        <time>2013-08-18T12:22:41.000Z</time>
      </trkpt>
      <trkpt lat="46.6527" lon="6.29879">
        <ele>1077</ele>
        <time>2013-08-18T12:22:42.000Z</time>
      </trkpt>
      <trkpt lat="46.65268" lon="6.29874">
        <ele>1077</ele>
        <time>2013-08-18T12:22:43.000Z</time>
      </trkpt>
      <trkpt lat="46.65266" lon="6.2987">
        <ele>1077</ele>
        <time>2013-08-18T12:22:44.000Z</time>
      </trkpt>
      <trkpt lat="46.65264" lon="6.29865">
        <ele>1078</ele>
        <time>2013-08-18T12:22:45.000Z</time>
      </trkpt>
      <trkpt lat="46.65263" lon="6.2986">
        <ele>1078</ele>
        <time>2013-08-18T12:22:46.000Z</time>
      </trkpt>
      <trkpt lat="46.65262" lon="6.29855">
        <ele>1078</ele>
        <time>2013-08-18T12:22:47.000Z</time>
      </trkpt>
      <trkpt lat="46.6526" lon="6.2985">
        <ele>1079</ele>
        <time>2013-08-18T12:22:48.000Z</time>
      </trkpt>
      <trkpt lat="46.65258" lon="6.29846">
        <ele>1080</ele>
        <time>2013-08-18T12:22:49.000Z</time>
      </trkpt>
      <trkpt lat="46.65257" lon="6.29841">
        <ele>1081</ele>
        <time>2013-08-18T12:22:50.000Z</time>
      </trkpt>
      <trkpt lat="46.65255" lon="6.29836">
        <ele>1082</ele>
        <time>2013-08-18T12:22:51.000Z</time>
      </trkpt>
      <trkpt lat="46.65254" lon="6.29832">
        <ele>1082</ele>
        <time>2013-08-18T12:22:52.000Z</time>
      </trkpt>
      <trkpt lat="46.65251" lon="6.29827">
        <ele>1081</ele>
        <time>2013-08-18T12:22:53.000Z</time>
      </trkpt>
      <trkpt lat="46.65249" lon="6.29823">
        <ele>1080</ele>
        <time>2013-08-18T12:22:54.000Z</time>
      </trkpt>
      <trkpt lat="46.65247" lon="6.29819">
        <ele>1078</ele>
        <time>2013-08-18T12:22:55.000Z</time>
      </trkpt>
      <trkpt lat="46.65245" lon="6.29814">
        <ele>1077</ele>
        <time>2013-08-18T12:22:56.000Z</time>
      </trkpt>
      <trkpt lat="46.65243" lon="6.2981">
        <ele>1076</ele>
        <time>2013-08-18T12:22:57.000Z</time>
      </trkpt>
      <trkpt lat="46.65242" lon="6.29805">
        <ele>1075</ele>
        <time>2013-08-18T12:22:58.000Z</time>
      </trkpt>
      <trkpt lat="46.6524" lon="6.29801">
        <ele>1075</ele>
        <time>2013-08-18T12:22:59.000Z</time>
      </trkpt>
      <trkpt lat="46.65238" lon="6.29796">
        <ele>1075</ele>
        <time>2013-08-18T12:23:00.000Z</time>
      </trkpt>
      <trkpt lat="46.65236" lon="6.29791">
        <ele>1074</ele>
        <time>2013-08-18T12:23:01.000Z</time>
      </trkpt>
      <trkpt lat="46.65234" lon="6.29785">
        <ele>1074</ele>
        <time>2013-08-18T12:23:02.000Z</time>
      </trkpt>
      <trkpt lat="46.65232" lon="6.29779">
        <ele>1074</ele>
        <time>2013-08-18T12:23:03.000Z</time>
      </trkpt>
      <trkpt lat="46.65229" lon="6.29774">
        <ele>1074</ele>
        <time>2013-08-18T12:23:04.000Z</time>
      </trkpt>
      <trkpt lat="46.65227" lon="6.29768">
        <ele>1074</ele>
        <time>2013-08-18T12:23:05.000Z</time>
      </trkpt>
      <trkpt lat="46.65224" lon="6.29762">
        <ele>1074</ele>
        <time>2013-08-18T12:23:06.000Z</time>
      </trkpt>
      <trkpt lat="46.65221" lon="6.29756">
        <ele>1074</ele>
        <time>2013-08-18T12:23:07.000Z</time>
      </trkpt>
      <trkpt lat="46.65218" lon="6.2975">
        <ele>1074</ele>
        <time>2013-08-18T12:23:08.000Z</time>
      </trkpt>
      <trkpt lat="46.65216" lon="6.29745">
        <ele>1074</ele>
        <time>2013-08-18T12:23:09.000Z</time>
      </trkpt>
      <trkpt lat="46.65213" lon="6.29739">
        <ele>1073</ele>
        <time>2013-08-18T12:23:10.000Z</time>
      </trkpt>
      <trkpt lat="46.65211" lon="6.29735">
        <ele>1073</ele>
        <time>2013-08-18T12:23:11.000Z</time>
      </trkpt>
      <trkpt lat="46.65208" lon="6.29731">
        <ele>1073</ele>
        <time>2013-08-18T12:23:12.000Z</time>
      </trkpt>
      <trkpt lat="46.65206" lon="6.29726">
        <ele>1073</ele>
        <time>2013-08-18T12:23:13.000Z</time>
      </trkpt>
      <trkpt lat="46.65203" lon="6.29721">
        <ele>1073</ele>
        <time>2013-08-18T12:23:14.000Z</time>
      </trkpt>
      <trkpt lat="46.65201" lon="6.29716">
        <ele>1073</ele>
        <time>2013-08-18T12:23:15.000Z</time>
      </trkpt>
      <trkpt lat="46.65198" lon="6.29711">
        <ele>1073</ele>
        <time>2013-08-18T12:23:16.000Z</time>
      </trkpt>
      <trkpt lat="46.65195" lon="6.29706">
        <ele>1073</ele>
        <time>2013-08-18T12:23:17.000Z</time>
      </trkpt>
      <trkpt lat="46.65192" lon="6.29701">
        <ele>1073</ele>
        <time>2013-08-18T12:23:18.000Z</time>
      </trkpt>
      <trkpt lat="46.6519" lon="6.29696">
        <ele>1073</ele>
        <time>2013-08-18T12:23:19.000Z</time>
      </trkpt>
      <trkpt lat="46.65187" lon="6.29691">
        <ele>1074</ele>
        <time>2013-08-18T12:23:20.000Z</time>
      </trkpt>
      <trkpt lat="46.65184" lon="6.29684">
        <ele>1074</ele>
        <time>2013-08-18T12:23:21.000Z</time>
      </trkpt>
      <trkpt lat="46.65181" lon="6.29677">
        <ele>1075</ele>
        <time>2013-08-18T12:23:22.000Z</time>
      </trkpt>
      <trkpt lat="46.65178" lon="6.29671">
        <ele>1076</ele>
        <time>2013-08-18T12:23:23.000Z</time>
      </trkpt>
      <trkpt lat="46.65174" lon="6.29666">
        <ele>1076</ele>
        <time>2013-08-18T12:23:24.000Z</time>
      </trkpt>
      <trkpt lat="46.65172" lon="6.29663">
        <ele>1076</ele>
        <time>2013-08-18T12:23:25.000Z</time>
      </trkpt>
      <trkpt lat="46.6517" lon="6.29661">
        <ele>1076</ele>
        <time>2013-08-18T12:23:26.000Z</time>
      </trkpt>
      <trkpt lat="46.65168" lon="6.29658">
        <ele>1075</ele>
        <time>2013-08-18T12:23:27.000Z</time>
      </trkpt>
      <trkpt lat="46.65166" lon="6.29655">
        <ele>1074</ele>
        <time>2013-08-18T12:23:28.000Z</time>
      </trkpt>
      <trkpt lat="46.65164" lon="6.29652">
        <ele>1073</ele>
        <time>2013-08-18T12:23:29.000Z</time>
      </trkpt>
      <trkpt lat="46.65163" lon="6.29649">
        <ele>1073</ele>
        <time>2013-08-18T12:23:30.000Z</time>
      </trkpt>
      <trkpt lat="46.6516" lon="6.29645">
        <ele>1072</ele>
        <time>2013-08-18T12:23:31.000Z</time>
      </trkpt>
      <trkpt lat="46.65158" lon="6.29641">
        <ele>1071</ele>
        <time>2013-08-18T12:23:32.000Z</time>
      </trkpt>
      <trkpt lat="46.65156" lon="6.29637">
        <ele>1071</ele>
        <time>2013-08-18T12:23:33.000Z</time>
      </trkpt>
      <trkpt lat="46.65155" lon="6.29633">
        <ele>1070</ele>
        <time>2013-08-18T12:23:34.000Z</time>
      </trkpt>
      <trkpt lat="46.65153" lon="6.29628">
        <ele>1070</ele>
        <time>2013-08-18T12:23:35.000Z</time>
      </trkpt>
      <trkpt lat="46.65151" lon="6.29624">
        <ele>1070</ele>
        <time>2013-08-18T12:23:36.000Z</time>
      </trkpt>
      <trkpt lat="46.6515" lon="6.29619">
        <ele>1070</ele>
        <time>2013-08-18T12:23:37.000Z</time>
      </trkpt>
      <trkpt lat="46.65148" lon="6.29614">
        <ele>1070</ele>
        <time>2013-08-18T12:23:38.000Z</time>
      </trkpt>
      <trkpt lat="46.65146" lon="6.29609">
        <ele>1070</ele>
        <time>2013-08-18T12:23:39.000Z</time>
      </trkpt>
      <trkpt lat="46.65145" lon="6.29604">
        <ele>1070</ele>
        <time>2013-08-18T12:23:40.000Z</time>
      </trkpt>
      <trkpt lat="46.65143" lon="6.29598">
        <ele>1070</ele>
        <time>2013-08-18T12:23:41.000Z</time>
      </trkpt>
      <trkpt lat="46.65141" lon="6.29592">
        <ele>1071</ele>
        <time>2013-08-18T12:23:42.000Z</time>
      </trkpt>
      <trkpt lat="46.65139" lon="6.29587">
        <ele>1070</ele>
        <time>2013-08-18T12:23:43.000Z</time>
      </trkpt>
      <trkpt lat="46.65138" lon="6.29582">
        <ele>1074</ele>
        <time>2013-08-18T12:23:44.000Z</time>
      </trkpt>
      <trkpt lat="46.65136" lon="6.29578">
        <ele>1073</ele>
        <time>2013-08-18T12:23:45.000Z</time>
      </trkpt>
      <trkpt lat="46.65135" lon="6.29574">
        <ele>1073</ele>
        <time>2013-08-18T12:23:46.000Z</time>
      </trkpt>
      <trkpt lat="46.65134" lon="6.29571">
        <ele>1073</ele>
        <time>2013-08-18T12:23:47.000Z</time>
      </trkpt>
      <trkpt lat="46.65133" lon="6.29568">
        <ele>1073</ele>
        <time>2013-08-18T12:23:48.000Z</time>
      </trkpt>
      <trkpt lat="46.65132" lon="6.29566">
        <ele>1073</ele>
        <time>2013-08-18T12:23:49.000Z</time>
      </trkpt>
      <trkpt lat="46.65131" lon="6.29564">
        <ele>1072</ele>
        <time>2013-08-18T12:23:50.000Z</time>
      </trkpt>
      <trkpt lat="46.6513" lon="6.29562">
        <ele>1072</ele>
        <time>2013-08-18T12:23:51.000Z</time>
      </trkpt>
      <trkpt lat="46.65129" lon="6.29559">
        <ele>1072</ele>
        <time>2013-08-18T12:23:52.000Z</time>
      </trkpt>
      <trkpt lat="46.65128" lon="6.29557">
        <ele>1072</ele>
        <time>2013-08-18T12:23:53.000Z</time>
      </trkpt>
      <trkpt lat="46.65127" lon="6.29555">
        <ele>1072</ele>
        <time>2013-08-18T12:23:54.000Z</time>
      </trkpt>
      <trkpt lat="46.65126" lon="6.29551">
        <ele>1072</ele>
        <time>2013-08-18T12:23:55.000Z</time>
      </trkpt>
      <trkpt lat="46.65124" lon="6.29548">
        <ele>1072</ele>
        <time>2013-08-18T12:23:56.000Z</time>
      </trkpt>
      <trkpt lat="46.65123" lon="6.29545">
        <ele>1072</ele>
        <time>2013-08-18T12:23:57.000Z</time>
      </trkpt>
      <trkpt lat="46.65122" lon="6.29542">
        <ele>1072</ele>
        <time>2013-08-18T12:23:58.000Z</time>
      </trkpt>
      <trkpt lat="46.65121" lon="6.29539">
        <ele>1072</ele>
        <time>2013-08-18T12:23:59.000Z</time>
      </trkpt>
      <trkpt lat="46.6512" lon="6.29535">
        <ele>1073</ele>
        <time>2013-08-18T12:24:00.000Z</time>
      </trkpt>
      <trkpt lat="46.65118" lon="6.29532">
        <ele>1073</ele>
        <time>2013-08-18T12:24:01.000Z</time>
      </trkpt>
      <trkpt lat="46.65117" lon="6.29529">
        <ele>1073</ele>
        <time>2013-08-18T12:24:02.000Z</time>
      </trkpt>
      <trkpt lat="46.65115" lon="6.29525">
        <ele>1073</ele>
        <time>2013-08-18T12:24:03.000Z</time>
      </trkpt>
      <trkpt lat="46.65113" lon="6.29521">
        <ele>1073</ele>
        <time>2013-08-18T12:24:04.000Z</time>
      </trkpt>
      <trkpt lat="46.65111" lon="6.29517">
        <ele>1073</ele>
        <time>2013-08-18T12:24:05.000Z</time>
      </trkpt>
      <trkpt lat="46.65109" lon="6.29513">
        <ele>1074</ele>
        <time>2013-08-18T12:24:06.000Z</time>
      </trkpt>
      <trkpt lat="46.65107" lon="6.29508">
        <ele>1074</ele>
        <time>2013-08-18T12:24:07.000Z</time>
      </trkpt>
      <trkpt lat="46.65106" lon="6.29503">
        <ele>1074</ele>
        <time>2013-08-18T12:24:08.000Z</time>
      </trkpt>
      <trkpt lat="46.65104" lon="6.29499">
        <ele>1075</ele>
        <time>2013-08-18T12:24:09.000Z</time>
      </trkpt>
      <trkpt lat="46.65103" lon="6.29496">
        <ele>1075</ele>
        <time>2013-08-18T12:24:10.000Z</time>
      </trkpt>
      <trkpt lat="46.65102" lon="6.29494">
        <ele>1075</ele>
        <time>2013-08-18T12:24:11.000Z</time>
      </trkpt>
      <trkpt lat="46.651" lon="6.2949">
        <ele>1075</ele>
        <time>2013-08-18T12:24:12.000Z</time>
      </trkpt>
      <trkpt lat="46.65099" lon="6.29486">
        <ele>1075</ele>
        <time>2013-08-18T12:24:13.000Z</time>
      </trkpt>
      <trkpt lat="46.65097" lon="6.29482">
        <ele>1075</ele>
        <time>2013-08-18T12:24:14.000Z</time>
      </trkpt>
      <trkpt lat="46.65095" lon="6.29478">
        <ele>1075</ele>
        <time>2013-08-18T12:24:15.000Z</time>
      </trkpt>
      <trkpt lat="46.65094" lon="6.29473">
        <ele>1075</ele>
        <time>2013-08-18T12:24:16.000Z</time>
      </trkpt>
      <trkpt lat="46.65092" lon="6.29468">
        <ele>1075</ele>
        <time>2013-08-18T12:24:17.000Z</time>
      </trkpt>
      <trkpt lat="46.65089" lon="6.29462">
        <ele>1075</ele>
        <time>2013-08-18T12:24:18.000Z</time>
      </trkpt>
      <trkpt lat="46.65087" lon="6.29456">
        <ele>1075</ele>
        <time>2013-08-18T12:24:19.000Z</time>
      </trkpt>
      <trkpt lat="46.65084" lon="6.29451">
        <ele>1076</ele>
        <time>2013-08-18T12:24:20.000Z</time>
      </trkpt>
      <trkpt lat="46.65082" lon="6.29446">
        <ele>1069</ele>
        <time>2013-08-18T12:24:21.000Z</time>
      </trkpt>
      <trkpt lat="46.6508" lon="6.29441">
        <ele>1070</ele>
        <time>2013-08-18T12:24:22.000Z</time>
      </trkpt>
      <trkpt lat="46.65079" lon="6.29436">
        <ele>1071</ele>
        <time>2013-08-18T12:24:23.000Z</time>
      </trkpt>
      <trkpt lat="46.65077" lon="6.29431">
        <ele>1072</ele>
        <time>2013-08-18T12:24:24.000Z</time>
      </trkpt>
      <trkpt lat="46.65075" lon="6.29426">
        <ele>1074</ele>
        <time>2013-08-18T12:24:25.000Z</time>
      </trkpt>
      <trkpt lat="46.65073" lon="6.2942">
        <ele>1074</ele>
        <time>2013-08-18T12:24:26.000Z</time>
      </trkpt>
      <trkpt lat="46.6507" lon="6.29413">
        <ele>1076</ele>
        <time>2013-08-18T12:24:27.000Z</time>
      </trkpt>
      <trkpt lat="46.65068" lon="6.29407">
        <ele>1075</ele>
        <time>2013-08-18T12:24:28.000Z</time>
      </trkpt>
      <trkpt lat="46.65066" lon="6.29401">
        <ele>1074</ele>
        <time>2013-08-18T12:24:29.000Z</time>
      </trkpt>
      <trkpt lat="46.65064" lon="6.29395">
        <ele>1073</ele>
        <time>2013-08-18T12:24:30.000Z</time>
      </trkpt>
      <trkpt lat="46.65062" lon="6.29391">
        <ele>1072</ele>
        <time>2013-08-18T12:24:31.000Z</time>
      </trkpt>
      <trkpt lat="46.6506" lon="6.29386">
        <ele>1072</ele>
        <time>2013-08-18T12:24:32.000Z</time>
      </trkpt>
      <trkpt lat="46.65058" lon="6.2938">
        <ele>1072</ele>
        <time>2013-08-18T12:24:33.000Z</time>
      </trkpt>
      <trkpt lat="46.65055" lon="6.29374">
        <ele>1071</ele>
        <time>2013-08-18T12:24:34.000Z</time>
      </trkpt>
      <trkpt lat="46.65052" lon="6.29368">
        <ele>1071</ele>
        <time>2013-08-18T12:24:35.000Z</time>
      </trkpt>
      <trkpt lat="46.65049" lon="6.29362">
        <ele>1071</ele>
        <time>2013-08-18T12:24:36.000Z</time>
      </trkpt>
      <trkpt lat="46.65046" lon="6.29357">
        <ele>1071</ele>
        <time>2013-08-18T12:24:37.000Z</time>
      </trkpt>
      <trkpt lat="46.65043" lon="6.29352">
        <ele>1071</ele>
        <time>2013-08-18T12:24:38.000Z</time>
      </trkpt>
      <trkpt lat="46.65041" lon="6.29346">
        <ele>1070</ele>
        <time>2013-08-18T12:24:39.000Z</time>
      </trkpt>
      <trkpt lat="46.65038" lon="6.29342">
        <ele>1070</ele>
        <time>2013-08-18T12:24:40.000Z</time>
      </trkpt>
      <trkpt lat="46.65036" lon="6.29338">
        <ele>1070</ele>
        <time>2013-08-18T12:24:41.000Z</time>
      </trkpt>
      <trkpt lat="46.65034" lon="6.29333">
        <ele>1070</ele>
        <time>2013-08-18T12:24:42.000Z</time>
      </trkpt>
      <trkpt lat="46.65032" lon="6.29328">
        <ele>1070</ele>
        <time>2013-08-18T12:24:43.000Z</time>
      </trkpt>
      <trkpt lat="46.6503" lon="6.29323">
        <ele>1070</ele>
        <time>2013-08-18T12:24:44.000Z</time>
      </trkpt>
      <trkpt lat="46.65027" lon="6.29319">
        <ele>1070</ele>
        <time>2013-08-18T12:24:45.000Z</time>
      </trkpt>
      <trkpt lat="46.65023" lon="6.29314">
        <ele>1070</ele>
        <time>2013-08-18T12:24:46.000Z</time>
      </trkpt>
      <trkpt lat="46.6502" lon="6.29309">
        <ele>1070</ele>
        <time>2013-08-18T12:24:47.000Z</time>
      </trkpt>
      <trkpt lat="46.65018" lon="6.29304">
        <ele>1070</ele>
        <time>2013-08-18T12:24:48.000Z</time>
      </trkpt>
      <trkpt lat="46.65016" lon="6.29299">
        <ele>1070</ele>
        <time>2013-08-18T12:24:49.000Z</time>
      </trkpt>
      <trkpt lat="46.65014" lon="6.29294">
        <ele>1071</ele>
        <time>2013-08-18T12:24:50.000Z</time>
      </trkpt>
      <trkpt lat="46.65012" lon="6.29289">
        <ele>1071</ele>
        <time>2013-08-18T12:24:51.000Z</time>
      </trkpt>
      <trkpt lat="46.6501" lon="6.29284">
        <ele>1071</ele>
        <time>2013-08-18T12:24:52.000Z</time>
      </trkpt>
      <trkpt lat="46.65008" lon="6.2928">
        <ele>1071</ele>
        <time>2013-08-18T12:24:53.000Z</time>
      </trkpt>
      <trkpt lat="46.65005" lon="6.29276">
        <ele>1072</ele>
        <time>2013-08-18T12:24:54.000Z</time>
      </trkpt>
      <trkpt lat="46.65003" lon="6.29272">
        <ele>1072</ele>
        <time>2013-08-18T12:24:55.000Z</time>
      </trkpt>
      <trkpt lat="46.65002" lon="6.29269">
        <ele>1072</ele>
        <time>2013-08-18T12:24:56.000Z</time>
      </trkpt>
      <trkpt lat="46.65001" lon="6.29266">
        <ele>1073</ele>
        <time>2013-08-18T12:24:57.000Z</time>
      </trkpt>
      <trkpt lat="46.65" lon="6.29263">
        <ele>1068</ele>
        <time>2013-08-18T12:24:58.000Z</time>
      </trkpt>
      <trkpt lat="46.64999" lon="6.2926">
        <ele>1069</ele>
        <time>2013-08-18T12:24:59.000Z</time>
      </trkpt>
      <trkpt lat="46.64998" lon="6.29256">
        <ele>1071</ele>
        <time>2013-08-18T12:25:00.000Z</time>
      </trkpt>
      <trkpt lat="46.64996" lon="6.29253">
        <ele>1072</ele>
        <time>2013-08-18T12:25:01.000Z</time>
      </trkpt>
      <trkpt lat="46.64995" lon="6.29249">
        <ele>1074</ele>
        <time>2013-08-18T12:25:02.000Z</time>
      </trkpt>
      <trkpt lat="46.64994" lon="6.29245">
        <ele>1073</ele>
        <time>2013-08-18T12:25:03.000Z</time>
      </trkpt>
      <trkpt lat="46.64992" lon="6.29241">
        <ele>1071</ele>
        <time>2013-08-18T12:25:04.000Z</time>
      </trkpt>
      <trkpt lat="46.64991" lon="6.29238">
        <ele>1071</ele>
        <time>2013-08-18T12:25:05.000Z</time>
      </trkpt>
      <trkpt lat="46.6499" lon="6.29234">
        <ele>1070</ele>
        <time>2013-08-18T12:25:06.000Z</time>
      </trkpt>
      <trkpt lat="46.64989" lon="6.29231">
        <ele>1069</ele>
        <time>2013-08-18T12:25:07.000Z</time>
      </trkpt>
      <trkpt lat="46.64988" lon="6.29227">
        <ele>1069</ele>
        <time>2013-08-18T12:25:08.000Z</time>
      </trkpt>
      <trkpt lat="46.64987" lon="6.29224">
        <ele>1068</ele>
        <time>2013-08-18T12:25:09.000Z</time>
      </trkpt>
      <trkpt lat="46.64986" lon="6.29221">
        <ele>1068</ele>
        <time>2013-08-18T12:25:10.000Z</time>
      </trkpt>
      <trkpt lat="46.64985" lon="6.29218">
        <ele>1068</ele>
        <time>2013-08-18T12:25:11.000Z</time>
      </trkpt>
      <trkpt lat="46.64983" lon="6.29214">
        <ele>1068</ele>
        <time>2013-08-18T12:25:12.000Z</time>
      </trkpt>
      <trkpt lat="46.64981" lon="6.29211">
        <ele>1067</ele>
        <time>2013-08-18T12:25:13.000Z</time>
      </trkpt>
      <trkpt lat="46.6498" lon="6.29207">
        <ele>1067</ele>
        <time>2013-08-18T12:25:14.000Z</time>
      </trkpt>
      <trkpt lat="46.64978" lon="6.29204">
        <ele>1067</ele>
        <time>2013-08-18T12:25:15.000Z</time>
      </trkpt>
      <trkpt lat="46.64976" lon="6.292">
        <ele>1067</ele>
        <time>2013-08-18T12:25:16.000Z</time>
      </trkpt>
      <trkpt lat="46.64974" lon="6.29196">
        <ele>1067</ele>
        <time>2013-08-18T12:25:17.000Z</time>
      </trkpt>
      <trkpt lat="46.64973" lon="6.29193">
        <ele>1067</ele>
        <time>2013-08-18T12:25:18.000Z</time>
      </trkpt>
      <trkpt lat="46.64971" lon="6.29189">
        <ele>1067</ele>
        <time>2013-08-18T12:25:19.000Z</time>
      </trkpt>
      <trkpt lat="46.6497" lon="6.29184">
        <ele>1067</ele>
        <time>2013-08-18T12:25:20.000Z</time>
      </trkpt>
      <trkpt lat="46.64968" lon="6.29181">
        <ele>1067</ele>
        <time>2013-08-18T12:25:21.000Z</time>
      </trkpt>
      <trkpt lat="46.64967" lon="6.29177">
        <ele>1067</ele>
        <time>2013-08-18T12:25:22.000Z</time>
      </trkpt>
      <trkpt lat="46.64965" lon="6.29172">
        <ele>1067</ele>
        <time>2013-08-18T12:25:23.000Z</time>
      </trkpt>
      <trkpt lat="46.64964" lon="6.29167">
        <ele>1067</ele>
        <time>2013-08-18T12:25:24.000Z</time>
      </trkpt>
      <trkpt lat="46.64962" lon="6.29161">
        <ele>1070</ele>
        <time>2013-08-18T12:25:25.000Z</time>
      </trkpt>
      <trkpt lat="46.6496" lon="6.29154">
        <ele>1070</ele>
        <time>2013-08-18T12:25:26.000Z</time>
      </trkpt>
      <trkpt lat="46.64957" lon="6.29147">
        <ele>1070</ele>
        <time>2013-08-18T12:25:27.000Z</time>
      </trkpt>
      <trkpt lat="46.64955" lon="6.29142">
        <ele>1069</ele>
        <time>2013-08-18T12:25:28.000Z</time>
      </trkpt>
      <trkpt lat="46.64952" lon="6.29138">
        <ele>1069</ele>
        <time>2013-08-18T12:25:29.000Z</time>
      </trkpt>
      <trkpt lat="46.64951" lon="6.29135">
        <ele>1069</ele>
        <time>2013-08-18T12:25:30.000Z</time>
      </trkpt>
      <trkpt lat="46.64949" lon="6.29132">
        <ele>1069</ele>
        <time>2013-08-18T12:25:31.000Z</time>
      </trkpt>
      <trkpt lat="46.64948" lon="6.2913">
        <ele>1070</ele>
        <time>2013-08-18T12:25:32.000Z</time>
      </trkpt>
      <trkpt lat="46.64946" lon="6.29126">
        <ele>1070</ele>
        <time>2013-08-18T12:25:33.000Z</time>
      </trkpt>
      <trkpt lat="46.64945" lon="6.29123">
        <ele>1070</ele>
        <time>2013-08-18T12:25:34.000Z</time>
      </trkpt>
      <trkpt lat="46.64944" lon="6.29119">
        <ele>1070</ele>
        <time>2013-08-18T12:25:35.000Z</time>
      </trkpt>
      <trkpt lat="46.64943" lon="6.29115">
        <ele>1070</ele>
        <time>2013-08-18T12:25:36.000Z</time>
      </trkpt>
      <trkpt lat="46.64942" lon="6.29111">
        <ele>1070</ele>
        <time>2013-08-18T12:25:37.000Z</time>
      </trkpt>
      <trkpt lat="46.64941" lon="6.29107">
        <ele>1071</ele>
        <time>2013-08-18T12:25:38.000Z</time>
      </trkpt>
      <trkpt lat="46.6494" lon="6.29103">
        <ele>1071</ele>
        <time>2013-08-18T12:25:39.000Z</time>
      </trkpt>
      <trkpt lat="46.64938" lon="6.29098">
        <ele>1071</ele>
        <time>2013-08-18T12:25:40.000Z</time>
      </trkpt>
      <trkpt lat="46.64936" lon="6.29093">
        <ele>1072</ele>
        <time>2013-08-18T12:25:41.000Z</time>
      </trkpt>
      <trkpt lat="46.64935" lon="6.29089">
        <ele>1072</ele>
        <time>2013-08-18T12:25:42.000Z</time>
      </trkpt>
      <trkpt lat="46.64933" lon="6.29085">
        <ele>1073</ele>
        <time>2013-08-18T12:25:43.000Z</time>
      </trkpt>
      <trkpt lat="46.64933" lon="6.29082">
        <ele>1072</ele>
        <time>2013-08-18T12:25:44.000Z</time>
      </trkpt>
      <trkpt lat="46.64931" lon="6.29078">
        <ele>1072</ele>
        <time>2013-08-18T12:25:45.000Z</time>
      </trkpt>
      <trkpt lat="46.64928" lon="6.29075">
        <ele>1072</ele>
        <time>2013-08-18T12:25:46.000Z</time>
      </trkpt>
      <trkpt lat="46.64926" lon="6.29071">
        <ele>1072</ele>
        <time>2013-08-18T12:25:47.000Z</time>
      </trkpt>
      <trkpt lat="46.64923" lon="6.29068">
        <ele>1072</ele>
        <time>2013-08-18T12:25:48.000Z</time>
      </trkpt>
      <trkpt lat="46.64921" lon="6.29065">
        <ele>1071</ele>
        <time>2013-08-18T12:25:49.000Z</time>
      </trkpt>
      <trkpt lat="46.6492" lon="6.29062">
        <ele>1071</ele>
        <time>2013-08-18T12:25:50.000Z</time>
      </trkpt>
      <trkpt lat="46.64919" lon="6.29058">
        <ele>1071</ele>
        <time>2013-08-18T12:25:51.000Z</time>
      </trkpt>
      <trkpt lat="46.64917" lon="6.29055">
        <ele>1070</ele>
        <time>2013-08-18T12:25:52.000Z</time>
      </trkpt>
      <trkpt lat="46.64916" lon="6.29052">
        <ele>1068</ele>
        <time>2013-08-18T12:25:53.000Z</time>
      </trkpt>
      <trkpt lat="46.64915" lon="6.29049">
        <ele>1068</ele>
        <time>2013-08-18T12:25:54.000Z</time>
      </trkpt>
      <trkpt lat="46.64914" lon="6.29045">
        <ele>1067</ele>
        <time>2013-08-18T12:25:55.000Z</time>
      </trkpt>
      <trkpt lat="46.64913" lon="6.2904">
        <ele>1067</ele>
        <time>2013-08-18T12:25:56.000Z</time>
      </trkpt>
      <trkpt lat="46.64912" lon="6.29036">
        <ele>1067</ele>
        <time>2013-08-18T12:25:57.000Z</time>
      </trkpt>
      <trkpt lat="46.6491" lon="6.29032">
        <ele>1067</ele>
        <time>2013-08-18T12:25:58.000Z</time>
      </trkpt>
      <trkpt lat="46.64909" lon="6.29028">
        <ele>1068</ele>
        <time>2013-08-18T12:25:59.000Z</time>
      </trkpt>
      <trkpt lat="46.64907" lon="6.29025">
        <ele>1068</ele>
        <time>2013-08-18T12:26:00.000Z</time>
      </trkpt>
      <trkpt lat="46.64906" lon="6.29021">
        <ele>1068</ele>
        <time>2013-08-18T12:26:01.000Z</time>
      </trkpt>
      <trkpt lat="46.64904" lon="6.29017">
        <ele>1068</ele>
        <time>2013-08-18T12:26:02.000Z</time>
      </trkpt>
      <trkpt lat="46.64902" lon="6.29013">
        <ele>1069</ele>
        <time>2013-08-18T12:26:03.000Z</time>
      </trkpt>
      <trkpt lat="46.649" lon="6.29008">
        <ele>1069</ele>
        <time>2013-08-18T12:26:04.000Z</time>
      </trkpt>
      <trkpt lat="46.64898" lon="6.29003">
        <ele>1069</ele>
        <time>2013-08-18T12:26:05.000Z</time>
      </trkpt>
      <trkpt lat="46.64896" lon="6.28999">
        <ele>1070</ele>
        <time>2013-08-18T12:26:06.000Z</time>
      </trkpt>
      <trkpt lat="46.64893" lon="6.28995">
        <ele>1070</ele>
        <time>2013-08-18T12:26:07.000Z</time>
      </trkpt>
      <trkpt lat="46.6489" lon="6.28991">
        <ele>1069</ele>
        <time>2013-08-18T12:26:08.000Z</time>
      </trkpt>
      <trkpt lat="46.64887" lon="6.28989">
        <ele>1069</ele>
        <time>2013-08-18T12:26:09.000Z</time>
      </trkpt>
      <trkpt lat="46.64885" lon="6.28987">
        <ele>1069</ele>
        <time>2013-08-18T12:26:10.000Z</time>
      </trkpt>
      <trkpt lat="46.64882" lon="6.28985">
        <ele>1068</ele>
        <time>2013-08-18T12:26:11.000Z</time>
      </trkpt>
      <trkpt lat="46.6488" lon="6.28983">
        <ele>1068</ele>
        <time>2013-08-18T12:26:12.000Z</time>
      </trkpt>
      <trkpt lat="46.64877" lon="6.28982">
        <ele>1068</ele>
        <time>2013-08-18T12:26:13.000Z</time>
      </trkpt>
      <trkpt lat="46.64873" lon="6.2898">
        <ele>1068</ele>
        <time>2013-08-18T12:26:14.000Z</time>
      </trkpt>
      <trkpt lat="46.64868" lon="6.28978">
        <ele>1067</ele>
        <time>2013-08-18T12:26:15.000Z</time>
      </trkpt>
      <trkpt lat="46.64864" lon="6.28976">
        <ele>1067</ele>
        <time>2013-08-18T12:26:16.000Z</time>
      </trkpt>
      <trkpt lat="46.64859" lon="6.28974">
        <ele>1067</ele>
        <time>2013-08-18T12:26:17.000Z</time>
      </trkpt>
      <trkpt lat="46.64854" lon="6.2897">
        <ele>1067</ele>
        <time>2013-08-18T12:26:18.000Z</time>
      </trkpt>
      <trkpt lat="46.6485" lon="6.28966">
        <ele>1067</ele>
        <time>2013-08-18T12:26:19.000Z</time>
      </trkpt>
      <trkpt lat="46.64847" lon="6.2896">
        <ele>1067</ele>
        <time>2013-08-18T12:26:20.000Z</time>
      </trkpt>
      <trkpt lat="46.64844" lon="6.28955">
        <ele>1068</ele>
        <time>2013-08-18T12:26:21.000Z</time>
      </trkpt>
      <trkpt lat="46.64841" lon="6.2895">
        <ele>1068</ele>
        <time>2013-08-18T12:26:22.000Z</time>
      </trkpt>
      <trkpt lat="46.64837" lon="6.28945">
        <ele>1069</ele>
        <time>2013-08-18T12:26:23.000Z</time>
      </trkpt>
      <trkpt lat="46.64834" lon="6.2894">
        <ele>1069</ele>
        <time>2013-08-18T12:26:24.000Z</time>
      </trkpt>
      <trkpt lat="46.64832" lon="6.28937">
        <ele>1062</ele>
        <time>2013-08-18T12:26:25.000Z</time>
      </trkpt>
      <trkpt lat="46.6483" lon="6.28935">
        <ele>1062</ele>
        <time>2013-08-18T12:26:26.000Z</time>
      </trkpt>
      <trkpt lat="46.64829" lon="6.28934">
        <ele>1063</ele>
        <time>2013-08-18T12:26:27.000Z</time>
      </trkpt>
      <trkpt lat="46.64829" lon="6.28933">
        <ele>1063</ele>
        <time>2013-08-18T12:26:28.000Z</time>
      </trkpt>
      <trkpt lat="46.64829" lon="6.28933">
        <ele>1063</ele>
        <time>2013-08-18T12:26:29.000Z</time>
      </trkpt>
      <trkpt lat="46.64828" lon="6.28933">
        <ele>1063</ele>
        <time>2013-08-18T12:26:30.000Z</time>
      </trkpt>
      <trkpt lat="46.64828" lon="6.28933">
        <ele>1063</ele>
        <time>2013-08-18T12:26:33.000Z</time>
      </trkpt>
      <trkpt lat="46.64828" lon="6.28932">
        <ele>1063</ele>
        <time>2013-08-18T12:26:34.000Z</time>
      </trkpt>
      <trkpt lat="46.64828" lon="6.28932">
        <ele>1063</ele>
        <time>2013-08-18T12:26:35.000Z</time>
      </trkpt>
      <trkpt lat="46.64828" lon="6.28932">
        <ele>1063</ele>
        <time>2013-08-18T12:26:36.000Z</time>
      </trkpt>
      <trkpt lat="46.64829" lon="6.28933">
        <ele>1063</ele>
        <time>2013-08-18T12:26:37.000Z</time>
      </trkpt>
      <trkpt lat="46.64829" lon="6.28934">
        <ele>1062</ele>
        <time>2013-08-18T12:26:38.000Z</time>
      </trkpt>
      <trkpt lat="46.6483" lon="6.28935">
        <ele>1062</ele>
        <time>2013-08-18T12:26:39.000Z</time>
      </trkpt>
      <trkpt lat="46.64831" lon="6.28936">
        <ele>1062</ele>
        <time>2013-08-18T12:26:40.000Z</time>
      </trkpt>
      <trkpt lat="46.64833" lon="6.28937">
        <ele>1062</ele>
        <time>2013-08-18T12:26:41.000Z</time>
      </trkpt>
      <trkpt lat="46.64834" lon="6.28939">
        <ele>1069</ele>
        <time>2013-08-18T12:26:42.000Z</time>
      </trkpt>
      <trkpt lat="46.64836" lon="6.28941">
        <ele>1069</ele>
        <time>2013-08-18T12:26:43.000Z</time>
      </trkpt>
      <trkpt lat="46.64837" lon="6.28943">
        <ele>1069</ele>
        <time>2013-08-18T12:26:44.000Z</time>
      </trkpt>
      <trkpt lat="46.64839" lon="6.28945">
        <ele>1069</ele>
        <time>2013-08-18T12:26:45.000Z</time>
      </trkpt>
      <trkpt lat="46.64841" lon="6.28947">
        <ele>1068</ele>
        <time>2013-08-18T12:26:46.000Z</time>
      </trkpt>
      <trkpt lat="46.64843" lon="6.2895">
        <ele>1068</ele>
        <time>2013-08-18T12:26:47.000Z</time>
      </trkpt>
      <trkpt lat="46.64845" lon="6.28952">
        <ele>1068</ele>
        <time>2013-08-18T12:26:48.000Z</time>
      </trkpt>
      <trkpt lat="46.64847" lon="6.28955">
        <ele>1068</ele>
        <time>2013-08-18T12:26:49.000Z</time>
      </trkpt>
      <trkpt lat="46.64848" lon="6.28957">
        <ele>1068</ele>
        <time>2013-08-18T12:26:50.000Z</time>
      </trkpt>
      <trkpt lat="46.64851" lon="6.2896">
        <ele>1068</ele>
        <time>2013-08-18T12:26:51.000Z</time>
      </trkpt>
      <trkpt lat="46.64853" lon="6.28961">
        <ele>1067</ele>
        <time>2013-08-18T12:26:52.000Z</time>
      </trkpt>
      <trkpt lat="46.64855" lon="6.28963">
        <ele>1067</ele>
        <time>2013-08-18T12:26:53.000Z</time>
      </trkpt>
      <trkpt lat="46.64857" lon="6.28965">
        <ele>1067</ele>
        <time>2013-08-18T12:26:54.000Z</time>
      </trkpt>
      <trkpt lat="46.6486" lon="6.28967">
        <ele>1067</ele>
        <time>2013-08-18T12:26:55.000Z</time>
      </trkpt>
      <trkpt lat="46.64862" lon="6.2897">
        <ele>1067</ele>
        <time>2013-08-18T12:26:56.000Z</time>
      </trkpt>
      <trkpt lat="46.64863" lon="6.28972">
        <ele>1067</ele>
        <time>2013-08-18T12:26:57.000Z</time>
      </trkpt>
      <trkpt lat="46.64864" lon="6.28975">
        <ele>1067</ele>
        <time>2013-08-18T12:26:58.000Z</time>
      </trkpt>
      <trkpt lat="46.64865" lon="6.28977">
        <ele>1067</ele>
        <time>2013-08-18T12:26:59.000Z</time>
      </trkpt>
      <trkpt lat="46.64866" lon="6.28978">
        <ele>1067</ele>
        <time>2013-08-18T12:27:00.000Z</time>
      </trkpt>
      <trkpt lat="46.64866" lon="6.28979">
        <ele>1067</ele>
        <time>2013-08-18T12:27:01.000Z</time>
      </trkpt>
      <trkpt lat="46.64866" lon="6.28981">
        <ele>1067</ele>
        <time>2013-08-18T12:27:02.000Z</time>
      </trkpt>
      <trkpt lat="46.64866" lon="6.28982">
        <ele>1067</ele>
        <time>2013-08-18T12:27:03.000Z</time>
      </trkpt>
      <trkpt lat="46.64865" lon="6.28983">
        <ele>1067</ele>
        <time>2013-08-18T12:27:05.000Z</time>
      </trkpt>
      <trkpt lat="46.64865" lon="6.28984">
        <ele>1067</ele>
        <time>2013-08-18T12:27:06.000Z</time>
      </trkpt>
      <trkpt lat="46.64865" lon="6.28985">
        <ele>1067</ele>
        <time>2013-08-18T12:27:07.000Z</time>
      </trkpt>
      <trkpt lat="46.64865" lon="6.28985">
        <ele>1067</ele>
        <time>2013-08-18T12:27:08.000Z</time>
      </trkpt>
      <trkpt lat="46.64866" lon="6.28985">
        <ele>1067</ele>
        <time>2013-08-18T12:27:11.000Z</time>
      </trkpt>
      <trkpt lat="46.64866" lon="6.28986">
        <ele>1067</ele>
        <time>2013-08-18T12:27:13.000Z</time>
      </trkpt>
      <trkpt lat="46.64865" lon="6.28986">
        <ele>1067</ele>
        <time>2013-08-18T12:27:14.000Z</time>
      </trkpt>
      <trkpt lat="46.64865" lon="6.28986">
        <ele>1067</ele>
        <time>2013-08-18T12:27:15.000Z</time>
      </trkpt>
      <trkpt lat="46.64865" lon="6.28986">
        <ele>1067</ele>
        <time>2013-08-18T12:27:16.000Z</time>
      </trkpt>
      <trkpt lat="46.64865" lon="6.28987">
        <ele>1067</ele>
        <time>2013-08-18T12:27:17.000Z</time>
      </trkpt>
      <trkpt lat="46.64864" lon="6.28987">
        <ele>1067</ele>
        <time>2013-08-18T12:27:19.000Z</time>
      </trkpt>
      <trkpt lat="46.64864" lon="6.28987">
        <ele>1067</ele>
        <time>2013-08-18T12:27:21.000Z</time>
      </trkpt>
      <trkpt lat="46.64864" lon="6.28987">
        <ele>1067</ele>
        <time>2013-08-18T12:27:23.000Z</time>
      </trkpt>
      <trkpt lat="46.64863" lon="6.28987">
        <ele>1067</ele>
        <time>2013-08-18T12:27:25.000Z</time>
      </trkpt>
      <trkpt lat="46.64862" lon="6.28987">
        <ele>1067</ele>
        <time>2013-08-18T12:27:31.000Z</time>
      </trkpt>
      <trkpt lat="46.64862" lon="6.28987">
        <ele>1067</ele>
        <time>2013-08-18T12:27:33.000Z</time>
      </trkpt>
      <trkpt lat="46.64862" lon="6.28987">
        <ele>1067</ele>
        <time>2013-08-18T12:27:34.000Z</time>
      </trkpt>
      <trkpt lat="46.64862" lon="6.28986">
        <ele>1067</ele>
        <time>2013-08-18T12:27:36.000Z</time>
      </trkpt>
      <trkpt lat="46.64862" lon="6.28986">
        <ele>1067</ele>
        <time>2013-08-18T12:27:37.000Z</time>
      </trkpt>
      <trkpt lat="46.64862" lon="6.28986">
        <ele>1067</ele>
        <time>2013-08-18T12:27:39.000Z</time>
      </trkpt>
      <trkpt lat="46.64861" lon="6.28985">
        <ele>1067</ele>
        <time>2013-08-18T12:27:40.000Z</time>
      </trkpt>
      <trkpt lat="46.64861" lon="6.28985">
        <ele>1067</ele>
        <time>2013-08-18T12:27:41.000Z</time>
      </trkpt>
      <trkpt lat="46.64861" lon="6.28984">
        <ele>1067</ele>
        <time>2013-08-18T12:27:43.000Z</time>
      </trkpt>
      <trkpt lat="46.64861" lon="6.28984">
        <ele>1067</ele>
        <time>2013-08-18T12:27:44.000Z</time>
      </trkpt>
      <trkpt lat="46.64861" lon="6.28983">
        <ele>1067</ele>
        <time>2013-08-18T12:27:47.000Z</time>
      </trkpt>
      <trkpt lat="46.64861" lon="6.28983">
        <ele>1067</ele>
        <time>2013-08-18T12:27:49.000Z</time>
      </trkpt>
      <trkpt lat="46.6486" lon="6.28982">
        <ele>1067</ele>
        <time>2013-08-18T12:27:52.000Z</time>
      </trkpt>
      <trkpt lat="46.6486" lon="6.28981">
        <ele>1067</ele>
        <time>2013-08-18T12:27:56.000Z</time>
      </trkpt>
      <trkpt lat="46.6486" lon="6.28979">
        <ele>1067</ele>
        <time>2013-08-18T12:28:03.000Z</time>
      </trkpt>
      <trkpt lat="46.64861" lon="6.28978">
        <ele>1067</ele>
        <time>2013-08-18T12:28:08.000Z</time>
      </trkpt>
      <trkpt lat="46.64861" lon="6.28977">
        <ele>1067</ele>
        <time>2013-08-18T12:28:13.000Z</time>
      </trkpt>
      <trkpt lat="46.64861" lon="6.28976">
        <ele>1067</ele>
        <time>2013-08-18T12:28:17.000Z</time>
      </trkpt>
      <trkpt lat="46.64861" lon="6.28976">
        <ele>1067</ele>
        <time>2013-08-18T12:28:23.000Z</time>
      </trkpt>
      <trkpt lat="46.64861" lon="6.28976">
        <ele>1067</ele>
        <time>2013-08-18T12:28:30.000Z</time>
      </trkpt>
      <trkpt lat="46.64861" lon="6.28976">
        <ele>1067</ele>
        <time>2013-08-18T12:28:31.000Z</time>
      </trkpt>
      <trkpt lat="46.64861" lon="6.28976">
        <ele>1067</ele>
        <time>2013-08-18T12:28:32.000Z</time>
      </trkpt>
      <trkpt lat="46.64861" lon="6.28977">
        <ele>1067</ele>
        <time>2013-08-18T12:28:34.000Z</time>
      </trkpt>
      <trkpt lat="46.64862" lon="6.28977">
        <ele>1067</ele>
        <time>2013-08-18T12:28:38.000Z</time>
      </trkpt>
      <trkpt lat="46.64862" lon="6.28978">
        <ele>1067</ele>
        <time>2013-08-18T12:28:40.000Z</time>
      </trkpt>
      <trkpt lat="46.64862" lon="6.28978">
        <ele>1067</ele>
        <time>2013-08-18T12:28:42.000Z</time>
      </trkpt>
      <trkpt lat="46.64862" lon="6.28978">
        <ele>1067</ele>
        <time>2013-08-18T12:28:43.000Z</time>
      </trkpt>
      <trkpt lat="46.64862" lon="6.28978">
        <ele>1067</ele>
        <time>2013-08-18T12:28:44.000Z</time>
      </trkpt>
      <trkpt lat="46.64862" lon="6.28979">
        <ele>1067</ele>
        <time>2013-08-18T12:28:46.000Z</time>
      </trkpt>
      <trkpt lat="46.64863" lon="6.28979">
        <ele>1067</ele>
        <time>2013-08-18T12:28:48.000Z</time>
      </trkpt>
      <trkpt lat="46.64863" lon="6.28979">
        <ele>1067</ele>
        <time>2013-08-18T12:28:51.000Z</time>
      </trkpt>
      <trkpt lat="46.64863" lon="6.28979">
        <ele>1067</ele>
        <time>2013-08-18T12:28:53.000Z</time>
      </trkpt>
      <trkpt lat="46.64864" lon="6.28979">
        <ele>1067</ele>
        <time>2013-08-18T12:28:55.000Z</time>
      </trkpt>
      <trkpt lat="46.64864" lon="6.28979">
        <ele>1067</ele>
        <time>2013-08-18T12:28:56.000Z</time>
      </trkpt>
      <trkpt lat="46.64864" lon="6.28979">
        <ele>1067</ele>
        <time>2013-08-18T12:28:57.000Z</time>
      </trkpt>
      <trkpt lat="46.64864" lon="6.28978">
        <ele>1067</ele>
        <time>2013-08-18T12:28:58.000Z</time>
      </trkpt>
      <trkpt lat="46.64865" lon="6.28978">
        <ele>1067</ele>
        <time>2013-08-18T12:28:59.000Z</time>
      </trkpt>
      <trkpt lat="46.64865" lon="6.28978">
        <ele>1067</ele>
        <time>2013-08-18T12:29:00.000Z</time>
      </trkpt>
      <trkpt lat="46.64865" lon="6.28978">
        <ele>1067</ele>
        <time>2013-08-18T12:29:01.000Z</time>
      </trkpt>
      <trkpt lat="46.64865" lon="6.28978">
        <ele>1067</ele>
        <time>2013-08-18T12:29:02.000Z</time>
      </trkpt>
      <trkpt lat="46.64865" lon="6.28978">
        <ele>1067</ele>
        <time>2013-08-18T12:29:03.000Z</time>
      </trkpt>
      <trkpt lat="46.64866" lon="6.28977">
        <ele>1067</ele>
        <time>2013-08-18T12:29:05.000Z</time>
      </trkpt>
      <trkpt lat="46.64866" lon="6.28977">
        <ele>1067</ele>
        <time>2013-08-18T12:29:07.000Z</time>
      </trkpt>
      <trkpt lat="46.64866" lon="6.28977">
        <ele>1067</ele>
        <time>2013-08-18T12:29:10.000Z</time>
      </trkpt>
      <trkpt lat="46.64866" lon="6.28977">
        <ele>1067</ele>
        <time>2013-08-18T12:29:13.000Z</time>
      </trkpt>
      <trkpt lat="46.64867" lon="6.28977">
        <ele>1067</ele>
        <time>2013-08-18T12:29:14.000Z</time>
      </trkpt>
      <trkpt lat="46.64867" lon="6.28976">
        <ele>1067</ele>
        <time>2013-08-18T12:29:16.000Z</time>
      </trkpt>
      <trkpt lat="46.64867" lon="6.28976">
        <ele>1067</ele>
        <time>2013-08-18T12:29:18.000Z</time>
      </trkpt>
      <trkpt lat="46.64867" lon="6.28976">
        <ele>1067</ele>
        <time>2013-08-18T12:29:20.000Z</time>
      </trkpt>
      <trkpt lat="46.64867" lon="6.28975">
        <ele>1067</ele>
        <time>2013-08-18T12:29:21.000Z</time>
      </trkpt>
      <trkpt lat="46.64867" lon="6.28975">
        <ele>1067</ele>
        <time>2013-08-18T12:29:23.000Z</time>
      </trkpt>
      <trkpt lat="46.64868" lon="6.28975">
        <ele>1067</ele>
        <time>2013-08-18T12:29:25.000Z</time>
      </trkpt>
      <trkpt lat="46.64868" lon="6.28975">
        <ele>1067</ele>
        <time>2013-08-18T12:29:28.000Z</time>
      </trkpt>
      <trkpt lat="46.64868" lon="6.28975">
        <ele>1067</ele>
        <time>2013-08-18T12:29:40.000Z</time>
      </trkpt>
      <trkpt lat="46.64867" lon="6.28975">
        <ele>1067</ele>
        <time>2013-08-18T12:29:46.000Z</time>
      </trkpt>
      <trkpt lat="46.64867" lon="6.28976">
        <ele>1067</ele>
        <time>2013-08-18T12:29:47.000Z</time>
      </trkpt>
      <trkpt lat="46.64867" lon="6.28976">
        <ele>1067</ele>
        <time>2013-08-18T12:29:48.000Z</time>
      </trkpt>
      <trkpt lat="46.64867" lon="6.28976">
        <ele>1067</ele>
        <time>2013-08-18T12:29:49.000Z</time>
      </trkpt>
      <trkpt lat="46.64867" lon="6.28976">
        <ele>1067</ele>
        <time>2013-08-18T12:29:50.000Z</time>
      </trkpt>
      <trkpt lat="46.64867" lon="6.28976">
        <ele>1067</ele>
        <time>2013-08-18T12:29:51.000Z</time>
      </trkpt>
      <trkpt lat="46.64868" lon="6.28977">
        <ele>1067</ele>
        <time>2013-08-18T12:29:55.000Z</time>
      </trkpt>
      <trkpt lat="46.64867" lon="6.28978">
        <ele>1067</ele>
        <time>2013-08-18T12:29:56.000Z</time>
      </trkpt>
      <trkpt lat="46.64867" lon="6.28976">
        <ele>1067</ele>
        <time>2013-08-18T12:29:59.000Z</time>
      </trkpt>
      <trkpt lat="46.64867" lon="6.28976">
        <ele>1067</ele>
        <time>2013-08-18T12:30:00.000Z</time>
      </trkpt>
      <trkpt lat="46.64866" lon="6.28974">
        <ele>1067</ele>
        <time>2013-08-18T12:30:01.000Z</time>
      </trkpt>
      <trkpt lat="46.64865" lon="6.28973">
        <ele>1067</ele>
        <time>2013-08-18T12:30:02.000Z</time>
      </trkpt>
      <trkpt lat="46.64863" lon="6.28972">
        <ele>1067</ele>
        <time>2013-08-18T12:30:03.000Z</time>
      </trkpt>
      <trkpt lat="46.64861" lon="6.2897">
        <ele>1067</ele>
        <time>2013-08-18T12:30:04.000Z</time>
      </trkpt>
      <trkpt lat="46.64858" lon="6.28968">
        <ele>1067</ele>
        <time>2013-08-18T12:30:05.000Z</time>
      </trkpt>
      <trkpt lat="46.64856" lon="6.28966">
        <ele>1067</ele>
        <time>2013-08-18T12:30:06.000Z</time>
      </trkpt>
      <trkpt lat="46.64853" lon="6.28965">
        <ele>1067</ele>
        <time>2013-08-18T12:30:07.000Z</time>
      </trkpt>
      <trkpt lat="46.64851" lon="6.28962">
        <ele>1067</ele>
        <time>2013-08-18T12:30:08.000Z</time>
      </trkpt>
      <trkpt lat="46.64849" lon="6.2896">
        <ele>1067</ele>
        <time>2013-08-18T12:30:09.000Z</time>
      </trkpt>
      <trkpt lat="46.64847" lon="6.28958">
        <ele>1068</ele>
        <time>2013-08-18T12:30:10.000Z</time>
      </trkpt>
      <trkpt lat="46.64845" lon="6.28955">
        <ele>1068</ele>
        <time>2013-08-18T12:30:11.000Z</time>
      </trkpt>
      <trkpt lat="46.64843" lon="6.28953">
        <ele>1068</ele>
        <time>2013-08-18T12:30:12.000Z</time>
      </trkpt>
      <trkpt lat="46.64841" lon="6.2895">
        <ele>1068</ele>
        <time>2013-08-18T12:30:13.000Z</time>
      </trkpt>
      <trkpt lat="46.64839" lon="6.28946">
        <ele>1068</ele>
        <time>2013-08-18T12:30:14.000Z</time>
      </trkpt>
      <trkpt lat="46.64836" lon="6.28943">
        <ele>1069</ele>
        <time>2013-08-18T12:30:15.000Z</time>
      </trkpt>
      <trkpt lat="46.64833" lon="6.28939">
        <ele>1061</ele>
        <time>2013-08-18T12:30:16.000Z</time>
      </trkpt>
      <trkpt lat="46.64831" lon="6.28936">
        <ele>1062</ele>
        <time>2013-08-18T12:30:17.000Z</time>
      </trkpt>
      <trkpt lat="46.64828" lon="6.28932">
        <ele>1063</ele>
        <time>2013-08-18T12:30:18.000Z</time>
      </trkpt>
      <trkpt lat="46.64825" lon="6.28928">
        <ele>1063</ele>
        <time>2013-08-18T12:30:19.000Z</time>
      </trkpt>
      <trkpt lat="46.64822" lon="6.28925">
        <ele>1063</ele>
        <time>2013-08-18T12:30:20.000Z</time>
      </trkpt>
      <trkpt lat="46.64818" lon="6.28921">
        <ele>1063</ele>
        <time>2013-08-18T12:30:21.000Z</time>
      </trkpt>
      <trkpt lat="46.64815" lon="6.28917">
        <ele>1062</ele>
        <time>2013-08-18T12:30:22.000Z</time>
      </trkpt>
      <trkpt lat="46.64811" lon="6.28914">
        <ele>1065</ele>
        <time>2013-08-18T12:30:23.000Z</time>
      </trkpt>
      <trkpt lat="46.64808" lon="6.2891">
        <ele>1064</ele>
        <time>2013-08-18T12:30:24.000Z</time>
      </trkpt>
      <trkpt lat="46.64805" lon="6.28908">
        <ele>1063</ele>
        <time>2013-08-18T12:30:25.000Z</time>
      </trkpt>
      <trkpt lat="46.64802" lon="6.28905">
        <ele>1063</ele>
        <time>2013-08-18T12:30:26.000Z</time>
      </trkpt>
      <trkpt lat="46.64799" lon="6.28902">
        <ele>1062</ele>
        <time>2013-08-18T12:30:27.000Z</time>
      </trkpt>
      <trkpt lat="46.64797" lon="6.28899">
        <ele>1062</ele>
        <time>2013-08-18T12:30:28.000Z</time>
      </trkpt>
      <trkpt lat="46.64795" lon="6.28896">
        <ele>1061</ele>
        <time>2013-08-18T12:30:29.000Z</time>
      </trkpt>
      <trkpt lat="46.64792" lon="6.28893">
        <ele>1061</ele>
        <time>2013-08-18T12:30:30.000Z</time>
      </trkpt>
      <trkpt lat="46.6479" lon="6.28889">
        <ele>1061</ele>
        <time>2013-08-18T12:30:31.000Z</time>
      </trkpt>
      <trkpt lat="46.64787" lon="6.28884">
        <ele>1060</ele>
        <time>2013-08-18T12:30:32.000Z</time>
      </trkpt>
      <trkpt lat="46.64784" lon="6.28879">
        <ele>1060</ele>
        <time>2013-08-18T12:30:33.000Z</time>
      </trkpt>
      <trkpt lat="46.64781" lon="6.28874">
        <ele>1060</ele>
        <time>2013-08-18T12:30:34.000Z</time>
      </trkpt>
      <trkpt lat="46.64779" lon="6.2887">
        <ele>1060</ele>
        <time>2013-08-18T12:30:35.000Z</time>
      </trkpt>
      <trkpt lat="46.64776" lon="6.28866">
        <ele>1060</ele>
        <time>2013-08-18T12:30:36.000Z</time>
      </trkpt>
      <trkpt lat="46.64774" lon="6.28861">
        <ele>1060</ele>
        <time>2013-08-18T12:30:37.000Z</time>
      </trkpt>
      <trkpt lat="46.64772" lon="6.28856">
        <ele>1060</ele>
        <time>2013-08-18T12:30:38.000Z</time>
      </trkpt>
      <trkpt lat="46.64769" lon="6.28852">
        <ele>1060</ele>
        <time>2013-08-18T12:30:39.000Z</time>
      </trkpt>
      <trkpt lat="46.64767" lon="6.28847">
        <ele>1060</ele>
        <time>2013-08-18T12:30:40.000Z</time>
      </trkpt>
      <trkpt lat="46.64765" lon="6.28842">
        <ele>1059</ele>
        <time>2013-08-18T12:30:41.000Z</time>
      </trkpt>
      <trkpt lat="46.64763" lon="6.28837">
        <ele>1059</ele>
        <time>2013-08-18T12:30:42.000Z</time>
      </trkpt>
      <trkpt lat="46.64761" lon="6.28832">
        <ele>1061</ele>
        <time>2013-08-18T12:30:43.000Z</time>
      </trkpt>
      <trkpt lat="46.64758" lon="6.28827">
        <ele>1061</ele>
        <time>2013-08-18T12:30:44.000Z</time>
      </trkpt>
      <trkpt lat="46.64756" lon="6.28822">
        <ele>1062</ele>
        <time>2013-08-18T12:30:45.000Z</time>
      </trkpt>
      <trkpt lat="46.64754" lon="6.28818">
        <ele>1062</ele>
        <time>2013-08-18T12:30:46.000Z</time>
      </trkpt>
      <trkpt lat="46.64752" lon="6.28814">
        <ele>1063</ele>
        <time>2013-08-18T12:30:47.000Z</time>
      </trkpt>
      <trkpt lat="46.6475" lon="6.28809">
        <ele>1055</ele>
        <time>2013-08-18T12:30:48.000Z</time>
      </trkpt>
      <trkpt lat="46.64748" lon="6.28804">
        <ele>1055</ele>
        <time>2013-08-18T12:30:49.000Z</time>
      </trkpt>
      <trkpt lat="46.64746" lon="6.28799">
        <ele>1055</ele>
        <time>2013-08-18T12:30:50.000Z</time>
      </trkpt>
      <trkpt lat="46.64745" lon="6.28795">
        <ele>1055</ele>
        <time>2013-08-18T12:30:51.000Z</time>
      </trkpt>
      <trkpt lat="46.64744" lon="6.2879">
        <ele>1056</ele>
        <time>2013-08-18T12:30:52.000Z</time>
      </trkpt>
      <trkpt lat="46.64743" lon="6.28785">
        <ele>1056</ele>
        <time>2013-08-18T12:30:53.000Z</time>
      </trkpt>
      <trkpt lat="46.64742" lon="6.28779">
        <ele>1058</ele>
        <time>2013-08-18T12:30:54.000Z</time>
      </trkpt>
      <trkpt lat="46.64741" lon="6.28775">
        <ele>1058</ele>
        <time>2013-08-18T12:30:55.000Z</time>
      </trkpt>
      <trkpt lat="46.6474" lon="6.28771">
        <ele>1059</ele>
        <time>2013-08-18T12:30:56.000Z</time>
      </trkpt>
      <trkpt lat="46.64739" lon="6.28766">
        <ele>1061</ele>
        <time>2013-08-18T12:30:57.000Z</time>
      </trkpt>
      <trkpt lat="46.64739" lon="6.28761">
        <ele>1062</ele>
        <time>2013-08-18T12:30:58.000Z</time>
      </trkpt>
      <trkpt lat="46.64738" lon="6.28757">
        <ele>1063</ele>
        <time>2013-08-18T12:30:59.000Z</time>
      </trkpt>
      <trkpt lat="46.64738" lon="6.28753">
        <ele>1064</ele>
        <time>2013-08-18T12:31:00.000Z</time>
      </trkpt>
      <trkpt lat="46.64738" lon="6.2875">
        <ele>1068</ele>
        <time>2013-08-18T12:31:01.000Z</time>
      </trkpt>
      <trkpt lat="46.64737" lon="6.28747">
        <ele>1068</ele>
        <time>2013-08-18T12:31:02.000Z</time>
      </trkpt>
      <trkpt lat="46.64737" lon="6.28743">
        <ele>1068</ele>
        <time>2013-08-18T12:31:03.000Z</time>
      </trkpt>
      <trkpt lat="46.64737" lon="6.28731">
        <ele>1066</ele>
        <time>2013-08-18T12:31:06.000Z</time>
      </trkpt>
      <trkpt lat="46.64737" lon="6.28726">
        <ele>1066</ele>
        <time>2013-08-18T12:31:07.000Z</time>
      </trkpt>
      <trkpt lat="46.64738" lon="6.28721">
        <ele>1066</ele>
        <time>2013-08-18T12:31:08.000Z</time>
      </trkpt>
      <trkpt lat="46.64738" lon="6.28716">
        <ele>1066</ele>
        <time>2013-08-18T12:31:09.000Z</time>
      </trkpt>
      <trkpt lat="46.64738" lon="6.28711">
        <ele>1066</ele>
        <time>2013-08-18T12:31:10.000Z</time>
      </trkpt>
      <trkpt lat="46.64738" lon="6.28705">
        <ele>1066</ele>
        <time>2013-08-18T12:31:11.000Z</time>
      </trkpt>
      <trkpt lat="46.64738" lon="6.28683">
        <ele>1067</ele>
        <time>2013-08-18T12:31:14.000Z</time>
      </trkpt>
      <trkpt lat="46.64736" lon="6.28677">
        <ele>1068</ele>
        <time>2013-08-18T12:31:15.000Z</time>
      </trkpt>
      <trkpt lat="46.64735" lon="6.28672">
        <ele>1068</ele>
        <time>2013-08-18T12:31:16.000Z</time>
      </trkpt>
      <trkpt lat="46.64733" lon="6.28667">
        <ele>1068</ele>
        <time>2013-08-18T12:31:17.000Z</time>
      </trkpt>
      <trkpt lat="46.64731" lon="6.28662">
        <ele>1069</ele>
        <time>2013-08-18T12:31:18.000Z</time>
      </trkpt>
      <trkpt lat="46.64729" lon="6.28657">
        <ele>1068</ele>
        <time>2013-08-18T12:31:19.000Z</time>
      </trkpt>
      <trkpt lat="46.64726" lon="6.28652">
        <ele>1068</ele>
        <time>2013-08-18T12:31:20.000Z</time>
      </trkpt>
      <trkpt lat="46.64722" lon="6.28646">
        <ele>1067</ele>
        <time>2013-08-18T12:31:21.000Z</time>
      </trkpt>
      <trkpt lat="46.6472" lon="6.28641">
        <ele>1067</ele>
        <time>2013-08-18T12:31:22.000Z</time>
      </trkpt>
      <trkpt lat="46.64717" lon="6.28637">
        <ele>1066</ele>
        <time>2013-08-18T12:31:23.000Z</time>
      </trkpt>
      <trkpt lat="46.64715" lon="6.28633">
        <ele>1066</ele>
        <time>2013-08-18T12:31:24.000Z</time>
      </trkpt>
      <trkpt lat="46.64714" lon="6.28629">
        <ele>1066</ele>
        <time>2013-08-18T12:31:25.000Z</time>
      </trkpt>
      <trkpt lat="46.64713" lon="6.28627">
        <ele>1066</ele>
        <time>2013-08-18T12:31:26.000Z</time>
      </trkpt>
      <trkpt lat="46.64711" lon="6.28625">
        <ele>1066</ele>
        <time>2013-08-18T12:31:27.000Z</time>
      </trkpt>
      <trkpt lat="46.6471" lon="6.28623">
        <ele>1066</ele>
        <time>2013-08-18T12:31:28.000Z</time>
      </trkpt>
      <trkpt lat="46.64708" lon="6.2862">
        <ele>1066</ele>
        <time>2013-08-18T12:31:29.000Z</time>
      </trkpt>
      <trkpt lat="46.64707" lon="6.28616">
        <ele>1066</ele>
        <time>2013-08-18T12:31:30.000Z</time>
      </trkpt>
      <trkpt lat="46.64705" lon="6.28612">
        <ele>1066</ele>
        <time>2013-08-18T12:31:31.000Z</time>
      </trkpt>
      <trkpt lat="46.64703" lon="6.28608">
        <ele>1066</ele>
        <time>2013-08-18T12:31:32.000Z</time>
      </trkpt>
      <trkpt lat="46.64702" lon="6.28604">
        <ele>1066</ele>
        <time>2013-08-18T12:31:33.000Z</time>
      </trkpt>
      <trkpt lat="46.647" lon="6.28601">
        <ele>1066</ele>
        <time>2013-08-18T12:31:34.000Z</time>
      </trkpt>
      <trkpt lat="46.64698" lon="6.28597">
        <ele>1066</ele>
        <time>2013-08-18T12:31:35.000Z</time>
      </trkpt>
      <trkpt lat="46.64696" lon="6.28593">
        <ele>1066</ele>
        <time>2013-08-18T12:31:36.000Z</time>
      </trkpt>
      <trkpt lat="46.64694" lon="6.28588">
        <ele>1066</ele>
        <time>2013-08-18T12:31:37.000Z</time>
      </trkpt>
      <trkpt lat="46.64691" lon="6.28584">
        <ele>1066</ele>
        <time>2013-08-18T12:31:38.000Z</time>
      </trkpt>
      <trkpt lat="46.64689" lon="6.2858">
        <ele>1066</ele>
        <time>2013-08-18T12:31:39.000Z</time>
      </trkpt>
      <trkpt lat="46.64687" lon="6.28574">
        <ele>1066</ele>
        <time>2013-08-18T12:31:40.000Z</time>
      </trkpt>
      <trkpt lat="46.64684" lon="6.28568">
        <ele>1065</ele>
        <time>2013-08-18T12:31:41.000Z</time>
      </trkpt>
      <trkpt lat="46.64681" lon="6.28562">
        <ele>1065</ele>
        <time>2013-08-18T12:31:42.000Z</time>
      </trkpt>
      <trkpt lat="46.64678" lon="6.28555">
        <ele>1065</ele>
        <time>2013-08-18T12:31:43.000Z</time>
      </trkpt>
      <trkpt lat="46.64675" lon="6.28547">
        <ele>1065</ele>
        <time>2013-08-18T12:31:44.000Z</time>
      </trkpt>
      <trkpt lat="46.64672" lon="6.28539">
        <ele>1065</ele>
        <time>2013-08-18T12:31:45.000Z</time>
      </trkpt>
      <trkpt lat="46.64669" lon="6.2853">
        <ele>1065</ele>
        <time>2013-08-18T12:31:46.000Z</time>
      </trkpt>
      <trkpt lat="46.64665" lon="6.28521">
        <ele>1063</ele>
        <time>2013-08-18T12:31:47.000Z</time>
      </trkpt>
      <trkpt lat="46.64661" lon="6.28512">
        <ele>1064</ele>
        <time>2013-08-18T12:31:48.000Z</time>
      </trkpt>
      <trkpt lat="46.64657" lon="6.28502">
        <ele>1064</ele>
        <time>2013-08-18T12:31:49.000Z</time>
      </trkpt>
      <trkpt lat="46.64653" lon="6.28494">
        <ele>1064</ele>
        <time>2013-08-18T12:31:50.000Z</time>
      </trkpt>
      <trkpt lat="46.64649" lon="6.28486">
        <ele>1063</ele>
        <time>2013-08-18T12:31:51.000Z</time>
      </trkpt>
      <trkpt lat="46.64645" lon="6.28479">
        <ele>1063</ele>
        <time>2013-08-18T12:31:52.000Z</time>
      </trkpt>
      <trkpt lat="46.64642" lon="6.28473">
        <ele>1062</ele>
        <time>2013-08-18T12:31:53.000Z</time>
      </trkpt>
      <trkpt lat="46.64639" lon="6.28468">
        <ele>1062</ele>
        <time>2013-08-18T12:31:54.000Z</time>
      </trkpt>
      <trkpt lat="46.64636" lon="6.28463">
        <ele>1062</ele>
        <time>2013-08-18T12:31:55.000Z</time>
      </trkpt>
      <trkpt lat="46.64633" lon="6.28458">
        <ele>1062</ele>
        <time>2013-08-18T12:31:56.000Z</time>
      </trkpt>
      <trkpt lat="46.64631" lon="6.28455">
        <ele>1062</ele>
        <time>2013-08-18T12:31:57.000Z</time>
      </trkpt>
      <trkpt lat="46.64628" lon="6.28451">
        <ele>1062</ele>
        <time>2013-08-18T12:31:58.000Z</time>
      </trkpt>
      <trkpt lat="46.64626" lon="6.28448">
        <ele>1062</ele>
        <time>2013-08-18T12:31:59.000Z</time>
      </trkpt>
      <trkpt lat="46.64624" lon="6.28444">
        <ele>1062</ele>
        <time>2013-08-18T12:32:00.000Z</time>
      </trkpt>
      <trkpt lat="46.64622" lon="6.2844">
        <ele>1062</ele>
        <time>2013-08-18T12:32:01.000Z</time>
      </trkpt>
      <trkpt lat="46.6462" lon="6.28437">
        <ele>1062</ele>
        <time>2013-08-18T12:32:02.000Z</time>
      </trkpt>
      <trkpt lat="46.64619" lon="6.28433">
        <ele>1062</ele>
        <time>2013-08-18T12:32:03.000Z</time>
      </trkpt>
      <trkpt lat="46.64617" lon="6.28429">
        <ele>1062</ele>
        <time>2013-08-18T12:32:04.000Z</time>
      </trkpt>
      <trkpt lat="46.64615" lon="6.28426">
        <ele>1062</ele>
        <time>2013-08-18T12:32:05.000Z</time>
      </trkpt>
      <trkpt lat="46.64613" lon="6.28423">
        <ele>1062</ele>
        <time>2013-08-18T12:32:06.000Z</time>
      </trkpt>
      <trkpt lat="46.64612" lon="6.28419">
        <ele>1062</ele>
        <time>2013-08-18T12:32:07.000Z</time>
      </trkpt>
      <trkpt lat="46.6461" lon="6.28416">
        <ele>1061</ele>
        <time>2013-08-18T12:32:08.000Z</time>
      </trkpt>
      <trkpt lat="46.64608" lon="6.28412">
        <ele>1061</ele>
        <time>2013-08-18T12:32:09.000Z</time>
      </trkpt>
      <trkpt lat="46.64606" lon="6.28408">
        <ele>1061</ele>
        <time>2013-08-18T12:32:10.000Z</time>
      </trkpt>
      <trkpt lat="46.64604" lon="6.28404">
        <ele>1061</ele>
        <time>2013-08-18T12:32:11.000Z</time>
      </trkpt>
      <trkpt lat="46.64602" lon="6.284">
        <ele>1061</ele>
        <time>2013-08-18T12:32:12.000Z</time>
      </trkpt>
      <trkpt lat="46.646" lon="6.28395">
        <ele>1061</ele>
        <time>2013-08-18T12:32:13.000Z</time>
      </trkpt>
      <trkpt lat="46.64598" lon="6.2839">
        <ele>1061</ele>
        <time>2013-08-18T12:32:14.000Z</time>
      </trkpt>
      <trkpt lat="46.64595" lon="6.28385">
        <ele>1061</ele>
        <time>2013-08-18T12:32:15.000Z</time>
      </trkpt>
      <trkpt lat="46.64591" lon="6.28381">
        <ele>1061</ele>
        <time>2013-08-18T12:32:16.000Z</time>
      </trkpt>
      <trkpt lat="46.64587" lon="6.28377">
        <ele>1061</ele>
        <time>2013-08-18T12:32:17.000Z</time>
      </trkpt>
      <trkpt lat="46.64583" lon="6.28373">
        <ele>1060</ele>
        <time>2013-08-18T12:32:18.000Z</time>
      </trkpt>
      <trkpt lat="46.64578" lon="6.2837">
        <ele>1060</ele>
        <time>2013-08-18T12:32:19.000Z</time>
      </trkpt>
      <trkpt lat="46.64574" lon="6.28367">
        <ele>1060</ele>
        <time>2013-08-18T12:32:20.000Z</time>
      </trkpt>
      <trkpt lat="46.64569" lon="6.28364">
        <ele>1060</ele>
        <time>2013-08-18T12:32:21.000Z</time>
      </trkpt>
      <trkpt lat="46.64565" lon="6.28361">
        <ele>1060</ele>
        <time>2013-08-18T12:32:22.000Z</time>
      </trkpt>
      <trkpt lat="46.64561" lon="6.28357">
        <ele>1060</ele>
        <time>2013-08-18T12:32:23.000Z</time>
      </trkpt>
      <trkpt lat="46.64557" lon="6.28353">
        <ele>1059</ele>
        <time>2013-08-18T12:32:24.000Z</time>
      </trkpt>
      <trkpt lat="46.64553" lon="6.28349">
        <ele>1059</ele>
        <time>2013-08-18T12:32:25.000Z</time>
      </trkpt>
      <trkpt lat="46.64549" lon="6.28344">
        <ele>1060</ele>
        <time>2013-08-18T12:32:26.000Z</time>
      </trkpt>
      <trkpt lat="46.64545" lon="6.28339">
        <ele>1060</ele>
        <time>2013-08-18T12:32:27.000Z</time>
      </trkpt>
      <trkpt lat="46.64541" lon="6.28334">
        <ele>1060</ele>
        <time>2013-08-18T12:32:28.000Z</time>
      </trkpt>
      <trkpt lat="46.64537" lon="6.28328">
        <ele>1063</ele>
        <time>2013-08-18T12:32:29.000Z</time>
      </trkpt>
      <trkpt lat="46.64532" lon="6.28321">
        <ele>1063</ele>
        <time>2013-08-18T12:32:30.000Z</time>
      </trkpt>
      <trkpt lat="46.64528" lon="6.28313">
        <ele>1064</ele>
        <time>2013-08-18T12:32:31.000Z</time>
      </trkpt>
      <trkpt lat="46.64524" lon="6.28305">
        <ele>1064</ele>
        <time>2013-08-18T12:32:32.000Z</time>
      </trkpt>
      <trkpt lat="46.64519" lon="6.28298">
        <ele>1064</ele>
        <time>2013-08-18T12:32:33.000Z</time>
      </trkpt>
      <trkpt lat="46.64515" lon="6.2829">
        <ele>1064</ele>
        <time>2013-08-18T12:32:34.000Z</time>
      </trkpt>
      <trkpt lat="46.6451" lon="6.28283">
        <ele>1065</ele>
        <time>2013-08-18T12:32:35.000Z</time>
      </trkpt>
      <trkpt lat="46.64506" lon="6.28275">
        <ele>1065</ele>
        <time>2013-08-18T12:32:36.000Z</time>
      </trkpt>
      <trkpt lat="46.64501" lon="6.28268">
        <ele>1066</ele>
        <time>2013-08-18T12:32:37.000Z</time>
      </trkpt>
      <trkpt lat="46.64497" lon="6.2826">
        <ele>1063</ele>
        <time>2013-08-18T12:32:38.000Z</time>
      </trkpt>
      <trkpt lat="46.64493" lon="6.28254">
        <ele>1064</ele>
        <time>2013-08-18T12:32:39.000Z</time>
      </trkpt>
      <trkpt lat="46.64489" lon="6.28248">
        <ele>1065</ele>
        <time>2013-08-18T12:32:40.000Z</time>
      </trkpt>
      <trkpt lat="46.64485" lon="6.28243">
        <ele>1064</ele>
        <time>2013-08-18T12:32:41.000Z</time>
      </trkpt>
      <trkpt lat="46.64482" lon="6.28239">
        <ele>1064</ele>
        <time>2013-08-18T12:32:42.000Z</time>
      </trkpt>
      <trkpt lat="46.64479" lon="6.28236">
        <ele>1063</ele>
        <time>2013-08-18T12:32:43.000Z</time>
      </trkpt>
      <trkpt lat="46.64477" lon="6.28233">
        <ele>1063</ele>
        <time>2013-08-18T12:32:44.000Z</time>
      </trkpt>
      <trkpt lat="46.64474" lon="6.28231">
        <ele>1063</ele>
        <time>2013-08-18T12:32:45.000Z</time>
      </trkpt>
      <trkpt lat="46.64471" lon="6.28229">
        <ele>1062</ele>
        <time>2013-08-18T12:32:46.000Z</time>
      </trkpt>
      <trkpt lat="46.64468" lon="6.28226">
        <ele>1062</ele>
        <time>2013-08-18T12:32:47.000Z</time>
      </trkpt>
      <trkpt lat="46.64465" lon="6.28224">
        <ele>1062</ele>
        <time>2013-08-18T12:32:48.000Z</time>
      </trkpt>
      <trkpt lat="46.64462" lon="6.28222">
        <ele>1061</ele>
        <time>2013-08-18T12:32:49.000Z</time>
      </trkpt>
      <trkpt lat="46.64459" lon="6.2822">
        <ele>1061</ele>
        <time>2013-08-18T12:32:50.000Z</time>
      </trkpt>
      <trkpt lat="46.64455" lon="6.28219">
        <ele>1061</ele>
        <time>2013-08-18T12:32:51.000Z</time>
      </trkpt>
      <trkpt lat="46.64452" lon="6.28218">
        <ele>1061</ele>
        <time>2013-08-18T12:32:52.000Z</time>
      </trkpt>
      <trkpt lat="46.64449" lon="6.28218">
        <ele>1061</ele>
        <time>2013-08-18T12:32:53.000Z</time>
      </trkpt>
      <trkpt lat="46.64446" lon="6.28217">
        <ele>1060</ele>
        <time>2013-08-18T12:32:54.000Z</time>
      </trkpt>
      <trkpt lat="46.64444" lon="6.28217">
        <ele>1060</ele>
        <time>2013-08-18T12:32:55.000Z</time>
      </trkpt>
      <trkpt lat="46.64442" lon="6.28216">
        <ele>1060</ele>
        <time>2013-08-18T12:32:56.000Z</time>
      </trkpt>
      <trkpt lat="46.64437" lon="6.28216">
        <ele>1060</ele>
        <time>2013-08-18T12:32:58.000Z</time>
      </trkpt>
      <trkpt lat="46.64436" lon="6.28216">
        <ele>1060</ele>
        <time>2013-08-18T12:32:59.000Z</time>
      </trkpt>
      <trkpt lat="46.64434" lon="6.28216">
        <ele>1060</ele>
        <time>2013-08-18T12:33:00.000Z</time>
      </trkpt>
      <trkpt lat="46.64434" lon="6.28217">
        <ele>1060</ele>
        <time>2013-08-18T12:33:01.000Z</time>
      </trkpt>
      <trkpt lat="46.64434" lon="6.28216">
        <ele>1060</ele>
        <time>2013-08-18T12:33:02.000Z</time>
      </trkpt>
      <trkpt lat="46.64433" lon="6.28216">
        <ele>1060</ele>
        <time>2013-08-18T12:33:03.000Z</time>
      </trkpt>
      <trkpt lat="46.64433" lon="6.28215">
        <ele>1060</ele>
        <time>2013-08-18T12:33:04.000Z</time>
      </trkpt>
      <trkpt lat="46.64432" lon="6.28214">
        <ele>1060</ele>
        <time>2013-08-18T12:33:05.000Z</time>
      </trkpt>
      <trkpt lat="46.64432" lon="6.28213">
        <ele>1060</ele>
        <time>2013-08-18T12:33:06.000Z</time>
      </trkpt>
      <trkpt lat="46.64432" lon="6.28213">
        <ele>1060</ele>
        <time>2013-08-18T12:33:08.000Z</time>
      </trkpt>
      <trkpt lat="46.64431" lon="6.28213">
        <ele>1060</ele>
        <time>2013-08-18T12:33:10.000Z</time>
      </trkpt>
      <trkpt lat="46.64431" lon="6.28213">
        <ele>1060</ele>
        <time>2013-08-18T12:33:11.000Z</time>
      </trkpt>
      <trkpt lat="46.64431" lon="6.28212">
        <ele>1060</ele>
        <time>2013-08-18T12:33:21.000Z</time>
      </trkpt>
      <trkpt lat="46.64431" lon="6.28212">
        <ele>1060</ele>
        <time>2013-08-18T12:33:29.000Z</time>
      </trkpt>
      <trkpt lat="46.64431" lon="6.2821">
        <ele>1060</ele>
        <time>2013-08-18T12:33:52.000Z</time>
      </trkpt>
      <trkpt lat="46.64431" lon="6.28209">
        <ele>1060</ele>
        <time>2013-08-18T12:34:05.000Z</time>
      </trkpt>
      <trkpt lat="46.64431" lon="6.28209">
        <ele>1060</ele>
        <time>2013-08-18T12:34:13.000Z</time>
      </trkpt>
      <trkpt lat="46.64431" lon="6.28208">
        <ele>1060</ele>
        <time>2013-08-18T12:34:22.000Z</time>
      </trkpt>
      <trkpt lat="46.64431" lon="6.28208">
        <ele>1060</ele>
        <time>2013-08-18T12:34:26.000Z</time>
      </trkpt>
      <trkpt lat="46.6443" lon="6.28208">
        <ele>1060</ele>
        <time>2013-08-18T12:34:36.000Z</time>
      </trkpt>
      <trkpt lat="46.64429" lon="6.28208">
        <ele>1060</ele>
        <time>2013-08-18T12:34:41.000Z</time>
      </trkpt>
      <trkpt lat="46.64429" lon="6.28208">
        <ele>1060</ele>
        <time>2013-08-18T12:34:47.000Z</time>
      </trkpt>
      <trkpt lat="46.64429" lon="6.28209">
        <ele>1060</ele>
        <time>2013-08-18T12:34:49.000Z</time>
      </trkpt>
      <trkpt lat="46.64429" lon="6.28209">
        <ele>1060</ele>
        <time>2013-08-18T12:34:53.000Z</time>
      </trkpt>
      <trkpt lat="46.64428" lon="6.28209">
        <ele>1060</ele>
        <time>2013-08-18T12:34:56.000Z</time>
      </trkpt>
      <trkpt lat="46.64428" lon="6.28209">
        <ele>1060</ele>
        <time>2013-08-18T12:35:00.000Z</time>
      </trkpt>
      <trkpt lat="46.64429" lon="6.28209">
        <ele>1060</ele>
        <time>2013-08-18T12:35:04.000Z</time>
      </trkpt>
      <trkpt lat="46.64429" lon="6.2821">
        <ele>1060</ele>
        <time>2013-08-18T12:35:06.000Z</time>
      </trkpt>
      <trkpt lat="46.64429" lon="6.2821">
        <ele>1060</ele>
        <time>2013-08-18T12:35:08.000Z</time>
      </trkpt>
      <trkpt lat="46.64429" lon="6.2821">
        <ele>1060</ele>
        <time>2013-08-18T12:35:11.000Z</time>
      </trkpt>
      <trkpt lat="46.6443" lon="6.2821">
        <ele>1060</ele>
        <time>2013-08-18T12:35:14.000Z</time>
      </trkpt>
      <trkpt lat="46.6443" lon="6.2821">
        <ele>1060</ele>
        <time>2013-08-18T12:35:17.000Z</time>
      </trkpt>
      <trkpt lat="46.6443" lon="6.2821">
        <ele>1060</ele>
        <time>2013-08-18T12:35:20.000Z</time>
      </trkpt>
      <trkpt lat="46.6443" lon="6.28211">
        <ele>1060</ele>
        <time>2013-08-18T12:35:23.000Z</time>
      </trkpt>
      <trkpt lat="46.64431" lon="6.28211">
        <ele>1060</ele>
        <time>2013-08-18T12:35:31.000Z</time>
      </trkpt>
      <trkpt lat="46.64431" lon="6.28211">
        <ele>1060</ele>
        <time>2013-08-18T12:35:33.000Z</time>
      </trkpt>
      <trkpt lat="46.64431" lon="6.28211">
        <ele>1060</ele>
        <time>2013-08-18T12:35:35.000Z</time>
      </trkpt>
      <trkpt lat="46.64432" lon="6.28213">
        <ele>1060</ele>
        <time>2013-08-18T12:35:38.000Z</time>
      </trkpt>
      <trkpt lat="46.64433" lon="6.28213">
        <ele>1060</ele>
        <time>2013-08-18T12:35:39.000Z</time>
      </trkpt>
      <trkpt lat="46.64434" lon="6.28213">
        <ele>1060</ele>
        <time>2013-08-18T12:35:40.000Z</time>
      </trkpt>
      <trkpt lat="46.64435" lon="6.28213">
        <ele>1060</ele>
        <time>2013-08-18T12:35:42.000Z</time>
      </trkpt>
      <trkpt lat="46.64435" lon="6.28212">
        <ele>1060</ele>
        <time>2013-08-18T12:35:43.000Z</time>
      </trkpt>
      <trkpt lat="46.64437" lon="6.28212">
        <ele>1060</ele>
        <time>2013-08-18T12:35:48.000Z</time>
      </trkpt>
      <trkpt lat="46.64445" lon="6.28213">
        <ele>1061</ele>
        <time>2013-08-18T12:35:51.000Z</time>
      </trkpt>
      <trkpt lat="46.64452" lon="6.28213">
        <ele>1061</ele>
        <time>2013-08-18T12:35:53.000Z</time>
      </trkpt>
      <trkpt lat="46.64455" lon="6.28214">
        <ele>1061</ele>
        <time>2013-08-18T12:35:54.000Z</time>
      </trkpt>
      <trkpt lat="46.64459" lon="6.28214">
        <ele>1061</ele>
        <time>2013-08-18T12:35:55.000Z</time>
      </trkpt>
      <trkpt lat="46.64466" lon="6.28214">
        <ele>1062</ele>
        <time>2013-08-18T12:35:57.000Z</time>
      </trkpt>
      <trkpt lat="46.64469" lon="6.28214">
        <ele>1062</ele>
        <time>2013-08-18T12:35:58.000Z</time>
      </trkpt>
      <trkpt lat="46.64472" lon="6.28215">
        <ele>1062</ele>
        <time>2013-08-18T12:35:59.000Z</time>
      </trkpt>
      <trkpt lat="46.64474" lon="6.28215">
        <ele>1062</ele>
        <time>2013-08-18T12:36:00.000Z</time>
      </trkpt>
      <trkpt lat="46.64477" lon="6.28215">
        <ele>1063</ele>
        <time>2013-08-18T12:36:01.000Z</time>
      </trkpt>
      <trkpt lat="46.64479" lon="6.28214">
        <ele>1063</ele>
        <time>2013-08-18T12:36:02.000Z</time>
      </trkpt>
      <trkpt lat="46.64482" lon="6.28213">
        <ele>1063</ele>
        <time>2013-08-18T12:36:03.000Z</time>
      </trkpt>
      <trkpt lat="46.64484" lon="6.28211">
        <ele>1063</ele>
        <time>2013-08-18T12:36:04.000Z</time>
      </trkpt>
      <trkpt lat="46.64487" lon="6.28209">
        <ele>1063</ele>
        <time>2013-08-18T12:36:05.000Z</time>
      </trkpt>
      <trkpt lat="46.64491" lon="6.28207">
        <ele>1063</ele>
        <time>2013-08-18T12:36:06.000Z</time>
      </trkpt>
      <trkpt lat="46.64494" lon="6.28203">
        <ele>1063</ele>
        <time>2013-08-18T12:36:07.000Z</time>
      </trkpt>
      <trkpt lat="46.64496" lon="6.28199">
        <ele>1063</ele>
        <time>2013-08-18T12:36:08.000Z</time>
      </trkpt>
      <trkpt lat="46.645" lon="6.28196">
        <ele>1063</ele>
        <time>2013-08-18T12:36:09.000Z</time>
      </trkpt>
      <trkpt lat="46.64503" lon="6.28192">
        <ele>1063</ele>
        <time>2013-08-18T12:36:10.000Z</time>
      </trkpt>
      <trkpt lat="46.64506" lon="6.28189">
        <ele>1063</ele>
        <time>2013-08-18T12:36:11.000Z</time>
      </trkpt>
      <trkpt lat="46.64509" lon="6.28185">
        <ele>1063</ele>
        <time>2013-08-18T12:36:12.000Z</time>
      </trkpt>
      <trkpt lat="46.64512" lon="6.28183">
        <ele>1063</ele>
        <time>2013-08-18T12:36:13.000Z</time>
      </trkpt>
      <trkpt lat="46.64516" lon="6.28181">
        <ele>1063</ele>
        <time>2013-08-18T12:36:14.000Z</time>
      </trkpt>
      <trkpt lat="46.6452" lon="6.28183">
        <ele>1062</ele>
        <time>2013-08-18T12:36:15.000Z</time>
      </trkpt>
      <trkpt lat="46.64524" lon="6.28186">
        <ele>1062</ele>
        <time>2013-08-18T12:36:16.000Z</time>
      </trkpt>
      <trkpt lat="46.64527" lon="6.28189">
        <ele>1062</ele>
        <time>2013-08-18T12:36:17.000Z</time>
      </trkpt>
      <trkpt lat="46.6453" lon="6.28192">
        <ele>1062</ele>
        <time>2013-08-18T12:36:18.000Z</time>
      </trkpt>
      <trkpt lat="46.64533" lon="6.28196">
        <ele>1062</ele>
        <time>2013-08-18T12:36:19.000Z</time>
      </trkpt>
      <trkpt lat="46.64536" lon="6.282">
        <ele>1062</ele>
        <time>2013-08-18T12:36:20.000Z</time>
      </trkpt>
      <trkpt lat="46.64539" lon="6.28203">
        <ele>1062</ele>
        <time>2013-08-18T12:36:21.000Z</time>
      </trkpt>
      <trkpt lat="46.64541" lon="6.28206">
        <ele>1062</ele>
        <time>2013-08-18T12:36:22.000Z</time>
      </trkpt>
      <trkpt lat="46.64544" lon="6.28209">
        <ele>1062</ele>
        <time>2013-08-18T12:36:23.000Z</time>
      </trkpt>
      <trkpt lat="46.64546" lon="6.28212">
        <ele>1062</ele>
        <time>2013-08-18T12:36:24.000Z</time>
      </trkpt>
      <trkpt lat="46.64548" lon="6.28214">
        <ele>1062</ele>
        <time>2013-08-18T12:36:25.000Z</time>
      </trkpt>
      <trkpt lat="46.64551" lon="6.28217">
        <ele>1062</ele>
        <time>2013-08-18T12:36:26.000Z</time>
      </trkpt>
      <trkpt lat="46.64553" lon="6.2822">
        <ele>1062</ele>
        <time>2013-08-18T12:36:27.000Z</time>
      </trkpt>
      <trkpt lat="46.64555" lon="6.28223">
        <ele>1061</ele>
        <time>2013-08-18T12:36:28.000Z</time>
      </trkpt>
      <trkpt lat="46.64557" lon="6.28226">
        <ele>1061</ele>
        <time>2013-08-18T12:36:29.000Z</time>
      </trkpt>
      <trkpt lat="46.64559" lon="6.2823">
        <ele>1061</ele>
        <time>2013-08-18T12:36:30.000Z</time>
      </trkpt>
      <trkpt lat="46.64561" lon="6.28233">
        <ele>1061</ele>
        <time>2013-08-18T12:36:31.000Z</time>
      </trkpt>
      <trkpt lat="46.64564" lon="6.28236">
        <ele>1061</ele>
        <time>2013-08-18T12:36:32.000Z</time>
      </trkpt>
      <trkpt lat="46.64566" lon="6.28239">
        <ele>1061</ele>
        <time>2013-08-18T12:36:33.000Z</time>
      </trkpt>
      <trkpt lat="46.64568" lon="6.28241">
        <ele>1061</ele>
        <time>2013-08-18T12:36:34.000Z</time>
      </trkpt>
      <trkpt lat="46.6457" lon="6.28244">
        <ele>1061</ele>
        <time>2013-08-18T12:36:35.000Z</time>
      </trkpt>
      <trkpt lat="46.64572" lon="6.28246">
        <ele>1061</ele>
        <time>2013-08-18T12:36:36.000Z</time>
      </trkpt>
      <trkpt lat="46.64575" lon="6.28248">
        <ele>1061</ele>
        <time>2013-08-18T12:36:37.000Z</time>
      </trkpt>
      <trkpt lat="46.64577" lon="6.2825">
        <ele>1060</ele>
        <time>2013-08-18T12:36:38.000Z</time>
      </trkpt>
      <trkpt lat="46.64581" lon="6.28252">
        <ele>1061</ele>
        <time>2013-08-18T12:36:39.000Z</time>
      </trkpt>
      <trkpt lat="46.64584" lon="6.28254">
        <ele>1059</ele>
        <time>2013-08-18T12:36:40.000Z</time>
      </trkpt>
      <trkpt lat="46.64588" lon="6.28257">
        <ele>1059</ele>
        <time>2013-08-18T12:36:41.000Z</time>
      </trkpt>
      <trkpt lat="46.64593" lon="6.2826">
        <ele>1058</ele>
        <time>2013-08-18T12:36:42.000Z</time>
      </trkpt>
      <trkpt lat="46.64597" lon="6.28262">
        <ele>1057</ele>
        <time>2013-08-18T12:36:43.000Z</time>
      </trkpt>
      <trkpt lat="46.64602" lon="6.28265">
        <ele>1057</ele>
        <time>2013-08-18T12:36:44.000Z</time>
      </trkpt>
      <trkpt lat="46.64608" lon="6.28269">
        <ele>1056</ele>
        <time>2013-08-18T12:36:45.000Z</time>
      </trkpt>
      <trkpt lat="46.64613" lon="6.28273">
        <ele>1056</ele>
        <time>2013-08-18T12:36:46.000Z</time>
      </trkpt>
      <trkpt lat="46.64618" lon="6.28278">
        <ele>1055</ele>
        <time>2013-08-18T12:36:47.000Z</time>
      </trkpt>
      <trkpt lat="46.64623" lon="6.28284">
        <ele>1055</ele>
        <time>2013-08-18T12:36:48.000Z</time>
      </trkpt>
      <trkpt lat="46.64628" lon="6.28291">
        <ele>1055</ele>
        <time>2013-08-18T12:36:49.000Z</time>
      </trkpt>
      <trkpt lat="46.64633" lon="6.28297">
        <ele>1055</ele>
        <time>2013-08-18T12:36:50.000Z</time>
      </trkpt>
      <trkpt lat="46.64638" lon="6.28303">
        <ele>1055</ele>
        <time>2013-08-18T12:36:51.000Z</time>
      </trkpt>
      <trkpt lat="46.64642" lon="6.2831">
        <ele>1054</ele>
        <time>2013-08-18T12:36:52.000Z</time>
      </trkpt>
      <trkpt lat="46.64646" lon="6.28316">
        <ele>1054</ele>
        <time>2013-08-18T12:36:53.000Z</time>
      </trkpt>
      <trkpt lat="46.64651" lon="6.28322">
        <ele>1054</ele>
        <time>2013-08-18T12:36:54.000Z</time>
      </trkpt>
      <trkpt lat="46.64655" lon="6.28327">
        <ele>1053</ele>
        <time>2013-08-18T12:36:55.000Z</time>
      </trkpt>
      <trkpt lat="46.64659" lon="6.28333">
        <ele>1053</ele>
        <time>2013-08-18T12:36:56.000Z</time>
      </trkpt>
      <trkpt lat="46.64663" lon="6.28338">
        <ele>1054</ele>
        <time>2013-08-18T12:36:57.000Z</time>
      </trkpt>
      <trkpt lat="46.64668" lon="6.28343">
        <ele>1052</ele>
        <time>2013-08-18T12:36:58.000Z</time>
      </trkpt>
      <trkpt lat="46.64672" lon="6.28349">
        <ele>1052</ele>
        <time>2013-08-18T12:36:59.000Z</time>
      </trkpt>
      <trkpt lat="46.64676" lon="6.28355">
        <ele>1051</ele>
        <time>2013-08-18T12:37:00.000Z</time>
      </trkpt>
      <trkpt lat="46.64681" lon="6.28362">
        <ele>1052</ele>
        <time>2013-08-18T12:37:01.000Z</time>
      </trkpt>
      <trkpt lat="46.64685" lon="6.28369">
        <ele>1052</ele>
        <time>2013-08-18T12:37:02.000Z</time>
      </trkpt>
      <trkpt lat="46.64688" lon="6.28376">
        <ele>1052</ele>
        <time>2013-08-18T12:37:03.000Z</time>
      </trkpt>
      <trkpt lat="46.64692" lon="6.28383">
        <ele>1052</ele>
        <time>2013-08-18T12:37:04.000Z</time>
      </trkpt>
      <trkpt lat="46.64695" lon="6.28389">
        <ele>1052</ele>
        <time>2013-08-18T12:37:05.000Z</time>
      </trkpt>
      <trkpt lat="46.64699" lon="6.28396">
        <ele>1052</ele>
        <time>2013-08-18T12:37:06.000Z</time>
      </trkpt>
      <trkpt lat="46.64702" lon="6.28402">
        <ele>1052</ele>
        <time>2013-08-18T12:37:07.000Z</time>
      </trkpt>
      <trkpt lat="46.64705" lon="6.28408">
        <ele>1052</ele>
        <time>2013-08-18T12:37:08.000Z</time>
      </trkpt>
      <trkpt lat="46.64708" lon="6.28413">
        <ele>1052</ele>
        <time>2013-08-18T12:37:09.000Z</time>
      </trkpt>
      <trkpt lat="46.64712" lon="6.28416">
        <ele>1051</ele>
        <time>2013-08-18T12:37:10.000Z</time>
      </trkpt>
      <trkpt lat="46.64715" lon="6.28418">
        <ele>1055</ele>
        <time>2013-08-18T12:37:11.000Z</time>
      </trkpt>
      <trkpt lat="46.64718" lon="6.28417">
        <ele>1055</ele>
        <time>2013-08-18T12:37:12.000Z</time>
      </trkpt>
      <trkpt lat="46.64721" lon="6.28415">
        <ele>1050</ele>
        <time>2013-08-18T12:37:13.000Z</time>
      </trkpt>
      <trkpt lat="46.64724" lon="6.28413">
        <ele>1050</ele>
        <time>2013-08-18T12:37:14.000Z</time>
      </trkpt>
      <trkpt lat="46.64728" lon="6.28409">
        <ele>1050</ele>
        <time>2013-08-18T12:37:15.000Z</time>
      </trkpt>
      <trkpt lat="46.64732" lon="6.28404">
        <ele>1049</ele>
        <time>2013-08-18T12:37:16.000Z</time>
      </trkpt>
      <trkpt lat="46.64735" lon="6.28398">
        <ele>1049</ele>
        <time>2013-08-18T12:37:17.000Z</time>
      </trkpt>
      <trkpt lat="46.64738" lon="6.28392">
        <ele>1049</ele>
        <time>2013-08-18T12:37:18.000Z</time>
      </trkpt>
      <trkpt lat="46.6474" lon="6.28386">
        <ele>1049</ele>
        <time>2013-08-18T12:37:19.000Z</time>
      </trkpt>
      <trkpt lat="46.64743" lon="6.28379">
        <ele>1049</ele>
        <time>2013-08-18T12:37:20.000Z</time>
      </trkpt>
      <trkpt lat="46.64745" lon="6.28373">
        <ele>1048</ele>
        <time>2013-08-18T12:37:21.000Z</time>
      </trkpt>
      <trkpt lat="46.64744" lon="6.28358">
        <ele>1048</ele>
        <time>2013-08-18T12:37:23.000Z</time>
      </trkpt>
      <trkpt lat="46.64741" lon="6.28351">
        <ele>1047</ele>
        <time>2013-08-18T12:37:24.000Z</time>
      </trkpt>
      <trkpt lat="46.64738" lon="6.28345">
        <ele>1047</ele>
        <time>2013-08-18T12:37:25.000Z</time>
      </trkpt>
      <trkpt lat="46.64734" lon="6.28339">
        <ele>1047</ele>
        <time>2013-08-18T12:37:26.000Z</time>
      </trkpt>
      <trkpt lat="46.64731" lon="6.28332">
        <ele>1045</ele>
        <time>2013-08-18T12:37:27.000Z</time>
      </trkpt>
      <trkpt lat="46.64728" lon="6.28326">
        <ele>1045</ele>
        <time>2013-08-18T12:37:28.000Z</time>
      </trkpt>
      <trkpt lat="46.64725" lon="6.2832">
        <ele>1045</ele>
        <time>2013-08-18T12:37:29.000Z</time>
      </trkpt>
      <trkpt lat="46.64723" lon="6.28313">
        <ele>1046</ele>
        <time>2013-08-18T12:37:30.000Z</time>
      </trkpt>
      <trkpt lat="46.6472" lon="6.28306">
        <ele>1046</ele>
        <time>2013-08-18T12:37:31.000Z</time>
      </trkpt>
      <trkpt lat="46.64717" lon="6.28299">
        <ele>1046</ele>
        <time>2013-08-18T12:37:32.000Z</time>
      </trkpt>
      <trkpt lat="46.64714" lon="6.28293">
        <ele>1046</ele>
        <time>2013-08-18T12:37:33.000Z</time>
      </trkpt>
      <trkpt lat="46.64711" lon="6.28286">
        <ele>1046</ele>
        <time>2013-08-18T12:37:34.000Z</time>
      </trkpt>
      <trkpt lat="46.64708" lon="6.28278">
        <ele>1046</ele>
        <time>2013-08-18T12:37:35.000Z</time>
      </trkpt>
      <trkpt lat="46.64705" lon="6.28271">
        <ele>1046</ele>
        <time>2013-08-18T12:37:36.000Z</time>
      </trkpt>
      <trkpt lat="46.64703" lon="6.28264">
        <ele>1046</ele>
        <time>2013-08-18T12:37:37.000Z</time>
      </trkpt>
      <trkpt lat="46.647" lon="6.28257">
        <ele>1046</ele>
        <time>2013-08-18T12:37:38.000Z</time>
      </trkpt>
      <trkpt lat="46.64697" lon="6.28251">
        <ele>1046</ele>
        <time>2013-08-18T12:37:39.000Z</time>
      </trkpt>
      <trkpt lat="46.64694" lon="6.28245">
        <ele>1044</ele>
        <time>2013-08-18T12:37:40.000Z</time>
      </trkpt>
      <trkpt lat="46.64692" lon="6.28238">
        <ele>1044</ele>
        <time>2013-08-18T12:37:41.000Z</time>
      </trkpt>
      <trkpt lat="46.64689" lon="6.28231">
        <ele>1044</ele>
        <time>2013-08-18T12:37:42.000Z</time>
      </trkpt>
      <trkpt lat="46.64687" lon="6.28224">
        <ele>1044</ele>
        <time>2013-08-18T12:37:43.000Z</time>
      </trkpt>
      <trkpt lat="46.64684" lon="6.28216">
        <ele>1044</ele>
        <time>2013-08-18T12:37:44.000Z</time>
      </trkpt>
      <trkpt lat="46.64682" lon="6.28208">
        <ele>1044</ele>
        <time>2013-08-18T12:37:45.000Z</time>
      </trkpt>
      <trkpt lat="46.6468" lon="6.28199">
        <ele>1043</ele>
        <time>2013-08-18T12:37:46.000Z</time>
      </trkpt>
      <trkpt lat="46.64677" lon="6.28191">
        <ele>1043</ele>
        <time>2013-08-18T12:37:47.000Z</time>
      </trkpt>
      <trkpt lat="46.64675" lon="6.28182">
        <ele>1043</ele>
        <time>2013-08-18T12:37:48.000Z</time>
      </trkpt>
      <trkpt lat="46.64672" lon="6.28174">
        <ele>1043</ele>
        <time>2013-08-18T12:37:49.000Z</time>
      </trkpt>
      <trkpt lat="46.6467" lon="6.28166">
        <ele>1043</ele>
        <time>2013-08-18T12:37:50.000Z</time>
      </trkpt>
      <trkpt lat="46.64668" lon="6.28159">
        <ele>1042</ele>
        <time>2013-08-18T12:37:51.000Z</time>
      </trkpt>
      <trkpt lat="46.64666" lon="6.28152">
        <ele>1045</ele>
        <time>2013-08-18T12:37:52.000Z</time>
      </trkpt>
      <trkpt lat="46.64665" lon="6.28145">
        <ele>1045</ele>
        <time>2013-08-18T12:37:53.000Z</time>
      </trkpt>
      <trkpt lat="46.64664" lon="6.28139">
        <ele>1045</ele>
        <time>2013-08-18T12:37:54.000Z</time>
      </trkpt>
      <trkpt lat="46.64663" lon="6.28132">
        <ele>1045</ele>
        <time>2013-08-18T12:37:55.000Z</time>
      </trkpt>
      <trkpt lat="46.64664" lon="6.28119">
        <ele>1045</ele>
        <time>2013-08-18T12:37:57.000Z</time>
      </trkpt>
      <trkpt lat="46.64665" lon="6.28112">
        <ele>1044</ele>
        <time>2013-08-18T12:37:58.000Z</time>
      </trkpt>
      <trkpt lat="46.64667" lon="6.28106">
        <ele>1041</ele>
        <time>2013-08-18T12:37:59.000Z</time>
      </trkpt>
      <trkpt lat="46.6467" lon="6.28101">
        <ele>1041</ele>
        <time>2013-08-18T12:38:00.000Z</time>
      </trkpt>
      <trkpt lat="46.64673" lon="6.28097">
        <ele>1041</ele>
        <time>2013-08-18T12:38:01.000Z</time>
      </trkpt>
      <trkpt lat="46.64676" lon="6.28093">
        <ele>1041</ele>
        <time>2013-08-18T12:38:02.000Z</time>
      </trkpt>
      <trkpt lat="46.6468" lon="6.2809">
        <ele>1041</ele>
        <time>2013-08-18T12:38:03.000Z</time>
      </trkpt>
      <trkpt lat="46.64683" lon="6.28089">
        <ele>1041</ele>
        <time>2013-08-18T12:38:04.000Z</time>
      </trkpt>
      <trkpt lat="46.64687" lon="6.28089">
        <ele>1041</ele>
        <time>2013-08-18T12:38:05.000Z</time>
      </trkpt>
      <trkpt lat="46.6469" lon="6.28089">
        <ele>1041</ele>
        <time>2013-08-18T12:38:06.000Z</time>
      </trkpt>
      <trkpt lat="46.64692" lon="6.28091">
        <ele>1041</ele>
        <time>2013-08-18T12:38:07.000Z</time>
      </trkpt>
      <trkpt lat="46.64694" lon="6.28092">
        <ele>1041</ele>
        <time>2013-08-18T12:38:08.000Z</time>
      </trkpt>
      <trkpt lat="46.64697" lon="6.28094">
        <ele>1041</ele>
        <time>2013-08-18T12:38:09.000Z</time>
      </trkpt>
      <trkpt lat="46.64701" lon="6.28095">
        <ele>1041</ele>
        <time>2013-08-18T12:38:10.000Z</time>
      </trkpt>
      <trkpt lat="46.64704" lon="6.28095">
        <ele>1040</ele>
        <time>2013-08-18T12:38:11.000Z</time>
      </trkpt>
      <trkpt lat="46.6471" lon="6.28095">
        <ele>1040</ele>
        <time>2013-08-18T12:38:13.000Z</time>
      </trkpt>
      <trkpt lat="46.64712" lon="6.28093">
        <ele>1040</ele>
        <time>2013-08-18T12:38:14.000Z</time>
      </trkpt>
      <trkpt lat="46.64713" lon="6.28091">
        <ele>1040</ele>
        <time>2013-08-18T12:38:15.000Z</time>
      </trkpt>
      <trkpt lat="46.64713" lon="6.2809">
        <ele>1040</ele>
        <time>2013-08-18T12:38:16.000Z</time>
      </trkpt>
      <trkpt lat="46.64714" lon="6.2809">
        <ele>1040</ele>
        <time>2013-08-18T12:38:17.000Z</time>
      </trkpt>
      <trkpt lat="46.64714" lon="6.28089">
        <ele>1040</ele>
        <time>2013-08-18T12:38:18.000Z</time>
      </trkpt>
      <trkpt lat="46.64714" lon="6.28089">
        <ele>1040</ele>
        <time>2013-08-18T12:38:23.000Z</time>
      </trkpt>
      <trkpt lat="46.64715" lon="6.2809">
        <ele>1040</ele>
        <time>2013-08-18T12:38:27.000Z</time>
      </trkpt>
      <trkpt lat="46.64717" lon="6.28089">
        <ele>1040</ele>
        <time>2013-08-18T12:38:29.000Z</time>
      </trkpt>
      <trkpt lat="46.64719" lon="6.28088">
        <ele>1040</ele>
        <time>2013-08-18T12:38:30.000Z</time>
      </trkpt>
      <trkpt lat="46.6472" lon="6.28087">
        <ele>1040</ele>
        <time>2013-08-18T12:38:31.000Z</time>
      </trkpt>
      <trkpt lat="46.64722" lon="6.28086">
        <ele>1040</ele>
        <time>2013-08-18T12:38:32.000Z</time>
      </trkpt>
      <trkpt lat="46.64723" lon="6.28084">
        <ele>1040</ele>
        <time>2013-08-18T12:38:33.000Z</time>
      </trkpt>
      <trkpt lat="46.64724" lon="6.28081">
        <ele>1039</ele>
        <time>2013-08-18T12:38:34.000Z</time>
      </trkpt>
      <trkpt lat="46.64724" lon="6.28078">
        <ele>1039</ele>
        <time>2013-08-18T12:38:35.000Z</time>
      </trkpt>
      <trkpt lat="46.64723" lon="6.28075">
        <ele>1039</ele>
        <time>2013-08-18T12:38:36.000Z</time>
      </trkpt>
      <trkpt lat="46.64722" lon="6.28071">
        <ele>1039</ele>
        <time>2013-08-18T12:38:37.000Z</time>
      </trkpt>
      <trkpt lat="46.64722" lon="6.28068">
        <ele>1039</ele>
        <time>2013-08-18T12:38:38.000Z</time>
      </trkpt>
      <trkpt lat="46.64721" lon="6.28065">
        <ele>1039</ele>
        <time>2013-08-18T12:38:39.000Z</time>
      </trkpt>
      <trkpt lat="46.64721" lon="6.28062">
        <ele>1039</ele>
        <time>2013-08-18T12:38:40.000Z</time>
      </trkpt>
      <trkpt lat="46.6472" lon="6.28058">
        <ele>1039</ele>
        <time>2013-08-18T12:38:41.000Z</time>
      </trkpt>
      <trkpt lat="46.64719" lon="6.28055">
        <ele>1038</ele>
        <time>2013-08-18T12:38:42.000Z</time>
      </trkpt>
      <trkpt lat="46.64719" lon="6.28051">
        <ele>1038</ele>
        <time>2013-08-18T12:38:43.000Z</time>
      </trkpt>
      <trkpt lat="46.64717" lon="6.28046">
        <ele>1038</ele>
        <time>2013-08-18T12:38:44.000Z</time>
      </trkpt>
      <trkpt lat="46.64716" lon="6.28042">
        <ele>1038</ele>
        <time>2013-08-18T12:38:45.000Z</time>
      </trkpt>
      <trkpt lat="46.64715" lon="6.28037">
        <ele>1038</ele>
        <time>2013-08-18T12:38:46.000Z</time>
      </trkpt>
      <trkpt lat="46.64714" lon="6.28033">
        <ele>1038</ele>
        <time>2013-08-18T12:38:47.000Z</time>
      </trkpt>
      <trkpt lat="46.64713" lon="6.28029">
        <ele>1038</ele>
        <time>2013-08-18T12:38:48.000Z</time>
      </trkpt>
      <trkpt lat="46.64712" lon="6.28025">
        <ele>1038</ele>
        <time>2013-08-18T12:38:49.000Z</time>
      </trkpt>
      <trkpt lat="46.64711" lon="6.28021">
        <ele>1038</ele>
        <time>2013-08-18T12:38:50.000Z</time>
      </trkpt>
      <trkpt lat="46.6471" lon="6.28016">
        <ele>1038</ele>
        <time>2013-08-18T12:38:51.000Z</time>
      </trkpt>
      <trkpt lat="46.64709" lon="6.28012">
        <ele>1038</ele>
        <time>2013-08-18T12:38:52.000Z</time>
      </trkpt>
      <trkpt lat="46.64708" lon="6.28008">
        <ele>1038</ele>
        <time>2013-08-18T12:38:53.000Z</time>
      </trkpt>
      <trkpt lat="46.64708" lon="6.28004">
        <ele>1038</ele>
        <time>2013-08-18T12:38:54.000Z</time>
      </trkpt>
      <trkpt lat="46.64707" lon="6.28001">
        <ele>1038</ele>
        <time>2013-08-18T12:38:55.000Z</time>
      </trkpt>
      <trkpt lat="46.64707" lon="6.27997">
        <ele>1038</ele>
        <time>2013-08-18T12:38:56.000Z</time>
      </trkpt>
      <trkpt lat="46.64706" lon="6.27992">
        <ele>1038</ele>
        <time>2013-08-18T12:38:57.000Z</time>
      </trkpt>
      <trkpt lat="46.64707" lon="6.27983">
        <ele>1038</ele>
        <time>2013-08-18T12:38:59.000Z</time>
      </trkpt>
      <trkpt lat="46.64707" lon="6.27979">
        <ele>1038</ele>
        <time>2013-08-18T12:39:00.000Z</time>
      </trkpt>
      <trkpt lat="46.64709" lon="6.27975">
        <ele>1038</ele>
        <time>2013-08-18T12:39:01.000Z</time>
      </trkpt>
      <trkpt lat="46.6471" lon="6.27972">
        <ele>1038</ele>
        <time>2013-08-18T12:39:02.000Z</time>
      </trkpt>
      <trkpt lat="46.64712" lon="6.27968">
        <ele>1038</ele>
        <time>2013-08-18T12:39:03.000Z</time>
      </trkpt>
      <trkpt lat="46.64714" lon="6.27965">
        <ele>1038</ele>
        <time>2013-08-18T12:39:04.000Z</time>
      </trkpt>
      <trkpt lat="46.64717" lon="6.27962">
        <ele>1038</ele>
        <time>2013-08-18T12:39:05.000Z</time>
      </trkpt>
      <trkpt lat="46.64719" lon="6.27959">
        <ele>1038</ele>
        <time>2013-08-18T12:39:06.000Z</time>
      </trkpt>
      <trkpt lat="46.64721" lon="6.27956">
        <ele>1038</ele>
        <time>2013-08-18T12:39:07.000Z</time>
      </trkpt>
      <trkpt lat="46.64723" lon="6.27954">
        <ele>1038</ele>
        <time>2013-08-18T12:39:08.000Z</time>
      </trkpt>
      <trkpt lat="46.64725" lon="6.27952">
        <ele>1038</ele>
        <time>2013-08-18T12:39:09.000Z</time>
      </trkpt>
      <trkpt lat="46.64728" lon="6.2795">
        <ele>1038</ele>
        <time>2013-08-18T12:39:10.000Z</time>
      </trkpt>
      <trkpt lat="46.64731" lon="6.27948">
        <ele>1038</ele>
        <time>2013-08-18T12:39:11.000Z</time>
      </trkpt>
      <trkpt lat="46.64733" lon="6.27946">
        <ele>1038</ele>
        <time>2013-08-18T12:39:12.000Z</time>
      </trkpt>
      <trkpt lat="46.64735" lon="6.27944">
        <ele>1038</ele>
        <time>2013-08-18T12:39:13.000Z</time>
      </trkpt>
      <trkpt lat="46.64738" lon="6.27941">
        <ele>1038</ele>
        <time>2013-08-18T12:39:14.000Z</time>
      </trkpt>
      <trkpt lat="46.6474" lon="6.27939">
        <ele>1038</ele>
        <time>2013-08-18T12:39:15.000Z</time>
      </trkpt>
      <trkpt lat="46.64743" lon="6.27937">
        <ele>1038</ele>
        <time>2013-08-18T12:39:16.000Z</time>
      </trkpt>
      <trkpt lat="46.64745" lon="6.27934">
        <ele>1038</ele>
        <time>2013-08-18T12:39:17.000Z</time>
      </trkpt>
      <trkpt lat="46.64747" lon="6.27932">
        <ele>1038</ele>
        <time>2013-08-18T12:39:18.000Z</time>
      </trkpt>
      <trkpt lat="46.64749" lon="6.2793">
        <ele>1038</ele>
        <time>2013-08-18T12:39:19.000Z</time>
      </trkpt>
      <trkpt lat="46.64751" lon="6.27929">
        <ele>1040</ele>
        <time>2013-08-18T12:39:20.000Z</time>
      </trkpt>
      <trkpt lat="46.64753" lon="6.27927">
        <ele>1040</ele>
        <time>2013-08-18T12:39:21.000Z</time>
      </trkpt>
      <trkpt lat="46.64755" lon="6.27924">
        <ele>1040</ele>
        <time>2013-08-18T12:39:22.000Z</time>
      </trkpt>
      <trkpt lat="46.64755" lon="6.2792">
        <ele>1040</ele>
        <time>2013-08-18T12:39:23.000Z</time>
      </trkpt>
      <trkpt lat="46.64756" lon="6.27916">
        <ele>1040</ele>
        <time>2013-08-18T12:39:24.000Z</time>
      </trkpt>
      <trkpt lat="46.64755" lon="6.27912">
        <ele>1040</ele>
        <time>2013-08-18T12:39:25.000Z</time>
      </trkpt>
      <trkpt lat="46.64755" lon="6.27908">
        <ele>1041</ele>
        <time>2013-08-18T12:39:26.000Z</time>
      </trkpt>
      <trkpt lat="46.64754" lon="6.27905">
        <ele>1041</ele>
        <time>2013-08-18T12:39:27.000Z</time>
      </trkpt>
      <trkpt lat="46.64754" lon="6.27898">
        <ele>1042</ele>
        <time>2013-08-18T12:39:29.000Z</time>
      </trkpt>
      <trkpt lat="46.64752" lon="6.27895">
        <ele>1042</ele>
        <time>2013-08-18T12:39:30.000Z</time>
      </trkpt>
      <trkpt lat="46.64752" lon="6.27892">
        <ele>1042</ele>
        <time>2013-08-18T12:39:31.000Z</time>
      </trkpt>
      <trkpt lat="46.64751" lon="6.27888">
        <ele>1042</ele>
        <time>2013-08-18T12:39:32.000Z</time>
      </trkpt>
      <trkpt lat="46.6475" lon="6.27885">
        <ele>1038</ele>
        <time>2013-08-18T12:39:33.000Z</time>
      </trkpt>
      <trkpt lat="46.64749" lon="6.2788">
        <ele>1038</ele>
        <time>2013-08-18T12:39:34.000Z</time>
      </trkpt>
      <trkpt lat="46.64748" lon="6.27877">
        <ele>1038</ele>
        <time>2013-08-18T12:39:35.000Z</time>
      </trkpt>
      <trkpt lat="46.64747" lon="6.27872">
        <ele>1038</ele>
        <time>2013-08-18T12:39:36.000Z</time>
      </trkpt>
      <trkpt lat="46.64746" lon="6.27869">
        <ele>1038</ele>
        <time>2013-08-18T12:39:37.000Z</time>
      </trkpt>
      <trkpt lat="46.64745" lon="6.27865">
        <ele>1038</ele>
        <time>2013-08-18T12:39:38.000Z</time>
      </trkpt>
      <trkpt lat="46.64743" lon="6.27861">
        <ele>1038</ele>
        <time>2013-08-18T12:39:39.000Z</time>
      </trkpt>
      <trkpt lat="46.64742" lon="6.27857">
        <ele>1038</ele>
        <time>2013-08-18T12:39:40.000Z</time>
      </trkpt>
      <trkpt lat="46.64741" lon="6.27853">
        <ele>1038</ele>
        <time>2013-08-18T12:39:41.000Z</time>
      </trkpt>
      <trkpt lat="46.6474" lon="6.27848">
        <ele>1038</ele>
        <time>2013-08-18T12:39:42.000Z</time>
      </trkpt>
      <trkpt lat="46.64739" lon="6.27844">
        <ele>1038</ele>
        <time>2013-08-18T12:39:43.000Z</time>
      </trkpt>
      <trkpt lat="46.64738" lon="6.2784">
        <ele>1038</ele>
        <time>2013-08-18T12:39:44.000Z</time>
      </trkpt>
      <trkpt lat="46.64737" lon="6.27836">
        <ele>1038</ele>
        <time>2013-08-18T12:39:45.000Z</time>
      </trkpt>
      <trkpt lat="46.64736" lon="6.27832">
        <ele>1038</ele>
        <time>2013-08-18T12:39:46.000Z</time>
      </trkpt>
      <trkpt lat="46.64735" lon="6.27827">
        <ele>1038</ele>
        <time>2013-08-18T12:39:47.000Z</time>
      </trkpt>
      <trkpt lat="46.64734" lon="6.27823">
        <ele>1038</ele>
        <time>2013-08-18T12:39:48.000Z</time>
      </trkpt>
      <trkpt lat="46.64733" lon="6.27819">
        <ele>1038</ele>
        <time>2013-08-18T12:39:49.000Z</time>
      </trkpt>
      <trkpt lat="46.64732" lon="6.27815">
        <ele>1038</ele>
        <time>2013-08-18T12:39:50.000Z</time>
      </trkpt>
      <trkpt lat="46.64732" lon="6.2781">
        <ele>1038</ele>
        <time>2013-08-18T12:39:51.000Z</time>
      </trkpt>
      <trkpt lat="46.64731" lon="6.27806">
        <ele>1038</ele>
        <time>2013-08-18T12:39:52.000Z</time>
      </trkpt>
      <trkpt lat="46.6473" lon="6.27801">
        <ele>1038</ele>
        <time>2013-08-18T12:39:53.000Z</time>
      </trkpt>
      <trkpt lat="46.64729" lon="6.27797">
        <ele>1038</ele>
        <time>2013-08-18T12:39:54.000Z</time>
      </trkpt>
      <trkpt lat="46.64728" lon="6.27793">
        <ele>1038</ele>
        <time>2013-08-18T12:39:55.000Z</time>
      </trkpt>
      <trkpt lat="46.64727" lon="6.27789">
        <ele>1038</ele>
        <time>2013-08-18T12:39:56.000Z</time>
      </trkpt>
      <trkpt lat="46.64727" lon="6.27784">
        <ele>1038</ele>
        <time>2013-08-18T12:39:57.000Z</time>
      </trkpt>
      <trkpt lat="46.64726" lon="6.2778">
        <ele>1038</ele>
        <time>2013-08-18T12:39:58.000Z</time>
      </trkpt>
      <trkpt lat="46.64725" lon="6.27776">
        <ele>1038</ele>
        <time>2013-08-18T12:39:59.000Z</time>
      </trkpt>
      <trkpt lat="46.64724" lon="6.27772">
        <ele>1038</ele>
        <time>2013-08-18T12:40:00.000Z</time>
      </trkpt>
      <trkpt lat="46.64723" lon="6.27768">
        <ele>1038</ele>
        <time>2013-08-18T12:40:01.000Z</time>
      </trkpt>
      <trkpt lat="46.64722" lon="6.27764">
        <ele>1038</ele>
        <time>2013-08-18T12:40:02.000Z</time>
      </trkpt>
      <trkpt lat="46.64722" lon="6.2776">
        <ele>1038</ele>
        <time>2013-08-18T12:40:03.000Z</time>
      </trkpt>
      <trkpt lat="46.64721" lon="6.27756">
        <ele>1038</ele>
        <time>2013-08-18T12:40:04.000Z</time>
      </trkpt>
      <trkpt lat="46.64721" lon="6.27751">
        <ele>1038</ele>
        <time>2013-08-18T12:40:05.000Z</time>
      </trkpt>
      <trkpt lat="46.6472" lon="6.27748">
        <ele>1039</ele>
        <time>2013-08-18T12:40:06.000Z</time>
      </trkpt>
      <trkpt lat="46.64719" lon="6.27743">
        <ele>1039</ele>
        <time>2013-08-18T12:40:07.000Z</time>
      </trkpt>
      <trkpt lat="46.64719" lon="6.27739">
        <ele>1039</ele>
        <time>2013-08-18T12:40:08.000Z</time>
      </trkpt>
      <trkpt lat="46.64718" lon="6.27735">
        <ele>1039</ele>
        <time>2013-08-18T12:40:09.000Z</time>
      </trkpt>
      <trkpt lat="46.64717" lon="6.27732">
        <ele>1039</ele>
        <time>2013-08-18T12:40:10.000Z</time>
      </trkpt>
      <trkpt lat="46.64716" lon="6.27728">
        <ele>1039</ele>
        <time>2013-08-18T12:40:11.000Z</time>
      </trkpt>
      <trkpt lat="46.64716" lon="6.27724">
        <ele>1039</ele>
        <time>2013-08-18T12:40:12.000Z</time>
      </trkpt>
      <trkpt lat="46.64715" lon="6.2772">
        <ele>1039</ele>
        <time>2013-08-18T12:40:13.000Z</time>
      </trkpt>
      <trkpt lat="46.64714" lon="6.27716">
        <ele>1039</ele>
        <time>2013-08-18T12:40:14.000Z</time>
      </trkpt>
      <trkpt lat="46.64713" lon="6.27712">
        <ele>1039</ele>
        <time>2013-08-18T12:40:15.000Z</time>
      </trkpt>
      <trkpt lat="46.64713" lon="6.27707">
        <ele>1040</ele>
        <time>2013-08-18T12:40:16.000Z</time>
      </trkpt>
      <trkpt lat="46.64712" lon="6.27703">
        <ele>1040</ele>
        <time>2013-08-18T12:40:17.000Z</time>
      </trkpt>
      <trkpt lat="46.64711" lon="6.27699">
        <ele>1040</ele>
        <time>2013-08-18T12:40:18.000Z</time>
      </trkpt>
      <trkpt lat="46.64711" lon="6.27695">
        <ele>1040</ele>
        <time>2013-08-18T12:40:19.000Z</time>
      </trkpt>
      <trkpt lat="46.6471" lon="6.27691">
        <ele>1040</ele>
        <time>2013-08-18T12:40:20.000Z</time>
      </trkpt>
      <trkpt lat="46.6471" lon="6.27687">
        <ele>1040</ele>
        <time>2013-08-18T12:40:21.000Z</time>
      </trkpt>
      <trkpt lat="46.6471" lon="6.27683">
        <ele>1040</ele>
        <time>2013-08-18T12:40:22.000Z</time>
      </trkpt>
      <trkpt lat="46.64709" lon="6.27679">
        <ele>1040</ele>
        <time>2013-08-18T12:40:23.000Z</time>
      </trkpt>
      <trkpt lat="46.64709" lon="6.27674">
        <ele>1040</ele>
        <time>2013-08-18T12:40:24.000Z</time>
      </trkpt>
      <trkpt lat="46.64709" lon="6.2767">
        <ele>1040</ele>
        <time>2013-08-18T12:40:25.000Z</time>
      </trkpt>
      <trkpt lat="46.64709" lon="6.27666">
        <ele>1042</ele>
        <time>2013-08-18T12:40:26.000Z</time>
      </trkpt>
      <trkpt lat="46.64709" lon="6.27657">
        <ele>1042</ele>
        <time>2013-08-18T12:40:28.000Z</time>
      </trkpt>
      <trkpt lat="46.6471" lon="6.27653">
        <ele>1042</ele>
        <time>2013-08-18T12:40:29.000Z</time>
      </trkpt>
      <trkpt lat="46.6471" lon="6.27648">
        <ele>1042</ele>
        <time>2013-08-18T12:40:30.000Z</time>
      </trkpt>
      <trkpt lat="46.64711" lon="6.27644">
        <ele>1042</ele>
        <time>2013-08-18T12:40:31.000Z</time>
      </trkpt>
      <trkpt lat="46.64711" lon="6.2764">
        <ele>1042</ele>
        <time>2013-08-18T12:40:32.000Z</time>
      </trkpt>
      <trkpt lat="46.64712" lon="6.27635">
        <ele>1042</ele>
        <time>2013-08-18T12:40:33.000Z</time>
      </trkpt>
      <trkpt lat="46.64712" lon="6.27631">
        <ele>1042</ele>
        <time>2013-08-18T12:40:34.000Z</time>
      </trkpt>
      <trkpt lat="46.64712" lon="6.27627">
        <ele>1042</ele>
        <time>2013-08-18T12:40:35.000Z</time>
      </trkpt>
      <trkpt lat="46.64713" lon="6.27623">
        <ele>1043</ele>
        <time>2013-08-18T12:40:36.000Z</time>
      </trkpt>
      <trkpt lat="46.64713" lon="6.27619">
        <ele>1043</ele>
        <time>2013-08-18T12:40:37.000Z</time>
      </trkpt>
      <trkpt lat="46.64713" lon="6.27614">
        <ele>1043</ele>
        <time>2013-08-18T12:40:38.000Z</time>
      </trkpt>
      <trkpt lat="46.64714" lon="6.2761">
        <ele>1043</ele>
        <time>2013-08-18T12:40:39.000Z</time>
      </trkpt>
      <trkpt lat="46.64715" lon="6.27606">
        <ele>1043</ele>
        <time>2013-08-18T12:40:40.000Z</time>
      </trkpt>
      <trkpt lat="46.64715" lon="6.27602">
        <ele>1043</ele>
        <time>2013-08-18T12:40:41.000Z</time>
      </trkpt>
      <trkpt lat="46.64716" lon="6.27598">
        <ele>1043</ele>
        <time>2013-08-18T12:40:42.000Z</time>
      </trkpt>
      <trkpt lat="46.64717" lon="6.27594">
        <ele>1043</ele>
        <time>2013-08-18T12:40:43.000Z</time>
      </trkpt>
      <trkpt lat="46.64718" lon="6.2759">
        <ele>1043</ele>
        <time>2013-08-18T12:40:44.000Z</time>
      </trkpt>
      <trkpt lat="46.64718" lon="6.27586">
        <ele>1043</ele>
        <time>2013-08-18T12:40:45.000Z</time>
      </trkpt>
      <trkpt lat="46.64719" lon="6.27582">
        <ele>1046</ele>
        <time>2013-08-18T12:40:46.000Z</time>
      </trkpt>
      <trkpt lat="46.6472" lon="6.27578">
        <ele>1046</ele>
        <time>2013-08-18T12:40:47.000Z</time>
      </trkpt>
      <trkpt lat="46.64721" lon="6.27574">
        <ele>1046</ele>
        <time>2013-08-18T12:40:48.000Z</time>
      </trkpt>
      <trkpt lat="46.64722" lon="6.2757">
        <ele>1047</ele>
        <time>2013-08-18T12:40:49.000Z</time>
      </trkpt>
      <trkpt lat="46.64723" lon="6.27566">
        <ele>1047</ele>
        <time>2013-08-18T12:40:50.000Z</time>
      </trkpt>
      <trkpt lat="46.64724" lon="6.27563">
        <ele>1047</ele>
        <time>2013-08-18T12:40:51.000Z</time>
      </trkpt>
      <trkpt lat="46.64725" lon="6.27559">
        <ele>1047</ele>
        <time>2013-08-18T12:40:52.000Z</time>
      </trkpt>
      <trkpt lat="46.64725" lon="6.27556">
        <ele>1047</ele>
        <time>2013-08-18T12:40:53.000Z</time>
      </trkpt>
      <trkpt lat="46.64727" lon="6.27553">
        <ele>1047</ele>
        <time>2013-08-18T12:40:54.000Z</time>
      </trkpt>
      <trkpt lat="46.64728" lon="6.2755">
        <ele>1047</ele>
        <time>2013-08-18T12:40:55.000Z</time>
      </trkpt>
      <trkpt lat="46.64729" lon="6.27547">
        <ele>1047</ele>
        <time>2013-08-18T12:40:56.000Z</time>
      </trkpt>
      <trkpt lat="46.6473" lon="6.27545">
        <ele>1048</ele>
        <time>2013-08-18T12:40:57.000Z</time>
      </trkpt>
      <trkpt lat="46.64731" lon="6.27542">
        <ele>1048</ele>
        <time>2013-08-18T12:40:58.000Z</time>
      </trkpt>
      <trkpt lat="46.64733" lon="6.27541">
        <ele>1048</ele>
        <time>2013-08-18T12:40:59.000Z</time>
      </trkpt>
      <trkpt lat="46.64735" lon="6.27539">
        <ele>1048</ele>
        <time>2013-08-18T12:41:00.000Z</time>
      </trkpt>
      <trkpt lat="46.64736" lon="6.27537">
        <ele>1048</ele>
        <time>2013-08-18T12:41:01.000Z</time>
      </trkpt>
      <trkpt lat="46.64738" lon="6.27535">
        <ele>1048</ele>
        <time>2013-08-18T12:41:02.000Z</time>
      </trkpt>
      <trkpt lat="46.64739" lon="6.27532">
        <ele>1048</ele>
        <time>2013-08-18T12:41:03.000Z</time>
      </trkpt>
      <trkpt lat="46.64741" lon="6.2753">
        <ele>1048</ele>
        <time>2013-08-18T12:41:04.000Z</time>
      </trkpt>
      <trkpt lat="46.64742" lon="6.27529">
        <ele>1048</ele>
        <time>2013-08-18T12:41:05.000Z</time>
      </trkpt>
      <trkpt lat="46.64744" lon="6.27527">
        <ele>1049</ele>
        <time>2013-08-18T12:41:06.000Z</time>
      </trkpt>
      <trkpt lat="46.64746" lon="6.27526">
        <ele>1049</ele>
        <time>2013-08-18T12:41:07.000Z</time>
      </trkpt>
      <trkpt lat="46.64748" lon="6.27526">
        <ele>1049</ele>
        <time>2013-08-18T12:41:08.000Z</time>
      </trkpt>
      <trkpt lat="46.64749" lon="6.27525">
        <ele>1049</ele>
        <time>2013-08-18T12:41:09.000Z</time>
      </trkpt>
      <trkpt lat="46.64751" lon="6.27524">
        <ele>1053</ele>
        <time>2013-08-18T12:41:10.000Z</time>
      </trkpt>
      <trkpt lat="46.64753" lon="6.27523">
        <ele>1053</ele>
        <time>2013-08-18T12:41:11.000Z</time>
      </trkpt>
      <trkpt lat="46.64754" lon="6.27523">
        <ele>1053</ele>
        <time>2013-08-18T12:41:12.000Z</time>
      </trkpt>
      <trkpt lat="46.64755" lon="6.27522">
        <ele>1053</ele>
        <time>2013-08-18T12:41:13.000Z</time>
      </trkpt>
      <trkpt lat="46.64757" lon="6.27521">
        <ele>1053</ele>
        <time>2013-08-18T12:41:14.000Z</time>
      </trkpt>
      <trkpt lat="46.64758" lon="6.2752">
        <ele>1053</ele>
        <time>2013-08-18T12:41:15.000Z</time>
      </trkpt>
      <trkpt lat="46.64759" lon="6.2752">
        <ele>1053</ele>
        <time>2013-08-18T12:41:16.000Z</time>
      </trkpt>
      <trkpt lat="46.64761" lon="6.27519">
        <ele>1053</ele>
        <time>2013-08-18T12:41:17.000Z</time>
      </trkpt>
      <trkpt lat="46.64762" lon="6.2752">
        <ele>1053</ele>
        <time>2013-08-18T12:41:18.000Z</time>
      </trkpt>
      <trkpt lat="46.64764" lon="6.2752">
        <ele>1053</ele>
        <time>2013-08-18T12:41:19.000Z</time>
      </trkpt>
      <trkpt lat="46.64765" lon="6.2752">
        <ele>1053</ele>
        <time>2013-08-18T12:41:20.000Z</time>
      </trkpt>
      <trkpt lat="46.64766" lon="6.27521">
        <ele>1053</ele>
        <time>2013-08-18T12:41:21.000Z</time>
      </trkpt>
      <trkpt lat="46.64768" lon="6.27521">
        <ele>1054</ele>
        <time>2013-08-18T12:41:22.000Z</time>
      </trkpt>
      <trkpt lat="46.64769" lon="6.27522">
        <ele>1054</ele>
        <time>2013-08-18T12:41:23.000Z</time>
      </trkpt>
      <trkpt lat="46.6477" lon="6.27523">
        <ele>1054</ele>
        <time>2013-08-18T12:41:24.000Z</time>
      </trkpt>
      <trkpt lat="46.64771" lon="6.27524">
        <ele>1054</ele>
        <time>2013-08-18T12:41:25.000Z</time>
      </trkpt>
      <trkpt lat="46.64772" lon="6.27525">
        <ele>1054</ele>
        <time>2013-08-18T12:41:26.000Z</time>
      </trkpt>
      <trkpt lat="46.64774" lon="6.27526">
        <ele>1054</ele>
        <time>2013-08-18T12:41:27.000Z</time>
      </trkpt>
      <trkpt lat="46.64775" lon="6.27527">
        <ele>1054</ele>
        <time>2013-08-18T12:41:28.000Z</time>
      </trkpt>
      <trkpt lat="46.64776" lon="6.27529">
        <ele>1054</ele>
        <time>2013-08-18T12:41:29.000Z</time>
      </trkpt>
      <trkpt lat="46.64777" lon="6.2753">
        <ele>1054</ele>
        <time>2013-08-18T12:41:30.000Z</time>
      </trkpt>
      <trkpt lat="46.64778" lon="6.27531">
        <ele>1054</ele>
        <time>2013-08-18T12:41:31.000Z</time>
      </trkpt>
      <trkpt lat="46.64779" lon="6.27532">
        <ele>1054</ele>
        <time>2013-08-18T12:41:32.000Z</time>
      </trkpt>
      <trkpt lat="46.6478" lon="6.27533">
        <ele>1054</ele>
        <time>2013-08-18T12:41:33.000Z</time>
      </trkpt>
      <trkpt lat="46.64781" lon="6.27534">
        <ele>1054</ele>
        <time>2013-08-18T12:41:34.000Z</time>
      </trkpt>
      <trkpt lat="46.64781" lon="6.27536">
        <ele>1054</ele>
        <time>2013-08-18T12:41:35.000Z</time>
      </trkpt>
      <trkpt lat="46.64782" lon="6.27537">
        <ele>1054</ele>
        <time>2013-08-18T12:41:36.000Z</time>
      </trkpt>
      <trkpt lat="46.64783" lon="6.27539">
        <ele>1054</ele>
        <time>2013-08-18T12:41:37.000Z</time>
      </trkpt>
      <trkpt lat="46.64784" lon="6.2754">
        <ele>1054</ele>
        <time>2013-08-18T12:41:38.000Z</time>
      </trkpt>
      <trkpt lat="46.64785" lon="6.27541">
        <ele>1054</ele>
        <time>2013-08-18T12:41:39.000Z</time>
      </trkpt>
      <trkpt lat="46.64786" lon="6.27543">
        <ele>1054</ele>
        <time>2013-08-18T12:41:40.000Z</time>
      </trkpt>
      <trkpt lat="46.64787" lon="6.27544">
        <ele>1055</ele>
        <time>2013-08-18T12:41:41.000Z</time>
      </trkpt>
      <trkpt lat="46.64788" lon="6.27546">
        <ele>1054</ele>
        <time>2013-08-18T12:41:42.000Z</time>
      </trkpt>
      <trkpt lat="46.64788" lon="6.27547">
        <ele>1054</ele>
        <time>2013-08-18T12:41:43.000Z</time>
      </trkpt>
      <trkpt lat="46.64789" lon="6.27549">
        <ele>1054</ele>
        <time>2013-08-18T12:41:44.000Z</time>
      </trkpt>
      <trkpt lat="46.6479" lon="6.2755">
        <ele>1054</ele>
        <time>2013-08-18T12:41:45.000Z</time>
      </trkpt>
      <trkpt lat="46.64791" lon="6.27552">
        <ele>1055</ele>
        <time>2013-08-18T12:41:46.000Z</time>
      </trkpt>
      <trkpt lat="46.64792" lon="6.27553">
        <ele>1055</ele>
        <time>2013-08-18T12:41:47.000Z</time>
      </trkpt>
      <trkpt lat="46.64793" lon="6.27555">
        <ele>1055</ele>
        <time>2013-08-18T12:41:48.000Z</time>
      </trkpt>
      <trkpt lat="46.64794" lon="6.27556">
        <ele>1055</ele>
        <time>2013-08-18T12:41:49.000Z</time>
      </trkpt>
      <trkpt lat="46.64796" lon="6.27558">
        <ele>1055</ele>
        <time>2013-08-18T12:41:50.000Z</time>
      </trkpt>
      <trkpt lat="46.64797" lon="6.27559">
        <ele>1055</ele>
        <time>2013-08-18T12:41:51.000Z</time>
      </trkpt>
      <trkpt lat="46.64798" lon="6.27561">
        <ele>1055</ele>
        <time>2013-08-18T12:41:52.000Z</time>
      </trkpt>
      <trkpt lat="46.64799" lon="6.27562">
        <ele>1055</ele>
        <time>2013-08-18T12:41:53.000Z</time>
      </trkpt>
      <trkpt lat="46.648" lon="6.27564">
        <ele>1055</ele>
        <time>2013-08-18T12:41:54.000Z</time>
      </trkpt>
      <trkpt lat="46.64802" lon="6.27565">
        <ele>1055</ele>
        <time>2013-08-18T12:41:55.000Z</time>
      </trkpt>
      <trkpt lat="46.64803" lon="6.27567">
        <ele>1055</ele>
        <time>2013-08-18T12:41:56.000Z</time>
      </trkpt>
      <trkpt lat="46.64804" lon="6.27568">
        <ele>1055</ele>
        <time>2013-08-18T12:41:57.000Z</time>
      </trkpt>
      <trkpt lat="46.64805" lon="6.27569">
        <ele>1055</ele>
        <time>2013-08-18T12:41:58.000Z</time>
      </trkpt>
      <trkpt lat="46.64807" lon="6.27571">
        <ele>1056</ele>
        <time>2013-08-18T12:41:59.000Z</time>
      </trkpt>
      <trkpt lat="46.64808" lon="6.27572">
        <ele>1056</ele>
        <time>2013-08-18T12:42:00.000Z</time>
      </trkpt>
      <trkpt lat="46.64809" lon="6.27573">
        <ele>1056</ele>
        <time>2013-08-18T12:42:01.000Z</time>
      </trkpt>
      <trkpt lat="46.64811" lon="6.27574">
        <ele>1056</ele>
        <time>2013-08-18T12:42:02.000Z</time>
      </trkpt>
      <trkpt lat="46.64812" lon="6.27576">
        <ele>1056</ele>
        <time>2013-08-18T12:42:03.000Z</time>
      </trkpt>
      <trkpt lat="46.64813" lon="6.27577">
        <ele>1056</ele>
        <time>2013-08-18T12:42:04.000Z</time>
      </trkpt>
      <trkpt lat="46.64815" lon="6.27578">
        <ele>1056</ele>
        <time>2013-08-18T12:42:05.000Z</time>
      </trkpt>
      <trkpt lat="46.64816" lon="6.27579">
        <ele>1057</ele>
        <time>2013-08-18T12:42:06.000Z</time>
      </trkpt>
      <trkpt lat="46.64817" lon="6.27581">
        <ele>1057</ele>
        <time>2013-08-18T12:42:07.000Z</time>
      </trkpt>
      <trkpt lat="46.64818" lon="6.27582">
        <ele>1057</ele>
        <time>2013-08-18T12:42:08.000Z</time>
      </trkpt>
      <trkpt lat="46.6482" lon="6.27583">
        <ele>1057</ele>
        <time>2013-08-18T12:42:09.000Z</time>
      </trkpt>
      <trkpt lat="46.64821" lon="6.27584">
        <ele>1055</ele>
        <time>2013-08-18T12:42:10.000Z</time>
      </trkpt>
      <trkpt lat="46.64823" lon="6.27585">
        <ele>1055</ele>
        <time>2013-08-18T12:42:11.000Z</time>
      </trkpt>
      <trkpt lat="46.64824" lon="6.27587">
        <ele>1056</ele>
        <time>2013-08-18T12:42:12.000Z</time>
      </trkpt>
      <trkpt lat="46.64825" lon="6.27588">
        <ele>1056</ele>
        <time>2013-08-18T12:42:13.000Z</time>
      </trkpt>
      <trkpt lat="46.64827" lon="6.27589">
        <ele>1056</ele>
        <time>2013-08-18T12:42:14.000Z</time>
      </trkpt>
      <trkpt lat="46.64828" lon="6.2759">
        <ele>1056</ele>
        <time>2013-08-18T12:42:15.000Z</time>
      </trkpt>
      <trkpt lat="46.64829" lon="6.27592">
        <ele>1056</ele>
        <time>2013-08-18T12:42:16.000Z</time>
      </trkpt>
      <trkpt lat="46.64831" lon="6.27592">
        <ele>1056</ele>
        <time>2013-08-18T12:42:17.000Z</time>
      </trkpt>
      <trkpt lat="46.64832" lon="6.27593">
        <ele>1056</ele>
        <time>2013-08-18T12:42:18.000Z</time>
      </trkpt>
      <trkpt lat="46.64834" lon="6.27594">
        <ele>1059</ele>
        <time>2013-08-18T12:42:19.000Z</time>
      </trkpt>
      <trkpt lat="46.64835" lon="6.27595">
        <ele>1059</ele>
        <time>2013-08-18T12:42:20.000Z</time>
      </trkpt>
      <trkpt lat="46.64836" lon="6.27596">
        <ele>1059</ele>
        <time>2013-08-18T12:42:21.000Z</time>
      </trkpt>
      <trkpt lat="46.64838" lon="6.27597">
        <ele>1059</ele>
        <time>2013-08-18T12:42:22.000Z</time>
      </trkpt>
      <trkpt lat="46.64839" lon="6.27598">
        <ele>1059</ele>
        <time>2013-08-18T12:42:23.000Z</time>
      </trkpt>
      <trkpt lat="46.64841" lon="6.27598">
        <ele>1059</ele>
        <time>2013-08-18T12:42:24.000Z</time>
      </trkpt>
      <trkpt lat="46.64842" lon="6.27599">
        <ele>1059</ele>
        <time>2013-08-18T12:42:25.000Z</time>
      </trkpt>
      <trkpt lat="46.64843" lon="6.276">
        <ele>1059</ele>
        <time>2013-08-18T12:42:26.000Z</time>
      </trkpt>
      <trkpt lat="46.64845" lon="6.27601">
        <ele>1059</ele>
        <time>2013-08-18T12:42:27.000Z</time>
      </trkpt>
      <trkpt lat="46.64846" lon="6.27602">
        <ele>1059</ele>
        <time>2013-08-18T12:42:28.000Z</time>
      </trkpt>
      <trkpt lat="46.64847" lon="6.27603">
        <ele>1059</ele>
        <time>2013-08-18T12:42:29.000Z</time>
      </trkpt>
      <trkpt lat="46.64849" lon="6.27604">
        <ele>1059</ele>
        <time>2013-08-18T12:42:30.000Z</time>
      </trkpt>
      <trkpt lat="46.6485" lon="6.27605">
        <ele>1059</ele>
        <time>2013-08-18T12:42:31.000Z</time>
      </trkpt>
      <trkpt lat="46.64851" lon="6.27606">
        <ele>1059</ele>
        <time>2013-08-18T12:42:32.000Z</time>
      </trkpt>
      <trkpt lat="46.64853" lon="6.27607">
        <ele>1059</ele>
        <time>2013-08-18T12:42:33.000Z</time>
      </trkpt>
      <trkpt lat="46.64854" lon="6.27608">
        <ele>1059</ele>
        <time>2013-08-18T12:42:34.000Z</time>
      </trkpt>
      <trkpt lat="46.64856" lon="6.27608">
        <ele>1059</ele>
        <time>2013-08-18T12:42:35.000Z</time>
      </trkpt>
      <trkpt lat="46.64857" lon="6.27608">
        <ele>1059</ele>
        <time>2013-08-18T12:42:36.000Z</time>
      </trkpt>
      <trkpt lat="46.64858" lon="6.27609">
        <ele>1059</ele>
        <time>2013-08-18T12:42:37.000Z</time>
      </trkpt>
      <trkpt lat="46.6486" lon="6.2761">
        <ele>1059</ele>
        <time>2013-08-18T12:42:38.000Z</time>
      </trkpt>
      <trkpt lat="46.64861" lon="6.27611">
        <ele>1059</ele>
        <time>2013-08-18T12:42:39.000Z</time>
      </trkpt>
      <trkpt lat="46.64862" lon="6.27612">
        <ele>1059</ele>
        <time>2013-08-18T12:42:40.000Z</time>
      </trkpt>
      <trkpt lat="46.64864" lon="6.27613">
        <ele>1059</ele>
        <time>2013-08-18T12:42:41.000Z</time>
      </trkpt>
      <trkpt lat="46.64865" lon="6.27614">
        <ele>1059</ele>
        <time>2013-08-18T12:42:42.000Z</time>
      </trkpt>
      <trkpt lat="46.64866" lon="6.27616">
        <ele>1059</ele>
        <time>2013-08-18T12:42:43.000Z</time>
      </trkpt>
      <trkpt lat="46.64867" lon="6.27617">
        <ele>1059</ele>
        <time>2013-08-18T12:42:44.000Z</time>
      </trkpt>
      <trkpt lat="46.64868" lon="6.27618">
        <ele>1059</ele>
        <time>2013-08-18T12:42:45.000Z</time>
      </trkpt>
      <trkpt lat="46.64869" lon="6.27619">
        <ele>1059</ele>
        <time>2013-08-18T12:42:46.000Z</time>
      </trkpt>
      <trkpt lat="46.64871" lon="6.2762">
        <ele>1059</ele>
        <time>2013-08-18T12:42:47.000Z</time>
      </trkpt>
      <trkpt lat="46.64872" lon="6.27621">
        <ele>1060</ele>
        <time>2013-08-18T12:42:48.000Z</time>
      </trkpt>
      <trkpt lat="46.64873" lon="6.27622">
        <ele>1060</ele>
        <time>2013-08-18T12:42:49.000Z</time>
      </trkpt>
      <trkpt lat="46.64874" lon="6.27623">
        <ele>1060</ele>
        <time>2013-08-18T12:42:50.000Z</time>
      </trkpt>
      <trkpt lat="46.64876" lon="6.27624">
        <ele>1060</ele>
        <time>2013-08-18T12:42:51.000Z</time>
      </trkpt>
      <trkpt lat="46.64877" lon="6.27625">
        <ele>1060</ele>
        <time>2013-08-18T12:42:52.000Z</time>
      </trkpt>
      <trkpt lat="46.64879" lon="6.27626">
        <ele>1060</ele>
        <time>2013-08-18T12:42:53.000Z</time>
      </trkpt>
      <trkpt lat="46.6488" lon="6.27627">
        <ele>1060</ele>
        <time>2013-08-18T12:42:54.000Z</time>
      </trkpt>
      <trkpt lat="46.64881" lon="6.27628">
        <ele>1060</ele>
        <time>2013-08-18T12:42:55.000Z</time>
      </trkpt>
      <trkpt lat="46.64883" lon="6.27628">
        <ele>1060</ele>
        <time>2013-08-18T12:42:56.000Z</time>
      </trkpt>
      <trkpt lat="46.64884" lon="6.27629">
        <ele>1060</ele>
        <time>2013-08-18T12:42:57.000Z</time>
      </trkpt>
      <trkpt lat="46.64886" lon="6.2763">
        <ele>1060</ele>
        <time>2013-08-18T12:42:58.000Z</time>
      </trkpt>
      <trkpt lat="46.64887" lon="6.27631">
        <ele>1060</ele>
        <time>2013-08-18T12:42:59.000Z</time>
      </trkpt>
      <trkpt lat="46.64888" lon="6.27632">
        <ele>1060</ele>
        <time>2013-08-18T12:43:00.000Z</time>
      </trkpt>
      <trkpt lat="46.6489" lon="6.27633">
        <ele>1060</ele>
        <time>2013-08-18T12:43:01.000Z</time>
      </trkpt>
      <trkpt lat="46.64891" lon="6.27634">
        <ele>1060</ele>
        <time>2013-08-18T12:43:02.000Z</time>
      </trkpt>
      <trkpt lat="46.64892" lon="6.27636">
        <ele>1060</ele>
        <time>2013-08-18T12:43:03.000Z</time>
      </trkpt>
      <trkpt lat="46.64894" lon="6.27637">
        <ele>1060</ele>
        <time>2013-08-18T12:43:04.000Z</time>
      </trkpt>
      <trkpt lat="46.64895" lon="6.27638">
        <ele>1060</ele>
        <time>2013-08-18T12:43:05.000Z</time>
      </trkpt>
      <trkpt lat="46.64897" lon="6.2764">
        <ele>1060</ele>
        <time>2013-08-18T12:43:06.000Z</time>
      </trkpt>
      <trkpt lat="46.64898" lon="6.27641">
        <ele>1060</ele>
        <time>2013-08-18T12:43:07.000Z</time>
      </trkpt>
      <trkpt lat="46.64899" lon="6.27642">
        <ele>1060</ele>
        <time>2013-08-18T12:43:08.000Z</time>
      </trkpt>
      <trkpt lat="46.64901" lon="6.27643">
        <ele>1060</ele>
        <time>2013-08-18T12:43:09.000Z</time>
      </trkpt>
      <trkpt lat="46.64902" lon="6.27644">
        <ele>1060</ele>
        <time>2013-08-18T12:43:10.000Z</time>
      </trkpt>
      <trkpt lat="46.64904" lon="6.27646">
        <ele>1060</ele>
        <time>2013-08-18T12:43:11.000Z</time>
      </trkpt>
      <trkpt lat="46.64905" lon="6.27647">
        <ele>1060</ele>
        <time>2013-08-18T12:43:12.000Z</time>
      </trkpt>
      <trkpt lat="46.64907" lon="6.27649">
        <ele>1060</ele>
        <time>2013-08-18T12:43:13.000Z</time>
      </trkpt>
      <trkpt lat="46.64908" lon="6.2765">
        <ele>1060</ele>
        <time>2013-08-18T12:43:14.000Z</time>
      </trkpt>
      <trkpt lat="46.6491" lon="6.27651">
        <ele>1060</ele>
        <time>2013-08-18T12:43:15.000Z</time>
      </trkpt>
      <trkpt lat="46.64911" lon="6.27652">
        <ele>1060</ele>
        <time>2013-08-18T12:43:16.000Z</time>
      </trkpt>
      <trkpt lat="46.64913" lon="6.27653">
        <ele>1060</ele>
        <time>2013-08-18T12:43:17.000Z</time>
      </trkpt>
      <trkpt lat="46.64914" lon="6.27655">
        <ele>1061</ele>
        <time>2013-08-18T12:43:18.000Z</time>
      </trkpt>
      <trkpt lat="46.64916" lon="6.27656">
        <ele>1061</ele>
        <time>2013-08-18T12:43:19.000Z</time>
      </trkpt>
      <trkpt lat="46.64917" lon="6.27657">
        <ele>1063</ele>
        <time>2013-08-18T12:43:20.000Z</time>
      </trkpt>
      <trkpt lat="46.64919" lon="6.27659">
        <ele>1063</ele>
        <time>2013-08-18T12:43:21.000Z</time>
      </trkpt>
      <trkpt lat="46.6492" lon="6.2766">
        <ele>1063</ele>
        <time>2013-08-18T12:43:22.000Z</time>
      </trkpt>
      <trkpt lat="46.64922" lon="6.27661">
        <ele>1063</ele>
        <time>2013-08-18T12:43:23.000Z</time>
      </trkpt>
      <trkpt lat="46.64923" lon="6.27663">
        <ele>1063</ele>
        <time>2013-08-18T12:43:24.000Z</time>
      </trkpt>
      <trkpt lat="46.64924" lon="6.27664">
        <ele>1063</ele>
        <time>2013-08-18T12:43:25.000Z</time>
      </trkpt>
      <trkpt lat="46.64925" lon="6.27664">
        <ele>1063</ele>
        <time>2013-08-18T12:43:26.000Z</time>
      </trkpt>
      <trkpt lat="46.64927" lon="6.27665">
        <ele>1063</ele>
        <time>2013-08-18T12:43:27.000Z</time>
      </trkpt>
      <trkpt lat="46.64928" lon="6.27666">
        <ele>1063</ele>
        <time>2013-08-18T12:43:28.000Z</time>
      </trkpt>
      <trkpt lat="46.6493" lon="6.27667">
        <ele>1061</ele>
        <time>2013-08-18T12:43:29.000Z</time>
      </trkpt>
      <trkpt lat="46.64932" lon="6.27669">
        <ele>1061</ele>
        <time>2013-08-18T12:43:30.000Z</time>
      </trkpt>
      <trkpt lat="46.64933" lon="6.2767">
        <ele>1061</ele>
        <time>2013-08-18T12:43:31.000Z</time>
      </trkpt>
      <trkpt lat="46.64935" lon="6.27671">
        <ele>1061</ele>
        <time>2013-08-18T12:43:32.000Z</time>
      </trkpt>
      <trkpt lat="46.64937" lon="6.27672">
        <ele>1061</ele>
        <time>2013-08-18T12:43:33.000Z</time>
      </trkpt>
      <trkpt lat="46.64939" lon="6.27673">
        <ele>1061</ele>
        <time>2013-08-18T12:43:34.000Z</time>
      </trkpt>
      <trkpt lat="46.64941" lon="6.27674">
        <ele>1061</ele>
        <time>2013-08-18T12:43:35.000Z</time>
      </trkpt>
      <trkpt lat="46.64943" lon="6.27675">
        <ele>1061</ele>
        <time>2013-08-18T12:43:36.000Z</time>
      </trkpt>
      <trkpt lat="46.64946" lon="6.27676">
        <ele>1061</ele>
        <time>2013-08-18T12:43:37.000Z</time>
      </trkpt>
      <trkpt lat="46.64948" lon="6.27677">
        <ele>1061</ele>
        <time>2013-08-18T12:43:38.000Z</time>
      </trkpt>
      <trkpt lat="46.6495" lon="6.27678">
        <ele>1061</ele>
        <time>2013-08-18T12:43:39.000Z</time>
      </trkpt>
      <trkpt lat="46.64952" lon="6.27679">
        <ele>1062</ele>
        <time>2013-08-18T12:43:40.000Z</time>
      </trkpt>
      <trkpt lat="46.64955" lon="6.2768">
        <ele>1062</ele>
        <time>2013-08-18T12:43:41.000Z</time>
      </trkpt>
      <trkpt lat="46.64957" lon="6.27681">
        <ele>1062</ele>
        <time>2013-08-18T12:43:42.000Z</time>
      </trkpt>
      <trkpt lat="46.64959" lon="6.27682">
        <ele>1062</ele>
        <time>2013-08-18T12:43:43.000Z</time>
      </trkpt>
      <trkpt lat="46.64962" lon="6.27683">
        <ele>1062</ele>
        <time>2013-08-18T12:43:44.000Z</time>
      </trkpt>
      <trkpt lat="46.64964" lon="6.27684">
        <ele>1062</ele>
        <time>2013-08-18T12:43:45.000Z</time>
      </trkpt>
      <trkpt lat="46.64966" lon="6.27685">
        <ele>1062</ele>
        <time>2013-08-18T12:43:46.000Z</time>
      </trkpt>
      <trkpt lat="46.64969" lon="6.27687">
        <ele>1062</ele>
        <time>2013-08-18T12:43:47.000Z</time>
      </trkpt>
      <trkpt lat="46.64971" lon="6.27688">
        <ele>1062</ele>
        <time>2013-08-18T12:43:48.000Z</time>
      </trkpt>
      <trkpt lat="46.64973" lon="6.27689">
        <ele>1062</ele>
        <time>2013-08-18T12:43:49.000Z</time>
      </trkpt>
      <trkpt lat="46.64975" lon="6.27689">
        <ele>1063</ele>
        <time>2013-08-18T12:43:50.000Z</time>
      </trkpt>
      <trkpt lat="46.64978" lon="6.2769">
        <ele>1063</ele>
        <time>2013-08-18T12:43:51.000Z</time>
      </trkpt>
      <trkpt lat="46.6498" lon="6.27691">
        <ele>1063</ele>
        <time>2013-08-18T12:43:52.000Z</time>
      </trkpt>
      <trkpt lat="46.64982" lon="6.27692">
        <ele>1063</ele>
        <time>2013-08-18T12:43:53.000Z</time>
      </trkpt>
      <trkpt lat="46.64984" lon="6.27693">
        <ele>1063</ele>
        <time>2013-08-18T12:43:54.000Z</time>
      </trkpt>
      <trkpt lat="46.64986" lon="6.27694">
        <ele>1063</ele>
        <time>2013-08-18T12:43:55.000Z</time>
      </trkpt>
      <trkpt lat="46.64989" lon="6.27694">
        <ele>1063</ele>
        <time>2013-08-18T12:43:56.000Z</time>
      </trkpt>
      <trkpt lat="46.64991" lon="6.27695">
        <ele>1063</ele>
        <time>2013-08-18T12:43:57.000Z</time>
      </trkpt>
      <trkpt lat="46.64994" lon="6.27696">
        <ele>1063</ele>
        <time>2013-08-18T12:43:58.000Z</time>
      </trkpt>
      <trkpt lat="46.64996" lon="6.27697">
        <ele>1063</ele>
        <time>2013-08-18T12:43:59.000Z</time>
      </trkpt>
      <trkpt lat="46.64999" lon="6.27698">
        <ele>1063</ele>
        <time>2013-08-18T12:44:00.000Z</time>
      </trkpt>
      <trkpt lat="46.65001" lon="6.27698">
        <ele>1068</ele>
        <time>2013-08-18T12:44:01.000Z</time>
      </trkpt>
      <trkpt lat="46.65003" lon="6.27699">
        <ele>1068</ele>
        <time>2013-08-18T12:44:02.000Z</time>
      </trkpt>
      <trkpt lat="46.65006" lon="6.277">
        <ele>1068</ele>
        <time>2013-08-18T12:44:03.000Z</time>
      </trkpt>
      <trkpt lat="46.65008" lon="6.27701">
        <ele>1068</ele>
        <time>2013-08-18T12:44:04.000Z</time>
      </trkpt>
      <trkpt lat="46.65011" lon="6.27701">
        <ele>1068</ele>
        <time>2013-08-18T12:44:05.000Z</time>
      </trkpt>
      <trkpt lat="46.65013" lon="6.27702">
        <ele>1068</ele>
        <time>2013-08-18T12:44:06.000Z</time>
      </trkpt>
      <trkpt lat="46.65016" lon="6.27703">
        <ele>1068</ele>
        <time>2013-08-18T12:44:07.000Z</time>
      </trkpt>
      <trkpt lat="46.65019" lon="6.27704">
        <ele>1068</ele>
        <time>2013-08-18T12:44:08.000Z</time>
      </trkpt>
      <trkpt lat="46.65021" lon="6.27705">
        <ele>1068</ele>
        <time>2013-08-18T12:44:09.000Z</time>
      </trkpt>
      <trkpt lat="46.65024" lon="6.27706">
        <ele>1068</ele>
        <time>2013-08-18T12:44:10.000Z</time>
      </trkpt>
      <trkpt lat="46.65027" lon="6.27707">
        <ele>1068</ele>
        <time>2013-08-18T12:44:11.000Z</time>
      </trkpt>
      <trkpt lat="46.65029" lon="6.27708">
        <ele>1068</ele>
        <time>2013-08-18T12:44:12.000Z</time>
      </trkpt>
      <trkpt lat="46.65032" lon="6.27709">
        <ele>1068</ele>
        <time>2013-08-18T12:44:13.000Z</time>
      </trkpt>
      <trkpt lat="46.65034" lon="6.27709">
        <ele>1068</ele>
        <time>2013-08-18T12:44:14.000Z</time>
      </trkpt>
      <trkpt lat="46.65037" lon="6.27711">
        <ele>1068</ele>
        <time>2013-08-18T12:44:15.000Z</time>
      </trkpt>
      <trkpt lat="46.6504" lon="6.27711">
        <ele>1068</ele>
        <time>2013-08-18T12:44:16.000Z</time>
      </trkpt>
      <trkpt lat="46.65043" lon="6.27712">
        <ele>1068</ele>
        <time>2013-08-18T12:44:17.000Z</time>
      </trkpt>
      <trkpt lat="46.65045" lon="6.27713">
        <ele>1068</ele>
        <time>2013-08-18T12:44:18.000Z</time>
      </trkpt>
      <trkpt lat="46.65048" lon="6.27714">
        <ele>1068</ele>
        <time>2013-08-18T12:44:19.000Z</time>
      </trkpt>
      <trkpt lat="46.65051" lon="6.27715">
        <ele>1068</ele>
        <time>2013-08-18T12:44:20.000Z</time>
      </trkpt>
      <trkpt lat="46.65054" lon="6.27716">
        <ele>1068</ele>
        <time>2013-08-18T12:44:21.000Z</time>
      </trkpt>
      <trkpt lat="46.65056" lon="6.27718">
        <ele>1068</ele>
        <time>2013-08-18T12:44:22.000Z</time>
      </trkpt>
      <trkpt lat="46.65059" lon="6.27719">
        <ele>1068</ele>
        <time>2013-08-18T12:44:23.000Z</time>
      </trkpt>
      <trkpt lat="46.65062" lon="6.27721">
        <ele>1068</ele>
        <time>2013-08-18T12:44:24.000Z</time>
      </trkpt>
      <trkpt lat="46.65064" lon="6.27723">
        <ele>1068</ele>
        <time>2013-08-18T12:44:25.000Z</time>
      </trkpt>
      <trkpt lat="46.65067" lon="6.27725">
        <ele>1068</ele>
        <time>2013-08-18T12:44:26.000Z</time>
      </trkpt>
      <trkpt lat="46.65069" lon="6.27727">
        <ele>1068</ele>
        <time>2013-08-18T12:44:27.000Z</time>
      </trkpt>
      <trkpt lat="46.65072" lon="6.27729">
        <ele>1068</ele>
        <time>2013-08-18T12:44:28.000Z</time>
      </trkpt>
      <trkpt lat="46.65074" lon="6.27731">
        <ele>1068</ele>
        <time>2013-08-18T12:44:29.000Z</time>
      </trkpt>
      <trkpt lat="46.65076" lon="6.27734">
        <ele>1068</ele>
        <time>2013-08-18T12:44:30.000Z</time>
      </trkpt>
      <trkpt lat="46.65078" lon="6.27736">
        <ele>1068</ele>
        <time>2013-08-18T12:44:31.000Z</time>
      </trkpt>
      <trkpt lat="46.6508" lon="6.27738">
        <ele>1068</ele>
        <time>2013-08-18T12:44:32.000Z</time>
      </trkpt>
      <trkpt lat="46.65082" lon="6.27741">
        <ele>1068</ele>
        <time>2013-08-18T12:44:33.000Z</time>
      </trkpt>
      <trkpt lat="46.65084" lon="6.27743">
        <ele>1071</ele>
        <time>2013-08-18T12:44:34.000Z</time>
      </trkpt>
      <trkpt lat="46.65087" lon="6.27746">
        <ele>1070</ele>
        <time>2013-08-18T12:44:35.000Z</time>
      </trkpt>
      <trkpt lat="46.65089" lon="6.27748">
        <ele>1071</ele>
        <time>2013-08-18T12:44:36.000Z</time>
      </trkpt>
      <trkpt lat="46.65091" lon="6.2775">
        <ele>1070</ele>
        <time>2013-08-18T12:44:37.000Z</time>
      </trkpt>
      <trkpt lat="46.65093" lon="6.27752">
        <ele>1071</ele>
        <time>2013-08-18T12:44:38.000Z</time>
      </trkpt>
      <trkpt lat="46.65095" lon="6.27754">
        <ele>1071</ele>
        <time>2013-08-18T12:44:39.000Z</time>
      </trkpt>
      <trkpt lat="46.65097" lon="6.27756">
        <ele>1072</ele>
        <time>2013-08-18T12:44:40.000Z</time>
      </trkpt>
      <trkpt lat="46.651" lon="6.27757">
        <ele>1072</ele>
        <time>2013-08-18T12:44:41.000Z</time>
      </trkpt>
      <trkpt lat="46.65102" lon="6.27759">
        <ele>1073</ele>
        <time>2013-08-18T12:44:42.000Z</time>
      </trkpt>
      <trkpt lat="46.65104" lon="6.2776">
        <ele>1073</ele>
        <time>2013-08-18T12:44:43.000Z</time>
      </trkpt>
      <trkpt lat="46.65107" lon="6.27761">
        <ele>1074</ele>
        <time>2013-08-18T12:44:44.000Z</time>
      </trkpt>
      <trkpt lat="46.65109" lon="6.27762">
        <ele>1074</ele>
        <time>2013-08-18T12:44:45.000Z</time>
      </trkpt>
      <trkpt lat="46.65112" lon="6.27763">
        <ele>1074</ele>
        <time>2013-08-18T12:44:46.000Z</time>
      </trkpt>
      <trkpt lat="46.65115" lon="6.27764">
        <ele>1075</ele>
        <time>2013-08-18T12:44:47.000Z</time>
      </trkpt>
      <trkpt lat="46.65117" lon="6.27766">
        <ele>1075</ele>
        <time>2013-08-18T12:44:48.000Z</time>
      </trkpt>
      <trkpt lat="46.65119" lon="6.27767">
        <ele>1075</ele>
        <time>2013-08-18T12:44:49.000Z</time>
      </trkpt>
      <trkpt lat="46.65122" lon="6.27768">
        <ele>1076</ele>
        <time>2013-08-18T12:44:50.000Z</time>
      </trkpt>
      <trkpt lat="46.65124" lon="6.27769">
        <ele>1076</ele>
        <time>2013-08-18T12:44:51.000Z</time>
      </trkpt>
      <trkpt lat="46.65126" lon="6.2777">
        <ele>1076</ele>
        <time>2013-08-18T12:44:52.000Z</time>
      </trkpt>
      <trkpt lat="46.65129" lon="6.27771">
        <ele>1077</ele>
        <time>2013-08-18T12:44:53.000Z</time>
      </trkpt>
      <trkpt lat="46.65131" lon="6.27771">
        <ele>1077</ele>
        <time>2013-08-18T12:44:54.000Z</time>
      </trkpt>
      <trkpt lat="46.65133" lon="6.27772">
        <ele>1077</ele>
        <time>2013-08-18T12:44:55.000Z</time>
      </trkpt>
      <trkpt lat="46.65136" lon="6.27773">
        <ele>1077</ele>
        <time>2013-08-18T12:44:56.000Z</time>
      </trkpt>
      <trkpt lat="46.65141" lon="6.27772">
        <ele>1078</ele>
        <time>2013-08-18T12:44:58.000Z</time>
      </trkpt>
      <trkpt lat="46.65143" lon="6.27772">
        <ele>1078</ele>
        <time>2013-08-18T12:44:59.000Z</time>
      </trkpt>
      <trkpt lat="46.65145" lon="6.27771">
        <ele>1079</ele>
        <time>2013-08-18T12:45:00.000Z</time>
      </trkpt>
      <trkpt lat="46.65148" lon="6.2777">
        <ele>1079</ele>
        <time>2013-08-18T12:45:01.000Z</time>
      </trkpt>
      <trkpt lat="46.6515" lon="6.27769">
        <ele>1080</ele>
        <time>2013-08-18T12:45:02.000Z</time>
      </trkpt>
      <trkpt lat="46.65152" lon="6.27767">
        <ele>1080</ele>
        <time>2013-08-18T12:45:03.000Z</time>
      </trkpt>
      <trkpt lat="46.65155" lon="6.27765">
        <ele>1081</ele>
        <time>2013-08-18T12:45:04.000Z</time>
      </trkpt>
      <trkpt lat="46.65157" lon="6.27763">
        <ele>1081</ele>
        <time>2013-08-18T12:45:05.000Z</time>
      </trkpt>
      <trkpt lat="46.65158" lon="6.27761">
        <ele>1082</ele>
        <time>2013-08-18T12:45:06.000Z</time>
      </trkpt>
      <trkpt lat="46.6516" lon="6.27758">
        <ele>1083</ele>
        <time>2013-08-18T12:45:07.000Z</time>
      </trkpt>
      <trkpt lat="46.65162" lon="6.27755">
        <ele>1084</ele>
        <time>2013-08-18T12:45:08.000Z</time>
      </trkpt>
      <trkpt lat="46.65163" lon="6.27753">
        <ele>1085</ele>
        <time>2013-08-18T12:45:09.000Z</time>
      </trkpt>
      <trkpt lat="46.65164" lon="6.2775">
        <ele>1086</ele>
        <time>2013-08-18T12:45:10.000Z</time>
      </trkpt>
      <trkpt lat="46.65165" lon="6.27747">
        <ele>1086</ele>
        <time>2013-08-18T12:45:11.000Z</time>
      </trkpt>
      <trkpt lat="46.65166" lon="6.27743">
        <ele>1085</ele>
        <time>2013-08-18T12:45:12.000Z</time>
      </trkpt>
      <trkpt lat="46.65167" lon="6.2774">
        <ele>1090</ele>
        <time>2013-08-18T12:45:13.000Z</time>
      </trkpt>
      <trkpt lat="46.65168" lon="6.27737">
        <ele>1090</ele>
        <time>2013-08-18T12:45:14.000Z</time>
      </trkpt>
      <trkpt lat="46.65169" lon="6.27733">
        <ele>1091</ele>
        <time>2013-08-18T12:45:15.000Z</time>
      </trkpt>
      <trkpt lat="46.65169" lon="6.2773">
        <ele>1091</ele>
        <time>2013-08-18T12:45:16.000Z</time>
      </trkpt>
      <trkpt lat="46.6517" lon="6.27726">
        <ele>1092</ele>
        <time>2013-08-18T12:45:17.000Z</time>
      </trkpt>
      <trkpt lat="46.6517" lon="6.27723">
        <ele>1092</ele>
        <time>2013-08-18T12:45:18.000Z</time>
      </trkpt>
      <trkpt lat="46.6517" lon="6.27717">
        <ele>1092</ele>
        <time>2013-08-18T12:45:20.000Z</time>
      </trkpt>
      <trkpt lat="46.6517" lon="6.27712">
        <ele>1092</ele>
        <time>2013-08-18T12:45:22.000Z</time>
      </trkpt>
      <trkpt lat="46.65169" lon="6.27705">
        <ele>1092</ele>
        <time>2013-08-18T12:45:24.000Z</time>
      </trkpt>
      <trkpt lat="46.65169" lon="6.27702">
        <ele>1092</ele>
        <time>2013-08-18T12:45:25.000Z</time>
      </trkpt>
      <trkpt lat="46.65169" lon="6.27699">
        <ele>1092</ele>
        <time>2013-08-18T12:45:26.000Z</time>
      </trkpt>
      <trkpt lat="46.65169" lon="6.27693">
        <ele>1092</ele>
        <time>2013-08-18T12:45:28.000Z</time>
      </trkpt>
      <trkpt lat="46.6517" lon="6.2769">
        <ele>1092</ele>
        <time>2013-08-18T12:45:29.000Z</time>
      </trkpt>
      <trkpt lat="46.65171" lon="6.27688">
        <ele>1092</ele>
        <time>2013-08-18T12:45:30.000Z</time>
      </trkpt>
      <trkpt lat="46.65171" lon="6.27685">
        <ele>1091</ele>
        <time>2013-08-18T12:45:31.000Z</time>
      </trkpt>
      <trkpt lat="46.65171" lon="6.27682">
        <ele>1091</ele>
        <time>2013-08-18T12:45:32.000Z</time>
      </trkpt>
      <trkpt lat="46.65172" lon="6.27679">
        <ele>1091</ele>
        <time>2013-08-18T12:45:33.000Z</time>
      </trkpt>
      <trkpt lat="46.65172" lon="6.27676">
        <ele>1090</ele>
        <time>2013-08-18T12:45:34.000Z</time>
      </trkpt>
      <trkpt lat="46.65173" lon="6.27673">
        <ele>1090</ele>
        <time>2013-08-18T12:45:35.000Z</time>
      </trkpt>
      <trkpt lat="46.65174" lon="6.27671">
        <ele>1090</ele>
        <time>2013-08-18T12:45:36.000Z</time>
      </trkpt>
      <trkpt lat="46.65175" lon="6.27669">
        <ele>1090</ele>
        <time>2013-08-18T12:45:37.000Z</time>
      </trkpt>
      <trkpt lat="46.65176" lon="6.27667">
        <ele>1090</ele>
        <time>2013-08-18T12:45:38.000Z</time>
      </trkpt>
      <trkpt lat="46.65177" lon="6.27665">
        <ele>1090</ele>
        <time>2013-08-18T12:45:39.000Z</time>
      </trkpt>
      <trkpt lat="46.65178" lon="6.27663">
        <ele>1091</ele>
        <time>2013-08-18T12:45:40.000Z</time>
      </trkpt>
      <trkpt lat="46.6518" lon="6.27661">
        <ele>1091</ele>
        <time>2013-08-18T12:45:41.000Z</time>
      </trkpt>
      <trkpt lat="46.65181" lon="6.27659">
        <ele>1091</ele>
        <time>2013-08-18T12:45:42.000Z</time>
      </trkpt>
      <trkpt lat="46.65181" lon="6.27657">
        <ele>1092</ele>
        <time>2013-08-18T12:45:43.000Z</time>
      </trkpt>
      <trkpt lat="46.65182" lon="6.27655">
        <ele>1092</ele>
        <time>2013-08-18T12:45:44.000Z</time>
      </trkpt>
      <trkpt lat="46.65183" lon="6.27654">
        <ele>1092</ele>
        <time>2013-08-18T12:45:45.000Z</time>
      </trkpt>
      <trkpt lat="46.65184" lon="6.27652">
        <ele>1092</ele>
        <time>2013-08-18T12:45:46.000Z</time>
      </trkpt>
      <trkpt lat="46.65185" lon="6.2765">
        <ele>1092</ele>
        <time>2013-08-18T12:45:47.000Z</time>
      </trkpt>
      <trkpt lat="46.65185" lon="6.27648">
        <ele>1092</ele>
        <time>2013-08-18T12:45:48.000Z</time>
      </trkpt>
      <trkpt lat="46.65186" lon="6.27646">
        <ele>1093</ele>
        <time>2013-08-18T12:45:49.000Z</time>
      </trkpt>
      <trkpt lat="46.65187" lon="6.27644">
        <ele>1093</ele>
        <time>2013-08-18T12:45:50.000Z</time>
      </trkpt>
      <trkpt lat="46.65187" lon="6.27641">
        <ele>1093</ele>
        <time>2013-08-18T12:45:51.000Z</time>
      </trkpt>
      <trkpt lat="46.65189" lon="6.27638">
        <ele>1093</ele>
        <time>2013-08-18T12:45:52.000Z</time>
      </trkpt>
      <trkpt lat="46.6519" lon="6.27635">
        <ele>1093</ele>
        <time>2013-08-18T12:45:53.000Z</time>
      </trkpt>
      <trkpt lat="46.65191" lon="6.27632">
        <ele>1094</ele>
        <time>2013-08-18T12:45:54.000Z</time>
      </trkpt>
      <trkpt lat="46.65192" lon="6.27628">
        <ele>1094</ele>
        <time>2013-08-18T12:45:55.000Z</time>
      </trkpt>
      <trkpt lat="46.65193" lon="6.27624">
        <ele>1094</ele>
        <time>2013-08-18T12:45:56.000Z</time>
      </trkpt>
      <trkpt lat="46.65195" lon="6.2762">
        <ele>1094</ele>
        <time>2013-08-18T12:45:57.000Z</time>
      </trkpt>
      <trkpt lat="46.65196" lon="6.27617">
        <ele>1094</ele>
        <time>2013-08-18T12:45:58.000Z</time>
      </trkpt>
      <trkpt lat="46.65197" lon="6.27613">
        <ele>1094</ele>
        <time>2013-08-18T12:45:59.000Z</time>
      </trkpt>
      <trkpt lat="46.65198" lon="6.2761">
        <ele>1094</ele>
        <time>2013-08-18T12:46:00.000Z</time>
      </trkpt>
      <trkpt lat="46.65199" lon="6.27606">
        <ele>1094</ele>
        <time>2013-08-18T12:46:01.000Z</time>
      </trkpt>
      <trkpt lat="46.65201" lon="6.27602">
        <ele>1094</ele>
        <time>2013-08-18T12:46:02.000Z</time>
      </trkpt>
      <trkpt lat="46.65202" lon="6.27599">
        <ele>1094</ele>
        <time>2013-08-18T12:46:03.000Z</time>
      </trkpt>
      <trkpt lat="46.65204" lon="6.27595">
        <ele>1094</ele>
        <time>2013-08-18T12:46:04.000Z</time>
      </trkpt>
      <trkpt lat="46.65206" lon="6.27591">
        <ele>1094</ele>
        <time>2013-08-18T12:46:05.000Z</time>
      </trkpt>
      <trkpt lat="46.65209" lon="6.27587">
        <ele>1095</ele>
        <time>2013-08-18T12:46:06.000Z</time>
      </trkpt>
      <trkpt lat="46.65211" lon="6.27583">
        <ele>1094</ele>
        <time>2013-08-18T12:46:07.000Z</time>
      </trkpt>
      <trkpt lat="46.65212" lon="6.2758">
        <ele>1094</ele>
        <time>2013-08-18T12:46:08.000Z</time>
      </trkpt>
      <trkpt lat="46.65214" lon="6.27576">
        <ele>1094</ele>
        <time>2013-08-18T12:46:09.000Z</time>
      </trkpt>
      <trkpt lat="46.65216" lon="6.27572">
        <ele>1094</ele>
        <time>2013-08-18T12:46:10.000Z</time>
      </trkpt>
      <trkpt lat="46.65219" lon="6.27568">
        <ele>1094</ele>
        <time>2013-08-18T12:46:11.000Z</time>
      </trkpt>
      <trkpt lat="46.65221" lon="6.27564">
        <ele>1094</ele>
        <time>2013-08-18T12:46:12.000Z</time>
      </trkpt>
      <trkpt lat="46.65223" lon="6.2756">
        <ele>1093</ele>
        <time>2013-08-18T12:46:13.000Z</time>
      </trkpt>
      <trkpt lat="46.65225" lon="6.27556">
        <ele>1093</ele>
        <time>2013-08-18T12:46:14.000Z</time>
      </trkpt>
      <trkpt lat="46.65227" lon="6.27552">
        <ele>1093</ele>
        <time>2013-08-18T12:46:15.000Z</time>
      </trkpt>
      <trkpt lat="46.65229" lon="6.27549">
        <ele>1093</ele>
        <time>2013-08-18T12:46:16.000Z</time>
      </trkpt>
      <trkpt lat="46.6523" lon="6.27545">
        <ele>1093</ele>
        <time>2013-08-18T12:46:17.000Z</time>
      </trkpt>
      <trkpt lat="46.65232" lon="6.27542">
        <ele>1093</ele>
        <time>2013-08-18T12:46:18.000Z</time>
      </trkpt>
      <trkpt lat="46.65234" lon="6.27538">
        <ele>1093</ele>
        <time>2013-08-18T12:46:19.000Z</time>
      </trkpt>
      <trkpt lat="46.65236" lon="6.27534">
        <ele>1092</ele>
        <time>2013-08-18T12:46:20.000Z</time>
      </trkpt>
      <trkpt lat="46.65238" lon="6.27531">
        <ele>1092</ele>
        <time>2013-08-18T12:46:21.000Z</time>
      </trkpt>
      <trkpt lat="46.65241" lon="6.27527">
        <ele>1092</ele>
        <time>2013-08-18T12:46:22.000Z</time>
      </trkpt>
      <trkpt lat="46.65243" lon="6.27522">
        <ele>1092</ele>
        <time>2013-08-18T12:46:23.000Z</time>
      </trkpt>
      <trkpt lat="46.65245" lon="6.27518">
        <ele>1091</ele>
        <time>2013-08-18T12:46:24.000Z</time>
      </trkpt>
      <trkpt lat="46.65247" lon="6.27514">
        <ele>1091</ele>
        <time>2013-08-18T12:46:25.000Z</time>
      </trkpt>
      <trkpt lat="46.65249" lon="6.27511">
        <ele>1091</ele>
        <time>2013-08-18T12:46:26.000Z</time>
      </trkpt>
      <trkpt lat="46.65251" lon="6.27507">
        <ele>1090</ele>
        <time>2013-08-18T12:46:27.000Z</time>
      </trkpt>
      <trkpt lat="46.65253" lon="6.27503">
        <ele>1090</ele>
        <time>2013-08-18T12:46:28.000Z</time>
      </trkpt>
      <trkpt lat="46.65255" lon="6.275">
        <ele>1090</ele>
        <time>2013-08-18T12:46:29.000Z</time>
      </trkpt>
      <trkpt lat="46.65256" lon="6.27497">
        <ele>1089</ele>
        <time>2013-08-18T12:46:30.000Z</time>
      </trkpt>
      <trkpt lat="46.65259" lon="6.27494">
        <ele>1088</ele>
        <time>2013-08-18T12:46:31.000Z</time>
      </trkpt>
      <trkpt lat="46.6526" lon="6.27491">
        <ele>1088</ele>
        <time>2013-08-18T12:46:32.000Z</time>
      </trkpt>
      <trkpt lat="46.65262" lon="6.27487">
        <ele>1088</ele>
        <time>2013-08-18T12:46:33.000Z</time>
      </trkpt>
      <trkpt lat="46.65264" lon="6.27484">
        <ele>1088</ele>
        <time>2013-08-18T12:46:34.000Z</time>
      </trkpt>
      <trkpt lat="46.65267" lon="6.2748">
        <ele>1088</ele>
        <time>2013-08-18T12:46:35.000Z</time>
      </trkpt>
      <trkpt lat="46.65269" lon="6.27476">
        <ele>1087</ele>
        <time>2013-08-18T12:46:36.000Z</time>
      </trkpt>
      <trkpt lat="46.65271" lon="6.27472">
        <ele>1087</ele>
        <time>2013-08-18T12:46:37.000Z</time>
      </trkpt>
      <trkpt lat="46.65273" lon="6.27468">
        <ele>1087</ele>
        <time>2013-08-18T12:46:38.000Z</time>
      </trkpt>
      <trkpt lat="46.65276" lon="6.27464">
        <ele>1087</ele>
        <time>2013-08-18T12:46:39.000Z</time>
      </trkpt>
      <trkpt lat="46.65278" lon="6.2746">
        <ele>1087</ele>
        <time>2013-08-18T12:46:40.000Z</time>
      </trkpt>
      <trkpt lat="46.65281" lon="6.27456">
        <ele>1087</ele>
        <time>2013-08-18T12:46:41.000Z</time>
      </trkpt>
      <trkpt lat="46.65283" lon="6.27453">
        <ele>1087</ele>
        <time>2013-08-18T12:46:42.000Z</time>
      </trkpt>
      <trkpt lat="46.65286" lon="6.27449">
        <ele>1087</ele>
        <time>2013-08-18T12:46:43.000Z</time>
      </trkpt>
      <trkpt lat="46.65288" lon="6.27445">
        <ele>1086</ele>
        <time>2013-08-18T12:46:44.000Z</time>
      </trkpt>
      <trkpt lat="46.6529" lon="6.27441">
        <ele>1086</ele>
        <time>2013-08-18T12:46:45.000Z</time>
      </trkpt>
      <trkpt lat="46.65292" lon="6.27438">
        <ele>1086</ele>
        <time>2013-08-18T12:46:46.000Z</time>
      </trkpt>
      <trkpt lat="46.65294" lon="6.27434">
        <ele>1086</ele>
        <time>2013-08-18T12:46:47.000Z</time>
      </trkpt>
      <trkpt lat="46.65296" lon="6.2743">
        <ele>1086</ele>
        <time>2013-08-18T12:46:48.000Z</time>
      </trkpt>
      <trkpt lat="46.65298" lon="6.27426">
        <ele>1086</ele>
        <time>2013-08-18T12:46:49.000Z</time>
      </trkpt>
      <trkpt lat="46.653" lon="6.27423">
        <ele>1086</ele>
        <time>2013-08-18T12:46:50.000Z</time>
      </trkpt>
      <trkpt lat="46.65303" lon="6.27419">
        <ele>1086</ele>
        <time>2013-08-18T12:46:51.000Z</time>
      </trkpt>
      <trkpt lat="46.65305" lon="6.27416">
        <ele>1084</ele>
        <time>2013-08-18T12:46:52.000Z</time>
      </trkpt>
      <trkpt lat="46.65307" lon="6.27413">
        <ele>1084</ele>
        <time>2013-08-18T12:46:53.000Z</time>
      </trkpt>
      <trkpt lat="46.65309" lon="6.2741">
        <ele>1084</ele>
        <time>2013-08-18T12:46:54.000Z</time>
      </trkpt>
      <trkpt lat="46.65311" lon="6.27406">
        <ele>1084</ele>
        <time>2013-08-18T12:46:55.000Z</time>
      </trkpt>
      <trkpt lat="46.65313" lon="6.27403">
        <ele>1084</ele>
        <time>2013-08-18T12:46:56.000Z</time>
      </trkpt>
      <trkpt lat="46.65315" lon="6.274">
        <ele>1084</ele>
        <time>2013-08-18T12:46:57.000Z</time>
      </trkpt>
      <trkpt lat="46.65317" lon="6.27396">
        <ele>1084</ele>
        <time>2013-08-18T12:46:58.000Z</time>
      </trkpt>
      <trkpt lat="46.65319" lon="6.27392">
        <ele>1084</ele>
        <time>2013-08-18T12:46:59.000Z</time>
      </trkpt>
      <trkpt lat="46.65321" lon="6.27388">
        <ele>1084</ele>
        <time>2013-08-18T12:47:00.000Z</time>
      </trkpt>
      <trkpt lat="46.65323" lon="6.27384">
        <ele>1084</ele>
        <time>2013-08-18T12:47:01.000Z</time>
      </trkpt>
      <trkpt lat="46.65325" lon="6.2738">
        <ele>1084</ele>
        <time>2013-08-18T12:47:02.000Z</time>
      </trkpt>
      <trkpt lat="46.65326" lon="6.27375">
        <ele>1084</ele>
        <time>2013-08-18T12:47:03.000Z</time>
      </trkpt>
      <trkpt lat="46.65327" lon="6.27371">
        <ele>1084</ele>
        <time>2013-08-18T12:47:04.000Z</time>
      </trkpt>
      <trkpt lat="46.65329" lon="6.27367">
        <ele>1084</ele>
        <time>2013-08-18T12:47:05.000Z</time>
      </trkpt>
      <trkpt lat="46.6533" lon="6.27362">
        <ele>1084</ele>
        <time>2013-08-18T12:47:06.000Z</time>
      </trkpt>
      <trkpt lat="46.65331" lon="6.27358">
        <ele>1084</ele>
        <time>2013-08-18T12:47:07.000Z</time>
      </trkpt>
      <trkpt lat="46.65332" lon="6.27354">
        <ele>1085</ele>
        <time>2013-08-18T12:47:08.000Z</time>
      </trkpt>
      <trkpt lat="46.65333" lon="6.27349">
        <ele>1085</ele>
        <time>2013-08-18T12:47:09.000Z</time>
      </trkpt>
      <trkpt lat="46.65334" lon="6.27344">
        <ele>1086</ele>
        <time>2013-08-18T12:47:10.000Z</time>
      </trkpt>
      <trkpt lat="46.65335" lon="6.27339">
        <ele>1086</ele>
        <time>2013-08-18T12:47:11.000Z</time>
      </trkpt>
      <trkpt lat="46.65336" lon="6.27335">
        <ele>1086</ele>
        <time>2013-08-18T12:47:12.000Z</time>
      </trkpt>
      <trkpt lat="46.65337" lon="6.2733">
        <ele>1086</ele>
        <time>2013-08-18T12:47:13.000Z</time>
      </trkpt>
      <trkpt lat="46.65338" lon="6.27325">
        <ele>1087</ele>
        <time>2013-08-18T12:47:14.000Z</time>
      </trkpt>
      <trkpt lat="46.65338" lon="6.27321">
        <ele>1087</ele>
        <time>2013-08-18T12:47:15.000Z</time>
      </trkpt>
      <trkpt lat="46.65339" lon="6.27316">
        <ele>1088</ele>
        <time>2013-08-18T12:47:16.000Z</time>
      </trkpt>
      <trkpt lat="46.65339" lon="6.27311">
        <ele>1088</ele>
        <time>2013-08-18T12:47:17.000Z</time>
      </trkpt>
      <trkpt lat="46.6534" lon="6.27306">
        <ele>1088</ele>
        <time>2013-08-18T12:47:18.000Z</time>
      </trkpt>
      <trkpt lat="46.65341" lon="6.27302">
        <ele>1088</ele>
        <time>2013-08-18T12:47:19.000Z</time>
      </trkpt>
      <trkpt lat="46.65341" lon="6.27297">
        <ele>1088</ele>
        <time>2013-08-18T12:47:20.000Z</time>
      </trkpt>
      <trkpt lat="46.65341" lon="6.27292">
        <ele>1088</ele>
        <time>2013-08-18T12:47:21.000Z</time>
      </trkpt>
      <trkpt lat="46.65342" lon="6.27287">
        <ele>1088</ele>
        <time>2013-08-18T12:47:22.000Z</time>
      </trkpt>
      <trkpt lat="46.65342" lon="6.27282">
        <ele>1088</ele>
        <time>2013-08-18T12:47:23.000Z</time>
      </trkpt>
      <trkpt lat="46.65343" lon="6.27277">
        <ele>1088</ele>
        <time>2013-08-18T12:47:24.000Z</time>
      </trkpt>
      <trkpt lat="46.65343" lon="6.27272">
        <ele>1088</ele>
        <time>2013-08-18T12:47:25.000Z</time>
      </trkpt>
      <trkpt lat="46.65344" lon="6.27266">
        <ele>1088</ele>
        <time>2013-08-18T12:47:26.000Z</time>
      </trkpt>
      <trkpt lat="46.65344" lon="6.27261">
        <ele>1087</ele>
        <time>2013-08-18T12:47:27.000Z</time>
      </trkpt>
      <trkpt lat="46.65344" lon="6.27256">
        <ele>1087</ele>
        <time>2013-08-18T12:47:28.000Z</time>
      </trkpt>
      <trkpt lat="46.65345" lon="6.27251">
        <ele>1087</ele>
        <time>2013-08-18T12:47:29.000Z</time>
      </trkpt>
      <trkpt lat="46.65345" lon="6.27246">
        <ele>1088</ele>
        <time>2013-08-18T12:47:30.000Z</time>
      </trkpt>
      <trkpt lat="46.65346" lon="6.2724">
        <ele>1088</ele>
        <time>2013-08-18T12:47:31.000Z</time>
      </trkpt>
      <trkpt lat="46.65346" lon="6.27235">
        <ele>1089</ele>
        <time>2013-08-18T12:47:32.000Z</time>
      </trkpt>
      <trkpt lat="46.65346" lon="6.2723">
        <ele>1089</ele>
        <time>2013-08-18T12:47:33.000Z</time>
      </trkpt>
      <trkpt lat="46.65347" lon="6.27224">
        <ele>1090</ele>
        <time>2013-08-18T12:47:34.000Z</time>
      </trkpt>
      <trkpt lat="46.65347" lon="6.27219">
        <ele>1090</ele>
        <time>2013-08-18T12:47:35.000Z</time>
      </trkpt>
      <trkpt lat="46.65347" lon="6.27214">
        <ele>1090</ele>
        <time>2013-08-18T12:47:36.000Z</time>
      </trkpt>
      <trkpt lat="46.65348" lon="6.27209">
        <ele>1090</ele>
        <time>2013-08-18T12:47:37.000Z</time>
      </trkpt>
      <trkpt lat="46.65348" lon="6.27204">
        <ele>1090</ele>
        <time>2013-08-18T12:47:38.000Z</time>
      </trkpt>
      <trkpt lat="46.65348" lon="6.272">
        <ele>1090</ele>
        <time>2013-08-18T12:47:39.000Z</time>
      </trkpt>
      <trkpt lat="46.65348" lon="6.27195">
        <ele>1090</ele>
        <time>2013-08-18T12:47:40.000Z</time>
      </trkpt>
      <trkpt lat="46.65349" lon="6.27191">
        <ele>1090</ele>
        <time>2013-08-18T12:47:41.000Z</time>
      </trkpt>
      <trkpt lat="46.65349" lon="6.27187">
        <ele>1090</ele>
        <time>2013-08-18T12:47:42.000Z</time>
      </trkpt>
      <trkpt lat="46.65349" lon="6.27183">
        <ele>1090</ele>
        <time>2013-08-18T12:47:43.000Z</time>
      </trkpt>
      <trkpt lat="46.6535" lon="6.27179">
        <ele>1090</ele>
        <time>2013-08-18T12:47:44.000Z</time>
      </trkpt>
      <trkpt lat="46.65351" lon="6.27176">
        <ele>1089</ele>
        <time>2013-08-18T12:47:45.000Z</time>
      </trkpt>
      <trkpt lat="46.65351" lon="6.27172">
        <ele>1089</ele>
        <time>2013-08-18T12:47:46.000Z</time>
      </trkpt>
      <trkpt lat="46.65352" lon="6.27168">
        <ele>1089</ele>
        <time>2013-08-18T12:47:47.000Z</time>
      </trkpt>
      <trkpt lat="46.65352" lon="6.27164">
        <ele>1090</ele>
        <time>2013-08-18T12:47:48.000Z</time>
      </trkpt>
      <trkpt lat="46.65352" lon="6.2716">
        <ele>1090</ele>
        <time>2013-08-18T12:47:49.000Z</time>
      </trkpt>
      <trkpt lat="46.65352" lon="6.27156">
        <ele>1091</ele>
        <time>2013-08-18T12:47:50.000Z</time>
      </trkpt>
      <trkpt lat="46.65352" lon="6.27153">
        <ele>1091</ele>
        <time>2013-08-18T12:47:51.000Z</time>
      </trkpt>
      <trkpt lat="46.65353" lon="6.27149">
        <ele>1091</ele>
        <time>2013-08-18T12:47:52.000Z</time>
      </trkpt>
      <trkpt lat="46.65353" lon="6.27145">
        <ele>1091</ele>
        <time>2013-08-18T12:47:53.000Z</time>
      </trkpt>
      <trkpt lat="46.65353" lon="6.27141">
        <ele>1092</ele>
        <time>2013-08-18T12:47:54.000Z</time>
      </trkpt>
      <trkpt lat="46.65353" lon="6.27137">
        <ele>1092</ele>
        <time>2013-08-18T12:47:55.000Z</time>
      </trkpt>
      <trkpt lat="46.65354" lon="6.27133">
        <ele>1092</ele>
        <time>2013-08-18T12:47:56.000Z</time>
      </trkpt>
      <trkpt lat="46.65354" lon="6.27129">
        <ele>1092</ele>
        <time>2013-08-18T12:47:57.000Z</time>
      </trkpt>
      <trkpt lat="46.65354" lon="6.27126">
        <ele>1092</ele>
        <time>2013-08-18T12:47:58.000Z</time>
      </trkpt>
      <trkpt lat="46.65354" lon="6.27122">
        <ele>1092</ele>
        <time>2013-08-18T12:47:59.000Z</time>
      </trkpt>
      <trkpt lat="46.65355" lon="6.27118">
        <ele>1092</ele>
        <time>2013-08-18T12:48:00.000Z</time>
      </trkpt>
      <trkpt lat="46.65355" lon="6.27111">
        <ele>1092</ele>
        <time>2013-08-18T12:48:02.000Z</time>
      </trkpt>
      <trkpt lat="46.65355" lon="6.27107">
        <ele>1092</ele>
        <time>2013-08-18T12:48:03.000Z</time>
      </trkpt>
      <trkpt lat="46.65355" lon="6.27103">
        <ele>1092</ele>
        <time>2013-08-18T12:48:04.000Z</time>
      </trkpt>
      <trkpt lat="46.65356" lon="6.27099">
        <ele>1092</ele>
        <time>2013-08-18T12:48:05.000Z</time>
      </trkpt>
      <trkpt lat="46.65356" lon="6.27096">
        <ele>1092</ele>
        <time>2013-08-18T12:48:06.000Z</time>
      </trkpt>
      <trkpt lat="46.65356" lon="6.27089">
        <ele>1092</ele>
        <time>2013-08-18T12:48:08.000Z</time>
      </trkpt>
      <trkpt lat="46.65356" lon="6.27085">
        <ele>1092</ele>
        <time>2013-08-18T12:48:09.000Z</time>
      </trkpt>
      <trkpt lat="46.65356" lon="6.27082">
        <ele>1092</ele>
        <time>2013-08-18T12:48:10.000Z</time>
      </trkpt>
      <trkpt lat="46.65356" lon="6.27078">
        <ele>1092</ele>
        <time>2013-08-18T12:48:11.000Z</time>
      </trkpt>
      <trkpt lat="46.65356" lon="6.27063">
        <ele>1093</ele>
        <time>2013-08-18T12:48:15.000Z</time>
      </trkpt>
      <trkpt lat="46.65357" lon="6.2706">
        <ele>1093</ele>
        <time>2013-08-18T12:48:16.000Z</time>
      </trkpt>
      <trkpt lat="46.65357" lon="6.27056">
        <ele>1093</ele>
        <time>2013-08-18T12:48:17.000Z</time>
      </trkpt>
      <trkpt lat="46.65357" lon="6.27052">
        <ele>1093</ele>
        <time>2013-08-18T12:48:18.000Z</time>
      </trkpt>
      <trkpt lat="46.65358" lon="6.27048">
        <ele>1093</ele>
        <time>2013-08-18T12:48:19.000Z</time>
      </trkpt>
      <trkpt lat="46.65358" lon="6.27044">
        <ele>1093</ele>
        <time>2013-08-18T12:48:20.000Z</time>
      </trkpt>
      <trkpt lat="46.65358" lon="6.2704">
        <ele>1093</ele>
        <time>2013-08-18T12:48:21.000Z</time>
      </trkpt>
      <trkpt lat="46.65358" lon="6.27036">
        <ele>1093</ele>
        <time>2013-08-18T12:48:22.000Z</time>
      </trkpt>
      <trkpt lat="46.65358" lon="6.27032">
        <ele>1093</ele>
        <time>2013-08-18T12:48:23.000Z</time>
      </trkpt>
      <trkpt lat="46.65358" lon="6.27028">
        <ele>1093</ele>
        <time>2013-08-18T12:48:24.000Z</time>
      </trkpt>
      <trkpt lat="46.65359" lon="6.2702">
        <ele>1093</ele>
        <time>2013-08-18T12:48:26.000Z</time>
      </trkpt>
      <trkpt lat="46.65359" lon="6.27012">
        <ele>1093</ele>
        <time>2013-08-18T12:48:28.000Z</time>
      </trkpt>
      <trkpt lat="46.65359" lon="6.27008">
        <ele>1093</ele>
        <time>2013-08-18T12:48:29.000Z</time>
      </trkpt>
      <trkpt lat="46.65359" lon="6.27004">
        <ele>1093</ele>
        <time>2013-08-18T12:48:30.000Z</time>
      </trkpt>
      <trkpt lat="46.6536" lon="6.26999">
        <ele>1093</ele>
        <time>2013-08-18T12:48:31.000Z</time>
      </trkpt>
      <trkpt lat="46.6536" lon="6.26995">
        <ele>1093</ele>
        <time>2013-08-18T12:48:32.000Z</time>
      </trkpt>
      <trkpt lat="46.6536" lon="6.26987">
        <ele>1093</ele>
        <time>2013-08-18T12:48:34.000Z</time>
      </trkpt>
      <trkpt lat="46.6536" lon="6.26983">
        <ele>1093</ele>
        <time>2013-08-18T12:48:35.000Z</time>
      </trkpt>
      <trkpt lat="46.6536" lon="6.26978">
        <ele>1093</ele>
        <time>2013-08-18T12:48:36.000Z</time>
      </trkpt>
      <trkpt lat="46.65361" lon="6.26974">
        <ele>1094</ele>
        <time>2013-08-18T12:48:37.000Z</time>
      </trkpt>
      <trkpt lat="46.65361" lon="6.26966">
        <ele>1094</ele>
        <time>2013-08-18T12:48:39.000Z</time>
      </trkpt>
      <trkpt lat="46.65361" lon="6.26962">
        <ele>1094</ele>
        <time>2013-08-18T12:48:40.000Z</time>
      </trkpt>
      <trkpt lat="46.65361" lon="6.26958">
        <ele>1094</ele>
        <time>2013-08-18T12:48:41.000Z</time>
      </trkpt>
      <trkpt lat="46.65361" lon="6.26954">
        <ele>1094</ele>
        <time>2013-08-18T12:48:42.000Z</time>
      </trkpt>
      <trkpt lat="46.65362" lon="6.2695">
        <ele>1094</ele>
        <time>2013-08-18T12:48:43.000Z</time>
      </trkpt>
      <trkpt lat="46.65362" lon="6.26945">
        <ele>1094</ele>
        <time>2013-08-18T12:48:44.000Z</time>
      </trkpt>
      <trkpt lat="46.65362" lon="6.26941">
        <ele>1094</ele>
        <time>2013-08-18T12:48:45.000Z</time>
      </trkpt>
      <trkpt lat="46.65362" lon="6.26937">
        <ele>1094</ele>
        <time>2013-08-18T12:48:46.000Z</time>
      </trkpt>
      <trkpt lat="46.65362" lon="6.26933">
        <ele>1093</ele>
        <time>2013-08-18T12:48:47.000Z</time>
      </trkpt>
      <trkpt lat="46.65362" lon="6.26928">
        <ele>1093</ele>
        <time>2013-08-18T12:48:48.000Z</time>
      </trkpt>
      <trkpt lat="46.65362" lon="6.26916">
        <ele>1094</ele>
        <time>2013-08-18T12:48:51.000Z</time>
      </trkpt>
      <trkpt lat="46.65362" lon="6.26911">
        <ele>1094</ele>
        <time>2013-08-18T12:48:52.000Z</time>
      </trkpt>
      <trkpt lat="46.65361" lon="6.26907">
        <ele>1094</ele>
        <time>2013-08-18T12:48:53.000Z</time>
      </trkpt>
      <trkpt lat="46.65361" lon="6.26903">
        <ele>1094</ele>
        <time>2013-08-18T12:48:54.000Z</time>
      </trkpt>
      <trkpt lat="46.6536" lon="6.26898">
        <ele>1094</ele>
        <time>2013-08-18T12:48:55.000Z</time>
      </trkpt>
      <trkpt lat="46.6536" lon="6.26894">
        <ele>1094</ele>
        <time>2013-08-18T12:48:56.000Z</time>
      </trkpt>
      <trkpt lat="46.65359" lon="6.2689">
        <ele>1094</ele>
        <time>2013-08-18T12:48:57.000Z</time>
      </trkpt>
      <trkpt lat="46.65357" lon="6.26886">
        <ele>1094</ele>
        <time>2013-08-18T12:48:58.000Z</time>
      </trkpt>
      <trkpt lat="46.65355" lon="6.26882">
        <ele>1094</ele>
        <time>2013-08-18T12:48:59.000Z</time>
      </trkpt>
      <trkpt lat="46.65353" lon="6.26879">
        <ele>1094</ele>
        <time>2013-08-18T12:49:00.000Z</time>
      </trkpt>
      <trkpt lat="46.65351" lon="6.26875">
        <ele>1094</ele>
        <time>2013-08-18T12:49:01.000Z</time>
      </trkpt>
      <trkpt lat="46.65349" lon="6.26871">
        <ele>1094</ele>
        <time>2013-08-18T12:49:02.000Z</time>
      </trkpt>
      <trkpt lat="46.65347" lon="6.26867">
        <ele>1094</ele>
        <time>2013-08-18T12:49:03.000Z</time>
      </trkpt>
      <trkpt lat="46.65344" lon="6.26863">
        <ele>1094</ele>
        <time>2013-08-18T12:49:04.000Z</time>
      </trkpt>
      <trkpt lat="46.65342" lon="6.26859">
        <ele>1094</ele>
        <time>2013-08-18T12:49:05.000Z</time>
      </trkpt>
      <trkpt lat="46.65339" lon="6.26856">
        <ele>1094</ele>
        <time>2013-08-18T12:49:06.000Z</time>
      </trkpt>
      <trkpt lat="46.65337" lon="6.26852">
        <ele>1094</ele>
        <time>2013-08-18T12:49:07.000Z</time>
      </trkpt>
      <trkpt lat="46.65335" lon="6.26848">
        <ele>1093</ele>
        <time>2013-08-18T12:49:08.000Z</time>
      </trkpt>
      <trkpt lat="46.65333" lon="6.26845">
        <ele>1091</ele>
        <time>2013-08-18T12:49:09.000Z</time>
      </trkpt>
      <trkpt lat="46.6533" lon="6.26842">
        <ele>1091</ele>
        <time>2013-08-18T12:49:10.000Z</time>
      </trkpt>
      <trkpt lat="46.65328" lon="6.2684">
        <ele>1091</ele>
        <time>2013-08-18T12:49:11.000Z</time>
      </trkpt>
      <trkpt lat="46.65327" lon="6.26837">
        <ele>1091</ele>
        <time>2013-08-18T12:49:12.000Z</time>
      </trkpt>
      <trkpt lat="46.65325" lon="6.26834">
        <ele>1091</ele>
        <time>2013-08-18T12:49:13.000Z</time>
      </trkpt>
      <trkpt lat="46.65323" lon="6.26832">
        <ele>1092</ele>
        <time>2013-08-18T12:49:14.000Z</time>
      </trkpt>
      <trkpt lat="46.65321" lon="6.26829">
        <ele>1092</ele>
        <time>2013-08-18T12:49:15.000Z</time>
      </trkpt>
      <trkpt lat="46.65319" lon="6.26826">
        <ele>1092</ele>
        <time>2013-08-18T12:49:16.000Z</time>
      </trkpt>
      <trkpt lat="46.65317" lon="6.26822">
        <ele>1092</ele>
        <time>2013-08-18T12:49:17.000Z</time>
      </trkpt>
      <trkpt lat="46.65315" lon="6.26818">
        <ele>1092</ele>
        <time>2013-08-18T12:49:18.000Z</time>
      </trkpt>
      <trkpt lat="46.65313" lon="6.26813">
        <ele>1092</ele>
        <time>2013-08-18T12:49:19.000Z</time>
      </trkpt>
      <trkpt lat="46.6531" lon="6.26809">
        <ele>1092</ele>
        <time>2013-08-18T12:49:20.000Z</time>
      </trkpt>
      <trkpt lat="46.65308" lon="6.26805">
        <ele>1092</ele>
        <time>2013-08-18T12:49:21.000Z</time>
      </trkpt>
      <trkpt lat="46.65306" lon="6.268">
        <ele>1092</ele>
        <time>2013-08-18T12:49:22.000Z</time>
      </trkpt>
      <trkpt lat="46.65304" lon="6.26795">
        <ele>1092</ele>
        <time>2013-08-18T12:49:23.000Z</time>
      </trkpt>
      <trkpt lat="46.65302" lon="6.2679">
        <ele>1092</ele>
        <time>2013-08-18T12:49:24.000Z</time>
      </trkpt>
      <trkpt lat="46.653" lon="6.26785">
        <ele>1092</ele>
        <time>2013-08-18T12:49:25.000Z</time>
      </trkpt>
      <trkpt lat="46.65298" lon="6.26781">
        <ele>1092</ele>
        <time>2013-08-18T12:49:26.000Z</time>
      </trkpt>
      <trkpt lat="46.65296" lon="6.26776">
        <ele>1092</ele>
        <time>2013-08-18T12:49:27.000Z</time>
      </trkpt>
      <trkpt lat="46.65294" lon="6.26771">
        <ele>1092</ele>
        <time>2013-08-18T12:49:28.000Z</time>
      </trkpt>
      <trkpt lat="46.65292" lon="6.26767">
        <ele>1092</ele>
        <time>2013-08-18T12:49:29.000Z</time>
      </trkpt>
      <trkpt lat="46.65291" lon="6.26762">
        <ele>1092</ele>
        <time>2013-08-18T12:49:30.000Z</time>
      </trkpt>
      <trkpt lat="46.6529" lon="6.26758">
        <ele>1092</ele>
        <time>2013-08-18T12:49:31.000Z</time>
      </trkpt>
      <trkpt lat="46.65288" lon="6.26753">
        <ele>1092</ele>
        <time>2013-08-18T12:49:32.000Z</time>
      </trkpt>
      <trkpt lat="46.65287" lon="6.26748">
        <ele>1094</ele>
        <time>2013-08-18T12:49:33.000Z</time>
      </trkpt>
      <trkpt lat="46.65285" lon="6.26743">
        <ele>1094</ele>
        <time>2013-08-18T12:49:34.000Z</time>
      </trkpt>
      <trkpt lat="46.65283" lon="6.26738">
        <ele>1094</ele>
        <time>2013-08-18T12:49:35.000Z</time>
      </trkpt>
      <trkpt lat="46.65282" lon="6.26732">
        <ele>1094</ele>
        <time>2013-08-18T12:49:36.000Z</time>
      </trkpt>
      <trkpt lat="46.65281" lon="6.26727">
        <ele>1094</ele>
        <time>2013-08-18T12:49:37.000Z</time>
      </trkpt>
      <trkpt lat="46.6528" lon="6.26721">
        <ele>1094</ele>
        <time>2013-08-18T12:49:38.000Z</time>
      </trkpt>
      <trkpt lat="46.65278" lon="6.26715">
        <ele>1094</ele>
        <time>2013-08-18T12:49:39.000Z</time>
      </trkpt>
      <trkpt lat="46.65277" lon="6.2671">
        <ele>1094</ele>
        <time>2013-08-18T12:49:40.000Z</time>
      </trkpt>
      <trkpt lat="46.65276" lon="6.26704">
        <ele>1094</ele>
        <time>2013-08-18T12:49:41.000Z</time>
      </trkpt>
      <trkpt lat="46.65275" lon="6.26698">
        <ele>1094</ele>
        <time>2013-08-18T12:49:42.000Z</time>
      </trkpt>
      <trkpt lat="46.65274" lon="6.26693">
        <ele>1094</ele>
        <time>2013-08-18T12:49:43.000Z</time>
      </trkpt>
      <trkpt lat="46.65274" lon="6.26687">
        <ele>1094</ele>
        <time>2013-08-18T12:49:44.000Z</time>
      </trkpt>
      <trkpt lat="46.65273" lon="6.26682">
        <ele>1094</ele>
        <time>2013-08-18T12:49:45.000Z</time>
      </trkpt>
      <trkpt lat="46.65273" lon="6.26676">
        <ele>1094</ele>
        <time>2013-08-18T12:49:46.000Z</time>
      </trkpt>
      <trkpt lat="46.65273" lon="6.26671">
        <ele>1094</ele>
        <time>2013-08-18T12:49:47.000Z</time>
      </trkpt>
      <trkpt lat="46.65273" lon="6.26665">
        <ele>1095</ele>
        <time>2013-08-18T12:49:48.000Z</time>
      </trkpt>
      <trkpt lat="46.65273" lon="6.2666">
        <ele>1095</ele>
        <time>2013-08-18T12:49:49.000Z</time>
      </trkpt>
      <trkpt lat="46.65273" lon="6.26654">
        <ele>1095</ele>
        <time>2013-08-18T12:49:50.000Z</time>
      </trkpt>
      <trkpt lat="46.65273" lon="6.26649">
        <ele>1095</ele>
        <time>2013-08-18T12:49:51.000Z</time>
      </trkpt>
      <trkpt lat="46.65273" lon="6.2664">
        <ele>1096</ele>
        <time>2013-08-18T12:49:53.000Z</time>
      </trkpt>
      <trkpt lat="46.65273" lon="6.26636">
        <ele>1096</ele>
        <time>2013-08-18T12:49:54.000Z</time>
      </trkpt>
      <trkpt lat="46.65274" lon="6.26631">
        <ele>1096</ele>
        <time>2013-08-18T12:49:55.000Z</time>
      </trkpt>
      <trkpt lat="46.65274" lon="6.26618">
        <ele>1096</ele>
        <time>2013-08-18T12:49:58.000Z</time>
      </trkpt>
      <trkpt lat="46.65274" lon="6.26614">
        <ele>1096</ele>
        <time>2013-08-18T12:49:59.000Z</time>
      </trkpt>
      <trkpt lat="46.65274" lon="6.26609">
        <ele>1096</ele>
        <time>2013-08-18T12:50:00.000Z</time>
      </trkpt>
      <trkpt lat="46.65275" lon="6.26605">
        <ele>1096</ele>
        <time>2013-08-18T12:50:01.000Z</time>
      </trkpt>
      <trkpt lat="46.65275" lon="6.26601">
        <ele>1096</ele>
        <time>2013-08-18T12:50:02.000Z</time>
      </trkpt>
      <trkpt lat="46.65275" lon="6.26597">
        <ele>1096</ele>
        <time>2013-08-18T12:50:03.000Z</time>
      </trkpt>
      <trkpt lat="46.65276" lon="6.2659">
        <ele>1096</ele>
        <time>2013-08-18T12:50:05.000Z</time>
      </trkpt>
      <trkpt lat="46.65276" lon="6.26586">
        <ele>1096</ele>
        <time>2013-08-18T12:50:06.000Z</time>
      </trkpt>
      <trkpt lat="46.65276" lon="6.26582">
        <ele>1097</ele>
        <time>2013-08-18T12:50:07.000Z</time>
      </trkpt>
      <trkpt lat="46.65276" lon="6.26579">
        <ele>1097</ele>
        <time>2013-08-18T12:50:08.000Z</time>
      </trkpt>
      <trkpt lat="46.65276" lon="6.26573">
        <ele>1097</ele>
        <time>2013-08-18T12:50:10.000Z</time>
      </trkpt>
      <trkpt lat="46.65277" lon="6.26569">
        <ele>1098</ele>
        <time>2013-08-18T12:50:11.000Z</time>
      </trkpt>
      <trkpt lat="46.65277" lon="6.26565">
        <ele>1098</ele>
        <time>2013-08-18T12:50:12.000Z</time>
      </trkpt>
      <trkpt lat="46.65278" lon="6.26561">
        <ele>1098</ele>
        <time>2013-08-18T12:50:13.000Z</time>
      </trkpt>
      <trkpt lat="46.65278" lon="6.26556">
        <ele>1098</ele>
        <time>2013-08-18T12:50:14.000Z</time>
      </trkpt>
      <trkpt lat="46.65278" lon="6.26552">
        <ele>1098</ele>
        <time>2013-08-18T12:50:15.000Z</time>
      </trkpt>
      <trkpt lat="46.65279" lon="6.26547">
        <ele>1098</ele>
        <time>2013-08-18T12:50:16.000Z</time>
      </trkpt>
      <trkpt lat="46.65279" lon="6.26542">
        <ele>1098</ele>
        <time>2013-08-18T12:50:17.000Z</time>
      </trkpt>
      <trkpt lat="46.65279" lon="6.26538">
        <ele>1098</ele>
        <time>2013-08-18T12:50:18.000Z</time>
      </trkpt>
      <trkpt lat="46.6528" lon="6.26533">
        <ele>1098</ele>
        <time>2013-08-18T12:50:19.000Z</time>
      </trkpt>
      <trkpt lat="46.65281" lon="6.26529">
        <ele>1098</ele>
        <time>2013-08-18T12:50:20.000Z</time>
      </trkpt>
      <trkpt lat="46.65281" lon="6.26524">
        <ele>1098</ele>
        <time>2013-08-18T12:50:21.000Z</time>
      </trkpt>
      <trkpt lat="46.65281" lon="6.26519">
        <ele>1098</ele>
        <time>2013-08-18T12:50:22.000Z</time>
      </trkpt>
      <trkpt lat="46.65282" lon="6.26514">
        <ele>1098</ele>
        <time>2013-08-18T12:50:23.000Z</time>
      </trkpt>
      <trkpt lat="46.65283" lon="6.26509">
        <ele>1098</ele>
        <time>2013-08-18T12:50:24.000Z</time>
      </trkpt>
      <trkpt lat="46.65283" lon="6.26504">
        <ele>1098</ele>
        <time>2013-08-18T12:50:25.000Z</time>
      </trkpt>
      <trkpt lat="46.65284" lon="6.265">
        <ele>1099</ele>
        <time>2013-08-18T12:50:26.000Z</time>
      </trkpt>
      <trkpt lat="46.65284" lon="6.26495">
        <ele>1099</ele>
        <time>2013-08-18T12:50:27.000Z</time>
      </trkpt>
      <trkpt lat="46.65284" lon="6.2649">
        <ele>1099</ele>
        <time>2013-08-18T12:50:28.000Z</time>
      </trkpt>
      <trkpt lat="46.65285" lon="6.26486">
        <ele>1099</ele>
        <time>2013-08-18T12:50:29.000Z</time>
      </trkpt>
      <trkpt lat="46.65285" lon="6.26482">
        <ele>1099</ele>
        <time>2013-08-18T12:50:30.000Z</time>
      </trkpt>
      <trkpt lat="46.65285" lon="6.26477">
        <ele>1099</ele>
        <time>2013-08-18T12:50:31.000Z</time>
      </trkpt>
      <trkpt lat="46.65285" lon="6.26473">
        <ele>1099</ele>
        <time>2013-08-18T12:50:32.000Z</time>
      </trkpt>
      <trkpt lat="46.65286" lon="6.26468">
        <ele>1099</ele>
        <time>2013-08-18T12:50:33.000Z</time>
      </trkpt>
      <trkpt lat="46.65285" lon="6.26459">
        <ele>1099</ele>
        <time>2013-08-18T12:50:35.000Z</time>
      </trkpt>
      <trkpt lat="46.65285" lon="6.26454">
        <ele>1099</ele>
        <time>2013-08-18T12:50:36.000Z</time>
      </trkpt>
      <trkpt lat="46.65285" lon="6.26449">
        <ele>1099</ele>
        <time>2013-08-18T12:50:37.000Z</time>
      </trkpt>
      <trkpt lat="46.65284" lon="6.26444">
        <ele>1099</ele>
        <time>2013-08-18T12:50:38.000Z</time>
      </trkpt>
      <trkpt lat="46.65283" lon="6.26439">
        <ele>1099</ele>
        <time>2013-08-18T12:50:39.000Z</time>
      </trkpt>
      <trkpt lat="46.65282" lon="6.26434">
        <ele>1099</ele>
        <time>2013-08-18T12:50:40.000Z</time>
      </trkpt>
      <trkpt lat="46.65281" lon="6.2643">
        <ele>1098</ele>
        <time>2013-08-18T12:50:41.000Z</time>
      </trkpt>
      <trkpt lat="46.6528" lon="6.26425">
        <ele>1098</ele>
        <time>2013-08-18T12:50:42.000Z</time>
      </trkpt>
      <trkpt lat="46.65278" lon="6.26421">
        <ele>1098</ele>
        <time>2013-08-18T12:50:43.000Z</time>
      </trkpt>
      <trkpt lat="46.65277" lon="6.26416">
        <ele>1098</ele>
        <time>2013-08-18T12:50:44.000Z</time>
      </trkpt>
      <trkpt lat="46.65275" lon="6.26412">
        <ele>1098</ele>
        <time>2013-08-18T12:50:45.000Z</time>
      </trkpt>
      <trkpt lat="46.65273" lon="6.26408">
        <ele>1097</ele>
        <time>2013-08-18T12:50:46.000Z</time>
      </trkpt>
      <trkpt lat="46.65272" lon="6.26404">
        <ele>1097</ele>
        <time>2013-08-18T12:50:47.000Z</time>
      </trkpt>
      <trkpt lat="46.6527" lon="6.264">
        <ele>1097</ele>
        <time>2013-08-18T12:50:48.000Z</time>
      </trkpt>
      <trkpt lat="46.65268" lon="6.26395">
        <ele>1097</ele>
        <time>2013-08-18T12:50:49.000Z</time>
      </trkpt>
      <trkpt lat="46.65266" lon="6.26391">
        <ele>1097</ele>
        <time>2013-08-18T12:50:50.000Z</time>
      </trkpt>
      <trkpt lat="46.65264" lon="6.26387">
        <ele>1097</ele>
        <time>2013-08-18T12:50:51.000Z</time>
      </trkpt>
      <trkpt lat="46.65262" lon="6.26383">
        <ele>1098</ele>
        <time>2013-08-18T12:50:52.000Z</time>
      </trkpt>
      <trkpt lat="46.6526" lon="6.26378">
        <ele>1098</ele>
        <time>2013-08-18T12:50:53.000Z</time>
      </trkpt>
      <trkpt lat="46.65258" lon="6.26374">
        <ele>1097</ele>
        <time>2013-08-18T12:50:54.000Z</time>
      </trkpt>
      <trkpt lat="46.65256" lon="6.26369">
        <ele>1097</ele>
        <time>2013-08-18T12:50:55.000Z</time>
      </trkpt>
      <trkpt lat="46.65255" lon="6.26365">
        <ele>1097</ele>
        <time>2013-08-18T12:50:56.000Z</time>
      </trkpt>
      <trkpt lat="46.65253" lon="6.26361">
        <ele>1097</ele>
        <time>2013-08-18T12:50:57.000Z</time>
      </trkpt>
      <trkpt lat="46.6525" lon="6.26357">
        <ele>1097</ele>
        <time>2013-08-18T12:50:58.000Z</time>
      </trkpt>
      <trkpt lat="46.65248" lon="6.26352">
        <ele>1094</ele>
        <time>2013-08-18T12:50:59.000Z</time>
      </trkpt>
      <trkpt lat="46.65247" lon="6.26348">
        <ele>1094</ele>
        <time>2013-08-18T12:51:00.000Z</time>
      </trkpt>
      <trkpt lat="46.65245" lon="6.26343">
        <ele>1094</ele>
        <time>2013-08-18T12:51:01.000Z</time>
      </trkpt>
      <trkpt lat="46.65243" lon="6.26339">
        <ele>1094</ele>
        <time>2013-08-18T12:51:02.000Z</time>
      </trkpt>
      <trkpt lat="46.65241" lon="6.26335">
        <ele>1094</ele>
        <time>2013-08-18T12:51:03.000Z</time>
      </trkpt>
      <trkpt lat="46.65239" lon="6.2633">
        <ele>1095</ele>
        <time>2013-08-18T12:51:04.000Z</time>
      </trkpt>
      <trkpt lat="46.65237" lon="6.26326">
        <ele>1095</ele>
        <time>2013-08-18T12:51:05.000Z</time>
      </trkpt>
      <trkpt lat="46.65235" lon="6.26322">
        <ele>1095</ele>
        <time>2013-08-18T12:51:06.000Z</time>
      </trkpt>
      <trkpt lat="46.65233" lon="6.26318">
        <ele>1095</ele>
        <time>2013-08-18T12:51:07.000Z</time>
      </trkpt>
      <trkpt lat="46.65232" lon="6.26314">
        <ele>1095</ele>
        <time>2013-08-18T12:51:08.000Z</time>
      </trkpt>
      <trkpt lat="46.6523" lon="6.26311">
        <ele>1095</ele>
        <time>2013-08-18T12:51:09.000Z</time>
      </trkpt>
      <trkpt lat="46.65229" lon="6.26308">
        <ele>1095</ele>
        <time>2013-08-18T12:51:10.000Z</time>
      </trkpt>
      <trkpt lat="46.65227" lon="6.26305">
        <ele>1095</ele>
        <time>2013-08-18T12:51:11.000Z</time>
      </trkpt>
      <trkpt lat="46.65226" lon="6.26303">
        <ele>1095</ele>
        <time>2013-08-18T12:51:12.000Z</time>
      </trkpt>
      <trkpt lat="46.65225" lon="6.263">
        <ele>1095</ele>
        <time>2013-08-18T12:51:13.000Z</time>
      </trkpt>
      <trkpt lat="46.65224" lon="6.26299">
        <ele>1095</ele>
        <time>2013-08-18T12:51:14.000Z</time>
      </trkpt>
      <trkpt lat="46.65223" lon="6.26297">
        <ele>1095</ele>
        <time>2013-08-18T12:51:15.000Z</time>
      </trkpt>
      <trkpt lat="46.65221" lon="6.26295">
        <ele>1095</ele>
        <time>2013-08-18T12:51:16.000Z</time>
      </trkpt>
      <trkpt lat="46.65221" lon="6.26292">
        <ele>1095</ele>
        <time>2013-08-18T12:51:17.000Z</time>
      </trkpt>
      <trkpt lat="46.65219" lon="6.26289">
        <ele>1095</ele>
        <time>2013-08-18T12:51:18.000Z</time>
      </trkpt>
      <trkpt lat="46.65218" lon="6.26287">
        <ele>1095</ele>
        <time>2013-08-18T12:51:19.000Z</time>
      </trkpt>
      <trkpt lat="46.65217" lon="6.26284">
        <ele>1095</ele>
        <time>2013-08-18T12:51:20.000Z</time>
      </trkpt>
      <trkpt lat="46.65216" lon="6.26282">
        <ele>1095</ele>
        <time>2013-08-18T12:51:21.000Z</time>
      </trkpt>
      <trkpt lat="46.65215" lon="6.26279">
        <ele>1095</ele>
        <time>2013-08-18T12:51:22.000Z</time>
      </trkpt>
      <trkpt lat="46.65214" lon="6.26276">
        <ele>1095</ele>
        <time>2013-08-18T12:51:23.000Z</time>
      </trkpt>
      <trkpt lat="46.65213" lon="6.26274">
        <ele>1095</ele>
        <time>2013-08-18T12:51:24.000Z</time>
      </trkpt>
      <trkpt lat="46.65212" lon="6.26271">
        <ele>1096</ele>
        <time>2013-08-18T12:51:25.000Z</time>
      </trkpt>
      <trkpt lat="46.65211" lon="6.26269">
        <ele>1096</ele>
        <time>2013-08-18T12:51:26.000Z</time>
      </trkpt>
      <trkpt lat="46.6521" lon="6.26267">
        <ele>1096</ele>
        <time>2013-08-18T12:51:27.000Z</time>
      </trkpt>
      <trkpt lat="46.65209" lon="6.26265">
        <ele>1096</ele>
        <time>2013-08-18T12:51:28.000Z</time>
      </trkpt>
      <trkpt lat="46.65208" lon="6.26263">
        <ele>1096</ele>
        <time>2013-08-18T12:51:29.000Z</time>
      </trkpt>
      <trkpt lat="46.65207" lon="6.26261">
        <ele>1096</ele>
        <time>2013-08-18T12:51:30.000Z</time>
      </trkpt>
      <trkpt lat="46.65206" lon="6.26259">
        <ele>1096</ele>
        <time>2013-08-18T12:51:31.000Z</time>
      </trkpt>
      <trkpt lat="46.65205" lon="6.26257">
        <ele>1096</ele>
        <time>2013-08-18T12:51:32.000Z</time>
      </trkpt>
      <trkpt lat="46.65204" lon="6.26254">
        <ele>1096</ele>
        <time>2013-08-18T12:51:33.000Z</time>
      </trkpt>
      <trkpt lat="46.65203" lon="6.26253">
        <ele>1096</ele>
        <time>2013-08-18T12:51:34.000Z</time>
      </trkpt>
      <trkpt lat="46.65203" lon="6.26252">
        <ele>1096</ele>
        <time>2013-08-18T12:51:35.000Z</time>
      </trkpt>
      <trkpt lat="46.65203" lon="6.26252">
        <ele>1096</ele>
        <time>2013-08-18T12:51:36.000Z</time>
      </trkpt>
      <trkpt lat="46.65202" lon="6.26252">
        <ele>1096</ele>
        <time>2013-08-18T12:51:39.000Z</time>
      </trkpt>
      <trkpt lat="46.65202" lon="6.26252">
        <ele>1096</ele>
        <time>2013-08-18T12:51:41.000Z</time>
      </trkpt>
      <trkpt lat="46.65202" lon="6.26252">
        <ele>1096</ele>
        <time>2013-08-18T12:51:42.000Z</time>
      </trkpt>
      <trkpt lat="46.65202" lon="6.26252">
        <ele>1096</ele>
        <time>2013-08-18T12:51:44.000Z</time>
      </trkpt>
      <trkpt lat="46.65202" lon="6.26252">
        <ele>1096</ele>
        <time>2013-08-18T12:51:58.000Z</time>
      </trkpt>
      <trkpt lat="46.65201" lon="6.26252">
        <ele>1096</ele>
        <time>2013-08-18T12:52:12.000Z</time>
      </trkpt>
      <trkpt lat="46.65201" lon="6.26252">
        <ele>1096</ele>
        <time>2013-08-18T12:52:16.000Z</time>
      </trkpt>
      <trkpt lat="46.65201" lon="6.26251">
        <ele>1096</ele>
        <time>2013-08-18T12:52:20.000Z</time>
      </trkpt>
      <trkpt lat="46.65201" lon="6.26251">
        <ele>1096</ele>
        <time>2013-08-18T12:52:22.000Z</time>
      </trkpt>
      <trkpt lat="46.652" lon="6.26251">
        <ele>1096</ele>
        <time>2013-08-18T12:52:24.000Z</time>
      </trkpt>
      <trkpt lat="46.65201" lon="6.26251">
        <ele>1096</ele>
        <time>2013-08-18T12:52:31.000Z</time>
      </trkpt>
      <trkpt lat="46.65201" lon="6.2625">
        <ele>1096</ele>
        <time>2013-08-18T12:52:40.000Z</time>
      </trkpt>
      <trkpt lat="46.65201" lon="6.2625">
        <ele>1099</ele>
        <time>2013-08-18T12:52:43.000Z</time>
      </trkpt>
      <trkpt lat="46.65201" lon="6.26249">
        <ele>1099</ele>
        <time>2013-08-18T12:52:45.000Z</time>
      </trkpt>
      <trkpt lat="46.65202" lon="6.26249">
        <ele>1099</ele>
        <time>2013-08-18T12:52:46.000Z</time>
      </trkpt>
      <trkpt lat="46.65202" lon="6.26248">
        <ele>1099</ele>
        <time>2013-08-18T12:52:47.000Z</time>
      </trkpt>
      <trkpt lat="46.65202" lon="6.26248">
        <ele>1099</ele>
        <time>2013-08-18T12:52:48.000Z</time>
      </trkpt>
      <trkpt lat="46.65203" lon="6.26248">
        <ele>1099</ele>
        <time>2013-08-18T12:52:49.000Z</time>
      </trkpt>
      <trkpt lat="46.65203" lon="6.26247">
        <ele>1099</ele>
        <time>2013-08-18T12:52:50.000Z</time>
      </trkpt>
      <trkpt lat="46.65203" lon="6.26247">
        <ele>1099</ele>
        <time>2013-08-18T12:52:53.000Z</time>
      </trkpt>
      <trkpt lat="46.65204" lon="6.26247">
        <ele>1099</ele>
        <time>2013-08-18T12:52:54.000Z</time>
      </trkpt>
      <trkpt lat="46.65204" lon="6.26247">
        <ele>1099</ele>
        <time>2013-08-18T12:52:56.000Z</time>
      </trkpt>
      <trkpt lat="46.65204" lon="6.26246">
        <ele>1099</ele>
        <time>2013-08-18T12:52:58.000Z</time>
      </trkpt>
      <trkpt lat="46.65204" lon="6.26246">
        <ele>1099</ele>
        <time>2013-08-18T12:53:00.000Z</time>
      </trkpt>
      <trkpt lat="46.65204" lon="6.26246">
        <ele>1099</ele>
        <time>2013-08-18T12:53:02.000Z</time>
      </trkpt>
      <trkpt lat="46.65205" lon="6.26246">
        <ele>1099</ele>
        <time>2013-08-18T12:53:04.000Z</time>
      </trkpt>
      <trkpt lat="46.65205" lon="6.26246">
        <ele>1099</ele>
        <time>2013-08-18T12:53:07.000Z</time>
      </trkpt>
      <trkpt lat="46.65205" lon="6.26246">
        <ele>1099</ele>
        <time>2013-08-18T12:53:11.000Z</time>
      </trkpt>
      <trkpt lat="46.65206" lon="6.26245">
        <ele>1099</ele>
        <time>2013-08-18T12:53:19.000Z</time>
      </trkpt>
      <trkpt lat="46.65206" lon="6.26246">
        <ele>1099</ele>
        <time>2013-08-18T12:53:23.000Z</time>
      </trkpt>
      <trkpt lat="46.65206" lon="6.26246">
        <ele>1099</ele>
        <time>2013-08-18T12:53:32.000Z</time>
      </trkpt>
      <trkpt lat="46.65206" lon="6.26247">
        <ele>1099</ele>
        <time>2013-08-18T12:53:35.000Z</time>
      </trkpt>
      <trkpt lat="46.65206" lon="6.26247">
        <ele>1099</ele>
        <time>2013-08-18T12:53:38.000Z</time>
      </trkpt>
      <trkpt lat="46.65206" lon="6.26248">
        <ele>1099</ele>
        <time>2013-08-18T12:53:43.000Z</time>
      </trkpt>
      <trkpt lat="46.65205" lon="6.26248">
        <ele>1099</ele>
        <time>2013-08-18T12:53:47.000Z</time>
      </trkpt>
      <trkpt lat="46.65205" lon="6.26248">
        <ele>1099</ele>
        <time>2013-08-18T12:53:50.000Z</time>
      </trkpt>
      <trkpt lat="46.65205" lon="6.26249">
        <ele>1099</ele>
        <time>2013-08-18T12:53:54.000Z</time>
      </trkpt>
      <trkpt lat="46.65205" lon="6.26249">
        <ele>1099</ele>
        <time>2013-08-18T12:53:58.000Z</time>
      </trkpt>
      <trkpt lat="46.65205" lon="6.26249">
        <ele>1099</ele>
        <time>2013-08-18T12:54:02.000Z</time>
      </trkpt>
      <trkpt lat="46.65205" lon="6.26249">
        <ele>1099</ele>
        <time>2013-08-18T12:54:05.000Z</time>
      </trkpt>
      <trkpt lat="46.65204" lon="6.2625">
        <ele>1099</ele>
        <time>2013-08-18T12:54:10.000Z</time>
      </trkpt>
      <trkpt lat="46.65204" lon="6.2625">
        <ele>1096</ele>
        <time>2013-08-18T12:54:15.000Z</time>
      </trkpt>
      <trkpt lat="46.65204" lon="6.2625">
        <ele>1099</ele>
        <time>2013-08-18T12:54:21.000Z</time>
      </trkpt>
      <trkpt lat="46.65204" lon="6.26249">
        <ele>1099</ele>
        <time>2013-08-18T12:54:25.000Z</time>
      </trkpt>
      <trkpt lat="46.65203" lon="6.26248">
        <ele>1099</ele>
        <time>2013-08-18T12:54:30.000Z</time>
      </trkpt>
      <trkpt lat="46.65203" lon="6.26248">
        <ele>1099</ele>
        <time>2013-08-18T12:54:31.000Z</time>
      </trkpt>
      <trkpt lat="46.65202" lon="6.26248">
        <ele>1099</ele>
        <time>2013-08-18T12:54:32.000Z</time>
      </trkpt>
      <trkpt lat="46.652" lon="6.26248">
        <ele>1099</ele>
        <time>2013-08-18T12:54:33.000Z</time>
      </trkpt>
      <trkpt lat="46.65199" lon="6.26247">
        <ele>1099</ele>
        <time>2013-08-18T12:54:34.000Z</time>
      </trkpt>
      <trkpt lat="46.65198" lon="6.26246">
        <ele>1099</ele>
        <time>2013-08-18T12:54:35.000Z</time>
      </trkpt>
      <trkpt lat="46.65196" lon="6.26244">
        <ele>1099</ele>
        <time>2013-08-18T12:54:36.000Z</time>
      </trkpt>
      <trkpt lat="46.65195" lon="6.26242">
        <ele>1099</ele>
        <time>2013-08-18T12:54:37.000Z</time>
      </trkpt>
      <trkpt lat="46.65194" lon="6.26239">
        <ele>1099</ele>
        <time>2013-08-18T12:54:38.000Z</time>
      </trkpt>
      <trkpt lat="46.65193" lon="6.26237">
        <ele>1099</ele>
        <time>2013-08-18T12:54:39.000Z</time>
      </trkpt>
      <trkpt lat="46.65192" lon="6.26235">
        <ele>1099</ele>
        <time>2013-08-18T12:54:40.000Z</time>
      </trkpt>
      <trkpt lat="46.65192" lon="6.26232">
        <ele>1100</ele>
        <time>2013-08-18T12:54:41.000Z</time>
      </trkpt>
      <trkpt lat="46.65191" lon="6.2623">
        <ele>1100</ele>
        <time>2013-08-18T12:54:42.000Z</time>
      </trkpt>
      <trkpt lat="46.6519" lon="6.26229">
        <ele>1100</ele>
        <time>2013-08-18T12:54:43.000Z</time>
      </trkpt>
      <trkpt lat="46.65189" lon="6.26226">
        <ele>1100</ele>
        <time>2013-08-18T12:54:44.000Z</time>
      </trkpt>
      <trkpt lat="46.65188" lon="6.26224">
        <ele>1100</ele>
        <time>2013-08-18T12:54:45.000Z</time>
      </trkpt>
      <trkpt lat="46.65187" lon="6.26222">
        <ele>1100</ele>
        <time>2013-08-18T12:54:46.000Z</time>
      </trkpt>
      <trkpt lat="46.65186" lon="6.26219">
        <ele>1100</ele>
        <time>2013-08-18T12:54:47.000Z</time>
      </trkpt>
      <trkpt lat="46.65185" lon="6.26217">
        <ele>1100</ele>
        <time>2013-08-18T12:54:48.000Z</time>
      </trkpt>
      <trkpt lat="46.65184" lon="6.26214">
        <ele>1100</ele>
        <time>2013-08-18T12:54:49.000Z</time>
      </trkpt>
      <trkpt lat="46.65183" lon="6.26212">
        <ele>1101</ele>
        <time>2013-08-18T12:54:50.000Z</time>
      </trkpt>
      <trkpt lat="46.65182" lon="6.26209">
        <ele>1101</ele>
        <time>2013-08-18T12:54:51.000Z</time>
      </trkpt>
      <trkpt lat="46.65181" lon="6.26207">
        <ele>1101</ele>
        <time>2013-08-18T12:54:52.000Z</time>
      </trkpt>
      <trkpt lat="46.65181" lon="6.26204">
        <ele>1101</ele>
        <time>2013-08-18T12:54:53.000Z</time>
      </trkpt>
      <trkpt lat="46.6518" lon="6.26202">
        <ele>1101</ele>
        <time>2013-08-18T12:54:54.000Z</time>
      </trkpt>
      <trkpt lat="46.65179" lon="6.26199">
        <ele>1101</ele>
        <time>2013-08-18T12:54:55.000Z</time>
      </trkpt>
      <trkpt lat="46.65178" lon="6.26197">
        <ele>1102</ele>
        <time>2013-08-18T12:54:56.000Z</time>
      </trkpt>
      <trkpt lat="46.65177" lon="6.26194">
        <ele>1102</ele>
        <time>2013-08-18T12:54:57.000Z</time>
      </trkpt>
      <trkpt lat="46.65176" lon="6.26192">
        <ele>1102</ele>
        <time>2013-08-18T12:54:58.000Z</time>
      </trkpt>
      <trkpt lat="46.65175" lon="6.26189">
        <ele>1102</ele>
        <time>2013-08-18T12:54:59.000Z</time>
      </trkpt>
      <trkpt lat="46.65174" lon="6.26187">
        <ele>1102</ele>
        <time>2013-08-18T12:55:00.000Z</time>
      </trkpt>
      <trkpt lat="46.65173" lon="6.26184">
        <ele>1103</ele>
        <time>2013-08-18T12:55:01.000Z</time>
      </trkpt>
      <trkpt lat="46.65172" lon="6.26182">
        <ele>1103</ele>
        <time>2013-08-18T12:55:02.000Z</time>
      </trkpt>
      <trkpt lat="46.65171" lon="6.26179">
        <ele>1103</ele>
        <time>2013-08-18T12:55:03.000Z</time>
      </trkpt>
      <trkpt lat="46.6517" lon="6.26177">
        <ele>1104</ele>
        <time>2013-08-18T12:55:04.000Z</time>
      </trkpt>
      <trkpt lat="46.6517" lon="6.26174">
        <ele>1104</ele>
        <time>2013-08-18T12:55:05.000Z</time>
      </trkpt>
      <trkpt lat="46.65169" lon="6.26172">
        <ele>1104</ele>
        <time>2013-08-18T12:55:06.000Z</time>
      </trkpt>
      <trkpt lat="46.65168" lon="6.2617">
        <ele>1104</ele>
        <time>2013-08-18T12:55:07.000Z</time>
      </trkpt>
      <trkpt lat="46.65167" lon="6.26167">
        <ele>1105</ele>
        <time>2013-08-18T12:55:08.000Z</time>
      </trkpt>
      <trkpt lat="46.65166" lon="6.26165">
        <ele>1105</ele>
        <time>2013-08-18T12:55:09.000Z</time>
      </trkpt>
      <trkpt lat="46.65166" lon="6.26163">
        <ele>1105</ele>
        <time>2013-08-18T12:55:10.000Z</time>
      </trkpt>
      <trkpt lat="46.65165" lon="6.26161">
        <ele>1105</ele>
        <time>2013-08-18T12:55:11.000Z</time>
      </trkpt>
      <trkpt lat="46.65164" lon="6.26159">
        <ele>1105</ele>
        <time>2013-08-18T12:55:12.000Z</time>
      </trkpt>
      <trkpt lat="46.65163" lon="6.26156">
        <ele>1105</ele>
        <time>2013-08-18T12:55:13.000Z</time>
      </trkpt>
      <trkpt lat="46.65163" lon="6.26154">
        <ele>1106</ele>
        <time>2013-08-18T12:55:14.000Z</time>
      </trkpt>
      <trkpt lat="46.65162" lon="6.26151">
        <ele>1106</ele>
        <time>2013-08-18T12:55:15.000Z</time>
      </trkpt>
      <trkpt lat="46.65161" lon="6.26149">
        <ele>1106</ele>
        <time>2013-08-18T12:55:16.000Z</time>
      </trkpt>
      <trkpt lat="46.65161" lon="6.26146">
        <ele>1106</ele>
        <time>2013-08-18T12:55:17.000Z</time>
      </trkpt>
      <trkpt lat="46.6516" lon="6.26143">
        <ele>1106</ele>
        <time>2013-08-18T12:55:18.000Z</time>
      </trkpt>
      <trkpt lat="46.65159" lon="6.2614">
        <ele>1106</ele>
        <time>2013-08-18T12:55:19.000Z</time>
      </trkpt>
      <trkpt lat="46.65158" lon="6.26138">
        <ele>1106</ele>
        <time>2013-08-18T12:55:20.000Z</time>
      </trkpt>
      <trkpt lat="46.65157" lon="6.26135">
        <ele>1106</ele>
        <time>2013-08-18T12:55:21.000Z</time>
      </trkpt>
      <trkpt lat="46.65156" lon="6.26133">
        <ele>1106</ele>
        <time>2013-08-18T12:55:22.000Z</time>
      </trkpt>
      <trkpt lat="46.65155" lon="6.2613">
        <ele>1106</ele>
        <time>2013-08-18T12:55:23.000Z</time>
      </trkpt>
      <trkpt lat="46.65155" lon="6.26127">
        <ele>1107</ele>
        <time>2013-08-18T12:55:24.000Z</time>
      </trkpt>
      <trkpt lat="46.65153" lon="6.26124">
        <ele>1107</ele>
        <time>2013-08-18T12:55:25.000Z</time>
      </trkpt>
      <trkpt lat="46.65152" lon="6.26122">
        <ele>1107</ele>
        <time>2013-08-18T12:55:26.000Z</time>
      </trkpt>
      <trkpt lat="46.65151" lon="6.26119">
        <ele>1107</ele>
        <time>2013-08-18T12:55:27.000Z</time>
      </trkpt>
      <trkpt lat="46.6515" lon="6.26116">
        <ele>1107</ele>
        <time>2013-08-18T12:55:28.000Z</time>
      </trkpt>
      <trkpt lat="46.65148" lon="6.26114">
        <ele>1107</ele>
        <time>2013-08-18T12:55:29.000Z</time>
      </trkpt>
      <trkpt lat="46.65147" lon="6.26111">
        <ele>1107</ele>
        <time>2013-08-18T12:55:30.000Z</time>
      </trkpt>
      <trkpt lat="46.65145" lon="6.26109">
        <ele>1107</ele>
        <time>2013-08-18T12:55:31.000Z</time>
      </trkpt>
      <trkpt lat="46.65144" lon="6.26106">
        <ele>1107</ele>
        <time>2013-08-18T12:55:32.000Z</time>
      </trkpt>
      <trkpt lat="46.65142" lon="6.26104">
        <ele>1107</ele>
        <time>2013-08-18T12:55:33.000Z</time>
      </trkpt>
      <trkpt lat="46.65141" lon="6.26102">
        <ele>1107</ele>
        <time>2013-08-18T12:55:34.000Z</time>
      </trkpt>
      <trkpt lat="46.65139" lon="6.261">
        <ele>1107</ele>
        <time>2013-08-18T12:55:35.000Z</time>
      </trkpt>
      <trkpt lat="46.65138" lon="6.26098">
        <ele>1107</ele>
        <time>2013-08-18T12:55:36.000Z</time>
      </trkpt>
      <trkpt lat="46.65136" lon="6.26096">
        <ele>1107</ele>
        <time>2013-08-18T12:55:37.000Z</time>
      </trkpt>
      <trkpt lat="46.65135" lon="6.26094">
        <ele>1107</ele>
        <time>2013-08-18T12:55:38.000Z</time>
      </trkpt>
      <trkpt lat="46.65133" lon="6.26092">
        <ele>1107</ele>
        <time>2013-08-18T12:55:39.000Z</time>
      </trkpt>
      <trkpt lat="46.65132" lon="6.26091">
        <ele>1107</ele>
        <time>2013-08-18T12:55:40.000Z</time>
      </trkpt>
      <trkpt lat="46.6513" lon="6.26089">
        <ele>1107</ele>
        <time>2013-08-18T12:55:41.000Z</time>
      </trkpt>
      <trkpt lat="46.65129" lon="6.26088">
        <ele>1107</ele>
        <time>2013-08-18T12:55:42.000Z</time>
      </trkpt>
      <trkpt lat="46.65127" lon="6.26086">
        <ele>1107</ele>
        <time>2013-08-18T12:55:43.000Z</time>
      </trkpt>
      <trkpt lat="46.65125" lon="6.26084">
        <ele>1107</ele>
        <time>2013-08-18T12:55:44.000Z</time>
      </trkpt>
      <trkpt lat="46.65124" lon="6.26083">
        <ele>1111</ele>
        <time>2013-08-18T12:55:45.000Z</time>
      </trkpt>
      <trkpt lat="46.65122" lon="6.26081">
        <ele>1111</ele>
        <time>2013-08-18T12:55:46.000Z</time>
      </trkpt>
      <trkpt lat="46.6512" lon="6.2608">
        <ele>1111</ele>
        <time>2013-08-18T12:55:47.000Z</time>
      </trkpt>
      <trkpt lat="46.65118" lon="6.26079">
        <ele>1111</ele>
        <time>2013-08-18T12:55:48.000Z</time>
      </trkpt>
      <trkpt lat="46.65116" lon="6.26077">
        <ele>1111</ele>
        <time>2013-08-18T12:55:49.000Z</time>
      </trkpt>
      <trkpt lat="46.65114" lon="6.26076">
        <ele>1111</ele>
        <time>2013-08-18T12:55:50.000Z</time>
      </trkpt>
      <trkpt lat="46.65112" lon="6.26075">
        <ele>1111</ele>
        <time>2013-08-18T12:55:51.000Z</time>
      </trkpt>
      <trkpt lat="46.6511" lon="6.26073">
        <ele>1110</ele>
        <time>2013-08-18T12:55:52.000Z</time>
      </trkpt>
      <trkpt lat="46.65107" lon="6.26072">
        <ele>1110</ele>
        <time>2013-08-18T12:55:53.000Z</time>
      </trkpt>
      <trkpt lat="46.65105" lon="6.26071">
        <ele>1110</ele>
        <time>2013-08-18T12:55:54.000Z</time>
      </trkpt>
      <trkpt lat="46.65103" lon="6.2607">
        <ele>1110</ele>
        <time>2013-08-18T12:55:55.000Z</time>
      </trkpt>
      <trkpt lat="46.65101" lon="6.26069">
        <ele>1110</ele>
        <time>2013-08-18T12:55:56.000Z</time>
      </trkpt>
      <trkpt lat="46.65099" lon="6.26068">
        <ele>1110</ele>
        <time>2013-08-18T12:55:57.000Z</time>
      </trkpt>
      <trkpt lat="46.65096" lon="6.26067">
        <ele>1110</ele>
        <time>2013-08-18T12:55:58.000Z</time>
      </trkpt>
      <trkpt lat="46.65094" lon="6.26066">
        <ele>1110</ele>
        <time>2013-08-18T12:55:59.000Z</time>
      </trkpt>
      <trkpt lat="46.65091" lon="6.26065">
        <ele>1110</ele>
        <time>2013-08-18T12:56:00.000Z</time>
      </trkpt>
      <trkpt lat="46.65089" lon="6.26064">
        <ele>1110</ele>
        <time>2013-08-18T12:56:01.000Z</time>
      </trkpt>
      <trkpt lat="46.65086" lon="6.26063">
        <ele>1110</ele>
        <time>2013-08-18T12:56:02.000Z</time>
      </trkpt>
      <trkpt lat="46.65083" lon="6.26062">
        <ele>1109</ele>
        <time>2013-08-18T12:56:03.000Z</time>
      </trkpt>
      <trkpt lat="46.65081" lon="6.26061">
        <ele>1109</ele>
        <time>2013-08-18T12:56:04.000Z</time>
      </trkpt>
      <trkpt lat="46.65078" lon="6.2606">
        <ele>1109</ele>
        <time>2013-08-18T12:56:05.000Z</time>
      </trkpt>
      <trkpt lat="46.65076" lon="6.26059">
        <ele>1109</ele>
        <time>2013-08-18T12:56:06.000Z</time>
      </trkpt>
      <trkpt lat="46.65073" lon="6.26058">
        <ele>1109</ele>
        <time>2013-08-18T12:56:07.000Z</time>
      </trkpt>
      <trkpt lat="46.65071" lon="6.26057">
        <ele>1109</ele>
        <time>2013-08-18T12:56:08.000Z</time>
      </trkpt>
      <trkpt lat="46.65068" lon="6.26056">
        <ele>1110</ele>
        <time>2013-08-18T12:56:09.000Z</time>
      </trkpt>
      <trkpt lat="46.65065" lon="6.26055">
        <ele>1110</ele>
        <time>2013-08-18T12:56:10.000Z</time>
      </trkpt>
      <trkpt lat="46.65062" lon="6.26054">
        <ele>1110</ele>
        <time>2013-08-18T12:56:11.000Z</time>
      </trkpt>
      <trkpt lat="46.65059" lon="6.26053">
        <ele>1110</ele>
        <time>2013-08-18T12:56:12.000Z</time>
      </trkpt>
      <trkpt lat="46.65057" lon="6.26052">
        <ele>1110</ele>
        <time>2013-08-18T12:56:13.000Z</time>
      </trkpt>
      <trkpt lat="46.65054" lon="6.2605">
        <ele>1110</ele>
        <time>2013-08-18T12:56:14.000Z</time>
      </trkpt>
      <trkpt lat="46.65051" lon="6.26049">
        <ele>1110</ele>
        <time>2013-08-18T12:56:15.000Z</time>
      </trkpt>
      <trkpt lat="46.65048" lon="6.26048">
        <ele>1110</ele>
        <time>2013-08-18T12:56:16.000Z</time>
      </trkpt>
      <trkpt lat="46.65045" lon="6.26047">
        <ele>1110</ele>
        <time>2013-08-18T12:56:17.000Z</time>
      </trkpt>
      <trkpt lat="46.65043" lon="6.26045">
        <ele>1110</ele>
        <time>2013-08-18T12:56:18.000Z</time>
      </trkpt>
      <trkpt lat="46.6504" lon="6.26044">
        <ele>1110</ele>
        <time>2013-08-18T12:56:19.000Z</time>
      </trkpt>
      <trkpt lat="46.65038" lon="6.26042">
        <ele>1110</ele>
        <time>2013-08-18T12:56:20.000Z</time>
      </trkpt>
      <trkpt lat="46.65035" lon="6.2604">
        <ele>1110</ele>
        <time>2013-08-18T12:56:21.000Z</time>
      </trkpt>
      <trkpt lat="46.65032" lon="6.26039">
        <ele>1110</ele>
        <time>2013-08-18T12:56:22.000Z</time>
      </trkpt>
      <trkpt lat="46.65029" lon="6.26037">
        <ele>1110</ele>
        <time>2013-08-18T12:56:23.000Z</time>
      </trkpt>
      <trkpt lat="46.65027" lon="6.26036">
        <ele>1110</ele>
        <time>2013-08-18T12:56:24.000Z</time>
      </trkpt>
      <trkpt lat="46.65024" lon="6.26034">
        <ele>1110</ele>
        <time>2013-08-18T12:56:25.000Z</time>
      </trkpt>
      <trkpt lat="46.65022" lon="6.26032">
        <ele>1110</ele>
        <time>2013-08-18T12:56:26.000Z</time>
      </trkpt>
      <trkpt lat="46.65019" lon="6.2603">
        <ele>1110</ele>
        <time>2013-08-18T12:56:27.000Z</time>
      </trkpt>
      <trkpt lat="46.65017" lon="6.26028">
        <ele>1110</ele>
        <time>2013-08-18T12:56:28.000Z</time>
      </trkpt>
      <trkpt lat="46.65015" lon="6.26026">
        <ele>1110</ele>
        <time>2013-08-18T12:56:29.000Z</time>
      </trkpt>
      <trkpt lat="46.65013" lon="6.26023">
        <ele>1110</ele>
        <time>2013-08-18T12:56:30.000Z</time>
      </trkpt>
      <trkpt lat="46.6501" lon="6.26021">
        <ele>1110</ele>
        <time>2013-08-18T12:56:31.000Z</time>
      </trkpt>
      <trkpt lat="46.65008" lon="6.26019">
        <ele>1110</ele>
        <time>2013-08-18T12:56:32.000Z</time>
      </trkpt>
      <trkpt lat="46.65006" lon="6.26016">
        <ele>1110</ele>
        <time>2013-08-18T12:56:33.000Z</time>
      </trkpt>
      <trkpt lat="46.65004" lon="6.26013">
        <ele>1111</ele>
        <time>2013-08-18T12:56:34.000Z</time>
      </trkpt>
      <trkpt lat="46.65001" lon="6.26011">
        <ele>1111</ele>
        <time>2013-08-18T12:56:35.000Z</time>
      </trkpt>
      <trkpt lat="46.64999" lon="6.26009">
        <ele>1110</ele>
        <time>2013-08-18T12:56:36.000Z</time>
      </trkpt>
      <trkpt lat="46.64997" lon="6.26006">
        <ele>1110</ele>
        <time>2013-08-18T12:56:37.000Z</time>
      </trkpt>
      <trkpt lat="46.64995" lon="6.26004">
        <ele>1111</ele>
        <time>2013-08-18T12:56:38.000Z</time>
      </trkpt>
      <trkpt lat="46.64993" lon="6.26002">
        <ele>1110</ele>
        <time>2013-08-18T12:56:39.000Z</time>
      </trkpt>
      <trkpt lat="46.64991" lon="6.25999">
        <ele>1112</ele>
        <time>2013-08-18T12:56:40.000Z</time>
      </trkpt>
      <trkpt lat="46.64989" lon="6.25997">
        <ele>1113</ele>
        <time>2013-08-18T12:56:41.000Z</time>
      </trkpt>
      <trkpt lat="46.64987" lon="6.25995">
        <ele>1113</ele>
        <time>2013-08-18T12:56:42.000Z</time>
      </trkpt>
      <trkpt lat="46.64985" lon="6.25992">
        <ele>1113</ele>
        <time>2013-08-18T12:56:43.000Z</time>
      </trkpt>
      <trkpt lat="46.64982" lon="6.2599">
        <ele>1114</ele>
        <time>2013-08-18T12:56:44.000Z</time>
      </trkpt>
      <trkpt lat="46.64979" lon="6.25988">
        <ele>1114</ele>
        <time>2013-08-18T12:56:45.000Z</time>
      </trkpt>
      <trkpt lat="46.64977" lon="6.25986">
        <ele>1114</ele>
        <time>2013-08-18T12:56:46.000Z</time>
      </trkpt>
      <trkpt lat="46.64974" lon="6.25984">
        <ele>1114</ele>
        <time>2013-08-18T12:56:47.000Z</time>
      </trkpt>
      <trkpt lat="46.64971" lon="6.25982">
        <ele>1115</ele>
        <time>2013-08-18T12:56:48.000Z</time>
      </trkpt>
      <trkpt lat="46.64969" lon="6.2598">
        <ele>1115</ele>
        <time>2013-08-18T12:56:49.000Z</time>
      </trkpt>
      <trkpt lat="46.64966" lon="6.25978">
        <ele>1115</ele>
        <time>2013-08-18T12:56:50.000Z</time>
      </trkpt>
      <trkpt lat="46.64963" lon="6.25976">
        <ele>1115</ele>
        <time>2013-08-18T12:56:51.000Z</time>
      </trkpt>
      <trkpt lat="46.6496" lon="6.25975">
        <ele>1115</ele>
        <time>2013-08-18T12:56:52.000Z</time>
      </trkpt>
      <trkpt lat="46.64958" lon="6.25973">
        <ele>1115</ele>
        <time>2013-08-18T12:56:53.000Z</time>
      </trkpt>
      <trkpt lat="46.64955" lon="6.25971">
        <ele>1115</ele>
        <time>2013-08-18T12:56:54.000Z</time>
      </trkpt>
      <trkpt lat="46.64952" lon="6.25969">
        <ele>1115</ele>
        <time>2013-08-18T12:56:55.000Z</time>
      </trkpt>
      <trkpt lat="46.6495" lon="6.25967">
        <ele>1116</ele>
        <time>2013-08-18T12:56:56.000Z</time>
      </trkpt>
      <trkpt lat="46.64947" lon="6.25965">
        <ele>1116</ele>
        <time>2013-08-18T12:56:57.000Z</time>
      </trkpt>
      <trkpt lat="46.64944" lon="6.25963">
        <ele>1116</ele>
        <time>2013-08-18T12:56:58.000Z</time>
      </trkpt>
      <trkpt lat="46.64941" lon="6.25961">
        <ele>1116</ele>
        <time>2013-08-18T12:56:59.000Z</time>
      </trkpt>
      <trkpt lat="46.64939" lon="6.25959">
        <ele>1116</ele>
        <time>2013-08-18T12:57:00.000Z</time>
      </trkpt>
      <trkpt lat="46.64936" lon="6.25957">
        <ele>1116</ele>
        <time>2013-08-18T12:57:01.000Z</time>
      </trkpt>
      <trkpt lat="46.64934" lon="6.25956">
        <ele>1116</ele>
        <time>2013-08-18T12:57:02.000Z</time>
      </trkpt>
      <trkpt lat="46.64931" lon="6.25954">
        <ele>1117</ele>
        <time>2013-08-18T12:57:03.000Z</time>
      </trkpt>
      <trkpt lat="46.64929" lon="6.25952">
        <ele>1117</ele>
        <time>2013-08-18T12:57:04.000Z</time>
      </trkpt>
      <trkpt lat="46.64927" lon="6.2595">
        <ele>1117</ele>
        <time>2013-08-18T12:57:05.000Z</time>
      </trkpt>
      <trkpt lat="46.64924" lon="6.25948">
        <ele>1117</ele>
        <time>2013-08-18T12:57:06.000Z</time>
      </trkpt>
      <trkpt lat="46.64922" lon="6.25946">
        <ele>1117</ele>
        <time>2013-08-18T12:57:07.000Z</time>
      </trkpt>
      <trkpt lat="46.6492" lon="6.25944">
        <ele>1118</ele>
        <time>2013-08-18T12:57:08.000Z</time>
      </trkpt>
      <trkpt lat="46.64917" lon="6.25942">
        <ele>1118</ele>
        <time>2013-08-18T12:57:09.000Z</time>
      </trkpt>
      <trkpt lat="46.64915" lon="6.25941">
        <ele>1120</ele>
        <time>2013-08-18T12:57:10.000Z</time>
      </trkpt>
      <trkpt lat="46.64913" lon="6.25939">
        <ele>1120</ele>
        <time>2013-08-18T12:57:11.000Z</time>
      </trkpt>
      <trkpt lat="46.64911" lon="6.25937">
        <ele>1120</ele>
        <time>2013-08-18T12:57:12.000Z</time>
      </trkpt>
      <trkpt lat="46.64908" lon="6.25936">
        <ele>1120</ele>
        <time>2013-08-18T12:57:13.000Z</time>
      </trkpt>
      <trkpt lat="46.64906" lon="6.25934">
        <ele>1120</ele>
        <time>2013-08-18T12:57:14.000Z</time>
      </trkpt>
      <trkpt lat="46.64903" lon="6.25932">
        <ele>1120</ele>
        <time>2013-08-18T12:57:15.000Z</time>
      </trkpt>
      <trkpt lat="46.64901" lon="6.2593">
        <ele>1120</ele>
        <time>2013-08-18T12:57:16.000Z</time>
      </trkpt>
      <trkpt lat="46.64898" lon="6.25928">
        <ele>1120</ele>
        <time>2013-08-18T12:57:17.000Z</time>
      </trkpt>
      <trkpt lat="46.64895" lon="6.25926">
        <ele>1120</ele>
        <time>2013-08-18T12:57:18.000Z</time>
      </trkpt>
      <trkpt lat="46.64893" lon="6.25924">
        <ele>1120</ele>
        <time>2013-08-18T12:57:19.000Z</time>
      </trkpt>
      <trkpt lat="46.64891" lon="6.25921">
        <ele>1120</ele>
        <time>2013-08-18T12:57:20.000Z</time>
      </trkpt>
      <trkpt lat="46.64888" lon="6.25919">
        <ele>1120</ele>
        <time>2013-08-18T12:57:21.000Z</time>
      </trkpt>
      <trkpt lat="46.64886" lon="6.25917">
        <ele>1124</ele>
        <time>2013-08-18T12:57:22.000Z</time>
      </trkpt>
      <trkpt lat="46.64883" lon="6.25914">
        <ele>1124</ele>
        <time>2013-08-18T12:57:23.000Z</time>
      </trkpt>
      <trkpt lat="46.64881" lon="6.25911">
        <ele>1124</ele>
        <time>2013-08-18T12:57:24.000Z</time>
      </trkpt>
      <trkpt lat="46.64878" lon="6.25909">
        <ele>1124</ele>
        <time>2013-08-18T12:57:25.000Z</time>
      </trkpt>
      <trkpt lat="46.64875" lon="6.25906">
        <ele>1124</ele>
        <time>2013-08-18T12:57:26.000Z</time>
      </trkpt>
      <trkpt lat="46.64872" lon="6.25903">
        <ele>1124</ele>
        <time>2013-08-18T12:57:27.000Z</time>
      </trkpt>
      <trkpt lat="46.64869" lon="6.25901">
        <ele>1125</ele>
        <time>2013-08-18T12:57:28.000Z</time>
      </trkpt>
      <trkpt lat="46.64867" lon="6.25899">
        <ele>1125</ele>
        <time>2013-08-18T12:57:29.000Z</time>
      </trkpt>
      <trkpt lat="46.64863" lon="6.25896">
        <ele>1125</ele>
        <time>2013-08-18T12:57:30.000Z</time>
      </trkpt>
      <trkpt lat="46.64861" lon="6.25894">
        <ele>1125</ele>
        <time>2013-08-18T12:57:31.000Z</time>
      </trkpt>
      <trkpt lat="46.64858" lon="6.25892">
        <ele>1125</ele>
        <time>2013-08-18T12:57:32.000Z</time>
      </trkpt>
      <trkpt lat="46.64856" lon="6.2589">
        <ele>1125</ele>
        <time>2013-08-18T12:57:33.000Z</time>
      </trkpt>
      <trkpt lat="46.64853" lon="6.25888">
        <ele>1125</ele>
        <time>2013-08-18T12:57:34.000Z</time>
      </trkpt>
      <trkpt lat="46.6485" lon="6.25886">
        <ele>1125</ele>
        <time>2013-08-18T12:57:35.000Z</time>
      </trkpt>
      <trkpt lat="46.64847" lon="6.25883">
        <ele>1125</ele>
        <time>2013-08-18T12:57:36.000Z</time>
      </trkpt>
      <trkpt lat="46.64844" lon="6.25881">
        <ele>1125</ele>
        <time>2013-08-18T12:57:37.000Z</time>
      </trkpt>
      <trkpt lat="46.64842" lon="6.25879">
        <ele>1125</ele>
        <time>2013-08-18T12:57:38.000Z</time>
      </trkpt>
      <trkpt lat="46.64839" lon="6.25877">
        <ele>1125</ele>
        <time>2013-08-18T12:57:39.000Z</time>
      </trkpt>
      <trkpt lat="46.64837" lon="6.25875">
        <ele>1125</ele>
        <time>2013-08-18T12:57:40.000Z</time>
      </trkpt>
      <trkpt lat="46.64835" lon="6.25873">
        <ele>1125</ele>
        <time>2013-08-18T12:57:41.000Z</time>
      </trkpt>
      <trkpt lat="46.64832" lon="6.25871">
        <ele>1125</ele>
        <time>2013-08-18T12:57:42.000Z</time>
      </trkpt>
      <trkpt lat="46.64829" lon="6.25869">
        <ele>1125</ele>
        <time>2013-08-18T12:57:43.000Z</time>
      </trkpt>
      <trkpt lat="46.64826" lon="6.25866">
        <ele>1125</ele>
        <time>2013-08-18T12:57:44.000Z</time>
      </trkpt>
      <trkpt lat="46.64823" lon="6.25863">
        <ele>1125</ele>
        <time>2013-08-18T12:57:45.000Z</time>
      </trkpt>
      <trkpt lat="46.6482" lon="6.2586">
        <ele>1125</ele>
        <time>2013-08-18T12:57:46.000Z</time>
      </trkpt>
      <trkpt lat="46.64818" lon="6.25858">
        <ele>1125</ele>
        <time>2013-08-18T12:57:47.000Z</time>
      </trkpt>
      <trkpt lat="46.64816" lon="6.25856">
        <ele>1125</ele>
        <time>2013-08-18T12:57:48.000Z</time>
      </trkpt>
      <trkpt lat="46.64815" lon="6.25853">
        <ele>1125</ele>
        <time>2013-08-18T12:57:49.000Z</time>
      </trkpt>
      <trkpt lat="46.64813" lon="6.25851">
        <ele>1125</ele>
        <time>2013-08-18T12:57:50.000Z</time>
      </trkpt>
      <trkpt lat="46.64811" lon="6.25848">
        <ele>1125</ele>
        <time>2013-08-18T12:57:51.000Z</time>
      </trkpt>
      <trkpt lat="46.64809" lon="6.25844">
        <ele>1125</ele>
        <time>2013-08-18T12:57:52.000Z</time>
      </trkpt>
      <trkpt lat="46.64806" lon="6.2584">
        <ele>1125</ele>
        <time>2013-08-18T12:57:53.000Z</time>
      </trkpt>
      <trkpt lat="46.64805" lon="6.25835">
        <ele>1125</ele>
        <time>2013-08-18T12:57:54.000Z</time>
      </trkpt>
      <trkpt lat="46.64804" lon="6.25829">
        <ele>1123</ele>
        <time>2013-08-18T12:57:55.000Z</time>
      </trkpt>
      <trkpt lat="46.64803" lon="6.25823">
        <ele>1123</ele>
        <time>2013-08-18T12:57:56.000Z</time>
      </trkpt>
      <trkpt lat="46.64801" lon="6.25818">
        <ele>1122</ele>
        <time>2013-08-18T12:57:57.000Z</time>
      </trkpt>
      <trkpt lat="46.648" lon="6.25813">
        <ele>1122</ele>
        <time>2013-08-18T12:57:58.000Z</time>
      </trkpt>
      <trkpt lat="46.64799" lon="6.25808">
        <ele>1122</ele>
        <time>2013-08-18T12:57:59.000Z</time>
      </trkpt>
      <trkpt lat="46.64798" lon="6.25803">
        <ele>1122</ele>
        <time>2013-08-18T12:58:00.000Z</time>
      </trkpt>
      <trkpt lat="46.64797" lon="6.25797">
        <ele>1121</ele>
        <time>2013-08-18T12:58:01.000Z</time>
      </trkpt>
      <trkpt lat="46.64796" lon="6.25792">
        <ele>1121</ele>
        <time>2013-08-18T12:58:02.000Z</time>
      </trkpt>
      <trkpt lat="46.64795" lon="6.25787">
        <ele>1121</ele>
        <time>2013-08-18T12:58:03.000Z</time>
      </trkpt>
      <trkpt lat="46.64795" lon="6.25782">
        <ele>1121</ele>
        <time>2013-08-18T12:58:04.000Z</time>
      </trkpt>
      <trkpt lat="46.64794" lon="6.25777">
        <ele>1120</ele>
        <time>2013-08-18T12:58:05.000Z</time>
      </trkpt>
      <trkpt lat="46.64793" lon="6.25773">
        <ele>1120</ele>
        <time>2013-08-18T12:58:06.000Z</time>
      </trkpt>
      <trkpt lat="46.64792" lon="6.25769">
        <ele>1120</ele>
        <time>2013-08-18T12:58:07.000Z</time>
      </trkpt>
      <trkpt lat="46.64792" lon="6.25765">
        <ele>1120</ele>
        <time>2013-08-18T12:58:08.000Z</time>
      </trkpt>
      <trkpt lat="46.64792" lon="6.25761">
        <ele>1120</ele>
        <time>2013-08-18T12:58:09.000Z</time>
      </trkpt>
      <trkpt lat="46.64791" lon="6.25756">
        <ele>1120</ele>
        <time>2013-08-18T12:58:10.000Z</time>
      </trkpt>
      <trkpt lat="46.64792" lon="6.25747">
        <ele>1116</ele>
        <time>2013-08-18T12:58:12.000Z</time>
      </trkpt>
      <trkpt lat="46.64792" lon="6.25744">
        <ele>1116</ele>
        <time>2013-08-18T12:58:13.000Z</time>
      </trkpt>
      <trkpt lat="46.64792" lon="6.25739">
        <ele>1116</ele>
        <time>2013-08-18T12:58:15.000Z</time>
      </trkpt>
      <trkpt lat="46.64792" lon="6.25738">
        <ele>1116</ele>
        <time>2013-08-18T12:58:16.000Z</time>
      </trkpt>
      <trkpt lat="46.64792" lon="6.25738">
        <ele>1116</ele>
        <time>2013-08-18T12:58:17.000Z</time>
      </trkpt>
      <trkpt lat="46.64792" lon="6.25737">
        <ele>1116</ele>
        <time>2013-08-18T12:58:22.000Z</time>
      </trkpt>
      <trkpt lat="46.64792" lon="6.25736">
        <ele>1116</ele>
        <time>2013-08-18T12:58:26.000Z</time>
      </trkpt>
      <trkpt lat="46.64792" lon="6.25736">
        <ele>1116</ele>
        <time>2013-08-18T12:58:29.000Z</time>
      </trkpt>
      <trkpt lat="46.64793" lon="6.25736">
        <ele>1116</ele>
        <time>2013-08-18T12:58:39.000Z</time>
      </trkpt>
      <trkpt lat="46.64793" lon="6.25736">
        <ele>1116</ele>
        <time>2013-08-18T12:58:49.000Z</time>
      </trkpt>
      <trkpt lat="46.64793" lon="6.25736">
        <ele>1116</ele>
        <time>2013-08-18T12:58:52.000Z</time>
      </trkpt>
      <trkpt lat="46.64793" lon="6.25736">
        <ele>1116</ele>
        <time>2013-08-18T12:58:57.000Z</time>
      </trkpt>
      <trkpt lat="46.64794" lon="6.25735">
        <ele>1116</ele>
        <time>2013-08-18T12:59:04.000Z</time>
      </trkpt>
      <trkpt lat="46.64795" lon="6.25734">
        <ele>1116</ele>
        <time>2013-08-18T12:59:05.000Z</time>
      </trkpt>
      <trkpt lat="46.64796" lon="6.25732">
        <ele>1116</ele>
        <time>2013-08-18T12:59:06.000Z</time>
      </trkpt>
      <trkpt lat="46.64797" lon="6.2573">
        <ele>1116</ele>
        <time>2013-08-18T12:59:07.000Z</time>
      </trkpt>
      <trkpt lat="46.64799" lon="6.25728">
        <ele>1116</ele>
        <time>2013-08-18T12:59:08.000Z</time>
      </trkpt>
      <trkpt lat="46.64802" lon="6.25726">
        <ele>1116</ele>
        <time>2013-08-18T12:59:09.000Z</time>
      </trkpt>
      <trkpt lat="46.64804" lon="6.25723">
        <ele>1116</ele>
        <time>2013-08-18T12:59:10.000Z</time>
      </trkpt>
      <trkpt lat="46.64807" lon="6.25721">
        <ele>1116</ele>
        <time>2013-08-18T12:59:11.000Z</time>
      </trkpt>
      <trkpt lat="46.64809" lon="6.25718">
        <ele>1116</ele>
        <time>2013-08-18T12:59:12.000Z</time>
      </trkpt>
      <trkpt lat="46.64812" lon="6.25715">
        <ele>1116</ele>
        <time>2013-08-18T12:59:13.000Z</time>
      </trkpt>
      <trkpt lat="46.64814" lon="6.25712">
        <ele>1116</ele>
        <time>2013-08-18T12:59:14.000Z</time>
      </trkpt>
      <trkpt lat="46.64816" lon="6.2571">
        <ele>1116</ele>
        <time>2013-08-18T12:59:15.000Z</time>
      </trkpt>
      <trkpt lat="46.64817" lon="6.25708">
        <ele>1116</ele>
        <time>2013-08-18T12:59:16.000Z</time>
      </trkpt>
      <trkpt lat="46.64819" lon="6.25707">
        <ele>1116</ele>
        <time>2013-08-18T12:59:17.000Z</time>
      </trkpt>
      <trkpt lat="46.6482" lon="6.25706">
        <ele>1116</ele>
        <time>2013-08-18T12:59:18.000Z</time>
      </trkpt>
      <trkpt lat="46.6482" lon="6.25704">
        <ele>1116</ele>
        <time>2013-08-18T12:59:19.000Z</time>
      </trkpt>
      <trkpt lat="46.6482" lon="6.25704">
        <ele>1116</ele>
        <time>2013-08-18T12:59:20.000Z</time>
      </trkpt>
      <trkpt lat="46.64821" lon="6.25703">
        <ele>1116</ele>
        <time>2013-08-18T12:59:23.000Z</time>
      </trkpt>
      <trkpt lat="46.64821" lon="6.25703">
        <ele>1116</ele>
        <time>2013-08-18T12:59:24.000Z</time>
      </trkpt>
      <trkpt lat="46.64821" lon="6.25702">
        <ele>1116</ele>
        <time>2013-08-18T12:59:26.000Z</time>
      </trkpt>
      <trkpt lat="46.64821" lon="6.257">
        <ele>1116</ele>
        <time>2013-08-18T12:59:44.000Z</time>
      </trkpt>
      <trkpt lat="46.64821" lon="6.25701">
        <ele>1116</ele>
        <time>2013-08-18T12:59:47.000Z</time>
      </trkpt>
      <trkpt lat="46.6482" lon="6.25701">
        <ele>1116</ele>
        <time>2013-08-18T12:59:50.000Z</time>
      </trkpt>
      <trkpt lat="46.6482" lon="6.25701">
        <ele>1116</ele>
        <time>2013-08-18T12:59:54.000Z</time>
      </trkpt>
      <trkpt lat="46.6482" lon="6.25701">
        <ele>1116</ele>
        <time>2013-08-18T12:59:55.000Z</time>
      </trkpt>
      <trkpt lat="46.6482" lon="6.25701">
        <ele>1116</ele>
        <time>2013-08-18T12:59:56.000Z</time>
      </trkpt>
      <trkpt lat="46.64819" lon="6.25701">
        <ele>1116</ele>
        <time>2013-08-18T12:59:58.000Z</time>
      </trkpt>
      <trkpt lat="46.64819" lon="6.25702">
        <ele>1116</ele>
        <time>2013-08-18T13:00:03.000Z</time>
      </trkpt>
      <trkpt lat="46.64819" lon="6.25702">
        <ele>1116</ele>
        <time>2013-08-18T13:00:09.000Z</time>
      </trkpt>
      <trkpt lat="46.64819" lon="6.25701">
        <ele>1116</ele>
        <time>2013-08-18T13:00:12.000Z</time>
      </trkpt>
      <trkpt lat="46.64819" lon="6.25701">
        <ele>1116</ele>
        <time>2013-08-18T13:00:18.000Z</time>
      </trkpt>
      <trkpt lat="46.64819" lon="6.25701">
        <ele>1116</ele>
        <time>2013-08-18T13:00:21.000Z</time>
      </trkpt>
      <trkpt lat="46.6482" lon="6.25701">
        <ele>1116</ele>
        <time>2013-08-18T13:00:23.000Z</time>
      </trkpt>
      <trkpt lat="46.6482" lon="6.25701">
        <ele>1116</ele>
        <time>2013-08-18T13:00:25.000Z</time>
      </trkpt>
      <trkpt lat="46.6482" lon="6.257">
        <ele>1116</ele>
        <time>2013-08-18T13:00:28.000Z</time>
      </trkpt>
      <trkpt lat="46.6482" lon="6.257">
        <ele>1116</ele>
        <time>2013-08-18T13:00:29.000Z</time>
      </trkpt>
      <trkpt lat="46.6482" lon="6.257">
        <ele>1116</ele>
        <time>2013-08-18T13:00:30.000Z</time>
      </trkpt>
      <trkpt lat="46.6482" lon="6.257">
        <ele>1116</ele>
        <time>2013-08-18T13:00:31.000Z</time>
      </trkpt>
      <trkpt lat="46.64821" lon="6.25699">
        <ele>1116</ele>
        <time>2013-08-18T13:00:33.000Z</time>
      </trkpt>
      <trkpt lat="46.64821" lon="6.25699">
        <ele>1116</ele>
        <time>2013-08-18T13:00:34.000Z</time>
      </trkpt>
      <trkpt lat="46.64821" lon="6.25699">
        <ele>1116</ele>
        <time>2013-08-18T13:00:36.000Z</time>
      </trkpt>
      <trkpt lat="46.6482" lon="6.25699">
        <ele>1116</ele>
        <time>2013-08-18T13:00:38.000Z</time>
      </trkpt>
      <trkpt lat="46.6482" lon="6.25699">
        <ele>1116</ele>
        <time>2013-08-18T13:00:39.000Z</time>
      </trkpt>
      <trkpt lat="46.64821" lon="6.25698">
        <ele>1116</ele>
        <time>2013-08-18T13:00:42.000Z</time>
      </trkpt>
      <trkpt lat="46.64822" lon="6.25697">
        <ele>1116</ele>
        <time>2013-08-18T13:00:43.000Z</time>
      </trkpt>
      <trkpt lat="46.64823" lon="6.25696">
        <ele>1116</ele>
        <time>2013-08-18T13:00:44.000Z</time>
      </trkpt>
      <trkpt lat="46.64825" lon="6.25694">
        <ele>1116</ele>
        <time>2013-08-18T13:00:45.000Z</time>
      </trkpt>
      <trkpt lat="46.64827" lon="6.25692">
        <ele>1115</ele>
        <time>2013-08-18T13:00:46.000Z</time>
      </trkpt>
      <trkpt lat="46.64829" lon="6.2569">
        <ele>1115</ele>
        <time>2013-08-18T13:00:47.000Z</time>
      </trkpt>
      <trkpt lat="46.64831" lon="6.25688">
        <ele>1115</ele>
        <time>2013-08-18T13:00:48.000Z</time>
      </trkpt>
      <trkpt lat="46.64833" lon="6.25685">
        <ele>1115</ele>
        <time>2013-08-18T13:00:49.000Z</time>
      </trkpt>
      <trkpt lat="46.64835" lon="6.25683">
        <ele>1118</ele>
        <time>2013-08-18T13:00:50.000Z</time>
      </trkpt>
      <trkpt lat="46.64838" lon="6.2568">
        <ele>1118</ele>
        <time>2013-08-18T13:00:51.000Z</time>
      </trkpt>
      <trkpt lat="46.64841" lon="6.25677">
        <ele>1118</ele>
        <time>2013-08-18T13:00:52.000Z</time>
      </trkpt>
      <trkpt lat="46.64843" lon="6.25674">
        <ele>1118</ele>
        <time>2013-08-18T13:00:53.000Z</time>
      </trkpt>
      <trkpt lat="46.64846" lon="6.25671">
        <ele>1118</ele>
        <time>2013-08-18T13:00:54.000Z</time>
      </trkpt>
      <trkpt lat="46.64848" lon="6.25668">
        <ele>1118</ele>
        <time>2013-08-18T13:00:55.000Z</time>
      </trkpt>
      <trkpt lat="46.64851" lon="6.25665">
        <ele>1117</ele>
        <time>2013-08-18T13:00:56.000Z</time>
      </trkpt>
      <trkpt lat="46.64853" lon="6.25662">
        <ele>1117</ele>
        <time>2013-08-18T13:00:57.000Z</time>
      </trkpt>
      <trkpt lat="46.64855" lon="6.25659">
        <ele>1117</ele>
        <time>2013-08-18T13:00:58.000Z</time>
      </trkpt>
      <trkpt lat="46.64857" lon="6.25656">
        <ele>1117</ele>
        <time>2013-08-18T13:00:59.000Z</time>
      </trkpt>
      <trkpt lat="46.6486" lon="6.25654">
        <ele>1118</ele>
        <time>2013-08-18T13:01:00.000Z</time>
      </trkpt>
      <trkpt lat="46.64862" lon="6.25651">
        <ele>1118</ele>
        <time>2013-08-18T13:01:01.000Z</time>
      </trkpt>
      <trkpt lat="46.64864" lon="6.25648">
        <ele>1118</ele>
        <time>2013-08-18T13:01:02.000Z</time>
      </trkpt>
      <trkpt lat="46.64866" lon="6.25645">
        <ele>1118</ele>
        <time>2013-08-18T13:01:03.000Z</time>
      </trkpt>
      <trkpt lat="46.64868" lon="6.25642">
        <ele>1118</ele>
        <time>2013-08-18T13:01:04.000Z</time>
      </trkpt>
      <trkpt lat="46.6487" lon="6.25639">
        <ele>1118</ele>
        <time>2013-08-18T13:01:05.000Z</time>
      </trkpt>
      <trkpt lat="46.64872" lon="6.25636">
        <ele>1118</ele>
        <time>2013-08-18T13:01:06.000Z</time>
      </trkpt>
      <trkpt lat="46.64874" lon="6.25633">
        <ele>1118</ele>
        <time>2013-08-18T13:01:07.000Z</time>
      </trkpt>
      <trkpt lat="46.64876" lon="6.2563">
        <ele>1118</ele>
        <time>2013-08-18T13:01:08.000Z</time>
      </trkpt>
      <trkpt lat="46.64878" lon="6.25626">
        <ele>1118</ele>
        <time>2013-08-18T13:01:09.000Z</time>
      </trkpt>
      <trkpt lat="46.6488" lon="6.25623">
        <ele>1118</ele>
        <time>2013-08-18T13:01:10.000Z</time>
      </trkpt>
      <trkpt lat="46.64882" lon="6.2562">
        <ele>1119</ele>
        <time>2013-08-18T13:01:11.000Z</time>
      </trkpt>
      <trkpt lat="46.64884" lon="6.25617">
        <ele>1119</ele>
        <time>2013-08-18T13:01:12.000Z</time>
      </trkpt>
      <trkpt lat="46.64886" lon="6.25614">
        <ele>1119</ele>
        <time>2013-08-18T13:01:13.000Z</time>
      </trkpt>
      <trkpt lat="46.64888" lon="6.25611">
        <ele>1119</ele>
        <time>2013-08-18T13:01:14.000Z</time>
      </trkpt>
      <trkpt lat="46.64889" lon="6.25608">
        <ele>1119</ele>
        <time>2013-08-18T13:01:15.000Z</time>
      </trkpt>
      <trkpt lat="46.64891" lon="6.25605">
        <ele>1119</ele>
        <time>2013-08-18T13:01:16.000Z</time>
      </trkpt>
      <trkpt lat="46.64893" lon="6.25602">
        <ele>1119</ele>
        <time>2013-08-18T13:01:17.000Z</time>
      </trkpt>
      <trkpt lat="46.64895" lon="6.25599">
        <ele>1119</ele>
        <time>2013-08-18T13:01:18.000Z</time>
      </trkpt>
      <trkpt lat="46.64897" lon="6.25596">
        <ele>1120</ele>
        <time>2013-08-18T13:01:19.000Z</time>
      </trkpt>
      <trkpt lat="46.64899" lon="6.25593">
        <ele>1120</ele>
        <time>2013-08-18T13:01:20.000Z</time>
      </trkpt>
      <trkpt lat="46.649" lon="6.2559">
        <ele>1120</ele>
        <time>2013-08-18T13:01:21.000Z</time>
      </trkpt>
      <trkpt lat="46.64902" lon="6.25587">
        <ele>1120</ele>
        <time>2013-08-18T13:01:22.000Z</time>
      </trkpt>
      <trkpt lat="46.64904" lon="6.25585">
        <ele>1120</ele>
        <time>2013-08-18T13:01:23.000Z</time>
      </trkpt>
      <trkpt lat="46.64906" lon="6.25582">
        <ele>1119</ele>
        <time>2013-08-18T13:01:24.000Z</time>
      </trkpt>
      <trkpt lat="46.64908" lon="6.25579">
        <ele>1119</ele>
        <time>2013-08-18T13:01:25.000Z</time>
      </trkpt>
      <trkpt lat="46.64909" lon="6.25576">
        <ele>1119</ele>
        <time>2013-08-18T13:01:26.000Z</time>
      </trkpt>
      <trkpt lat="46.64911" lon="6.25573">
        <ele>1119</ele>
        <time>2013-08-18T13:01:27.000Z</time>
      </trkpt>
      <trkpt lat="46.64913" lon="6.2557">
        <ele>1119</ele>
        <time>2013-08-18T13:01:28.000Z</time>
      </trkpt>
      <trkpt lat="46.64915" lon="6.25566">
        <ele>1118</ele>
        <time>2013-08-18T13:01:29.000Z</time>
      </trkpt>
      <trkpt lat="46.64917" lon="6.25562">
        <ele>1124</ele>
        <time>2013-08-18T13:01:30.000Z</time>
      </trkpt>
      <trkpt lat="46.64919" lon="6.25558">
        <ele>1124</ele>
        <time>2013-08-18T13:01:31.000Z</time>
      </trkpt>
      <trkpt lat="46.6492" lon="6.25555">
        <ele>1124</ele>
        <time>2013-08-18T13:01:32.000Z</time>
      </trkpt>
      <trkpt lat="46.64922" lon="6.25551">
        <ele>1124</ele>
        <time>2013-08-18T13:01:33.000Z</time>
      </trkpt>
      <trkpt lat="46.64923" lon="6.25547">
        <ele>1124</ele>
        <time>2013-08-18T13:01:34.000Z</time>
      </trkpt>
      <trkpt lat="46.64925" lon="6.25543">
        <ele>1124</ele>
        <time>2013-08-18T13:01:35.000Z</time>
      </trkpt>
      <trkpt lat="46.64927" lon="6.25539">
        <ele>1123</ele>
        <time>2013-08-18T13:01:36.000Z</time>
      </trkpt>
      <trkpt lat="46.64929" lon="6.25536">
        <ele>1123</ele>
        <time>2013-08-18T13:01:37.000Z</time>
      </trkpt>
      <trkpt lat="46.6493" lon="6.25532">
        <ele>1123</ele>
        <time>2013-08-18T13:01:38.000Z</time>
      </trkpt>
      <trkpt lat="46.64932" lon="6.25528">
        <ele>1123</ele>
        <time>2013-08-18T13:01:39.000Z</time>
      </trkpt>
      <trkpt lat="46.64933" lon="6.25524">
        <ele>1123</ele>
        <time>2013-08-18T13:01:40.000Z</time>
      </trkpt>
      <trkpt lat="46.64935" lon="6.2552">
        <ele>1122</ele>
        <time>2013-08-18T13:01:41.000Z</time>
      </trkpt>
      <trkpt lat="46.64936" lon="6.25516">
        <ele>1122</ele>
        <time>2013-08-18T13:01:42.000Z</time>
      </trkpt>
      <trkpt lat="46.64938" lon="6.25512">
        <ele>1122</ele>
        <time>2013-08-18T13:01:43.000Z</time>
      </trkpt>
      <trkpt lat="46.64939" lon="6.25507">
        <ele>1122</ele>
        <time>2013-08-18T13:01:44.000Z</time>
      </trkpt>
      <trkpt lat="46.6494" lon="6.25503">
        <ele>1122</ele>
        <time>2013-08-18T13:01:45.000Z</time>
      </trkpt>
      <trkpt lat="46.64942" lon="6.25499">
        <ele>1122</ele>
        <time>2013-08-18T13:01:46.000Z</time>
      </trkpt>
      <trkpt lat="46.64943" lon="6.25495">
        <ele>1123</ele>
        <time>2013-08-18T13:01:47.000Z</time>
      </trkpt>
      <trkpt lat="46.64943" lon="6.25491">
        <ele>1123</ele>
        <time>2013-08-18T13:01:48.000Z</time>
      </trkpt>
      <trkpt lat="46.64944" lon="6.25487">
        <ele>1123</ele>
        <time>2013-08-18T13:01:49.000Z</time>
      </trkpt>
      <trkpt lat="46.64945" lon="6.25483">
        <ele>1124</ele>
        <time>2013-08-18T13:01:50.000Z</time>
      </trkpt>
      <trkpt lat="46.64945" lon="6.25479">
        <ele>1124</ele>
        <time>2013-08-18T13:01:51.000Z</time>
      </trkpt>
      <trkpt lat="46.64945" lon="6.25474">
        <ele>1124</ele>
        <time>2013-08-18T13:01:52.000Z</time>
      </trkpt>
      <trkpt lat="46.64946" lon="6.2547">
        <ele>1124</ele>
        <time>2013-08-18T13:01:53.000Z</time>
      </trkpt>
      <trkpt lat="46.64946" lon="6.25466">
        <ele>1125</ele>
        <time>2013-08-18T13:01:54.000Z</time>
      </trkpt>
      <trkpt lat="46.64946" lon="6.25448">
        <ele>1125</ele>
        <time>2013-08-18T13:01:58.000Z</time>
      </trkpt>
      <trkpt lat="46.64945" lon="6.25434">
        <ele>1125</ele>
        <time>2013-08-18T13:02:01.000Z</time>
      </trkpt>
      <trkpt lat="46.64946" lon="6.2542">
        <ele>1125</ele>
        <time>2013-08-18T13:02:04.000Z</time>
      </trkpt>
      <trkpt lat="46.64946" lon="6.25415">
        <ele>1128</ele>
        <time>2013-08-18T13:02:05.000Z</time>
      </trkpt>
      <trkpt lat="46.64946" lon="6.2541">
        <ele>1128</ele>
        <time>2013-08-18T13:02:06.000Z</time>
      </trkpt>
      <trkpt lat="46.64945" lon="6.25396">
        <ele>1129</ele>
        <time>2013-08-18T13:02:09.000Z</time>
      </trkpt>
      <trkpt lat="46.64945" lon="6.25391">
        <ele>1130</ele>
        <time>2013-08-18T13:02:10.000Z</time>
      </trkpt>
      <trkpt lat="46.64945" lon="6.25387">
        <ele>1130</ele>
        <time>2013-08-18T13:02:11.000Z</time>
      </trkpt>
      <trkpt lat="46.64945" lon="6.25383">
        <ele>1130</ele>
        <time>2013-08-18T13:02:12.000Z</time>
      </trkpt>
      <trkpt lat="46.64945" lon="6.2538">
        <ele>1130</ele>
        <time>2013-08-18T13:02:13.000Z</time>
      </trkpt>
      <trkpt lat="46.64944" lon="6.25377">
        <ele>1130</ele>
        <time>2013-08-18T13:02:14.000Z</time>
      </trkpt>
      <trkpt lat="46.64944" lon="6.25374">
        <ele>1131</ele>
        <time>2013-08-18T13:02:15.000Z</time>
      </trkpt>
      <trkpt lat="46.64944" lon="6.25372">
        <ele>1131</ele>
        <time>2013-08-18T13:02:16.000Z</time>
      </trkpt>
      <trkpt lat="46.64943" lon="6.25368">
        <ele>1131</ele>
        <time>2013-08-18T13:02:17.000Z</time>
      </trkpt>
      <trkpt lat="46.64943" lon="6.25365">
        <ele>1131</ele>
        <time>2013-08-18T13:02:18.000Z</time>
      </trkpt>
      <trkpt lat="46.64942" lon="6.25363">
        <ele>1131</ele>
        <time>2013-08-18T13:02:19.000Z</time>
      </trkpt>
      <trkpt lat="46.6494" lon="6.2536">
        <ele>1131</ele>
        <time>2013-08-18T13:02:20.000Z</time>
      </trkpt>
      <trkpt lat="46.64939" lon="6.25358">
        <ele>1131</ele>
        <time>2013-08-18T13:02:21.000Z</time>
      </trkpt>
      <trkpt lat="46.64938" lon="6.25355">
        <ele>1131</ele>
        <time>2013-08-18T13:02:22.000Z</time>
      </trkpt>
      <trkpt lat="46.64936" lon="6.25353">
        <ele>1131</ele>
        <time>2013-08-18T13:02:23.000Z</time>
      </trkpt>
      <trkpt lat="46.64934" lon="6.25352">
        <ele>1131</ele>
        <time>2013-08-18T13:02:24.000Z</time>
      </trkpt>
      <trkpt lat="46.64933" lon="6.25349">
        <ele>1131</ele>
        <time>2013-08-18T13:02:25.000Z</time>
      </trkpt>
      <trkpt lat="46.64932" lon="6.25347">
        <ele>1131</ele>
        <time>2013-08-18T13:02:26.000Z</time>
      </trkpt>
      <trkpt lat="46.6493" lon="6.25345">
        <ele>1130</ele>
        <time>2013-08-18T13:02:27.000Z</time>
      </trkpt>
      <trkpt lat="46.64929" lon="6.25342">
        <ele>1130</ele>
        <time>2013-08-18T13:02:28.000Z</time>
      </trkpt>
      <trkpt lat="46.64928" lon="6.25339">
        <ele>1130</ele>
        <time>2013-08-18T13:02:29.000Z</time>
      </trkpt>
      <trkpt lat="46.64927" lon="6.25336">
        <ele>1130</ele>
        <time>2013-08-18T13:02:30.000Z</time>
      </trkpt>
      <trkpt lat="46.64927" lon="6.25333">
        <ele>1132</ele>
        <time>2013-08-18T13:02:31.000Z</time>
      </trkpt>
      <trkpt lat="46.64926" lon="6.2533">
        <ele>1133</ele>
        <time>2013-08-18T13:02:32.000Z</time>
      </trkpt>
      <trkpt lat="46.64926" lon="6.25327">
        <ele>1133</ele>
        <time>2013-08-18T13:02:33.000Z</time>
      </trkpt>
      <trkpt lat="46.64925" lon="6.25324">
        <ele>1133</ele>
        <time>2013-08-18T13:02:34.000Z</time>
      </trkpt>
      <trkpt lat="46.64924" lon="6.25321">
        <ele>1134</ele>
        <time>2013-08-18T13:02:35.000Z</time>
      </trkpt>
      <trkpt lat="46.64922" lon="6.25318">
        <ele>1134</ele>
        <time>2013-08-18T13:02:36.000Z</time>
      </trkpt>
      <trkpt lat="46.64921" lon="6.25314">
        <ele>1135</ele>
        <time>2013-08-18T13:02:37.000Z</time>
      </trkpt>
      <trkpt lat="46.64919" lon="6.2531">
        <ele>1135</ele>
        <time>2013-08-18T13:02:38.000Z</time>
      </trkpt>
      <trkpt lat="46.64918" lon="6.25306">
        <ele>1136</ele>
        <time>2013-08-18T13:02:39.000Z</time>
      </trkpt>
      <trkpt lat="46.64916" lon="6.25302">
        <ele>1128</ele>
        <time>2013-08-18T13:02:40.000Z</time>
      </trkpt>
      <trkpt lat="46.64915" lon="6.25298">
        <ele>1128</ele>
        <time>2013-08-18T13:02:41.000Z</time>
      </trkpt>
      <trkpt lat="46.64913" lon="6.25294">
        <ele>1128</ele>
        <time>2013-08-18T13:02:42.000Z</time>
      </trkpt>
      <trkpt lat="46.64911" lon="6.25291">
        <ele>1128</ele>
        <time>2013-08-18T13:02:43.000Z</time>
      </trkpt>
      <trkpt lat="46.64911" lon="6.25288">
        <ele>1128</ele>
        <time>2013-08-18T13:02:44.000Z</time>
      </trkpt>
      <trkpt lat="46.6491" lon="6.25284">
        <ele>1129</ele>
        <time>2013-08-18T13:02:45.000Z</time>
      </trkpt>
      <trkpt lat="46.64909" lon="6.25281">
        <ele>1129</ele>
        <time>2013-08-18T13:02:46.000Z</time>
      </trkpt>
      <trkpt lat="46.64908" lon="6.25279">
        <ele>1129</ele>
        <time>2013-08-18T13:02:47.000Z</time>
      </trkpt>
      <trkpt lat="46.64907" lon="6.25275">
        <ele>1129</ele>
        <time>2013-08-18T13:02:48.000Z</time>
      </trkpt>
      <trkpt lat="46.64906" lon="6.25272">
        <ele>1130</ele>
        <time>2013-08-18T13:02:49.000Z</time>
      </trkpt>
      <trkpt lat="46.64905" lon="6.25268">
        <ele>1130</ele>
        <time>2013-08-18T13:02:50.000Z</time>
      </trkpt>
      <trkpt lat="46.64904" lon="6.25265">
        <ele>1130</ele>
        <time>2013-08-18T13:02:51.000Z</time>
      </trkpt>
      <trkpt lat="46.64903" lon="6.25262">
        <ele>1131</ele>
        <time>2013-08-18T13:02:52.000Z</time>
      </trkpt>
      <trkpt lat="46.64902" lon="6.25259">
        <ele>1131</ele>
        <time>2013-08-18T13:02:53.000Z</time>
      </trkpt>
      <trkpt lat="46.649" lon="6.25256">
        <ele>1131</ele>
        <time>2013-08-18T13:02:54.000Z</time>
      </trkpt>
      <trkpt lat="46.64899" lon="6.25253">
        <ele>1131</ele>
        <time>2013-08-18T13:02:55.000Z</time>
      </trkpt>
      <trkpt lat="46.64898" lon="6.2525">
        <ele>1131</ele>
        <time>2013-08-18T13:02:56.000Z</time>
      </trkpt>
      <trkpt lat="46.64896" lon="6.25248">
        <ele>1135</ele>
        <time>2013-08-18T13:02:57.000Z</time>
      </trkpt>
      <trkpt lat="46.64895" lon="6.25245">
        <ele>1135</ele>
        <time>2013-08-18T13:02:58.000Z</time>
      </trkpt>
      <trkpt lat="46.64893" lon="6.25242">
        <ele>1134</ele>
        <time>2013-08-18T13:02:59.000Z</time>
      </trkpt>
      <trkpt lat="46.64892" lon="6.25239">
        <ele>1134</ele>
        <time>2013-08-18T13:03:00.000Z</time>
      </trkpt>
      <trkpt lat="46.6489" lon="6.25236">
        <ele>1134</ele>
        <time>2013-08-18T13:03:01.000Z</time>
      </trkpt>
      <trkpt lat="46.64888" lon="6.25232">
        <ele>1134</ele>
        <time>2013-08-18T13:03:02.000Z</time>
      </trkpt>
      <trkpt lat="46.64886" lon="6.25229">
        <ele>1134</ele>
        <time>2013-08-18T13:03:03.000Z</time>
      </trkpt>
      <trkpt lat="46.64885" lon="6.25226">
        <ele>1134</ele>
        <time>2013-08-18T13:03:04.000Z</time>
      </trkpt>
      <trkpt lat="46.64884" lon="6.25223">
        <ele>1134</ele>
        <time>2013-08-18T13:03:05.000Z</time>
      </trkpt>
      <trkpt lat="46.64883" lon="6.25219">
        <ele>1134</ele>
        <time>2013-08-18T13:03:06.000Z</time>
      </trkpt>
      <trkpt lat="46.64882" lon="6.25216">
        <ele>1134</ele>
        <time>2013-08-18T13:03:07.000Z</time>
      </trkpt>
      <trkpt lat="46.64881" lon="6.25212">
        <ele>1134</ele>
        <time>2013-08-18T13:03:08.000Z</time>
      </trkpt>
      <trkpt lat="46.64879" lon="6.25207">
        <ele>1135</ele>
        <time>2013-08-18T13:03:09.000Z</time>
      </trkpt>
      <trkpt lat="46.64877" lon="6.25203">
        <ele>1135</ele>
        <time>2013-08-18T13:03:10.000Z</time>
      </trkpt>
      <trkpt lat="46.64876" lon="6.25199">
        <ele>1135</ele>
        <time>2013-08-18T13:03:11.000Z</time>
      </trkpt>
      <trkpt lat="46.64874" lon="6.25195">
        <ele>1135</ele>
        <time>2013-08-18T13:03:12.000Z</time>
      </trkpt>
      <trkpt lat="46.64872" lon="6.25191">
        <ele>1135</ele>
        <time>2013-08-18T13:03:13.000Z</time>
      </trkpt>
      <trkpt lat="46.64871" lon="6.25187">
        <ele>1135</ele>
        <time>2013-08-18T13:03:14.000Z</time>
      </trkpt>
      <trkpt lat="46.6487" lon="6.25183">
        <ele>1135</ele>
        <time>2013-08-18T13:03:15.000Z</time>
      </trkpt>
      <trkpt lat="46.64869" lon="6.25179">
        <ele>1135</ele>
        <time>2013-08-18T13:03:16.000Z</time>
      </trkpt>
      <trkpt lat="46.64867" lon="6.25175">
        <ele>1135</ele>
        <time>2013-08-18T13:03:17.000Z</time>
      </trkpt>
      <trkpt lat="46.64866" lon="6.25171">
        <ele>1135</ele>
        <time>2013-08-18T13:03:18.000Z</time>
      </trkpt>
      <trkpt lat="46.64866" lon="6.25168">
        <ele>1135</ele>
        <time>2013-08-18T13:03:19.000Z</time>
      </trkpt>
      <trkpt lat="46.64865" lon="6.25164">
        <ele>1140</ele>
        <time>2013-08-18T13:03:20.000Z</time>
      </trkpt>
      <trkpt lat="46.64864" lon="6.25161">
        <ele>1140</ele>
        <time>2013-08-18T13:03:21.000Z</time>
      </trkpt>
      <trkpt lat="46.64862" lon="6.25157">
        <ele>1140</ele>
        <time>2013-08-18T13:03:22.000Z</time>
      </trkpt>
      <trkpt lat="46.64861" lon="6.25153">
        <ele>1140</ele>
        <time>2013-08-18T13:03:23.000Z</time>
      </trkpt>
      <trkpt lat="46.6486" lon="6.25149">
        <ele>1140</ele>
        <time>2013-08-18T13:03:24.000Z</time>
      </trkpt>
      <trkpt lat="46.64859" lon="6.25145">
        <ele>1140</ele>
        <time>2013-08-18T13:03:25.000Z</time>
      </trkpt>
      <trkpt lat="46.64857" lon="6.25141">
        <ele>1140</ele>
        <time>2013-08-18T13:03:26.000Z</time>
      </trkpt>
      <trkpt lat="46.64856" lon="6.25138">
        <ele>1140</ele>
        <time>2013-08-18T13:03:27.000Z</time>
      </trkpt>
      <trkpt lat="46.64854" lon="6.25134">
        <ele>1140</ele>
        <time>2013-08-18T13:03:28.000Z</time>
      </trkpt>
      <trkpt lat="46.64853" lon="6.25131">
        <ele>1140</ele>
        <time>2013-08-18T13:03:29.000Z</time>
      </trkpt>
      <trkpt lat="46.64851" lon="6.25128">
        <ele>1140</ele>
        <time>2013-08-18T13:03:30.000Z</time>
      </trkpt>
      <trkpt lat="46.64849" lon="6.25125">
        <ele>1140</ele>
        <time>2013-08-18T13:03:31.000Z</time>
      </trkpt>
      <trkpt lat="46.64848" lon="6.25122">
        <ele>1141</ele>
        <time>2013-08-18T13:03:32.000Z</time>
      </trkpt>
      <trkpt lat="46.64847" lon="6.25119">
        <ele>1141</ele>
        <time>2013-08-18T13:03:33.000Z</time>
      </trkpt>
      <trkpt lat="46.64845" lon="6.25116">
        <ele>1141</ele>
        <time>2013-08-18T13:03:34.000Z</time>
      </trkpt>
      <trkpt lat="46.64844" lon="6.25113">
        <ele>1141</ele>
        <time>2013-08-18T13:03:35.000Z</time>
      </trkpt>
      <trkpt lat="46.64843" lon="6.2511">
        <ele>1141</ele>
        <time>2013-08-18T13:03:36.000Z</time>
      </trkpt>
      <trkpt lat="46.64842" lon="6.25106">
        <ele>1141</ele>
        <time>2013-08-18T13:03:37.000Z</time>
      </trkpt>
      <trkpt lat="46.6484" lon="6.25104">
        <ele>1141</ele>
        <time>2013-08-18T13:03:38.000Z</time>
      </trkpt>
      <trkpt lat="46.64839" lon="6.25102">
        <ele>1140</ele>
        <time>2013-08-18T13:03:39.000Z</time>
      </trkpt>
      <trkpt lat="46.64837" lon="6.25099">
        <ele>1140</ele>
        <time>2013-08-18T13:03:40.000Z</time>
      </trkpt>
      <trkpt lat="46.64835" lon="6.25098">
        <ele>1140</ele>
        <time>2013-08-18T13:03:41.000Z</time>
      </trkpt>
      <trkpt lat="46.64834" lon="6.25096">
        <ele>1140</ele>
        <time>2013-08-18T13:03:42.000Z</time>
      </trkpt>
      <trkpt lat="46.64832" lon="6.25094">
        <ele>1137</ele>
        <time>2013-08-18T13:03:43.000Z</time>
      </trkpt>
      <trkpt lat="46.6483" lon="6.25091">
        <ele>1138</ele>
        <time>2013-08-18T13:03:44.000Z</time>
      </trkpt>
      <trkpt lat="46.64828" lon="6.25088">
        <ele>1138</ele>
        <time>2013-08-18T13:03:45.000Z</time>
      </trkpt>
      <trkpt lat="46.64827" lon="6.25086">
        <ele>1138</ele>
        <time>2013-08-18T13:03:46.000Z</time>
      </trkpt>
      <trkpt lat="46.64824" lon="6.25084">
        <ele>1137</ele>
        <time>2013-08-18T13:03:47.000Z</time>
      </trkpt>
      <trkpt lat="46.64823" lon="6.25083">
        <ele>1139</ele>
        <time>2013-08-18T13:03:48.000Z</time>
      </trkpt>
      <trkpt lat="46.64821" lon="6.25081">
        <ele>1140</ele>
        <time>2013-08-18T13:03:49.000Z</time>
      </trkpt>
      <trkpt lat="46.6482" lon="6.25078">
        <ele>1140</ele>
        <time>2013-08-18T13:03:50.000Z</time>
      </trkpt>
      <trkpt lat="46.64818" lon="6.25076">
        <ele>1140</ele>
        <time>2013-08-18T13:03:51.000Z</time>
      </trkpt>
      <trkpt lat="46.64816" lon="6.25072">
        <ele>1140</ele>
        <time>2013-08-18T13:03:52.000Z</time>
      </trkpt>
      <trkpt lat="46.64814" lon="6.25069">
        <ele>1140</ele>
        <time>2013-08-18T13:03:53.000Z</time>
      </trkpt>
      <trkpt lat="46.64813" lon="6.25066">
        <ele>1140</ele>
        <time>2013-08-18T13:03:54.000Z</time>
      </trkpt>
      <trkpt lat="46.64811" lon="6.25064">
        <ele>1140</ele>
        <time>2013-08-18T13:03:55.000Z</time>
      </trkpt>
      <trkpt lat="46.6481" lon="6.25062">
        <ele>1140</ele>
        <time>2013-08-18T13:03:56.000Z</time>
      </trkpt>
      <trkpt lat="46.64808" lon="6.25059">
        <ele>1140</ele>
        <time>2013-08-18T13:03:57.000Z</time>
      </trkpt>
      <trkpt lat="46.64807" lon="6.25057">
        <ele>1140</ele>
        <time>2013-08-18T13:03:58.000Z</time>
      </trkpt>
      <trkpt lat="46.64807" lon="6.25055">
        <ele>1140</ele>
        <time>2013-08-18T13:03:59.000Z</time>
      </trkpt>
      <trkpt lat="46.64805" lon="6.25052">
        <ele>1140</ele>
        <time>2013-08-18T13:04:00.000Z</time>
      </trkpt>
      <trkpt lat="46.64803" lon="6.2505">
        <ele>1141</ele>
        <time>2013-08-18T13:04:01.000Z</time>
      </trkpt>
      <trkpt lat="46.64801" lon="6.25046">
        <ele>1141</ele>
        <time>2013-08-18T13:04:02.000Z</time>
      </trkpt>
      <trkpt lat="46.648" lon="6.25044">
        <ele>1141</ele>
        <time>2013-08-18T13:04:03.000Z</time>
      </trkpt>
      <trkpt lat="46.64798" lon="6.2504">
        <ele>1141</ele>
        <time>2013-08-18T13:04:04.000Z</time>
      </trkpt>
      <trkpt lat="46.64797" lon="6.25037">
        <ele>1141</ele>
        <time>2013-08-18T13:04:05.000Z</time>
      </trkpt>
      <trkpt lat="46.64795" lon="6.25034">
        <ele>1141</ele>
        <time>2013-08-18T13:04:06.000Z</time>
      </trkpt>
      <trkpt lat="46.64795" lon="6.2503">
        <ele>1141</ele>
        <time>2013-08-18T13:04:07.000Z</time>
      </trkpt>
      <trkpt lat="46.64794" lon="6.25027">
        <ele>1141</ele>
        <time>2013-08-18T13:04:08.000Z</time>
      </trkpt>
      <trkpt lat="46.64794" lon="6.25023">
        <ele>1141</ele>
        <time>2013-08-18T13:04:09.000Z</time>
      </trkpt>
      <trkpt lat="46.64793" lon="6.2502">
        <ele>1141</ele>
        <time>2013-08-18T13:04:10.000Z</time>
      </trkpt>
      <trkpt lat="46.64793" lon="6.25018">
        <ele>1141</ele>
        <time>2013-08-18T13:04:11.000Z</time>
      </trkpt>
      <trkpt lat="46.64792" lon="6.25015">
        <ele>1141</ele>
        <time>2013-08-18T13:04:12.000Z</time>
      </trkpt>
      <trkpt lat="46.64791" lon="6.25012">
        <ele>1141</ele>
        <time>2013-08-18T13:04:13.000Z</time>
      </trkpt>
      <trkpt lat="46.6479" lon="6.2501">
        <ele>1141</ele>
        <time>2013-08-18T13:04:14.000Z</time>
      </trkpt>
      <trkpt lat="46.64788" lon="6.25006">
        <ele>1141</ele>
        <time>2013-08-18T13:04:15.000Z</time>
      </trkpt>
      <trkpt lat="46.64787" lon="6.25002">
        <ele>1141</ele>
        <time>2013-08-18T13:04:16.000Z</time>
      </trkpt>
      <trkpt lat="46.64786" lon="6.24999">
        <ele>1145</ele>
        <time>2013-08-18T13:04:17.000Z</time>
      </trkpt>
      <trkpt lat="46.64785" lon="6.24996">
        <ele>1144</ele>
        <time>2013-08-18T13:04:18.000Z</time>
      </trkpt>
      <trkpt lat="46.64784" lon="6.24992">
        <ele>1144</ele>
        <time>2013-08-18T13:04:19.000Z</time>
      </trkpt>
      <trkpt lat="46.64784" lon="6.24988">
        <ele>1145</ele>
        <time>2013-08-18T13:04:20.000Z</time>
      </trkpt>
      <trkpt lat="46.64784" lon="6.24983">
        <ele>1145</ele>
        <time>2013-08-18T13:04:21.000Z</time>
      </trkpt>
      <trkpt lat="46.64783" lon="6.2498">
        <ele>1145</ele>
        <time>2013-08-18T13:04:22.000Z</time>
      </trkpt>
      <trkpt lat="46.64783" lon="6.24977">
        <ele>1145</ele>
        <time>2013-08-18T13:04:23.000Z</time>
      </trkpt>
      <trkpt lat="46.64783" lon="6.24973">
        <ele>1145</ele>
        <time>2013-08-18T13:04:24.000Z</time>
      </trkpt>
      <trkpt lat="46.64782" lon="6.24969">
        <ele>1145</ele>
        <time>2013-08-18T13:04:25.000Z</time>
      </trkpt>
      <trkpt lat="46.64782" lon="6.24965">
        <ele>1145</ele>
        <time>2013-08-18T13:04:26.000Z</time>
      </trkpt>
      <trkpt lat="46.64781" lon="6.24961">
        <ele>1145</ele>
        <time>2013-08-18T13:04:27.000Z</time>
      </trkpt>
      <trkpt lat="46.64781" lon="6.24956">
        <ele>1145</ele>
        <time>2013-08-18T13:04:28.000Z</time>
      </trkpt>
      <trkpt lat="46.64781" lon="6.24952">
        <ele>1145</ele>
        <time>2013-08-18T13:04:29.000Z</time>
      </trkpt>
      <trkpt lat="46.6478" lon="6.2495">
        <ele>1145</ele>
        <time>2013-08-18T13:04:30.000Z</time>
      </trkpt>
      <trkpt lat="46.64779" lon="6.24948">
        <ele>1145</ele>
        <time>2013-08-18T13:04:31.000Z</time>
      </trkpt>
      <trkpt lat="46.64779" lon="6.24946">
        <ele>1145</ele>
        <time>2013-08-18T13:04:32.000Z</time>
      </trkpt>
      <trkpt lat="46.64778" lon="6.24943">
        <ele>1145</ele>
        <time>2013-08-18T13:04:33.000Z</time>
      </trkpt>
      <trkpt lat="46.64777" lon="6.24941">
        <ele>1145</ele>
        <time>2013-08-18T13:04:34.000Z</time>
      </trkpt>
      <trkpt lat="46.64776" lon="6.24939">
        <ele>1145</ele>
        <time>2013-08-18T13:04:35.000Z</time>
      </trkpt>
      <trkpt lat="46.64775" lon="6.24936">
        <ele>1145</ele>
        <time>2013-08-18T13:04:36.000Z</time>
      </trkpt>
      <trkpt lat="46.64775" lon="6.24934">
        <ele>1145</ele>
        <time>2013-08-18T13:04:37.000Z</time>
      </trkpt>
      <trkpt lat="46.64774" lon="6.24931">
        <ele>1145</ele>
        <time>2013-08-18T13:04:38.000Z</time>
      </trkpt>
      <trkpt lat="46.64772" lon="6.24927">
        <ele>1145</ele>
        <time>2013-08-18T13:04:39.000Z</time>
      </trkpt>
      <trkpt lat="46.64771" lon="6.24924">
        <ele>1145</ele>
        <time>2013-08-18T13:04:40.000Z</time>
      </trkpt>
      <trkpt lat="46.6477" lon="6.24921">
        <ele>1145</ele>
        <time>2013-08-18T13:04:41.000Z</time>
      </trkpt>
      <trkpt lat="46.64769" lon="6.24919">
        <ele>1145</ele>
        <time>2013-08-18T13:04:42.000Z</time>
      </trkpt>
      <trkpt lat="46.64767" lon="6.24916">
        <ele>1147</ele>
        <time>2013-08-18T13:04:43.000Z</time>
      </trkpt>
      <trkpt lat="46.64765" lon="6.24913">
        <ele>1147</ele>
        <time>2013-08-18T13:04:44.000Z</time>
      </trkpt>
      <trkpt lat="46.64764" lon="6.2491">
        <ele>1147</ele>
        <time>2013-08-18T13:04:45.000Z</time>
      </trkpt>
      <trkpt lat="46.64762" lon="6.24908">
        <ele>1147</ele>
        <time>2013-08-18T13:04:46.000Z</time>
      </trkpt>
      <trkpt lat="46.64761" lon="6.24905">
        <ele>1147</ele>
        <time>2013-08-18T13:04:47.000Z</time>
      </trkpt>
      <trkpt lat="46.6476" lon="6.24902">
        <ele>1147</ele>
        <time>2013-08-18T13:04:48.000Z</time>
      </trkpt>
      <trkpt lat="46.64758" lon="6.249">
        <ele>1148</ele>
        <time>2013-08-18T13:04:49.000Z</time>
      </trkpt>
      <trkpt lat="46.64756" lon="6.24897">
        <ele>1148</ele>
        <time>2013-08-18T13:04:50.000Z</time>
      </trkpt>
      <trkpt lat="46.64754" lon="6.24895">
        <ele>1148</ele>
        <time>2013-08-18T13:04:51.000Z</time>
      </trkpt>
      <trkpt lat="46.64753" lon="6.24892">
        <ele>1148</ele>
        <time>2013-08-18T13:04:52.000Z</time>
      </trkpt>
      <trkpt lat="46.64752" lon="6.24889">
        <ele>1149</ele>
        <time>2013-08-18T13:04:53.000Z</time>
      </trkpt>
      <trkpt lat="46.64751" lon="6.24887">
        <ele>1149</ele>
        <time>2013-08-18T13:04:54.000Z</time>
      </trkpt>
      <trkpt lat="46.64751" lon="6.24885">
        <ele>1149</ele>
        <time>2013-08-18T13:04:55.000Z</time>
      </trkpt>
      <trkpt lat="46.6475" lon="6.24884">
        <ele>1149</ele>
        <time>2013-08-18T13:04:56.000Z</time>
      </trkpt>
      <trkpt lat="46.6475" lon="6.24882">
        <ele>1143</ele>
        <time>2013-08-18T13:04:57.000Z</time>
      </trkpt>
      <trkpt lat="46.6475" lon="6.24877">
        <ele>1143</ele>
        <time>2013-08-18T13:05:00.000Z</time>
      </trkpt>
      <trkpt lat="46.6475" lon="6.24875">
        <ele>1150</ele>
        <time>2013-08-18T13:05:01.000Z</time>
      </trkpt>
      <trkpt lat="46.6475" lon="6.24873">
        <ele>1150</ele>
        <time>2013-08-18T13:05:02.000Z</time>
      </trkpt>
      <trkpt lat="46.6475" lon="6.24872">
        <ele>1150</ele>
        <time>2013-08-18T13:05:03.000Z</time>
      </trkpt>
      <trkpt lat="46.64751" lon="6.2487">
        <ele>1150</ele>
        <time>2013-08-18T13:05:04.000Z</time>
      </trkpt>
      <trkpt lat="46.64751" lon="6.24869">
        <ele>1150</ele>
        <time>2013-08-18T13:05:05.000Z</time>
      </trkpt>
      <trkpt lat="46.64751" lon="6.24868">
        <ele>1150</ele>
        <time>2013-08-18T13:05:06.000Z</time>
      </trkpt>
      <trkpt lat="46.64751" lon="6.24866">
        <ele>1150</ele>
        <time>2013-08-18T13:05:07.000Z</time>
      </trkpt>
      <trkpt lat="46.64751" lon="6.24865">
        <ele>1150</ele>
        <time>2013-08-18T13:05:08.000Z</time>
      </trkpt>
      <trkpt lat="46.64752" lon="6.24864">
        <ele>1150</ele>
        <time>2013-08-18T13:05:09.000Z</time>
      </trkpt>
      <trkpt lat="46.64752" lon="6.24863">
        <ele>1150</ele>
        <time>2013-08-18T13:05:10.000Z</time>
      </trkpt>
      <trkpt lat="46.64752" lon="6.24862">
        <ele>1150</ele>
        <time>2013-08-18T13:05:11.000Z</time>
      </trkpt>
      <trkpt lat="46.64753" lon="6.2486">
        <ele>1150</ele>
        <time>2013-08-18T13:05:12.000Z</time>
      </trkpt>
      <trkpt lat="46.64753" lon="6.24859">
        <ele>1150</ele>
        <time>2013-08-18T13:05:13.000Z</time>
      </trkpt>
      <trkpt lat="46.64753" lon="6.24858">
        <ele>1150</ele>
        <time>2013-08-18T13:05:14.000Z</time>
      </trkpt>
      <trkpt lat="46.64753" lon="6.24858">
        <ele>1150</ele>
        <time>2013-08-18T13:05:15.000Z</time>
      </trkpt>
      <trkpt lat="46.64754" lon="6.24857">
        <ele>1150</ele>
        <time>2013-08-18T13:05:16.000Z</time>
      </trkpt>
      <trkpt lat="46.64754" lon="6.24856">
        <ele>1150</ele>
        <time>2013-08-18T13:05:17.000Z</time>
      </trkpt>
      <trkpt lat="46.64754" lon="6.24855">
        <ele>1150</ele>
        <time>2013-08-18T13:05:18.000Z</time>
      </trkpt>
      <trkpt lat="46.64754" lon="6.24854">
        <ele>1150</ele>
        <time>2013-08-18T13:05:19.000Z</time>
      </trkpt>
      <trkpt lat="46.64754" lon="6.24854">
        <ele>1150</ele>
        <time>2013-08-18T13:05:20.000Z</time>
      </trkpt>
      <trkpt lat="46.64754" lon="6.24852">
        <ele>1150</ele>
        <time>2013-08-18T13:05:22.000Z</time>
      </trkpt>
      <trkpt lat="46.64755" lon="6.24851">
        <ele>1150</ele>
        <time>2013-08-18T13:05:24.000Z</time>
      </trkpt>
      <trkpt lat="46.64755" lon="6.24851">
        <ele>1150</ele>
        <time>2013-08-18T13:05:25.000Z</time>
      </trkpt>
      <trkpt lat="46.64755" lon="6.24849">
        <ele>1150</ele>
        <time>2013-08-18T13:05:27.000Z</time>
      </trkpt>
      <trkpt lat="46.64755" lon="6.24849">
        <ele>1150</ele>
        <time>2013-08-18T13:05:28.000Z</time>
      </trkpt>
      <trkpt lat="46.64755" lon="6.24848">
        <ele>1150</ele>
        <time>2013-08-18T13:05:29.000Z</time>
      </trkpt>
      <trkpt lat="46.64755" lon="6.24847">
        <ele>1150</ele>
        <time>2013-08-18T13:05:31.000Z</time>
      </trkpt>
      <trkpt lat="46.64756" lon="6.24846">
        <ele>1150</ele>
        <time>2013-08-18T13:05:33.000Z</time>
      </trkpt>
      <trkpt lat="46.64756" lon="6.24845">
        <ele>1150</ele>
        <time>2013-08-18T13:05:37.000Z</time>
      </trkpt>
      <trkpt lat="46.64756" lon="6.24844">
        <ele>1150</ele>
        <time>2013-08-18T13:05:39.000Z</time>
      </trkpt>
      <trkpt lat="46.64756" lon="6.24844">
        <ele>1150</ele>
        <time>2013-08-18T13:05:40.000Z</time>
      </trkpt>
      <trkpt lat="46.64756" lon="6.24844">
        <ele>1150</ele>
        <time>2013-08-18T13:05:41.000Z</time>
      </trkpt>
      <trkpt lat="46.64756" lon="6.24843">
        <ele>1150</ele>
        <time>2013-08-18T13:05:42.000Z</time>
      </trkpt>
      <trkpt lat="46.64757" lon="6.24843">
        <ele>1150</ele>
        <time>2013-08-18T13:05:43.000Z</time>
      </trkpt>
      <trkpt lat="46.64757" lon="6.24843">
        <ele>1150</ele>
        <time>2013-08-18T13:05:44.000Z</time>
      </trkpt>
      <trkpt lat="46.64757" lon="6.24843">
        <ele>1150</ele>
        <time>2013-08-18T13:05:45.000Z</time>
      </trkpt>
      <trkpt lat="46.64757" lon="6.24843">
        <ele>1150</ele>
        <time>2013-08-18T13:05:47.000Z</time>
      </trkpt>
      <trkpt lat="46.64758" lon="6.24842">
        <ele>1150</ele>
        <time>2013-08-18T13:05:48.000Z</time>
      </trkpt>
      <trkpt lat="46.64758" lon="6.24842">
        <ele>1150</ele>
        <time>2013-08-18T13:05:49.000Z</time>
      </trkpt>
      <trkpt lat="46.64758" lon="6.24842">
        <ele>1150</ele>
        <time>2013-08-18T13:05:50.000Z</time>
      </trkpt>
      <trkpt lat="46.64758" lon="6.24842">
        <ele>1150</ele>
        <time>2013-08-18T13:05:51.000Z</time>
      </trkpt>
      <trkpt lat="46.64759" lon="6.24842">
        <ele>1150</ele>
        <time>2013-08-18T13:05:52.000Z</time>
      </trkpt>
      <trkpt lat="46.64759" lon="6.24841">
        <ele>1150</ele>
        <time>2013-08-18T13:05:53.000Z</time>
      </trkpt>
      <trkpt lat="46.64759" lon="6.24842">
        <ele>1150</ele>
        <time>2013-08-18T13:05:56.000Z</time>
      </trkpt>
      <trkpt lat="46.64759" lon="6.24841">
        <ele>1150</ele>
        <time>2013-08-18T13:05:57.000Z</time>
      </trkpt>
      <trkpt lat="46.64759" lon="6.24842">
        <ele>1150</ele>
        <time>2013-08-18T13:06:01.000Z</time>
      </trkpt>
      <trkpt lat="46.64759" lon="6.24842">
        <ele>1150</ele>
        <time>2013-08-18T13:06:02.000Z</time>
      </trkpt>
      <trkpt lat="46.64759" lon="6.24842">
        <ele>1150</ele>
        <time>2013-08-18T13:06:07.000Z</time>
      </trkpt>
      <trkpt lat="46.64759" lon="6.24842">
        <ele>1150</ele>
        <time>2013-08-18T13:06:09.000Z</time>
      </trkpt>
      <trkpt lat="46.64759" lon="6.24842">
        <ele>1150</ele>
        <time>2013-08-18T13:06:11.000Z</time>
      </trkpt>
      <trkpt lat="46.64758" lon="6.24842">
        <ele>1150</ele>
        <time>2013-08-18T13:06:12.000Z</time>
      </trkpt>
      <trkpt lat="46.64758" lon="6.24842">
        <ele>1150</ele>
        <time>2013-08-18T13:06:14.000Z</time>
      </trkpt>
      <trkpt lat="46.64758" lon="6.24841">
        <ele>1150</ele>
        <time>2013-08-18T13:06:15.000Z</time>
      </trkpt>
      <trkpt lat="46.64758" lon="6.2484">
        <ele>1150</ele>
        <time>2013-08-18T13:06:19.000Z</time>
      </trkpt>
      <trkpt lat="46.64758" lon="6.2484">
        <ele>1150</ele>
        <time>2013-08-18T13:06:21.000Z</time>
      </trkpt>
      <trkpt lat="46.64757" lon="6.2484">
        <ele>1150</ele>
        <time>2013-08-18T13:06:24.000Z</time>
      </trkpt>
      <trkpt lat="46.64757" lon="6.2484">
        <ele>1150</ele>
        <time>2013-08-18T13:06:25.000Z</time>
      </trkpt>
      <trkpt lat="46.64757" lon="6.24839">
        <ele>1150</ele>
        <time>2013-08-18T13:06:26.000Z</time>
      </trkpt>
      <trkpt lat="46.64757" lon="6.24837">
        <ele>1150</ele>
        <time>2013-08-18T13:06:29.000Z</time>
      </trkpt>
      <trkpt lat="46.64757" lon="6.24837">
        <ele>1150</ele>
        <time>2013-08-18T13:06:30.000Z</time>
      </trkpt>
      <trkpt lat="46.64757" lon="6.24837">
        <ele>1150</ele>
        <time>2013-08-18T13:06:32.000Z</time>
      </trkpt>
      <trkpt lat="46.64757" lon="6.24836">
        <ele>1150</ele>
        <time>2013-08-18T13:06:35.000Z</time>
      </trkpt>
      <trkpt lat="46.64757" lon="6.24836">
        <ele>1150</ele>
        <time>2013-08-18T13:06:38.000Z</time>
      </trkpt>
      <trkpt lat="46.64758" lon="6.24835">
        <ele>1150</ele>
        <time>2013-08-18T13:06:40.000Z</time>
      </trkpt>
      <trkpt lat="46.64758" lon="6.24836">
        <ele>1150</ele>
        <time>2013-08-18T13:06:44.000Z</time>
      </trkpt>
      <trkpt lat="46.64758" lon="6.24836">
        <ele>1150</ele>
        <time>2013-08-18T13:06:48.000Z</time>
      </trkpt>
      <trkpt lat="46.64758" lon="6.24837">
        <ele>1150</ele>
        <time>2013-08-18T13:06:50.000Z</time>
      </trkpt>
      <trkpt lat="46.64758" lon="6.24837">
        <ele>1150</ele>
        <time>2013-08-18T13:06:51.000Z</time>
      </trkpt>
      <trkpt lat="46.64758" lon="6.24841">
        <ele>1150</ele>
        <time>2013-08-18T13:06:59.000Z</time>
      </trkpt>
      <trkpt lat="46.64758" lon="6.24841">
        <ele>1150</ele>
        <time>2013-08-18T13:07:00.000Z</time>
      </trkpt>
      <trkpt lat="46.64757" lon="6.24842">
        <ele>1150</ele>
        <time>2013-08-18T13:07:03.000Z</time>
      </trkpt>
      <trkpt lat="46.64757" lon="6.24843">
        <ele>1150</ele>
        <time>2013-08-18T13:07:04.000Z</time>
      </trkpt>
      <trkpt lat="46.64757" lon="6.24843">
        <ele>1150</ele>
        <time>2013-08-18T13:07:06.000Z</time>
      </trkpt>
      <trkpt lat="46.64758" lon="6.24843">
        <ele>1150</ele>
        <time>2013-08-18T13:07:08.000Z</time>
      </trkpt>
      <trkpt lat="46.64758" lon="6.24843">
        <ele>1150</ele>
        <time>2013-08-18T13:07:09.000Z</time>
      </trkpt>
      <trkpt lat="46.64758" lon="6.24843">
        <ele>1150</ele>
        <time>2013-08-18T13:07:12.000Z</time>
      </trkpt>
      <trkpt lat="46.64758" lon="6.24843">
        <ele>1150</ele>
        <time>2013-08-18T13:07:13.000Z</time>
      </trkpt>
      <trkpt lat="46.64759" lon="6.24843">
        <ele>1150</ele>
        <time>2013-08-18T13:07:16.000Z</time>
      </trkpt>
      <trkpt lat="46.64759" lon="6.24844">
        <ele>1150</ele>
        <time>2013-08-18T13:07:21.000Z</time>
      </trkpt>
      <trkpt lat="46.64759" lon="6.24845">
        <ele>1150</ele>
        <time>2013-08-18T13:07:26.000Z</time>
      </trkpt>
      <trkpt lat="46.64758" lon="6.24845">
        <ele>1150</ele>
        <time>2013-08-18T13:07:27.000Z</time>
      </trkpt>
      <trkpt lat="46.64757" lon="6.24845">
        <ele>1150</ele>
        <time>2013-08-18T13:07:33.000Z</time>
      </trkpt>
      <trkpt lat="46.64755" lon="6.24845">
        <ele>1150</ele>
        <time>2013-08-18T13:07:34.000Z</time>
      </trkpt>
      <trkpt lat="46.64754" lon="6.24844">
        <ele>1150</ele>
        <time>2013-08-18T13:07:35.000Z</time>
      </trkpt>
      <trkpt lat="46.64753" lon="6.24843">
        <ele>1150</ele>
        <time>2013-08-18T13:07:36.000Z</time>
      </trkpt>
      <trkpt lat="46.64751" lon="6.24841">
        <ele>1150</ele>
        <time>2013-08-18T13:07:37.000Z</time>
      </trkpt>
      <trkpt lat="46.6475" lon="6.2484">
        <ele>1147</ele>
        <time>2013-08-18T13:07:38.000Z</time>
      </trkpt>
      <trkpt lat="46.64748" lon="6.24838">
        <ele>1148</ele>
        <time>2013-08-18T13:07:39.000Z</time>
      </trkpt>
      <trkpt lat="46.64747" lon="6.24837">
        <ele>1148</ele>
        <time>2013-08-18T13:07:40.000Z</time>
      </trkpt>
      <trkpt lat="46.64746" lon="6.24836">
        <ele>1148</ele>
        <time>2013-08-18T13:07:41.000Z</time>
      </trkpt>
      <trkpt lat="46.64745" lon="6.24834">
        <ele>1148</ele>
        <time>2013-08-18T13:07:42.000Z</time>
      </trkpt>
      <trkpt lat="46.64743" lon="6.24832">
        <ele>1148</ele>
        <time>2013-08-18T13:07:43.000Z</time>
      </trkpt>
      <trkpt lat="46.64741" lon="6.2483">
        <ele>1148</ele>
        <time>2013-08-18T13:07:44.000Z</time>
      </trkpt>
      <trkpt lat="46.6474" lon="6.24828">
        <ele>1148</ele>
        <time>2013-08-18T13:07:45.000Z</time>
      </trkpt>
      <trkpt lat="46.64738" lon="6.24826">
        <ele>1148</ele>
        <time>2013-08-18T13:07:46.000Z</time>
      </trkpt>
      <trkpt lat="46.64736" lon="6.24823">
        <ele>1148</ele>
        <time>2013-08-18T13:07:47.000Z</time>
      </trkpt>
      <trkpt lat="46.64734" lon="6.2482">
        <ele>1148</ele>
        <time>2013-08-18T13:07:48.000Z</time>
      </trkpt>
      <trkpt lat="46.64732" lon="6.24817">
        <ele>1148</ele>
        <time>2013-08-18T13:07:49.000Z</time>
      </trkpt>
      <trkpt lat="46.6473" lon="6.24814">
        <ele>1148</ele>
        <time>2013-08-18T13:07:50.000Z</time>
      </trkpt>
      <trkpt lat="46.64728" lon="6.24811">
        <ele>1148</ele>
        <time>2013-08-18T13:07:51.000Z</time>
      </trkpt>
      <trkpt lat="46.64725" lon="6.24808">
        <ele>1147</ele>
        <time>2013-08-18T13:07:52.000Z</time>
      </trkpt>
      <trkpt lat="46.64723" lon="6.24805">
        <ele>1147</ele>
        <time>2013-08-18T13:07:53.000Z</time>
      </trkpt>
      <trkpt lat="46.64721" lon="6.24803">
        <ele>1147</ele>
        <time>2013-08-18T13:07:54.000Z</time>
      </trkpt>
      <trkpt lat="46.64719" lon="6.24801">
        <ele>1147</ele>
        <time>2013-08-18T13:07:55.000Z</time>
      </trkpt>
      <trkpt lat="46.64717" lon="6.24798">
        <ele>1147</ele>
        <time>2013-08-18T13:07:56.000Z</time>
      </trkpt>
      <trkpt lat="46.64714" lon="6.24794">
        <ele>1147</ele>
        <time>2013-08-18T13:07:57.000Z</time>
      </trkpt>
      <trkpt lat="46.64711" lon="6.24791">
        <ele>1147</ele>
        <time>2013-08-18T13:07:58.000Z</time>
      </trkpt>
      <trkpt lat="46.64709" lon="6.24787">
        <ele>1147</ele>
        <time>2013-08-18T13:07:59.000Z</time>
      </trkpt>
      <trkpt lat="46.64708" lon="6.24784">
        <ele>1147</ele>
        <time>2013-08-18T13:08:00.000Z</time>
      </trkpt>
      <trkpt lat="46.64706" lon="6.24781">
        <ele>1147</ele>
        <time>2013-08-18T13:08:01.000Z</time>
      </trkpt>
      <trkpt lat="46.64703" lon="6.24778">
        <ele>1147</ele>
        <time>2013-08-18T13:08:02.000Z</time>
      </trkpt>
      <trkpt lat="46.64701" lon="6.24774">
        <ele>1147</ele>
        <time>2013-08-18T13:08:03.000Z</time>
      </trkpt>
      <trkpt lat="46.64698" lon="6.24771">
        <ele>1147</ele>
        <time>2013-08-18T13:08:04.000Z</time>
      </trkpt>
      <trkpt lat="46.64696" lon="6.24768">
        <ele>1147</ele>
        <time>2013-08-18T13:08:05.000Z</time>
      </trkpt>
      <trkpt lat="46.64694" lon="6.24765">
        <ele>1147</ele>
        <time>2013-08-18T13:08:06.000Z</time>
      </trkpt>
      <trkpt lat="46.64692" lon="6.24762">
        <ele>1147</ele>
        <time>2013-08-18T13:08:07.000Z</time>
      </trkpt>
      <trkpt lat="46.6469" lon="6.24758">
        <ele>1147</ele>
        <time>2013-08-18T13:08:08.000Z</time>
      </trkpt>
      <trkpt lat="46.64689" lon="6.24755">
        <ele>1147</ele>
        <time>2013-08-18T13:08:09.000Z</time>
      </trkpt>
      <trkpt lat="46.64688" lon="6.24752">
        <ele>1147</ele>
        <time>2013-08-18T13:08:10.000Z</time>
      </trkpt>
      <trkpt lat="46.64686" lon="6.24749">
        <ele>1150</ele>
        <time>2013-08-18T13:08:11.000Z</time>
      </trkpt>
      <trkpt lat="46.64685" lon="6.24746">
        <ele>1150</ele>
        <time>2013-08-18T13:08:12.000Z</time>
      </trkpt>
      <trkpt lat="46.64683" lon="6.24743">
        <ele>1150</ele>
        <time>2013-08-18T13:08:13.000Z</time>
      </trkpt>
      <trkpt lat="46.64681" lon="6.24741">
        <ele>1150</ele>
        <time>2013-08-18T13:08:14.000Z</time>
      </trkpt>
      <trkpt lat="46.6468" lon="6.24738">
        <ele>1150</ele>
        <time>2013-08-18T13:08:15.000Z</time>
      </trkpt>
      <trkpt lat="46.64678" lon="6.24735">
        <ele>1150</ele>
        <time>2013-08-18T13:08:16.000Z</time>
      </trkpt>
      <trkpt lat="46.64677" lon="6.24732">
        <ele>1150</ele>
        <time>2013-08-18T13:08:17.000Z</time>
      </trkpt>
      <trkpt lat="46.64676" lon="6.24729">
        <ele>1150</ele>
        <time>2013-08-18T13:08:18.000Z</time>
      </trkpt>
      <trkpt lat="46.64675" lon="6.24725">
        <ele>1151</ele>
        <time>2013-08-18T13:08:19.000Z</time>
      </trkpt>
      <trkpt lat="46.64674" lon="6.24721">
        <ele>1151</ele>
        <time>2013-08-18T13:08:20.000Z</time>
      </trkpt>
      <trkpt lat="46.64675" lon="6.24717">
        <ele>1152</ele>
        <time>2013-08-18T13:08:21.000Z</time>
      </trkpt>
      <trkpt lat="46.64674" lon="6.24713">
        <ele>1152</ele>
        <time>2013-08-18T13:08:22.000Z</time>
      </trkpt>
      <trkpt lat="46.64673" lon="6.24704">
        <ele>1152</ele>
        <time>2013-08-18T13:08:24.000Z</time>
      </trkpt>
      <trkpt lat="46.64673" lon="6.247">
        <ele>1152</ele>
        <time>2013-08-18T13:08:25.000Z</time>
      </trkpt>
      <trkpt lat="46.64672" lon="6.24697">
        <ele>1152</ele>
        <time>2013-08-18T13:08:26.000Z</time>
      </trkpt>
      <trkpt lat="46.64671" lon="6.24692">
        <ele>1152</ele>
        <time>2013-08-18T13:08:27.000Z</time>
      </trkpt>
      <trkpt lat="46.6467" lon="6.24688">
        <ele>1152</ele>
        <time>2013-08-18T13:08:28.000Z</time>
      </trkpt>
      <trkpt lat="46.64669" lon="6.24684">
        <ele>1152</ele>
        <time>2013-08-18T13:08:29.000Z</time>
      </trkpt>
      <trkpt lat="46.64668" lon="6.2468">
        <ele>1152</ele>
        <time>2013-08-18T13:08:30.000Z</time>
      </trkpt>
      <trkpt lat="46.64667" lon="6.24675">
        <ele>1152</ele>
        <time>2013-08-18T13:08:31.000Z</time>
      </trkpt>
      <trkpt lat="46.64667" lon="6.24672">
        <ele>1150</ele>
        <time>2013-08-18T13:08:32.000Z</time>
      </trkpt>
      <trkpt lat="46.64665" lon="6.24668">
        <ele>1151</ele>
        <time>2013-08-18T13:08:33.000Z</time>
      </trkpt>
      <trkpt lat="46.64664" lon="6.24665">
        <ele>1151</ele>
        <time>2013-08-18T13:08:34.000Z</time>
      </trkpt>
      <trkpt lat="46.64662" lon="6.24661">
        <ele>1151</ele>
        <time>2013-08-18T13:08:35.000Z</time>
      </trkpt>
      <trkpt lat="46.6466" lon="6.24658">
        <ele>1152</ele>
        <time>2013-08-18T13:08:36.000Z</time>
      </trkpt>
      <trkpt lat="46.64659" lon="6.24655">
        <ele>1152</ele>
        <time>2013-08-18T13:08:37.000Z</time>
      </trkpt>
      <trkpt lat="46.64657" lon="6.24651">
        <ele>1152</ele>
        <time>2013-08-18T13:08:38.000Z</time>
      </trkpt>
      <trkpt lat="46.64655" lon="6.24648">
        <ele>1152</ele>
        <time>2013-08-18T13:08:39.000Z</time>
      </trkpt>
      <trkpt lat="46.64653" lon="6.24645">
        <ele>1152</ele>
        <time>2013-08-18T13:08:40.000Z</time>
      </trkpt>
      <trkpt lat="46.64651" lon="6.24641">
        <ele>1152</ele>
        <time>2013-08-18T13:08:41.000Z</time>
      </trkpt>
      <trkpt lat="46.64649" lon="6.24638">
        <ele>1152</ele>
        <time>2013-08-18T13:08:42.000Z</time>
      </trkpt>
      <trkpt lat="46.64647" lon="6.24635">
        <ele>1153</ele>
        <time>2013-08-18T13:08:43.000Z</time>
      </trkpt>
      <trkpt lat="46.64645" lon="6.24633">
        <ele>1153</ele>
        <time>2013-08-18T13:08:44.000Z</time>
      </trkpt>
      <trkpt lat="46.64643" lon="6.2463">
        <ele>1153</ele>
        <time>2013-08-18T13:08:45.000Z</time>
      </trkpt>
      <trkpt lat="46.64641" lon="6.24628">
        <ele>1153</ele>
        <time>2013-08-18T13:08:46.000Z</time>
      </trkpt>
      <trkpt lat="46.64639" lon="6.24625">
        <ele>1153</ele>
        <time>2013-08-18T13:08:47.000Z</time>
      </trkpt>
      <trkpt lat="46.64637" lon="6.24623">
        <ele>1153</ele>
        <time>2013-08-18T13:08:48.000Z</time>
      </trkpt>
      <trkpt lat="46.64635" lon="6.2462">
        <ele>1153</ele>
        <time>2013-08-18T13:08:49.000Z</time>
      </trkpt>
      <trkpt lat="46.64634" lon="6.24617">
        <ele>1153</ele>
        <time>2013-08-18T13:08:50.000Z</time>
      </trkpt>
      <trkpt lat="46.64632" lon="6.24615">
        <ele>1153</ele>
        <time>2013-08-18T13:08:51.000Z</time>
      </trkpt>
      <trkpt lat="46.6463" lon="6.24612">
        <ele>1153</ele>
        <time>2013-08-18T13:08:52.000Z</time>
      </trkpt>
      <trkpt lat="46.64629" lon="6.2461">
        <ele>1153</ele>
        <time>2013-08-18T13:08:53.000Z</time>
      </trkpt>
      <trkpt lat="46.64627" lon="6.24608">
        <ele>1153</ele>
        <time>2013-08-18T13:08:54.000Z</time>
      </trkpt>
      <trkpt lat="46.64626" lon="6.24605">
        <ele>1154</ele>
        <time>2013-08-18T13:08:55.000Z</time>
      </trkpt>
      <trkpt lat="46.64624" lon="6.24602">
        <ele>1154</ele>
        <time>2013-08-18T13:08:56.000Z</time>
      </trkpt>
      <trkpt lat="46.64623" lon="6.24599">
        <ele>1154</ele>
        <time>2013-08-18T13:08:57.000Z</time>
      </trkpt>
      <trkpt lat="46.64622" lon="6.24596">
        <ele>1154</ele>
        <time>2013-08-18T13:08:58.000Z</time>
      </trkpt>
      <trkpt lat="46.64621" lon="6.24592">
        <ele>1154</ele>
        <time>2013-08-18T13:08:59.000Z</time>
      </trkpt>
      <trkpt lat="46.6462" lon="6.24589">
        <ele>1154</ele>
        <time>2013-08-18T13:09:00.000Z</time>
      </trkpt>
      <trkpt lat="46.64619" lon="6.24586">
        <ele>1154</ele>
        <time>2013-08-18T13:09:01.000Z</time>
      </trkpt>
      <trkpt lat="46.64618" lon="6.24582">
        <ele>1159</ele>
        <time>2013-08-18T13:09:02.000Z</time>
      </trkpt>
      <trkpt lat="46.64616" lon="6.24579">
        <ele>1159</ele>
        <time>2013-08-18T13:09:03.000Z</time>
      </trkpt>
      <trkpt lat="46.64615" lon="6.24576">
        <ele>1159</ele>
        <time>2013-08-18T13:09:04.000Z</time>
      </trkpt>
      <trkpt lat="46.64614" lon="6.24573">
        <ele>1159</ele>
        <time>2013-08-18T13:09:05.000Z</time>
      </trkpt>
      <trkpt lat="46.64612" lon="6.2457">
        <ele>1159</ele>
        <time>2013-08-18T13:09:06.000Z</time>
      </trkpt>
      <trkpt lat="46.64611" lon="6.24568">
        <ele>1159</ele>
        <time>2013-08-18T13:09:07.000Z</time>
      </trkpt>
      <trkpt lat="46.64609" lon="6.24565">
        <ele>1159</ele>
        <time>2013-08-18T13:09:08.000Z</time>
      </trkpt>
      <trkpt lat="46.64607" lon="6.24563">
        <ele>1159</ele>
        <time>2013-08-18T13:09:09.000Z</time>
      </trkpt>
      <trkpt lat="46.64606" lon="6.2456">
        <ele>1160</ele>
        <time>2013-08-18T13:09:10.000Z</time>
      </trkpt>
      <trkpt lat="46.64605" lon="6.24558">
        <ele>1160</ele>
        <time>2013-08-18T13:09:11.000Z</time>
      </trkpt>
      <trkpt lat="46.64604" lon="6.24556">
        <ele>1160</ele>
        <time>2013-08-18T13:09:12.000Z</time>
      </trkpt>
      <trkpt lat="46.64603" lon="6.24555">
        <ele>1160</ele>
        <time>2013-08-18T13:09:13.000Z</time>
      </trkpt>
      <trkpt lat="46.64601" lon="6.24553">
        <ele>1160</ele>
        <time>2013-08-18T13:09:14.000Z</time>
      </trkpt>
      <trkpt lat="46.64599" lon="6.24552">
        <ele>1160</ele>
        <time>2013-08-18T13:09:15.000Z</time>
      </trkpt>
      <trkpt lat="46.64598" lon="6.24551">
        <ele>1160</ele>
        <time>2013-08-18T13:09:16.000Z</time>
      </trkpt>
      <trkpt lat="46.64596" lon="6.2455">
        <ele>1160</ele>
        <time>2013-08-18T13:09:17.000Z</time>
      </trkpt>
      <trkpt lat="46.64594" lon="6.24549">
        <ele>1160</ele>
        <time>2013-08-18T13:09:18.000Z</time>
      </trkpt>
      <trkpt lat="46.64592" lon="6.24548">
        <ele>1160</ele>
        <time>2013-08-18T13:09:19.000Z</time>
      </trkpt>
      <trkpt lat="46.6459" lon="6.24548">
        <ele>1160</ele>
        <time>2013-08-18T13:09:20.000Z</time>
      </trkpt>
      <trkpt lat="46.64588" lon="6.24548">
        <ele>1160</ele>
        <time>2013-08-18T13:09:21.000Z</time>
      </trkpt>
      <trkpt lat="46.64585" lon="6.24548">
        <ele>1160</ele>
        <time>2013-08-18T13:09:22.000Z</time>
      </trkpt>
      <trkpt lat="46.64583" lon="6.24548">
        <ele>1157</ele>
        <time>2013-08-18T13:09:23.000Z</time>
      </trkpt>
      <trkpt lat="46.64581" lon="6.24548">
        <ele>1157</ele>
        <time>2013-08-18T13:09:24.000Z</time>
      </trkpt>
      <trkpt lat="46.6458" lon="6.24549">
        <ele>1157</ele>
        <time>2013-08-18T13:09:25.000Z</time>
      </trkpt>
      <trkpt lat="46.64577" lon="6.24549">
        <ele>1156</ele>
        <time>2013-08-18T13:09:27.000Z</time>
      </trkpt>
      <trkpt lat="46.64576" lon="6.24549">
        <ele>1156</ele>
        <time>2013-08-18T13:09:28.000Z</time>
      </trkpt>
      <trkpt lat="46.64574" lon="6.2455">
        <ele>1156</ele>
        <time>2013-08-18T13:09:29.000Z</time>
      </trkpt>
      <trkpt lat="46.64573" lon="6.2455">
        <ele>1156</ele>
        <time>2013-08-18T13:09:30.000Z</time>
      </trkpt>
      <trkpt lat="46.64571" lon="6.2455">
        <ele>1156</ele>
        <time>2013-08-18T13:09:31.000Z</time>
      </trkpt>
      <trkpt lat="46.64569" lon="6.2455">
        <ele>1156</ele>
        <time>2013-08-18T13:09:32.000Z</time>
      </trkpt>
      <trkpt lat="46.64567" lon="6.2455">
        <ele>1156</ele>
        <time>2013-08-18T13:09:33.000Z</time>
      </trkpt>
      <trkpt lat="46.64565" lon="6.2455">
        <ele>1156</ele>
        <time>2013-08-18T13:09:34.000Z</time>
      </trkpt>
      <trkpt lat="46.64562" lon="6.24551">
        <ele>1156</ele>
        <time>2013-08-18T13:09:35.000Z</time>
      </trkpt>
      <trkpt lat="46.6456" lon="6.24551">
        <ele>1156</ele>
        <time>2013-08-18T13:09:36.000Z</time>
      </trkpt>
      <trkpt lat="46.64557" lon="6.24551">
        <ele>1156</ele>
        <time>2013-08-18T13:09:37.000Z</time>
      </trkpt>
      <trkpt lat="46.64554" lon="6.24552">
        <ele>1156</ele>
        <time>2013-08-18T13:09:38.000Z</time>
      </trkpt>
      <trkpt lat="46.64551" lon="6.24552">
        <ele>1156</ele>
        <time>2013-08-18T13:09:39.000Z</time>
      </trkpt>
      <trkpt lat="46.64548" lon="6.24552">
        <ele>1156</ele>
        <time>2013-08-18T13:09:40.000Z</time>
      </trkpt>
      <trkpt lat="46.64545" lon="6.24552">
        <ele>1156</ele>
        <time>2013-08-18T13:09:41.000Z</time>
      </trkpt>
      <trkpt lat="46.64542" lon="6.24552">
        <ele>1156</ele>
        <time>2013-08-18T13:09:42.000Z</time>
      </trkpt>
      <trkpt lat="46.6454" lon="6.24551">
        <ele>1156</ele>
        <time>2013-08-18T13:09:43.000Z</time>
      </trkpt>
      <trkpt lat="46.64537" lon="6.2455">
        <ele>1156</ele>
        <time>2013-08-18T13:09:44.000Z</time>
      </trkpt>
      <trkpt lat="46.64535" lon="6.24549">
        <ele>1156</ele>
        <time>2013-08-18T13:09:45.000Z</time>
      </trkpt>
      <trkpt lat="46.64532" lon="6.24549">
        <ele>1156</ele>
        <time>2013-08-18T13:09:46.000Z</time>
      </trkpt>
      <trkpt lat="46.64529" lon="6.24549">
        <ele>1155</ele>
        <time>2013-08-18T13:09:47.000Z</time>
      </trkpt>
      <trkpt lat="46.64527" lon="6.24548">
        <ele>1155</ele>
        <time>2013-08-18T13:09:48.000Z</time>
      </trkpt>
      <trkpt lat="46.64524" lon="6.24547">
        <ele>1155</ele>
        <time>2013-08-18T13:09:49.000Z</time>
      </trkpt>
      <trkpt lat="46.64521" lon="6.24547">
        <ele>1155</ele>
        <time>2013-08-18T13:09:50.000Z</time>
      </trkpt>
      <trkpt lat="46.64518" lon="6.24546">
        <ele>1155</ele>
        <time>2013-08-18T13:09:51.000Z</time>
      </trkpt>
      <trkpt lat="46.64515" lon="6.24545">
        <ele>1155</ele>
        <time>2013-08-18T13:09:52.000Z</time>
      </trkpt>
      <trkpt lat="46.64513" lon="6.24545">
        <ele>1155</ele>
        <time>2013-08-18T13:09:53.000Z</time>
      </trkpt>
      <trkpt lat="46.64511" lon="6.24543">
        <ele>1155</ele>
        <time>2013-08-18T13:09:54.000Z</time>
      </trkpt>
      <trkpt lat="46.64508" lon="6.24542">
        <ele>1155</ele>
        <time>2013-08-18T13:09:55.000Z</time>
      </trkpt>
      <trkpt lat="46.64505" lon="6.2454">
        <ele>1156</ele>
        <time>2013-08-18T13:09:56.000Z</time>
      </trkpt>
      <trkpt lat="46.64503" lon="6.24539">
        <ele>1156</ele>
        <time>2013-08-18T13:09:57.000Z</time>
      </trkpt>
      <trkpt lat="46.64501" lon="6.24538">
        <ele>1156</ele>
        <time>2013-08-18T13:09:58.000Z</time>
      </trkpt>
      <trkpt lat="46.64498" lon="6.24536">
        <ele>1155</ele>
        <time>2013-08-18T13:09:59.000Z</time>
      </trkpt>
      <trkpt lat="46.64496" lon="6.24535">
        <ele>1155</ele>
        <time>2013-08-18T13:10:00.000Z</time>
      </trkpt>
      <trkpt lat="46.64494" lon="6.24534">
        <ele>1155</ele>
        <time>2013-08-18T13:10:01.000Z</time>
      </trkpt>
      <trkpt lat="46.64491" lon="6.24532">
        <ele>1155</ele>
        <time>2013-08-18T13:10:02.000Z</time>
      </trkpt>
      <trkpt lat="46.64489" lon="6.24531">
        <ele>1155</ele>
        <time>2013-08-18T13:10:03.000Z</time>
      </trkpt>
      <trkpt lat="46.64487" lon="6.2453">
        <ele>1155</ele>
        <time>2013-08-18T13:10:04.000Z</time>
      </trkpt>
      <trkpt lat="46.64485" lon="6.24528">
        <ele>1155</ele>
        <time>2013-08-18T13:10:05.000Z</time>
      </trkpt>
      <trkpt lat="46.64483" lon="6.24526">
        <ele>1155</ele>
        <time>2013-08-18T13:10:06.000Z</time>
      </trkpt>
      <trkpt lat="46.64481" lon="6.24525">
        <ele>1155</ele>
        <time>2013-08-18T13:10:07.000Z</time>
      </trkpt>
      <trkpt lat="46.64479" lon="6.24525">
        <ele>1155</ele>
        <time>2013-08-18T13:10:08.000Z</time>
      </trkpt>
      <trkpt lat="46.64477" lon="6.24524">
        <ele>1155</ele>
        <time>2013-08-18T13:10:09.000Z</time>
      </trkpt>
      <trkpt lat="46.64475" lon="6.24523">
        <ele>1155</ele>
        <time>2013-08-18T13:10:10.000Z</time>
      </trkpt>
      <trkpt lat="46.64473" lon="6.24522">
        <ele>1155</ele>
        <time>2013-08-18T13:10:11.000Z</time>
      </trkpt>
      <trkpt lat="46.64472" lon="6.2452">
        <ele>1155</ele>
        <time>2013-08-18T13:10:12.000Z</time>
      </trkpt>
      <trkpt lat="46.6447" lon="6.24519">
        <ele>1156</ele>
        <time>2013-08-18T13:10:13.000Z</time>
      </trkpt>
      <trkpt lat="46.64469" lon="6.24519">
        <ele>1156</ele>
        <time>2013-08-18T13:10:14.000Z</time>
      </trkpt>
      <trkpt lat="46.64467" lon="6.24518">
        <ele>1156</ele>
        <time>2013-08-18T13:10:15.000Z</time>
      </trkpt>
      <trkpt lat="46.64465" lon="6.24518">
        <ele>1156</ele>
        <time>2013-08-18T13:10:16.000Z</time>
      </trkpt>
      <trkpt lat="46.64464" lon="6.24517">
        <ele>1156</ele>
        <time>2013-08-18T13:10:17.000Z</time>
      </trkpt>
      <trkpt lat="46.64463" lon="6.24517">
        <ele>1156</ele>
        <time>2013-08-18T13:10:18.000Z</time>
      </trkpt>
      <trkpt lat="46.64462" lon="6.24516">
        <ele>1156</ele>
        <time>2013-08-18T13:10:19.000Z</time>
      </trkpt>
      <trkpt lat="46.64461" lon="6.24515">
        <ele>1156</ele>
        <time>2013-08-18T13:10:20.000Z</time>
      </trkpt>
      <trkpt lat="46.64459" lon="6.24515">
        <ele>1156</ele>
        <time>2013-08-18T13:10:21.000Z</time>
      </trkpt>
      <trkpt lat="46.64458" lon="6.24515">
        <ele>1156</ele>
        <time>2013-08-18T13:10:22.000Z</time>
      </trkpt>
      <trkpt lat="46.64457" lon="6.24514">
        <ele>1156</ele>
        <time>2013-08-18T13:10:23.000Z</time>
      </trkpt>
      <trkpt lat="46.64455" lon="6.24513">
        <ele>1156</ele>
        <time>2013-08-18T13:10:24.000Z</time>
      </trkpt>
      <trkpt lat="46.64454" lon="6.24511">
        <ele>1156</ele>
        <time>2013-08-18T13:10:25.000Z</time>
      </trkpt>
      <trkpt lat="46.64453" lon="6.2451">
        <ele>1156</ele>
        <time>2013-08-18T13:10:26.000Z</time>
      </trkpt>
      <trkpt lat="46.64451" lon="6.24509">
        <ele>1156</ele>
        <time>2013-08-18T13:10:27.000Z</time>
      </trkpt>
      <trkpt lat="46.6445" lon="6.24507">
        <ele>1156</ele>
        <time>2013-08-18T13:10:28.000Z</time>
      </trkpt>
      <trkpt lat="46.64449" lon="6.24505">
        <ele>1156</ele>
        <time>2013-08-18T13:10:29.000Z</time>
      </trkpt>
      <trkpt lat="46.64447" lon="6.24504">
        <ele>1157</ele>
        <time>2013-08-18T13:10:30.000Z</time>
      </trkpt>
      <trkpt lat="46.64446" lon="6.24503">
        <ele>1157</ele>
        <time>2013-08-18T13:10:31.000Z</time>
      </trkpt>
      <trkpt lat="46.64444" lon="6.24502">
        <ele>1157</ele>
        <time>2013-08-18T13:10:32.000Z</time>
      </trkpt>
      <trkpt lat="46.64443" lon="6.245">
        <ele>1157</ele>
        <time>2013-08-18T13:10:33.000Z</time>
      </trkpt>
      <trkpt lat="46.64442" lon="6.24499">
        <ele>1163</ele>
        <time>2013-08-18T13:10:34.000Z</time>
      </trkpt>
      <trkpt lat="46.6444" lon="6.24498">
        <ele>1163</ele>
        <time>2013-08-18T13:10:35.000Z</time>
      </trkpt>
      <trkpt lat="46.64439" lon="6.24497">
        <ele>1163</ele>
        <time>2013-08-18T13:10:36.000Z</time>
      </trkpt>
      <trkpt lat="46.64438" lon="6.24495">
        <ele>1163</ele>
        <time>2013-08-18T13:10:37.000Z</time>
      </trkpt>
      <trkpt lat="46.64436" lon="6.24494">
        <ele>1163</ele>
        <time>2013-08-18T13:10:38.000Z</time>
      </trkpt>
      <trkpt lat="46.64434" lon="6.24492">
        <ele>1163</ele>
        <time>2013-08-18T13:10:39.000Z</time>
      </trkpt>
      <trkpt lat="46.64433" lon="6.24491">
        <ele>1163</ele>
        <time>2013-08-18T13:10:40.000Z</time>
      </trkpt>
      <trkpt lat="46.64432" lon="6.24491">
        <ele>1163</ele>
        <time>2013-08-18T13:10:41.000Z</time>
      </trkpt>
      <trkpt lat="46.6443" lon="6.2449">
        <ele>1163</ele>
        <time>2013-08-18T13:10:42.000Z</time>
      </trkpt>
      <trkpt lat="46.64429" lon="6.2449">
        <ele>1163</ele>
        <time>2013-08-18T13:10:43.000Z</time>
      </trkpt>
      <trkpt lat="46.64428" lon="6.24489">
        <ele>1163</ele>
        <time>2013-08-18T13:10:44.000Z</time>
      </trkpt>
      <trkpt lat="46.64426" lon="6.24489">
        <ele>1163</ele>
        <time>2013-08-18T13:10:46.000Z</time>
      </trkpt>
      <trkpt lat="46.64424" lon="6.24489">
        <ele>1163</ele>
        <time>2013-08-18T13:10:47.000Z</time>
      </trkpt>
      <trkpt lat="46.64423" lon="6.24489">
        <ele>1163</ele>
        <time>2013-08-18T13:10:48.000Z</time>
      </trkpt>
      <trkpt lat="46.64421" lon="6.24488">
        <ele>1163</ele>
        <time>2013-08-18T13:10:49.000Z</time>
      </trkpt>
      <trkpt lat="46.64419" lon="6.24488">
        <ele>1163</ele>
        <time>2013-08-18T13:10:50.000Z</time>
      </trkpt>
      <trkpt lat="46.64415" lon="6.24487">
        <ele>1164</ele>
        <time>2013-08-18T13:10:52.000Z</time>
      </trkpt>
      <trkpt lat="46.64413" lon="6.24487">
        <ele>1164</ele>
        <time>2013-08-18T13:10:53.000Z</time>
      </trkpt>
      <trkpt lat="46.6441" lon="6.24486">
        <ele>1164</ele>
        <time>2013-08-18T13:10:54.000Z</time>
      </trkpt>
      <trkpt lat="46.64408" lon="6.24486">
        <ele>1164</ele>
        <time>2013-08-18T13:10:55.000Z</time>
      </trkpt>
      <trkpt lat="46.64406" lon="6.24485">
        <ele>1165</ele>
        <time>2013-08-18T13:10:56.000Z</time>
      </trkpt>
      <trkpt lat="46.64403" lon="6.24485">
        <ele>1165</ele>
        <time>2013-08-18T13:10:57.000Z</time>
      </trkpt>
      <trkpt lat="46.64399" lon="6.24484">
        <ele>1165</ele>
        <time>2013-08-18T13:10:59.000Z</time>
      </trkpt>
      <trkpt lat="46.64397" lon="6.24484">
        <ele>1165</ele>
        <time>2013-08-18T13:11:00.000Z</time>
      </trkpt>
      <trkpt lat="46.64394" lon="6.24483">
        <ele>1166</ele>
        <time>2013-08-18T13:11:01.000Z</time>
      </trkpt>
      <trkpt lat="46.64392" lon="6.24483">
        <ele>1166</ele>
        <time>2013-08-18T13:11:02.000Z</time>
      </trkpt>
      <trkpt lat="46.6439" lon="6.24482">
        <ele>1166</ele>
        <time>2013-08-18T13:11:03.000Z</time>
      </trkpt>
      <trkpt lat="46.64388" lon="6.24482">
        <ele>1166</ele>
        <time>2013-08-18T13:11:04.000Z</time>
      </trkpt>
      <trkpt lat="46.64385" lon="6.24481">
        <ele>1166</ele>
        <time>2013-08-18T13:11:05.000Z</time>
      </trkpt>
      <trkpt lat="46.64383" lon="6.2448">
        <ele>1166</ele>
        <time>2013-08-18T13:11:06.000Z</time>
      </trkpt>
      <trkpt lat="46.64382" lon="6.2448">
        <ele>1167</ele>
        <time>2013-08-18T13:11:07.000Z</time>
      </trkpt>
      <trkpt lat="46.6438" lon="6.24478">
        <ele>1167</ele>
        <time>2013-08-18T13:11:08.000Z</time>
      </trkpt>
      <trkpt lat="46.64378" lon="6.24478">
        <ele>1167</ele>
        <time>2013-08-18T13:11:09.000Z</time>
      </trkpt>
      <trkpt lat="46.64376" lon="6.24477">
        <ele>1167</ele>
        <time>2013-08-18T13:11:10.000Z</time>
      </trkpt>
      <trkpt lat="46.64374" lon="6.24477">
        <ele>1167</ele>
        <time>2013-08-18T13:11:11.000Z</time>
      </trkpt>
      <trkpt lat="46.64372" lon="6.24476">
        <ele>1167</ele>
        <time>2013-08-18T13:11:12.000Z</time>
      </trkpt>
      <trkpt lat="46.6437" lon="6.24476">
        <ele>1167</ele>
        <time>2013-08-18T13:11:13.000Z</time>
      </trkpt>
      <trkpt lat="46.64368" lon="6.24476">
        <ele>1167</ele>
        <time>2013-08-18T13:11:14.000Z</time>
      </trkpt>
      <trkpt lat="46.64366" lon="6.24476">
        <ele>1167</ele>
        <time>2013-08-18T13:11:15.000Z</time>
      </trkpt>
      <trkpt lat="46.64358" lon="6.24476">
        <ele>1167</ele>
        <time>2013-08-18T13:11:20.000Z</time>
      </trkpt>
      <trkpt lat="46.64356" lon="6.24476">
        <ele>1167</ele>
        <time>2013-08-18T13:11:21.000Z</time>
      </trkpt>
      <trkpt lat="46.64354" lon="6.24476">
        <ele>1167</ele>
        <time>2013-08-18T13:11:22.000Z</time>
      </trkpt>
      <trkpt lat="46.64351" lon="6.24477">
        <ele>1167</ele>
        <time>2013-08-18T13:11:24.000Z</time>
      </trkpt>
      <trkpt lat="46.64349" lon="6.24477">
        <ele>1167</ele>
        <time>2013-08-18T13:11:25.000Z</time>
      </trkpt>
      <trkpt lat="46.64347" lon="6.24477">
        <ele>1167</ele>
        <time>2013-08-18T13:11:27.000Z</time>
      </trkpt>
      <trkpt lat="46.64346" lon="6.24476">
        <ele>1167</ele>
        <time>2013-08-18T13:11:28.000Z</time>
      </trkpt>
      <trkpt lat="46.64345" lon="6.24476">
        <ele>1167</ele>
        <time>2013-08-18T13:11:29.000Z</time>
      </trkpt>
      <trkpt lat="46.64343" lon="6.24476">
        <ele>1167</ele>
        <time>2013-08-18T13:11:30.000Z</time>
      </trkpt>
      <trkpt lat="46.64342" lon="6.24476">
        <ele>1167</ele>
        <time>2013-08-18T13:11:31.000Z</time>
      </trkpt>
      <trkpt lat="46.6434" lon="6.24476">
        <ele>1167</ele>
        <time>2013-08-18T13:11:32.000Z</time>
      </trkpt>
      <trkpt lat="46.64339" lon="6.24476">
        <ele>1167</ele>
        <time>2013-08-18T13:11:33.000Z</time>
      </trkpt>
      <trkpt lat="46.64337" lon="6.24476">
        <ele>1167</ele>
        <time>2013-08-18T13:11:34.000Z</time>
      </trkpt>
      <trkpt lat="46.64336" lon="6.24477">
        <ele>1167</ele>
        <time>2013-08-18T13:11:35.000Z</time>
      </trkpt>
      <trkpt lat="46.64335" lon="6.24478">
        <ele>1167</ele>
        <time>2013-08-18T13:11:36.000Z</time>
      </trkpt>
      <trkpt lat="46.64333" lon="6.24478">
        <ele>1169</ele>
        <time>2013-08-18T13:11:37.000Z</time>
      </trkpt>
      <trkpt lat="46.64332" lon="6.24478">
        <ele>1169</ele>
        <time>2013-08-18T13:11:38.000Z</time>
      </trkpt>
      <trkpt lat="46.6433" lon="6.24479">
        <ele>1169</ele>
        <time>2013-08-18T13:11:39.000Z</time>
      </trkpt>
      <trkpt lat="46.64329" lon="6.24479">
        <ele>1169</ele>
        <time>2013-08-18T13:11:40.000Z</time>
      </trkpt>
      <trkpt lat="46.64327" lon="6.24479">
        <ele>1169</ele>
        <time>2013-08-18T13:11:41.000Z</time>
      </trkpt>
      <trkpt lat="46.64324" lon="6.24479">
        <ele>1169</ele>
        <time>2013-08-18T13:11:43.000Z</time>
      </trkpt>
      <trkpt lat="46.64322" lon="6.24479">
        <ele>1169</ele>
        <time>2013-08-18T13:11:44.000Z</time>
      </trkpt>
      <trkpt lat="46.64321" lon="6.24479">
        <ele>1169</ele>
        <time>2013-08-18T13:11:45.000Z</time>
      </trkpt>
      <trkpt lat="46.64319" lon="6.24479">
        <ele>1169</ele>
        <time>2013-08-18T13:11:46.000Z</time>
      </trkpt>
      <trkpt lat="46.64316" lon="6.2448">
        <ele>1170</ele>
        <time>2013-08-18T13:11:48.000Z</time>
      </trkpt>
      <trkpt lat="46.64314" lon="6.24479">
        <ele>1170</ele>
        <time>2013-08-18T13:11:49.000Z</time>
      </trkpt>
      <trkpt lat="46.64311" lon="6.24479">
        <ele>1170</ele>
        <time>2013-08-18T13:11:51.000Z</time>
      </trkpt>
      <trkpt lat="46.64309" lon="6.24479">
        <ele>1170</ele>
        <time>2013-08-18T13:11:52.000Z</time>
      </trkpt>
      <trkpt lat="46.64308" lon="6.24479">
        <ele>1170</ele>
        <time>2013-08-18T13:11:53.000Z</time>
      </trkpt>
      <trkpt lat="46.64306" lon="6.24478">
        <ele>1170</ele>
        <time>2013-08-18T13:11:54.000Z</time>
      </trkpt>
      <trkpt lat="46.64304" lon="6.24477">
        <ele>1170</ele>
        <time>2013-08-18T13:11:55.000Z</time>
      </trkpt>
      <trkpt lat="46.64303" lon="6.24477">
        <ele>1170</ele>
        <time>2013-08-18T13:11:56.000Z</time>
      </trkpt>
      <trkpt lat="46.64301" lon="6.24477">
        <ele>1170</ele>
        <time>2013-08-18T13:11:57.000Z</time>
      </trkpt>
      <trkpt lat="46.643" lon="6.24476">
        <ele>1170</ele>
        <time>2013-08-18T13:11:58.000Z</time>
      </trkpt>
      <trkpt lat="46.64299" lon="6.24476">
        <ele>1171</ele>
        <time>2013-08-18T13:11:59.000Z</time>
      </trkpt>
      <trkpt lat="46.64297" lon="6.24475">
        <ele>1171</ele>
        <time>2013-08-18T13:12:00.000Z</time>
      </trkpt>
      <trkpt lat="46.64295" lon="6.24475">
        <ele>1171</ele>
        <time>2013-08-18T13:12:02.000Z</time>
      </trkpt>
      <trkpt lat="46.64293" lon="6.24475">
        <ele>1171</ele>
        <time>2013-08-18T13:12:03.000Z</time>
      </trkpt>
      <trkpt lat="46.64292" lon="6.24474">
        <ele>1171</ele>
        <time>2013-08-18T13:12:04.000Z</time>
      </trkpt>
      <trkpt lat="46.6429" lon="6.24474">
        <ele>1171</ele>
        <time>2013-08-18T13:12:05.000Z</time>
      </trkpt>
      <trkpt lat="46.64288" lon="6.24474">
        <ele>1171</ele>
        <time>2013-08-18T13:12:06.000Z</time>
      </trkpt>
      <trkpt lat="46.64287" lon="6.24474">
        <ele>1171</ele>
        <time>2013-08-18T13:12:07.000Z</time>
      </trkpt>
      <trkpt lat="46.64286" lon="6.24474">
        <ele>1171</ele>
        <time>2013-08-18T13:12:08.000Z</time>
      </trkpt>
      <trkpt lat="46.64285" lon="6.24474">
        <ele>1171</ele>
        <time>2013-08-18T13:12:09.000Z</time>
      </trkpt>
      <trkpt lat="46.64283" lon="6.24474">
        <ele>1171</ele>
        <time>2013-08-18T13:12:10.000Z</time>
      </trkpt>
      <trkpt lat="46.64281" lon="6.24475">
        <ele>1171</ele>
        <time>2013-08-18T13:12:11.000Z</time>
      </trkpt>
      <trkpt lat="46.64279" lon="6.24475">
        <ele>1171</ele>
        <time>2013-08-18T13:12:12.000Z</time>
      </trkpt>
      <trkpt lat="46.64278" lon="6.24475">
        <ele>1171</ele>
        <time>2013-08-18T13:12:13.000Z</time>
      </trkpt>
      <trkpt lat="46.64274" lon="6.24474">
        <ele>1171</ele>
        <time>2013-08-18T13:12:15.000Z</time>
      </trkpt>
      <trkpt lat="46.64273" lon="6.24475">
        <ele>1171</ele>
        <time>2013-08-18T13:12:16.000Z</time>
      </trkpt>
      <trkpt lat="46.64271" lon="6.24474">
        <ele>1171</ele>
        <time>2013-08-18T13:12:17.000Z</time>
      </trkpt>
      <trkpt lat="46.64269" lon="6.24474">
        <ele>1171</ele>
        <time>2013-08-18T13:12:18.000Z</time>
      </trkpt>
      <trkpt lat="46.64267" lon="6.24473">
        <ele>1171</ele>
        <time>2013-08-18T13:12:19.000Z</time>
      </trkpt>
      <trkpt lat="46.64266" lon="6.24472">
        <ele>1171</ele>
        <time>2013-08-18T13:12:20.000Z</time>
      </trkpt>
      <trkpt lat="46.64264" lon="6.24471">
        <ele>1171</ele>
        <time>2013-08-18T13:12:21.000Z</time>
      </trkpt>
      <trkpt lat="46.64262" lon="6.2447">
        <ele>1171</ele>
        <time>2013-08-18T13:12:22.000Z</time>
      </trkpt>
      <trkpt lat="46.6426" lon="6.24469">
        <ele>1171</ele>
        <time>2013-08-18T13:12:23.000Z</time>
      </trkpt>
      <trkpt lat="46.64259" lon="6.24468">
        <ele>1171</ele>
        <time>2013-08-18T13:12:24.000Z</time>
      </trkpt>
      <trkpt lat="46.64258" lon="6.24467">
        <ele>1172</ele>
        <time>2013-08-18T13:12:25.000Z</time>
      </trkpt>
      <trkpt lat="46.64257" lon="6.24466">
        <ele>1172</ele>
        <time>2013-08-18T13:12:26.000Z</time>
      </trkpt>
      <trkpt lat="46.64255" lon="6.24465">
        <ele>1172</ele>
        <time>2013-08-18T13:12:27.000Z</time>
      </trkpt>
      <trkpt lat="46.64254" lon="6.24464">
        <ele>1172</ele>
        <time>2013-08-18T13:12:28.000Z</time>
      </trkpt>
      <trkpt lat="46.64253" lon="6.24463">
        <ele>1172</ele>
        <time>2013-08-18T13:12:29.000Z</time>
      </trkpt>
      <trkpt lat="46.64252" lon="6.24461">
        <ele>1172</ele>
        <time>2013-08-18T13:12:30.000Z</time>
      </trkpt>
      <trkpt lat="46.6425" lon="6.24459">
        <ele>1172</ele>
        <time>2013-08-18T13:12:31.000Z</time>
      </trkpt>
      <trkpt lat="46.64249" lon="6.24457">
        <ele>1174</ele>
        <time>2013-08-18T13:12:32.000Z</time>
      </trkpt>
      <trkpt lat="46.64247" lon="6.24455">
        <ele>1174</ele>
        <time>2013-08-18T13:12:33.000Z</time>
      </trkpt>
      <trkpt lat="46.64245" lon="6.24454">
        <ele>1175</ele>
        <time>2013-08-18T13:12:34.000Z</time>
      </trkpt>
      <trkpt lat="46.64243" lon="6.24452">
        <ele>1175</ele>
        <time>2013-08-18T13:12:35.000Z</time>
      </trkpt>
      <trkpt lat="46.64241" lon="6.2445">
        <ele>1175</ele>
        <time>2013-08-18T13:12:36.000Z</time>
      </trkpt>
      <trkpt lat="46.6424" lon="6.24448">
        <ele>1175</ele>
        <time>2013-08-18T13:12:37.000Z</time>
      </trkpt>
      <trkpt lat="46.64238" lon="6.24447">
        <ele>1175</ele>
        <time>2013-08-18T13:12:38.000Z</time>
      </trkpt>
      <trkpt lat="46.64237" lon="6.24446">
        <ele>1175</ele>
        <time>2013-08-18T13:12:39.000Z</time>
      </trkpt>
      <trkpt lat="46.64235" lon="6.24446">
        <ele>1175</ele>
        <time>2013-08-18T13:12:40.000Z</time>
      </trkpt>
      <trkpt lat="46.64233" lon="6.24445">
        <ele>1175</ele>
        <time>2013-08-18T13:12:41.000Z</time>
      </trkpt>
      <trkpt lat="46.6423" lon="6.24445">
        <ele>1175</ele>
        <time>2013-08-18T13:12:42.000Z</time>
      </trkpt>
      <trkpt lat="46.64228" lon="6.24444">
        <ele>1175</ele>
        <time>2013-08-18T13:12:43.000Z</time>
      </trkpt>
      <trkpt lat="46.64226" lon="6.24444">
        <ele>1175</ele>
        <time>2013-08-18T13:12:44.000Z</time>
      </trkpt>
      <trkpt lat="46.64224" lon="6.24443">
        <ele>1175</ele>
        <time>2013-08-18T13:12:45.000Z</time>
      </trkpt>
      <trkpt lat="46.64222" lon="6.24443">
        <ele>1175</ele>
        <time>2013-08-18T13:12:46.000Z</time>
      </trkpt>
      <trkpt lat="46.64218" lon="6.24443">
        <ele>1175</ele>
        <time>2013-08-18T13:12:48.000Z</time>
      </trkpt>
      <trkpt lat="46.64216" lon="6.24443">
        <ele>1175</ele>
        <time>2013-08-18T13:12:49.000Z</time>
      </trkpt>
      <trkpt lat="46.64215" lon="6.24443">
        <ele>1175</ele>
        <time>2013-08-18T13:12:50.000Z</time>
      </trkpt>
      <trkpt lat="46.64213" lon="6.24444">
        <ele>1175</ele>
        <time>2013-08-18T13:12:51.000Z</time>
      </trkpt>
      <trkpt lat="46.64212" lon="6.24444">
        <ele>1175</ele>
        <time>2013-08-18T13:12:52.000Z</time>
      </trkpt>
      <trkpt lat="46.64211" lon="6.24444">
        <ele>1175</ele>
        <time>2013-08-18T13:12:53.000Z</time>
      </trkpt>
      <trkpt lat="46.6421" lon="6.24445">
        <ele>1175</ele>
        <time>2013-08-18T13:12:54.000Z</time>
      </trkpt>
      <trkpt lat="46.64209" lon="6.24445">
        <ele>1175</ele>
        <time>2013-08-18T13:12:55.000Z</time>
      </trkpt>
      <trkpt lat="46.64207" lon="6.24445">
        <ele>1175</ele>
        <time>2013-08-18T13:12:56.000Z</time>
      </trkpt>
      <trkpt lat="46.64206" lon="6.24445">
        <ele>1175</ele>
        <time>2013-08-18T13:12:57.000Z</time>
      </trkpt>
      <trkpt lat="46.64205" lon="6.24445">
        <ele>1175</ele>
        <time>2013-08-18T13:12:58.000Z</time>
      </trkpt>
      <trkpt lat="46.64203" lon="6.24446">
        <ele>1175</ele>
        <time>2013-08-18T13:12:59.000Z</time>
      </trkpt>
      <trkpt lat="46.64202" lon="6.24446">
        <ele>1175</ele>
        <time>2013-08-18T13:13:00.000Z</time>
      </trkpt>
      <trkpt lat="46.642" lon="6.24447">
        <ele>1175</ele>
        <time>2013-08-18T13:13:01.000Z</time>
      </trkpt>
      <trkpt lat="46.64199" lon="6.24447">
        <ele>1175</ele>
        <time>2013-08-18T13:13:02.000Z</time>
      </trkpt>
      <trkpt lat="46.64198" lon="6.24447">
        <ele>1175</ele>
        <time>2013-08-18T13:13:03.000Z</time>
      </trkpt>
      <trkpt lat="46.64196" lon="6.24446">
        <ele>1175</ele>
        <time>2013-08-18T13:13:04.000Z</time>
      </trkpt>
      <trkpt lat="46.64195" lon="6.24446">
        <ele>1175</ele>
        <time>2013-08-18T13:13:05.000Z</time>
      </trkpt>
      <trkpt lat="46.64194" lon="6.24446">
        <ele>1175</ele>
        <time>2013-08-18T13:13:06.000Z</time>
      </trkpt>
      <trkpt lat="46.64192" lon="6.24446">
        <ele>1175</ele>
        <time>2013-08-18T13:13:07.000Z</time>
      </trkpt>
      <trkpt lat="46.64191" lon="6.24446">
        <ele>1175</ele>
        <time>2013-08-18T13:13:08.000Z</time>
      </trkpt>
      <trkpt lat="46.64189" lon="6.24445">
        <ele>1175</ele>
        <time>2013-08-18T13:13:09.000Z</time>
      </trkpt>
      <trkpt lat="46.64188" lon="6.24444">
        <ele>1175</ele>
        <time>2013-08-18T13:13:10.000Z</time>
      </trkpt>
      <trkpt lat="46.64186" lon="6.24443">
        <ele>1175</ele>
        <time>2013-08-18T13:13:11.000Z</time>
      </trkpt>
      <trkpt lat="46.64185" lon="6.24443">
        <ele>1176</ele>
        <time>2013-08-18T13:13:12.000Z</time>
      </trkpt>
      <trkpt lat="46.64183" lon="6.24442">
        <ele>1176</ele>
        <time>2013-08-18T13:13:13.000Z</time>
      </trkpt>
      <trkpt lat="46.64182" lon="6.24441">
        <ele>1176</ele>
        <time>2013-08-18T13:13:14.000Z</time>
      </trkpt>
      <trkpt lat="46.6418" lon="6.2444">
        <ele>1176</ele>
        <time>2013-08-18T13:13:15.000Z</time>
      </trkpt>
      <trkpt lat="46.64179" lon="6.2444">
        <ele>1176</ele>
        <time>2013-08-18T13:13:16.000Z</time>
      </trkpt>
      <trkpt lat="46.64177" lon="6.24438">
        <ele>1176</ele>
        <time>2013-08-18T13:13:17.000Z</time>
      </trkpt>
      <trkpt lat="46.64176" lon="6.24437">
        <ele>1176</ele>
        <time>2013-08-18T13:13:18.000Z</time>
      </trkpt>
      <trkpt lat="46.64174" lon="6.24436">
        <ele>1176</ele>
        <time>2013-08-18T13:13:19.000Z</time>
      </trkpt>
      <trkpt lat="46.64172" lon="6.24434">
        <ele>1176</ele>
        <time>2013-08-18T13:13:20.000Z</time>
      </trkpt>
      <trkpt lat="46.64171" lon="6.24433">
        <ele>1176</ele>
        <time>2013-08-18T13:13:21.000Z</time>
      </trkpt>
      <trkpt lat="46.64169" lon="6.24431">
        <ele>1177</ele>
        <time>2013-08-18T13:13:22.000Z</time>
      </trkpt>
      <trkpt lat="46.64168" lon="6.2443">
        <ele>1177</ele>
        <time>2013-08-18T13:13:23.000Z</time>
      </trkpt>
      <trkpt lat="46.64166" lon="6.24428">
        <ele>1177</ele>
        <time>2013-08-18T13:13:24.000Z</time>
      </trkpt>
      <trkpt lat="46.64164" lon="6.24427">
        <ele>1177</ele>
        <time>2013-08-18T13:13:25.000Z</time>
      </trkpt>
      <trkpt lat="46.64163" lon="6.24426">
        <ele>1177</ele>
        <time>2013-08-18T13:13:26.000Z</time>
      </trkpt>
      <trkpt lat="46.64161" lon="6.24425">
        <ele>1178</ele>
        <time>2013-08-18T13:13:27.000Z</time>
      </trkpt>
      <trkpt lat="46.6416" lon="6.24423">
        <ele>1178</ele>
        <time>2013-08-18T13:13:28.000Z</time>
      </trkpt>
      <trkpt lat="46.64159" lon="6.24422">
        <ele>1178</ele>
        <time>2013-08-18T13:13:29.000Z</time>
      </trkpt>
      <trkpt lat="46.64157" lon="6.2442">
        <ele>1178</ele>
        <time>2013-08-18T13:13:30.000Z</time>
      </trkpt>
      <trkpt lat="46.64156" lon="6.24419">
        <ele>1178</ele>
        <time>2013-08-18T13:13:31.000Z</time>
      </trkpt>
      <trkpt lat="46.64155" lon="6.24417">
        <ele>1178</ele>
        <time>2013-08-18T13:13:32.000Z</time>
      </trkpt>
      <trkpt lat="46.64154" lon="6.24416">
        <ele>1180</ele>
        <time>2013-08-18T13:13:33.000Z</time>
      </trkpt>
      <trkpt lat="46.64152" lon="6.24414">
        <ele>1180</ele>
        <time>2013-08-18T13:13:34.000Z</time>
      </trkpt>
      <trkpt lat="46.64151" lon="6.24412">
        <ele>1180</ele>
        <time>2013-08-18T13:13:35.000Z</time>
      </trkpt>
      <trkpt lat="46.64149" lon="6.24411">
        <ele>1180</ele>
        <time>2013-08-18T13:13:36.000Z</time>
      </trkpt>
      <trkpt lat="46.64148" lon="6.24409">
        <ele>1180</ele>
        <time>2013-08-18T13:13:37.000Z</time>
      </trkpt>
      <trkpt lat="46.64147" lon="6.24408">
        <ele>1180</ele>
        <time>2013-08-18T13:13:38.000Z</time>
      </trkpt>
      <trkpt lat="46.64146" lon="6.24406">
        <ele>1180</ele>
        <time>2013-08-18T13:13:39.000Z</time>
      </trkpt>
      <trkpt lat="46.64145" lon="6.24406">
        <ele>1180</ele>
        <time>2013-08-18T13:13:40.000Z</time>
      </trkpt>
      <trkpt lat="46.64144" lon="6.24405">
        <ele>1180</ele>
        <time>2013-08-18T13:13:41.000Z</time>
      </trkpt>
      <trkpt lat="46.64143" lon="6.24403">
        <ele>1181</ele>
        <time>2013-08-18T13:13:42.000Z</time>
      </trkpt>
      <trkpt lat="46.64143" lon="6.24402">
        <ele>1181</ele>
        <time>2013-08-18T13:13:43.000Z</time>
      </trkpt>
      <trkpt lat="46.64142" lon="6.24401">
        <ele>1181</ele>
        <time>2013-08-18T13:13:44.000Z</time>
      </trkpt>
      <trkpt lat="46.64141" lon="6.244">
        <ele>1181</ele>
        <time>2013-08-18T13:13:45.000Z</time>
      </trkpt>
      <trkpt lat="46.64139" lon="6.24399">
        <ele>1181</ele>
        <time>2013-08-18T13:13:46.000Z</time>
      </trkpt>
      <trkpt lat="46.64138" lon="6.24398">
        <ele>1181</ele>
        <time>2013-08-18T13:13:47.000Z</time>
      </trkpt>
      <trkpt lat="46.64137" lon="6.24397">
        <ele>1181</ele>
        <time>2013-08-18T13:13:48.000Z</time>
      </trkpt>
      <trkpt lat="46.64136" lon="6.24397">
        <ele>1181</ele>
        <time>2013-08-18T13:13:49.000Z</time>
      </trkpt>
      <trkpt lat="46.64135" lon="6.24396">
        <ele>1181</ele>
        <time>2013-08-18T13:13:50.000Z</time>
      </trkpt>
      <trkpt lat="46.64133" lon="6.24396">
        <ele>1181</ele>
        <time>2013-08-18T13:13:51.000Z</time>
      </trkpt>
      <trkpt lat="46.64131" lon="6.24395">
        <ele>1181</ele>
        <time>2013-08-18T13:13:52.000Z</time>
      </trkpt>
      <trkpt lat="46.64129" lon="6.24395">
        <ele>1181</ele>
        <time>2013-08-18T13:13:53.000Z</time>
      </trkpt>
      <trkpt lat="46.64127" lon="6.24395">
        <ele>1181</ele>
        <time>2013-08-18T13:13:54.000Z</time>
      </trkpt>
      <trkpt lat="46.64125" lon="6.24395">
        <ele>1181</ele>
        <time>2013-08-18T13:13:55.000Z</time>
      </trkpt>
      <trkpt lat="46.64122" lon="6.24394">
        <ele>1181</ele>
        <time>2013-08-18T13:13:56.000Z</time>
      </trkpt>
      <trkpt lat="46.6412" lon="6.24394">
        <ele>1181</ele>
        <time>2013-08-18T13:13:57.000Z</time>
      </trkpt>
      <trkpt lat="46.64118" lon="6.24393">
        <ele>1181</ele>
        <time>2013-08-18T13:13:58.000Z</time>
      </trkpt>
      <trkpt lat="46.64116" lon="6.24392">
        <ele>1181</ele>
        <time>2013-08-18T13:13:59.000Z</time>
      </trkpt>
      <trkpt lat="46.64114" lon="6.24392">
        <ele>1181</ele>
        <time>2013-08-18T13:14:00.000Z</time>
      </trkpt>
      <trkpt lat="46.64113" lon="6.24391">
        <ele>1181</ele>
        <time>2013-08-18T13:14:01.000Z</time>
      </trkpt>
      <trkpt lat="46.64112" lon="6.24391">
        <ele>1181</ele>
        <time>2013-08-18T13:14:02.000Z</time>
      </trkpt>
      <trkpt lat="46.64112" lon="6.2439">
        <ele>1181</ele>
        <time>2013-08-18T13:14:03.000Z</time>
      </trkpt>
      <trkpt lat="46.64111" lon="6.2439">
        <ele>1181</ele>
        <time>2013-08-18T13:14:04.000Z</time>
      </trkpt>
      <trkpt lat="46.64111" lon="6.2439">
        <ele>1181</ele>
        <time>2013-08-18T13:14:05.000Z</time>
      </trkpt>
      <trkpt lat="46.6411" lon="6.24389">
        <ele>1181</ele>
        <time>2013-08-18T13:14:06.000Z</time>
      </trkpt>
      <trkpt lat="46.6411" lon="6.24389">
        <ele>1181</ele>
        <time>2013-08-18T13:14:07.000Z</time>
      </trkpt>
      <trkpt lat="46.6411" lon="6.24389">
        <ele>1182</ele>
        <time>2013-08-18T13:14:08.000Z</time>
      </trkpt>
      <trkpt lat="46.64109" lon="6.24389">
        <ele>1182</ele>
        <time>2013-08-18T13:14:09.000Z</time>
      </trkpt>
      <trkpt lat="46.64109" lon="6.24388">
        <ele>1182</ele>
        <time>2013-08-18T13:14:10.000Z</time>
      </trkpt>
      <trkpt lat="46.64109" lon="6.24388">
        <ele>1182</ele>
        <time>2013-08-18T13:14:11.000Z</time>
      </trkpt>
      <trkpt lat="46.64109" lon="6.24388">
        <ele>1182</ele>
        <time>2013-08-18T13:14:12.000Z</time>
      </trkpt>
      <trkpt lat="46.64108" lon="6.24388">
        <ele>1182</ele>
        <time>2013-08-18T13:14:13.000Z</time>
      </trkpt>
      <trkpt lat="46.64108" lon="6.24387">
        <ele>1182</ele>
        <time>2013-08-18T13:14:14.000Z</time>
      </trkpt>
      <trkpt lat="46.64108" lon="6.24387">
        <ele>1182</ele>
        <time>2013-08-18T13:14:15.000Z</time>
      </trkpt>
      <trkpt lat="46.64108" lon="6.24387">
        <ele>1182</ele>
        <time>2013-08-18T13:14:16.000Z</time>
      </trkpt>
      <trkpt lat="46.64107" lon="6.24387">
        <ele>1182</ele>
        <time>2013-08-18T13:14:18.000Z</time>
      </trkpt>
      <trkpt lat="46.64107" lon="6.24387">
        <ele>1182</ele>
        <time>2013-08-18T13:14:19.000Z</time>
      </trkpt>
      <trkpt lat="46.64107" lon="6.24387">
        <ele>1182</ele>
        <time>2013-08-18T13:14:21.000Z</time>
      </trkpt>
      <trkpt lat="46.64107" lon="6.24386">
        <ele>1182</ele>
        <time>2013-08-18T13:14:22.000Z</time>
      </trkpt>
      <trkpt lat="46.64107" lon="6.24386">
        <ele>1182</ele>
        <time>2013-08-18T13:14:23.000Z</time>
      </trkpt>
      <trkpt lat="46.64106" lon="6.24386">
        <ele>1182</ele>
        <time>2013-08-18T13:14:26.000Z</time>
      </trkpt>
      <trkpt lat="46.64106" lon="6.24386">
        <ele>1182</ele>
        <time>2013-08-18T13:14:29.000Z</time>
      </trkpt>
      <trkpt lat="46.64107" lon="6.24386">
        <ele>1182</ele>
        <time>2013-08-18T13:14:41.000Z</time>
      </trkpt>
      <trkpt lat="46.64107" lon="6.24386">
        <ele>1182</ele>
        <time>2013-08-18T13:14:44.000Z</time>
      </trkpt>
      <trkpt lat="46.64107" lon="6.24385">
        <ele>1182</ele>
        <time>2013-08-18T13:14:46.000Z</time>
      </trkpt>
      <trkpt lat="46.64107" lon="6.24385">
        <ele>1182</ele>
        <time>2013-08-18T13:14:48.000Z</time>
      </trkpt>
      <trkpt lat="46.64108" lon="6.24385">
        <ele>1182</ele>
        <time>2013-08-18T13:14:51.000Z</time>
      </trkpt>
      <trkpt lat="46.64108" lon="6.24385">
        <ele>1182</ele>
        <time>2013-08-18T13:14:58.000Z</time>
      </trkpt>
      <trkpt lat="46.64109" lon="6.24385">
        <ele>1182</ele>
        <time>2013-08-18T13:15:00.000Z</time>
      </trkpt>
      <trkpt lat="46.64109" lon="6.24385">
        <ele>1182</ele>
        <time>2013-08-18T13:15:02.000Z</time>
      </trkpt>
      <trkpt lat="46.64109" lon="6.24385">
        <ele>1182</ele>
        <time>2013-08-18T13:15:04.000Z</time>
      </trkpt>
      <trkpt lat="46.6411" lon="6.24386">
        <ele>1182</ele>
        <time>2013-08-18T13:15:06.000Z</time>
      </trkpt>
      <trkpt lat="46.6411" lon="6.24386">
        <ele>1182</ele>
        <time>2013-08-18T13:15:07.000Z</time>
      </trkpt>
      <trkpt lat="46.6411" lon="6.24387">
        <ele>1182</ele>
        <time>2013-08-18T13:15:13.000Z</time>
      </trkpt>
      <trkpt lat="46.6411" lon="6.24387">
        <ele>1182</ele>
        <time>2013-08-18T13:15:14.000Z</time>
      </trkpt>
      <trkpt lat="46.6411" lon="6.24387">
        <ele>1182</ele>
        <time>2013-08-18T13:15:19.000Z</time>
      </trkpt>
      <trkpt lat="46.64109" lon="6.24387">
        <ele>1182</ele>
        <time>2013-08-18T13:15:32.000Z</time>
      </trkpt>
      <trkpt lat="46.64109" lon="6.24387">
        <ele>1182</ele>
        <time>2013-08-18T13:15:36.000Z</time>
      </trkpt>
      <trkpt lat="46.64108" lon="6.24386">
        <ele>1182</ele>
        <time>2013-08-18T13:15:40.000Z</time>
      </trkpt>
      <trkpt lat="46.64108" lon="6.24386">
        <ele>1182</ele>
        <time>2013-08-18T13:15:43.000Z</time>
      </trkpt>
      <trkpt lat="46.64108" lon="6.24386">
        <ele>1182</ele>
        <time>2013-08-18T13:15:46.000Z</time>
      </trkpt>
      <trkpt lat="46.64108" lon="6.24386">
        <ele>1182</ele>
        <time>2013-08-18T13:15:50.000Z</time>
      </trkpt>
      <trkpt lat="46.64107" lon="6.24386">
        <ele>1182</ele>
        <time>2013-08-18T13:15:53.000Z</time>
      </trkpt>
      <trkpt lat="46.64107" lon="6.24386">
        <ele>1182</ele>
        <time>2013-08-18T13:15:56.000Z</time>
      </trkpt>
      <trkpt lat="46.64106" lon="6.24386">
        <ele>1182</ele>
        <time>2013-08-18T13:16:04.000Z</time>
      </trkpt>
      <trkpt lat="46.64106" lon="6.24386">
        <ele>1182</ele>
        <time>2013-08-18T13:16:08.000Z</time>
      </trkpt>
      <trkpt lat="46.64106" lon="6.24386">
        <ele>1182</ele>
        <time>2013-08-18T13:16:11.000Z</time>
      </trkpt>
      <trkpt lat="46.64105" lon="6.24386">
        <ele>1182</ele>
        <time>2013-08-18T13:16:15.000Z</time>
      </trkpt>
      <trkpt lat="46.64105" lon="6.24386">
        <ele>1182</ele>
        <time>2013-08-18T13:16:18.000Z</time>
      </trkpt>
      <trkpt lat="46.64105" lon="6.24386">
        <ele>1182</ele>
        <time>2013-08-18T13:16:20.000Z</time>
      </trkpt>
      <trkpt lat="46.64105" lon="6.24386">
        <ele>1182</ele>
        <time>2013-08-18T13:16:22.000Z</time>
      </trkpt>
      <trkpt lat="46.64104" lon="6.24386">
        <ele>1182</ele>
        <time>2013-08-18T13:16:23.000Z</time>
      </trkpt>
      <trkpt lat="46.64103" lon="6.24387">
        <ele>1182</ele>
        <time>2013-08-18T13:16:24.000Z</time>
      </trkpt>
      <trkpt lat="46.64101" lon="6.24388">
        <ele>1182</ele>
        <time>2013-08-18T13:16:25.000Z</time>
      </trkpt>
      <trkpt lat="46.64098" lon="6.24388">
        <ele>1182</ele>
        <time>2013-08-18T13:16:26.000Z</time>
      </trkpt>
      <trkpt lat="46.64096" lon="6.24388">
        <ele>1182</ele>
        <time>2013-08-18T13:16:27.000Z</time>
      </trkpt>
      <trkpt lat="46.64093" lon="6.24388">
        <ele>1182</ele>
        <time>2013-08-18T13:16:28.000Z</time>
      </trkpt>
      <trkpt lat="46.6409" lon="6.24388">
        <ele>1182</ele>
        <time>2013-08-18T13:16:29.000Z</time>
      </trkpt>
      <trkpt lat="46.64086" lon="6.24388">
        <ele>1182</ele>
        <time>2013-08-18T13:16:30.000Z</time>
      </trkpt>
      <trkpt lat="46.64079" lon="6.24388">
        <ele>1179</ele>
        <time>2013-08-18T13:16:32.000Z</time>
      </trkpt>
      <trkpt lat="46.64076" lon="6.24388">
        <ele>1179</ele>
        <time>2013-08-18T13:16:33.000Z</time>
      </trkpt>
      <trkpt lat="46.64069" lon="6.24388">
        <ele>1179</ele>
        <time>2013-08-18T13:16:35.000Z</time>
      </trkpt>
      <trkpt lat="46.64066" lon="6.24388">
        <ele>1179</ele>
        <time>2013-08-18T13:16:36.000Z</time>
      </trkpt>
      <trkpt lat="46.64062" lon="6.24388">
        <ele>1179</ele>
        <time>2013-08-18T13:16:37.000Z</time>
      </trkpt>
      <trkpt lat="46.64059" lon="6.24388">
        <ele>1179</ele>
        <time>2013-08-18T13:16:38.000Z</time>
      </trkpt>
      <trkpt lat="46.64056" lon="6.24387">
        <ele>1179</ele>
        <time>2013-08-18T13:16:39.000Z</time>
      </trkpt>
      <trkpt lat="46.64052" lon="6.24387">
        <ele>1178</ele>
        <time>2013-08-18T13:16:40.000Z</time>
      </trkpt>
      <trkpt lat="46.64048" lon="6.24386">
        <ele>1178</ele>
        <time>2013-08-18T13:16:41.000Z</time>
      </trkpt>
      <trkpt lat="46.64045" lon="6.24385">
        <ele>1178</ele>
        <time>2013-08-18T13:16:42.000Z</time>
      </trkpt>
      <trkpt lat="46.64041" lon="6.24383">
        <ele>1178</ele>
        <time>2013-08-18T13:16:43.000Z</time>
      </trkpt>
      <trkpt lat="46.64038" lon="6.24381">
        <ele>1178</ele>
        <time>2013-08-18T13:16:44.000Z</time>
      </trkpt>
      <trkpt lat="46.64035" lon="6.24377">
        <ele>1178</ele>
        <time>2013-08-18T13:16:45.000Z</time>
      </trkpt>
      <trkpt lat="46.64032" lon="6.24374">
        <ele>1178</ele>
        <time>2013-08-18T13:16:46.000Z</time>
      </trkpt>
      <trkpt lat="46.6403" lon="6.24371">
        <ele>1178</ele>
        <time>2013-08-18T13:16:47.000Z</time>
      </trkpt>
      <trkpt lat="46.64028" lon="6.24369">
        <ele>1177</ele>
        <time>2013-08-18T13:16:48.000Z</time>
      </trkpt>
      <trkpt lat="46.64027" lon="6.24367">
        <ele>1177</ele>
        <time>2013-08-18T13:16:49.000Z</time>
      </trkpt>
      <trkpt lat="46.64025" lon="6.24364">
        <ele>1177</ele>
        <time>2013-08-18T13:16:50.000Z</time>
      </trkpt>
      <trkpt lat="46.64024" lon="6.2436">
        <ele>1177</ele>
        <time>2013-08-18T13:16:51.000Z</time>
      </trkpt>
      <trkpt lat="46.64022" lon="6.24356">
        <ele>1177</ele>
        <time>2013-08-18T13:16:52.000Z</time>
      </trkpt>
      <trkpt lat="46.6402" lon="6.24351">
        <ele>1177</ele>
        <time>2013-08-18T13:16:53.000Z</time>
      </trkpt>
      <trkpt lat="46.64018" lon="6.24348">
        <ele>1177</ele>
        <time>2013-08-18T13:16:54.000Z</time>
      </trkpt>
      <trkpt lat="46.64016" lon="6.24344">
        <ele>1177</ele>
        <time>2013-08-18T13:16:55.000Z</time>
      </trkpt>
      <trkpt lat="46.64014" lon="6.2434">
        <ele>1177</ele>
        <time>2013-08-18T13:16:56.000Z</time>
      </trkpt>
      <trkpt lat="46.64013" lon="6.24335">
        <ele>1177</ele>
        <time>2013-08-18T13:16:57.000Z</time>
      </trkpt>
      <trkpt lat="46.6401" lon="6.2433">
        <ele>1178</ele>
        <time>2013-08-18T13:16:58.000Z</time>
      </trkpt>
      <trkpt lat="46.64008" lon="6.24326">
        <ele>1178</ele>
        <time>2013-08-18T13:16:59.000Z</time>
      </trkpt>
      <trkpt lat="46.64006" lon="6.2432">
        <ele>1178</ele>
        <time>2013-08-18T13:17:00.000Z</time>
      </trkpt>
      <trkpt lat="46.64004" lon="6.24315">
        <ele>1179</ele>
        <time>2013-08-18T13:17:01.000Z</time>
      </trkpt>
      <trkpt lat="46.64002" lon="6.2431">
        <ele>1179</ele>
        <time>2013-08-18T13:17:02.000Z</time>
      </trkpt>
      <trkpt lat="46.64" lon="6.24305">
        <ele>1172</ele>
        <time>2013-08-18T13:17:03.000Z</time>
      </trkpt>
      <trkpt lat="46.63998" lon="6.243">
        <ele>1172</ele>
        <time>2013-08-18T13:17:04.000Z</time>
      </trkpt>
      <trkpt lat="46.63996" lon="6.24295">
        <ele>1171</ele>
        <time>2013-08-18T13:17:05.000Z</time>
      </trkpt>
      <trkpt lat="46.63995" lon="6.2429">
        <ele>1171</ele>
        <time>2013-08-18T13:17:06.000Z</time>
      </trkpt>
      <trkpt lat="46.63994" lon="6.24286">
        <ele>1172</ele>
        <time>2013-08-18T13:17:07.000Z</time>
      </trkpt>
      <trkpt lat="46.63993" lon="6.24281">
        <ele>1172</ele>
        <time>2013-08-18T13:17:08.000Z</time>
      </trkpt>
      <trkpt lat="46.63991" lon="6.24276">
        <ele>1172</ele>
        <time>2013-08-18T13:17:09.000Z</time>
      </trkpt>
      <trkpt lat="46.63989" lon="6.2427">
        <ele>1172</ele>
        <time>2013-08-18T13:17:10.000Z</time>
      </trkpt>
      <trkpt lat="46.63987" lon="6.24264">
        <ele>1173</ele>
        <time>2013-08-18T13:17:11.000Z</time>
      </trkpt>
      <trkpt lat="46.63985" lon="6.24258">
        <ele>1173</ele>
        <time>2013-08-18T13:17:12.000Z</time>
      </trkpt>
      <trkpt lat="46.63982" lon="6.24252">
        <ele>1173</ele>
        <time>2013-08-18T13:17:13.000Z</time>
      </trkpt>
      <trkpt lat="46.6398" lon="6.24247">
        <ele>1174</ele>
        <time>2013-08-18T13:17:14.000Z</time>
      </trkpt>
      <trkpt lat="46.63977" lon="6.24242">
        <ele>1173</ele>
        <time>2013-08-18T13:17:15.000Z</time>
      </trkpt>
      <trkpt lat="46.63974" lon="6.24236">
        <ele>1173</ele>
        <time>2013-08-18T13:17:16.000Z</time>
      </trkpt>
      <trkpt lat="46.63972" lon="6.24231">
        <ele>1172</ele>
        <time>2013-08-18T13:17:17.000Z</time>
      </trkpt>
      <trkpt lat="46.6397" lon="6.24225">
        <ele>1172</ele>
        <time>2013-08-18T13:17:18.000Z</time>
      </trkpt>
      <trkpt lat="46.63968" lon="6.24219">
        <ele>1172</ele>
        <time>2013-08-18T13:17:19.000Z</time>
      </trkpt>
      <trkpt lat="46.63967" lon="6.24213">
        <ele>1172</ele>
        <time>2013-08-18T13:17:20.000Z</time>
      </trkpt>
      <trkpt lat="46.63965" lon="6.24207">
        <ele>1172</ele>
        <time>2013-08-18T13:17:21.000Z</time>
      </trkpt>
      <trkpt lat="46.63964" lon="6.24201">
        <ele>1172</ele>
        <time>2013-08-18T13:17:22.000Z</time>
      </trkpt>
      <trkpt lat="46.63963" lon="6.24195">
        <ele>1172</ele>
        <time>2013-08-18T13:17:23.000Z</time>
      </trkpt>
      <trkpt lat="46.63961" lon="6.2419">
        <ele>1172</ele>
        <time>2013-08-18T13:17:24.000Z</time>
      </trkpt>
      <trkpt lat="46.6396" lon="6.24184">
        <ele>1171</ele>
        <time>2013-08-18T13:17:25.000Z</time>
      </trkpt>
      <trkpt lat="46.63958" lon="6.24178">
        <ele>1171</ele>
        <time>2013-08-18T13:17:26.000Z</time>
      </trkpt>
      <trkpt lat="46.63956" lon="6.24171">
        <ele>1171</ele>
        <time>2013-08-18T13:17:27.000Z</time>
      </trkpt>
      <trkpt lat="46.63955" lon="6.24164">
        <ele>1172</ele>
        <time>2013-08-18T13:17:28.000Z</time>
      </trkpt>
      <trkpt lat="46.63953" lon="6.24157">
        <ele>1172</ele>
        <time>2013-08-18T13:17:29.000Z</time>
      </trkpt>
      <trkpt lat="46.63953" lon="6.24149">
        <ele>1172</ele>
        <time>2013-08-18T13:17:30.000Z</time>
      </trkpt>
      <trkpt lat="46.63952" lon="6.24141">
        <ele>1172</ele>
        <time>2013-08-18T13:17:31.000Z</time>
      </trkpt>
      <trkpt lat="46.63951" lon="6.24133">
        <ele>1172</ele>
        <time>2013-08-18T13:17:32.000Z</time>
      </trkpt>
      <trkpt lat="46.6395" lon="6.24126">
        <ele>1172</ele>
        <time>2013-08-18T13:17:33.000Z</time>
      </trkpt>
      <trkpt lat="46.63948" lon="6.24119">
        <ele>1172</ele>
        <time>2013-08-18T13:17:34.000Z</time>
      </trkpt>
      <trkpt lat="46.63945" lon="6.24112">
        <ele>1172</ele>
        <time>2013-08-18T13:17:35.000Z</time>
      </trkpt>
      <trkpt lat="46.63941" lon="6.24104">
        <ele>1171</ele>
        <time>2013-08-18T13:17:36.000Z</time>
      </trkpt>
      <trkpt lat="46.63936" lon="6.24096">
        <ele>1170</ele>
        <time>2013-08-18T13:17:37.000Z</time>
      </trkpt>
      <trkpt lat="46.63932" lon="6.24089">
        <ele>1169</ele>
        <time>2013-08-18T13:17:38.000Z</time>
      </trkpt>
      <trkpt lat="46.63928" lon="6.24082">
        <ele>1169</ele>
        <time>2013-08-18T13:17:39.000Z</time>
      </trkpt>
      <trkpt lat="46.63924" lon="6.24075">
        <ele>1169</ele>
        <time>2013-08-18T13:17:40.000Z</time>
      </trkpt>
      <trkpt lat="46.6392" lon="6.24067">
        <ele>1170</ele>
        <time>2013-08-18T13:17:41.000Z</time>
      </trkpt>
      <trkpt lat="46.63916" lon="6.24059">
        <ele>1165</ele>
        <time>2013-08-18T13:17:42.000Z</time>
      </trkpt>
      <trkpt lat="46.63914" lon="6.24052">
        <ele>1165</ele>
        <time>2013-08-18T13:17:43.000Z</time>
      </trkpt>
      <trkpt lat="46.63911" lon="6.24046">
        <ele>1165</ele>
        <time>2013-08-18T13:17:44.000Z</time>
      </trkpt>
      <trkpt lat="46.63908" lon="6.2404">
        <ele>1165</ele>
        <time>2013-08-18T13:17:45.000Z</time>
      </trkpt>
      <trkpt lat="46.63905" lon="6.24034">
        <ele>1165</ele>
        <time>2013-08-18T13:17:46.000Z</time>
      </trkpt>
      <trkpt lat="46.63901" lon="6.24028">
        <ele>1166</ele>
        <time>2013-08-18T13:17:47.000Z</time>
      </trkpt>
      <trkpt lat="46.63898" lon="6.24021">
        <ele>1166</ele>
        <time>2013-08-18T13:17:48.000Z</time>
      </trkpt>
      <trkpt lat="46.63895" lon="6.24014">
        <ele>1166</ele>
        <time>2013-08-18T13:17:49.000Z</time>
      </trkpt>
      <trkpt lat="46.63894" lon="6.24007">
        <ele>1166</ele>
        <time>2013-08-18T13:17:50.000Z</time>
      </trkpt>
      <trkpt lat="46.63894" lon="6.24">
        <ele>1167</ele>
        <time>2013-08-18T13:17:51.000Z</time>
      </trkpt>
      <trkpt lat="46.63893" lon="6.23996">
        <ele>1170</ele>
        <time>2013-08-18T13:17:52.000Z</time>
      </trkpt>
      <trkpt lat="46.63893" lon="6.23992">
        <ele>1170</ele>
        <time>2013-08-18T13:17:53.000Z</time>
      </trkpt>
      <trkpt lat="46.63893" lon="6.23989">
        <ele>1170</ele>
        <time>2013-08-18T13:17:54.000Z</time>
      </trkpt>
      <trkpt lat="46.63893" lon="6.23986">
        <ele>1170</ele>
        <time>2013-08-18T13:17:55.000Z</time>
      </trkpt>
      <trkpt lat="46.63893" lon="6.23983">
        <ele>1170</ele>
        <time>2013-08-18T13:17:56.000Z</time>
      </trkpt>
      <trkpt lat="46.63893" lon="6.2398">
        <ele>1170</ele>
        <time>2013-08-18T13:17:57.000Z</time>
      </trkpt>
      <trkpt lat="46.63893" lon="6.23978">
        <ele>1170</ele>
        <time>2013-08-18T13:17:58.000Z</time>
      </trkpt>
      <trkpt lat="46.63893" lon="6.23975">
        <ele>1170</ele>
        <time>2013-08-18T13:17:59.000Z</time>
      </trkpt>
      <trkpt lat="46.63894" lon="6.23972">
        <ele>1170</ele>
        <time>2013-08-18T13:18:00.000Z</time>
      </trkpt>
      <trkpt lat="46.63894" lon="6.2397">
        <ele>1170</ele>
        <time>2013-08-18T13:18:01.000Z</time>
      </trkpt>
      <trkpt lat="46.63894" lon="6.23967">
        <ele>1171</ele>
        <time>2013-08-18T13:18:02.000Z</time>
      </trkpt>
      <trkpt lat="46.63895" lon="6.23963">
        <ele>1171</ele>
        <time>2013-08-18T13:18:04.000Z</time>
      </trkpt>
      <trkpt lat="46.63895" lon="6.23961">
        <ele>1171</ele>
        <time>2013-08-18T13:18:05.000Z</time>
      </trkpt>
      <trkpt lat="46.63895" lon="6.23959">
        <ele>1171</ele>
        <time>2013-08-18T13:18:06.000Z</time>
      </trkpt>
      <trkpt lat="46.63895" lon="6.23957">
        <ele>1171</ele>
        <time>2013-08-18T13:18:07.000Z</time>
      </trkpt>
      <trkpt lat="46.63896" lon="6.23952">
        <ele>1171</ele>
        <time>2013-08-18T13:18:09.000Z</time>
      </trkpt>
      <trkpt lat="46.63896" lon="6.2395">
        <ele>1171</ele>
        <time>2013-08-18T13:18:10.000Z</time>
      </trkpt>
      <trkpt lat="46.63896" lon="6.23948">
        <ele>1171</ele>
        <time>2013-08-18T13:18:11.000Z</time>
      </trkpt>
      <trkpt lat="46.63896" lon="6.23946">
        <ele>1171</ele>
        <time>2013-08-18T13:18:12.000Z</time>
      </trkpt>
      <trkpt lat="46.63896" lon="6.23944">
        <ele>1171</ele>
        <time>2013-08-18T13:18:13.000Z</time>
      </trkpt>
      <trkpt lat="46.63896" lon="6.23943">
        <ele>1171</ele>
        <time>2013-08-18T13:18:14.000Z</time>
      </trkpt>
      <trkpt lat="46.63896" lon="6.23939">
        <ele>1172</ele>
        <time>2013-08-18T13:18:16.000Z</time>
      </trkpt>
      <trkpt lat="46.63896" lon="6.23936">
        <ele>1172</ele>
        <time>2013-08-18T13:18:18.000Z</time>
      </trkpt>
      <trkpt lat="46.63896" lon="6.23934">
        <ele>1172</ele>
        <time>2013-08-18T13:18:19.000Z</time>
      </trkpt>
      <trkpt lat="46.63896" lon="6.23933">
        <ele>1172</ele>
        <time>2013-08-18T13:18:20.000Z</time>
      </trkpt>
      <trkpt lat="46.63896" lon="6.23931">
        <ele>1172</ele>
        <time>2013-08-18T13:18:21.000Z</time>
      </trkpt>
      <trkpt lat="46.63896" lon="6.23929">
        <ele>1172</ele>
        <time>2013-08-18T13:18:22.000Z</time>
      </trkpt>
      <trkpt lat="46.63896" lon="6.23923">
        <ele>1172</ele>
        <time>2013-08-18T13:18:25.000Z</time>
      </trkpt>
      <trkpt lat="46.63896" lon="6.23916">
        <ele>1175</ele>
        <time>2013-08-18T13:18:28.000Z</time>
      </trkpt>
      <trkpt lat="46.63897" lon="6.23914">
        <ele>1175</ele>
        <time>2013-08-18T13:18:29.000Z</time>
      </trkpt>
      <trkpt lat="46.63897" lon="6.23912">
        <ele>1175</ele>
        <time>2013-08-18T13:18:30.000Z</time>
      </trkpt>
      <trkpt lat="46.63896" lon="6.2391">
        <ele>1175</ele>
        <time>2013-08-18T13:18:31.000Z</time>
      </trkpt>
      <trkpt lat="46.63896" lon="6.23909">
        <ele>1175</ele>
        <time>2013-08-18T13:18:32.000Z</time>
      </trkpt>
      <trkpt lat="46.63896" lon="6.23908">
        <ele>1175</ele>
        <time>2013-08-18T13:18:33.000Z</time>
      </trkpt>
      <trkpt lat="46.63896" lon="6.23905">
        <ele>1175</ele>
        <time>2013-08-18T13:18:35.000Z</time>
      </trkpt>
      <trkpt lat="46.63895" lon="6.23903">
        <ele>1175</ele>
        <time>2013-08-18T13:18:37.000Z</time>
      </trkpt>
      <trkpt lat="46.63895" lon="6.23902">
        <ele>1175</ele>
        <time>2013-08-18T13:18:38.000Z</time>
      </trkpt>
      <trkpt lat="46.63895" lon="6.239">
        <ele>1175</ele>
        <time>2013-08-18T13:18:39.000Z</time>
      </trkpt>
      <trkpt lat="46.63894" lon="6.23899">
        <ele>1175</ele>
        <time>2013-08-18T13:18:40.000Z</time>
      </trkpt>
      <trkpt lat="46.63894" lon="6.23897">
        <ele>1175</ele>
        <time>2013-08-18T13:18:41.000Z</time>
      </trkpt>
      <trkpt lat="46.63894" lon="6.23896">
        <ele>1175</ele>
        <time>2013-08-18T13:18:42.000Z</time>
      </trkpt>
      <trkpt lat="46.63893" lon="6.23894">
        <ele>1175</ele>
        <time>2013-08-18T13:18:43.000Z</time>
      </trkpt>
      <trkpt lat="46.63893" lon="6.2389">
        <ele>1176</ele>
        <time>2013-08-18T13:18:45.000Z</time>
      </trkpt>
      <trkpt lat="46.63893" lon="6.23889">
        <ele>1176</ele>
        <time>2013-08-18T13:18:46.000Z</time>
      </trkpt>
      <trkpt lat="46.63892" lon="6.23887">
        <ele>1176</ele>
        <time>2013-08-18T13:18:47.000Z</time>
      </trkpt>
      <trkpt lat="46.63892" lon="6.23885">
        <ele>1176</ele>
        <time>2013-08-18T13:18:48.000Z</time>
      </trkpt>
      <trkpt lat="46.63891" lon="6.23883">
        <ele>1176</ele>
        <time>2013-08-18T13:18:49.000Z</time>
      </trkpt>
      <trkpt lat="46.63891" lon="6.23881">
        <ele>1176</ele>
        <time>2013-08-18T13:18:50.000Z</time>
      </trkpt>
      <trkpt lat="46.63891" lon="6.23877">
        <ele>1176</ele>
        <time>2013-08-18T13:18:52.000Z</time>
      </trkpt>
      <trkpt lat="46.63891" lon="6.23875">
        <ele>1176</ele>
        <time>2013-08-18T13:18:53.000Z</time>
      </trkpt>
      <trkpt lat="46.63891" lon="6.23873">
        <ele>1176</ele>
        <time>2013-08-18T13:18:54.000Z</time>
      </trkpt>
      <trkpt lat="46.63891" lon="6.23871">
        <ele>1176</ele>
        <time>2013-08-18T13:18:55.000Z</time>
      </trkpt>
      <trkpt lat="46.63891" lon="6.2387">
        <ele>1176</ele>
        <time>2013-08-18T13:18:56.000Z</time>
      </trkpt>
      <trkpt lat="46.6389" lon="6.23868">
        <ele>1176</ele>
        <time>2013-08-18T13:18:57.000Z</time>
      </trkpt>
      <trkpt lat="46.6389" lon="6.23866">
        <ele>1176</ele>
        <time>2013-08-18T13:18:58.000Z</time>
      </trkpt>
      <trkpt lat="46.63889" lon="6.23864">
        <ele>1176</ele>
        <time>2013-08-18T13:18:59.000Z</time>
      </trkpt>
      <trkpt lat="46.63889" lon="6.23862">
        <ele>1177</ele>
        <time>2013-08-18T13:19:00.000Z</time>
      </trkpt>
      <trkpt lat="46.63888" lon="6.2386">
        <ele>1177</ele>
        <time>2013-08-18T13:19:01.000Z</time>
      </trkpt>
      <trkpt lat="46.63888" lon="6.23859">
        <ele>1177</ele>
        <time>2013-08-18T13:19:02.000Z</time>
      </trkpt>
      <trkpt lat="46.63887" lon="6.23858">
        <ele>1177</ele>
        <time>2013-08-18T13:19:03.000Z</time>
      </trkpt>
      <trkpt lat="46.63887" lon="6.23856">
        <ele>1177</ele>
        <time>2013-08-18T13:19:04.000Z</time>
      </trkpt>
      <trkpt lat="46.63887" lon="6.23854">
        <ele>1177</ele>
        <time>2013-08-18T13:19:05.000Z</time>
      </trkpt>
      <trkpt lat="46.63886" lon="6.23853">
        <ele>1177</ele>
        <time>2013-08-18T13:19:06.000Z</time>
      </trkpt>
      <trkpt lat="46.63885" lon="6.23851">
        <ele>1177</ele>
        <time>2013-08-18T13:19:07.000Z</time>
      </trkpt>
      <trkpt lat="46.63885" lon="6.23849">
        <ele>1177</ele>
        <time>2013-08-18T13:19:08.000Z</time>
      </trkpt>
      <trkpt lat="46.63884" lon="6.23847">
        <ele>1177</ele>
        <time>2013-08-18T13:19:09.000Z</time>
      </trkpt>
      <trkpt lat="46.63884" lon="6.23846">
        <ele>1177</ele>
        <time>2013-08-18T13:19:10.000Z</time>
      </trkpt>
      <trkpt lat="46.63883" lon="6.23844">
        <ele>1177</ele>
        <time>2013-08-18T13:19:11.000Z</time>
      </trkpt>
      <trkpt lat="46.63882" lon="6.23843">
        <ele>1177</ele>
        <time>2013-08-18T13:19:12.000Z</time>
      </trkpt>
      <trkpt lat="46.63881" lon="6.23841">
        <ele>1177</ele>
        <time>2013-08-18T13:19:13.000Z</time>
      </trkpt>
      <trkpt lat="46.63881" lon="6.23839">
        <ele>1177</ele>
        <time>2013-08-18T13:19:14.000Z</time>
      </trkpt>
      <trkpt lat="46.6388" lon="6.23837">
        <ele>1177</ele>
        <time>2013-08-18T13:19:15.000Z</time>
      </trkpt>
      <trkpt lat="46.6388" lon="6.23836">
        <ele>1177</ele>
        <time>2013-08-18T13:19:16.000Z</time>
      </trkpt>
      <trkpt lat="46.63879" lon="6.23834">
        <ele>1177</ele>
        <time>2013-08-18T13:19:17.000Z</time>
      </trkpt>
      <trkpt lat="46.63878" lon="6.23832">
        <ele>1181</ele>
        <time>2013-08-18T13:19:18.000Z</time>
      </trkpt>
      <trkpt lat="46.63877" lon="6.23831">
        <ele>1181</ele>
        <time>2013-08-18T13:19:19.000Z</time>
      </trkpt>
      <trkpt lat="46.63877" lon="6.23829">
        <ele>1181</ele>
        <time>2013-08-18T13:19:20.000Z</time>
      </trkpt>
      <trkpt lat="46.63877" lon="6.23827">
        <ele>1181</ele>
        <time>2013-08-18T13:19:21.000Z</time>
      </trkpt>
      <trkpt lat="46.63876" lon="6.23826">
        <ele>1181</ele>
        <time>2013-08-18T13:19:22.000Z</time>
      </trkpt>
      <trkpt lat="46.63876" lon="6.23825">
        <ele>1181</ele>
        <time>2013-08-18T13:19:23.000Z</time>
      </trkpt>
      <trkpt lat="46.63875" lon="6.23823">
        <ele>1181</ele>
        <time>2013-08-18T13:19:24.000Z</time>
      </trkpt>
      <trkpt lat="46.63875" lon="6.23822">
        <ele>1181</ele>
        <time>2013-08-18T13:19:25.000Z</time>
      </trkpt>
      <trkpt lat="46.63874" lon="6.23821">
        <ele>1181</ele>
        <time>2013-08-18T13:19:26.000Z</time>
      </trkpt>
      <trkpt lat="46.63874" lon="6.23819">
        <ele>1181</ele>
        <time>2013-08-18T13:19:27.000Z</time>
      </trkpt>
      <trkpt lat="46.63873" lon="6.23818">
        <ele>1181</ele>
        <time>2013-08-18T13:19:28.000Z</time>
      </trkpt>
      <trkpt lat="46.63873" lon="6.23817">
        <ele>1181</ele>
        <time>2013-08-18T13:19:29.000Z</time>
      </trkpt>
      <trkpt lat="46.63872" lon="6.23815">
        <ele>1181</ele>
        <time>2013-08-18T13:19:30.000Z</time>
      </trkpt>
      <trkpt lat="46.63872" lon="6.23814">
        <ele>1181</ele>
        <time>2013-08-18T13:19:31.000Z</time>
      </trkpt>
      <trkpt lat="46.63872" lon="6.23813">
        <ele>1181</ele>
        <time>2013-08-18T13:19:32.000Z</time>
      </trkpt>
      <trkpt lat="46.63871" lon="6.23812">
        <ele>1181</ele>
        <time>2013-08-18T13:19:33.000Z</time>
      </trkpt>
      <trkpt lat="46.63871" lon="6.2381">
        <ele>1181</ele>
        <time>2013-08-18T13:19:34.000Z</time>
      </trkpt>
      <trkpt lat="46.6387" lon="6.23809">
        <ele>1181</ele>
        <time>2013-08-18T13:19:35.000Z</time>
      </trkpt>
      <trkpt lat="46.63869" lon="6.23808">
        <ele>1181</ele>
        <time>2013-08-18T13:19:36.000Z</time>
      </trkpt>
      <trkpt lat="46.63868" lon="6.23807">
        <ele>1181</ele>
        <time>2013-08-18T13:19:37.000Z</time>
      </trkpt>
      <trkpt lat="46.63867" lon="6.23806">
        <ele>1182</ele>
        <time>2013-08-18T13:19:38.000Z</time>
      </trkpt>
      <trkpt lat="46.63867" lon="6.23805">
        <ele>1182</ele>
        <time>2013-08-18T13:19:39.000Z</time>
      </trkpt>
      <trkpt lat="46.63866" lon="6.23803">
        <ele>1182</ele>
        <time>2013-08-18T13:19:40.000Z</time>
      </trkpt>
      <trkpt lat="46.63865" lon="6.23802">
        <ele>1182</ele>
        <time>2013-08-18T13:19:41.000Z</time>
      </trkpt>
      <trkpt lat="46.63865" lon="6.238">
        <ele>1182</ele>
        <time>2013-08-18T13:19:42.000Z</time>
      </trkpt>
      <trkpt lat="46.63864" lon="6.23799">
        <ele>1182</ele>
        <time>2013-08-18T13:19:43.000Z</time>
      </trkpt>
      <trkpt lat="46.63863" lon="6.23798">
        <ele>1182</ele>
        <time>2013-08-18T13:19:44.000Z</time>
      </trkpt>
      <trkpt lat="46.63862" lon="6.23796">
        <ele>1182</ele>
        <time>2013-08-18T13:19:45.000Z</time>
      </trkpt>
      <trkpt lat="46.63861" lon="6.23795">
        <ele>1182</ele>
        <time>2013-08-18T13:19:46.000Z</time>
      </trkpt>
      <trkpt lat="46.6386" lon="6.23794">
        <ele>1182</ele>
        <time>2013-08-18T13:19:47.000Z</time>
      </trkpt>
      <trkpt lat="46.6386" lon="6.23792">
        <ele>1182</ele>
        <time>2013-08-18T13:19:48.000Z</time>
      </trkpt>
      <trkpt lat="46.63859" lon="6.23791">
        <ele>1182</ele>
        <time>2013-08-18T13:19:49.000Z</time>
      </trkpt>
      <trkpt lat="46.63859" lon="6.23789">
        <ele>1182</ele>
        <time>2013-08-18T13:19:50.000Z</time>
      </trkpt>
      <trkpt lat="46.63858" lon="6.23788">
        <ele>1182</ele>
        <time>2013-08-18T13:19:51.000Z</time>
      </trkpt>
      <trkpt lat="46.63857" lon="6.23787">
        <ele>1182</ele>
        <time>2013-08-18T13:19:52.000Z</time>
      </trkpt>
      <trkpt lat="46.63857" lon="6.23786">
        <ele>1182</ele>
        <time>2013-08-18T13:19:53.000Z</time>
      </trkpt>
      <trkpt lat="46.63856" lon="6.23785">
        <ele>1182</ele>
        <time>2013-08-18T13:19:54.000Z</time>
      </trkpt>
      <trkpt lat="46.63855" lon="6.23784">
        <ele>1182</ele>
        <time>2013-08-18T13:19:55.000Z</time>
      </trkpt>
      <trkpt lat="46.63854" lon="6.23782">
        <ele>1182</ele>
        <time>2013-08-18T13:19:56.000Z</time>
      </trkpt>
      <trkpt lat="46.63853" lon="6.23781">
        <ele>1182</ele>
        <time>2013-08-18T13:19:57.000Z</time>
      </trkpt>
      <trkpt lat="46.63852" lon="6.2378">
        <ele>1182</ele>
        <time>2013-08-18T13:19:58.000Z</time>
      </trkpt>
      <trkpt lat="46.63851" lon="6.23778">
        <ele>1183</ele>
        <time>2013-08-18T13:19:59.000Z</time>
      </trkpt>
      <trkpt lat="46.63851" lon="6.23777">
        <ele>1183</ele>
        <time>2013-08-18T13:20:00.000Z</time>
      </trkpt>
      <trkpt lat="46.6385" lon="6.23775">
        <ele>1183</ele>
        <time>2013-08-18T13:20:01.000Z</time>
      </trkpt>
      <trkpt lat="46.6385" lon="6.23774">
        <ele>1183</ele>
        <time>2013-08-18T13:20:02.000Z</time>
      </trkpt>
      <trkpt lat="46.63849" lon="6.23772">
        <ele>1183</ele>
        <time>2013-08-18T13:20:03.000Z</time>
      </trkpt>
      <trkpt lat="46.63848" lon="6.2377">
        <ele>1183</ele>
        <time>2013-08-18T13:20:04.000Z</time>
      </trkpt>
      <trkpt lat="46.63848" lon="6.23769">
        <ele>1183</ele>
        <time>2013-08-18T13:20:05.000Z</time>
      </trkpt>
      <trkpt lat="46.63847" lon="6.23768">
        <ele>1183</ele>
        <time>2013-08-18T13:20:06.000Z</time>
      </trkpt>
      <trkpt lat="46.63846" lon="6.23767">
        <ele>1183</ele>
        <time>2013-08-18T13:20:07.000Z</time>
      </trkpt>
      <trkpt lat="46.63846" lon="6.23765">
        <ele>1183</ele>
        <time>2013-08-18T13:20:08.000Z</time>
      </trkpt>
      <trkpt lat="46.63845" lon="6.23763">
        <ele>1183</ele>
        <time>2013-08-18T13:20:09.000Z</time>
      </trkpt>
      <trkpt lat="46.63844" lon="6.23761">
        <ele>1183</ele>
        <time>2013-08-18T13:20:10.000Z</time>
      </trkpt>
      <trkpt lat="46.63843" lon="6.23759">
        <ele>1183</ele>
        <time>2013-08-18T13:20:11.000Z</time>
      </trkpt>
      <trkpt lat="46.63842" lon="6.23758">
        <ele>1183</ele>
        <time>2013-08-18T13:20:12.000Z</time>
      </trkpt>
      <trkpt lat="46.63842" lon="6.23756">
        <ele>1183</ele>
        <time>2013-08-18T13:20:13.000Z</time>
      </trkpt>
      <trkpt lat="46.63841" lon="6.23753">
        <ele>1184</ele>
        <time>2013-08-18T13:20:14.000Z</time>
      </trkpt>
      <trkpt lat="46.63841" lon="6.23751">
        <ele>1184</ele>
        <time>2013-08-18T13:20:15.000Z</time>
      </trkpt>
      <trkpt lat="46.6384" lon="6.23749">
        <ele>1185</ele>
        <time>2013-08-18T13:20:16.000Z</time>
      </trkpt>
      <trkpt lat="46.6384" lon="6.23747">
        <ele>1185</ele>
        <time>2013-08-18T13:20:17.000Z</time>
      </trkpt>
      <trkpt lat="46.63839" lon="6.23744">
        <ele>1185</ele>
        <time>2013-08-18T13:20:18.000Z</time>
      </trkpt>
      <trkpt lat="46.63839" lon="6.23742">
        <ele>1185</ele>
        <time>2013-08-18T13:20:19.000Z</time>
      </trkpt>
      <trkpt lat="46.63839" lon="6.2374">
        <ele>1186</ele>
        <time>2013-08-18T13:20:20.000Z</time>
      </trkpt>
      <trkpt lat="46.63838" lon="6.23738">
        <ele>1186</ele>
        <time>2013-08-18T13:20:21.000Z</time>
      </trkpt>
      <trkpt lat="46.63837" lon="6.23735">
        <ele>1186</ele>
        <time>2013-08-18T13:20:22.000Z</time>
      </trkpt>
      <trkpt lat="46.63836" lon="6.23733">
        <ele>1186</ele>
        <time>2013-08-18T13:20:23.000Z</time>
      </trkpt>
      <trkpt lat="46.63835" lon="6.23731">
        <ele>1186</ele>
        <time>2013-08-18T13:20:24.000Z</time>
      </trkpt>
      <trkpt lat="46.63835" lon="6.23728">
        <ele>1186</ele>
        <time>2013-08-18T13:20:25.000Z</time>
      </trkpt>
      <trkpt lat="46.63834" lon="6.23725">
        <ele>1186</ele>
        <time>2013-08-18T13:20:26.000Z</time>
      </trkpt>
      <trkpt lat="46.63833" lon="6.23722">
        <ele>1183</ele>
        <time>2013-08-18T13:20:27.000Z</time>
      </trkpt>
      <trkpt lat="46.63832" lon="6.23719">
        <ele>1183</ele>
        <time>2013-08-18T13:20:28.000Z</time>
      </trkpt>
      <trkpt lat="46.63832" lon="6.23716">
        <ele>1183</ele>
        <time>2013-08-18T13:20:29.000Z</time>
      </trkpt>
      <trkpt lat="46.63832" lon="6.23714">
        <ele>1183</ele>
        <time>2013-08-18T13:20:30.000Z</time>
      </trkpt>
      <trkpt lat="46.63831" lon="6.23711">
        <ele>1183</ele>
        <time>2013-08-18T13:20:31.000Z</time>
      </trkpt>
      <trkpt lat="46.63831" lon="6.23708">
        <ele>1183</ele>
        <time>2013-08-18T13:20:32.000Z</time>
      </trkpt>
      <trkpt lat="46.63831" lon="6.23706">
        <ele>1183</ele>
        <time>2013-08-18T13:20:33.000Z</time>
      </trkpt>
      <trkpt lat="46.6383" lon="6.23703">
        <ele>1183</ele>
        <time>2013-08-18T13:20:34.000Z</time>
      </trkpt>
      <trkpt lat="46.63829" lon="6.237">
        <ele>1184</ele>
        <time>2013-08-18T13:20:35.000Z</time>
      </trkpt>
      <trkpt lat="46.63828" lon="6.23697">
        <ele>1184</ele>
        <time>2013-08-18T13:20:36.000Z</time>
      </trkpt>
      <trkpt lat="46.63828" lon="6.23694">
        <ele>1184</ele>
        <time>2013-08-18T13:20:37.000Z</time>
      </trkpt>
      <trkpt lat="46.63828" lon="6.23691">
        <ele>1184</ele>
        <time>2013-08-18T13:20:38.000Z</time>
      </trkpt>
      <trkpt lat="46.63828" lon="6.23689">
        <ele>1184</ele>
        <time>2013-08-18T13:20:39.000Z</time>
      </trkpt>
      <trkpt lat="46.63827" lon="6.23687">
        <ele>1184</ele>
        <time>2013-08-18T13:20:40.000Z</time>
      </trkpt>
      <trkpt lat="46.63827" lon="6.23684">
        <ele>1185</ele>
        <time>2013-08-18T13:20:41.000Z</time>
      </trkpt>
      <trkpt lat="46.63827" lon="6.23681">
        <ele>1185</ele>
        <time>2013-08-18T13:20:42.000Z</time>
      </trkpt>
      <trkpt lat="46.63826" lon="6.23677">
        <ele>1185</ele>
        <time>2013-08-18T13:20:43.000Z</time>
      </trkpt>
      <trkpt lat="46.63826" lon="6.23671">
        <ele>1186</ele>
        <time>2013-08-18T13:20:45.000Z</time>
      </trkpt>
      <trkpt lat="46.63826" lon="6.23667">
        <ele>1186</ele>
        <time>2013-08-18T13:20:46.000Z</time>
      </trkpt>
      <trkpt lat="46.63825" lon="6.23664">
        <ele>1187</ele>
        <time>2013-08-18T13:20:47.000Z</time>
      </trkpt>
      <trkpt lat="46.63825" lon="6.23662">
        <ele>1187</ele>
        <time>2013-08-18T13:20:48.000Z</time>
      </trkpt>
      <trkpt lat="46.63824" lon="6.23659">
        <ele>1187</ele>
        <time>2013-08-18T13:20:49.000Z</time>
      </trkpt>
      <trkpt lat="46.63824" lon="6.23657">
        <ele>1187</ele>
        <time>2013-08-18T13:20:50.000Z</time>
      </trkpt>
      <trkpt lat="46.63823" lon="6.23655">
        <ele>1186</ele>
        <time>2013-08-18T13:20:51.000Z</time>
      </trkpt>
      <trkpt lat="46.63824" lon="6.23647">
        <ele>1186</ele>
        <time>2013-08-18T13:20:54.000Z</time>
      </trkpt>
      <trkpt lat="46.63823" lon="6.23644">
        <ele>1186</ele>
        <time>2013-08-18T13:20:55.000Z</time>
      </trkpt>
      <trkpt lat="46.63824" lon="6.23641">
        <ele>1186</ele>
        <time>2013-08-18T13:20:56.000Z</time>
      </trkpt>
      <trkpt lat="46.63824" lon="6.23638">
        <ele>1187</ele>
        <time>2013-08-18T13:20:57.000Z</time>
      </trkpt>
      <trkpt lat="46.63825" lon="6.23634">
        <ele>1187</ele>
        <time>2013-08-18T13:20:58.000Z</time>
      </trkpt>
      <trkpt lat="46.63824" lon="6.23626">
        <ele>1187</ele>
        <time>2013-08-18T13:21:00.000Z</time>
      </trkpt>
      <trkpt lat="46.63824" lon="6.23624">
        <ele>1187</ele>
        <time>2013-08-18T13:21:01.000Z</time>
      </trkpt>
      <trkpt lat="46.63823" lon="6.23617">
        <ele>1187</ele>
        <time>2013-08-18T13:21:03.000Z</time>
      </trkpt>
      <trkpt lat="46.63823" lon="6.23615">
        <ele>1187</ele>
        <time>2013-08-18T13:21:04.000Z</time>
      </trkpt>
      <trkpt lat="46.63823" lon="6.23613">
        <ele>1187</ele>
        <time>2013-08-18T13:21:05.000Z</time>
      </trkpt>
      <trkpt lat="46.63823" lon="6.23609">
        <ele>1188</ele>
        <time>2013-08-18T13:21:07.000Z</time>
      </trkpt>
      <trkpt lat="46.63824" lon="6.23606">
        <ele>1188</ele>
        <time>2013-08-18T13:21:08.000Z</time>
      </trkpt>
      <trkpt lat="46.63823" lon="6.23604">
        <ele>1188</ele>
        <time>2013-08-18T13:21:09.000Z</time>
      </trkpt>
      <trkpt lat="46.63823" lon="6.23602">
        <ele>1188</ele>
        <time>2013-08-18T13:21:10.000Z</time>
      </trkpt>
      <trkpt lat="46.63823" lon="6.236">
        <ele>1188</ele>
        <time>2013-08-18T13:21:11.000Z</time>
      </trkpt>
      <trkpt lat="46.63822" lon="6.23598">
        <ele>1188</ele>
        <time>2013-08-18T13:21:12.000Z</time>
      </trkpt>
      <trkpt lat="46.63822" lon="6.23596">
        <ele>1188</ele>
        <time>2013-08-18T13:21:13.000Z</time>
      </trkpt>
      <trkpt lat="46.63821" lon="6.23594">
        <ele>1188</ele>
        <time>2013-08-18T13:21:14.000Z</time>
      </trkpt>
      <trkpt lat="46.63821" lon="6.23592">
        <ele>1189</ele>
        <time>2013-08-18T13:21:15.000Z</time>
      </trkpt>
      <trkpt lat="46.6382" lon="6.2359">
        <ele>1189</ele>
        <time>2013-08-18T13:21:16.000Z</time>
      </trkpt>
      <trkpt lat="46.6382" lon="6.23587">
        <ele>1189</ele>
        <time>2013-08-18T13:21:17.000Z</time>
      </trkpt>
      <trkpt lat="46.63819" lon="6.23585">
        <ele>1189</ele>
        <time>2013-08-18T13:21:18.000Z</time>
      </trkpt>
      <trkpt lat="46.63819" lon="6.23582">
        <ele>1190</ele>
        <time>2013-08-18T13:21:19.000Z</time>
      </trkpt>
      <trkpt lat="46.63819" lon="6.23579">
        <ele>1190</ele>
        <time>2013-08-18T13:21:20.000Z</time>
      </trkpt>
      <trkpt lat="46.63818" lon="6.23576">
        <ele>1190</ele>
        <time>2013-08-18T13:21:21.000Z</time>
      </trkpt>
      <trkpt lat="46.63817" lon="6.23573">
        <ele>1190</ele>
        <time>2013-08-18T13:21:22.000Z</time>
      </trkpt>
      <trkpt lat="46.63816" lon="6.2357">
        <ele>1190</ele>
        <time>2013-08-18T13:21:23.000Z</time>
      </trkpt>
      <trkpt lat="46.63815" lon="6.23568">
        <ele>1190</ele>
        <time>2013-08-18T13:21:24.000Z</time>
      </trkpt>
      <trkpt lat="46.63814" lon="6.23565">
        <ele>1190</ele>
        <time>2013-08-18T13:21:25.000Z</time>
      </trkpt>
      <trkpt lat="46.63813" lon="6.23563">
        <ele>1190</ele>
        <time>2013-08-18T13:21:26.000Z</time>
      </trkpt>
      <trkpt lat="46.63812" lon="6.2356">
        <ele>1190</ele>
        <time>2013-08-18T13:21:27.000Z</time>
      </trkpt>
      <trkpt lat="46.63812" lon="6.23558">
        <ele>1190</ele>
        <time>2013-08-18T13:21:28.000Z</time>
      </trkpt>
      <trkpt lat="46.63811" lon="6.23556">
        <ele>1190</ele>
        <time>2013-08-18T13:21:29.000Z</time>
      </trkpt>
      <trkpt lat="46.6381" lon="6.23553">
        <ele>1190</ele>
        <time>2013-08-18T13:21:30.000Z</time>
      </trkpt>
      <trkpt lat="46.63809" lon="6.23551">
        <ele>1190</ele>
        <time>2013-08-18T13:21:31.000Z</time>
      </trkpt>
      <trkpt lat="46.63808" lon="6.23549">
        <ele>1190</ele>
        <time>2013-08-18T13:21:32.000Z</time>
      </trkpt>
      <trkpt lat="46.63807" lon="6.23547">
        <ele>1190</ele>
        <time>2013-08-18T13:21:33.000Z</time>
      </trkpt>
      <trkpt lat="46.63806" lon="6.23545">
        <ele>1190</ele>
        <time>2013-08-18T13:21:34.000Z</time>
      </trkpt>
      <trkpt lat="46.63805" lon="6.23542">
        <ele>1190</ele>
        <time>2013-08-18T13:21:35.000Z</time>
      </trkpt>
      <trkpt lat="46.63804" lon="6.2354">
        <ele>1190</ele>
        <time>2013-08-18T13:21:36.000Z</time>
      </trkpt>
      <trkpt lat="46.63803" lon="6.23537">
        <ele>1190</ele>
        <time>2013-08-18T13:21:37.000Z</time>
      </trkpt>
      <trkpt lat="46.63802" lon="6.23534">
        <ele>1191</ele>
        <time>2013-08-18T13:21:38.000Z</time>
      </trkpt>
      <trkpt lat="46.638" lon="6.23532">
        <ele>1191</ele>
        <time>2013-08-18T13:21:39.000Z</time>
      </trkpt>
      <trkpt lat="46.638" lon="6.23529">
        <ele>1191</ele>
        <time>2013-08-18T13:21:40.000Z</time>
      </trkpt>
      <trkpt lat="46.63799" lon="6.23527">
        <ele>1191</ele>
        <time>2013-08-18T13:21:41.000Z</time>
      </trkpt>
      <trkpt lat="46.63798" lon="6.23525">
        <ele>1191</ele>
        <time>2013-08-18T13:21:42.000Z</time>
      </trkpt>
      <trkpt lat="46.63797" lon="6.23522">
        <ele>1191</ele>
        <time>2013-08-18T13:21:43.000Z</time>
      </trkpt>
      <trkpt lat="46.63796" lon="6.2352">
        <ele>1191</ele>
        <time>2013-08-18T13:21:44.000Z</time>
      </trkpt>
      <trkpt lat="46.63795" lon="6.23517">
        <ele>1191</ele>
        <time>2013-08-18T13:21:45.000Z</time>
      </trkpt>
      <trkpt lat="46.63794" lon="6.23515">
        <ele>1191</ele>
        <time>2013-08-18T13:21:46.000Z</time>
      </trkpt>
      <trkpt lat="46.63793" lon="6.23513">
        <ele>1191</ele>
        <time>2013-08-18T13:21:47.000Z</time>
      </trkpt>
      <trkpt lat="46.63793" lon="6.23511">
        <ele>1191</ele>
        <time>2013-08-18T13:21:48.000Z</time>
      </trkpt>
      <trkpt lat="46.63792" lon="6.23509">
        <ele>1191</ele>
        <time>2013-08-18T13:21:49.000Z</time>
      </trkpt>
      <trkpt lat="46.63791" lon="6.23506">
        <ele>1191</ele>
        <time>2013-08-18T13:21:50.000Z</time>
      </trkpt>
      <trkpt lat="46.63789" lon="6.23504">
        <ele>1191</ele>
        <time>2013-08-18T13:21:51.000Z</time>
      </trkpt>
      <trkpt lat="46.63788" lon="6.23502">
        <ele>1191</ele>
        <time>2013-08-18T13:21:52.000Z</time>
      </trkpt>
      <trkpt lat="46.63788" lon="6.23499">
        <ele>1194</ele>
        <time>2013-08-18T13:21:53.000Z</time>
      </trkpt>
      <trkpt lat="46.63787" lon="6.23497">
        <ele>1194</ele>
        <time>2013-08-18T13:21:54.000Z</time>
      </trkpt>
      <trkpt lat="46.63786" lon="6.23494">
        <ele>1194</ele>
        <time>2013-08-18T13:21:55.000Z</time>
      </trkpt>
      <trkpt lat="46.63786" lon="6.23492">
        <ele>1194</ele>
        <time>2013-08-18T13:21:56.000Z</time>
      </trkpt>
      <trkpt lat="46.63785" lon="6.23489">
        <ele>1194</ele>
        <time>2013-08-18T13:21:57.000Z</time>
      </trkpt>
      <trkpt lat="46.63783" lon="6.23487">
        <ele>1194</ele>
        <time>2013-08-18T13:21:58.000Z</time>
      </trkpt>
      <trkpt lat="46.63783" lon="6.23484">
        <ele>1194</ele>
        <time>2013-08-18T13:21:59.000Z</time>
      </trkpt>
      <trkpt lat="46.63782" lon="6.23481">
        <ele>1194</ele>
        <time>2013-08-18T13:22:00.000Z</time>
      </trkpt>
      <trkpt lat="46.63781" lon="6.23479">
        <ele>1194</ele>
        <time>2013-08-18T13:22:01.000Z</time>
      </trkpt>
      <trkpt lat="46.6378" lon="6.23476">
        <ele>1194</ele>
        <time>2013-08-18T13:22:02.000Z</time>
      </trkpt>
      <trkpt lat="46.63779" lon="6.23473">
        <ele>1194</ele>
        <time>2013-08-18T13:22:03.000Z</time>
      </trkpt>
      <trkpt lat="46.63778" lon="6.23471">
        <ele>1194</ele>
        <time>2013-08-18T13:22:04.000Z</time>
      </trkpt>
      <trkpt lat="46.63778" lon="6.23468">
        <ele>1194</ele>
        <time>2013-08-18T13:22:05.000Z</time>
      </trkpt>
      <trkpt lat="46.63778" lon="6.23466">
        <ele>1195</ele>
        <time>2013-08-18T13:22:06.000Z</time>
      </trkpt>
      <trkpt lat="46.63777" lon="6.23463">
        <ele>1195</ele>
        <time>2013-08-18T13:22:07.000Z</time>
      </trkpt>
      <trkpt lat="46.63776" lon="6.23461">
        <ele>1195</ele>
        <time>2013-08-18T13:22:08.000Z</time>
      </trkpt>
      <trkpt lat="46.63775" lon="6.23459">
        <ele>1195</ele>
        <time>2013-08-18T13:22:09.000Z</time>
      </trkpt>
      <trkpt lat="46.63774" lon="6.23456">
        <ele>1195</ele>
        <time>2013-08-18T13:22:10.000Z</time>
      </trkpt>
      <trkpt lat="46.63773" lon="6.23454">
        <ele>1195</ele>
        <time>2013-08-18T13:22:11.000Z</time>
      </trkpt>
      <trkpt lat="46.63772" lon="6.23452">
        <ele>1195</ele>
        <time>2013-08-18T13:22:12.000Z</time>
      </trkpt>
      <trkpt lat="46.63772" lon="6.2345">
        <ele>1195</ele>
        <time>2013-08-18T13:22:13.000Z</time>
      </trkpt>
      <trkpt lat="46.63771" lon="6.23447">
        <ele>1195</ele>
        <time>2013-08-18T13:22:14.000Z</time>
      </trkpt>
      <trkpt lat="46.6377" lon="6.23445">
        <ele>1195</ele>
        <time>2013-08-18T13:22:15.000Z</time>
      </trkpt>
      <trkpt lat="46.63769" lon="6.23443">
        <ele>1195</ele>
        <time>2013-08-18T13:22:16.000Z</time>
      </trkpt>
      <trkpt lat="46.63768" lon="6.23441">
        <ele>1195</ele>
        <time>2013-08-18T13:22:17.000Z</time>
      </trkpt>
      <trkpt lat="46.63767" lon="6.23439">
        <ele>1195</ele>
        <time>2013-08-18T13:22:18.000Z</time>
      </trkpt>
      <trkpt lat="46.63766" lon="6.23437">
        <ele>1195</ele>
        <time>2013-08-18T13:22:19.000Z</time>
      </trkpt>
      <trkpt lat="46.63766" lon="6.23436">
        <ele>1195</ele>
        <time>2013-08-18T13:22:20.000Z</time>
      </trkpt>
      <trkpt lat="46.63765" lon="6.23434">
        <ele>1195</ele>
        <time>2013-08-18T13:22:21.000Z</time>
      </trkpt>
      <trkpt lat="46.63765" lon="6.23431">
        <ele>1195</ele>
        <time>2013-08-18T13:22:22.000Z</time>
      </trkpt>
      <trkpt lat="46.63764" lon="6.23429">
        <ele>1195</ele>
        <time>2013-08-18T13:22:23.000Z</time>
      </trkpt>
      <trkpt lat="46.63764" lon="6.23427">
        <ele>1195</ele>
        <time>2013-08-18T13:22:24.000Z</time>
      </trkpt>
      <trkpt lat="46.63763" lon="6.23424">
        <ele>1195</ele>
        <time>2013-08-18T13:22:25.000Z</time>
      </trkpt>
      <trkpt lat="46.63762" lon="6.23422">
        <ele>1195</ele>
        <time>2013-08-18T13:22:26.000Z</time>
      </trkpt>
      <trkpt lat="46.63762" lon="6.23419">
        <ele>1195</ele>
        <time>2013-08-18T13:22:27.000Z</time>
      </trkpt>
      <trkpt lat="46.63761" lon="6.23416">
        <ele>1197</ele>
        <time>2013-08-18T13:22:28.000Z</time>
      </trkpt>
      <trkpt lat="46.63761" lon="6.23413">
        <ele>1198</ele>
        <time>2013-08-18T13:22:29.000Z</time>
      </trkpt>
      <trkpt lat="46.6376" lon="6.2341">
        <ele>1198</ele>
        <time>2013-08-18T13:22:30.000Z</time>
      </trkpt>
      <trkpt lat="46.63759" lon="6.23407">
        <ele>1198</ele>
        <time>2013-08-18T13:22:31.000Z</time>
      </trkpt>
      <trkpt lat="46.63759" lon="6.23404">
        <ele>1198</ele>
        <time>2013-08-18T13:22:32.000Z</time>
      </trkpt>
      <trkpt lat="46.63759" lon="6.23402">
        <ele>1198</ele>
        <time>2013-08-18T13:22:33.000Z</time>
      </trkpt>
      <trkpt lat="46.63758" lon="6.234">
        <ele>1199</ele>
        <time>2013-08-18T13:22:34.000Z</time>
      </trkpt>
      <trkpt lat="46.63758" lon="6.23398">
        <ele>1199</ele>
        <time>2013-08-18T13:22:35.000Z</time>
      </trkpt>
      <trkpt lat="46.63757" lon="6.23396">
        <ele>1199</ele>
        <time>2013-08-18T13:22:36.000Z</time>
      </trkpt>
      <trkpt lat="46.63756" lon="6.23394">
        <ele>1199</ele>
        <time>2013-08-18T13:22:37.000Z</time>
      </trkpt>
      <trkpt lat="46.63756" lon="6.23392">
        <ele>1199</ele>
        <time>2013-08-18T13:22:38.000Z</time>
      </trkpt>
      <trkpt lat="46.63755" lon="6.2339">
        <ele>1200</ele>
        <time>2013-08-18T13:22:39.000Z</time>
      </trkpt>
      <trkpt lat="46.63755" lon="6.23387">
        <ele>1200</ele>
        <time>2013-08-18T13:22:40.000Z</time>
      </trkpt>
      <trkpt lat="46.63754" lon="6.23385">
        <ele>1200</ele>
        <time>2013-08-18T13:22:41.000Z</time>
      </trkpt>
      <trkpt lat="46.63755" lon="6.23383">
        <ele>1200</ele>
        <time>2013-08-18T13:22:42.000Z</time>
      </trkpt>
      <trkpt lat="46.63754" lon="6.23381">
        <ele>1200</ele>
        <time>2013-08-18T13:22:43.000Z</time>
      </trkpt>
      <trkpt lat="46.63754" lon="6.23378">
        <ele>1200</ele>
        <time>2013-08-18T13:22:44.000Z</time>
      </trkpt>
      <trkpt lat="46.63754" lon="6.23375">
        <ele>1201</ele>
        <time>2013-08-18T13:22:45.000Z</time>
      </trkpt>
      <trkpt lat="46.63754" lon="6.23369">
        <ele>1201</ele>
        <time>2013-08-18T13:22:47.000Z</time>
      </trkpt>
      <trkpt lat="46.63754" lon="6.23367">
        <ele>1201</ele>
        <time>2013-08-18T13:22:48.000Z</time>
      </trkpt>
      <trkpt lat="46.63754" lon="6.23364">
        <ele>1201</ele>
        <time>2013-08-18T13:22:49.000Z</time>
      </trkpt>
      <trkpt lat="46.63754" lon="6.23356">
        <ele>1201</ele>
        <time>2013-08-18T13:22:52.000Z</time>
      </trkpt>
      <trkpt lat="46.63754" lon="6.23354">
        <ele>1201</ele>
        <time>2013-08-18T13:22:53.000Z</time>
      </trkpt>
      <trkpt lat="46.63755" lon="6.23341">
        <ele>1201</ele>
        <time>2013-08-18T13:22:58.000Z</time>
      </trkpt>
      <trkpt lat="46.63755" lon="6.23339">
        <ele>1201</ele>
        <time>2013-08-18T13:22:59.000Z</time>
      </trkpt>
      <trkpt lat="46.63754" lon="6.23337">
        <ele>1201</ele>
        <time>2013-08-18T13:23:00.000Z</time>
      </trkpt>
      <trkpt lat="46.63754" lon="6.23332">
        <ele>1202</ele>
        <time>2013-08-18T13:23:03.000Z</time>
      </trkpt>
      <trkpt lat="46.63754" lon="6.23331">
        <ele>1202</ele>
        <time>2013-08-18T13:23:04.000Z</time>
      </trkpt>
      <trkpt lat="46.63754" lon="6.23329">
        <ele>1203</ele>
        <time>2013-08-18T13:23:05.000Z</time>
      </trkpt>
      <trkpt lat="46.63753" lon="6.23326">
        <ele>1203</ele>
        <time>2013-08-18T13:23:07.000Z</time>
      </trkpt>
      <trkpt lat="46.63753" lon="6.23324">
        <ele>1204</ele>
        <time>2013-08-18T13:23:08.000Z</time>
      </trkpt>
      <trkpt lat="46.63753" lon="6.23322">
        <ele>1204</ele>
        <time>2013-08-18T13:23:09.000Z</time>
      </trkpt>
      <trkpt lat="46.63753" lon="6.23321">
        <ele>1204</ele>
        <time>2013-08-18T13:23:10.000Z</time>
      </trkpt>
      <trkpt lat="46.63753" lon="6.23319">
        <ele>1205</ele>
        <time>2013-08-18T13:23:11.000Z</time>
      </trkpt>
      <trkpt lat="46.63754" lon="6.23319">
        <ele>1205</ele>
        <time>2013-08-18T13:23:12.000Z</time>
      </trkpt>
      <trkpt lat="46.63754" lon="6.23317">
        <ele>1205</ele>
        <time>2013-08-18T13:23:13.000Z</time>
      </trkpt>
      <trkpt lat="46.63754" lon="6.23315">
        <ele>1205</ele>
        <time>2013-08-18T13:23:14.000Z</time>
      </trkpt>
      <trkpt lat="46.63754" lon="6.23314">
        <ele>1206</ele>
        <time>2013-08-18T13:23:15.000Z</time>
      </trkpt>
      <trkpt lat="46.63753" lon="6.23312">
        <ele>1206</ele>
        <time>2013-08-18T13:23:16.000Z</time>
      </trkpt>
      <trkpt lat="46.63753" lon="6.23308">
        <ele>1206</ele>
        <time>2013-08-18T13:23:18.000Z</time>
      </trkpt>
      <trkpt lat="46.63753" lon="6.23306">
        <ele>1207</ele>
        <time>2013-08-18T13:23:19.000Z</time>
      </trkpt>
      <trkpt lat="46.63753" lon="6.23304">
        <ele>1207</ele>
        <time>2013-08-18T13:23:20.000Z</time>
      </trkpt>
      <trkpt lat="46.63752" lon="6.23303">
        <ele>1207</ele>
        <time>2013-08-18T13:23:21.000Z</time>
      </trkpt>
      <trkpt lat="46.63752" lon="6.23301">
        <ele>1207</ele>
        <time>2013-08-18T13:23:22.000Z</time>
      </trkpt>
      <trkpt lat="46.63752" lon="6.23299">
        <ele>1207</ele>
        <time>2013-08-18T13:23:23.000Z</time>
      </trkpt>
      <trkpt lat="46.63751" lon="6.23298">
        <ele>1207</ele>
        <time>2013-08-18T13:23:24.000Z</time>
      </trkpt>
      <trkpt lat="46.63751" lon="6.23296">
        <ele>1207</ele>
        <time>2013-08-18T13:23:25.000Z</time>
      </trkpt>
      <trkpt lat="46.6375" lon="6.23294">
        <ele>1208</ele>
        <time>2013-08-18T13:23:26.000Z</time>
      </trkpt>
      <trkpt lat="46.6375" lon="6.23293">
        <ele>1203</ele>
        <time>2013-08-18T13:23:27.000Z</time>
      </trkpt>
      <trkpt lat="46.63749" lon="6.23291">
        <ele>1203</ele>
        <time>2013-08-18T13:23:28.000Z</time>
      </trkpt>
      <trkpt lat="46.63749" lon="6.2329">
        <ele>1203</ele>
        <time>2013-08-18T13:23:29.000Z</time>
      </trkpt>
      <trkpt lat="46.63749" lon="6.23288">
        <ele>1203</ele>
        <time>2013-08-18T13:23:30.000Z</time>
      </trkpt>
      <trkpt lat="46.63749" lon="6.23286">
        <ele>1203</ele>
        <time>2013-08-18T13:23:31.000Z</time>
      </trkpt>
      <trkpt lat="46.63748" lon="6.23282">
        <ele>1203</ele>
        <time>2013-08-18T13:23:33.000Z</time>
      </trkpt>
      <trkpt lat="46.63748" lon="6.2328">
        <ele>1204</ele>
        <time>2013-08-18T13:23:34.000Z</time>
      </trkpt>
      <trkpt lat="46.63748" lon="6.23278">
        <ele>1204</ele>
        <time>2013-08-18T13:23:35.000Z</time>
      </trkpt>
      <trkpt lat="46.63748" lon="6.23276">
        <ele>1204</ele>
        <time>2013-08-18T13:23:36.000Z</time>
      </trkpt>
      <trkpt lat="46.63748" lon="6.23273">
        <ele>1204</ele>
        <time>2013-08-18T13:23:37.000Z</time>
      </trkpt>
      <trkpt lat="46.63747" lon="6.23271">
        <ele>1205</ele>
        <time>2013-08-18T13:23:38.000Z</time>
      </trkpt>
      <trkpt lat="46.63746" lon="6.23269">
        <ele>1205</ele>
        <time>2013-08-18T13:23:39.000Z</time>
      </trkpt>
      <trkpt lat="46.63746" lon="6.23267">
        <ele>1205</ele>
        <time>2013-08-18T13:23:40.000Z</time>
      </trkpt>
      <trkpt lat="46.63746" lon="6.23265">
        <ele>1205</ele>
        <time>2013-08-18T13:23:41.000Z</time>
      </trkpt>
      <trkpt lat="46.63746" lon="6.23262">
        <ele>1206</ele>
        <time>2013-08-18T13:23:42.000Z</time>
      </trkpt>
      <trkpt lat="46.63745" lon="6.2326">
        <ele>1206</ele>
        <time>2013-08-18T13:23:43.000Z</time>
      </trkpt>
      <trkpt lat="46.63745" lon="6.23258">
        <ele>1207</ele>
        <time>2013-08-18T13:23:44.000Z</time>
      </trkpt>
      <trkpt lat="46.63744" lon="6.23256">
        <ele>1207</ele>
        <time>2013-08-18T13:23:45.000Z</time>
      </trkpt>
      <trkpt lat="46.63744" lon="6.23254">
        <ele>1207</ele>
        <time>2013-08-18T13:23:46.000Z</time>
      </trkpt>
      <trkpt lat="46.63744" lon="6.23252">
        <ele>1207</ele>
        <time>2013-08-18T13:23:47.000Z</time>
      </trkpt>
      <trkpt lat="46.63744" lon="6.2325">
        <ele>1209</ele>
        <time>2013-08-18T13:23:48.000Z</time>
      </trkpt>
      <trkpt lat="46.63744" lon="6.23248">
        <ele>1209</ele>
        <time>2013-08-18T13:23:49.000Z</time>
      </trkpt>
      <trkpt lat="46.63744" lon="6.23244">
        <ele>1209</ele>
        <time>2013-08-18T13:23:52.000Z</time>
      </trkpt>
      <trkpt lat="46.63744" lon="6.23242">
        <ele>1209</ele>
        <time>2013-08-18T13:23:53.000Z</time>
      </trkpt>
      <trkpt lat="46.63744" lon="6.23241">
        <ele>1209</ele>
        <time>2013-08-18T13:23:54.000Z</time>
      </trkpt>
      <trkpt lat="46.63743" lon="6.23239">
        <ele>1209</ele>
        <time>2013-08-18T13:23:55.000Z</time>
      </trkpt>
      <trkpt lat="46.63743" lon="6.23237">
        <ele>1209</ele>
        <time>2013-08-18T13:23:56.000Z</time>
      </trkpt>
      <trkpt lat="46.63743" lon="6.23236">
        <ele>1209</ele>
        <time>2013-08-18T13:23:57.000Z</time>
      </trkpt>
      <trkpt lat="46.63743" lon="6.23234">
        <ele>1209</ele>
        <time>2013-08-18T13:23:58.000Z</time>
      </trkpt>
      <trkpt lat="46.63742" lon="6.23229">
        <ele>1209</ele>
        <time>2013-08-18T13:24:01.000Z</time>
      </trkpt>
      <trkpt lat="46.63742" lon="6.23227">
        <ele>1209</ele>
        <time>2013-08-18T13:24:02.000Z</time>
      </trkpt>
      <trkpt lat="46.63742" lon="6.23225">
        <ele>1209</ele>
        <time>2013-08-18T13:24:03.000Z</time>
      </trkpt>
      <trkpt lat="46.63741" lon="6.23224">
        <ele>1209</ele>
        <time>2013-08-18T13:24:04.000Z</time>
      </trkpt>
      <trkpt lat="46.6374" lon="6.23222">
        <ele>1209</ele>
        <time>2013-08-18T13:24:05.000Z</time>
      </trkpt>
      <trkpt lat="46.63739" lon="6.23221">
        <ele>1209</ele>
        <time>2013-08-18T13:24:06.000Z</time>
      </trkpt>
      <trkpt lat="46.63739" lon="6.23219">
        <ele>1209</ele>
        <time>2013-08-18T13:24:07.000Z</time>
      </trkpt>
      <trkpt lat="46.63739" lon="6.23218">
        <ele>1209</ele>
        <time>2013-08-18T13:24:08.000Z</time>
      </trkpt>
      <trkpt lat="46.63739" lon="6.23217">
        <ele>1209</ele>
        <time>2013-08-18T13:24:09.000Z</time>
      </trkpt>
      <trkpt lat="46.63739" lon="6.23217">
        <ele>1209</ele>
        <time>2013-08-18T13:24:10.000Z</time>
      </trkpt>
      <trkpt lat="46.63739" lon="6.23216">
        <ele>1209</ele>
        <time>2013-08-18T13:24:11.000Z</time>
      </trkpt>
      <trkpt lat="46.63739" lon="6.23215">
        <ele>1209</ele>
        <time>2013-08-18T13:24:12.000Z</time>
      </trkpt>
      <trkpt lat="46.63739" lon="6.23214">
        <ele>1209</ele>
        <time>2013-08-18T13:24:14.000Z</time>
      </trkpt>
      <trkpt lat="46.63739" lon="6.23211">
        <ele>1209</ele>
        <time>2013-08-18T13:24:19.000Z</time>
      </trkpt>
      <trkpt lat="46.63739" lon="6.23211">
        <ele>1209</ele>
        <time>2013-08-18T13:24:20.000Z</time>
      </trkpt>
      <trkpt lat="46.63739" lon="6.2321">
        <ele>1209</ele>
        <time>2013-08-18T13:24:21.000Z</time>
      </trkpt>
      <trkpt lat="46.63739" lon="6.23209">
        <ele>1209</ele>
        <time>2013-08-18T13:24:22.000Z</time>
      </trkpt>
      <trkpt lat="46.63739" lon="6.23208">
        <ele>1209</ele>
        <time>2013-08-18T13:24:24.000Z</time>
      </trkpt>
      <trkpt lat="46.63739" lon="6.23207">
        <ele>1209</ele>
        <time>2013-08-18T13:24:26.000Z</time>
      </trkpt>
      <trkpt lat="46.6374" lon="6.23206">
        <ele>1209</ele>
        <time>2013-08-18T13:24:28.000Z</time>
      </trkpt>
      <trkpt lat="46.6374" lon="6.23206">
        <ele>1209</ele>
        <time>2013-08-18T13:24:29.000Z</time>
      </trkpt>
      <trkpt lat="46.6374" lon="6.23205">
        <ele>1210</ele>
        <time>2013-08-18T13:24:32.000Z</time>
      </trkpt>
      <trkpt lat="46.6374" lon="6.23204">
        <ele>1210</ele>
        <time>2013-08-18T13:24:33.000Z</time>
      </trkpt>
      <trkpt lat="46.6374" lon="6.23204">
        <ele>1210</ele>
        <time>2013-08-18T13:24:34.000Z</time>
      </trkpt>
      <trkpt lat="46.6374" lon="6.23204">
        <ele>1210</ele>
        <time>2013-08-18T13:24:36.000Z</time>
      </trkpt>
      <trkpt lat="46.6374" lon="6.23204">
        <ele>1210</ele>
        <time>2013-08-18T13:24:38.000Z</time>
      </trkpt>
      <trkpt lat="46.6374" lon="6.23204">
        <ele>1210</ele>
        <time>2013-08-18T13:24:39.000Z</time>
      </trkpt>
      <trkpt lat="46.63741" lon="6.23204">
        <ele>1210</ele>
        <time>2013-08-18T13:24:41.000Z</time>
      </trkpt>
      <trkpt lat="46.6374" lon="6.23204">
        <ele>1210</ele>
        <time>2013-08-18T13:24:42.000Z</time>
      </trkpt>
      <trkpt lat="46.6374" lon="6.23205">
        <ele>1210</ele>
        <time>2013-08-18T13:24:46.000Z</time>
      </trkpt>
      <trkpt lat="46.6374" lon="6.23204">
        <ele>1210</ele>
        <time>2013-08-18T13:24:48.000Z</time>
      </trkpt>
      <trkpt lat="46.63739" lon="6.23204">
        <ele>1210</ele>
        <time>2013-08-18T13:24:49.000Z</time>
      </trkpt>
      <trkpt lat="46.63739" lon="6.23202">
        <ele>1210</ele>
        <time>2013-08-18T13:24:52.000Z</time>
      </trkpt>
      <trkpt lat="46.63739" lon="6.23202">
        <ele>1210</ele>
        <time>2013-08-18T13:24:53.000Z</time>
      </trkpt>
      <trkpt lat="46.63738" lon="6.23201">
        <ele>1210</ele>
        <time>2013-08-18T13:24:54.000Z</time>
      </trkpt>
      <trkpt lat="46.63738" lon="6.232">
        <ele>1210</ele>
        <time>2013-08-18T13:24:55.000Z</time>
      </trkpt>
      <trkpt lat="46.63737" lon="6.23199">
        <ele>1210</ele>
        <time>2013-08-18T13:24:56.000Z</time>
      </trkpt>
      <trkpt lat="46.63737" lon="6.23198">
        <ele>1210</ele>
        <time>2013-08-18T13:24:57.000Z</time>
      </trkpt>
      <trkpt lat="46.63737" lon="6.23197">
        <ele>1210</ele>
        <time>2013-08-18T13:24:58.000Z</time>
      </trkpt>
      <trkpt lat="46.63737" lon="6.23196">
        <ele>1210</ele>
        <time>2013-08-18T13:24:59.000Z</time>
      </trkpt>
      <trkpt lat="46.63736" lon="6.23195">
        <ele>1210</ele>
        <time>2013-08-18T13:25:00.000Z</time>
      </trkpt>
      <trkpt lat="46.63736" lon="6.23195">
        <ele>1210</ele>
        <time>2013-08-18T13:25:01.000Z</time>
      </trkpt>
      <trkpt lat="46.63736" lon="6.23193">
        <ele>1210</ele>
        <time>2013-08-18T13:25:02.000Z</time>
      </trkpt>
      <trkpt lat="46.63736" lon="6.23192">
        <ele>1210</ele>
        <time>2013-08-18T13:25:03.000Z</time>
      </trkpt>
      <trkpt lat="46.63736" lon="6.23192">
        <ele>1210</ele>
        <time>2013-08-18T13:25:04.000Z</time>
      </trkpt>
      <trkpt lat="46.63735" lon="6.23191">
        <ele>1210</ele>
        <time>2013-08-18T13:25:05.000Z</time>
      </trkpt>
      <trkpt lat="46.63735" lon="6.2319">
        <ele>1210</ele>
        <time>2013-08-18T13:25:06.000Z</time>
      </trkpt>
      <trkpt lat="46.63734" lon="6.2319">
        <ele>1210</ele>
        <time>2013-08-18T13:25:07.000Z</time>
      </trkpt>
      <trkpt lat="46.63733" lon="6.23189">
        <ele>1210</ele>
        <time>2013-08-18T13:25:08.000Z</time>
      </trkpt>
      <trkpt lat="46.63733" lon="6.23188">
        <ele>1210</ele>
        <time>2013-08-18T13:25:09.000Z</time>
      </trkpt>
      <trkpt lat="46.63733" lon="6.23187">
        <ele>1211</ele>
        <time>2013-08-18T13:25:10.000Z</time>
      </trkpt>
      <trkpt lat="46.63732" lon="6.23186">
        <ele>1211</ele>
        <time>2013-08-18T13:25:11.000Z</time>
      </trkpt>
      <trkpt lat="46.63732" lon="6.23184">
        <ele>1211</ele>
        <time>2013-08-18T13:25:13.000Z</time>
      </trkpt>
      <trkpt lat="46.63732" lon="6.23183">
        <ele>1211</ele>
        <time>2013-08-18T13:25:14.000Z</time>
      </trkpt>
      <trkpt lat="46.63731" lon="6.23182">
        <ele>1211</ele>
        <time>2013-08-18T13:25:16.000Z</time>
      </trkpt>
      <trkpt lat="46.63731" lon="6.23181">
        <ele>1211</ele>
        <time>2013-08-18T13:25:17.000Z</time>
      </trkpt>
      <trkpt lat="46.6373" lon="6.23179">
        <ele>1211</ele>
        <time>2013-08-18T13:25:19.000Z</time>
      </trkpt>
      <trkpt lat="46.6373" lon="6.23178">
        <ele>1211</ele>
        <time>2013-08-18T13:25:20.000Z</time>
      </trkpt>
      <trkpt lat="46.63731" lon="6.23178">
        <ele>1211</ele>
        <time>2013-08-18T13:25:21.000Z</time>
      </trkpt>
      <trkpt lat="46.63731" lon="6.23178">
        <ele>1211</ele>
        <time>2013-08-18T13:25:22.000Z</time>
      </trkpt>
      <trkpt lat="46.63731" lon="6.23178">
        <ele>1211</ele>
        <time>2013-08-18T13:25:23.000Z</time>
      </trkpt>
      <trkpt lat="46.63731" lon="6.23177">
        <ele>1211</ele>
        <time>2013-08-18T13:25:24.000Z</time>
      </trkpt>
      <trkpt lat="46.63731" lon="6.23177">
        <ele>1211</ele>
        <time>2013-08-18T13:25:25.000Z</time>
      </trkpt>
      <trkpt lat="46.63732" lon="6.23176">
        <ele>1211</ele>
        <time>2013-08-18T13:25:26.000Z</time>
      </trkpt>
      <trkpt lat="46.63732" lon="6.23172">
        <ele>1212</ele>
        <time>2013-08-18T13:25:31.000Z</time>
      </trkpt>
      <trkpt lat="46.63732" lon="6.23171">
        <ele>1212</ele>
        <time>2013-08-18T13:25:32.000Z</time>
      </trkpt>
      <trkpt lat="46.63732" lon="6.2317">
        <ele>1212</ele>
        <time>2013-08-18T13:25:33.000Z</time>
      </trkpt>
      <trkpt lat="46.63731" lon="6.23169">
        <ele>1212</ele>
        <time>2013-08-18T13:25:34.000Z</time>
      </trkpt>
      <trkpt lat="46.63731" lon="6.23167">
        <ele>1212</ele>
        <time>2013-08-18T13:25:35.000Z</time>
      </trkpt>
      <trkpt lat="46.63731" lon="6.23166">
        <ele>1215</ele>
        <time>2013-08-18T13:25:36.000Z</time>
      </trkpt>
      <trkpt lat="46.6373" lon="6.23164">
        <ele>1215</ele>
        <time>2013-08-18T13:25:37.000Z</time>
      </trkpt>
      <trkpt lat="46.6373" lon="6.23162">
        <ele>1215</ele>
        <time>2013-08-18T13:25:38.000Z</time>
      </trkpt>
      <trkpt lat="46.6373" lon="6.23161">
        <ele>1215</ele>
        <time>2013-08-18T13:25:39.000Z</time>
      </trkpt>
      <trkpt lat="46.63729" lon="6.23159">
        <ele>1215</ele>
        <time>2013-08-18T13:25:40.000Z</time>
      </trkpt>
      <trkpt lat="46.63728" lon="6.23158">
        <ele>1214</ele>
        <time>2013-08-18T13:25:41.000Z</time>
      </trkpt>
      <trkpt lat="46.63728" lon="6.23157">
        <ele>1214</ele>
        <time>2013-08-18T13:25:42.000Z</time>
      </trkpt>
      <trkpt lat="46.63728" lon="6.23155">
        <ele>1214</ele>
        <time>2013-08-18T13:25:43.000Z</time>
      </trkpt>
      <trkpt lat="46.63727" lon="6.23154">
        <ele>1214</ele>
        <time>2013-08-18T13:25:44.000Z</time>
      </trkpt>
      <trkpt lat="46.63727" lon="6.23152">
        <ele>1214</ele>
        <time>2013-08-18T13:25:45.000Z</time>
      </trkpt>
      <trkpt lat="46.63726" lon="6.23151">
        <ele>1214</ele>
        <time>2013-08-18T13:25:46.000Z</time>
      </trkpt>
      <trkpt lat="46.63726" lon="6.23149">
        <ele>1214</ele>
        <time>2013-08-18T13:25:47.000Z</time>
      </trkpt>
      <trkpt lat="46.63725" lon="6.23147">
        <ele>1214</ele>
        <time>2013-08-18T13:25:48.000Z</time>
      </trkpt>
      <trkpt lat="46.63725" lon="6.23146">
        <ele>1214</ele>
        <time>2013-08-18T13:25:49.000Z</time>
      </trkpt>
      <trkpt lat="46.63725" lon="6.23145">
        <ele>1214</ele>
        <time>2013-08-18T13:25:50.000Z</time>
      </trkpt>
      <trkpt lat="46.63724" lon="6.23144">
        <ele>1214</ele>
        <time>2013-08-18T13:25:51.000Z</time>
      </trkpt>
      <trkpt lat="46.63724" lon="6.23143">
        <ele>1214</ele>
        <time>2013-08-18T13:25:52.000Z</time>
      </trkpt>
      <trkpt lat="46.63723" lon="6.23141">
        <ele>1214</ele>
        <time>2013-08-18T13:25:53.000Z</time>
      </trkpt>
      <trkpt lat="46.63723" lon="6.2314">
        <ele>1214</ele>
        <time>2013-08-18T13:25:54.000Z</time>
      </trkpt>
      <trkpt lat="46.63723" lon="6.23137">
        <ele>1214</ele>
        <time>2013-08-18T13:25:56.000Z</time>
      </trkpt>
      <trkpt lat="46.63723" lon="6.23136">
        <ele>1214</ele>
        <time>2013-08-18T13:25:57.000Z</time>
      </trkpt>
      <trkpt lat="46.63722" lon="6.23134">
        <ele>1214</ele>
        <time>2013-08-18T13:25:58.000Z</time>
      </trkpt>
      <trkpt lat="46.63722" lon="6.23133">
        <ele>1215</ele>
        <time>2013-08-18T13:25:59.000Z</time>
      </trkpt>
      <trkpt lat="46.63722" lon="6.23132">
        <ele>1215</ele>
        <time>2013-08-18T13:26:00.000Z</time>
      </trkpt>
      <trkpt lat="46.63722" lon="6.23131">
        <ele>1215</ele>
        <time>2013-08-18T13:26:01.000Z</time>
      </trkpt>
      <trkpt lat="46.63721" lon="6.2313">
        <ele>1215</ele>
        <time>2013-08-18T13:26:02.000Z</time>
      </trkpt>
      <trkpt lat="46.63721" lon="6.23128">
        <ele>1215</ele>
        <time>2013-08-18T13:26:03.000Z</time>
      </trkpt>
      <trkpt lat="46.63721" lon="6.23127">
        <ele>1215</ele>
        <time>2013-08-18T13:26:04.000Z</time>
      </trkpt>
      <trkpt lat="46.63721" lon="6.23125">
        <ele>1215</ele>
        <time>2013-08-18T13:26:05.000Z</time>
      </trkpt>
      <trkpt lat="46.6372" lon="6.23124">
        <ele>1215</ele>
        <time>2013-08-18T13:26:06.000Z</time>
      </trkpt>
      <trkpt lat="46.6372" lon="6.23122">
        <ele>1215</ele>
        <time>2013-08-18T13:26:07.000Z</time>
      </trkpt>
      <trkpt lat="46.6372" lon="6.2312">
        <ele>1215</ele>
        <time>2013-08-18T13:26:08.000Z</time>
      </trkpt>
      <trkpt lat="46.63719" lon="6.23116">
        <ele>1215</ele>
        <time>2013-08-18T13:26:10.000Z</time>
      </trkpt>
      <trkpt lat="46.63719" lon="6.23114">
        <ele>1215</ele>
        <time>2013-08-18T13:26:11.000Z</time>
      </trkpt>
      <trkpt lat="46.63719" lon="6.23112">
        <ele>1215</ele>
        <time>2013-08-18T13:26:12.000Z</time>
      </trkpt>
      <trkpt lat="46.63719" lon="6.2311">
        <ele>1215</ele>
        <time>2013-08-18T13:26:13.000Z</time>
      </trkpt>
      <trkpt lat="46.63718" lon="6.23109">
        <ele>1215</ele>
        <time>2013-08-18T13:26:14.000Z</time>
      </trkpt>
      <trkpt lat="46.63718" lon="6.23107">
        <ele>1215</ele>
        <time>2013-08-18T13:26:15.000Z</time>
      </trkpt>
      <trkpt lat="46.63718" lon="6.23106">
        <ele>1215</ele>
        <time>2013-08-18T13:26:16.000Z</time>
      </trkpt>
      <trkpt lat="46.63717" lon="6.23104">
        <ele>1215</ele>
        <time>2013-08-18T13:26:17.000Z</time>
      </trkpt>
      <trkpt lat="46.63717" lon="6.23103">
        <ele>1215</ele>
        <time>2013-08-18T13:26:18.000Z</time>
      </trkpt>
      <trkpt lat="46.63716" lon="6.23102">
        <ele>1215</ele>
        <time>2013-08-18T13:26:19.000Z</time>
      </trkpt>
      <trkpt lat="46.63716" lon="6.23099">
        <ele>1215</ele>
        <time>2013-08-18T13:26:20.000Z</time>
      </trkpt>
      <trkpt lat="46.63716" lon="6.23098">
        <ele>1215</ele>
        <time>2013-08-18T13:26:21.000Z</time>
      </trkpt>
      <trkpt lat="46.63715" lon="6.23096">
        <ele>1216</ele>
        <time>2013-08-18T13:26:22.000Z</time>
      </trkpt>
      <trkpt lat="46.63715" lon="6.23094">
        <ele>1216</ele>
        <time>2013-08-18T13:26:23.000Z</time>
      </trkpt>
      <trkpt lat="46.63715" lon="6.23093">
        <ele>1216</ele>
        <time>2013-08-18T13:26:24.000Z</time>
      </trkpt>
      <trkpt lat="46.63714" lon="6.23091">
        <ele>1216</ele>
        <time>2013-08-18T13:26:25.000Z</time>
      </trkpt>
      <trkpt lat="46.63714" lon="6.2309">
        <ele>1216</ele>
        <time>2013-08-18T13:26:26.000Z</time>
      </trkpt>
      <trkpt lat="46.63714" lon="6.23088">
        <ele>1216</ele>
        <time>2013-08-18T13:26:27.000Z</time>
      </trkpt>
      <trkpt lat="46.63713" lon="6.23087">
        <ele>1216</ele>
        <time>2013-08-18T13:26:28.000Z</time>
      </trkpt>
      <trkpt lat="46.63713" lon="6.23086">
        <ele>1216</ele>
        <time>2013-08-18T13:26:29.000Z</time>
      </trkpt>
      <trkpt lat="46.63713" lon="6.23085">
        <ele>1216</ele>
        <time>2013-08-18T13:26:31.000Z</time>
      </trkpt>
      <trkpt lat="46.63713" lon="6.23083">
        <ele>1220</ele>
        <time>2013-08-18T13:26:35.000Z</time>
      </trkpt>
      <trkpt lat="46.63713" lon="6.23082">
        <ele>1220</ele>
        <time>2013-08-18T13:26:36.000Z</time>
      </trkpt>
      <trkpt lat="46.63713" lon="6.23081">
        <ele>1220</ele>
        <time>2013-08-18T13:26:37.000Z</time>
      </trkpt>
      <trkpt lat="46.63712" lon="6.2308">
        <ele>1220</ele>
        <time>2013-08-18T13:26:38.000Z</time>
      </trkpt>
      <trkpt lat="46.63712" lon="6.23078">
        <ele>1220</ele>
        <time>2013-08-18T13:26:39.000Z</time>
      </trkpt>
      <trkpt lat="46.63712" lon="6.23076">
        <ele>1220</ele>
        <time>2013-08-18T13:26:40.000Z</time>
      </trkpt>
      <trkpt lat="46.63711" lon="6.23074">
        <ele>1220</ele>
        <time>2013-08-18T13:26:41.000Z</time>
      </trkpt>
      <trkpt lat="46.6371" lon="6.23072">
        <ele>1220</ele>
        <time>2013-08-18T13:26:42.000Z</time>
      </trkpt>
      <trkpt lat="46.6371" lon="6.23071">
        <ele>1220</ele>
        <time>2013-08-18T13:26:43.000Z</time>
      </trkpt>
      <trkpt lat="46.63709" lon="6.23069">
        <ele>1220</ele>
        <time>2013-08-18T13:26:44.000Z</time>
      </trkpt>
      <trkpt lat="46.63709" lon="6.23066">
        <ele>1220</ele>
        <time>2013-08-18T13:26:45.000Z</time>
      </trkpt>
      <trkpt lat="46.63708" lon="6.23064">
        <ele>1220</ele>
        <time>2013-08-18T13:26:46.000Z</time>
      </trkpt>
      <trkpt lat="46.63708" lon="6.23062">
        <ele>1220</ele>
        <time>2013-08-18T13:26:47.000Z</time>
      </trkpt>
      <trkpt lat="46.63707" lon="6.2306">
        <ele>1220</ele>
        <time>2013-08-18T13:26:48.000Z</time>
      </trkpt>
      <trkpt lat="46.63707" lon="6.23059">
        <ele>1220</ele>
        <time>2013-08-18T13:26:49.000Z</time>
      </trkpt>
      <trkpt lat="46.63707" lon="6.23057">
        <ele>1220</ele>
        <time>2013-08-18T13:26:50.000Z</time>
      </trkpt>
      <trkpt lat="46.63707" lon="6.23051">
        <ele>1220</ele>
        <time>2013-08-18T13:26:53.000Z</time>
      </trkpt>
      <trkpt lat="46.63708" lon="6.23049">
        <ele>1220</ele>
        <time>2013-08-18T13:26:54.000Z</time>
      </trkpt>
      <trkpt lat="46.63708" lon="6.23047">
        <ele>1220</ele>
        <time>2013-08-18T13:26:55.000Z</time>
      </trkpt>
      <trkpt lat="46.63709" lon="6.23046">
        <ele>1221</ele>
        <time>2013-08-18T13:26:56.000Z</time>
      </trkpt>
      <trkpt lat="46.63709" lon="6.23044">
        <ele>1221</ele>
        <time>2013-08-18T13:26:57.000Z</time>
      </trkpt>
      <trkpt lat="46.6371" lon="6.23043">
        <ele>1221</ele>
        <time>2013-08-18T13:26:58.000Z</time>
      </trkpt>
      <trkpt lat="46.6371" lon="6.23041">
        <ele>1221</ele>
        <time>2013-08-18T13:26:59.000Z</time>
      </trkpt>
      <trkpt lat="46.6371" lon="6.2304">
        <ele>1221</ele>
        <time>2013-08-18T13:27:00.000Z</time>
      </trkpt>
      <trkpt lat="46.63711" lon="6.23039">
        <ele>1221</ele>
        <time>2013-08-18T13:27:01.000Z</time>
      </trkpt>
      <trkpt lat="46.63711" lon="6.23038">
        <ele>1221</ele>
        <time>2013-08-18T13:27:02.000Z</time>
      </trkpt>
      <trkpt lat="46.63712" lon="6.23037">
        <ele>1221</ele>
        <time>2013-08-18T13:27:03.000Z</time>
      </trkpt>
      <trkpt lat="46.63713" lon="6.23036">
        <ele>1221</ele>
        <time>2013-08-18T13:27:04.000Z</time>
      </trkpt>
      <trkpt lat="46.63714" lon="6.23035">
        <ele>1221</ele>
        <time>2013-08-18T13:27:05.000Z</time>
      </trkpt>
      <trkpt lat="46.63715" lon="6.23035">
        <ele>1221</ele>
        <time>2013-08-18T13:27:06.000Z</time>
      </trkpt>
      <trkpt lat="46.63716" lon="6.23034">
        <ele>1221</ele>
        <time>2013-08-18T13:27:07.000Z</time>
      </trkpt>
      <trkpt lat="46.63717" lon="6.23034">
        <ele>1221</ele>
        <time>2013-08-18T13:27:08.000Z</time>
      </trkpt>
      <trkpt lat="46.63718" lon="6.23033">
        <ele>1222</ele>
        <time>2013-08-18T13:27:09.000Z</time>
      </trkpt>
      <trkpt lat="46.63719" lon="6.23033">
        <ele>1222</ele>
        <time>2013-08-18T13:27:10.000Z</time>
      </trkpt>
      <trkpt lat="46.6372" lon="6.23033">
        <ele>1222</ele>
        <time>2013-08-18T13:27:11.000Z</time>
      </trkpt>
      <trkpt lat="46.63721" lon="6.23033">
        <ele>1222</ele>
        <time>2013-08-18T13:27:13.000Z</time>
      </trkpt>
      <trkpt lat="46.63722" lon="6.23033">
        <ele>1222</ele>
        <time>2013-08-18T13:27:14.000Z</time>
      </trkpt>
      <trkpt lat="46.63723" lon="6.23034">
        <ele>1222</ele>
        <time>2013-08-18T13:27:15.000Z</time>
      </trkpt>
      <trkpt lat="46.63724" lon="6.23034">
        <ele>1222</ele>
        <time>2013-08-18T13:27:16.000Z</time>
      </trkpt>
      <trkpt lat="46.63725" lon="6.23034">
        <ele>1222</ele>
        <time>2013-08-18T13:27:17.000Z</time>
      </trkpt>
      <trkpt lat="46.63726" lon="6.23034">
        <ele>1222</ele>
        <time>2013-08-18T13:27:18.000Z</time>
      </trkpt>
      <trkpt lat="46.63727" lon="6.23035">
        <ele>1222</ele>
        <time>2013-08-18T13:27:19.000Z</time>
      </trkpt>
      <trkpt lat="46.63728" lon="6.23036">
        <ele>1222</ele>
        <time>2013-08-18T13:27:20.000Z</time>
      </trkpt>
      <trkpt lat="46.63729" lon="6.23036">
        <ele>1222</ele>
        <time>2013-08-18T13:27:21.000Z</time>
      </trkpt>
      <trkpt lat="46.6373" lon="6.23037">
        <ele>1222</ele>
        <time>2013-08-18T13:27:22.000Z</time>
      </trkpt>
      <trkpt lat="46.6373" lon="6.23038">
        <ele>1222</ele>
        <time>2013-08-18T13:27:23.000Z</time>
      </trkpt>
      <trkpt lat="46.63731" lon="6.23039">
        <ele>1222</ele>
        <time>2013-08-18T13:27:24.000Z</time>
      </trkpt>
      <trkpt lat="46.63733" lon="6.23039">
        <ele>1222</ele>
        <time>2013-08-18T13:27:25.000Z</time>
      </trkpt>
      <trkpt lat="46.63734" lon="6.2304">
        <ele>1222</ele>
        <time>2013-08-18T13:27:26.000Z</time>
      </trkpt>
      <trkpt lat="46.63735" lon="6.23041">
        <ele>1222</ele>
        <time>2013-08-18T13:27:27.000Z</time>
      </trkpt>
      <trkpt lat="46.63736" lon="6.23041">
        <ele>1222</ele>
        <time>2013-08-18T13:27:28.000Z</time>
      </trkpt>
      <trkpt lat="46.63737" lon="6.23042">
        <ele>1222</ele>
        <time>2013-08-18T13:27:29.000Z</time>
      </trkpt>
      <trkpt lat="46.63738" lon="6.23043">
        <ele>1222</ele>
        <time>2013-08-18T13:27:30.000Z</time>
      </trkpt>
      <trkpt lat="46.63739" lon="6.23044">
        <ele>1222</ele>
        <time>2013-08-18T13:27:31.000Z</time>
      </trkpt>
      <trkpt lat="46.6374" lon="6.23044">
        <ele>1222</ele>
        <time>2013-08-18T13:27:32.000Z</time>
      </trkpt>
      <trkpt lat="46.63741" lon="6.23045">
        <ele>1222</ele>
        <time>2013-08-18T13:27:33.000Z</time>
      </trkpt>
      <trkpt lat="46.63742" lon="6.23046">
        <ele>1222</ele>
        <time>2013-08-18T13:27:34.000Z</time>
      </trkpt>
      <trkpt lat="46.63744" lon="6.23047">
        <ele>1222</ele>
        <time>2013-08-18T13:27:35.000Z</time>
      </trkpt>
      <trkpt lat="46.63745" lon="6.23048">
        <ele>1222</ele>
        <time>2013-08-18T13:27:36.000Z</time>
      </trkpt>
      <trkpt lat="46.63746" lon="6.23048">
        <ele>1222</ele>
        <time>2013-08-18T13:27:37.000Z</time>
      </trkpt>
      <trkpt lat="46.63747" lon="6.23048">
        <ele>1222</ele>
        <time>2013-08-18T13:27:38.000Z</time>
      </trkpt>
      <trkpt lat="46.63749" lon="6.23049">
        <ele>1222</ele>
        <time>2013-08-18T13:27:39.000Z</time>
      </trkpt>
      <trkpt lat="46.6375" lon="6.2305">
        <ele>1222</ele>
        <time>2013-08-18T13:27:40.000Z</time>
      </trkpt>
      <trkpt lat="46.63751" lon="6.23051">
        <ele>1228</ele>
        <time>2013-08-18T13:27:41.000Z</time>
      </trkpt>
      <trkpt lat="46.63752" lon="6.23051">
        <ele>1228</ele>
        <time>2013-08-18T13:27:42.000Z</time>
      </trkpt>
      <trkpt lat="46.63753" lon="6.23052">
        <ele>1228</ele>
        <time>2013-08-18T13:27:43.000Z</time>
      </trkpt>
      <trkpt lat="46.63754" lon="6.23053">
        <ele>1228</ele>
        <time>2013-08-18T13:27:44.000Z</time>
      </trkpt>
      <trkpt lat="46.63755" lon="6.23054">
        <ele>1228</ele>
        <time>2013-08-18T13:27:45.000Z</time>
      </trkpt>
      <trkpt lat="46.63756" lon="6.23055">
        <ele>1228</ele>
        <time>2013-08-18T13:27:46.000Z</time>
      </trkpt>
      <trkpt lat="46.63757" lon="6.23056">
        <ele>1227</ele>
        <time>2013-08-18T13:27:47.000Z</time>
      </trkpt>
      <trkpt lat="46.63758" lon="6.23057">
        <ele>1227</ele>
        <time>2013-08-18T13:27:48.000Z</time>
      </trkpt>
      <trkpt lat="46.63759" lon="6.23057">
        <ele>1227</ele>
        <time>2013-08-18T13:27:49.000Z</time>
      </trkpt>
      <trkpt lat="46.6376" lon="6.23058">
        <ele>1227</ele>
        <time>2013-08-18T13:27:50.000Z</time>
      </trkpt>
      <trkpt lat="46.63761" lon="6.23058">
        <ele>1227</ele>
        <time>2013-08-18T13:27:51.000Z</time>
      </trkpt>
      <trkpt lat="46.63762" lon="6.23059">
        <ele>1227</ele>
        <time>2013-08-18T13:27:52.000Z</time>
      </trkpt>
      <trkpt lat="46.63763" lon="6.2306">
        <ele>1227</ele>
        <time>2013-08-18T13:27:53.000Z</time>
      </trkpt>
      <trkpt lat="46.63765" lon="6.23061">
        <ele>1227</ele>
        <time>2013-08-18T13:27:54.000Z</time>
      </trkpt>
      <trkpt lat="46.63766" lon="6.23063">
        <ele>1227</ele>
        <time>2013-08-18T13:27:55.000Z</time>
      </trkpt>
      <trkpt lat="46.63768" lon="6.23064">
        <ele>1228</ele>
        <time>2013-08-18T13:27:56.000Z</time>
      </trkpt>
      <trkpt lat="46.63769" lon="6.23064">
        <ele>1228</ele>
        <time>2013-08-18T13:27:57.000Z</time>
      </trkpt>
      <trkpt lat="46.6377" lon="6.23065">
        <ele>1228</ele>
        <time>2013-08-18T13:27:58.000Z</time>
      </trkpt>
      <trkpt lat="46.63772" lon="6.23067">
        <ele>1228</ele>
        <time>2013-08-18T13:27:59.000Z</time>
      </trkpt>
      <trkpt lat="46.63773" lon="6.23068">
        <ele>1228</ele>
        <time>2013-08-18T13:28:00.000Z</time>
      </trkpt>
      <trkpt lat="46.63774" lon="6.23069">
        <ele>1228</ele>
        <time>2013-08-18T13:28:01.000Z</time>
      </trkpt>
      <trkpt lat="46.63775" lon="6.2307">
        <ele>1228</ele>
        <time>2013-08-18T13:28:02.000Z</time>
      </trkpt>
      <trkpt lat="46.63777" lon="6.23071">
        <ele>1228</ele>
        <time>2013-08-18T13:28:03.000Z</time>
      </trkpt>
      <trkpt lat="46.63778" lon="6.23072">
        <ele>1228</ele>
        <time>2013-08-18T13:28:04.000Z</time>
      </trkpt>
      <trkpt lat="46.63779" lon="6.23073">
        <ele>1228</ele>
        <time>2013-08-18T13:28:05.000Z</time>
      </trkpt>
      <trkpt lat="46.6378" lon="6.23074">
        <ele>1228</ele>
        <time>2013-08-18T13:28:06.000Z</time>
      </trkpt>
      <trkpt lat="46.63782" lon="6.23075">
        <ele>1228</ele>
        <time>2013-08-18T13:28:07.000Z</time>
      </trkpt>
      <trkpt lat="46.63783" lon="6.23076">
        <ele>1229</ele>
        <time>2013-08-18T13:28:08.000Z</time>
      </trkpt>
      <trkpt lat="46.63784" lon="6.23077">
        <ele>1229</ele>
        <time>2013-08-18T13:28:09.000Z</time>
      </trkpt>
      <trkpt lat="46.63785" lon="6.23078">
        <ele>1229</ele>
        <time>2013-08-18T13:28:10.000Z</time>
      </trkpt>
      <trkpt lat="46.63786" lon="6.23078">
        <ele>1229</ele>
        <time>2013-08-18T13:28:11.000Z</time>
      </trkpt>
      <trkpt lat="46.63787" lon="6.23079">
        <ele>1229</ele>
        <time>2013-08-18T13:28:12.000Z</time>
      </trkpt>
      <trkpt lat="46.63789" lon="6.2308">
        <ele>1229</ele>
        <time>2013-08-18T13:28:13.000Z</time>
      </trkpt>
      <trkpt lat="46.6379" lon="6.23081">
        <ele>1229</ele>
        <time>2013-08-18T13:28:14.000Z</time>
      </trkpt>
      <trkpt lat="46.63792" lon="6.23082">
        <ele>1229</ele>
        <time>2013-08-18T13:28:15.000Z</time>
      </trkpt>
      <trkpt lat="46.63793" lon="6.23082">
        <ele>1229</ele>
        <time>2013-08-18T13:28:16.000Z</time>
      </trkpt>
      <trkpt lat="46.63794" lon="6.23083">
        <ele>1230</ele>
        <time>2013-08-18T13:28:17.000Z</time>
      </trkpt>
      <trkpt lat="46.63796" lon="6.23084">
        <ele>1226</ele>
        <time>2013-08-18T13:28:18.000Z</time>
      </trkpt>
      <trkpt lat="46.63797" lon="6.23085">
        <ele>1226</ele>
        <time>2013-08-18T13:28:19.000Z</time>
      </trkpt>
      <trkpt lat="46.63798" lon="6.23085">
        <ele>1226</ele>
        <time>2013-08-18T13:28:20.000Z</time>
      </trkpt>
      <trkpt lat="46.63799" lon="6.23086">
        <ele>1226</ele>
        <time>2013-08-18T13:28:21.000Z</time>
      </trkpt>
      <trkpt lat="46.63801" lon="6.23087">
        <ele>1227</ele>
        <time>2013-08-18T13:28:22.000Z</time>
      </trkpt>
      <trkpt lat="46.63802" lon="6.23088">
        <ele>1227</ele>
        <time>2013-08-18T13:28:23.000Z</time>
      </trkpt>
      <trkpt lat="46.63803" lon="6.23089">
        <ele>1227</ele>
        <time>2013-08-18T13:28:24.000Z</time>
      </trkpt>
      <trkpt lat="46.63805" lon="6.23089">
        <ele>1227</ele>
        <time>2013-08-18T13:28:25.000Z</time>
      </trkpt>
      <trkpt lat="46.63806" lon="6.2309">
        <ele>1227</ele>
        <time>2013-08-18T13:28:26.000Z</time>
      </trkpt>
      <trkpt lat="46.63807" lon="6.23091">
        <ele>1227</ele>
        <time>2013-08-18T13:28:27.000Z</time>
      </trkpt>
      <trkpt lat="46.63808" lon="6.23092">
        <ele>1227</ele>
        <time>2013-08-18T13:28:28.000Z</time>
      </trkpt>
      <trkpt lat="46.63809" lon="6.23092">
        <ele>1227</ele>
        <time>2013-08-18T13:28:29.000Z</time>
      </trkpt>
      <trkpt lat="46.6381" lon="6.23093">
        <ele>1228</ele>
        <time>2013-08-18T13:28:30.000Z</time>
      </trkpt>
      <trkpt lat="46.63812" lon="6.23094">
        <ele>1228</ele>
        <time>2013-08-18T13:28:31.000Z</time>
      </trkpt>
      <trkpt lat="46.63813" lon="6.23094">
        <ele>1228</ele>
        <time>2013-08-18T13:28:32.000Z</time>
      </trkpt>
      <trkpt lat="46.63814" lon="6.23095">
        <ele>1228</ele>
        <time>2013-08-18T13:28:33.000Z</time>
      </trkpt>
      <trkpt lat="46.63815" lon="6.23095">
        <ele>1228</ele>
        <time>2013-08-18T13:28:34.000Z</time>
      </trkpt>
      <trkpt lat="46.63816" lon="6.23096">
        <ele>1228</ele>
        <time>2013-08-18T13:28:35.000Z</time>
      </trkpt>
      <trkpt lat="46.63817" lon="6.23097">
        <ele>1228</ele>
        <time>2013-08-18T13:28:36.000Z</time>
      </trkpt>
      <trkpt lat="46.63818" lon="6.23097">
        <ele>1228</ele>
        <time>2013-08-18T13:28:37.000Z</time>
      </trkpt>
      <trkpt lat="46.63819" lon="6.23098">
        <ele>1228</ele>
        <time>2013-08-18T13:28:38.000Z</time>
      </trkpt>
      <trkpt lat="46.63821" lon="6.23098">
        <ele>1228</ele>
        <time>2013-08-18T13:28:39.000Z</time>
      </trkpt>
      <trkpt lat="46.63822" lon="6.23099">
        <ele>1228</ele>
        <time>2013-08-18T13:28:40.000Z</time>
      </trkpt>
      <trkpt lat="46.63823" lon="6.23099">
        <ele>1229</ele>
        <time>2013-08-18T13:28:41.000Z</time>
      </trkpt>
      <trkpt lat="46.63824" lon="6.23099">
        <ele>1229</ele>
        <time>2013-08-18T13:28:42.000Z</time>
      </trkpt>
      <trkpt lat="46.63825" lon="6.23099">
        <ele>1229</ele>
        <time>2013-08-18T13:28:43.000Z</time>
      </trkpt>
      <trkpt lat="46.63826" lon="6.231">
        <ele>1229</ele>
        <time>2013-08-18T13:28:44.000Z</time>
      </trkpt>
      <trkpt lat="46.63828" lon="6.231">
        <ele>1229</ele>
        <time>2013-08-18T13:28:45.000Z</time>
      </trkpt>
      <trkpt lat="46.63829" lon="6.231">
        <ele>1229</ele>
        <time>2013-08-18T13:28:46.000Z</time>
      </trkpt>
      <trkpt lat="46.6383" lon="6.23101">
        <ele>1229</ele>
        <time>2013-08-18T13:28:47.000Z</time>
      </trkpt>
      <trkpt lat="46.63831" lon="6.23101">
        <ele>1229</ele>
        <time>2013-08-18T13:28:48.000Z</time>
      </trkpt>
      <trkpt lat="46.63832" lon="6.23101">
        <ele>1229</ele>
        <time>2013-08-18T13:28:49.000Z</time>
      </trkpt>
      <trkpt lat="46.63833" lon="6.231">
        <ele>1229</ele>
        <time>2013-08-18T13:28:50.000Z</time>
      </trkpt>
      <trkpt lat="46.63834" lon="6.231">
        <ele>1233</ele>
        <time>2013-08-18T13:28:51.000Z</time>
      </trkpt>
      <trkpt lat="46.63836" lon="6.231">
        <ele>1233</ele>
        <time>2013-08-18T13:28:52.000Z</time>
      </trkpt>
      <trkpt lat="46.63837" lon="6.23099">
        <ele>1233</ele>
        <time>2013-08-18T13:28:53.000Z</time>
      </trkpt>
      <trkpt lat="46.63838" lon="6.23099">
        <ele>1233</ele>
        <time>2013-08-18T13:28:54.000Z</time>
      </trkpt>
      <trkpt lat="46.63839" lon="6.23099">
        <ele>1233</ele>
        <time>2013-08-18T13:28:55.000Z</time>
      </trkpt>
      <trkpt lat="46.6384" lon="6.23098">
        <ele>1233</ele>
        <time>2013-08-18T13:28:56.000Z</time>
      </trkpt>
      <trkpt lat="46.63842" lon="6.23098">
        <ele>1233</ele>
        <time>2013-08-18T13:28:57.000Z</time>
      </trkpt>
      <trkpt lat="46.63843" lon="6.23097">
        <ele>1233</ele>
        <time>2013-08-18T13:28:58.000Z</time>
      </trkpt>
      <trkpt lat="46.63845" lon="6.23097">
        <ele>1233</ele>
        <time>2013-08-18T13:28:59.000Z</time>
      </trkpt>
      <trkpt lat="46.63848" lon="6.23097">
        <ele>1234</ele>
        <time>2013-08-18T13:29:01.000Z</time>
      </trkpt>
      <trkpt lat="46.63849" lon="6.23097">
        <ele>1234</ele>
        <time>2013-08-18T13:29:02.000Z</time>
      </trkpt>
      <trkpt lat="46.63851" lon="6.23096">
        <ele>1234</ele>
        <time>2013-08-18T13:29:03.000Z</time>
      </trkpt>
      <trkpt lat="46.63852" lon="6.23096">
        <ele>1234</ele>
        <time>2013-08-18T13:29:04.000Z</time>
      </trkpt>
      <trkpt lat="46.63855" lon="6.23096">
        <ele>1234</ele>
        <time>2013-08-18T13:29:06.000Z</time>
      </trkpt>
      <trkpt lat="46.63859" lon="6.23096">
        <ele>1234</ele>
        <time>2013-08-18T13:29:09.000Z</time>
      </trkpt>
      <trkpt lat="46.63865" lon="6.23096">
        <ele>1234</ele>
        <time>2013-08-18T13:29:14.000Z</time>
      </trkpt>
      <trkpt lat="46.63868" lon="6.23096">
        <ele>1235</ele>
        <time>2013-08-18T13:29:16.000Z</time>
      </trkpt>
      <trkpt lat="46.63871" lon="6.23096">
        <ele>1235</ele>
        <time>2013-08-18T13:29:18.000Z</time>
      </trkpt>
      <trkpt lat="46.63872" lon="6.23096">
        <ele>1235</ele>
        <time>2013-08-18T13:29:19.000Z</time>
      </trkpt>
      <trkpt lat="46.63873" lon="6.23096">
        <ele>1235</ele>
        <time>2013-08-18T13:29:20.000Z</time>
      </trkpt>
      <trkpt lat="46.63874" lon="6.23095">
        <ele>1235</ele>
        <time>2013-08-18T13:29:21.000Z</time>
      </trkpt>
      <trkpt lat="46.63875" lon="6.23095">
        <ele>1235</ele>
        <time>2013-08-18T13:29:22.000Z</time>
      </trkpt>
      <trkpt lat="46.63877" lon="6.23094">
        <ele>1235</ele>
        <time>2013-08-18T13:29:23.000Z</time>
      </trkpt>
      <trkpt lat="46.63878" lon="6.23094">
        <ele>1235</ele>
        <time>2013-08-18T13:29:24.000Z</time>
      </trkpt>
      <trkpt lat="46.6388" lon="6.23094">
        <ele>1236</ele>
        <time>2013-08-18T13:29:26.000Z</time>
      </trkpt>
      <trkpt lat="46.63881" lon="6.23094">
        <ele>1236</ele>
        <time>2013-08-18T13:29:27.000Z</time>
      </trkpt>
      <trkpt lat="46.63884" lon="6.23094">
        <ele>1236</ele>
        <time>2013-08-18T13:29:30.000Z</time>
      </trkpt>
      <trkpt lat="46.63884" lon="6.23095">
        <ele>1236</ele>
        <time>2013-08-18T13:29:31.000Z</time>
      </trkpt>
      <trkpt lat="46.63884" lon="6.23095">
        <ele>1236</ele>
        <time>2013-08-18T13:29:32.000Z</time>
      </trkpt>
      <trkpt lat="46.63885" lon="6.23095">
        <ele>1236</ele>
        <time>2013-08-18T13:29:34.000Z</time>
      </trkpt>
      <trkpt lat="46.63885" lon="6.23095">
        <ele>1236</ele>
        <time>2013-08-18T13:29:35.000Z</time>
      </trkpt>
      <trkpt lat="46.63886" lon="6.23095">
        <ele>1236</ele>
        <time>2013-08-18T13:29:37.000Z</time>
      </trkpt>
      <trkpt lat="46.63886" lon="6.23095">
        <ele>1236</ele>
        <time>2013-08-18T13:29:38.000Z</time>
      </trkpt>
      <trkpt lat="46.63886" lon="6.23094">
        <ele>1236</ele>
        <time>2013-08-18T13:29:40.000Z</time>
      </trkpt>
      <trkpt lat="46.63887" lon="6.23095">
        <ele>1236</ele>
        <time>2013-08-18T13:29:41.000Z</time>
      </trkpt>
      <trkpt lat="46.63889" lon="6.23094">
        <ele>1236</ele>
        <time>2013-08-18T13:29:43.000Z</time>
      </trkpt>
      <trkpt lat="46.6389" lon="6.23094">
        <ele>1237</ele>
        <time>2013-08-18T13:29:44.000Z</time>
      </trkpt>
      <trkpt lat="46.63891" lon="6.23094">
        <ele>1237</ele>
        <time>2013-08-18T13:29:45.000Z</time>
      </trkpt>
      <trkpt lat="46.63893" lon="6.23093">
        <ele>1237</ele>
        <time>2013-08-18T13:29:46.000Z</time>
      </trkpt>
      <trkpt lat="46.63895" lon="6.23093">
        <ele>1237</ele>
        <time>2013-08-18T13:29:47.000Z</time>
      </trkpt>
      <trkpt lat="46.63897" lon="6.23093">
        <ele>1238</ele>
        <time>2013-08-18T13:29:48.000Z</time>
      </trkpt>
      <trkpt lat="46.63899" lon="6.23093">
        <ele>1238</ele>
        <time>2013-08-18T13:29:49.000Z</time>
      </trkpt>
      <trkpt lat="46.639" lon="6.23093">
        <ele>1238</ele>
        <time>2013-08-18T13:29:50.000Z</time>
      </trkpt>
      <trkpt lat="46.63905" lon="6.23094">
        <ele>1239</ele>
        <time>2013-08-18T13:29:53.000Z</time>
      </trkpt>
      <trkpt lat="46.63907" lon="6.23095">
        <ele>1239</ele>
        <time>2013-08-18T13:29:54.000Z</time>
      </trkpt>
      <trkpt lat="46.63908" lon="6.23095">
        <ele>1239</ele>
        <time>2013-08-18T13:29:55.000Z</time>
      </trkpt>
      <trkpt lat="46.6391" lon="6.23095">
        <ele>1239</ele>
        <time>2013-08-18T13:29:56.000Z</time>
      </trkpt>
      <trkpt lat="46.63911" lon="6.23096">
        <ele>1239</ele>
        <time>2013-08-18T13:29:57.000Z</time>
      </trkpt>
      <trkpt lat="46.63913" lon="6.23096">
        <ele>1239</ele>
        <time>2013-08-18T13:29:58.000Z</time>
      </trkpt>
      <trkpt lat="46.63914" lon="6.23096">
        <ele>1239</ele>
        <time>2013-08-18T13:29:59.000Z</time>
      </trkpt>
      <trkpt lat="46.63915" lon="6.23097">
        <ele>1239</ele>
        <time>2013-08-18T13:30:00.000Z</time>
      </trkpt>
      <trkpt lat="46.63916" lon="6.23097">
        <ele>1239</ele>
        <time>2013-08-18T13:30:01.000Z</time>
      </trkpt>
      <trkpt lat="46.63919" lon="6.23097">
        <ele>1243</ele>
        <time>2013-08-18T13:30:03.000Z</time>
      </trkpt>
      <trkpt lat="46.6392" lon="6.23098">
        <ele>1243</ele>
        <time>2013-08-18T13:30:04.000Z</time>
      </trkpt>
      <trkpt lat="46.63922" lon="6.23098">
        <ele>1243</ele>
        <time>2013-08-18T13:30:05.000Z</time>
      </trkpt>
      <trkpt lat="46.63924" lon="6.23098">
        <ele>1243</ele>
        <time>2013-08-18T13:30:06.000Z</time>
      </trkpt>
      <trkpt lat="46.63926" lon="6.23099">
        <ele>1243</ele>
        <time>2013-08-18T13:30:08.000Z</time>
      </trkpt>
      <trkpt lat="46.63928" lon="6.231">
        <ele>1243</ele>
        <time>2013-08-18T13:30:09.000Z</time>
      </trkpt>
      <trkpt lat="46.6393" lon="6.231">
        <ele>1243</ele>
        <time>2013-08-18T13:30:10.000Z</time>
      </trkpt>
      <trkpt lat="46.63936" lon="6.231">
        <ele>1243</ele>
        <time>2013-08-18T13:30:15.000Z</time>
      </trkpt>
      <trkpt lat="46.63937" lon="6.23101">
        <ele>1243</ele>
        <time>2013-08-18T13:30:16.000Z</time>
      </trkpt>
      <trkpt lat="46.63939" lon="6.23101">
        <ele>1243</ele>
        <time>2013-08-18T13:30:17.000Z</time>
      </trkpt>
      <trkpt lat="46.6394" lon="6.23101">
        <ele>1243</ele>
        <time>2013-08-18T13:30:18.000Z</time>
      </trkpt>
      <trkpt lat="46.63942" lon="6.23102">
        <ele>1243</ele>
        <time>2013-08-18T13:30:19.000Z</time>
      </trkpt>
      <trkpt lat="46.63944" lon="6.23102">
        <ele>1243</ele>
        <time>2013-08-18T13:30:20.000Z</time>
      </trkpt>
      <trkpt lat="46.63945" lon="6.23103">
        <ele>1243</ele>
        <time>2013-08-18T13:30:21.000Z</time>
      </trkpt>
      <trkpt lat="46.63947" lon="6.23104">
        <ele>1244</ele>
        <time>2013-08-18T13:30:22.000Z</time>
      </trkpt>
      <trkpt lat="46.63949" lon="6.23104">
        <ele>1244</ele>
        <time>2013-08-18T13:30:23.000Z</time>
      </trkpt>
      <trkpt lat="46.63951" lon="6.23105">
        <ele>1244</ele>
        <time>2013-08-18T13:30:24.000Z</time>
      </trkpt>
      <trkpt lat="46.63953" lon="6.23105">
        <ele>1244</ele>
        <time>2013-08-18T13:30:25.000Z</time>
      </trkpt>
      <trkpt lat="46.63955" lon="6.23106">
        <ele>1244</ele>
        <time>2013-08-18T13:30:26.000Z</time>
      </trkpt>
      <trkpt lat="46.63956" lon="6.23106">
        <ele>1244</ele>
        <time>2013-08-18T13:30:27.000Z</time>
      </trkpt>
      <trkpt lat="46.63958" lon="6.23106">
        <ele>1244</ele>
        <time>2013-08-18T13:30:28.000Z</time>
      </trkpt>
      <trkpt lat="46.63959" lon="6.23107">
        <ele>1244</ele>
        <time>2013-08-18T13:30:29.000Z</time>
      </trkpt>
      <trkpt lat="46.63961" lon="6.23107">
        <ele>1244</ele>
        <time>2013-08-18T13:30:30.000Z</time>
      </trkpt>
      <trkpt lat="46.63963" lon="6.23108">
        <ele>1244</ele>
        <time>2013-08-18T13:30:31.000Z</time>
      </trkpt>
      <trkpt lat="46.63964" lon="6.23108">
        <ele>1245</ele>
        <time>2013-08-18T13:30:32.000Z</time>
      </trkpt>
      <trkpt lat="46.63966" lon="6.23109">
        <ele>1245</ele>
        <time>2013-08-18T13:30:33.000Z</time>
      </trkpt>
      <trkpt lat="46.63971" lon="6.23109">
        <ele>1245</ele>
        <time>2013-08-18T13:30:36.000Z</time>
      </trkpt>
      <trkpt lat="46.63972" lon="6.23109">
        <ele>1245</ele>
        <time>2013-08-18T13:30:37.000Z</time>
      </trkpt>
      <trkpt lat="46.63974" lon="6.2311">
        <ele>1245</ele>
        <time>2013-08-18T13:30:38.000Z</time>
      </trkpt>
      <trkpt lat="46.63975" lon="6.2311">
        <ele>1245</ele>
        <time>2013-08-18T13:30:39.000Z</time>
      </trkpt>
      <trkpt lat="46.63976" lon="6.23111">
        <ele>1245</ele>
        <time>2013-08-18T13:30:40.000Z</time>
      </trkpt>
      <trkpt lat="46.63978" lon="6.23111">
        <ele>1245</ele>
        <time>2013-08-18T13:30:41.000Z</time>
      </trkpt>
      <trkpt lat="46.63979" lon="6.23112">
        <ele>1245</ele>
        <time>2013-08-18T13:30:42.000Z</time>
      </trkpt>
      <trkpt lat="46.6398" lon="6.23113">
        <ele>1245</ele>
        <time>2013-08-18T13:30:43.000Z</time>
      </trkpt>
      <trkpt lat="46.63982" lon="6.23114">
        <ele>1245</ele>
        <time>2013-08-18T13:30:44.000Z</time>
      </trkpt>
      <trkpt lat="46.63983" lon="6.23115">
        <ele>1245</ele>
        <time>2013-08-18T13:30:45.000Z</time>
      </trkpt>
      <trkpt lat="46.63984" lon="6.23116">
        <ele>1245</ele>
        <time>2013-08-18T13:30:46.000Z</time>
      </trkpt>
      <trkpt lat="46.63985" lon="6.23117">
        <ele>1245</ele>
        <time>2013-08-18T13:30:47.000Z</time>
      </trkpt>
      <trkpt lat="46.63986" lon="6.23117">
        <ele>1245</ele>
        <time>2013-08-18T13:30:48.000Z</time>
      </trkpt>
      <trkpt lat="46.63987" lon="6.23118">
        <ele>1245</ele>
        <time>2013-08-18T13:30:49.000Z</time>
      </trkpt>
      <trkpt lat="46.63988" lon="6.23119">
        <ele>1245</ele>
        <time>2013-08-18T13:30:50.000Z</time>
      </trkpt>
      <trkpt lat="46.63989" lon="6.23119">
        <ele>1245</ele>
        <time>2013-08-18T13:30:51.000Z</time>
      </trkpt>
      <trkpt lat="46.63991" lon="6.2312">
        <ele>1245</ele>
        <time>2013-08-18T13:30:52.000Z</time>
      </trkpt>
      <trkpt lat="46.63992" lon="6.23121">
        <ele>1245</ele>
        <time>2013-08-18T13:30:53.000Z</time>
      </trkpt>
      <trkpt lat="46.63993" lon="6.23121">
        <ele>1245</ele>
        <time>2013-08-18T13:30:54.000Z</time>
      </trkpt>
      <trkpt lat="46.63994" lon="6.23121">
        <ele>1245</ele>
        <time>2013-08-18T13:30:55.000Z</time>
      </trkpt>
      <trkpt lat="46.63995" lon="6.23122">
        <ele>1245</ele>
        <time>2013-08-18T13:30:56.000Z</time>
      </trkpt>
      <trkpt lat="46.63996" lon="6.23122">
        <ele>1245</ele>
        <time>2013-08-18T13:30:57.000Z</time>
      </trkpt>
      <trkpt lat="46.63996" lon="6.23123">
        <ele>1245</ele>
        <time>2013-08-18T13:30:58.000Z</time>
      </trkpt>
      <trkpt lat="46.63997" lon="6.23123">
        <ele>1245</ele>
        <time>2013-08-18T13:30:59.000Z</time>
      </trkpt>
      <trkpt lat="46.63998" lon="6.23124">
        <ele>1245</ele>
        <time>2013-08-18T13:31:00.000Z</time>
      </trkpt>
      <trkpt lat="46.63999" lon="6.23125">
        <ele>1245</ele>
        <time>2013-08-18T13:31:01.000Z</time>
      </trkpt>
      <trkpt lat="46.64" lon="6.23125">
        <ele>1254</ele>
        <time>2013-08-18T13:31:02.000Z</time>
      </trkpt>
      <trkpt lat="46.64001" lon="6.23126">
        <ele>1254</ele>
        <time>2013-08-18T13:31:03.000Z</time>
      </trkpt>
      <trkpt lat="46.64003" lon="6.23127">
        <ele>1253</ele>
        <time>2013-08-18T13:31:04.000Z</time>
      </trkpt>
      <trkpt lat="46.64004" lon="6.23128">
        <ele>1253</ele>
        <time>2013-08-18T13:31:05.000Z</time>
      </trkpt>
      <trkpt lat="46.64005" lon="6.23129">
        <ele>1253</ele>
        <time>2013-08-18T13:31:06.000Z</time>
      </trkpt>
      <trkpt lat="46.64006" lon="6.2313">
        <ele>1253</ele>
        <time>2013-08-18T13:31:07.000Z</time>
      </trkpt>
      <trkpt lat="46.64007" lon="6.23131">
        <ele>1253</ele>
        <time>2013-08-18T13:31:08.000Z</time>
      </trkpt>
      <trkpt lat="46.64008" lon="6.23131">
        <ele>1253</ele>
        <time>2013-08-18T13:31:09.000Z</time>
      </trkpt>
      <trkpt lat="46.64009" lon="6.23132">
        <ele>1253</ele>
        <time>2013-08-18T13:31:10.000Z</time>
      </trkpt>
      <trkpt lat="46.6401" lon="6.23133">
        <ele>1253</ele>
        <time>2013-08-18T13:31:11.000Z</time>
      </trkpt>
      <trkpt lat="46.64011" lon="6.23134">
        <ele>1253</ele>
        <time>2013-08-18T13:31:12.000Z</time>
      </trkpt>
      <trkpt lat="46.64012" lon="6.23135">
        <ele>1253</ele>
        <time>2013-08-18T13:31:13.000Z</time>
      </trkpt>
      <trkpt lat="46.64013" lon="6.23136">
        <ele>1253</ele>
        <time>2013-08-18T13:31:14.000Z</time>
      </trkpt>
      <trkpt lat="46.64014" lon="6.23137">
        <ele>1253</ele>
        <time>2013-08-18T13:31:15.000Z</time>
      </trkpt>
      <trkpt lat="46.64015" lon="6.23138">
        <ele>1253</ele>
        <time>2013-08-18T13:31:16.000Z</time>
      </trkpt>
      <trkpt lat="46.64016" lon="6.23138">
        <ele>1253</ele>
        <time>2013-08-18T13:31:17.000Z</time>
      </trkpt>
      <trkpt lat="46.64017" lon="6.23139">
        <ele>1253</ele>
        <time>2013-08-18T13:31:18.000Z</time>
      </trkpt>
      <trkpt lat="46.64018" lon="6.2314">
        <ele>1253</ele>
        <time>2013-08-18T13:31:19.000Z</time>
      </trkpt>
      <trkpt lat="46.64019" lon="6.23141">
        <ele>1253</ele>
        <time>2013-08-18T13:31:20.000Z</time>
      </trkpt>
      <trkpt lat="46.6402" lon="6.23142">
        <ele>1253</ele>
        <time>2013-08-18T13:31:21.000Z</time>
      </trkpt>
      <trkpt lat="46.64021" lon="6.23143">
        <ele>1253</ele>
        <time>2013-08-18T13:31:22.000Z</time>
      </trkpt>
      <trkpt lat="46.64021" lon="6.23144">
        <ele>1253</ele>
        <time>2013-08-18T13:31:23.000Z</time>
      </trkpt>
      <trkpt lat="46.64023" lon="6.23144">
        <ele>1253</ele>
        <time>2013-08-18T13:31:24.000Z</time>
      </trkpt>
      <trkpt lat="46.64024" lon="6.23145">
        <ele>1253</ele>
        <time>2013-08-18T13:31:25.000Z</time>
      </trkpt>
      <trkpt lat="46.64025" lon="6.23146">
        <ele>1253</ele>
        <time>2013-08-18T13:31:26.000Z</time>
      </trkpt>
      <trkpt lat="46.64026" lon="6.23147">
        <ele>1253</ele>
        <time>2013-08-18T13:31:27.000Z</time>
      </trkpt>
      <trkpt lat="46.64027" lon="6.23148">
        <ele>1253</ele>
        <time>2013-08-18T13:31:28.000Z</time>
      </trkpt>
      <trkpt lat="46.64028" lon="6.23149">
        <ele>1253</ele>
        <time>2013-08-18T13:31:29.000Z</time>
      </trkpt>
      <trkpt lat="46.64029" lon="6.2315">
        <ele>1254</ele>
        <time>2013-08-18T13:31:30.000Z</time>
      </trkpt>
      <trkpt lat="46.6403" lon="6.23152">
        <ele>1254</ele>
        <time>2013-08-18T13:31:31.000Z</time>
      </trkpt>
      <trkpt lat="46.64031" lon="6.23152">
        <ele>1254</ele>
        <time>2013-08-18T13:31:32.000Z</time>
      </trkpt>
      <trkpt lat="46.64032" lon="6.23153">
        <ele>1254</ele>
        <time>2013-08-18T13:31:33.000Z</time>
      </trkpt>
      <trkpt lat="46.64032" lon="6.23154">
        <ele>1254</ele>
        <time>2013-08-18T13:31:34.000Z</time>
      </trkpt>
      <trkpt lat="46.64033" lon="6.23155">
        <ele>1254</ele>
        <time>2013-08-18T13:31:35.000Z</time>
      </trkpt>
      <trkpt lat="46.64034" lon="6.23155">
        <ele>1254</ele>
        <time>2013-08-18T13:31:36.000Z</time>
      </trkpt>
      <trkpt lat="46.64035" lon="6.23156">
        <ele>1254</ele>
        <time>2013-08-18T13:31:37.000Z</time>
      </trkpt>
      <trkpt lat="46.64035" lon="6.23157">
        <ele>1254</ele>
        <time>2013-08-18T13:31:38.000Z</time>
      </trkpt>
      <trkpt lat="46.64036" lon="6.23157">
        <ele>1254</ele>
        <time>2013-08-18T13:31:39.000Z</time>
      </trkpt>
      <trkpt lat="46.64037" lon="6.23158">
        <ele>1254</ele>
        <time>2013-08-18T13:31:40.000Z</time>
      </trkpt>
      <trkpt lat="46.64038" lon="6.23159">
        <ele>1255</ele>
        <time>2013-08-18T13:31:41.000Z</time>
      </trkpt>
      <trkpt lat="46.64039" lon="6.2316">
        <ele>1255</ele>
        <time>2013-08-18T13:31:42.000Z</time>
      </trkpt>
      <trkpt lat="46.64039" lon="6.2316">
        <ele>1255</ele>
        <time>2013-08-18T13:31:43.000Z</time>
      </trkpt>
      <trkpt lat="46.6404" lon="6.23161">
        <ele>1255</ele>
        <time>2013-08-18T13:31:44.000Z</time>
      </trkpt>
      <trkpt lat="46.64041" lon="6.23162">
        <ele>1255</ele>
        <time>2013-08-18T13:31:45.000Z</time>
      </trkpt>
      <trkpt lat="46.64042" lon="6.23163">
        <ele>1255</ele>
        <time>2013-08-18T13:31:46.000Z</time>
      </trkpt>
      <trkpt lat="46.64042" lon="6.23163">
        <ele>1255</ele>
        <time>2013-08-18T13:31:47.000Z</time>
      </trkpt>
      <trkpt lat="46.64043" lon="6.23164">
        <ele>1255</ele>
        <time>2013-08-18T13:31:48.000Z</time>
      </trkpt>
      <trkpt lat="46.64043" lon="6.23164">
        <ele>1255</ele>
        <time>2013-08-18T13:31:49.000Z</time>
      </trkpt>
      <trkpt lat="46.64045" lon="6.23165">
        <ele>1255</ele>
        <time>2013-08-18T13:31:50.000Z</time>
      </trkpt>
      <trkpt lat="46.64045" lon="6.23166">
        <ele>1256</ele>
        <time>2013-08-18T13:31:51.000Z</time>
      </trkpt>
      <trkpt lat="46.64046" lon="6.23167">
        <ele>1250</ele>
        <time>2013-08-18T13:31:52.000Z</time>
      </trkpt>
      <trkpt lat="46.64047" lon="6.23167">
        <ele>1250</ele>
        <time>2013-08-18T13:31:53.000Z</time>
      </trkpt>
      <trkpt lat="46.64048" lon="6.23168">
        <ele>1250</ele>
        <time>2013-08-18T13:31:54.000Z</time>
      </trkpt>
      <trkpt lat="46.64049" lon="6.23169">
        <ele>1250</ele>
        <time>2013-08-18T13:31:55.000Z</time>
      </trkpt>
      <trkpt lat="46.6405" lon="6.2317">
        <ele>1250</ele>
        <time>2013-08-18T13:31:56.000Z</time>
      </trkpt>
      <trkpt lat="46.64051" lon="6.23171">
        <ele>1250</ele>
        <time>2013-08-18T13:31:57.000Z</time>
      </trkpt>
      <trkpt lat="46.64052" lon="6.23172">
        <ele>1251</ele>
        <time>2013-08-18T13:31:58.000Z</time>
      </trkpt>
      <trkpt lat="46.64053" lon="6.23173">
        <ele>1251</ele>
        <time>2013-08-18T13:31:59.000Z</time>
      </trkpt>
      <trkpt lat="46.64054" lon="6.23174">
        <ele>1251</ele>
        <time>2013-08-18T13:32:00.000Z</time>
      </trkpt>
      <trkpt lat="46.64055" lon="6.23175">
        <ele>1251</ele>
        <time>2013-08-18T13:32:01.000Z</time>
      </trkpt>
      <trkpt lat="46.64056" lon="6.23175">
        <ele>1251</ele>
        <time>2013-08-18T13:32:02.000Z</time>
      </trkpt>
      <trkpt lat="46.64056" lon="6.23176">
        <ele>1251</ele>
        <time>2013-08-18T13:32:03.000Z</time>
      </trkpt>
      <trkpt lat="46.64057" lon="6.23176">
        <ele>1251</ele>
        <time>2013-08-18T13:32:04.000Z</time>
      </trkpt>
      <trkpt lat="46.64058" lon="6.23177">
        <ele>1251</ele>
        <time>2013-08-18T13:32:05.000Z</time>
      </trkpt>
      <trkpt lat="46.64059" lon="6.23177">
        <ele>1252</ele>
        <time>2013-08-18T13:32:06.000Z</time>
      </trkpt>
      <trkpt lat="46.6406" lon="6.23178">
        <ele>1252</ele>
        <time>2013-08-18T13:32:07.000Z</time>
      </trkpt>
      <trkpt lat="46.6406" lon="6.23179">
        <ele>1252</ele>
        <time>2013-08-18T13:32:08.000Z</time>
      </trkpt>
      <trkpt lat="46.64061" lon="6.2318">
        <ele>1252</ele>
        <time>2013-08-18T13:32:09.000Z</time>
      </trkpt>
      <trkpt lat="46.64062" lon="6.23181">
        <ele>1252</ele>
        <time>2013-08-18T13:32:10.000Z</time>
      </trkpt>
      <trkpt lat="46.64063" lon="6.23182">
        <ele>1252</ele>
        <time>2013-08-18T13:32:11.000Z</time>
      </trkpt>
      <trkpt lat="46.64064" lon="6.23182">
        <ele>1252</ele>
        <time>2013-08-18T13:32:12.000Z</time>
      </trkpt>
      <trkpt lat="46.64065" lon="6.23183">
        <ele>1252</ele>
        <time>2013-08-18T13:32:13.000Z</time>
      </trkpt>
      <trkpt lat="46.64067" lon="6.23184">
        <ele>1252</ele>
        <time>2013-08-18T13:32:14.000Z</time>
      </trkpt>
      <trkpt lat="46.64068" lon="6.23184">
        <ele>1252</ele>
        <time>2013-08-18T13:32:15.000Z</time>
      </trkpt>
      <trkpt lat="46.64069" lon="6.23185">
        <ele>1252</ele>
        <time>2013-08-18T13:32:16.000Z</time>
      </trkpt>
      <trkpt lat="46.6407" lon="6.23186">
        <ele>1252</ele>
        <time>2013-08-18T13:32:17.000Z</time>
      </trkpt>
      <trkpt lat="46.64071" lon="6.23187">
        <ele>1252</ele>
        <time>2013-08-18T13:32:18.000Z</time>
      </trkpt>
      <trkpt lat="46.64072" lon="6.23188">
        <ele>1253</ele>
        <time>2013-08-18T13:32:19.000Z</time>
      </trkpt>
      <trkpt lat="46.64074" lon="6.23189">
        <ele>1253</ele>
        <time>2013-08-18T13:32:20.000Z</time>
      </trkpt>
      <trkpt lat="46.64074" lon="6.2319">
        <ele>1252</ele>
        <time>2013-08-18T13:32:21.000Z</time>
      </trkpt>
      <trkpt lat="46.64075" lon="6.2319">
        <ele>1252</ele>
        <time>2013-08-18T13:32:22.000Z</time>
      </trkpt>
      <trkpt lat="46.64076" lon="6.23191">
        <ele>1252</ele>
        <time>2013-08-18T13:32:23.000Z</time>
      </trkpt>
      <trkpt lat="46.64077" lon="6.23191">
        <ele>1252</ele>
        <time>2013-08-18T13:32:24.000Z</time>
      </trkpt>
      <trkpt lat="46.64078" lon="6.23192">
        <ele>1252</ele>
        <time>2013-08-18T13:32:25.000Z</time>
      </trkpt>
      <trkpt lat="46.64079" lon="6.23192">
        <ele>1252</ele>
        <time>2013-08-18T13:32:26.000Z</time>
      </trkpt>
      <trkpt lat="46.64079" lon="6.23193">
        <ele>1252</ele>
        <time>2013-08-18T13:32:27.000Z</time>
      </trkpt>
      <trkpt lat="46.6408" lon="6.23193">
        <ele>1252</ele>
        <time>2013-08-18T13:32:28.000Z</time>
      </trkpt>
      <trkpt lat="46.64081" lon="6.23194">
        <ele>1252</ele>
        <time>2013-08-18T13:32:29.000Z</time>
      </trkpt>
      <trkpt lat="46.64082" lon="6.23195">
        <ele>1252</ele>
        <time>2013-08-18T13:32:30.000Z</time>
      </trkpt>
      <trkpt lat="46.64083" lon="6.23195">
        <ele>1252</ele>
        <time>2013-08-18T13:32:31.000Z</time>
      </trkpt>
      <trkpt lat="46.64084" lon="6.23196">
        <ele>1261</ele>
        <time>2013-08-18T13:32:32.000Z</time>
      </trkpt>
      <trkpt lat="46.64085" lon="6.23197">
        <ele>1261</ele>
        <time>2013-08-18T13:32:33.000Z</time>
      </trkpt>
      <trkpt lat="46.64086" lon="6.23197">
        <ele>1261</ele>
        <time>2013-08-18T13:32:34.000Z</time>
      </trkpt>
      <trkpt lat="46.64087" lon="6.23198">
        <ele>1261</ele>
        <time>2013-08-18T13:32:35.000Z</time>
      </trkpt>
      <trkpt lat="46.64088" lon="6.23198">
        <ele>1261</ele>
        <time>2013-08-18T13:32:36.000Z</time>
      </trkpt>
      <trkpt lat="46.64089" lon="6.23199">
        <ele>1261</ele>
        <time>2013-08-18T13:32:37.000Z</time>
      </trkpt>
      <trkpt lat="46.6409" lon="6.23199">
        <ele>1261</ele>
        <time>2013-08-18T13:32:38.000Z</time>
      </trkpt>
      <trkpt lat="46.64091" lon="6.232">
        <ele>1261</ele>
        <time>2013-08-18T13:32:39.000Z</time>
      </trkpt>
      <trkpt lat="46.64092" lon="6.232">
        <ele>1261</ele>
        <time>2013-08-18T13:32:40.000Z</time>
      </trkpt>
      <trkpt lat="46.64093" lon="6.23201">
        <ele>1261</ele>
        <time>2013-08-18T13:32:41.000Z</time>
      </trkpt>
      <trkpt lat="46.64094" lon="6.23201">
        <ele>1261</ele>
        <time>2013-08-18T13:32:42.000Z</time>
      </trkpt>
      <trkpt lat="46.64094" lon="6.23201">
        <ele>1261</ele>
        <time>2013-08-18T13:32:43.000Z</time>
      </trkpt>
      <trkpt lat="46.64095" lon="6.23202">
        <ele>1261</ele>
        <time>2013-08-18T13:32:44.000Z</time>
      </trkpt>
      <trkpt lat="46.64096" lon="6.23203">
        <ele>1261</ele>
        <time>2013-08-18T13:32:45.000Z</time>
      </trkpt>
      <trkpt lat="46.64097" lon="6.23203">
        <ele>1261</ele>
        <time>2013-08-18T13:32:46.000Z</time>
      </trkpt>
      <trkpt lat="46.64098" lon="6.23204">
        <ele>1261</ele>
        <time>2013-08-18T13:32:47.000Z</time>
      </trkpt>
      <trkpt lat="46.64099" lon="6.23205">
        <ele>1261</ele>
        <time>2013-08-18T13:32:48.000Z</time>
      </trkpt>
      <trkpt lat="46.641" lon="6.23205">
        <ele>1261</ele>
        <time>2013-08-18T13:32:49.000Z</time>
      </trkpt>
      <trkpt lat="46.64101" lon="6.23206">
        <ele>1262</ele>
        <time>2013-08-18T13:32:50.000Z</time>
      </trkpt>
      <trkpt lat="46.64103" lon="6.23207">
        <ele>1262</ele>
        <time>2013-08-18T13:32:51.000Z</time>
      </trkpt>
      <trkpt lat="46.64104" lon="6.23208">
        <ele>1262</ele>
        <time>2013-08-18T13:32:52.000Z</time>
      </trkpt>
      <trkpt lat="46.64105" lon="6.23209">
        <ele>1262</ele>
        <time>2013-08-18T13:32:53.000Z</time>
      </trkpt>
      <trkpt lat="46.64106" lon="6.23209">
        <ele>1262</ele>
        <time>2013-08-18T13:32:54.000Z</time>
      </trkpt>
      <trkpt lat="46.64107" lon="6.2321">
        <ele>1262</ele>
        <time>2013-08-18T13:32:55.000Z</time>
      </trkpt>
      <trkpt lat="46.64108" lon="6.23211">
        <ele>1262</ele>
        <time>2013-08-18T13:32:56.000Z</time>
      </trkpt>
      <trkpt lat="46.64109" lon="6.23212">
        <ele>1262</ele>
        <time>2013-08-18T13:32:57.000Z</time>
      </trkpt>
      <trkpt lat="46.6411" lon="6.23212">
        <ele>1262</ele>
        <time>2013-08-18T13:32:58.000Z</time>
      </trkpt>
      <trkpt lat="46.64112" lon="6.23213">
        <ele>1262</ele>
        <time>2013-08-18T13:32:59.000Z</time>
      </trkpt>
      <trkpt lat="46.64113" lon="6.23214">
        <ele>1262</ele>
        <time>2013-08-18T13:33:00.000Z</time>
      </trkpt>
      <trkpt lat="46.64114" lon="6.23215">
        <ele>1262</ele>
        <time>2013-08-18T13:33:01.000Z</time>
      </trkpt>
      <trkpt lat="46.64115" lon="6.23216">
        <ele>1262</ele>
        <time>2013-08-18T13:33:02.000Z</time>
      </trkpt>
      <trkpt lat="46.64115" lon="6.23216">
        <ele>1262</ele>
        <time>2013-08-18T13:33:03.000Z</time>
      </trkpt>
      <trkpt lat="46.64117" lon="6.23217">
        <ele>1262</ele>
        <time>2013-08-18T13:33:04.000Z</time>
      </trkpt>
      <trkpt lat="46.64118" lon="6.23218">
        <ele>1262</ele>
        <time>2013-08-18T13:33:05.000Z</time>
      </trkpt>
      <trkpt lat="46.64119" lon="6.23219">
        <ele>1262</ele>
        <time>2013-08-18T13:33:06.000Z</time>
      </trkpt>
      <trkpt lat="46.6412" lon="6.2322">
        <ele>1262</ele>
        <time>2013-08-18T13:33:07.000Z</time>
      </trkpt>
      <trkpt lat="46.64122" lon="6.23221">
        <ele>1262</ele>
        <time>2013-08-18T13:33:08.000Z</time>
      </trkpt>
      <trkpt lat="46.64123" lon="6.23222">
        <ele>1262</ele>
        <time>2013-08-18T13:33:09.000Z</time>
      </trkpt>
      <trkpt lat="46.64125" lon="6.23223">
        <ele>1262</ele>
        <time>2013-08-18T13:33:10.000Z</time>
      </trkpt>
      <trkpt lat="46.64126" lon="6.23224">
        <ele>1262</ele>
        <time>2013-08-18T13:33:11.000Z</time>
      </trkpt>
      <trkpt lat="46.64127" lon="6.23226">
        <ele>1263</ele>
        <time>2013-08-18T13:33:12.000Z</time>
      </trkpt>
      <trkpt lat="46.64129" lon="6.23227">
        <ele>1263</ele>
        <time>2013-08-18T13:33:13.000Z</time>
      </trkpt>
      <trkpt lat="46.6413" lon="6.23228">
        <ele>1263</ele>
        <time>2013-08-18T13:33:14.000Z</time>
      </trkpt>
      <trkpt lat="46.64131" lon="6.23229">
        <ele>1263</ele>
        <time>2013-08-18T13:33:15.000Z</time>
      </trkpt>
      <trkpt lat="46.64132" lon="6.2323">
        <ele>1263</ele>
        <time>2013-08-18T13:33:16.000Z</time>
      </trkpt>
      <trkpt lat="46.64134" lon="6.23231">
        <ele>1263</ele>
        <time>2013-08-18T13:33:17.000Z</time>
      </trkpt>
      <trkpt lat="46.64135" lon="6.23232">
        <ele>1263</ele>
        <time>2013-08-18T13:33:18.000Z</time>
      </trkpt>
      <trkpt lat="46.64136" lon="6.23233">
        <ele>1263</ele>
        <time>2013-08-18T13:33:19.000Z</time>
      </trkpt>
      <trkpt lat="46.64137" lon="6.23234">
        <ele>1263</ele>
        <time>2013-08-18T13:33:20.000Z</time>
      </trkpt>
      <trkpt lat="46.64138" lon="6.23234">
        <ele>1263</ele>
        <time>2013-08-18T13:33:21.000Z</time>
      </trkpt>
      <trkpt lat="46.64139" lon="6.23235">
        <ele>1263</ele>
        <time>2013-08-18T13:33:22.000Z</time>
      </trkpt>
      <trkpt lat="46.6414" lon="6.23236">
        <ele>1263</ele>
        <time>2013-08-18T13:33:23.000Z</time>
      </trkpt>
      <trkpt lat="46.64141" lon="6.23237">
        <ele>1264</ele>
        <time>2013-08-18T13:33:24.000Z</time>
      </trkpt>
      <trkpt lat="46.64142" lon="6.23237">
        <ele>1264</ele>
        <time>2013-08-18T13:33:25.000Z</time>
      </trkpt>
      <trkpt lat="46.64143" lon="6.23238">
        <ele>1264</ele>
        <time>2013-08-18T13:33:26.000Z</time>
      </trkpt>
      <trkpt lat="46.64144" lon="6.23238">
        <ele>1264</ele>
        <time>2013-08-18T13:33:27.000Z</time>
      </trkpt>
      <trkpt lat="46.64145" lon="6.23239">
        <ele>1264</ele>
        <time>2013-08-18T13:33:28.000Z</time>
      </trkpt>
      <trkpt lat="46.64146" lon="6.2324">
        <ele>1264</ele>
        <time>2013-08-18T13:33:29.000Z</time>
      </trkpt>
      <trkpt lat="46.64147" lon="6.23241">
        <ele>1264</ele>
        <time>2013-08-18T13:33:30.000Z</time>
      </trkpt>
      <trkpt lat="46.64148" lon="6.23241">
        <ele>1264</ele>
        <time>2013-08-18T13:33:31.000Z</time>
      </trkpt>
      <trkpt lat="46.64149" lon="6.23242">
        <ele>1264</ele>
        <time>2013-08-18T13:33:32.000Z</time>
      </trkpt>
      <trkpt lat="46.6415" lon="6.23243">
        <ele>1264</ele>
        <time>2013-08-18T13:33:33.000Z</time>
      </trkpt>
      <trkpt lat="46.64151" lon="6.23244">
        <ele>1264</ele>
        <time>2013-08-18T13:33:34.000Z</time>
      </trkpt>
      <trkpt lat="46.64152" lon="6.23245">
        <ele>1264</ele>
        <time>2013-08-18T13:33:35.000Z</time>
      </trkpt>
      <trkpt lat="46.64153" lon="6.23245">
        <ele>1265</ele>
        <time>2013-08-18T13:33:36.000Z</time>
      </trkpt>
      <trkpt lat="46.64154" lon="6.23246">
        <ele>1265</ele>
        <time>2013-08-18T13:33:37.000Z</time>
      </trkpt>
      <trkpt lat="46.64155" lon="6.23247">
        <ele>1265</ele>
        <time>2013-08-18T13:33:38.000Z</time>
      </trkpt>
      <trkpt lat="46.64156" lon="6.23247">
        <ele>1265</ele>
        <time>2013-08-18T13:33:39.000Z</time>
      </trkpt>
      <trkpt lat="46.64157" lon="6.23248">
        <ele>1265</ele>
        <time>2013-08-18T13:33:40.000Z</time>
      </trkpt>
      <trkpt lat="46.64158" lon="6.23248">
        <ele>1265</ele>
        <time>2013-08-18T13:33:41.000Z</time>
      </trkpt>
      <trkpt lat="46.64159" lon="6.23249">
        <ele>1265</ele>
        <time>2013-08-18T13:33:42.000Z</time>
      </trkpt>
      <trkpt lat="46.6416" lon="6.23249">
        <ele>1265</ele>
        <time>2013-08-18T13:33:43.000Z</time>
      </trkpt>
      <trkpt lat="46.64161" lon="6.2325">
        <ele>1264</ele>
        <time>2013-08-18T13:33:44.000Z</time>
      </trkpt>
      <trkpt lat="46.64162" lon="6.23251">
        <ele>1264</ele>
        <time>2013-08-18T13:33:45.000Z</time>
      </trkpt>
      <trkpt lat="46.64163" lon="6.23251">
        <ele>1264</ele>
        <time>2013-08-18T13:33:46.000Z</time>
      </trkpt>
      <trkpt lat="46.64164" lon="6.23252">
        <ele>1265</ele>
        <time>2013-08-18T13:33:47.000Z</time>
      </trkpt>
      <trkpt lat="46.64165" lon="6.23252">
        <ele>1265</ele>
        <time>2013-08-18T13:33:48.000Z</time>
      </trkpt>
      <trkpt lat="46.64166" lon="6.23252">
        <ele>1265</ele>
        <time>2013-08-18T13:33:49.000Z</time>
      </trkpt>
      <trkpt lat="46.64168" lon="6.23253">
        <ele>1266</ele>
        <time>2013-08-18T13:33:50.000Z</time>
      </trkpt>
      <trkpt lat="46.64169" lon="6.23253">
        <ele>1266</ele>
        <time>2013-08-18T13:33:51.000Z</time>
      </trkpt>
      <trkpt lat="46.6417" lon="6.23254">
        <ele>1266</ele>
        <time>2013-08-18T13:33:52.000Z</time>
      </trkpt>
      <trkpt lat="46.64172" lon="6.23255">
        <ele>1266</ele>
        <time>2013-08-18T13:33:53.000Z</time>
      </trkpt>
      <trkpt lat="46.64173" lon="6.23255">
        <ele>1267</ele>
        <time>2013-08-18T13:33:54.000Z</time>
      </trkpt>
      <trkpt lat="46.64174" lon="6.23256">
        <ele>1267</ele>
        <time>2013-08-18T13:33:55.000Z</time>
      </trkpt>
      <trkpt lat="46.64175" lon="6.23256">
        <ele>1267</ele>
        <time>2013-08-18T13:33:56.000Z</time>
      </trkpt>
      <trkpt lat="46.64176" lon="6.23256">
        <ele>1267</ele>
        <time>2013-08-18T13:33:57.000Z</time>
      </trkpt>
      <trkpt lat="46.64177" lon="6.23257">
        <ele>1267</ele>
        <time>2013-08-18T13:33:58.000Z</time>
      </trkpt>
      <trkpt lat="46.64178" lon="6.23257">
        <ele>1267</ele>
        <time>2013-08-18T13:33:59.000Z</time>
      </trkpt>
      <trkpt lat="46.64179" lon="6.23257">
        <ele>1267</ele>
        <time>2013-08-18T13:34:00.000Z</time>
      </trkpt>
      <trkpt lat="46.64181" lon="6.23258">
        <ele>1267</ele>
        <time>2013-08-18T13:34:01.000Z</time>
      </trkpt>
      <trkpt lat="46.64182" lon="6.23259">
        <ele>1267</ele>
        <time>2013-08-18T13:34:02.000Z</time>
      </trkpt>
      <trkpt lat="46.64183" lon="6.23259">
        <ele>1267</ele>
        <time>2013-08-18T13:34:03.000Z</time>
      </trkpt>
      <trkpt lat="46.64184" lon="6.2326">
        <ele>1267</ele>
        <time>2013-08-18T13:34:04.000Z</time>
      </trkpt>
      <trkpt lat="46.64185" lon="6.2326">
        <ele>1267</ele>
        <time>2013-08-18T13:34:05.000Z</time>
      </trkpt>
      <trkpt lat="46.64187" lon="6.23261">
        <ele>1267</ele>
        <time>2013-08-18T13:34:06.000Z</time>
      </trkpt>
      <trkpt lat="46.64188" lon="6.23262">
        <ele>1267</ele>
        <time>2013-08-18T13:34:07.000Z</time>
      </trkpt>
      <trkpt lat="46.64189" lon="6.23263">
        <ele>1267</ele>
        <time>2013-08-18T13:34:08.000Z</time>
      </trkpt>
      <trkpt lat="46.6419" lon="6.23263">
        <ele>1268</ele>
        <time>2013-08-18T13:34:09.000Z</time>
      </trkpt>
      <trkpt lat="46.64191" lon="6.23264">
        <ele>1268</ele>
        <time>2013-08-18T13:34:10.000Z</time>
      </trkpt>
      <trkpt lat="46.64192" lon="6.23264">
        <ele>1268</ele>
        <time>2013-08-18T13:34:11.000Z</time>
      </trkpt>
      <trkpt lat="46.64194" lon="6.23265">
        <ele>1268</ele>
        <time>2013-08-18T13:34:12.000Z</time>
      </trkpt>
      <trkpt lat="46.64195" lon="6.23266">
        <ele>1268</ele>
        <time>2013-08-18T13:34:13.000Z</time>
      </trkpt>
      <trkpt lat="46.64197" lon="6.23267">
        <ele>1268</ele>
        <time>2013-08-18T13:34:14.000Z</time>
      </trkpt>
      <trkpt lat="46.64198" lon="6.23267">
        <ele>1268</ele>
        <time>2013-08-18T13:34:15.000Z</time>
      </trkpt>
      <trkpt lat="46.64199" lon="6.23268">
        <ele>1268</ele>
        <time>2013-08-18T13:34:16.000Z</time>
      </trkpt>
      <trkpt lat="46.64201" lon="6.23268">
        <ele>1268</ele>
        <time>2013-08-18T13:34:18.000Z</time>
      </trkpt>
      <trkpt lat="46.64201" lon="6.23269">
        <ele>1268</ele>
        <time>2013-08-18T13:34:19.000Z</time>
      </trkpt>
      <trkpt lat="46.64202" lon="6.23269">
        <ele>1268</ele>
        <time>2013-08-18T13:34:20.000Z</time>
      </trkpt>
      <trkpt lat="46.64202" lon="6.2327">
        <ele>1268</ele>
        <time>2013-08-18T13:34:21.000Z</time>
      </trkpt>
      <trkpt lat="46.64202" lon="6.2327">
        <ele>1268</ele>
        <time>2013-08-18T13:34:22.000Z</time>
      </trkpt>
      <trkpt lat="46.64203" lon="6.2327">
        <ele>1268</ele>
        <time>2013-08-18T13:34:23.000Z</time>
      </trkpt>
      <trkpt lat="46.64203" lon="6.23271">
        <ele>1268</ele>
        <time>2013-08-18T13:34:24.000Z</time>
      </trkpt>
      <trkpt lat="46.64203" lon="6.23271">
        <ele>1268</ele>
        <time>2013-08-18T13:34:25.000Z</time>
      </trkpt>
      <trkpt lat="46.64203" lon="6.23271">
        <ele>1268</ele>
        <time>2013-08-18T13:34:26.000Z</time>
      </trkpt>
      <trkpt lat="46.64204" lon="6.23271">
        <ele>1268</ele>
        <time>2013-08-18T13:34:27.000Z</time>
      </trkpt>
      <trkpt lat="46.64204" lon="6.23272">
        <ele>1268</ele>
        <time>2013-08-18T13:34:28.000Z</time>
      </trkpt>
      <trkpt lat="46.64204" lon="6.23272">
        <ele>1268</ele>
        <time>2013-08-18T13:34:29.000Z</time>
      </trkpt>
      <trkpt lat="46.64204" lon="6.23272">
        <ele>1268</ele>
        <time>2013-08-18T13:34:30.000Z</time>
      </trkpt>
      <trkpt lat="46.64205" lon="6.23273">
        <ele>1268</ele>
        <time>2013-08-18T13:34:31.000Z</time>
      </trkpt>
      <trkpt lat="46.64205" lon="6.23273">
        <ele>1268</ele>
        <time>2013-08-18T13:34:32.000Z</time>
      </trkpt>
      <trkpt lat="46.64205" lon="6.23273">
        <ele>1268</ele>
        <time>2013-08-18T13:34:33.000Z</time>
      </trkpt>
      <trkpt lat="46.64205" lon="6.23273">
        <ele>1268</ele>
        <time>2013-08-18T13:34:34.000Z</time>
      </trkpt>
      <trkpt lat="46.64205" lon="6.23273">
        <ele>1268</ele>
        <time>2013-08-18T13:34:35.000Z</time>
      </trkpt>
      <trkpt lat="46.64206" lon="6.23274">
        <ele>1268</ele>
        <time>2013-08-18T13:34:36.000Z</time>
      </trkpt>
      <trkpt lat="46.64206" lon="6.23274">
        <ele>1268</ele>
        <time>2013-08-18T13:34:37.000Z</time>
      </trkpt>
      <trkpt lat="46.64206" lon="6.23274">
        <ele>1268</ele>
        <time>2013-08-18T13:34:38.000Z</time>
      </trkpt>
      <trkpt lat="46.64206" lon="6.23274">
        <ele>1268</ele>
        <time>2013-08-18T13:34:39.000Z</time>
      </trkpt>
      <trkpt lat="46.64206" lon="6.23274">
        <ele>1268</ele>
        <time>2013-08-18T13:34:40.000Z</time>
      </trkpt>
      <trkpt lat="46.64207" lon="6.23275">
        <ele>1268</ele>
        <time>2013-08-18T13:34:41.000Z</time>
      </trkpt>
      <trkpt lat="46.64207" lon="6.23275">
        <ele>1268</ele>
        <time>2013-08-18T13:34:44.000Z</time>
      </trkpt>
      <trkpt lat="46.64207" lon="6.23275">
        <ele>1268</ele>
        <time>2013-08-18T13:34:46.000Z</time>
      </trkpt>
      <trkpt lat="46.64207" lon="6.23276">
        <ele>1268</ele>
        <time>2013-08-18T13:34:49.000Z</time>
      </trkpt>
      <trkpt lat="46.64208" lon="6.23276">
        <ele>1268</ele>
        <time>2013-08-18T13:34:50.000Z</time>
      </trkpt>
      <trkpt lat="46.64208" lon="6.23276">
        <ele>1268</ele>
        <time>2013-08-18T13:34:51.000Z</time>
      </trkpt>
      <trkpt lat="46.64208" lon="6.23276">
        <ele>1268</ele>
        <time>2013-08-18T13:34:52.000Z</time>
      </trkpt>
      <trkpt lat="46.64209" lon="6.23277">
        <ele>1269</ele>
        <time>2013-08-18T13:34:53.000Z</time>
      </trkpt>
      <trkpt lat="46.64209" lon="6.23277">
        <ele>1269</ele>
        <time>2013-08-18T13:34:54.000Z</time>
      </trkpt>
      <trkpt lat="46.6421" lon="6.23277">
        <ele>1269</ele>
        <time>2013-08-18T13:34:55.000Z</time>
      </trkpt>
      <trkpt lat="46.6421" lon="6.23277">
        <ele>1269</ele>
        <time>2013-08-18T13:34:56.000Z</time>
      </trkpt>
      <trkpt lat="46.6421" lon="6.23278">
        <ele>1269</ele>
        <time>2013-08-18T13:34:57.000Z</time>
      </trkpt>
      <trkpt lat="46.64211" lon="6.23277">
        <ele>1269</ele>
        <time>2013-08-18T13:34:59.000Z</time>
      </trkpt>
      <trkpt lat="46.64211" lon="6.23278">
        <ele>1269</ele>
        <time>2013-08-18T13:35:01.000Z</time>
      </trkpt>
      <trkpt lat="46.64212" lon="6.23277">
        <ele>1269</ele>
        <time>2013-08-18T13:35:06.000Z</time>
      </trkpt>
      <trkpt lat="46.64212" lon="6.23277">
        <ele>1269</ele>
        <time>2013-08-18T13:35:09.000Z</time>
      </trkpt>
      <trkpt lat="46.64213" lon="6.23277">
        <ele>1269</ele>
        <time>2013-08-18T13:35:11.000Z</time>
      </trkpt>
      <trkpt lat="46.64213" lon="6.23277">
        <ele>1269</ele>
        <time>2013-08-18T13:35:12.000Z</time>
      </trkpt>
      <trkpt lat="46.64213" lon="6.23277">
        <ele>1269</ele>
        <time>2013-08-18T13:35:14.000Z</time>
      </trkpt>
      <trkpt lat="46.64214" lon="6.23276">
        <ele>1269</ele>
        <time>2013-08-18T13:35:18.000Z</time>
      </trkpt>
      <trkpt lat="46.64215" lon="6.23276">
        <ele>1269</ele>
        <time>2013-08-18T13:35:21.000Z</time>
      </trkpt>
      <trkpt lat="46.64215" lon="6.23276">
        <ele>1269</ele>
        <time>2013-08-18T13:35:25.000Z</time>
      </trkpt>
      <trkpt lat="46.64215" lon="6.23276">
        <ele>1269</ele>
        <time>2013-08-18T13:35:27.000Z</time>
      </trkpt>
      <trkpt lat="46.64215" lon="6.23276">
        <ele>1269</ele>
        <time>2013-08-18T13:35:29.000Z</time>
      </trkpt>
      <trkpt lat="46.64216" lon="6.23276">
        <ele>1269</ele>
        <time>2013-08-18T13:35:33.000Z</time>
      </trkpt>
      <trkpt lat="46.64216" lon="6.23276">
        <ele>1269</ele>
        <time>2013-08-18T13:35:36.000Z</time>
      </trkpt>
      <trkpt lat="46.64216" lon="6.23276">
        <ele>1269</ele>
        <time>2013-08-18T13:35:45.000Z</time>
      </trkpt>
      <trkpt lat="46.64215" lon="6.23276">
        <ele>1269</ele>
        <time>2013-08-18T13:35:50.000Z</time>
      </trkpt>
      <trkpt lat="46.64214" lon="6.23276">
        <ele>1269</ele>
        <time>2013-08-18T13:35:55.000Z</time>
      </trkpt>
      <trkpt lat="46.64213" lon="6.23276">
        <ele>1269</ele>
        <time>2013-08-18T13:36:04.000Z</time>
      </trkpt>
      <trkpt lat="46.64213" lon="6.23276">
        <ele>1269</ele>
        <time>2013-08-18T13:36:07.000Z</time>
      </trkpt>
      <trkpt lat="46.64214" lon="6.23276">
        <ele>1269</ele>
        <time>2013-08-18T13:36:13.000Z</time>
      </trkpt>
      <trkpt lat="46.64213" lon="6.23276">
        <ele>1269</ele>
        <time>2013-08-18T13:36:14.000Z</time>
      </trkpt>
      <trkpt lat="46.64213" lon="6.23277">
        <ele>1269</ele>
        <time>2013-08-18T13:36:15.000Z</time>
      </trkpt>
      <trkpt lat="46.64214" lon="6.23276">
        <ele>1269</ele>
        <time>2013-08-18T13:36:18.000Z</time>
      </trkpt>
      <trkpt lat="46.64214" lon="6.23277">
        <ele>1269</ele>
        <time>2013-08-18T13:36:19.000Z</time>
      </trkpt>
      <trkpt lat="46.64214" lon="6.23276">
        <ele>1269</ele>
        <time>2013-08-18T13:36:21.000Z</time>
      </trkpt>
      <trkpt lat="46.64215" lon="6.23276">
        <ele>1269</ele>
        <time>2013-08-18T13:36:22.000Z</time>
      </trkpt>
      <trkpt lat="46.64215" lon="6.23276">
        <ele>1269</ele>
        <time>2013-08-18T13:36:23.000Z</time>
      </trkpt>
      <trkpt lat="46.64215" lon="6.23276">
        <ele>1269</ele>
        <time>2013-08-18T13:36:25.000Z</time>
      </trkpt>
      <trkpt lat="46.64215" lon="6.23275">
        <ele>1269</ele>
        <time>2013-08-18T13:36:31.000Z</time>
      </trkpt>
      <trkpt lat="46.64215" lon="6.23275">
        <ele>1269</ele>
        <time>2013-08-18T13:36:32.000Z</time>
      </trkpt>
      <trkpt lat="46.64215" lon="6.23274">
        <ele>1269</ele>
        <time>2013-08-18T13:36:33.000Z</time>
      </trkpt>
      <trkpt lat="46.64216" lon="6.23273">
        <ele>1269</ele>
        <time>2013-08-18T13:36:35.000Z</time>
      </trkpt>
      <trkpt lat="46.64215" lon="6.23272">
        <ele>1269</ele>
        <time>2013-08-18T13:36:38.000Z</time>
      </trkpt>
      <trkpt lat="46.64215" lon="6.23272">
        <ele>1269</ele>
        <time>2013-08-18T13:36:39.000Z</time>
      </trkpt>
      <trkpt lat="46.64215" lon="6.23272">
        <ele>1269</ele>
        <time>2013-08-18T13:36:40.000Z</time>
      </trkpt>
      <trkpt lat="46.64215" lon="6.23272">
        <ele>1269</ele>
        <time>2013-08-18T13:36:42.000Z</time>
      </trkpt>
      <trkpt lat="46.64215" lon="6.23272">
        <ele>1269</ele>
        <time>2013-08-18T13:36:48.000Z</time>
      </trkpt>
      <trkpt lat="46.64215" lon="6.23272">
        <ele>1269</ele>
        <time>2013-08-18T13:36:51.000Z</time>
      </trkpt>
      <trkpt lat="46.64215" lon="6.23272">
        <ele>1269</ele>
        <time>2013-08-18T13:36:54.000Z</time>
      </trkpt>
      <trkpt lat="46.64215" lon="6.23272">
        <ele>1269</ele>
        <time>2013-08-18T13:36:56.000Z</time>
      </trkpt>
      <trkpt lat="46.64216" lon="6.23272">
        <ele>1269</ele>
        <time>2013-08-18T13:36:58.000Z</time>
      </trkpt>
      <trkpt lat="46.64215" lon="6.23272">
        <ele>1269</ele>
        <time>2013-08-18T13:37:00.000Z</time>
      </trkpt>
      <trkpt lat="46.64215" lon="6.23273">
        <ele>1269</ele>
        <time>2013-08-18T13:37:08.000Z</time>
      </trkpt>
      <trkpt lat="46.64215" lon="6.23273">
        <ele>1269</ele>
        <time>2013-08-18T13:37:11.000Z</time>
      </trkpt>
      <trkpt lat="46.64215" lon="6.23273">
        <ele>1269</ele>
        <time>2013-08-18T13:37:14.000Z</time>
      </trkpt>
      <trkpt lat="46.64215" lon="6.23273">
        <ele>1269</ele>
        <time>2013-08-18T13:37:15.000Z</time>
      </trkpt>
      <trkpt lat="46.64216" lon="6.23273">
        <ele>1269</ele>
        <time>2013-08-18T13:37:18.000Z</time>
      </trkpt>
      <trkpt lat="46.64217" lon="6.23273">
        <ele>1269</ele>
        <time>2013-08-18T13:37:20.000Z</time>
      </trkpt>
      <trkpt lat="46.64218" lon="6.23273">
        <ele>1270</ele>
        <time>2013-08-18T13:37:21.000Z</time>
      </trkpt>
      <trkpt lat="46.64219" lon="6.23273">
        <ele>1270</ele>
        <time>2013-08-18T13:37:22.000Z</time>
      </trkpt>
      <trkpt lat="46.64221" lon="6.23273">
        <ele>1270</ele>
        <time>2013-08-18T13:37:25.000Z</time>
      </trkpt>
      <trkpt lat="46.64222" lon="6.23273">
        <ele>1270</ele>
        <time>2013-08-18T13:37:26.000Z</time>
      </trkpt>
      <trkpt lat="46.64224" lon="6.23273">
        <ele>1270</ele>
        <time>2013-08-18T13:37:28.000Z</time>
      </trkpt>
      <trkpt lat="46.64226" lon="6.23273">
        <ele>1270</ele>
        <time>2013-08-18T13:37:30.000Z</time>
      </trkpt>
      <trkpt lat="46.64229" lon="6.23274">
        <ele>1270</ele>
        <time>2013-08-18T13:37:33.000Z</time>
      </trkpt>
      <trkpt lat="46.6423" lon="6.23274">
        <ele>1271</ele>
        <time>2013-08-18T13:37:35.000Z</time>
      </trkpt>
      <trkpt lat="46.64231" lon="6.23274">
        <ele>1271</ele>
        <time>2013-08-18T13:37:36.000Z</time>
      </trkpt>
      <trkpt lat="46.64232" lon="6.23273">
        <ele>1271</ele>
        <time>2013-08-18T13:37:37.000Z</time>
      </trkpt>
      <trkpt lat="46.64232" lon="6.23273">
        <ele>1271</ele>
        <time>2013-08-18T13:37:38.000Z</time>
      </trkpt>
      <trkpt lat="46.64233" lon="6.23274">
        <ele>1271</ele>
        <time>2013-08-18T13:37:39.000Z</time>
      </trkpt>
      <trkpt lat="46.64234" lon="6.23274">
        <ele>1271</ele>
        <time>2013-08-18T13:37:40.000Z</time>
      </trkpt>
      <trkpt lat="46.64234" lon="6.23274">
        <ele>1271</ele>
        <time>2013-08-18T13:37:41.000Z</time>
      </trkpt>
      <trkpt lat="46.64236" lon="6.23274">
        <ele>1271</ele>
        <time>2013-08-18T13:37:43.000Z</time>
      </trkpt>
      <trkpt lat="46.64237" lon="6.23274">
        <ele>1271</ele>
        <time>2013-08-18T13:37:44.000Z</time>
      </trkpt>
      <trkpt lat="46.64238" lon="6.23273">
        <ele>1271</ele>
        <time>2013-08-18T13:37:45.000Z</time>
      </trkpt>
      <trkpt lat="46.64238" lon="6.23273">
        <ele>1271</ele>
        <time>2013-08-18T13:37:46.000Z</time>
      </trkpt>
      <trkpt lat="46.64239" lon="6.23273">
        <ele>1272</ele>
        <time>2013-08-18T13:37:47.000Z</time>
      </trkpt>
      <trkpt lat="46.6424" lon="6.23273">
        <ele>1272</ele>
        <time>2013-08-18T13:37:48.000Z</time>
      </trkpt>
      <trkpt lat="46.64241" lon="6.23273">
        <ele>1272</ele>
        <time>2013-08-18T13:37:49.000Z</time>
      </trkpt>
      <trkpt lat="46.64242" lon="6.23272">
        <ele>1272</ele>
        <time>2013-08-18T13:37:50.000Z</time>
      </trkpt>
      <trkpt lat="46.64243" lon="6.23272">
        <ele>1272</ele>
        <time>2013-08-18T13:37:51.000Z</time>
      </trkpt>
      <trkpt lat="46.64243" lon="6.23272">
        <ele>1272</ele>
        <time>2013-08-18T13:37:52.000Z</time>
      </trkpt>
      <trkpt lat="46.64244" lon="6.23271">
        <ele>1272</ele>
        <time>2013-08-18T13:37:53.000Z</time>
      </trkpt>
      <trkpt lat="46.64246" lon="6.23272">
        <ele>1272</ele>
        <time>2013-08-18T13:37:55.000Z</time>
      </trkpt>
      <trkpt lat="46.64248" lon="6.23272">
        <ele>1272</ele>
        <time>2013-08-18T13:37:58.000Z</time>
      </trkpt>
      <trkpt lat="46.64249" lon="6.23272">
        <ele>1272</ele>
        <time>2013-08-18T13:37:59.000Z</time>
      </trkpt>
      <trkpt lat="46.6425" lon="6.23272">
        <ele>1272</ele>
        <time>2013-08-18T13:38:00.000Z</time>
      </trkpt>
      <trkpt lat="46.64251" lon="6.23272">
        <ele>1278</ele>
        <time>2013-08-18T13:38:01.000Z</time>
      </trkpt>
      <trkpt lat="46.64252" lon="6.23272">
        <ele>1278</ele>
        <time>2013-08-18T13:38:02.000Z</time>
      </trkpt>
      <trkpt lat="46.64254" lon="6.23272">
        <ele>1278</ele>
        <time>2013-08-18T13:38:05.000Z</time>
      </trkpt>
      <trkpt lat="46.64257" lon="6.23272">
        <ele>1279</ele>
        <time>2013-08-18T13:38:07.000Z</time>
      </trkpt>
      <trkpt lat="46.64257" lon="6.23271">
        <ele>1279</ele>
        <time>2013-08-18T13:38:08.000Z</time>
      </trkpt>
      <trkpt lat="46.64259" lon="6.23271">
        <ele>1279</ele>
        <time>2013-08-18T13:38:09.000Z</time>
      </trkpt>
      <trkpt lat="46.6426" lon="6.2327">
        <ele>1279</ele>
        <time>2013-08-18T13:38:10.000Z</time>
      </trkpt>
      <trkpt lat="46.64261" lon="6.2327">
        <ele>1279</ele>
        <time>2013-08-18T13:38:11.000Z</time>
      </trkpt>
      <trkpt lat="46.64262" lon="6.2327">
        <ele>1279</ele>
        <time>2013-08-18T13:38:12.000Z</time>
      </trkpt>
      <trkpt lat="46.64264" lon="6.23269">
        <ele>1279</ele>
        <time>2013-08-18T13:38:13.000Z</time>
      </trkpt>
      <trkpt lat="46.64265" lon="6.23269">
        <ele>1279</ele>
        <time>2013-08-18T13:38:14.000Z</time>
      </trkpt>
      <trkpt lat="46.64266" lon="6.23268">
        <ele>1279</ele>
        <time>2013-08-18T13:38:15.000Z</time>
      </trkpt>
      <trkpt lat="46.64267" lon="6.23267">
        <ele>1279</ele>
        <time>2013-08-18T13:38:16.000Z</time>
      </trkpt>
      <trkpt lat="46.64268" lon="6.23267">
        <ele>1279</ele>
        <time>2013-08-18T13:38:17.000Z</time>
      </trkpt>
      <trkpt lat="46.6427" lon="6.23266">
        <ele>1279</ele>
        <time>2013-08-18T13:38:18.000Z</time>
      </trkpt>
      <trkpt lat="46.64271" lon="6.23265">
        <ele>1279</ele>
        <time>2013-08-18T13:38:19.000Z</time>
      </trkpt>
      <trkpt lat="46.64273" lon="6.23265">
        <ele>1279</ele>
        <time>2013-08-18T13:38:20.000Z</time>
      </trkpt>
      <trkpt lat="46.64274" lon="6.23263">
        <ele>1280</ele>
        <time>2013-08-18T13:38:21.000Z</time>
      </trkpt>
      <trkpt lat="46.64275" lon="6.23263">
        <ele>1280</ele>
        <time>2013-08-18T13:38:22.000Z</time>
      </trkpt>
      <trkpt lat="46.64276" lon="6.23262">
        <ele>1280</ele>
        <time>2013-08-18T13:38:23.000Z</time>
      </trkpt>
      <trkpt lat="46.64277" lon="6.23261">
        <ele>1280</ele>
        <time>2013-08-18T13:38:24.000Z</time>
      </trkpt>
      <trkpt lat="46.64278" lon="6.23261">
        <ele>1280</ele>
        <time>2013-08-18T13:38:25.000Z</time>
      </trkpt>
      <trkpt lat="46.64279" lon="6.2326">
        <ele>1280</ele>
        <time>2013-08-18T13:38:26.000Z</time>
      </trkpt>
      <trkpt lat="46.6428" lon="6.2326">
        <ele>1280</ele>
        <time>2013-08-18T13:38:27.000Z</time>
      </trkpt>
      <trkpt lat="46.64282" lon="6.2326">
        <ele>1280</ele>
        <time>2013-08-18T13:38:28.000Z</time>
      </trkpt>
      <trkpt lat="46.64283" lon="6.2326">
        <ele>1280</ele>
        <time>2013-08-18T13:38:29.000Z</time>
      </trkpt>
      <trkpt lat="46.64284" lon="6.2326">
        <ele>1280</ele>
        <time>2013-08-18T13:38:30.000Z</time>
      </trkpt>
      <trkpt lat="46.64285" lon="6.2326">
        <ele>1281</ele>
        <time>2013-08-18T13:38:31.000Z</time>
      </trkpt>
      <trkpt lat="46.64287" lon="6.2326">
        <ele>1281</ele>
        <time>2013-08-18T13:38:32.000Z</time>
      </trkpt>
      <trkpt lat="46.64288" lon="6.2326">
        <ele>1281</ele>
        <time>2013-08-18T13:38:33.000Z</time>
      </trkpt>
      <trkpt lat="46.64289" lon="6.23261">
        <ele>1281</ele>
        <time>2013-08-18T13:38:34.000Z</time>
      </trkpt>
      <trkpt lat="46.64291" lon="6.23261">
        <ele>1281</ele>
        <time>2013-08-18T13:38:35.000Z</time>
      </trkpt>
      <trkpt lat="46.64291" lon="6.23262">
        <ele>1281</ele>
        <time>2013-08-18T13:38:36.000Z</time>
      </trkpt>
      <trkpt lat="46.64293" lon="6.23262">
        <ele>1281</ele>
        <time>2013-08-18T13:38:37.000Z</time>
      </trkpt>
      <trkpt lat="46.64294" lon="6.23263">
        <ele>1281</ele>
        <time>2013-08-18T13:38:38.000Z</time>
      </trkpt>
      <trkpt lat="46.64295" lon="6.23263">
        <ele>1281</ele>
        <time>2013-08-18T13:38:39.000Z</time>
      </trkpt>
      <trkpt lat="46.64296" lon="6.23263">
        <ele>1281</ele>
        <time>2013-08-18T13:38:40.000Z</time>
      </trkpt>
      <trkpt lat="46.64297" lon="6.23264">
        <ele>1282</ele>
        <time>2013-08-18T13:38:41.000Z</time>
      </trkpt>
      <trkpt lat="46.64298" lon="6.23264">
        <ele>1282</ele>
        <time>2013-08-18T13:38:42.000Z</time>
      </trkpt>
      <trkpt lat="46.64299" lon="6.23264">
        <ele>1282</ele>
        <time>2013-08-18T13:38:43.000Z</time>
      </trkpt>
      <trkpt lat="46.64301" lon="6.23265">
        <ele>1282</ele>
        <time>2013-08-18T13:38:44.000Z</time>
      </trkpt>
      <trkpt lat="46.64302" lon="6.23265">
        <ele>1282</ele>
        <time>2013-08-18T13:38:45.000Z</time>
      </trkpt>
      <trkpt lat="46.64303" lon="6.23266">
        <ele>1282</ele>
        <time>2013-08-18T13:38:46.000Z</time>
      </trkpt>
      <trkpt lat="46.64304" lon="6.23266">
        <ele>1282</ele>
        <time>2013-08-18T13:38:47.000Z</time>
      </trkpt>
      <trkpt lat="46.64305" lon="6.23266">
        <ele>1282</ele>
        <time>2013-08-18T13:38:48.000Z</time>
      </trkpt>
      <trkpt lat="46.64306" lon="6.23267">
        <ele>1282</ele>
        <time>2013-08-18T13:38:49.000Z</time>
      </trkpt>
      <trkpt lat="46.64307" lon="6.23268">
        <ele>1282</ele>
        <time>2013-08-18T13:38:50.000Z</time>
      </trkpt>
      <trkpt lat="46.64308" lon="6.23268">
        <ele>1283</ele>
        <time>2013-08-18T13:38:51.000Z</time>
      </trkpt>
      <trkpt lat="46.64309" lon="6.23268">
        <ele>1283</ele>
        <time>2013-08-18T13:38:52.000Z</time>
      </trkpt>
      <trkpt lat="46.6431" lon="6.23269">
        <ele>1283</ele>
        <time>2013-08-18T13:38:53.000Z</time>
      </trkpt>
      <trkpt lat="46.64312" lon="6.23269">
        <ele>1283</ele>
        <time>2013-08-18T13:38:54.000Z</time>
      </trkpt>
      <trkpt lat="46.64313" lon="6.2327">
        <ele>1283</ele>
        <time>2013-08-18T13:38:55.000Z</time>
      </trkpt>
      <trkpt lat="46.64314" lon="6.23271">
        <ele>1283</ele>
        <time>2013-08-18T13:38:56.000Z</time>
      </trkpt>
      <trkpt lat="46.64316" lon="6.23272">
        <ele>1283</ele>
        <time>2013-08-18T13:38:57.000Z</time>
      </trkpt>
      <trkpt lat="46.64317" lon="6.23272">
        <ele>1283</ele>
        <time>2013-08-18T13:38:58.000Z</time>
      </trkpt>
      <trkpt lat="46.64318" lon="6.23273">
        <ele>1283</ele>
        <time>2013-08-18T13:38:59.000Z</time>
      </trkpt>
      <trkpt lat="46.64319" lon="6.23274">
        <ele>1283</ele>
        <time>2013-08-18T13:39:00.000Z</time>
      </trkpt>
      <trkpt lat="46.6432" lon="6.23274">
        <ele>1283</ele>
        <time>2013-08-18T13:39:02.000Z</time>
      </trkpt>
      <trkpt lat="46.64321" lon="6.23274">
        <ele>1283</ele>
        <time>2013-08-18T13:39:03.000Z</time>
      </trkpt>
      <trkpt lat="46.64322" lon="6.23274">
        <ele>1283</ele>
        <time>2013-08-18T13:39:04.000Z</time>
      </trkpt>
      <trkpt lat="46.64323" lon="6.23275">
        <ele>1283</ele>
        <time>2013-08-18T13:39:05.000Z</time>
      </trkpt>
      <trkpt lat="46.64324" lon="6.23275">
        <ele>1283</ele>
        <time>2013-08-18T13:39:06.000Z</time>
      </trkpt>
      <trkpt lat="46.64325" lon="6.23276">
        <ele>1283</ele>
        <time>2013-08-18T13:39:07.000Z</time>
      </trkpt>
      <trkpt lat="46.64325" lon="6.23276">
        <ele>1283</ele>
        <time>2013-08-18T13:39:08.000Z</time>
      </trkpt>
      <trkpt lat="46.64327" lon="6.23277">
        <ele>1283</ele>
        <time>2013-08-18T13:39:09.000Z</time>
      </trkpt>
      <trkpt lat="46.64328" lon="6.23278">
        <ele>1283</ele>
        <time>2013-08-18T13:39:10.000Z</time>
      </trkpt>
      <trkpt lat="46.64328" lon="6.23278">
        <ele>1283</ele>
        <time>2013-08-18T13:39:11.000Z</time>
      </trkpt>
      <trkpt lat="46.64329" lon="6.23279">
        <ele>1283</ele>
        <time>2013-08-18T13:39:12.000Z</time>
      </trkpt>
      <trkpt lat="46.6433" lon="6.23279">
        <ele>1283</ele>
        <time>2013-08-18T13:39:13.000Z</time>
      </trkpt>
      <trkpt lat="46.64331" lon="6.2328">
        <ele>1283</ele>
        <time>2013-08-18T13:39:14.000Z</time>
      </trkpt>
      <trkpt lat="46.64332" lon="6.23281">
        <ele>1283</ele>
        <time>2013-08-18T13:39:15.000Z</time>
      </trkpt>
      <trkpt lat="46.64333" lon="6.23282">
        <ele>1283</ele>
        <time>2013-08-18T13:39:16.000Z</time>
      </trkpt>
      <trkpt lat="46.64334" lon="6.23283">
        <ele>1291</ele>
        <time>2013-08-18T13:39:17.000Z</time>
      </trkpt>
      <trkpt lat="46.64335" lon="6.23284">
        <ele>1291</ele>
        <time>2013-08-18T13:39:18.000Z</time>
      </trkpt>
      <trkpt lat="46.64337" lon="6.23285">
        <ele>1291</ele>
        <time>2013-08-18T13:39:19.000Z</time>
      </trkpt>
      <trkpt lat="46.64338" lon="6.23286">
        <ele>1291</ele>
        <time>2013-08-18T13:39:20.000Z</time>
      </trkpt>
      <trkpt lat="46.6434" lon="6.23288">
        <ele>1291</ele>
        <time>2013-08-18T13:39:21.000Z</time>
      </trkpt>
      <trkpt lat="46.64341" lon="6.23288">
        <ele>1291</ele>
        <time>2013-08-18T13:39:22.000Z</time>
      </trkpt>
      <trkpt lat="46.64342" lon="6.23289">
        <ele>1291</ele>
        <time>2013-08-18T13:39:23.000Z</time>
      </trkpt>
      <trkpt lat="46.64343" lon="6.2329">
        <ele>1291</ele>
        <time>2013-08-18T13:39:24.000Z</time>
      </trkpt>
      <trkpt lat="46.64344" lon="6.2329">
        <ele>1291</ele>
        <time>2013-08-18T13:39:25.000Z</time>
      </trkpt>
      <trkpt lat="46.64346" lon="6.23291">
        <ele>1291</ele>
        <time>2013-08-18T13:39:26.000Z</time>
      </trkpt>
      <trkpt lat="46.64347" lon="6.23292">
        <ele>1291</ele>
        <time>2013-08-18T13:39:27.000Z</time>
      </trkpt>
      <trkpt lat="46.64348" lon="6.23292">
        <ele>1291</ele>
        <time>2013-08-18T13:39:28.000Z</time>
      </trkpt>
      <trkpt lat="46.6435" lon="6.23293">
        <ele>1291</ele>
        <time>2013-08-18T13:39:29.000Z</time>
      </trkpt>
      <trkpt lat="46.64351" lon="6.23295">
        <ele>1291</ele>
        <time>2013-08-18T13:39:30.000Z</time>
      </trkpt>
      <trkpt lat="46.64352" lon="6.23296">
        <ele>1291</ele>
        <time>2013-08-18T13:39:31.000Z</time>
      </trkpt>
      <trkpt lat="46.64353" lon="6.23297">
        <ele>1291</ele>
        <time>2013-08-18T13:39:32.000Z</time>
      </trkpt>
      <trkpt lat="46.64355" lon="6.23298">
        <ele>1291</ele>
        <time>2013-08-18T13:39:33.000Z</time>
      </trkpt>
      <trkpt lat="46.64356" lon="6.233">
        <ele>1291</ele>
        <time>2013-08-18T13:39:34.000Z</time>
      </trkpt>
      <trkpt lat="46.64358" lon="6.23301">
        <ele>1291</ele>
        <time>2013-08-18T13:39:35.000Z</time>
      </trkpt>
      <trkpt lat="46.64359" lon="6.23301">
        <ele>1291</ele>
        <time>2013-08-18T13:39:36.000Z</time>
      </trkpt>
      <trkpt lat="46.6436" lon="6.23302">
        <ele>1291</ele>
        <time>2013-08-18T13:39:37.000Z</time>
      </trkpt>
      <trkpt lat="46.64361" lon="6.23302">
        <ele>1291</ele>
        <time>2013-08-18T13:39:38.000Z</time>
      </trkpt>
      <trkpt lat="46.64362" lon="6.23303">
        <ele>1292</ele>
        <time>2013-08-18T13:39:39.000Z</time>
      </trkpt>
      <trkpt lat="46.64363" lon="6.23304">
        <ele>1292</ele>
        <time>2013-08-18T13:39:40.000Z</time>
      </trkpt>
      <trkpt lat="46.64365" lon="6.23305">
        <ele>1292</ele>
        <time>2013-08-18T13:39:41.000Z</time>
      </trkpt>
      <trkpt lat="46.64366" lon="6.23306">
        <ele>1292</ele>
        <time>2013-08-18T13:39:42.000Z</time>
      </trkpt>
      <trkpt lat="46.64367" lon="6.23308">
        <ele>1292</ele>
        <time>2013-08-18T13:39:43.000Z</time>
      </trkpt>
      <trkpt lat="46.64368" lon="6.23309">
        <ele>1292</ele>
        <time>2013-08-18T13:39:44.000Z</time>
      </trkpt>
      <trkpt lat="46.64369" lon="6.2331">
        <ele>1292</ele>
        <time>2013-08-18T13:39:45.000Z</time>
      </trkpt>
      <trkpt lat="46.6437" lon="6.23311">
        <ele>1292</ele>
        <time>2013-08-18T13:39:46.000Z</time>
      </trkpt>
      <trkpt lat="46.64371" lon="6.23312">
        <ele>1292</ele>
        <time>2013-08-18T13:39:47.000Z</time>
      </trkpt>
      <trkpt lat="46.64372" lon="6.23314">
        <ele>1292</ele>
        <time>2013-08-18T13:39:48.000Z</time>
      </trkpt>
      <trkpt lat="46.64373" lon="6.23315">
        <ele>1292</ele>
        <time>2013-08-18T13:39:49.000Z</time>
      </trkpt>
      <trkpt lat="46.64374" lon="6.23316">
        <ele>1292</ele>
        <time>2013-08-18T13:39:50.000Z</time>
      </trkpt>
      <trkpt lat="46.64375" lon="6.23317">
        <ele>1292</ele>
        <time>2013-08-18T13:39:51.000Z</time>
      </trkpt>
      <trkpt lat="46.64376" lon="6.23318">
        <ele>1292</ele>
        <time>2013-08-18T13:39:52.000Z</time>
      </trkpt>
      <trkpt lat="46.64376" lon="6.2332">
        <ele>1292</ele>
        <time>2013-08-18T13:39:53.000Z</time>
      </trkpt>
      <trkpt lat="46.64377" lon="6.23321">
        <ele>1292</ele>
        <time>2013-08-18T13:39:54.000Z</time>
      </trkpt>
      <trkpt lat="46.64377" lon="6.23323">
        <ele>1292</ele>
        <time>2013-08-18T13:39:55.000Z</time>
      </trkpt>
      <trkpt lat="46.64378" lon="6.23324">
        <ele>1292</ele>
        <time>2013-08-18T13:39:56.000Z</time>
      </trkpt>
      <trkpt lat="46.64379" lon="6.23326">
        <ele>1292</ele>
        <time>2013-08-18T13:39:57.000Z</time>
      </trkpt>
      <trkpt lat="46.6438" lon="6.23327">
        <ele>1293</ele>
        <time>2013-08-18T13:39:58.000Z</time>
      </trkpt>
      <trkpt lat="46.6438" lon="6.23329">
        <ele>1293</ele>
        <time>2013-08-18T13:39:59.000Z</time>
      </trkpt>
      <trkpt lat="46.64381" lon="6.2333">
        <ele>1293</ele>
        <time>2013-08-18T13:40:00.000Z</time>
      </trkpt>
      <trkpt lat="46.64382" lon="6.23332">
        <ele>1293</ele>
        <time>2013-08-18T13:40:01.000Z</time>
      </trkpt>
      <trkpt lat="46.64383" lon="6.23333">
        <ele>1293</ele>
        <time>2013-08-18T13:40:02.000Z</time>
      </trkpt>
      <trkpt lat="46.64384" lon="6.23335">
        <ele>1288</ele>
        <time>2013-08-18T13:40:03.000Z</time>
      </trkpt>
      <trkpt lat="46.64385" lon="6.23336">
        <ele>1289</ele>
        <time>2013-08-18T13:40:04.000Z</time>
      </trkpt>
      <trkpt lat="46.64386" lon="6.23337">
        <ele>1289</ele>
        <time>2013-08-18T13:40:05.000Z</time>
      </trkpt>
      <trkpt lat="46.64386" lon="6.23339">
        <ele>1289</ele>
        <time>2013-08-18T13:40:06.000Z</time>
      </trkpt>
      <trkpt lat="46.64387" lon="6.2334">
        <ele>1289</ele>
        <time>2013-08-18T13:40:07.000Z</time>
      </trkpt>
      <trkpt lat="46.64388" lon="6.23341">
        <ele>1289</ele>
        <time>2013-08-18T13:40:08.000Z</time>
      </trkpt>
      <trkpt lat="46.64389" lon="6.23343">
        <ele>1289</ele>
        <time>2013-08-18T13:40:09.000Z</time>
      </trkpt>
      <trkpt lat="46.6439" lon="6.23345">
        <ele>1289</ele>
        <time>2013-08-18T13:40:10.000Z</time>
      </trkpt>
      <trkpt lat="46.6439" lon="6.23346">
        <ele>1289</ele>
        <time>2013-08-18T13:40:11.000Z</time>
      </trkpt>
      <trkpt lat="46.64391" lon="6.23347">
        <ele>1289</ele>
        <time>2013-08-18T13:40:12.000Z</time>
      </trkpt>
      <trkpt lat="46.64392" lon="6.23348">
        <ele>1289</ele>
        <time>2013-08-18T13:40:13.000Z</time>
      </trkpt>
      <trkpt lat="46.64392" lon="6.23349">
        <ele>1289</ele>
        <time>2013-08-18T13:40:14.000Z</time>
      </trkpt>
      <trkpt lat="46.64392" lon="6.2335">
        <ele>1289</ele>
        <time>2013-08-18T13:40:15.000Z</time>
      </trkpt>
      <trkpt lat="46.64393" lon="6.23351">
        <ele>1289</ele>
        <time>2013-08-18T13:40:16.000Z</time>
      </trkpt>
      <trkpt lat="46.64394" lon="6.23353">
        <ele>1289</ele>
        <time>2013-08-18T13:40:17.000Z</time>
      </trkpt>
      <trkpt lat="46.64395" lon="6.23354">
        <ele>1289</ele>
        <time>2013-08-18T13:40:18.000Z</time>
      </trkpt>
      <trkpt lat="46.64396" lon="6.23356">
        <ele>1289</ele>
        <time>2013-08-18T13:40:19.000Z</time>
      </trkpt>
      <trkpt lat="46.64397" lon="6.23357">
        <ele>1289</ele>
        <time>2013-08-18T13:40:20.000Z</time>
      </trkpt>
      <trkpt lat="46.64398" lon="6.23359">
        <ele>1289</ele>
        <time>2013-08-18T13:40:21.000Z</time>
      </trkpt>
      <trkpt lat="46.64399" lon="6.23361">
        <ele>1289</ele>
        <time>2013-08-18T13:40:22.000Z</time>
      </trkpt>
      <trkpt lat="46.644" lon="6.23362">
        <ele>1289</ele>
        <time>2013-08-18T13:40:23.000Z</time>
      </trkpt>
      <trkpt lat="46.64401" lon="6.23363">
        <ele>1289</ele>
        <time>2013-08-18T13:40:24.000Z</time>
      </trkpt>
      <trkpt lat="46.64402" lon="6.23365">
        <ele>1289</ele>
        <time>2013-08-18T13:40:25.000Z</time>
      </trkpt>
      <trkpt lat="46.64402" lon="6.23366">
        <ele>1289</ele>
        <time>2013-08-18T13:40:26.000Z</time>
      </trkpt>
      <trkpt lat="46.64403" lon="6.23367">
        <ele>1288</ele>
        <time>2013-08-18T13:40:27.000Z</time>
      </trkpt>
      <trkpt lat="46.64403" lon="6.23369">
        <ele>1288</ele>
        <time>2013-08-18T13:40:28.000Z</time>
      </trkpt>
      <trkpt lat="46.64404" lon="6.23371">
        <ele>1288</ele>
        <time>2013-08-18T13:40:29.000Z</time>
      </trkpt>
      <trkpt lat="46.64405" lon="6.23373">
        <ele>1288</ele>
        <time>2013-08-18T13:40:30.000Z</time>
      </trkpt>
      <trkpt lat="46.64406" lon="6.23375">
        <ele>1288</ele>
        <time>2013-08-18T13:40:31.000Z</time>
      </trkpt>
      <trkpt lat="46.64407" lon="6.23376">
        <ele>1288</ele>
        <time>2013-08-18T13:40:32.000Z</time>
      </trkpt>
      <trkpt lat="46.64408" lon="6.23378">
        <ele>1288</ele>
        <time>2013-08-18T13:40:33.000Z</time>
      </trkpt>
      <trkpt lat="46.64409" lon="6.2338">
        <ele>1288</ele>
        <time>2013-08-18T13:40:34.000Z</time>
      </trkpt>
      <trkpt lat="46.6441" lon="6.23382">
        <ele>1288</ele>
        <time>2013-08-18T13:40:35.000Z</time>
      </trkpt>
      <trkpt lat="46.64411" lon="6.23383">
        <ele>1288</ele>
        <time>2013-08-18T13:40:36.000Z</time>
      </trkpt>
      <trkpt lat="46.64411" lon="6.23385">
        <ele>1288</ele>
        <time>2013-08-18T13:40:37.000Z</time>
      </trkpt>
      <trkpt lat="46.64412" lon="6.23386">
        <ele>1288</ele>
        <time>2013-08-18T13:40:38.000Z</time>
      </trkpt>
      <trkpt lat="46.64412" lon="6.23388">
        <ele>1288</ele>
        <time>2013-08-18T13:40:39.000Z</time>
      </trkpt>
      <trkpt lat="46.64413" lon="6.23389">
        <ele>1288</ele>
        <time>2013-08-18T13:40:40.000Z</time>
      </trkpt>
      <trkpt lat="46.64414" lon="6.23391">
        <ele>1288</ele>
        <time>2013-08-18T13:40:41.000Z</time>
      </trkpt>
      <trkpt lat="46.64415" lon="6.23392">
        <ele>1288</ele>
        <time>2013-08-18T13:40:42.000Z</time>
      </trkpt>
      <trkpt lat="46.64416" lon="6.23394">
        <ele>1288</ele>
        <time>2013-08-18T13:40:43.000Z</time>
      </trkpt>
      <trkpt lat="46.64417" lon="6.23396">
        <ele>1288</ele>
        <time>2013-08-18T13:40:44.000Z</time>
      </trkpt>
      <trkpt lat="46.64417" lon="6.23398">
        <ele>1296</ele>
        <time>2013-08-18T13:40:45.000Z</time>
      </trkpt>
      <trkpt lat="46.64418" lon="6.234">
        <ele>1296</ele>
        <time>2013-08-18T13:40:46.000Z</time>
      </trkpt>
      <trkpt lat="46.64419" lon="6.23402">
        <ele>1295</ele>
        <time>2013-08-18T13:40:47.000Z</time>
      </trkpt>
      <trkpt lat="46.6442" lon="6.23404">
        <ele>1295</ele>
        <time>2013-08-18T13:40:48.000Z</time>
      </trkpt>
      <trkpt lat="46.64421" lon="6.23406">
        <ele>1294</ele>
        <time>2013-08-18T13:40:49.000Z</time>
      </trkpt>
      <trkpt lat="46.64422" lon="6.23408">
        <ele>1294</ele>
        <time>2013-08-18T13:40:50.000Z</time>
      </trkpt>
      <trkpt lat="46.64423" lon="6.23409">
        <ele>1294</ele>
        <time>2013-08-18T13:40:51.000Z</time>
      </trkpt>
      <trkpt lat="46.64424" lon="6.23411">
        <ele>1293</ele>
        <time>2013-08-18T13:40:52.000Z</time>
      </trkpt>
      <trkpt lat="46.64424" lon="6.23412">
        <ele>1293</ele>
        <time>2013-08-18T13:40:53.000Z</time>
      </trkpt>
      <trkpt lat="46.64425" lon="6.23413">
        <ele>1293</ele>
        <time>2013-08-18T13:40:54.000Z</time>
      </trkpt>
      <trkpt lat="46.64425" lon="6.23414">
        <ele>1293</ele>
        <time>2013-08-18T13:40:55.000Z</time>
      </trkpt>
      <trkpt lat="46.64426" lon="6.23416">
        <ele>1294</ele>
        <time>2013-08-18T13:40:56.000Z</time>
      </trkpt>
      <trkpt lat="46.64427" lon="6.23417">
        <ele>1292</ele>
        <time>2013-08-18T13:40:57.000Z</time>
      </trkpt>
      <trkpt lat="46.64428" lon="6.23419">
        <ele>1292</ele>
        <time>2013-08-18T13:40:58.000Z</time>
      </trkpt>
      <trkpt lat="46.64429" lon="6.23421">
        <ele>1292</ele>
        <time>2013-08-18T13:40:59.000Z</time>
      </trkpt>
      <trkpt lat="46.6443" lon="6.23423">
        <ele>1292</ele>
        <time>2013-08-18T13:41:00.000Z</time>
      </trkpt>
      <trkpt lat="46.64431" lon="6.23425">
        <ele>1293</ele>
        <time>2013-08-18T13:41:01.000Z</time>
      </trkpt>
      <trkpt lat="46.64432" lon="6.23426">
        <ele>1293</ele>
        <time>2013-08-18T13:41:02.000Z</time>
      </trkpt>
      <trkpt lat="46.64433" lon="6.23428">
        <ele>1293</ele>
        <time>2013-08-18T13:41:03.000Z</time>
      </trkpt>
      <trkpt lat="46.64435" lon="6.2343">
        <ele>1294</ele>
        <time>2013-08-18T13:41:04.000Z</time>
      </trkpt>
      <trkpt lat="46.64435" lon="6.23431">
        <ele>1294</ele>
        <time>2013-08-18T13:41:05.000Z</time>
      </trkpt>
      <trkpt lat="46.64436" lon="6.23433">
        <ele>1294</ele>
        <time>2013-08-18T13:41:06.000Z</time>
      </trkpt>
      <trkpt lat="46.64437" lon="6.23434">
        <ele>1294</ele>
        <time>2013-08-18T13:41:07.000Z</time>
      </trkpt>
      <trkpt lat="46.64438" lon="6.23436">
        <ele>1294</ele>
        <time>2013-08-18T13:41:08.000Z</time>
      </trkpt>
      <trkpt lat="46.64439" lon="6.23437">
        <ele>1294</ele>
        <time>2013-08-18T13:41:09.000Z</time>
      </trkpt>
      <trkpt lat="46.6444" lon="6.23439">
        <ele>1295</ele>
        <time>2013-08-18T13:41:10.000Z</time>
      </trkpt>
      <trkpt lat="46.64441" lon="6.2344">
        <ele>1295</ele>
        <time>2013-08-18T13:41:11.000Z</time>
      </trkpt>
      <trkpt lat="46.64442" lon="6.23442">
        <ele>1295</ele>
        <time>2013-08-18T13:41:12.000Z</time>
      </trkpt>
      <trkpt lat="46.64443" lon="6.23443">
        <ele>1295</ele>
        <time>2013-08-18T13:41:13.000Z</time>
      </trkpt>
      <trkpt lat="46.64444" lon="6.23445">
        <ele>1295</ele>
        <time>2013-08-18T13:41:14.000Z</time>
      </trkpt>
      <trkpt lat="46.64446" lon="6.23446">
        <ele>1295</ele>
        <time>2013-08-18T13:41:15.000Z</time>
      </trkpt>
      <trkpt lat="46.64446" lon="6.23447">
        <ele>1295</ele>
        <time>2013-08-18T13:41:16.000Z</time>
      </trkpt>
      <trkpt lat="46.64447" lon="6.23449">
        <ele>1295</ele>
        <time>2013-08-18T13:41:17.000Z</time>
      </trkpt>
      <trkpt lat="46.64448" lon="6.2345">
        <ele>1295</ele>
        <time>2013-08-18T13:41:18.000Z</time>
      </trkpt>
      <trkpt lat="46.64449" lon="6.23451">
        <ele>1295</ele>
        <time>2013-08-18T13:41:19.000Z</time>
      </trkpt>
      <trkpt lat="46.64449" lon="6.23452">
        <ele>1295</ele>
        <time>2013-08-18T13:41:20.000Z</time>
      </trkpt>
      <trkpt lat="46.6445" lon="6.23453">
        <ele>1295</ele>
        <time>2013-08-18T13:41:21.000Z</time>
      </trkpt>
      <trkpt lat="46.6445" lon="6.23453">
        <ele>1296</ele>
        <time>2013-08-18T13:41:22.000Z</time>
      </trkpt>
      <trkpt lat="46.64451" lon="6.23454">
        <ele>1296</ele>
        <time>2013-08-18T13:41:23.000Z</time>
      </trkpt>
      <trkpt lat="46.64451" lon="6.23454">
        <ele>1296</ele>
        <time>2013-08-18T13:41:24.000Z</time>
      </trkpt>
      <trkpt lat="46.64452" lon="6.23455">
        <ele>1296</ele>
        <time>2013-08-18T13:41:25.000Z</time>
      </trkpt>
      <trkpt lat="46.64452" lon="6.23456">
        <ele>1296</ele>
        <time>2013-08-18T13:41:26.000Z</time>
      </trkpt>
      <trkpt lat="46.64452" lon="6.23459">
        <ele>1295</ele>
        <time>2013-08-18T13:41:32.000Z</time>
      </trkpt>
      <trkpt lat="46.64452" lon="6.23461">
        <ele>1295</ele>
        <time>2013-08-18T13:41:35.000Z</time>
      </trkpt>
      <trkpt lat="46.64452" lon="6.23462">
        <ele>1295</ele>
        <time>2013-08-18T13:41:36.000Z</time>
      </trkpt>
      <trkpt lat="46.64452" lon="6.23464">
        <ele>1295</ele>
        <time>2013-08-18T13:41:40.000Z</time>
      </trkpt>
      <trkpt lat="46.64452" lon="6.23465">
        <ele>1295</ele>
        <time>2013-08-18T13:41:41.000Z</time>
      </trkpt>
      <trkpt lat="46.64452" lon="6.23465">
        <ele>1295</ele>
        <time>2013-08-18T13:41:42.000Z</time>
      </trkpt>
      <trkpt lat="46.64452" lon="6.23467">
        <ele>1295</ele>
        <time>2013-08-18T13:41:45.000Z</time>
      </trkpt>
      <trkpt lat="46.64452" lon="6.23467">
        <ele>1295</ele>
        <time>2013-08-18T13:41:46.000Z</time>
      </trkpt>
      <trkpt lat="46.64451" lon="6.23467">
        <ele>1295</ele>
        <time>2013-08-18T13:41:47.000Z</time>
      </trkpt>
      <trkpt lat="46.64451" lon="6.23468">
        <ele>1295</ele>
        <time>2013-08-18T13:41:48.000Z</time>
      </trkpt>
      <trkpt lat="46.64451" lon="6.23468">
        <ele>1295</ele>
        <time>2013-08-18T13:41:49.000Z</time>
      </trkpt>
      <trkpt lat="46.64451" lon="6.23468">
        <ele>1295</ele>
        <time>2013-08-18T13:41:50.000Z</time>
      </trkpt>
      <trkpt lat="46.64451" lon="6.23469">
        <ele>1295</ele>
        <time>2013-08-18T13:41:51.000Z</time>
      </trkpt>
      <trkpt lat="46.6445" lon="6.23469">
        <ele>1295</ele>
        <time>2013-08-18T13:41:52.000Z</time>
      </trkpt>
      <trkpt lat="46.6445" lon="6.23469">
        <ele>1295</ele>
        <time>2013-08-18T13:41:54.000Z</time>
      </trkpt>
      <trkpt lat="46.6445" lon="6.2347">
        <ele>1295</ele>
        <time>2013-08-18T13:41:55.000Z</time>
      </trkpt>
      <trkpt lat="46.6445" lon="6.2347">
        <ele>1295</ele>
        <time>2013-08-18T13:41:56.000Z</time>
      </trkpt>
      <trkpt lat="46.64449" lon="6.2347">
        <ele>1295</ele>
        <time>2013-08-18T13:41:57.000Z</time>
      </trkpt>
      <trkpt lat="46.64449" lon="6.23471">
        <ele>1295</ele>
        <time>2013-08-18T13:41:59.000Z</time>
      </trkpt>
      <trkpt lat="46.64449" lon="6.23471">
        <ele>1295</ele>
        <time>2013-08-18T13:42:00.000Z</time>
      </trkpt>
      <trkpt lat="46.64449" lon="6.23472">
        <ele>1295</ele>
        <time>2013-08-18T13:42:10.000Z</time>
      </trkpt>
      <trkpt lat="46.64449" lon="6.23472">
        <ele>1295</ele>
        <time>2013-08-18T13:42:13.000Z</time>
      </trkpt>
      <trkpt lat="46.6445" lon="6.23473">
        <ele>1295</ele>
        <time>2013-08-18T13:42:14.000Z</time>
      </trkpt>
      <trkpt lat="46.6445" lon="6.23475">
        <ele>1295</ele>
        <time>2013-08-18T13:42:15.000Z</time>
      </trkpt>
      <trkpt lat="46.6445" lon="6.23476">
        <ele>1295</ele>
        <time>2013-08-18T13:42:16.000Z</time>
      </trkpt>
      <trkpt lat="46.6445" lon="6.23481">
        <ele>1294</ele>
        <time>2013-08-18T13:42:18.000Z</time>
      </trkpt>
      <trkpt lat="46.6445" lon="6.23483">
        <ele>1294</ele>
        <time>2013-08-18T13:42:19.000Z</time>
      </trkpt>
      <trkpt lat="46.64451" lon="6.23485">
        <ele>1294</ele>
        <time>2013-08-18T13:42:20.000Z</time>
      </trkpt>
      <trkpt lat="46.64451" lon="6.23487">
        <ele>1294</ele>
        <time>2013-08-18T13:42:21.000Z</time>
      </trkpt>
      <trkpt lat="46.64452" lon="6.2349">
        <ele>1294</ele>
        <time>2013-08-18T13:42:22.000Z</time>
      </trkpt>
      <trkpt lat="46.64452" lon="6.23492">
        <ele>1294</ele>
        <time>2013-08-18T13:42:23.000Z</time>
      </trkpt>
      <trkpt lat="46.64453" lon="6.23495">
        <ele>1294</ele>
        <time>2013-08-18T13:42:24.000Z</time>
      </trkpt>
      <trkpt lat="46.64454" lon="6.23498">
        <ele>1294</ele>
        <time>2013-08-18T13:42:25.000Z</time>
      </trkpt>
      <trkpt lat="46.64454" lon="6.23501">
        <ele>1291</ele>
        <time>2013-08-18T13:42:26.000Z</time>
      </trkpt>
      <trkpt lat="46.64455" lon="6.23504">
        <ele>1291</ele>
        <time>2013-08-18T13:42:27.000Z</time>
      </trkpt>
      <trkpt lat="46.64455" lon="6.23509">
        <ele>1291</ele>
        <time>2013-08-18T13:42:28.000Z</time>
      </trkpt>
      <trkpt lat="46.64455" lon="6.23514">
        <ele>1291</ele>
        <time>2013-08-18T13:42:29.000Z</time>
      </trkpt>
      <trkpt lat="46.64456" lon="6.23518">
        <ele>1291</ele>
        <time>2013-08-18T13:42:30.000Z</time>
      </trkpt>
      <trkpt lat="46.64456" lon="6.23523">
        <ele>1291</ele>
        <time>2013-08-18T13:42:31.000Z</time>
      </trkpt>
      <trkpt lat="46.64457" lon="6.23528">
        <ele>1291</ele>
        <time>2013-08-18T13:42:32.000Z</time>
      </trkpt>
      <trkpt lat="46.64458" lon="6.23533">
        <ele>1291</ele>
        <time>2013-08-18T13:42:33.000Z</time>
      </trkpt>
      <trkpt lat="46.64458" lon="6.23539">
        <ele>1291</ele>
        <time>2013-08-18T13:42:34.000Z</time>
      </trkpt>
      <trkpt lat="46.6446" lon="6.23543">
        <ele>1291</ele>
        <time>2013-08-18T13:42:35.000Z</time>
      </trkpt>
      <trkpt lat="46.64461" lon="6.23548">
        <ele>1291</ele>
        <time>2013-08-18T13:42:36.000Z</time>
      </trkpt>
      <trkpt lat="46.64462" lon="6.23552">
        <ele>1291</ele>
        <time>2013-08-18T13:42:37.000Z</time>
      </trkpt>
      <trkpt lat="46.64463" lon="6.23556">
        <ele>1291</ele>
        <time>2013-08-18T13:42:38.000Z</time>
      </trkpt>
      <trkpt lat="46.64465" lon="6.23561">
        <ele>1291</ele>
        <time>2013-08-18T13:42:39.000Z</time>
      </trkpt>
      <trkpt lat="46.64467" lon="6.23567">
        <ele>1291</ele>
        <time>2013-08-18T13:42:40.000Z</time>
      </trkpt>
      <trkpt lat="46.64468" lon="6.23571">
        <ele>1291</ele>
        <time>2013-08-18T13:42:41.000Z</time>
      </trkpt>
      <trkpt lat="46.6447" lon="6.23576">
        <ele>1291</ele>
        <time>2013-08-18T13:42:42.000Z</time>
      </trkpt>
      <trkpt lat="46.64471" lon="6.2358">
        <ele>1292</ele>
        <time>2013-08-18T13:42:43.000Z</time>
      </trkpt>
      <trkpt lat="46.64473" lon="6.23585">
        <ele>1288</ele>
        <time>2013-08-18T13:42:44.000Z</time>
      </trkpt>
      <trkpt lat="46.64475" lon="6.2359">
        <ele>1288</ele>
        <time>2013-08-18T13:42:45.000Z</time>
      </trkpt>
      <trkpt lat="46.64477" lon="6.23595">
        <ele>1288</ele>
        <time>2013-08-18T13:42:46.000Z</time>
      </trkpt>
      <trkpt lat="46.6448" lon="6.23599">
        <ele>1288</ele>
        <time>2013-08-18T13:42:47.000Z</time>
      </trkpt>
      <trkpt lat="46.64483" lon="6.23603">
        <ele>1288</ele>
        <time>2013-08-18T13:42:48.000Z</time>
      </trkpt>
      <trkpt lat="46.64486" lon="6.23607">
        <ele>1288</ele>
        <time>2013-08-18T13:42:49.000Z</time>
      </trkpt>
      <trkpt lat="46.6449" lon="6.23612">
        <ele>1288</ele>
        <time>2013-08-18T13:42:50.000Z</time>
      </trkpt>
      <trkpt lat="46.64493" lon="6.23616">
        <ele>1287</ele>
        <time>2013-08-18T13:42:51.000Z</time>
      </trkpt>
      <trkpt lat="46.64496" lon="6.2362">
        <ele>1287</ele>
        <time>2013-08-18T13:42:52.000Z</time>
      </trkpt>
      <trkpt lat="46.645" lon="6.23624">
        <ele>1287</ele>
        <time>2013-08-18T13:42:53.000Z</time>
      </trkpt>
      <trkpt lat="46.64504" lon="6.23628">
        <ele>1293</ele>
        <time>2013-08-18T13:42:54.000Z</time>
      </trkpt>
      <trkpt lat="46.64508" lon="6.23632">
        <ele>1293</ele>
        <time>2013-08-18T13:42:55.000Z</time>
      </trkpt>
      <trkpt lat="46.64513" lon="6.23637">
        <ele>1293</ele>
        <time>2013-08-18T13:42:56.000Z</time>
      </trkpt>
      <trkpt lat="46.64517" lon="6.23641">
        <ele>1292</ele>
        <time>2013-08-18T13:42:57.000Z</time>
      </trkpt>
      <trkpt lat="46.64521" lon="6.23645">
        <ele>1292</ele>
        <time>2013-08-18T13:42:58.000Z</time>
      </trkpt>
      <trkpt lat="46.64525" lon="6.2365">
        <ele>1292</ele>
        <time>2013-08-18T13:42:59.000Z</time>
      </trkpt>
      <trkpt lat="46.64529" lon="6.23655">
        <ele>1292</ele>
        <time>2013-08-18T13:43:00.000Z</time>
      </trkpt>
      <trkpt lat="46.64533" lon="6.23659">
        <ele>1292</ele>
        <time>2013-08-18T13:43:01.000Z</time>
      </trkpt>
      <trkpt lat="46.64537" lon="6.23664">
        <ele>1293</ele>
        <time>2013-08-18T13:43:02.000Z</time>
      </trkpt>
      <trkpt lat="46.6454" lon="6.2367">
        <ele>1286</ele>
        <time>2013-08-18T13:43:03.000Z</time>
      </trkpt>
      <trkpt lat="46.64544" lon="6.23675">
        <ele>1286</ele>
        <time>2013-08-18T13:43:04.000Z</time>
      </trkpt>
      <trkpt lat="46.64546" lon="6.23679">
        <ele>1286</ele>
        <time>2013-08-18T13:43:05.000Z</time>
      </trkpt>
      <trkpt lat="46.64549" lon="6.23684">
        <ele>1286</ele>
        <time>2013-08-18T13:43:06.000Z</time>
      </trkpt>
      <trkpt lat="46.64552" lon="6.23689">
        <ele>1286</ele>
        <time>2013-08-18T13:43:07.000Z</time>
      </trkpt>
      <trkpt lat="46.64555" lon="6.23693">
        <ele>1285</ele>
        <time>2013-08-18T13:43:08.000Z</time>
      </trkpt>
      <trkpt lat="46.64558" lon="6.23697">
        <ele>1285</ele>
        <time>2013-08-18T13:43:09.000Z</time>
      </trkpt>
      <trkpt lat="46.64561" lon="6.23701">
        <ele>1285</ele>
        <time>2013-08-18T13:43:10.000Z</time>
      </trkpt>
      <trkpt lat="46.64566" lon="6.23705">
        <ele>1285</ele>
        <time>2013-08-18T13:43:11.000Z</time>
      </trkpt>
      <trkpt lat="46.64571" lon="6.2371">
        <ele>1285</ele>
        <time>2013-08-18T13:43:12.000Z</time>
      </trkpt>
      <trkpt lat="46.64576" lon="6.23714">
        <ele>1284</ele>
        <time>2013-08-18T13:43:13.000Z</time>
      </trkpt>
      <trkpt lat="46.64581" lon="6.23718">
        <ele>1284</ele>
        <time>2013-08-18T13:43:14.000Z</time>
      </trkpt>
      <trkpt lat="46.64585" lon="6.23722">
        <ele>1287</ele>
        <time>2013-08-18T13:43:15.000Z</time>
      </trkpt>
      <trkpt lat="46.6459" lon="6.23726">
        <ele>1286</ele>
        <time>2013-08-18T13:43:16.000Z</time>
      </trkpt>
      <trkpt lat="46.64594" lon="6.2373">
        <ele>1286</ele>
        <time>2013-08-18T13:43:17.000Z</time>
      </trkpt>
      <trkpt lat="46.64599" lon="6.23733">
        <ele>1286</ele>
        <time>2013-08-18T13:43:18.000Z</time>
      </trkpt>
      <trkpt lat="46.64604" lon="6.23736">
        <ele>1286</ele>
        <time>2013-08-18T13:43:19.000Z</time>
      </trkpt>
      <trkpt lat="46.64608" lon="6.23738">
        <ele>1286</ele>
        <time>2013-08-18T13:43:20.000Z</time>
      </trkpt>
      <trkpt lat="46.64613" lon="6.23739">
        <ele>1287</ele>
        <time>2013-08-18T13:43:21.000Z</time>
      </trkpt>
      <trkpt lat="46.64618" lon="6.2374">
        <ele>1287</ele>
        <time>2013-08-18T13:43:22.000Z</time>
      </trkpt>
      <trkpt lat="46.64623" lon="6.23741">
        <ele>1287</ele>
        <time>2013-08-18T13:43:23.000Z</time>
      </trkpt>
      <trkpt lat="46.64628" lon="6.23743">
        <ele>1287</ele>
        <time>2013-08-18T13:43:24.000Z</time>
      </trkpt>
      <trkpt lat="46.64634" lon="6.23744">
        <ele>1287</ele>
        <time>2013-08-18T13:43:25.000Z</time>
      </trkpt>
      <trkpt lat="46.64639" lon="6.23745">
        <ele>1287</ele>
        <time>2013-08-18T13:43:26.000Z</time>
      </trkpt>
      <trkpt lat="46.64645" lon="6.23747">
        <ele>1287</ele>
        <time>2013-08-18T13:43:27.000Z</time>
      </trkpt>
      <trkpt lat="46.64651" lon="6.2375">
        <ele>1281</ele>
        <time>2013-08-18T13:43:28.000Z</time>
      </trkpt>
      <trkpt lat="46.64656" lon="6.23753">
        <ele>1281</ele>
        <time>2013-08-18T13:43:29.000Z</time>
      </trkpt>
      <trkpt lat="46.64661" lon="6.23755">
        <ele>1282</ele>
        <time>2013-08-18T13:43:30.000Z</time>
      </trkpt>
      <trkpt lat="46.64666" lon="6.23759">
        <ele>1282</ele>
        <time>2013-08-18T13:43:31.000Z</time>
      </trkpt>
      <trkpt lat="46.64671" lon="6.23762">
        <ele>1282</ele>
        <time>2013-08-18T13:43:32.000Z</time>
      </trkpt>
      <trkpt lat="46.64675" lon="6.23764">
        <ele>1282</ele>
        <time>2013-08-18T13:43:33.000Z</time>
      </trkpt>
      <trkpt lat="46.64679" lon="6.23768">
        <ele>1282</ele>
        <time>2013-08-18T13:43:34.000Z</time>
      </trkpt>
      <trkpt lat="46.64684" lon="6.23773">
        <ele>1281</ele>
        <time>2013-08-18T13:43:35.000Z</time>
      </trkpt>
      <trkpt lat="46.64688" lon="6.23778">
        <ele>1281</ele>
        <time>2013-08-18T13:43:36.000Z</time>
      </trkpt>
      <trkpt lat="46.64693" lon="6.23782">
        <ele>1281</ele>
        <time>2013-08-18T13:43:37.000Z</time>
      </trkpt>
      <trkpt lat="46.64697" lon="6.23786">
        <ele>1280</ele>
        <time>2013-08-18T13:43:38.000Z</time>
      </trkpt>
      <trkpt lat="46.647" lon="6.23789">
        <ele>1280</ele>
        <time>2013-08-18T13:43:39.000Z</time>
      </trkpt>
      <trkpt lat="46.64704" lon="6.23792">
        <ele>1280</ele>
        <time>2013-08-18T13:43:40.000Z</time>
      </trkpt>
      <trkpt lat="46.64707" lon="6.23794">
        <ele>1280</ele>
        <time>2013-08-18T13:43:41.000Z</time>
      </trkpt>
      <trkpt lat="46.64711" lon="6.23796">
        <ele>1280</ele>
        <time>2013-08-18T13:43:42.000Z</time>
      </trkpt>
      <trkpt lat="46.64714" lon="6.23798">
        <ele>1280</ele>
        <time>2013-08-18T13:43:43.000Z</time>
      </trkpt>
      <trkpt lat="46.64717" lon="6.23799">
        <ele>1280</ele>
        <time>2013-08-18T13:43:44.000Z</time>
      </trkpt>
      <trkpt lat="46.64721" lon="6.238">
        <ele>1280</ele>
        <time>2013-08-18T13:43:45.000Z</time>
      </trkpt>
      <trkpt lat="46.64725" lon="6.238">
        <ele>1280</ele>
        <time>2013-08-18T13:43:46.000Z</time>
      </trkpt>
      <trkpt lat="46.64728" lon="6.23801">
        <ele>1280</ele>
        <time>2013-08-18T13:43:47.000Z</time>
      </trkpt>
      <trkpt lat="46.64732" lon="6.23802">
        <ele>1280</ele>
        <time>2013-08-18T13:43:48.000Z</time>
      </trkpt>
      <trkpt lat="46.64734" lon="6.23802">
        <ele>1280</ele>
        <time>2013-08-18T13:43:49.000Z</time>
      </trkpt>
      <trkpt lat="46.64737" lon="6.23803">
        <ele>1280</ele>
        <time>2013-08-18T13:43:50.000Z</time>
      </trkpt>
      <trkpt lat="46.64739" lon="6.23803">
        <ele>1280</ele>
        <time>2013-08-18T13:43:51.000Z</time>
      </trkpt>
      <trkpt lat="46.64742" lon="6.23804">
        <ele>1280</ele>
        <time>2013-08-18T13:43:52.000Z</time>
      </trkpt>
      <trkpt lat="46.64745" lon="6.23805">
        <ele>1280</ele>
        <time>2013-08-18T13:43:53.000Z</time>
      </trkpt>
      <trkpt lat="46.64747" lon="6.23805">
        <ele>1280</ele>
        <time>2013-08-18T13:43:54.000Z</time>
      </trkpt>
      <trkpt lat="46.6475" lon="6.23806">
        <ele>1280</ele>
        <time>2013-08-18T13:43:55.000Z</time>
      </trkpt>
      <trkpt lat="46.64752" lon="6.23807">
        <ele>1283</ele>
        <time>2013-08-18T13:43:56.000Z</time>
      </trkpt>
      <trkpt lat="46.64754" lon="6.23808">
        <ele>1283</ele>
        <time>2013-08-18T13:43:57.000Z</time>
      </trkpt>
      <trkpt lat="46.64755" lon="6.23809">
        <ele>1283</ele>
        <time>2013-08-18T13:43:58.000Z</time>
      </trkpt>
      <trkpt lat="46.64757" lon="6.2381">
        <ele>1283</ele>
        <time>2013-08-18T13:43:59.000Z</time>
      </trkpt>
      <trkpt lat="46.64759" lon="6.23811">
        <ele>1283</ele>
        <time>2013-08-18T13:44:00.000Z</time>
      </trkpt>
      <trkpt lat="46.64762" lon="6.23812">
        <ele>1283</ele>
        <time>2013-08-18T13:44:01.000Z</time>
      </trkpt>
      <trkpt lat="46.64763" lon="6.23813">
        <ele>1283</ele>
        <time>2013-08-18T13:44:02.000Z</time>
      </trkpt>
      <trkpt lat="46.64766" lon="6.23814">
        <ele>1283</ele>
        <time>2013-08-18T13:44:03.000Z</time>
      </trkpt>
      <trkpt lat="46.64768" lon="6.23815">
        <ele>1283</ele>
        <time>2013-08-18T13:44:04.000Z</time>
      </trkpt>
      <trkpt lat="46.6477" lon="6.23816">
        <ele>1283</ele>
        <time>2013-08-18T13:44:05.000Z</time>
      </trkpt>
      <trkpt lat="46.64772" lon="6.23817">
        <ele>1283</ele>
        <time>2013-08-18T13:44:06.000Z</time>
      </trkpt>
      <trkpt lat="46.64775" lon="6.23818">
        <ele>1283</ele>
        <time>2013-08-18T13:44:07.000Z</time>
      </trkpt>
      <trkpt lat="46.64776" lon="6.23819">
        <ele>1283</ele>
        <time>2013-08-18T13:44:08.000Z</time>
      </trkpt>
      <trkpt lat="46.64779" lon="6.23819">
        <ele>1283</ele>
        <time>2013-08-18T13:44:09.000Z</time>
      </trkpt>
      <trkpt lat="46.64781" lon="6.23819">
        <ele>1283</ele>
        <time>2013-08-18T13:44:10.000Z</time>
      </trkpt>
      <trkpt lat="46.64783" lon="6.2382">
        <ele>1283</ele>
        <time>2013-08-18T13:44:11.000Z</time>
      </trkpt>
      <trkpt lat="46.64786" lon="6.23821">
        <ele>1283</ele>
        <time>2013-08-18T13:44:12.000Z</time>
      </trkpt>
      <trkpt lat="46.64789" lon="6.23822">
        <ele>1283</ele>
        <time>2013-08-18T13:44:13.000Z</time>
      </trkpt>
      <trkpt lat="46.64792" lon="6.23823">
        <ele>1283</ele>
        <time>2013-08-18T13:44:14.000Z</time>
      </trkpt>
      <trkpt lat="46.64795" lon="6.23823">
        <ele>1283</ele>
        <time>2013-08-18T13:44:15.000Z</time>
      </trkpt>
      <trkpt lat="46.64798" lon="6.23824">
        <ele>1283</ele>
        <time>2013-08-18T13:44:16.000Z</time>
      </trkpt>
      <trkpt lat="46.64801" lon="6.23824">
        <ele>1283</ele>
        <time>2013-08-18T13:44:17.000Z</time>
      </trkpt>
      <trkpt lat="46.64804" lon="6.23825">
        <ele>1283</ele>
        <time>2013-08-18T13:44:18.000Z</time>
      </trkpt>
      <trkpt lat="46.64807" lon="6.23826">
        <ele>1283</ele>
        <time>2013-08-18T13:44:19.000Z</time>
      </trkpt>
      <trkpt lat="46.6481" lon="6.23827">
        <ele>1283</ele>
        <time>2013-08-18T13:44:20.000Z</time>
      </trkpt>
      <trkpt lat="46.64814" lon="6.23829">
        <ele>1283</ele>
        <time>2013-08-18T13:44:21.000Z</time>
      </trkpt>
      <trkpt lat="46.64817" lon="6.2383">
        <ele>1282</ele>
        <time>2013-08-18T13:44:22.000Z</time>
      </trkpt>
      <trkpt lat="46.64821" lon="6.23831">
        <ele>1282</ele>
        <time>2013-08-18T13:44:23.000Z</time>
      </trkpt>
      <trkpt lat="46.64825" lon="6.23832">
        <ele>1281</ele>
        <time>2013-08-18T13:44:24.000Z</time>
      </trkpt>
      <trkpt lat="46.64828" lon="6.23832">
        <ele>1280</ele>
        <time>2013-08-18T13:44:25.000Z</time>
      </trkpt>
      <trkpt lat="46.64832" lon="6.23833">
        <ele>1279</ele>
        <time>2013-08-18T13:44:26.000Z</time>
      </trkpt>
      <trkpt lat="46.64835" lon="6.23834">
        <ele>1278</ele>
        <time>2013-08-18T13:44:27.000Z</time>
      </trkpt>
      <trkpt lat="46.64839" lon="6.23836">
        <ele>1277</ele>
        <time>2013-08-18T13:44:28.000Z</time>
      </trkpt>
      <trkpt lat="46.64845" lon="6.23836">
        <ele>1276</ele>
        <time>2013-08-18T13:44:30.000Z</time>
      </trkpt>
      <trkpt lat="46.64849" lon="6.23836">
        <ele>1275</ele>
        <time>2013-08-18T13:44:31.000Z</time>
      </trkpt>
      <trkpt lat="46.64852" lon="6.23836">
        <ele>1275</ele>
        <time>2013-08-18T13:44:32.000Z</time>
      </trkpt>
      <trkpt lat="46.64856" lon="6.23835">
        <ele>1274</ele>
        <time>2013-08-18T13:44:33.000Z</time>
      </trkpt>
      <trkpt lat="46.64859" lon="6.23833">
        <ele>1285</ele>
        <time>2013-08-18T13:44:34.000Z</time>
      </trkpt>
      <trkpt lat="46.64863" lon="6.23831">
        <ele>1285</ele>
        <time>2013-08-18T13:44:35.000Z</time>
      </trkpt>
      <trkpt lat="46.64866" lon="6.23829">
        <ele>1285</ele>
        <time>2013-08-18T13:44:36.000Z</time>
      </trkpt>
      <trkpt lat="46.64869" lon="6.23826">
        <ele>1286</ele>
        <time>2013-08-18T13:44:37.000Z</time>
      </trkpt>
      <trkpt lat="46.64873" lon="6.23824">
        <ele>1286</ele>
        <time>2013-08-18T13:44:38.000Z</time>
      </trkpt>
      <trkpt lat="46.64876" lon="6.23821">
        <ele>1286</ele>
        <time>2013-08-18T13:44:39.000Z</time>
      </trkpt>
      <trkpt lat="46.64879" lon="6.23819">
        <ele>1286</ele>
        <time>2013-08-18T13:44:40.000Z</time>
      </trkpt>
      <trkpt lat="46.64881" lon="6.23818">
        <ele>1286</ele>
        <time>2013-08-18T13:44:41.000Z</time>
      </trkpt>
      <trkpt lat="46.64883" lon="6.23817">
        <ele>1287</ele>
        <time>2013-08-18T13:44:42.000Z</time>
      </trkpt>
      <trkpt lat="46.64885" lon="6.23817">
        <ele>1286</ele>
        <time>2013-08-18T13:44:43.000Z</time>
      </trkpt>
      <trkpt lat="46.64886" lon="6.23815">
        <ele>1287</ele>
        <time>2013-08-18T13:44:44.000Z</time>
      </trkpt>
      <trkpt lat="46.64888" lon="6.23814">
        <ele>1287</ele>
        <time>2013-08-18T13:44:45.000Z</time>
      </trkpt>
      <trkpt lat="46.64891" lon="6.23814">
        <ele>1287</ele>
        <time>2013-08-18T13:44:46.000Z</time>
      </trkpt>
      <trkpt lat="46.64893" lon="6.23813">
        <ele>1287</ele>
        <time>2013-08-18T13:44:47.000Z</time>
      </trkpt>
      <trkpt lat="46.64896" lon="6.23812">
        <ele>1287</ele>
        <time>2013-08-18T13:44:48.000Z</time>
      </trkpt>
      <trkpt lat="46.64902" lon="6.23812">
        <ele>1286</ele>
        <time>2013-08-18T13:44:50.000Z</time>
      </trkpt>
      <trkpt lat="46.64906" lon="6.23811">
        <ele>1286</ele>
        <time>2013-08-18T13:44:51.000Z</time>
      </trkpt>
      <trkpt lat="46.6491" lon="6.23812">
        <ele>1286</ele>
        <time>2013-08-18T13:44:52.000Z</time>
      </trkpt>
      <trkpt lat="46.64913" lon="6.23811">
        <ele>1286</ele>
        <time>2013-08-18T13:44:53.000Z</time>
      </trkpt>
      <trkpt lat="46.64917" lon="6.23811">
        <ele>1286</ele>
        <time>2013-08-18T13:44:54.000Z</time>
      </trkpt>
      <trkpt lat="46.64921" lon="6.23811">
        <ele>1286</ele>
        <time>2013-08-18T13:44:55.000Z</time>
      </trkpt>
      <trkpt lat="46.64924" lon="6.23809">
        <ele>1286</ele>
        <time>2013-08-18T13:44:56.000Z</time>
      </trkpt>
      <trkpt lat="46.64927" lon="6.23808">
        <ele>1287</ele>
        <time>2013-08-18T13:44:57.000Z</time>
      </trkpt>
      <trkpt lat="46.6493" lon="6.23806">
        <ele>1287</ele>
        <time>2013-08-18T13:44:58.000Z</time>
      </trkpt>
      <trkpt lat="46.64933" lon="6.23804">
        <ele>1287</ele>
        <time>2013-08-18T13:44:59.000Z</time>
      </trkpt>
      <trkpt lat="46.64936" lon="6.23803">
        <ele>1287</ele>
        <time>2013-08-18T13:45:00.000Z</time>
      </trkpt>
      <trkpt lat="46.64939" lon="6.23803">
        <ele>1288</ele>
        <time>2013-08-18T13:45:01.000Z</time>
      </trkpt>
      <trkpt lat="46.64941" lon="6.23802">
        <ele>1288</ele>
        <time>2013-08-18T13:45:02.000Z</time>
      </trkpt>
      <trkpt lat="46.64944" lon="6.23801">
        <ele>1288</ele>
        <time>2013-08-18T13:45:03.000Z</time>
      </trkpt>
      <trkpt lat="46.64947" lon="6.238">
        <ele>1288</ele>
        <time>2013-08-18T13:45:04.000Z</time>
      </trkpt>
      <trkpt lat="46.6495" lon="6.238">
        <ele>1288</ele>
        <time>2013-08-18T13:45:05.000Z</time>
      </trkpt>
      <trkpt lat="46.64952" lon="6.23799">
        <ele>1288</ele>
        <time>2013-08-18T13:45:06.000Z</time>
      </trkpt>
      <trkpt lat="46.64955" lon="6.23798">
        <ele>1288</ele>
        <time>2013-08-18T13:45:07.000Z</time>
      </trkpt>
      <trkpt lat="46.64958" lon="6.23797">
        <ele>1288</ele>
        <time>2013-08-18T13:45:08.000Z</time>
      </trkpt>
      <trkpt lat="46.6496" lon="6.23797">
        <ele>1288</ele>
        <time>2013-08-18T13:45:09.000Z</time>
      </trkpt>
      <trkpt lat="46.64962" lon="6.23795">
        <ele>1288</ele>
        <time>2013-08-18T13:45:10.000Z</time>
      </trkpt>
      <trkpt lat="46.64965" lon="6.23794">
        <ele>1288</ele>
        <time>2013-08-18T13:45:11.000Z</time>
      </trkpt>
      <trkpt lat="46.64967" lon="6.23793">
        <ele>1288</ele>
        <time>2013-08-18T13:45:12.000Z</time>
      </trkpt>
      <trkpt lat="46.64971" lon="6.23793">
        <ele>1288</ele>
        <time>2013-08-18T13:45:13.000Z</time>
      </trkpt>
      <trkpt lat="46.64973" lon="6.23791">
        <ele>1289</ele>
        <time>2013-08-18T13:45:14.000Z</time>
      </trkpt>
      <trkpt lat="46.64975" lon="6.2379">
        <ele>1289</ele>
        <time>2013-08-18T13:45:15.000Z</time>
      </trkpt>
      <trkpt lat="46.64977" lon="6.2379">
        <ele>1289</ele>
        <time>2013-08-18T13:45:16.000Z</time>
      </trkpt>
      <trkpt lat="46.64979" lon="6.23789">
        <ele>1289</ele>
        <time>2013-08-18T13:45:17.000Z</time>
      </trkpt>
      <trkpt lat="46.64981" lon="6.23789">
        <ele>1289</ele>
        <time>2013-08-18T13:45:18.000Z</time>
      </trkpt>
      <trkpt lat="46.64983" lon="6.23788">
        <ele>1289</ele>
        <time>2013-08-18T13:45:19.000Z</time>
      </trkpt>
      <trkpt lat="46.64985" lon="6.23787">
        <ele>1289</ele>
        <time>2013-08-18T13:45:20.000Z</time>
      </trkpt>
      <trkpt lat="46.64987" lon="6.23787">
        <ele>1289</ele>
        <time>2013-08-18T13:45:21.000Z</time>
      </trkpt>
      <trkpt lat="46.64989" lon="6.23786">
        <ele>1289</ele>
        <time>2013-08-18T13:45:22.000Z</time>
      </trkpt>
      <trkpt lat="46.64991" lon="6.23786">
        <ele>1289</ele>
        <time>2013-08-18T13:45:23.000Z</time>
      </trkpt>
      <trkpt lat="46.64993" lon="6.23784">
        <ele>1290</ele>
        <time>2013-08-18T13:45:24.000Z</time>
      </trkpt>
      <trkpt lat="46.64994" lon="6.23783">
        <ele>1290</ele>
        <time>2013-08-18T13:45:25.000Z</time>
      </trkpt>
      <trkpt lat="46.64996" lon="6.23782">
        <ele>1290</ele>
        <time>2013-08-18T13:45:26.000Z</time>
      </trkpt>
      <trkpt lat="46.64997" lon="6.23781">
        <ele>1290</ele>
        <time>2013-08-18T13:45:27.000Z</time>
      </trkpt>
      <trkpt lat="46.64999" lon="6.2378">
        <ele>1290</ele>
        <time>2013-08-18T13:45:28.000Z</time>
      </trkpt>
      <trkpt lat="46.65002" lon="6.23779">
        <ele>1293</ele>
        <time>2013-08-18T13:45:29.000Z</time>
      </trkpt>
      <trkpt lat="46.65004" lon="6.23778">
        <ele>1293</ele>
        <time>2013-08-18T13:45:30.000Z</time>
      </trkpt>
      <trkpt lat="46.65006" lon="6.23778">
        <ele>1293</ele>
        <time>2013-08-18T13:45:31.000Z</time>
      </trkpt>
      <trkpt lat="46.65009" lon="6.23778">
        <ele>1293</ele>
        <time>2013-08-18T13:45:32.000Z</time>
      </trkpt>
      <trkpt lat="46.65011" lon="6.23777">
        <ele>1293</ele>
        <time>2013-08-18T13:45:33.000Z</time>
      </trkpt>
      <trkpt lat="46.65013" lon="6.23777">
        <ele>1293</ele>
        <time>2013-08-18T13:45:34.000Z</time>
      </trkpt>
      <trkpt lat="46.65016" lon="6.23777">
        <ele>1293</ele>
        <time>2013-08-18T13:45:35.000Z</time>
      </trkpt>
      <trkpt lat="46.65019" lon="6.23776">
        <ele>1293</ele>
        <time>2013-08-18T13:45:36.000Z</time>
      </trkpt>
      <trkpt lat="46.65025" lon="6.23776">
        <ele>1293</ele>
        <time>2013-08-18T13:45:38.000Z</time>
      </trkpt>
      <trkpt lat="46.65028" lon="6.23776">
        <ele>1294</ele>
        <time>2013-08-18T13:45:39.000Z</time>
      </trkpt>
      <trkpt lat="46.65032" lon="6.23775">
        <ele>1294</ele>
        <time>2013-08-18T13:45:40.000Z</time>
      </trkpt>
      <trkpt lat="46.65035" lon="6.23775">
        <ele>1294</ele>
        <time>2013-08-18T13:45:41.000Z</time>
      </trkpt>
      <trkpt lat="46.65038" lon="6.23774">
        <ele>1294</ele>
        <time>2013-08-18T13:45:42.000Z</time>
      </trkpt>
      <trkpt lat="46.65041" lon="6.23774">
        <ele>1294</ele>
        <time>2013-08-18T13:45:43.000Z</time>
      </trkpt>
      <trkpt lat="46.65044" lon="6.23774">
        <ele>1295</ele>
        <time>2013-08-18T13:45:44.000Z</time>
      </trkpt>
      <trkpt lat="46.65047" lon="6.23774">
        <ele>1295</ele>
        <time>2013-08-18T13:45:45.000Z</time>
      </trkpt>
      <trkpt lat="46.6505" lon="6.23773">
        <ele>1295</ele>
        <time>2013-08-18T13:45:46.000Z</time>
      </trkpt>
      <trkpt lat="46.65053" lon="6.23773">
        <ele>1295</ele>
        <time>2013-08-18T13:45:47.000Z</time>
      </trkpt>
      <trkpt lat="46.65055" lon="6.23773">
        <ele>1296</ele>
        <time>2013-08-18T13:45:48.000Z</time>
      </trkpt>
      <trkpt lat="46.65058" lon="6.23773">
        <ele>1296</ele>
        <time>2013-08-18T13:45:49.000Z</time>
      </trkpt>
      <trkpt lat="46.65061" lon="6.23773">
        <ele>1296</ele>
        <time>2013-08-18T13:45:50.000Z</time>
      </trkpt>
      <trkpt lat="46.65067" lon="6.23774">
        <ele>1297</ele>
        <time>2013-08-18T13:45:52.000Z</time>
      </trkpt>
      <trkpt lat="46.6507" lon="6.23775">
        <ele>1297</ele>
        <time>2013-08-18T13:45:53.000Z</time>
      </trkpt>
      <trkpt lat="46.65072" lon="6.23776">
        <ele>1297</ele>
        <time>2013-08-18T13:45:54.000Z</time>
      </trkpt>
      <trkpt lat="46.65074" lon="6.23777">
        <ele>1297</ele>
        <time>2013-08-18T13:45:55.000Z</time>
      </trkpt>
      <trkpt lat="46.65076" lon="6.23778">
        <ele>1297</ele>
        <time>2013-08-18T13:45:56.000Z</time>
      </trkpt>
      <trkpt lat="46.65078" lon="6.23779">
        <ele>1297</ele>
        <time>2013-08-18T13:45:57.000Z</time>
      </trkpt>
      <trkpt lat="46.6508" lon="6.2378">
        <ele>1297</ele>
        <time>2013-08-18T13:45:58.000Z</time>
      </trkpt>
      <trkpt lat="46.65082" lon="6.23781">
        <ele>1296</ele>
        <time>2013-08-18T13:45:59.000Z</time>
      </trkpt>
      <trkpt lat="46.65084" lon="6.23783">
        <ele>1307</ele>
        <time>2013-08-18T13:46:00.000Z</time>
      </trkpt>
      <trkpt lat="46.65086" lon="6.23783">
        <ele>1307</ele>
        <time>2013-08-18T13:46:01.000Z</time>
      </trkpt>
      <trkpt lat="46.65088" lon="6.23784">
        <ele>1307</ele>
        <time>2013-08-18T13:46:02.000Z</time>
      </trkpt>
      <trkpt lat="46.6509" lon="6.23785">
        <ele>1307</ele>
        <time>2013-08-18T13:46:03.000Z</time>
      </trkpt>
      <trkpt lat="46.65092" lon="6.23786">
        <ele>1307</ele>
        <time>2013-08-18T13:46:04.000Z</time>
      </trkpt>
      <trkpt lat="46.65094" lon="6.23787">
        <ele>1307</ele>
        <time>2013-08-18T13:46:05.000Z</time>
      </trkpt>
      <trkpt lat="46.65097" lon="6.23789">
        <ele>1307</ele>
        <time>2013-08-18T13:46:06.000Z</time>
      </trkpt>
      <trkpt lat="46.65099" lon="6.2379">
        <ele>1307</ele>
        <time>2013-08-18T13:46:07.000Z</time>
      </trkpt>
      <trkpt lat="46.65101" lon="6.23792">
        <ele>1307</ele>
        <time>2013-08-18T13:46:08.000Z</time>
      </trkpt>
      <trkpt lat="46.65102" lon="6.23793">
        <ele>1307</ele>
        <time>2013-08-18T13:46:09.000Z</time>
      </trkpt>
      <trkpt lat="46.65104" lon="6.23794">
        <ele>1307</ele>
        <time>2013-08-18T13:46:10.000Z</time>
      </trkpt>
      <trkpt lat="46.65106" lon="6.23795">
        <ele>1307</ele>
        <time>2013-08-18T13:46:11.000Z</time>
      </trkpt>
      <trkpt lat="46.65108" lon="6.23797">
        <ele>1307</ele>
        <time>2013-08-18T13:46:12.000Z</time>
      </trkpt>
      <trkpt lat="46.6511" lon="6.23798">
        <ele>1307</ele>
        <time>2013-08-18T13:46:13.000Z</time>
      </trkpt>
      <trkpt lat="46.65112" lon="6.238">
        <ele>1307</ele>
        <time>2013-08-18T13:46:14.000Z</time>
      </trkpt>
      <trkpt lat="46.65114" lon="6.23801">
        <ele>1307</ele>
        <time>2013-08-18T13:46:15.000Z</time>
      </trkpt>
      <trkpt lat="46.65116" lon="6.23802">
        <ele>1307</ele>
        <time>2013-08-18T13:46:16.000Z</time>
      </trkpt>
      <trkpt lat="46.65118" lon="6.23804">
        <ele>1307</ele>
        <time>2013-08-18T13:46:17.000Z</time>
      </trkpt>
      <trkpt lat="46.65119" lon="6.23805">
        <ele>1308</ele>
        <time>2013-08-18T13:46:18.000Z</time>
      </trkpt>
      <trkpt lat="46.65121" lon="6.23807">
        <ele>1308</ele>
        <time>2013-08-18T13:46:19.000Z</time>
      </trkpt>
      <trkpt lat="46.65123" lon="6.23809">
        <ele>1308</ele>
        <time>2013-08-18T13:46:20.000Z</time>
      </trkpt>
      <trkpt lat="46.65125" lon="6.23811">
        <ele>1308</ele>
        <time>2013-08-18T13:46:21.000Z</time>
      </trkpt>
      <trkpt lat="46.65127" lon="6.23813">
        <ele>1308</ele>
        <time>2013-08-18T13:46:22.000Z</time>
      </trkpt>
      <trkpt lat="46.65128" lon="6.23815">
        <ele>1308</ele>
        <time>2013-08-18T13:46:23.000Z</time>
      </trkpt>
      <trkpt lat="46.6513" lon="6.23817">
        <ele>1308</ele>
        <time>2013-08-18T13:46:24.000Z</time>
      </trkpt>
      <trkpt lat="46.65131" lon="6.23819">
        <ele>1309</ele>
        <time>2013-08-18T13:46:25.000Z</time>
      </trkpt>
      <trkpt lat="46.65133" lon="6.23821">
        <ele>1309</ele>
        <time>2013-08-18T13:46:26.000Z</time>
      </trkpt>
      <trkpt lat="46.65134" lon="6.23824">
        <ele>1309</ele>
        <time>2013-08-18T13:46:27.000Z</time>
      </trkpt>
      <trkpt lat="46.65135" lon="6.23826">
        <ele>1309</ele>
        <time>2013-08-18T13:46:28.000Z</time>
      </trkpt>
      <trkpt lat="46.65136" lon="6.23828">
        <ele>1309</ele>
        <time>2013-08-18T13:46:29.000Z</time>
      </trkpt>
      <trkpt lat="46.65138" lon="6.23829">
        <ele>1309</ele>
        <time>2013-08-18T13:46:30.000Z</time>
      </trkpt>
      <trkpt lat="46.65138" lon="6.23831">
        <ele>1309</ele>
        <time>2013-08-18T13:46:31.000Z</time>
      </trkpt>
      <trkpt lat="46.65139" lon="6.23832">
        <ele>1309</ele>
        <time>2013-08-18T13:46:32.000Z</time>
      </trkpt>
      <trkpt lat="46.65139" lon="6.23833">
        <ele>1310</ele>
        <time>2013-08-18T13:46:33.000Z</time>
      </trkpt>
      <trkpt lat="46.65139" lon="6.23833">
        <ele>1310</ele>
        <time>2013-08-18T13:46:35.000Z</time>
      </trkpt>
      <trkpt lat="46.6514" lon="6.23833">
        <ele>1310</ele>
        <time>2013-08-18T13:46:36.000Z</time>
      </trkpt>
      <trkpt lat="46.65139" lon="6.23833">
        <ele>1310</ele>
        <time>2013-08-18T13:46:37.000Z</time>
      </trkpt>
      <trkpt lat="46.6514" lon="6.23834">
        <ele>1302</ele>
        <time>2013-08-18T13:46:40.000Z</time>
      </trkpt>
      <trkpt lat="46.65139" lon="6.23834">
        <ele>1302</ele>
        <time>2013-08-18T13:46:41.000Z</time>
      </trkpt>
      <trkpt lat="46.6514" lon="6.23834">
        <ele>1302</ele>
        <time>2013-08-18T13:46:42.000Z</time>
      </trkpt>
      <trkpt lat="46.6514" lon="6.23834">
        <ele>1302</ele>
        <time>2013-08-18T13:46:44.000Z</time>
      </trkpt>
      <trkpt lat="46.6514" lon="6.23835">
        <ele>1302</ele>
        <time>2013-08-18T13:46:45.000Z</time>
      </trkpt>
      <trkpt lat="46.6514" lon="6.23835">
        <ele>1302</ele>
        <time>2013-08-18T13:46:46.000Z</time>
      </trkpt>
      <trkpt lat="46.6514" lon="6.23835">
        <ele>1302</ele>
        <time>2013-08-18T13:46:49.000Z</time>
      </trkpt>
      <trkpt lat="46.6514" lon="6.23835">
        <ele>1302</ele>
        <time>2013-08-18T13:46:50.000Z</time>
      </trkpt>
      <trkpt lat="46.6514" lon="6.23836">
        <ele>1302</ele>
        <time>2013-08-18T13:46:52.000Z</time>
      </trkpt>
      <trkpt lat="46.6514" lon="6.23836">
        <ele>1302</ele>
        <time>2013-08-18T13:46:55.000Z</time>
      </trkpt>
      <trkpt lat="46.6514" lon="6.23836">
        <ele>1302</ele>
        <time>2013-08-18T13:46:56.000Z</time>
      </trkpt>
      <trkpt lat="46.6514" lon="6.23837">
        <ele>1302</ele>
        <time>2013-08-18T13:46:59.000Z</time>
      </trkpt>
      <trkpt lat="46.6514" lon="6.23837">
        <ele>1302</ele>
        <time>2013-08-18T13:47:01.000Z</time>
      </trkpt>
      <trkpt lat="46.6514" lon="6.23837">
        <ele>1301</ele>
        <time>2013-08-18T13:47:05.000Z</time>
      </trkpt>
      <trkpt lat="46.65139" lon="6.23837">
        <ele>1301</ele>
        <time>2013-08-18T13:47:07.000Z</time>
      </trkpt>
      <trkpt lat="46.65139" lon="6.23838">
        <ele>1301</ele>
        <time>2013-08-18T13:47:09.000Z</time>
      </trkpt>
      <trkpt lat="46.65139" lon="6.23838">
        <ele>1301</ele>
        <time>2013-08-18T13:47:11.000Z</time>
      </trkpt>
      <trkpt lat="46.65139" lon="6.23838">
        <ele>1301</ele>
        <time>2013-08-18T13:47:14.000Z</time>
      </trkpt>
      <trkpt lat="46.6514" lon="6.23838">
        <ele>1301</ele>
        <time>2013-08-18T13:47:15.000Z</time>
      </trkpt>
      <trkpt lat="46.65139" lon="6.23838">
        <ele>1301</ele>
        <time>2013-08-18T13:47:17.000Z</time>
      </trkpt>
      <trkpt lat="46.65139" lon="6.23839">
        <ele>1301</ele>
        <time>2013-08-18T13:47:20.000Z</time>
      </trkpt>
      <trkpt lat="46.65139" lon="6.23838">
        <ele>1301</ele>
        <time>2013-08-18T13:47:22.000Z</time>
      </trkpt>
      <trkpt lat="46.65139" lon="6.23838">
        <ele>1301</ele>
        <time>2013-08-18T13:47:28.000Z</time>
      </trkpt>
      <trkpt lat="46.65139" lon="6.23838">
        <ele>1301</ele>
        <time>2013-08-18T13:47:30.000Z</time>
      </trkpt>
      <trkpt lat="46.65139" lon="6.23838">
        <ele>1301</ele>
        <time>2013-08-18T13:47:39.000Z</time>
      </trkpt>
      <trkpt lat="46.65139" lon="6.23838">
        <ele>1301</ele>
        <time>2013-08-18T13:47:41.000Z</time>
      </trkpt>
      <trkpt lat="46.65139" lon="6.23838">
        <ele>1301</ele>
        <time>2013-08-18T13:47:43.000Z</time>
      </trkpt>
      <trkpt lat="46.6514" lon="6.23837">
        <ele>1301</ele>
        <time>2013-08-18T13:47:44.000Z</time>
      </trkpt>
      <trkpt lat="46.6514" lon="6.23837">
        <ele>1302</ele>
        <time>2013-08-18T13:47:45.000Z</time>
      </trkpt>
      <trkpt lat="46.6514" lon="6.23837">
        <ele>1302</ele>
        <time>2013-08-18T13:47:49.000Z</time>
      </trkpt>
      <trkpt lat="46.6514" lon="6.23838">
        <ele>1302</ele>
        <time>2013-08-18T13:47:50.000Z</time>
      </trkpt>
      <trkpt lat="46.65141" lon="6.23838">
        <ele>1302</ele>
        <time>2013-08-18T13:47:53.000Z</time>
      </trkpt>
      <trkpt lat="46.65141" lon="6.23838">
        <ele>1302</ele>
        <time>2013-08-18T13:47:55.000Z</time>
      </trkpt>
      <trkpt lat="46.65141" lon="6.23838">
        <ele>1302</ele>
        <time>2013-08-18T13:47:57.000Z</time>
      </trkpt>
      <trkpt lat="46.65141" lon="6.23838">
        <ele>1302</ele>
        <time>2013-08-18T13:47:59.000Z</time>
      </trkpt>
      <trkpt lat="46.65142" lon="6.23839">
        <ele>1302</ele>
        <time>2013-08-18T13:48:00.000Z</time>
      </trkpt>
      <trkpt lat="46.65142" lon="6.23839">
        <ele>1302</ele>
        <time>2013-08-18T13:48:02.000Z</time>
      </trkpt>
      <trkpt lat="46.65142" lon="6.23839">
        <ele>1302</ele>
        <time>2013-08-18T13:48:03.000Z</time>
      </trkpt>
      <trkpt lat="46.65142" lon="6.2384">
        <ele>1302</ele>
        <time>2013-08-18T13:48:04.000Z</time>
      </trkpt>
      <trkpt lat="46.65142" lon="6.2384">
        <ele>1302</ele>
        <time>2013-08-18T13:48:06.000Z</time>
      </trkpt>
      <trkpt lat="46.65142" lon="6.23841">
        <ele>1302</ele>
        <time>2013-08-18T13:48:08.000Z</time>
      </trkpt>
      <trkpt lat="46.65143" lon="6.23841">
        <ele>1302</ele>
        <time>2013-08-18T13:48:09.000Z</time>
      </trkpt>
      <trkpt lat="46.65143" lon="6.23842">
        <ele>1302</ele>
        <time>2013-08-18T13:48:10.000Z</time>
      </trkpt>
      <trkpt lat="46.65143" lon="6.23843">
        <ele>1302</ele>
        <time>2013-08-18T13:48:12.000Z</time>
      </trkpt>
      <trkpt lat="46.65143" lon="6.23843">
        <ele>1302</ele>
        <time>2013-08-18T13:48:13.000Z</time>
      </trkpt>
      <trkpt lat="46.65143" lon="6.23844">
        <ele>1302</ele>
        <time>2013-08-18T13:48:16.000Z</time>
      </trkpt>
      <trkpt lat="46.65142" lon="6.23845">
        <ele>1302</ele>
        <time>2013-08-18T13:48:18.000Z</time>
      </trkpt>
      <trkpt lat="46.65142" lon="6.23845">
        <ele>1302</ele>
        <time>2013-08-18T13:48:19.000Z</time>
      </trkpt>
      <trkpt lat="46.65142" lon="6.23845">
        <ele>1302</ele>
        <time>2013-08-18T13:48:20.000Z</time>
      </trkpt>
      <trkpt lat="46.65142" lon="6.23845">
        <ele>1302</ele>
        <time>2013-08-18T13:48:26.000Z</time>
      </trkpt>
      <trkpt lat="46.65142" lon="6.23845">
        <ele>1302</ele>
        <time>2013-08-18T13:48:28.000Z</time>
      </trkpt>
      <trkpt lat="46.65141" lon="6.23844">
        <ele>1301</ele>
        <time>2013-08-18T13:48:31.000Z</time>
      </trkpt>
      <trkpt lat="46.65141" lon="6.23844">
        <ele>1301</ele>
        <time>2013-08-18T13:48:32.000Z</time>
      </trkpt>
      <trkpt lat="46.65141" lon="6.23844">
        <ele>1301</ele>
        <time>2013-08-18T13:48:34.000Z</time>
      </trkpt>
      <trkpt lat="46.65141" lon="6.23844">
        <ele>1301</ele>
        <time>2013-08-18T13:48:36.000Z</time>
      </trkpt>
      <trkpt lat="46.65141" lon="6.23844">
        <ele>1301</ele>
        <time>2013-08-18T13:48:39.000Z</time>
      </trkpt>
      <trkpt lat="46.65141" lon="6.23842">
        <ele>1302</ele>
        <time>2013-08-18T13:48:48.000Z</time>
      </trkpt>
      <trkpt lat="46.65141" lon="6.23842">
        <ele>1301</ele>
        <time>2013-08-18T13:48:51.000Z</time>
      </trkpt>
      <trkpt lat="46.65141" lon="6.23841">
        <ele>1302</ele>
        <time>2013-08-18T13:49:04.000Z</time>
      </trkpt>
      <trkpt lat="46.65141" lon="6.23841">
        <ele>1302</ele>
        <time>2013-08-18T13:49:12.000Z</time>
      </trkpt>
      <trkpt lat="46.65141" lon="6.23841">
        <ele>1302</ele>
        <time>2013-08-18T13:49:14.000Z</time>
      </trkpt>
      <trkpt lat="46.6514" lon="6.23841">
        <ele>1301</ele>
        <time>2013-08-18T13:49:17.000Z</time>
      </trkpt>
      <trkpt lat="46.6514" lon="6.23841">
        <ele>1301</ele>
        <time>2013-08-18T13:49:19.000Z</time>
      </trkpt>
      <trkpt lat="46.6514" lon="6.23841">
        <ele>1301</ele>
        <time>2013-08-18T13:49:21.000Z</time>
      </trkpt>
      <trkpt lat="46.65139" lon="6.2384">
        <ele>1301</ele>
        <time>2013-08-18T13:49:23.000Z</time>
      </trkpt>
      <trkpt lat="46.65139" lon="6.2384">
        <ele>1301</ele>
        <time>2013-08-18T13:49:25.000Z</time>
      </trkpt>
      <trkpt lat="46.65139" lon="6.2384">
        <ele>1301</ele>
        <time>2013-08-18T13:49:27.000Z</time>
      </trkpt>
      <trkpt lat="46.65138" lon="6.2384">
        <ele>1301</ele>
        <time>2013-08-18T13:49:29.000Z</time>
      </trkpt>
      <trkpt lat="46.65138" lon="6.2384">
        <ele>1301</ele>
        <time>2013-08-18T13:49:31.000Z</time>
      </trkpt>
      <trkpt lat="46.65138" lon="6.2384">
        <ele>1301</ele>
        <time>2013-08-18T13:49:35.000Z</time>
      </trkpt>
      <trkpt lat="46.65137" lon="6.23839">
        <ele>1301</ele>
        <time>2013-08-18T13:49:37.000Z</time>
      </trkpt>
      <trkpt lat="46.65138" lon="6.23842">
        <ele>1301</ele>
        <time>2013-08-18T13:49:39.000Z</time>
      </trkpt>
      <trkpt lat="46.65138" lon="6.23844">
        <ele>1301</ele>
        <time>2013-08-18T13:49:40.000Z</time>
      </trkpt>
      <trkpt lat="46.65139" lon="6.23845">
        <ele>1301</ele>
        <time>2013-08-18T13:49:41.000Z</time>
      </trkpt>
      <trkpt lat="46.6514" lon="6.23847">
        <ele>1301</ele>
        <time>2013-08-18T13:49:42.000Z</time>
      </trkpt>
      <trkpt lat="46.65141" lon="6.23849">
        <ele>1301</ele>
        <time>2013-08-18T13:49:43.000Z</time>
      </trkpt>
      <trkpt lat="46.65142" lon="6.23851">
        <ele>1301</ele>
        <time>2013-08-18T13:49:44.000Z</time>
      </trkpt>
      <trkpt lat="46.65143" lon="6.23853">
        <ele>1301</ele>
        <time>2013-08-18T13:49:45.000Z</time>
      </trkpt>
      <trkpt lat="46.65144" lon="6.23854">
        <ele>1301</ele>
        <time>2013-08-18T13:49:46.000Z</time>
      </trkpt>
      <trkpt lat="46.65145" lon="6.23856">
        <ele>1301</ele>
        <time>2013-08-18T13:49:47.000Z</time>
      </trkpt>
      <trkpt lat="46.65145" lon="6.23858">
        <ele>1301</ele>
        <time>2013-08-18T13:49:48.000Z</time>
      </trkpt>
      <trkpt lat="46.65146" lon="6.23859">
        <ele>1301</ele>
        <time>2013-08-18T13:49:49.000Z</time>
      </trkpt>
      <trkpt lat="46.65147" lon="6.23861">
        <ele>1300</ele>
        <time>2013-08-18T13:49:50.000Z</time>
      </trkpt>
      <trkpt lat="46.65148" lon="6.23863">
        <ele>1300</ele>
        <time>2013-08-18T13:49:51.000Z</time>
      </trkpt>
      <trkpt lat="46.65149" lon="6.23865">
        <ele>1300</ele>
        <time>2013-08-18T13:49:52.000Z</time>
      </trkpt>
      <trkpt lat="46.6515" lon="6.23866">
        <ele>1300</ele>
        <time>2013-08-18T13:49:53.000Z</time>
      </trkpt>
      <trkpt lat="46.65151" lon="6.23868">
        <ele>1300</ele>
        <time>2013-08-18T13:49:54.000Z</time>
      </trkpt>
      <trkpt lat="46.65152" lon="6.2387">
        <ele>1300</ele>
        <time>2013-08-18T13:49:55.000Z</time>
      </trkpt>
      <trkpt lat="46.65154" lon="6.23871">
        <ele>1300</ele>
        <time>2013-08-18T13:49:56.000Z</time>
      </trkpt>
      <trkpt lat="46.65155" lon="6.23873">
        <ele>1300</ele>
        <time>2013-08-18T13:49:57.000Z</time>
      </trkpt>
      <trkpt lat="46.65156" lon="6.23875">
        <ele>1300</ele>
        <time>2013-08-18T13:49:58.000Z</time>
      </trkpt>
      <trkpt lat="46.65157" lon="6.23876">
        <ele>1300</ele>
        <time>2013-08-18T13:49:59.000Z</time>
      </trkpt>
      <trkpt lat="46.65159" lon="6.23878">
        <ele>1300</ele>
        <time>2013-08-18T13:50:00.000Z</time>
      </trkpt>
      <trkpt lat="46.65159" lon="6.23879">
        <ele>1300</ele>
        <time>2013-08-18T13:50:01.000Z</time>
      </trkpt>
      <trkpt lat="46.65161" lon="6.23881">
        <ele>1299</ele>
        <time>2013-08-18T13:50:02.000Z</time>
      </trkpt>
      <trkpt lat="46.65162" lon="6.23883">
        <ele>1299</ele>
        <time>2013-08-18T13:50:03.000Z</time>
      </trkpt>
      <trkpt lat="46.65163" lon="6.23884">
        <ele>1299</ele>
        <time>2013-08-18T13:50:04.000Z</time>
      </trkpt>
      <trkpt lat="46.65164" lon="6.23886">
        <ele>1299</ele>
        <time>2013-08-18T13:50:05.000Z</time>
      </trkpt>
      <trkpt lat="46.65165" lon="6.23887">
        <ele>1299</ele>
        <time>2013-08-18T13:50:06.000Z</time>
      </trkpt>
      <trkpt lat="46.65166" lon="6.23889">
        <ele>1299</ele>
        <time>2013-08-18T13:50:07.000Z</time>
      </trkpt>
      <trkpt lat="46.65168" lon="6.23891">
        <ele>1313</ele>
        <time>2013-08-18T13:50:08.000Z</time>
      </trkpt>
      <trkpt lat="46.65169" lon="6.23893">
        <ele>1312</ele>
        <time>2013-08-18T13:50:09.000Z</time>
      </trkpt>
      <trkpt lat="46.6517" lon="6.23895">
        <ele>1312</ele>
        <time>2013-08-18T13:50:10.000Z</time>
      </trkpt>
      <trkpt lat="46.65171" lon="6.23897">
        <ele>1311</ele>
        <time>2013-08-18T13:50:11.000Z</time>
      </trkpt>
      <trkpt lat="46.65173" lon="6.23899">
        <ele>1311</ele>
        <time>2013-08-18T13:50:12.000Z</time>
      </trkpt>
      <trkpt lat="46.65174" lon="6.23901">
        <ele>1311</ele>
        <time>2013-08-18T13:50:13.000Z</time>
      </trkpt>
      <trkpt lat="46.65175" lon="6.23903">
        <ele>1310</ele>
        <time>2013-08-18T13:50:14.000Z</time>
      </trkpt>
      <trkpt lat="46.65176" lon="6.23905">
        <ele>1310</ele>
        <time>2013-08-18T13:50:15.000Z</time>
      </trkpt>
      <trkpt lat="46.65177" lon="6.23907">
        <ele>1309</ele>
        <time>2013-08-18T13:50:16.000Z</time>
      </trkpt>
      <trkpt lat="46.65178" lon="6.23909">
        <ele>1309</ele>
        <time>2013-08-18T13:50:17.000Z</time>
      </trkpt>
      <trkpt lat="46.65179" lon="6.23911">
        <ele>1309</ele>
        <time>2013-08-18T13:50:18.000Z</time>
      </trkpt>
      <trkpt lat="46.6518" lon="6.23913">
        <ele>1309</ele>
        <time>2013-08-18T13:50:19.000Z</time>
      </trkpt>
      <trkpt lat="46.65181" lon="6.23915">
        <ele>1309</ele>
        <time>2013-08-18T13:50:20.000Z</time>
      </trkpt>
      <trkpt lat="46.65182" lon="6.23917">
        <ele>1305</ele>
        <time>2013-08-18T13:50:21.000Z</time>
      </trkpt>
      <trkpt lat="46.65183" lon="6.23919">
        <ele>1305</ele>
        <time>2013-08-18T13:50:22.000Z</time>
      </trkpt>
      <trkpt lat="46.65184" lon="6.23921">
        <ele>1305</ele>
        <time>2013-08-18T13:50:23.000Z</time>
      </trkpt>
      <trkpt lat="46.65184" lon="6.23923">
        <ele>1305</ele>
        <time>2013-08-18T13:50:24.000Z</time>
      </trkpt>
      <trkpt lat="46.65185" lon="6.23925">
        <ele>1305</ele>
        <time>2013-08-18T13:50:25.000Z</time>
      </trkpt>
      <trkpt lat="46.65186" lon="6.23927">
        <ele>1306</ele>
        <time>2013-08-18T13:50:26.000Z</time>
      </trkpt>
      <trkpt lat="46.65187" lon="6.2393">
        <ele>1306</ele>
        <time>2013-08-18T13:50:27.000Z</time>
      </trkpt>
      <trkpt lat="46.65188" lon="6.23932">
        <ele>1306</ele>
        <time>2013-08-18T13:50:28.000Z</time>
      </trkpt>
      <trkpt lat="46.65189" lon="6.23935">
        <ele>1306</ele>
        <time>2013-08-18T13:50:29.000Z</time>
      </trkpt>
      <trkpt lat="46.6519" lon="6.23937">
        <ele>1306</ele>
        <time>2013-08-18T13:50:30.000Z</time>
      </trkpt>
      <trkpt lat="46.6519" lon="6.2394">
        <ele>1306</ele>
        <time>2013-08-18T13:50:31.000Z</time>
      </trkpt>
      <trkpt lat="46.65191" lon="6.23942">
        <ele>1306</ele>
        <time>2013-08-18T13:50:32.000Z</time>
      </trkpt>
      <trkpt lat="46.65192" lon="6.23944">
        <ele>1306</ele>
        <time>2013-08-18T13:50:33.000Z</time>
      </trkpt>
      <trkpt lat="46.65193" lon="6.23947">
        <ele>1306</ele>
        <time>2013-08-18T13:50:34.000Z</time>
      </trkpt>
      <trkpt lat="46.65194" lon="6.23949">
        <ele>1307</ele>
        <time>2013-08-18T13:50:35.000Z</time>
      </trkpt>
      <trkpt lat="46.65195" lon="6.23951">
        <ele>1307</ele>
        <time>2013-08-18T13:50:36.000Z</time>
      </trkpt>
      <trkpt lat="46.65196" lon="6.23953">
        <ele>1307</ele>
        <time>2013-08-18T13:50:37.000Z</time>
      </trkpt>
      <trkpt lat="46.65197" lon="6.23955">
        <ele>1307</ele>
        <time>2013-08-18T13:50:38.000Z</time>
      </trkpt>
      <trkpt lat="46.65198" lon="6.23958">
        <ele>1307</ele>
        <time>2013-08-18T13:50:39.000Z</time>
      </trkpt>
      <trkpt lat="46.65199" lon="6.2396">
        <ele>1307</ele>
        <time>2013-08-18T13:50:40.000Z</time>
      </trkpt>
      <trkpt lat="46.65201" lon="6.23962">
        <ele>1307</ele>
        <time>2013-08-18T13:50:41.000Z</time>
      </trkpt>
      <trkpt lat="46.65202" lon="6.23964">
        <ele>1306</ele>
        <time>2013-08-18T13:50:42.000Z</time>
      </trkpt>
      <trkpt lat="46.65203" lon="6.23967">
        <ele>1306</ele>
        <time>2013-08-18T13:50:43.000Z</time>
      </trkpt>
      <trkpt lat="46.65204" lon="6.23969">
        <ele>1306</ele>
        <time>2013-08-18T13:50:44.000Z</time>
      </trkpt>
      <trkpt lat="46.65205" lon="6.23971">
        <ele>1307</ele>
        <time>2013-08-18T13:50:45.000Z</time>
      </trkpt>
      <trkpt lat="46.65207" lon="6.23973">
        <ele>1307</ele>
        <time>2013-08-18T13:50:46.000Z</time>
      </trkpt>
      <trkpt lat="46.65208" lon="6.23975">
        <ele>1307</ele>
        <time>2013-08-18T13:50:47.000Z</time>
      </trkpt>
      <trkpt lat="46.65209" lon="6.23977">
        <ele>1307</ele>
        <time>2013-08-18T13:50:48.000Z</time>
      </trkpt>
      <trkpt lat="46.6521" lon="6.23978">
        <ele>1307</ele>
        <time>2013-08-18T13:50:49.000Z</time>
      </trkpt>
      <trkpt lat="46.65211" lon="6.2398">
        <ele>1307</ele>
        <time>2013-08-18T13:50:50.000Z</time>
      </trkpt>
      <trkpt lat="46.65212" lon="6.23982">
        <ele>1307</ele>
        <time>2013-08-18T13:50:51.000Z</time>
      </trkpt>
      <trkpt lat="46.65213" lon="6.23984">
        <ele>1307</ele>
        <time>2013-08-18T13:50:52.000Z</time>
      </trkpt>
      <trkpt lat="46.65214" lon="6.23985">
        <ele>1307</ele>
        <time>2013-08-18T13:50:53.000Z</time>
      </trkpt>
      <trkpt lat="46.65215" lon="6.23986">
        <ele>1307</ele>
        <time>2013-08-18T13:50:54.000Z</time>
      </trkpt>
      <trkpt lat="46.65216" lon="6.23987">
        <ele>1307</ele>
        <time>2013-08-18T13:50:55.000Z</time>
      </trkpt>
      <trkpt lat="46.65217" lon="6.23988">
        <ele>1307</ele>
        <time>2013-08-18T13:50:56.000Z</time>
      </trkpt>
      <trkpt lat="46.65218" lon="6.23989">
        <ele>1307</ele>
        <time>2013-08-18T13:50:57.000Z</time>
      </trkpt>
      <trkpt lat="46.65219" lon="6.23991">
        <ele>1307</ele>
        <time>2013-08-18T13:50:58.000Z</time>
      </trkpt>
      <trkpt lat="46.65221" lon="6.23992">
        <ele>1308</ele>
        <time>2013-08-18T13:50:59.000Z</time>
      </trkpt>
      <trkpt lat="46.65222" lon="6.23993">
        <ele>1308</ele>
        <time>2013-08-18T13:51:00.000Z</time>
      </trkpt>
      <trkpt lat="46.65222" lon="6.23995">
        <ele>1308</ele>
        <time>2013-08-18T13:51:01.000Z</time>
      </trkpt>
      <trkpt lat="46.65224" lon="6.23996">
        <ele>1308</ele>
        <time>2013-08-18T13:51:02.000Z</time>
      </trkpt>
      <trkpt lat="46.65224" lon="6.23997">
        <ele>1308</ele>
        <time>2013-08-18T13:51:03.000Z</time>
      </trkpt>
      <trkpt lat="46.65225" lon="6.23998">
        <ele>1308</ele>
        <time>2013-08-18T13:51:04.000Z</time>
      </trkpt>
      <trkpt lat="46.65226" lon="6.23999">
        <ele>1308</ele>
        <time>2013-08-18T13:51:05.000Z</time>
      </trkpt>
      <trkpt lat="46.65228" lon="6.24">
        <ele>1303</ele>
        <time>2013-08-18T13:51:06.000Z</time>
      </trkpt>
      <trkpt lat="46.65229" lon="6.24002">
        <ele>1303</ele>
        <time>2013-08-18T13:51:07.000Z</time>
      </trkpt>
      <trkpt lat="46.6523" lon="6.24003">
        <ele>1303</ele>
        <time>2013-08-18T13:51:08.000Z</time>
      </trkpt>
      <trkpt lat="46.65231" lon="6.24004">
        <ele>1303</ele>
        <time>2013-08-18T13:51:09.000Z</time>
      </trkpt>
      <trkpt lat="46.65232" lon="6.24006">
        <ele>1304</ele>
        <time>2013-08-18T13:51:10.000Z</time>
      </trkpt>
      <trkpt lat="46.65234" lon="6.24007">
        <ele>1304</ele>
        <time>2013-08-18T13:51:11.000Z</time>
      </trkpt>
      <trkpt lat="46.65235" lon="6.24009">
        <ele>1304</ele>
        <time>2013-08-18T13:51:12.000Z</time>
      </trkpt>
      <trkpt lat="46.65236" lon="6.24011">
        <ele>1304</ele>
        <time>2013-08-18T13:51:13.000Z</time>
      </trkpt>
      <trkpt lat="46.65238" lon="6.24013">
        <ele>1304</ele>
        <time>2013-08-18T13:51:14.000Z</time>
      </trkpt>
      <trkpt lat="46.65239" lon="6.24015">
        <ele>1304</ele>
        <time>2013-08-18T13:51:15.000Z</time>
      </trkpt>
      <trkpt lat="46.65241" lon="6.24016">
        <ele>1304</ele>
        <time>2013-08-18T13:51:16.000Z</time>
      </trkpt>
      <trkpt lat="46.65243" lon="6.24018">
        <ele>1304</ele>
        <time>2013-08-18T13:51:17.000Z</time>
      </trkpt>
      <trkpt lat="46.65245" lon="6.2402">
        <ele>1303</ele>
        <time>2013-08-18T13:51:18.000Z</time>
      </trkpt>
      <trkpt lat="46.65247" lon="6.24022">
        <ele>1303</ele>
        <time>2013-08-18T13:51:19.000Z</time>
      </trkpt>
      <trkpt lat="46.65249" lon="6.24024">
        <ele>1303</ele>
        <time>2013-08-18T13:51:20.000Z</time>
      </trkpt>
      <trkpt lat="46.65251" lon="6.24026">
        <ele>1313</ele>
        <time>2013-08-18T13:51:21.000Z</time>
      </trkpt>
      <trkpt lat="46.65252" lon="6.24028">
        <ele>1313</ele>
        <time>2013-08-18T13:51:22.000Z</time>
      </trkpt>
      <trkpt lat="46.65254" lon="6.2403">
        <ele>1313</ele>
        <time>2013-08-18T13:51:23.000Z</time>
      </trkpt>
      <trkpt lat="46.65256" lon="6.24031">
        <ele>1313</ele>
        <time>2013-08-18T13:51:24.000Z</time>
      </trkpt>
      <trkpt lat="46.65258" lon="6.24032">
        <ele>1313</ele>
        <time>2013-08-18T13:51:25.000Z</time>
      </trkpt>
      <trkpt lat="46.65259" lon="6.24033">
        <ele>1313</ele>
        <time>2013-08-18T13:51:26.000Z</time>
      </trkpt>
      <trkpt lat="46.65261" lon="6.24035">
        <ele>1313</ele>
        <time>2013-08-18T13:51:27.000Z</time>
      </trkpt>
      <trkpt lat="46.65262" lon="6.24036">
        <ele>1313</ele>
        <time>2013-08-18T13:51:28.000Z</time>
      </trkpt>
      <trkpt lat="46.65264" lon="6.24038">
        <ele>1313</ele>
        <time>2013-08-18T13:51:29.000Z</time>
      </trkpt>
      <trkpt lat="46.65265" lon="6.24039">
        <ele>1313</ele>
        <time>2013-08-18T13:51:30.000Z</time>
      </trkpt>
      <trkpt lat="46.65266" lon="6.24041">
        <ele>1313</ele>
        <time>2013-08-18T13:51:31.000Z</time>
      </trkpt>
      <trkpt lat="46.65268" lon="6.24042">
        <ele>1313</ele>
        <time>2013-08-18T13:51:32.000Z</time>
      </trkpt>
      <trkpt lat="46.65269" lon="6.24043">
        <ele>1313</ele>
        <time>2013-08-18T13:51:33.000Z</time>
      </trkpt>
      <trkpt lat="46.6527" lon="6.24045">
        <ele>1313</ele>
        <time>2013-08-18T13:51:34.000Z</time>
      </trkpt>
      <trkpt lat="46.65272" lon="6.24046">
        <ele>1314</ele>
        <time>2013-08-18T13:51:35.000Z</time>
      </trkpt>
      <trkpt lat="46.65273" lon="6.24047">
        <ele>1314</ele>
        <time>2013-08-18T13:51:36.000Z</time>
      </trkpt>
      <trkpt lat="46.65275" lon="6.24048">
        <ele>1314</ele>
        <time>2013-08-18T13:51:37.000Z</time>
      </trkpt>
      <trkpt lat="46.65277" lon="6.24049">
        <ele>1314</ele>
        <time>2013-08-18T13:51:38.000Z</time>
      </trkpt>
      <trkpt lat="46.65278" lon="6.24051">
        <ele>1314</ele>
        <time>2013-08-18T13:51:39.000Z</time>
      </trkpt>
      <trkpt lat="46.65279" lon="6.24052">
        <ele>1314</ele>
        <time>2013-08-18T13:51:40.000Z</time>
      </trkpt>
      <trkpt lat="46.6528" lon="6.24053">
        <ele>1314</ele>
        <time>2013-08-18T13:51:41.000Z</time>
      </trkpt>
      <trkpt lat="46.65281" lon="6.24054">
        <ele>1314</ele>
        <time>2013-08-18T13:51:42.000Z</time>
      </trkpt>
      <trkpt lat="46.65282" lon="6.24055">
        <ele>1314</ele>
        <time>2013-08-18T13:51:43.000Z</time>
      </trkpt>
      <trkpt lat="46.65284" lon="6.24057">
        <ele>1314</ele>
        <time>2013-08-18T13:51:44.000Z</time>
      </trkpt>
      <trkpt lat="46.65286" lon="6.24059">
        <ele>1314</ele>
        <time>2013-08-18T13:51:45.000Z</time>
      </trkpt>
      <trkpt lat="46.65288" lon="6.2406">
        <ele>1314</ele>
        <time>2013-08-18T13:51:46.000Z</time>
      </trkpt>
      <trkpt lat="46.65289" lon="6.24062">
        <ele>1314</ele>
        <time>2013-08-18T13:51:47.000Z</time>
      </trkpt>
      <trkpt lat="46.65291" lon="6.24063">
        <ele>1314</ele>
        <time>2013-08-18T13:51:48.000Z</time>
      </trkpt>
      <trkpt lat="46.65293" lon="6.24066">
        <ele>1315</ele>
        <time>2013-08-18T13:51:49.000Z</time>
      </trkpt>
      <trkpt lat="46.65294" lon="6.24068">
        <ele>1315</ele>
        <time>2013-08-18T13:51:50.000Z</time>
      </trkpt>
      <trkpt lat="46.65296" lon="6.2407">
        <ele>1315</ele>
        <time>2013-08-18T13:51:51.000Z</time>
      </trkpt>
      <trkpt lat="46.65297" lon="6.24072">
        <ele>1315</ele>
        <time>2013-08-18T13:51:52.000Z</time>
      </trkpt>
      <trkpt lat="46.65298" lon="6.24074">
        <ele>1315</ele>
        <time>2013-08-18T13:51:53.000Z</time>
      </trkpt>
      <trkpt lat="46.653" lon="6.24076">
        <ele>1315</ele>
        <time>2013-08-18T13:51:54.000Z</time>
      </trkpt>
      <trkpt lat="46.65301" lon="6.24078">
        <ele>1315</ele>
        <time>2013-08-18T13:51:55.000Z</time>
      </trkpt>
      <trkpt lat="46.65302" lon="6.24079">
        <ele>1315</ele>
        <time>2013-08-18T13:51:56.000Z</time>
      </trkpt>
      <trkpt lat="46.65303" lon="6.24081">
        <ele>1316</ele>
        <time>2013-08-18T13:51:57.000Z</time>
      </trkpt>
      <trkpt lat="46.65304" lon="6.24083">
        <ele>1316</ele>
        <time>2013-08-18T13:51:58.000Z</time>
      </trkpt>
      <trkpt lat="46.65306" lon="6.24086">
        <ele>1309</ele>
        <time>2013-08-18T13:51:59.000Z</time>
      </trkpt>
      <trkpt lat="46.65307" lon="6.24089">
        <ele>1309</ele>
        <time>2013-08-18T13:52:00.000Z</time>
      </trkpt>
      <trkpt lat="46.65309" lon="6.24092">
        <ele>1309</ele>
        <time>2013-08-18T13:52:01.000Z</time>
      </trkpt>
      <trkpt lat="46.6531" lon="6.24096">
        <ele>1309</ele>
        <time>2013-08-18T13:52:02.000Z</time>
      </trkpt>
      <trkpt lat="46.65312" lon="6.241">
        <ele>1309</ele>
        <time>2013-08-18T13:52:03.000Z</time>
      </trkpt>
      <trkpt lat="46.65314" lon="6.24103">
        <ele>1309</ele>
        <time>2013-08-18T13:52:04.000Z</time>
      </trkpt>
      <trkpt lat="46.65316" lon="6.24107">
        <ele>1309</ele>
        <time>2013-08-18T13:52:05.000Z</time>
      </trkpt>
      <trkpt lat="46.65317" lon="6.2411">
        <ele>1309</ele>
        <time>2013-08-18T13:52:06.000Z</time>
      </trkpt>
      <trkpt lat="46.65319" lon="6.24113">
        <ele>1308</ele>
        <time>2013-08-18T13:52:07.000Z</time>
      </trkpt>
      <trkpt lat="46.65321" lon="6.24116">
        <ele>1308</ele>
        <time>2013-08-18T13:52:08.000Z</time>
      </trkpt>
      <trkpt lat="46.65323" lon="6.24119">
        <ele>1308</ele>
        <time>2013-08-18T13:52:09.000Z</time>
      </trkpt>
      <trkpt lat="46.65325" lon="6.24121">
        <ele>1308</ele>
        <time>2013-08-18T13:52:10.000Z</time>
      </trkpt>
      <trkpt lat="46.65327" lon="6.24124">
        <ele>1308</ele>
        <time>2013-08-18T13:52:11.000Z</time>
      </trkpt>
      <trkpt lat="46.65329" lon="6.24127">
        <ele>1308</ele>
        <time>2013-08-18T13:52:12.000Z</time>
      </trkpt>
      <trkpt lat="46.65331" lon="6.2413">
        <ele>1307</ele>
        <time>2013-08-18T13:52:13.000Z</time>
      </trkpt>
      <trkpt lat="46.65332" lon="6.24133">
        <ele>1307</ele>
        <time>2013-08-18T13:52:14.000Z</time>
      </trkpt>
      <trkpt lat="46.65334" lon="6.24135">
        <ele>1322</ele>
        <time>2013-08-18T13:52:15.000Z</time>
      </trkpt>
      <trkpt lat="46.65335" lon="6.24137">
        <ele>1321</ele>
        <time>2013-08-18T13:52:16.000Z</time>
      </trkpt>
      <trkpt lat="46.65337" lon="6.24139">
        <ele>1321</ele>
        <time>2013-08-18T13:52:17.000Z</time>
      </trkpt>
      <trkpt lat="46.65338" lon="6.24142">
        <ele>1320</ele>
        <time>2013-08-18T13:52:18.000Z</time>
      </trkpt>
      <trkpt lat="46.6534" lon="6.24145">
        <ele>1320</ele>
        <time>2013-08-18T13:52:19.000Z</time>
      </trkpt>
      <trkpt lat="46.65342" lon="6.24148">
        <ele>1319</ele>
        <time>2013-08-18T13:52:20.000Z</time>
      </trkpt>
      <trkpt lat="46.65343" lon="6.24151">
        <ele>1319</ele>
        <time>2013-08-18T13:52:21.000Z</time>
      </trkpt>
      <trkpt lat="46.65345" lon="6.24154">
        <ele>1318</ele>
        <time>2013-08-18T13:52:22.000Z</time>
      </trkpt>
      <trkpt lat="46.65346" lon="6.24157">
        <ele>1318</ele>
        <time>2013-08-18T13:52:23.000Z</time>
      </trkpt>
      <trkpt lat="46.65348" lon="6.2416">
        <ele>1318</ele>
        <time>2013-08-18T13:52:24.000Z</time>
      </trkpt>
      <trkpt lat="46.65349" lon="6.24163">
        <ele>1318</ele>
        <time>2013-08-18T13:52:25.000Z</time>
      </trkpt>
      <trkpt lat="46.6535" lon="6.24165">
        <ele>1318</ele>
        <time>2013-08-18T13:52:26.000Z</time>
      </trkpt>
      <trkpt lat="46.65351" lon="6.24168">
        <ele>1315</ele>
        <time>2013-08-18T13:52:27.000Z</time>
      </trkpt>
      <trkpt lat="46.65353" lon="6.24171">
        <ele>1315</ele>
        <time>2013-08-18T13:52:28.000Z</time>
      </trkpt>
      <trkpt lat="46.65354" lon="6.24174">
        <ele>1315</ele>
        <time>2013-08-18T13:52:29.000Z</time>
      </trkpt>
      <trkpt lat="46.65355" lon="6.24177">
        <ele>1316</ele>
        <time>2013-08-18T13:52:30.000Z</time>
      </trkpt>
      <trkpt lat="46.65356" lon="6.2418">
        <ele>1316</ele>
        <time>2013-08-18T13:52:31.000Z</time>
      </trkpt>
      <trkpt lat="46.65358" lon="6.24183">
        <ele>1317</ele>
        <time>2013-08-18T13:52:32.000Z</time>
      </trkpt>
      <trkpt lat="46.65359" lon="6.24187">
        <ele>1317</ele>
        <time>2013-08-18T13:52:33.000Z</time>
      </trkpt>
      <trkpt lat="46.6536" lon="6.2419">
        <ele>1317</ele>
        <time>2013-08-18T13:52:34.000Z</time>
      </trkpt>
      <trkpt lat="46.65361" lon="6.24193">
        <ele>1318</ele>
        <time>2013-08-18T13:52:35.000Z</time>
      </trkpt>
      <trkpt lat="46.65362" lon="6.24196">
        <ele>1318</ele>
        <time>2013-08-18T13:52:36.000Z</time>
      </trkpt>
      <trkpt lat="46.65363" lon="6.242">
        <ele>1318</ele>
        <time>2013-08-18T13:52:37.000Z</time>
      </trkpt>
      <trkpt lat="46.65364" lon="6.24204">
        <ele>1318</ele>
        <time>2013-08-18T13:52:38.000Z</time>
      </trkpt>
      <trkpt lat="46.65366" lon="6.24207">
        <ele>1318</ele>
        <time>2013-08-18T13:52:39.000Z</time>
      </trkpt>
      <trkpt lat="46.65366" lon="6.24211">
        <ele>1318</ele>
        <time>2013-08-18T13:52:40.000Z</time>
      </trkpt>
      <trkpt lat="46.65367" lon="6.24215">
        <ele>1318</ele>
        <time>2013-08-18T13:52:41.000Z</time>
      </trkpt>
      <trkpt lat="46.65367" lon="6.24218">
        <ele>1318</ele>
        <time>2013-08-18T13:52:42.000Z</time>
      </trkpt>
      <trkpt lat="46.65367" lon="6.24222">
        <ele>1318</ele>
        <time>2013-08-18T13:52:43.000Z</time>
      </trkpt>
      <trkpt lat="46.65367" lon="6.24225">
        <ele>1318</ele>
        <time>2013-08-18T13:52:44.000Z</time>
      </trkpt>
      <trkpt lat="46.65368" lon="6.24229">
        <ele>1318</ele>
        <time>2013-08-18T13:52:45.000Z</time>
      </trkpt>
      <trkpt lat="46.65368" lon="6.24237">
        <ele>1317</ele>
        <time>2013-08-18T13:52:47.000Z</time>
      </trkpt>
      <trkpt lat="46.65368" lon="6.2424">
        <ele>1317</ele>
        <time>2013-08-18T13:52:48.000Z</time>
      </trkpt>
      <trkpt lat="46.65368" lon="6.24244">
        <ele>1317</ele>
        <time>2013-08-18T13:52:49.000Z</time>
      </trkpt>
      <trkpt lat="46.65369" lon="6.24247">
        <ele>1317</ele>
        <time>2013-08-18T13:52:50.000Z</time>
      </trkpt>
      <trkpt lat="46.65369" lon="6.24251">
        <ele>1315</ele>
        <time>2013-08-18T13:52:51.000Z</time>
      </trkpt>
      <trkpt lat="46.65369" lon="6.24255">
        <ele>1315</ele>
        <time>2013-08-18T13:52:52.000Z</time>
      </trkpt>
      <trkpt lat="46.6537" lon="6.24259">
        <ele>1315</ele>
        <time>2013-08-18T13:52:53.000Z</time>
      </trkpt>
      <trkpt lat="46.6537" lon="6.24263">
        <ele>1315</ele>
        <time>2013-08-18T13:52:54.000Z</time>
      </trkpt>
      <trkpt lat="46.6537" lon="6.24267">
        <ele>1315</ele>
        <time>2013-08-18T13:52:55.000Z</time>
      </trkpt>
      <trkpt lat="46.65371" lon="6.24275">
        <ele>1315</ele>
        <time>2013-08-18T13:52:57.000Z</time>
      </trkpt>
      <trkpt lat="46.65371" lon="6.24278">
        <ele>1315</ele>
        <time>2013-08-18T13:52:58.000Z</time>
      </trkpt>
      <trkpt lat="46.65371" lon="6.24286">
        <ele>1315</ele>
        <time>2013-08-18T13:53:00.000Z</time>
      </trkpt>
      <trkpt lat="46.65372" lon="6.2429">
        <ele>1315</ele>
        <time>2013-08-18T13:53:01.000Z</time>
      </trkpt>
      <trkpt lat="46.65372" lon="6.24294">
        <ele>1315</ele>
        <time>2013-08-18T13:53:02.000Z</time>
      </trkpt>
      <trkpt lat="46.65372" lon="6.24298">
        <ele>1315</ele>
        <time>2013-08-18T13:53:03.000Z</time>
      </trkpt>
      <trkpt lat="46.65372" lon="6.24301">
        <ele>1315</ele>
        <time>2013-08-18T13:53:04.000Z</time>
      </trkpt>
      <trkpt lat="46.65373" lon="6.24305">
        <ele>1315</ele>
        <time>2013-08-18T13:53:05.000Z</time>
      </trkpt>
      <trkpt lat="46.65373" lon="6.24313">
        <ele>1315</ele>
        <time>2013-08-18T13:53:07.000Z</time>
      </trkpt>
      <trkpt lat="46.65373" lon="6.24316">
        <ele>1315</ele>
        <time>2013-08-18T13:53:08.000Z</time>
      </trkpt>
      <trkpt lat="46.65373" lon="6.2432">
        <ele>1315</ele>
        <time>2013-08-18T13:53:09.000Z</time>
      </trkpt>
      <trkpt lat="46.65374" lon="6.24324">
        <ele>1315</ele>
        <time>2013-08-18T13:53:10.000Z</time>
      </trkpt>
      <trkpt lat="46.65374" lon="6.24328">
        <ele>1315</ele>
        <time>2013-08-18T13:53:11.000Z</time>
      </trkpt>
      <trkpt lat="46.65374" lon="6.24332">
        <ele>1315</ele>
        <time>2013-08-18T13:53:12.000Z</time>
      </trkpt>
      <trkpt lat="46.65374" lon="6.24335">
        <ele>1312</ele>
        <time>2013-08-18T13:53:13.000Z</time>
      </trkpt>
      <trkpt lat="46.65375" lon="6.24346">
        <ele>1312</ele>
        <time>2013-08-18T13:53:16.000Z</time>
      </trkpt>
      <trkpt lat="46.65375" lon="6.2435">
        <ele>1312</ele>
        <time>2013-08-18T13:53:17.000Z</time>
      </trkpt>
      <trkpt lat="46.65375" lon="6.24354">
        <ele>1312</ele>
        <time>2013-08-18T13:53:18.000Z</time>
      </trkpt>
      <trkpt lat="46.65375" lon="6.24358">
        <ele>1311</ele>
        <time>2013-08-18T13:53:19.000Z</time>
      </trkpt>
      <trkpt lat="46.65375" lon="6.24361">
        <ele>1311</ele>
        <time>2013-08-18T13:53:20.000Z</time>
      </trkpt>
      <trkpt lat="46.65375" lon="6.24364">
        <ele>1311</ele>
        <time>2013-08-18T13:53:21.000Z</time>
      </trkpt>
      <trkpt lat="46.65376" lon="6.24367">
        <ele>1311</ele>
        <time>2013-08-18T13:53:22.000Z</time>
      </trkpt>
      <trkpt lat="46.65376" lon="6.24371">
        <ele>1311</ele>
        <time>2013-08-18T13:53:23.000Z</time>
      </trkpt>
      <trkpt lat="46.65376" lon="6.24374">
        <ele>1311</ele>
        <time>2013-08-18T13:53:24.000Z</time>
      </trkpt>
      <trkpt lat="46.65376" lon="6.24378">
        <ele>1311</ele>
        <time>2013-08-18T13:53:25.000Z</time>
      </trkpt>
      <trkpt lat="46.65377" lon="6.24382">
        <ele>1311</ele>
        <time>2013-08-18T13:53:26.000Z</time>
      </trkpt>
      <trkpt lat="46.65377" lon="6.24385">
        <ele>1311</ele>
        <time>2013-08-18T13:53:27.000Z</time>
      </trkpt>
      <trkpt lat="46.65378" lon="6.24387">
        <ele>1310</ele>
        <time>2013-08-18T13:53:28.000Z</time>
      </trkpt>
      <trkpt lat="46.65378" lon="6.24389">
        <ele>1310</ele>
        <time>2013-08-18T13:53:29.000Z</time>
      </trkpt>
      <trkpt lat="46.65378" lon="6.24389">
        <ele>1310</ele>
        <time>2013-08-18T13:53:30.000Z</time>
      </trkpt>
      <trkpt lat="46.65378" lon="6.2439">
        <ele>1310</ele>
        <time>2013-08-18T13:53:31.000Z</time>
      </trkpt>
      <trkpt lat="46.65378" lon="6.2439">
        <ele>1310</ele>
        <time>2013-08-18T13:53:33.000Z</time>
      </trkpt>
      <trkpt lat="46.65379" lon="6.2439">
        <ele>1310</ele>
        <time>2013-08-18T13:53:34.000Z</time>
      </trkpt>
      <trkpt lat="46.65379" lon="6.24391">
        <ele>1310</ele>
        <time>2013-08-18T13:53:37.000Z</time>
      </trkpt>
      <trkpt lat="46.65379" lon="6.24392">
        <ele>1310</ele>
        <time>2013-08-18T13:53:38.000Z</time>
      </trkpt>
      <trkpt lat="46.65379" lon="6.24392">
        <ele>1310</ele>
        <time>2013-08-18T13:53:39.000Z</time>
      </trkpt>
      <trkpt lat="46.65379" lon="6.24392">
        <ele>1310</ele>
        <time>2013-08-18T13:53:41.000Z</time>
      </trkpt>
      <trkpt lat="46.65379" lon="6.24393">
        <ele>1310</ele>
        <time>2013-08-18T13:53:43.000Z</time>
      </trkpt>
      <trkpt lat="46.6538" lon="6.24393">
        <ele>1310</ele>
        <time>2013-08-18T13:53:44.000Z</time>
      </trkpt>
      <trkpt lat="46.6538" lon="6.24394">
        <ele>1310</ele>
        <time>2013-08-18T13:53:48.000Z</time>
      </trkpt>
      <trkpt lat="46.6538" lon="6.24394">
        <ele>1310</ele>
        <time>2013-08-18T13:53:57.000Z</time>
      </trkpt>
      <trkpt lat="46.65379" lon="6.24395">
        <ele>1310</ele>
        <time>2013-08-18T13:54:04.000Z</time>
      </trkpt>
      <trkpt lat="46.65379" lon="6.24394">
        <ele>1310</ele>
        <time>2013-08-18T13:54:08.000Z</time>
      </trkpt>
      <trkpt lat="46.65379" lon="6.24394">
        <ele>1310</ele>
        <time>2013-08-18T13:54:11.000Z</time>
      </trkpt>
      <trkpt lat="46.65378" lon="6.24394">
        <ele>1310</ele>
        <time>2013-08-18T13:54:12.000Z</time>
      </trkpt>
      <trkpt lat="46.65378" lon="6.24394">
        <ele>1310</ele>
        <time>2013-08-18T13:54:14.000Z</time>
      </trkpt>
      <trkpt lat="46.65378" lon="6.24394">
        <ele>1310</ele>
        <time>2013-08-18T13:54:19.000Z</time>
      </trkpt>
      <trkpt lat="46.65377" lon="6.24394">
        <ele>1310</ele>
        <time>2013-08-18T13:54:23.000Z</time>
      </trkpt>
      <trkpt lat="46.65377" lon="6.24393">
        <ele>1310</ele>
        <time>2013-08-18T13:54:27.000Z</time>
      </trkpt>
      <trkpt lat="46.65377" lon="6.24393">
        <ele>1310</ele>
        <time>2013-08-18T13:54:29.000Z</time>
      </trkpt>
      <trkpt lat="46.65377" lon="6.24393">
        <ele>1310</ele>
        <time>2013-08-18T13:54:37.000Z</time>
      </trkpt>
      <trkpt lat="46.65377" lon="6.24393">
        <ele>1310</ele>
        <time>2013-08-18T13:54:45.000Z</time>
      </trkpt>
      <trkpt lat="46.65377" lon="6.24394">
        <ele>1310</ele>
        <time>2013-08-18T13:54:51.000Z</time>
      </trkpt>
      <trkpt lat="46.65377" lon="6.24394">
        <ele>1310</ele>
        <time>2013-08-18T13:54:52.000Z</time>
      </trkpt>
      <trkpt lat="46.65377" lon="6.24396">
        <ele>1310</ele>
        <time>2013-08-18T13:54:55.000Z</time>
      </trkpt>
      <trkpt lat="46.65377" lon="6.24398">
        <ele>1310</ele>
        <time>2013-08-18T13:54:56.000Z</time>
      </trkpt>
      <trkpt lat="46.65377" lon="6.244">
        <ele>1310</ele>
        <time>2013-08-18T13:54:57.000Z</time>
      </trkpt>
      <trkpt lat="46.65378" lon="6.24403">
        <ele>1310</ele>
        <time>2013-08-18T13:54:58.000Z</time>
      </trkpt>
      <trkpt lat="46.65379" lon="6.24407">
        <ele>1310</ele>
        <time>2013-08-18T13:54:59.000Z</time>
      </trkpt>
      <trkpt lat="46.6538" lon="6.24411">
        <ele>1310</ele>
        <time>2013-08-18T13:55:00.000Z</time>
      </trkpt>
      <trkpt lat="46.65381" lon="6.24416">
        <ele>1310</ele>
        <time>2013-08-18T13:55:01.000Z</time>
      </trkpt>
      <trkpt lat="46.65382" lon="6.2442">
        <ele>1305</ele>
        <time>2013-08-18T13:55:02.000Z</time>
      </trkpt>
      <trkpt lat="46.65383" lon="6.24425">
        <ele>1305</ele>
        <time>2013-08-18T13:55:03.000Z</time>
      </trkpt>
      <trkpt lat="46.65384" lon="6.2443">
        <ele>1305</ele>
        <time>2013-08-18T13:55:04.000Z</time>
      </trkpt>
      <trkpt lat="46.65385" lon="6.24435">
        <ele>1305</ele>
        <time>2013-08-18T13:55:05.000Z</time>
      </trkpt>
      <trkpt lat="46.65386" lon="6.2444">
        <ele>1305</ele>
        <time>2013-08-18T13:55:06.000Z</time>
      </trkpt>
      <trkpt lat="46.65387" lon="6.24445">
        <ele>1304</ele>
        <time>2013-08-18T13:55:07.000Z</time>
      </trkpt>
      <trkpt lat="46.65388" lon="6.24451">
        <ele>1304</ele>
        <time>2013-08-18T13:55:08.000Z</time>
      </trkpt>
      <trkpt lat="46.65389" lon="6.24456">
        <ele>1304</ele>
        <time>2013-08-18T13:55:09.000Z</time>
      </trkpt>
      <trkpt lat="46.6539" lon="6.24462">
        <ele>1304</ele>
        <time>2013-08-18T13:55:10.000Z</time>
      </trkpt>
      <trkpt lat="46.65391" lon="6.24467">
        <ele>1303</ele>
        <time>2013-08-18T13:55:11.000Z</time>
      </trkpt>
      <trkpt lat="46.65392" lon="6.24474">
        <ele>1303</ele>
        <time>2013-08-18T13:55:12.000Z</time>
      </trkpt>
      <trkpt lat="46.65393" lon="6.2448">
        <ele>1303</ele>
        <time>2013-08-18T13:55:13.000Z</time>
      </trkpt>
      <trkpt lat="46.65395" lon="6.24486">
        <ele>1303</ele>
        <time>2013-08-18T13:55:14.000Z</time>
      </trkpt>
      <trkpt lat="46.65396" lon="6.24492">
        <ele>1303</ele>
        <time>2013-08-18T13:55:15.000Z</time>
      </trkpt>
      <trkpt lat="46.65397" lon="6.24498">
        <ele>1303</ele>
        <time>2013-08-18T13:55:16.000Z</time>
      </trkpt>
      <trkpt lat="46.65399" lon="6.24503">
        <ele>1299</ele>
        <time>2013-08-18T13:55:17.000Z</time>
      </trkpt>
      <trkpt lat="46.654" lon="6.24509">
        <ele>1298</ele>
        <time>2013-08-18T13:55:18.000Z</time>
      </trkpt>
      <trkpt lat="46.65402" lon="6.24515">
        <ele>1298</ele>
        <time>2013-08-18T13:55:19.000Z</time>
      </trkpt>
      <trkpt lat="46.65404" lon="6.2452">
        <ele>1297</ele>
        <time>2013-08-18T13:55:20.000Z</time>
      </trkpt>
      <trkpt lat="46.65406" lon="6.24526">
        <ele>1297</ele>
        <time>2013-08-18T13:55:21.000Z</time>
      </trkpt>
      <trkpt lat="46.65408" lon="6.24531">
        <ele>1296</ele>
        <time>2013-08-18T13:55:22.000Z</time>
      </trkpt>
      <trkpt lat="46.6541" lon="6.24536">
        <ele>1296</ele>
        <time>2013-08-18T13:55:23.000Z</time>
      </trkpt>
      <trkpt lat="46.65412" lon="6.24541">
        <ele>1296</ele>
        <time>2013-08-18T13:55:24.000Z</time>
      </trkpt>
      <trkpt lat="46.65415" lon="6.24546">
        <ele>1295</ele>
        <time>2013-08-18T13:55:25.000Z</time>
      </trkpt>
      <trkpt lat="46.65417" lon="6.24551">
        <ele>1305</ele>
        <time>2013-08-18T13:55:26.000Z</time>
      </trkpt>
      <trkpt lat="46.65419" lon="6.24556">
        <ele>1305</ele>
        <time>2013-08-18T13:55:27.000Z</time>
      </trkpt>
      <trkpt lat="46.65421" lon="6.2456">
        <ele>1304</ele>
        <time>2013-08-18T13:55:28.000Z</time>
      </trkpt>
      <trkpt lat="46.65423" lon="6.24564">
        <ele>1304</ele>
        <time>2013-08-18T13:55:29.000Z</time>
      </trkpt>
      <trkpt lat="46.65425" lon="6.24568">
        <ele>1303</ele>
        <time>2013-08-18T13:55:30.000Z</time>
      </trkpt>
      <trkpt lat="46.65426" lon="6.24571">
        <ele>1303</ele>
        <time>2013-08-18T13:55:31.000Z</time>
      </trkpt>
      <trkpt lat="46.65428" lon="6.24574">
        <ele>1302</ele>
        <time>2013-08-18T13:55:32.000Z</time>
      </trkpt>
      <trkpt lat="46.65429" lon="6.24577">
        <ele>1302</ele>
        <time>2013-08-18T13:55:33.000Z</time>
      </trkpt>
      <trkpt lat="46.65431" lon="6.24581">
        <ele>1302</ele>
        <time>2013-08-18T13:55:34.000Z</time>
      </trkpt>
      <trkpt lat="46.65433" lon="6.24584">
        <ele>1298</ele>
        <time>2013-08-18T13:55:35.000Z</time>
      </trkpt>
      <trkpt lat="46.65434" lon="6.24587">
        <ele>1298</ele>
        <time>2013-08-18T13:55:36.000Z</time>
      </trkpt>
      <trkpt lat="46.65436" lon="6.2459">
        <ele>1298</ele>
        <time>2013-08-18T13:55:37.000Z</time>
      </trkpt>
      <trkpt lat="46.65436" lon="6.2459">
        <ele>1298</ele>
        <time>2013-08-18T13:55:38.000Z</time>
      </trkpt>
      <trkpt lat="46.65437" lon="6.24591">
        <ele>1298</ele>
        <time>2013-08-18T13:55:40.000Z</time>
      </trkpt>
      <trkpt lat="46.65437" lon="6.24592">
        <ele>1298</ele>
        <time>2013-08-18T13:55:41.000Z</time>
      </trkpt>
      <trkpt lat="46.65437" lon="6.24593">
        <ele>1298</ele>
        <time>2013-08-18T13:55:42.000Z</time>
      </trkpt>
      <trkpt lat="46.65437" lon="6.24595">
        <ele>1298</ele>
        <time>2013-08-18T13:55:43.000Z</time>
      </trkpt>
      <trkpt lat="46.65437" lon="6.24595">
        <ele>1298</ele>
        <time>2013-08-18T13:55:44.000Z</time>
      </trkpt>
      <trkpt lat="46.65438" lon="6.24596">
        <ele>1298</ele>
        <time>2013-08-18T13:55:47.000Z</time>
      </trkpt>
      <trkpt lat="46.65438" lon="6.24596">
        <ele>1298</ele>
        <time>2013-08-18T13:55:51.000Z</time>
      </trkpt>
      <trkpt lat="46.65438" lon="6.24596">
        <ele>1298</ele>
        <time>2013-08-18T13:55:56.000Z</time>
      </trkpt>
      <trkpt lat="46.65438" lon="6.24596">
        <ele>1298</ele>
        <time>2013-08-18T13:55:59.000Z</time>
      </trkpt>
      <trkpt lat="46.65438" lon="6.24596">
        <ele>1298</ele>
        <time>2013-08-18T13:56:08.000Z</time>
      </trkpt>
      <trkpt lat="46.65438" lon="6.24596">
        <ele>1298</ele>
        <time>2013-08-18T13:56:10.000Z</time>
      </trkpt>
      <trkpt lat="46.65438" lon="6.24596">
        <ele>1298</ele>
        <time>2013-08-18T13:56:15.000Z</time>
      </trkpt>
      <trkpt lat="46.65438" lon="6.24595">
        <ele>1298</ele>
        <time>2013-08-18T13:56:22.000Z</time>
      </trkpt>
      <trkpt lat="46.65438" lon="6.24595">
        <ele>1298</ele>
        <time>2013-08-18T13:56:26.000Z</time>
      </trkpt>
      <trkpt lat="46.65437" lon="6.24595">
        <ele>1298</ele>
        <time>2013-08-18T13:56:30.000Z</time>
      </trkpt>
      <trkpt lat="46.65437" lon="6.24595">
        <ele>1298</ele>
        <time>2013-08-18T13:56:33.000Z</time>
      </trkpt>
      <trkpt lat="46.65438" lon="6.24595">
        <ele>1298</ele>
        <time>2013-08-18T13:56:45.000Z</time>
      </trkpt>
      <trkpt lat="46.65438" lon="6.24595">
        <ele>1298</ele>
        <time>2013-08-18T13:56:49.000Z</time>
      </trkpt>
      <trkpt lat="46.65438" lon="6.24595">
        <ele>1298</ele>
        <time>2013-08-18T13:56:53.000Z</time>
      </trkpt>
      <trkpt lat="46.65438" lon="6.24595">
        <ele>1298</ele>
        <time>2013-08-18T13:56:57.000Z</time>
      </trkpt>
      <trkpt lat="46.65438" lon="6.24595">
        <ele>1298</ele>
        <time>2013-08-18T13:57:01.000Z</time>
      </trkpt>
      <trkpt lat="46.65438" lon="6.24596">
        <ele>1298</ele>
        <time>2013-08-18T13:57:05.000Z</time>
      </trkpt>
      <trkpt lat="46.65439" lon="6.24596">
        <ele>1298</ele>
        <time>2013-08-18T13:57:12.000Z</time>
      </trkpt>
      <trkpt lat="46.65439" lon="6.24596">
        <ele>1298</ele>
        <time>2013-08-18T13:57:21.000Z</time>
      </trkpt>
      <trkpt lat="46.65439" lon="6.24597">
        <ele>1298</ele>
        <time>2013-08-18T13:57:56.000Z</time>
      </trkpt>
      <trkpt lat="46.65439" lon="6.24597">
        <ele>1298</ele>
        <time>2013-08-18T13:58:04.000Z</time>
      </trkpt>
      <trkpt lat="46.65439" lon="6.24597">
        <ele>1298</ele>
        <time>2013-08-18T13:58:12.000Z</time>
      </trkpt>
      <trkpt lat="46.6544" lon="6.24598">
        <ele>1298</ele>
        <time>2013-08-18T13:58:13.000Z</time>
      </trkpt>
      <trkpt lat="46.6544" lon="6.24598">
        <ele>1298</ele>
        <time>2013-08-18T13:58:14.000Z</time>
      </trkpt>
      <trkpt lat="46.65441" lon="6.24599">
        <ele>1298</ele>
        <time>2013-08-18T13:58:15.000Z</time>
      </trkpt>
      <trkpt lat="46.65441" lon="6.246">
        <ele>1298</ele>
        <time>2013-08-18T13:58:16.000Z</time>
      </trkpt>
      <trkpt lat="46.65442" lon="6.246">
        <ele>1298</ele>
        <time>2013-08-18T13:58:17.000Z</time>
      </trkpt>
      <trkpt lat="46.65442" lon="6.246">
        <ele>1298</ele>
        <time>2013-08-18T13:58:24.000Z</time>
      </trkpt>
      <trkpt lat="46.65442" lon="6.246">
        <ele>1298</ele>
        <time>2013-08-18T13:58:26.000Z</time>
      </trkpt>
      <trkpt lat="46.65442" lon="6.246">
        <ele>1298</ele>
        <time>2013-08-18T13:58:30.000Z</time>
      </trkpt>
      <trkpt lat="46.65442" lon="6.246">
        <ele>1298</ele>
        <time>2013-08-18T13:58:31.000Z</time>
      </trkpt>
      <trkpt lat="46.65443" lon="6.24601">
        <ele>1298</ele>
        <time>2013-08-18T13:58:32.000Z</time>
      </trkpt>
      <trkpt lat="46.65443" lon="6.24603">
        <ele>1298</ele>
        <time>2013-08-18T13:58:33.000Z</time>
      </trkpt>
      <trkpt lat="46.65444" lon="6.24605">
        <ele>1298</ele>
        <time>2013-08-18T13:58:34.000Z</time>
      </trkpt>
      <trkpt lat="46.65445" lon="6.24607">
        <ele>1298</ele>
        <time>2013-08-18T13:58:35.000Z</time>
      </trkpt>
      <trkpt lat="46.65446" lon="6.24609">
        <ele>1298</ele>
        <time>2013-08-18T13:58:36.000Z</time>
      </trkpt>
      <trkpt lat="46.65447" lon="6.24612">
        <ele>1298</ele>
        <time>2013-08-18T13:58:37.000Z</time>
      </trkpt>
      <trkpt lat="46.65448" lon="6.24613">
        <ele>1298</ele>
        <time>2013-08-18T13:58:38.000Z</time>
      </trkpt>
      <trkpt lat="46.6545" lon="6.24615">
        <ele>1298</ele>
        <time>2013-08-18T13:58:39.000Z</time>
      </trkpt>
      <trkpt lat="46.6545" lon="6.24617">
        <ele>1298</ele>
        <time>2013-08-18T13:58:40.000Z</time>
      </trkpt>
      <trkpt lat="46.65451" lon="6.2462">
        <ele>1298</ele>
        <time>2013-08-18T13:58:41.000Z</time>
      </trkpt>
      <trkpt lat="46.65453" lon="6.24623">
        <ele>1298</ele>
        <time>2013-08-18T13:58:42.000Z</time>
      </trkpt>
      <trkpt lat="46.65454" lon="6.24625">
        <ele>1298</ele>
        <time>2013-08-18T13:58:43.000Z</time>
      </trkpt>
      <trkpt lat="46.65455" lon="6.24628">
        <ele>1298</ele>
        <time>2013-08-18T13:58:44.000Z</time>
      </trkpt>
      <trkpt lat="46.65456" lon="6.24631">
        <ele>1298</ele>
        <time>2013-08-18T13:58:45.000Z</time>
      </trkpt>
      <trkpt lat="46.65457" lon="6.24633">
        <ele>1298</ele>
        <time>2013-08-18T13:58:46.000Z</time>
      </trkpt>
      <trkpt lat="46.65458" lon="6.24636">
        <ele>1298</ele>
        <time>2013-08-18T13:58:47.000Z</time>
      </trkpt>
      <trkpt lat="46.65459" lon="6.24638">
        <ele>1298</ele>
        <time>2013-08-18T13:58:48.000Z</time>
      </trkpt>
      <trkpt lat="46.65461" lon="6.24641">
        <ele>1298</ele>
        <time>2013-08-18T13:58:49.000Z</time>
      </trkpt>
      <trkpt lat="46.65463" lon="6.24645">
        <ele>1298</ele>
        <time>2013-08-18T13:58:50.000Z</time>
      </trkpt>
      <trkpt lat="46.65465" lon="6.24649">
        <ele>1298</ele>
        <time>2013-08-18T13:58:51.000Z</time>
      </trkpt>
      <trkpt lat="46.65467" lon="6.24653">
        <ele>1298</ele>
        <time>2013-08-18T13:58:52.000Z</time>
      </trkpt>
      <trkpt lat="46.65469" lon="6.24658">
        <ele>1298</ele>
        <time>2013-08-18T13:58:53.000Z</time>
      </trkpt>
      <trkpt lat="46.65471" lon="6.24664">
        <ele>1299</ele>
        <time>2013-08-18T13:58:54.000Z</time>
      </trkpt>
      <trkpt lat="46.65473" lon="6.24669">
        <ele>1294</ele>
        <time>2013-08-18T13:58:55.000Z</time>
      </trkpt>
      <trkpt lat="46.65475" lon="6.24674">
        <ele>1294</ele>
        <time>2013-08-18T13:58:56.000Z</time>
      </trkpt>
      <trkpt lat="46.65476" lon="6.24679">
        <ele>1293</ele>
        <time>2013-08-18T13:58:57.000Z</time>
      </trkpt>
      <trkpt lat="46.65477" lon="6.24684">
        <ele>1293</ele>
        <time>2013-08-18T13:58:58.000Z</time>
      </trkpt>
      <trkpt lat="46.65478" lon="6.24689">
        <ele>1293</ele>
        <time>2013-08-18T13:58:59.000Z</time>
      </trkpt>
      <trkpt lat="46.6548" lon="6.24694">
        <ele>1293</ele>
        <time>2013-08-18T13:59:00.000Z</time>
      </trkpt>
      <trkpt lat="46.65481" lon="6.24698">
        <ele>1292</ele>
        <time>2013-08-18T13:59:01.000Z</time>
      </trkpt>
      <trkpt lat="46.65482" lon="6.24702">
        <ele>1292</ele>
        <time>2013-08-18T13:59:02.000Z</time>
      </trkpt>
      <trkpt lat="46.65484" lon="6.24706">
        <ele>1292</ele>
        <time>2013-08-18T13:59:03.000Z</time>
      </trkpt>
      <trkpt lat="46.65485" lon="6.24711">
        <ele>1292</ele>
        <time>2013-08-18T13:59:04.000Z</time>
      </trkpt>
      <trkpt lat="46.65487" lon="6.24715">
        <ele>1292</ele>
        <time>2013-08-18T13:59:05.000Z</time>
      </trkpt>
      <trkpt lat="46.65489" lon="6.24721">
        <ele>1291</ele>
        <time>2013-08-18T13:59:06.000Z</time>
      </trkpt>
      <trkpt lat="46.65492" lon="6.24725">
        <ele>1292</ele>
        <time>2013-08-18T13:59:07.000Z</time>
      </trkpt>
      <trkpt lat="46.65494" lon="6.2473">
        <ele>1292</ele>
        <time>2013-08-18T13:59:08.000Z</time>
      </trkpt>
      <trkpt lat="46.65496" lon="6.24734">
        <ele>1292</ele>
        <time>2013-08-18T13:59:09.000Z</time>
      </trkpt>
      <trkpt lat="46.65498" lon="6.24739">
        <ele>1292</ele>
        <time>2013-08-18T13:59:10.000Z</time>
      </trkpt>
      <trkpt lat="46.65501" lon="6.24745">
        <ele>1296</ele>
        <time>2013-08-18T13:59:11.000Z</time>
      </trkpt>
      <trkpt lat="46.65503" lon="6.24752">
        <ele>1294</ele>
        <time>2013-08-18T13:59:12.000Z</time>
      </trkpt>
      <trkpt lat="46.65506" lon="6.24758">
        <ele>1295</ele>
        <time>2013-08-18T13:59:13.000Z</time>
      </trkpt>
      <trkpt lat="46.65508" lon="6.24765">
        <ele>1295</ele>
        <time>2013-08-18T13:59:14.000Z</time>
      </trkpt>
      <trkpt lat="46.65511" lon="6.24772">
        <ele>1295</ele>
        <time>2013-08-18T13:59:15.000Z</time>
      </trkpt>
      <trkpt lat="46.65513" lon="6.24779">
        <ele>1294</ele>
        <time>2013-08-18T13:59:16.000Z</time>
      </trkpt>
      <trkpt lat="46.65516" lon="6.24786">
        <ele>1294</ele>
        <time>2013-08-18T13:59:17.000Z</time>
      </trkpt>
      <trkpt lat="46.65517" lon="6.24794">
        <ele>1293</ele>
        <time>2013-08-18T13:59:18.000Z</time>
      </trkpt>
      <trkpt lat="46.6552" lon="6.24801">
        <ele>1293</ele>
        <time>2013-08-18T13:59:19.000Z</time>
      </trkpt>
      <trkpt lat="46.65522" lon="6.24808">
        <ele>1292</ele>
        <time>2013-08-18T13:59:20.000Z</time>
      </trkpt>
      <trkpt lat="46.65525" lon="6.24815">
        <ele>1292</ele>
        <time>2013-08-18T13:59:21.000Z</time>
      </trkpt>
      <trkpt lat="46.65529" lon="6.24822">
        <ele>1292</ele>
        <time>2013-08-18T13:59:22.000Z</time>
      </trkpt>
      <trkpt lat="46.65533" lon="6.24828">
        <ele>1292</ele>
        <time>2013-08-18T13:59:23.000Z</time>
      </trkpt>
      <trkpt lat="46.65538" lon="6.24833">
        <ele>1292</ele>
        <time>2013-08-18T13:59:24.000Z</time>
      </trkpt>
      <trkpt lat="46.65542" lon="6.24838">
        <ele>1284</ele>
        <time>2013-08-18T13:59:25.000Z</time>
      </trkpt>
      <trkpt lat="46.65546" lon="6.24841">
        <ele>1284</ele>
        <time>2013-08-18T13:59:26.000Z</time>
      </trkpt>
      <trkpt lat="46.6555" lon="6.24843">
        <ele>1284</ele>
        <time>2013-08-18T13:59:27.000Z</time>
      </trkpt>
      <trkpt lat="46.65554" lon="6.24845">
        <ele>1285</ele>
        <time>2013-08-18T13:59:28.000Z</time>
      </trkpt>
      <trkpt lat="46.65559" lon="6.24848">
        <ele>1285</ele>
        <time>2013-08-18T13:59:29.000Z</time>
      </trkpt>
      <trkpt lat="46.65564" lon="6.2485">
        <ele>1286</ele>
        <time>2013-08-18T13:59:30.000Z</time>
      </trkpt>
      <trkpt lat="46.65569" lon="6.24854">
        <ele>1286</ele>
        <time>2013-08-18T13:59:31.000Z</time>
      </trkpt>
      <trkpt lat="46.65574" lon="6.2486">
        <ele>1285</ele>
        <time>2013-08-18T13:59:32.000Z</time>
      </trkpt>
      <trkpt lat="46.65578" lon="6.24867">
        <ele>1284</ele>
        <time>2013-08-18T13:59:33.000Z</time>
      </trkpt>
      <trkpt lat="46.65581" lon="6.24874">
        <ele>1283</ele>
        <time>2013-08-18T13:59:34.000Z</time>
      </trkpt>
      <trkpt lat="46.65583" lon="6.24879">
        <ele>1282</ele>
        <time>2013-08-18T13:59:35.000Z</time>
      </trkpt>
      <trkpt lat="46.65584" lon="6.24883">
        <ele>1287</ele>
        <time>2013-08-18T13:59:36.000Z</time>
      </trkpt>
      <trkpt lat="46.65586" lon="6.24887">
        <ele>1287</ele>
        <time>2013-08-18T13:59:37.000Z</time>
      </trkpt>
      <trkpt lat="46.65587" lon="6.24892">
        <ele>1286</ele>
        <time>2013-08-18T13:59:38.000Z</time>
      </trkpt>
      <trkpt lat="46.65589" lon="6.24897">
        <ele>1285</ele>
        <time>2013-08-18T13:59:39.000Z</time>
      </trkpt>
      <trkpt lat="46.65592" lon="6.24902">
        <ele>1284</ele>
        <time>2013-08-18T13:59:40.000Z</time>
      </trkpt>
      <trkpt lat="46.65596" lon="6.24907">
        <ele>1283</ele>
        <time>2013-08-18T13:59:41.000Z</time>
      </trkpt>
      <trkpt lat="46.656" lon="6.24912">
        <ele>1284</ele>
        <time>2013-08-18T13:59:42.000Z</time>
      </trkpt>
      <trkpt lat="46.65605" lon="6.24917">
        <ele>1278</ele>
        <time>2013-08-18T13:59:43.000Z</time>
      </trkpt>
      <trkpt lat="46.6561" lon="6.24922">
        <ele>1278</ele>
        <time>2013-08-18T13:59:44.000Z</time>
      </trkpt>
      <trkpt lat="46.65615" lon="6.24927">
        <ele>1278</ele>
        <time>2013-08-18T13:59:45.000Z</time>
      </trkpt>
      <trkpt lat="46.6562" lon="6.24932">
        <ele>1279</ele>
        <time>2013-08-18T13:59:46.000Z</time>
      </trkpt>
      <trkpt lat="46.65624" lon="6.24938">
        <ele>1279</ele>
        <time>2013-08-18T13:59:47.000Z</time>
      </trkpt>
      <trkpt lat="46.65628" lon="6.24944">
        <ele>1279</ele>
        <time>2013-08-18T13:59:48.000Z</time>
      </trkpt>
      <trkpt lat="46.65632" lon="6.2495">
        <ele>1279</ele>
        <time>2013-08-18T13:59:49.000Z</time>
      </trkpt>
      <trkpt lat="46.65637" lon="6.24957">
        <ele>1279</ele>
        <time>2013-08-18T13:59:50.000Z</time>
      </trkpt>
      <trkpt lat="46.65641" lon="6.24964">
        <ele>1278</ele>
        <time>2013-08-18T13:59:51.000Z</time>
      </trkpt>
      <trkpt lat="46.65644" lon="6.24971">
        <ele>1278</ele>
        <time>2013-08-18T13:59:52.000Z</time>
      </trkpt>
      <trkpt lat="46.65648" lon="6.24978">
        <ele>1278</ele>
        <time>2013-08-18T13:59:53.000Z</time>
      </trkpt>
      <trkpt lat="46.65651" lon="6.24985">
        <ele>1278</ele>
        <time>2013-08-18T13:59:54.000Z</time>
      </trkpt>
      <trkpt lat="46.65654" lon="6.24993">
        <ele>1278</ele>
        <time>2013-08-18T13:59:55.000Z</time>
      </trkpt>
      <trkpt lat="46.65657" lon="6.25001">
        <ele>1276</ele>
        <time>2013-08-18T13:59:56.000Z</time>
      </trkpt>
      <trkpt lat="46.6566" lon="6.2501">
        <ele>1275</ele>
        <time>2013-08-18T13:59:57.000Z</time>
      </trkpt>
      <trkpt lat="46.65664" lon="6.25019">
        <ele>1274</ele>
        <time>2013-08-18T13:59:58.000Z</time>
      </trkpt>
      <trkpt lat="46.65667" lon="6.25027">
        <ele>1279</ele>
        <time>2013-08-18T13:59:59.000Z</time>
      </trkpt>
      <trkpt lat="46.6567" lon="6.25035">
        <ele>1279</ele>
        <time>2013-08-18T14:00:00.000Z</time>
      </trkpt>
      <trkpt lat="46.65673" lon="6.25044">
        <ele>1278</ele>
        <time>2013-08-18T14:00:01.000Z</time>
      </trkpt>
      <trkpt lat="46.65675" lon="6.25054">
        <ele>1277</ele>
        <time>2013-08-18T14:00:02.000Z</time>
      </trkpt>
      <trkpt lat="46.65677" lon="6.25065">
        <ele>1276</ele>
        <time>2013-08-18T14:00:03.000Z</time>
      </trkpt>
      <trkpt lat="46.65678" lon="6.25075">
        <ele>1275</ele>
        <time>2013-08-18T14:00:04.000Z</time>
      </trkpt>
      <trkpt lat="46.65679" lon="6.25084">
        <ele>1272</ele>
        <time>2013-08-18T14:00:05.000Z</time>
      </trkpt>
      <trkpt lat="46.6568" lon="6.25093">
        <ele>1271</ele>
        <time>2013-08-18T14:00:06.000Z</time>
      </trkpt>
      <trkpt lat="46.6568" lon="6.25117">
        <ele>1270</ele>
        <time>2013-08-18T14:00:09.000Z</time>
      </trkpt>
      <trkpt lat="46.6568" lon="6.25126">
        <ele>1269</ele>
        <time>2013-08-18T14:00:10.000Z</time>
      </trkpt>
      <trkpt lat="46.65681" lon="6.25134">
        <ele>1268</ele>
        <time>2013-08-18T14:00:11.000Z</time>
      </trkpt>
      <trkpt lat="46.65682" lon="6.25143">
        <ele>1267</ele>
        <time>2013-08-18T14:00:12.000Z</time>
      </trkpt>
      <trkpt lat="46.65682" lon="6.25152">
        <ele>1266</ele>
        <time>2013-08-18T14:00:13.000Z</time>
      </trkpt>
      <trkpt lat="46.65683" lon="6.25162">
        <ele>1265</ele>
        <time>2013-08-18T14:00:14.000Z</time>
      </trkpt>
      <trkpt lat="46.65684" lon="6.25171">
        <ele>1261</ele>
        <time>2013-08-18T14:00:15.000Z</time>
      </trkpt>
      <trkpt lat="46.65686" lon="6.2518">
        <ele>1262</ele>
        <time>2013-08-18T14:00:16.000Z</time>
      </trkpt>
      <trkpt lat="46.65687" lon="6.25189">
        <ele>1262</ele>
        <time>2013-08-18T14:00:17.000Z</time>
      </trkpt>
      <trkpt lat="46.65688" lon="6.25197">
        <ele>1262</ele>
        <time>2013-08-18T14:00:18.000Z</time>
      </trkpt>
      <trkpt lat="46.65688" lon="6.25205">
        <ele>1262</ele>
        <time>2013-08-18T14:00:19.000Z</time>
      </trkpt>
      <trkpt lat="46.6569" lon="6.25212">
        <ele>1262</ele>
        <time>2013-08-18T14:00:20.000Z</time>
      </trkpt>
      <trkpt lat="46.65691" lon="6.25218">
        <ele>1261</ele>
        <time>2013-08-18T14:00:21.000Z</time>
      </trkpt>
      <trkpt lat="46.65692" lon="6.25224">
        <ele>1261</ele>
        <time>2013-08-18T14:00:22.000Z</time>
      </trkpt>
      <trkpt lat="46.65693" lon="6.2523">
        <ele>1261</ele>
        <time>2013-08-18T14:00:23.000Z</time>
      </trkpt>
      <trkpt lat="46.65694" lon="6.25237">
        <ele>1261</ele>
        <time>2013-08-18T14:00:24.000Z</time>
      </trkpt>
      <trkpt lat="46.65694" lon="6.25245">
        <ele>1260</ele>
        <time>2013-08-18T14:00:25.000Z</time>
      </trkpt>
      <trkpt lat="46.65695" lon="6.25253">
        <ele>1257</ele>
        <time>2013-08-18T14:00:26.000Z</time>
      </trkpt>
      <trkpt lat="46.65697" lon="6.25261">
        <ele>1257</ele>
        <time>2013-08-18T14:00:27.000Z</time>
      </trkpt>
      <trkpt lat="46.65699" lon="6.2527">
        <ele>1257</ele>
        <time>2013-08-18T14:00:28.000Z</time>
      </trkpt>
      <trkpt lat="46.65702" lon="6.25277">
        <ele>1257</ele>
        <time>2013-08-18T14:00:29.000Z</time>
      </trkpt>
      <trkpt lat="46.65704" lon="6.25284">
        <ele>1257</ele>
        <time>2013-08-18T14:00:30.000Z</time>
      </trkpt>
      <trkpt lat="46.65706" lon="6.25293">
        <ele>1257</ele>
        <time>2013-08-18T14:00:31.000Z</time>
      </trkpt>
      <trkpt lat="46.65708" lon="6.25302">
        <ele>1257</ele>
        <time>2013-08-18T14:00:32.000Z</time>
      </trkpt>
      <trkpt lat="46.65709" lon="6.25312">
        <ele>1256</ele>
        <time>2013-08-18T14:00:33.000Z</time>
      </trkpt>
      <trkpt lat="46.6571" lon="6.25323">
        <ele>1256</ele>
        <time>2013-08-18T14:00:34.000Z</time>
      </trkpt>
      <trkpt lat="46.6571" lon="6.25343">
        <ele>1253</ele>
        <time>2013-08-18T14:00:36.000Z</time>
      </trkpt>
      <trkpt lat="46.6571" lon="6.25355">
        <ele>1252</ele>
        <time>2013-08-18T14:00:37.000Z</time>
      </trkpt>
      <trkpt lat="46.65711" lon="6.25365">
        <ele>1252</ele>
        <time>2013-08-18T14:00:38.000Z</time>
      </trkpt>
      <trkpt lat="46.65712" lon="6.25376">
        <ele>1252</ele>
        <time>2013-08-18T14:00:39.000Z</time>
      </trkpt>
      <trkpt lat="46.65713" lon="6.25388">
        <ele>1252</ele>
        <time>2013-08-18T14:00:40.000Z</time>
      </trkpt>
      <trkpt lat="46.65715" lon="6.254">
        <ele>1252</ele>
        <time>2013-08-18T14:00:41.000Z</time>
      </trkpt>
      <trkpt lat="46.65716" lon="6.25411">
        <ele>1253</ele>
        <time>2013-08-18T14:00:42.000Z</time>
      </trkpt>
      <trkpt lat="46.65717" lon="6.25421">
        <ele>1250</ele>
        <time>2013-08-18T14:00:43.000Z</time>
      </trkpt>
      <trkpt lat="46.65719" lon="6.2543">
        <ele>1250</ele>
        <time>2013-08-18T14:00:44.000Z</time>
      </trkpt>
      <trkpt lat="46.65721" lon="6.25439">
        <ele>1250</ele>
        <time>2013-08-18T14:00:45.000Z</time>
      </trkpt>
      <trkpt lat="46.65722" lon="6.25448">
        <ele>1249</ele>
        <time>2013-08-18T14:00:46.000Z</time>
      </trkpt>
      <trkpt lat="46.65724" lon="6.25456">
        <ele>1249</ele>
        <time>2013-08-18T14:00:47.000Z</time>
      </trkpt>
      <trkpt lat="46.65725" lon="6.25465">
        <ele>1249</ele>
        <time>2013-08-18T14:00:48.000Z</time>
      </trkpt>
      <trkpt lat="46.65727" lon="6.25474">
        <ele>1249</ele>
        <time>2013-08-18T14:00:49.000Z</time>
      </trkpt>
      <trkpt lat="46.65729" lon="6.25482">
        <ele>1249</ele>
        <time>2013-08-18T14:00:50.000Z</time>
      </trkpt>
      <trkpt lat="46.65731" lon="6.25489">
        <ele>1250</ele>
        <time>2013-08-18T14:00:51.000Z</time>
      </trkpt>
      <trkpt lat="46.65733" lon="6.25498">
        <ele>1250</ele>
        <time>2013-08-18T14:00:52.000Z</time>
      </trkpt>
      <trkpt lat="46.65735" lon="6.25507">
        <ele>1247</ele>
        <time>2013-08-18T14:00:53.000Z</time>
      </trkpt>
      <trkpt lat="46.65736" lon="6.25516">
        <ele>1246</ele>
        <time>2013-08-18T14:00:54.000Z</time>
      </trkpt>
      <trkpt lat="46.65736" lon="6.25525">
        <ele>1245</ele>
        <time>2013-08-18T14:00:55.000Z</time>
      </trkpt>
      <trkpt lat="46.65736" lon="6.25536">
        <ele>1244</ele>
        <time>2013-08-18T14:00:56.000Z</time>
      </trkpt>
      <trkpt lat="46.65734" lon="6.25546">
        <ele>1243</ele>
        <time>2013-08-18T14:00:57.000Z</time>
      </trkpt>
      <trkpt lat="46.65732" lon="6.25557">
        <ele>1242</ele>
        <time>2013-08-18T14:00:58.000Z</time>
      </trkpt>
      <trkpt lat="46.6573" lon="6.25568">
        <ele>1242</ele>
        <time>2013-08-18T14:00:59.000Z</time>
      </trkpt>
      <trkpt lat="46.65728" lon="6.25579">
        <ele>1242</ele>
        <time>2013-08-18T14:01:00.000Z</time>
      </trkpt>
      <trkpt lat="46.65727" lon="6.2559">
        <ele>1238</ele>
        <time>2013-08-18T14:01:01.000Z</time>
      </trkpt>
      <trkpt lat="46.65725" lon="6.256">
        <ele>1236</ele>
        <time>2013-08-18T14:01:02.000Z</time>
      </trkpt>
      <trkpt lat="46.65723" lon="6.2561">
        <ele>1235</ele>
        <time>2013-08-18T14:01:03.000Z</time>
      </trkpt>
      <trkpt lat="46.6572" lon="6.2562">
        <ele>1234</ele>
        <time>2013-08-18T14:01:04.000Z</time>
      </trkpt>
      <trkpt lat="46.65718" lon="6.2563">
        <ele>1234</ele>
        <time>2013-08-18T14:01:05.000Z</time>
      </trkpt>
      <trkpt lat="46.65716" lon="6.2564">
        <ele>1233</ele>
        <time>2013-08-18T14:01:06.000Z</time>
      </trkpt>
      <trkpt lat="46.65715" lon="6.25649">
        <ele>1233</ele>
        <time>2013-08-18T14:01:07.000Z</time>
      </trkpt>
      <trkpt lat="46.65714" lon="6.25658">
        <ele>1232</ele>
        <time>2013-08-18T14:01:08.000Z</time>
      </trkpt>
      <trkpt lat="46.65714" lon="6.25666">
        <ele>1232</ele>
        <time>2013-08-18T14:01:09.000Z</time>
      </trkpt>
      <trkpt lat="46.65714" lon="6.25675">
        <ele>1226</ele>
        <time>2013-08-18T14:01:10.000Z</time>
      </trkpt>
      <trkpt lat="46.65714" lon="6.25686">
        <ele>1226</ele>
        <time>2013-08-18T14:01:11.000Z</time>
      </trkpt>
      <trkpt lat="46.65714" lon="6.25696">
        <ele>1225</ele>
        <time>2013-08-18T14:01:12.000Z</time>
      </trkpt>
      <trkpt lat="46.65715" lon="6.25706">
        <ele>1224</ele>
        <time>2013-08-18T14:01:13.000Z</time>
      </trkpt>
      <trkpt lat="46.65715" lon="6.25718">
        <ele>1223</ele>
        <time>2013-08-18T14:01:14.000Z</time>
      </trkpt>
      <trkpt lat="46.65716" lon="6.25729">
        <ele>1223</ele>
        <time>2013-08-18T14:01:15.000Z</time>
      </trkpt>
      <trkpt lat="46.65717" lon="6.25741">
        <ele>1223</ele>
        <time>2013-08-18T14:01:16.000Z</time>
      </trkpt>
      <trkpt lat="46.65719" lon="6.25751">
        <ele>1217</ele>
        <time>2013-08-18T14:01:17.000Z</time>
      </trkpt>
      <trkpt lat="46.6572" lon="6.25763">
        <ele>1216</ele>
        <time>2013-08-18T14:01:18.000Z</time>
      </trkpt>
      <trkpt lat="46.65721" lon="6.25775">
        <ele>1216</ele>
        <time>2013-08-18T14:01:19.000Z</time>
      </trkpt>
      <trkpt lat="46.65721" lon="6.25785">
        <ele>1215</ele>
        <time>2013-08-18T14:01:20.000Z</time>
      </trkpt>
      <trkpt lat="46.65721" lon="6.25795">
        <ele>1214</ele>
        <time>2013-08-18T14:01:21.000Z</time>
      </trkpt>
      <trkpt lat="46.65721" lon="6.25805">
        <ele>1214</ele>
        <time>2013-08-18T14:01:22.000Z</time>
      </trkpt>
      <trkpt lat="46.65722" lon="6.25815">
        <ele>1214</ele>
        <time>2013-08-18T14:01:23.000Z</time>
      </trkpt>
      <trkpt lat="46.65723" lon="6.25824">
        <ele>1214</ele>
        <time>2013-08-18T14:01:24.000Z</time>
      </trkpt>
      <trkpt lat="46.65724" lon="6.25832">
        <ele>1214</ele>
        <time>2013-08-18T14:01:25.000Z</time>
      </trkpt>
      <trkpt lat="46.65725" lon="6.25839">
        <ele>1208</ele>
        <time>2013-08-18T14:01:26.000Z</time>
      </trkpt>
      <trkpt lat="46.65725" lon="6.25847">
        <ele>1208</ele>
        <time>2013-08-18T14:01:27.000Z</time>
      </trkpt>
      <trkpt lat="46.65726" lon="6.25853">
        <ele>1207</ele>
        <time>2013-08-18T14:01:28.000Z</time>
      </trkpt>
      <trkpt lat="46.65727" lon="6.2586">
        <ele>1207</ele>
        <time>2013-08-18T14:01:29.000Z</time>
      </trkpt>
      <trkpt lat="46.65728" lon="6.25866">
        <ele>1206</ele>
        <time>2013-08-18T14:01:30.000Z</time>
      </trkpt>
      <trkpt lat="46.65729" lon="6.25873">
        <ele>1206</ele>
        <time>2013-08-18T14:01:31.000Z</time>
      </trkpt>
      <trkpt lat="46.6573" lon="6.25881">
        <ele>1205</ele>
        <time>2013-08-18T14:01:32.000Z</time>
      </trkpt>
      <trkpt lat="46.65731" lon="6.2589">
        <ele>1205</ele>
        <time>2013-08-18T14:01:33.000Z</time>
      </trkpt>
      <trkpt lat="46.65733" lon="6.25901">
        <ele>1205</ele>
        <time>2013-08-18T14:01:34.000Z</time>
      </trkpt>
      <trkpt lat="46.65735" lon="6.25911">
        <ele>1205</ele>
        <time>2013-08-18T14:01:35.000Z</time>
      </trkpt>
      <trkpt lat="46.65738" lon="6.25922">
        <ele>1201</ele>
        <time>2013-08-18T14:01:36.000Z</time>
      </trkpt>
      <trkpt lat="46.65741" lon="6.25932">
        <ele>1199</ele>
        <time>2013-08-18T14:01:37.000Z</time>
      </trkpt>
      <trkpt lat="46.65743" lon="6.25941">
        <ele>1198</ele>
        <time>2013-08-18T14:01:38.000Z</time>
      </trkpt>
      <trkpt lat="46.65746" lon="6.2595">
        <ele>1196</ele>
        <time>2013-08-18T14:01:39.000Z</time>
      </trkpt>
      <trkpt lat="46.6575" lon="6.25958">
        <ele>1195</ele>
        <time>2013-08-18T14:01:40.000Z</time>
      </trkpt>
      <trkpt lat="46.65754" lon="6.25965">
        <ele>1203</ele>
        <time>2013-08-18T14:01:41.000Z</time>
      </trkpt>
      <trkpt lat="46.65759" lon="6.25972">
        <ele>1202</ele>
        <time>2013-08-18T14:01:42.000Z</time>
      </trkpt>
      <trkpt lat="46.65764" lon="6.25978">
        <ele>1201</ele>
        <time>2013-08-18T14:01:43.000Z</time>
      </trkpt>
      <trkpt lat="46.6577" lon="6.25984">
        <ele>1201</ele>
        <time>2013-08-18T14:01:44.000Z</time>
      </trkpt>
      <trkpt lat="46.65776" lon="6.2599">
        <ele>1202</ele>
        <time>2013-08-18T14:01:45.000Z</time>
      </trkpt>
      <trkpt lat="46.65782" lon="6.25995">
        <ele>1202</ele>
        <time>2013-08-18T14:01:46.000Z</time>
      </trkpt>
      <trkpt lat="46.65789" lon="6.26002">
        <ele>1195</ele>
        <time>2013-08-18T14:01:47.000Z</time>
      </trkpt>
      <trkpt lat="46.65794" lon="6.26012">
        <ele>1195</ele>
        <time>2013-08-18T14:01:48.000Z</time>
      </trkpt>
      <trkpt lat="46.65799" lon="6.26023">
        <ele>1195</ele>
        <time>2013-08-18T14:01:49.000Z</time>
      </trkpt>
      <trkpt lat="46.65803" lon="6.26035">
        <ele>1194</ele>
        <time>2013-08-18T14:01:50.000Z</time>
      </trkpt>
      <trkpt lat="46.65807" lon="6.26047">
        <ele>1193</ele>
        <time>2013-08-18T14:01:51.000Z</time>
      </trkpt>
      <trkpt lat="46.65809" lon="6.26058">
        <ele>1192</ele>
        <time>2013-08-18T14:01:52.000Z</time>
      </trkpt>
      <trkpt lat="46.6581" lon="6.2607">
        <ele>1192</ele>
        <time>2013-08-18T14:01:53.000Z</time>
      </trkpt>
      <trkpt lat="46.65812" lon="6.26081">
        <ele>1191</ele>
        <time>2013-08-18T14:01:54.000Z</time>
      </trkpt>
      <trkpt lat="46.65813" lon="6.26092">
        <ele>1185</ele>
        <time>2013-08-18T14:01:55.000Z</time>
      </trkpt>
      <trkpt lat="46.65814" lon="6.26104">
        <ele>1184</ele>
        <time>2013-08-18T14:01:56.000Z</time>
      </trkpt>
      <trkpt lat="46.65815" lon="6.26117">
        <ele>1182</ele>
        <time>2013-08-18T14:01:57.000Z</time>
      </trkpt>
      <trkpt lat="46.65817" lon="6.26131">
        <ele>1181</ele>
        <time>2013-08-18T14:01:58.000Z</time>
      </trkpt>
      <trkpt lat="46.65818" lon="6.26143">
        <ele>1181</ele>
        <time>2013-08-18T14:01:59.000Z</time>
      </trkpt>
      <trkpt lat="46.65818" lon="6.26154">
        <ele>1180</ele>
        <time>2013-08-18T14:02:00.000Z</time>
      </trkpt>
      <trkpt lat="46.65818" lon="6.26164">
        <ele>1180</ele>
        <time>2013-08-18T14:02:01.000Z</time>
      </trkpt>
      <trkpt lat="46.65818" lon="6.26174">
        <ele>1176</ele>
        <time>2013-08-18T14:02:02.000Z</time>
      </trkpt>
      <trkpt lat="46.6582" lon="6.26184">
        <ele>1174</ele>
        <time>2013-08-18T14:02:03.000Z</time>
      </trkpt>
      <trkpt lat="46.65822" lon="6.26194">
        <ele>1173</ele>
        <time>2013-08-18T14:02:04.000Z</time>
      </trkpt>
      <trkpt lat="46.65826" lon="6.26203">
        <ele>1172</ele>
        <time>2013-08-18T14:02:05.000Z</time>
      </trkpt>
      <trkpt lat="46.65829" lon="6.26212">
        <ele>1172</ele>
        <time>2013-08-18T14:02:06.000Z</time>
      </trkpt>
      <trkpt lat="46.65833" lon="6.26222">
        <ele>1171</ele>
        <time>2013-08-18T14:02:07.000Z</time>
      </trkpt>
      <trkpt lat="46.65837" lon="6.26231">
        <ele>1176</ele>
        <time>2013-08-18T14:02:08.000Z</time>
      </trkpt>
      <trkpt lat="46.65841" lon="6.2624">
        <ele>1175</ele>
        <time>2013-08-18T14:02:09.000Z</time>
      </trkpt>
      <trkpt lat="46.65845" lon="6.26248">
        <ele>1174</ele>
        <time>2013-08-18T14:02:10.000Z</time>
      </trkpt>
      <trkpt lat="46.65848" lon="6.26257">
        <ele>1170</ele>
        <time>2013-08-18T14:02:11.000Z</time>
      </trkpt>
      <trkpt lat="46.65851" lon="6.26266">
        <ele>1170</ele>
        <time>2013-08-18T14:02:12.000Z</time>
      </trkpt>
      <trkpt lat="46.65854" lon="6.26276">
        <ele>1169</ele>
        <time>2013-08-18T14:02:13.000Z</time>
      </trkpt>
      <trkpt lat="46.65857" lon="6.26285">
        <ele>1169</ele>
        <time>2013-08-18T14:02:14.000Z</time>
      </trkpt>
      <trkpt lat="46.6586" lon="6.26294">
        <ele>1168</ele>
        <time>2013-08-18T14:02:15.000Z</time>
      </trkpt>
      <trkpt lat="46.65864" lon="6.26304">
        <ele>1167</ele>
        <time>2013-08-18T14:02:16.000Z</time>
      </trkpt>
      <trkpt lat="46.65868" lon="6.26314">
        <ele>1167</ele>
        <time>2013-08-18T14:02:17.000Z</time>
      </trkpt>
      <trkpt lat="46.65871" lon="6.26325">
        <ele>1166</ele>
        <time>2013-08-18T14:02:18.000Z</time>
      </trkpt>
      <trkpt lat="46.65873" lon="6.26335">
        <ele>1159</ele>
        <time>2013-08-18T14:02:19.000Z</time>
      </trkpt>
      <trkpt lat="46.65875" lon="6.26345">
        <ele>1159</ele>
        <time>2013-08-18T14:02:20.000Z</time>
      </trkpt>
      <trkpt lat="46.65877" lon="6.26355">
        <ele>1159</ele>
        <time>2013-08-18T14:02:21.000Z</time>
      </trkpt>
      <trkpt lat="46.65879" lon="6.26364">
        <ele>1159</ele>
        <time>2013-08-18T14:02:22.000Z</time>
      </trkpt>
      <trkpt lat="46.65881" lon="6.26372">
        <ele>1158</ele>
        <time>2013-08-18T14:02:23.000Z</time>
      </trkpt>
      <trkpt lat="46.65883" lon="6.2638">
        <ele>1158</ele>
        <time>2013-08-18T14:02:24.000Z</time>
      </trkpt>
      <trkpt lat="46.65885" lon="6.26385">
        <ele>1158</ele>
        <time>2013-08-18T14:02:25.000Z</time>
      </trkpt>
      <trkpt lat="46.65887" lon="6.2639">
        <ele>1157</ele>
        <time>2013-08-18T14:02:26.000Z</time>
      </trkpt>
      <trkpt lat="46.65889" lon="6.26396">
        <ele>1157</ele>
        <time>2013-08-18T14:02:27.000Z</time>
      </trkpt>
      <trkpt lat="46.65891" lon="6.26404">
        <ele>1157</ele>
        <time>2013-08-18T14:02:28.000Z</time>
      </trkpt>
      <trkpt lat="46.65893" lon="6.26412">
        <ele>1157</ele>
        <time>2013-08-18T14:02:29.000Z</time>
      </trkpt>
      <trkpt lat="46.65894" lon="6.26419">
        <ele>1152</ele>
        <time>2013-08-18T14:02:30.000Z</time>
      </trkpt>
      <trkpt lat="46.65897" lon="6.26427">
        <ele>1152</ele>
        <time>2013-08-18T14:02:31.000Z</time>
      </trkpt>
      <trkpt lat="46.65899" lon="6.26435">
        <ele>1151</ele>
        <time>2013-08-18T14:02:32.000Z</time>
      </trkpt>
      <trkpt lat="46.65901" lon="6.26444">
        <ele>1150</ele>
        <time>2013-08-18T14:02:33.000Z</time>
      </trkpt>
      <trkpt lat="46.65904" lon="6.26452">
        <ele>1150</ele>
        <time>2013-08-18T14:02:34.000Z</time>
      </trkpt>
      <trkpt lat="46.65906" lon="6.2646">
        <ele>1149</ele>
        <time>2013-08-18T14:02:35.000Z</time>
      </trkpt>
      <trkpt lat="46.65908" lon="6.26469">
        <ele>1149</ele>
        <time>2013-08-18T14:02:36.000Z</time>
      </trkpt>
      <trkpt lat="46.6591" lon="6.26479">
        <ele>1148</ele>
        <time>2013-08-18T14:02:37.000Z</time>
      </trkpt>
      <trkpt lat="46.65911" lon="6.26488">
        <ele>1148</ele>
        <time>2013-08-18T14:02:38.000Z</time>
      </trkpt>
      <trkpt lat="46.6591" lon="6.26498">
        <ele>1147</ele>
        <time>2013-08-18T14:02:39.000Z</time>
      </trkpt>
      <trkpt lat="46.65909" lon="6.26508">
        <ele>1144</ele>
        <time>2013-08-18T14:02:40.000Z</time>
      </trkpt>
      <trkpt lat="46.65908" lon="6.26518">
        <ele>1143</ele>
        <time>2013-08-18T14:02:41.000Z</time>
      </trkpt>
      <trkpt lat="46.65907" lon="6.26527">
        <ele>1142</ele>
        <time>2013-08-18T14:02:42.000Z</time>
      </trkpt>
      <trkpt lat="46.65905" lon="6.26535">
        <ele>1141</ele>
        <time>2013-08-18T14:02:43.000Z</time>
      </trkpt>
      <trkpt lat="46.65903" lon="6.26543">
        <ele>1141</ele>
        <time>2013-08-18T14:02:44.000Z</time>
      </trkpt>
      <trkpt lat="46.65902" lon="6.2655">
        <ele>1141</ele>
        <time>2013-08-18T14:02:45.000Z</time>
      </trkpt>
      <trkpt lat="46.65901" lon="6.26555">
        <ele>1140</ele>
        <time>2013-08-18T14:02:46.000Z</time>
      </trkpt>
      <trkpt lat="46.659" lon="6.26559">
        <ele>1140</ele>
        <time>2013-08-18T14:02:47.000Z</time>
      </trkpt>
      <trkpt lat="46.659" lon="6.26562">
        <ele>1140</ele>
        <time>2013-08-18T14:02:48.000Z</time>
      </trkpt>
      <trkpt lat="46.65899" lon="6.26566">
        <ele>1140</ele>
        <time>2013-08-18T14:02:49.000Z</time>
      </trkpt>
      <trkpt lat="46.65899" lon="6.26568">
        <ele>1140</ele>
        <time>2013-08-18T14:02:50.000Z</time>
      </trkpt>
      <trkpt lat="46.659" lon="6.26571">
        <ele>1140</ele>
        <time>2013-08-18T14:02:51.000Z</time>
      </trkpt>
      <trkpt lat="46.659" lon="6.26575">
        <ele>1140</ele>
        <time>2013-08-18T14:02:53.000Z</time>
      </trkpt>
      <trkpt lat="46.659" lon="6.26577">
        <ele>1140</ele>
        <time>2013-08-18T14:02:54.000Z</time>
      </trkpt>
      <trkpt lat="46.65901" lon="6.26578">
        <ele>1140</ele>
        <time>2013-08-18T14:02:55.000Z</time>
      </trkpt>
      <trkpt lat="46.65901" lon="6.2658">
        <ele>1140</ele>
        <time>2013-08-18T14:02:56.000Z</time>
      </trkpt>
      <trkpt lat="46.65901" lon="6.26581">
        <ele>1140</ele>
        <time>2013-08-18T14:02:57.000Z</time>
      </trkpt>
      <trkpt lat="46.65901" lon="6.26583">
        <ele>1140</ele>
        <time>2013-08-18T14:02:58.000Z</time>
      </trkpt>
      <trkpt lat="46.65901" lon="6.26584">
        <ele>1138</ele>
        <time>2013-08-18T14:02:59.000Z</time>
      </trkpt>
      <trkpt lat="46.65902" lon="6.26585">
        <ele>1138</ele>
        <time>2013-08-18T14:03:00.000Z</time>
      </trkpt>
      <trkpt lat="46.65902" lon="6.26587">
        <ele>1138</ele>
        <time>2013-08-18T14:03:01.000Z</time>
      </trkpt>
      <trkpt lat="46.65902" lon="6.26588">
        <ele>1138</ele>
        <time>2013-08-18T14:03:02.000Z</time>
      </trkpt>
      <trkpt lat="46.65902" lon="6.26591">
        <ele>1138</ele>
        <time>2013-08-18T14:03:04.000Z</time>
      </trkpt>
      <trkpt lat="46.65902" lon="6.26592">
        <ele>1138</ele>
        <time>2013-08-18T14:03:05.000Z</time>
      </trkpt>
      <trkpt lat="46.65902" lon="6.26594">
        <ele>1138</ele>
        <time>2013-08-18T14:03:07.000Z</time>
      </trkpt>
      <trkpt lat="46.65903" lon="6.26596">
        <ele>1138</ele>
        <time>2013-08-18T14:03:09.000Z</time>
      </trkpt>
      <trkpt lat="46.65903" lon="6.26598">
        <ele>1138</ele>
        <time>2013-08-18T14:03:12.000Z</time>
      </trkpt>
      <trkpt lat="46.65903" lon="6.26599">
        <ele>1137</ele>
        <time>2013-08-18T14:03:13.000Z</time>
      </trkpt>
      <trkpt lat="46.65903" lon="6.26601">
        <ele>1137</ele>
        <time>2013-08-18T14:03:17.000Z</time>
      </trkpt>
      <trkpt lat="46.65904" lon="6.26602">
        <ele>1137</ele>
        <time>2013-08-18T14:03:18.000Z</time>
      </trkpt>
      <trkpt lat="46.65904" lon="6.26602">
        <ele>1137</ele>
        <time>2013-08-18T14:03:19.000Z</time>
      </trkpt>
      <trkpt lat="46.65904" lon="6.26603">
        <ele>1137</ele>
        <time>2013-08-18T14:03:20.000Z</time>
      </trkpt>
      <trkpt lat="46.65904" lon="6.26604">
        <ele>1137</ele>
        <time>2013-08-18T14:03:21.000Z</time>
      </trkpt>
      <trkpt lat="46.65905" lon="6.26604">
        <ele>1137</ele>
        <time>2013-08-18T14:03:22.000Z</time>
      </trkpt>
      <trkpt lat="46.65905" lon="6.26605">
        <ele>1137</ele>
        <time>2013-08-18T14:03:23.000Z</time>
      </trkpt>
      <trkpt lat="46.65905" lon="6.26606">
        <ele>1137</ele>
        <time>2013-08-18T14:03:24.000Z</time>
      </trkpt>
      <trkpt lat="46.65906" lon="6.26606">
        <ele>1137</ele>
        <time>2013-08-18T14:03:26.000Z</time>
      </trkpt>
      <trkpt lat="46.65906" lon="6.26607">
        <ele>1137</ele>
        <time>2013-08-18T14:03:28.000Z</time>
      </trkpt>
      <trkpt lat="46.65906" lon="6.26607">
        <ele>1137</ele>
        <time>2013-08-18T14:03:29.000Z</time>
      </trkpt>
      <trkpt lat="46.65906" lon="6.26609">
        <ele>1137</ele>
        <time>2013-08-18T14:03:38.000Z</time>
      </trkpt>
      <trkpt lat="46.65905" lon="6.2661">
        <ele>1137</ele>
        <time>2013-08-18T14:03:39.000Z</time>
      </trkpt>
      <trkpt lat="46.65904" lon="6.26611">
        <ele>1137</ele>
        <time>2013-08-18T14:03:40.000Z</time>
      </trkpt>
      <trkpt lat="46.65903" lon="6.26613">
        <ele>1137</ele>
        <time>2013-08-18T14:03:41.000Z</time>
      </trkpt>
      <trkpt lat="46.65902" lon="6.26616">
        <ele>1136</ele>
        <time>2013-08-18T14:03:42.000Z</time>
      </trkpt>
      <trkpt lat="46.65901" lon="6.26618">
        <ele>1136</ele>
        <time>2013-08-18T14:03:43.000Z</time>
      </trkpt>
      <trkpt lat="46.65901" lon="6.26621">
        <ele>1136</ele>
        <time>2013-08-18T14:03:44.000Z</time>
      </trkpt>
      <trkpt lat="46.65901" lon="6.26625">
        <ele>1136</ele>
        <time>2013-08-18T14:03:45.000Z</time>
      </trkpt>
      <trkpt lat="46.65902" lon="6.26629">
        <ele>1136</ele>
        <time>2013-08-18T14:03:46.000Z</time>
      </trkpt>
      <trkpt lat="46.65901" lon="6.26633">
        <ele>1136</ele>
        <time>2013-08-18T14:03:47.000Z</time>
      </trkpt>
      <trkpt lat="46.65901" lon="6.26637">
        <ele>1136</ele>
        <time>2013-08-18T14:03:48.000Z</time>
      </trkpt>
      <trkpt lat="46.65899" lon="6.26641">
        <ele>1136</ele>
        <time>2013-08-18T14:03:49.000Z</time>
      </trkpt>
      <trkpt lat="46.65897" lon="6.26644">
        <ele>1136</ele>
        <time>2013-08-18T14:03:50.000Z</time>
      </trkpt>
      <trkpt lat="46.65896" lon="6.26647">
        <ele>1136</ele>
        <time>2013-08-18T14:03:51.000Z</time>
      </trkpt>
      <trkpt lat="46.65893" lon="6.26651">
        <ele>1136</ele>
        <time>2013-08-18T14:03:52.000Z</time>
      </trkpt>
      <trkpt lat="46.6589" lon="6.26654">
        <ele>1135</ele>
        <time>2013-08-18T14:03:53.000Z</time>
      </trkpt>
      <trkpt lat="46.65886" lon="6.26658">
        <ele>1135</ele>
        <time>2013-08-18T14:03:54.000Z</time>
      </trkpt>
      <trkpt lat="46.65881" lon="6.26661">
        <ele>1135</ele>
        <time>2013-08-18T14:03:55.000Z</time>
      </trkpt>
      <trkpt lat="46.65877" lon="6.26664">
        <ele>1134</ele>
        <time>2013-08-18T14:03:56.000Z</time>
      </trkpt>
      <trkpt lat="46.65872" lon="6.26668">
        <ele>1134</ele>
        <time>2013-08-18T14:03:57.000Z</time>
      </trkpt>
      <trkpt lat="46.65867" lon="6.26672">
        <ele>1133</ele>
        <time>2013-08-18T14:03:58.000Z</time>
      </trkpt>
      <trkpt lat="46.65863" lon="6.26675">
        <ele>1133</ele>
        <time>2013-08-18T14:03:59.000Z</time>
      </trkpt>
      <trkpt lat="46.65858" lon="6.26678">
        <ele>1133</ele>
        <time>2013-08-18T14:04:00.000Z</time>
      </trkpt>
      <trkpt lat="46.65854" lon="6.26681">
        <ele>1132</ele>
        <time>2013-08-18T14:04:01.000Z</time>
      </trkpt>
      <trkpt lat="46.6585" lon="6.26683">
        <ele>1132</ele>
        <time>2013-08-18T14:04:02.000Z</time>
      </trkpt>
      <trkpt lat="46.65847" lon="6.26685">
        <ele>1132</ele>
        <time>2013-08-18T14:04:03.000Z</time>
      </trkpt>
      <trkpt lat="46.65841" lon="6.26687">
        <ele>1132</ele>
        <time>2013-08-18T14:04:04.000Z</time>
      </trkpt>
      <trkpt lat="46.65835" lon="6.2669">
        <ele>1132</ele>
        <time>2013-08-18T14:04:05.000Z</time>
      </trkpt>
      <trkpt lat="46.65829" lon="6.26692">
        <ele>1127</ele>
        <time>2013-08-18T14:04:06.000Z</time>
      </trkpt>
      <trkpt lat="46.65823" lon="6.26695">
        <ele>1127</ele>
        <time>2013-08-18T14:04:07.000Z</time>
      </trkpt>
      <trkpt lat="46.65815" lon="6.26697">
        <ele>1126</ele>
        <time>2013-08-18T14:04:08.000Z</time>
      </trkpt>
      <trkpt lat="46.65807" lon="6.267">
        <ele>1126</ele>
        <time>2013-08-18T14:04:09.000Z</time>
      </trkpt>
      <trkpt lat="46.658" lon="6.26703">
        <ele>1125</ele>
        <time>2013-08-18T14:04:10.000Z</time>
      </trkpt>
      <trkpt lat="46.65792" lon="6.26706">
        <ele>1125</ele>
        <time>2013-08-18T14:04:11.000Z</time>
      </trkpt>
      <trkpt lat="46.65783" lon="6.2671">
        <ele>1125</ele>
        <time>2013-08-18T14:04:12.000Z</time>
      </trkpt>
      <trkpt lat="46.65775" lon="6.26713">
        <ele>1124</ele>
        <time>2013-08-18T14:04:13.000Z</time>
      </trkpt>
      <trkpt lat="46.65767" lon="6.26716">
        <ele>1124</ele>
        <time>2013-08-18T14:04:14.000Z</time>
      </trkpt>
      <trkpt lat="46.65759" lon="6.26719">
        <ele>1123</ele>
        <time>2013-08-18T14:04:15.000Z</time>
      </trkpt>
      <trkpt lat="46.65752" lon="6.26722">
        <ele>1123</ele>
        <time>2013-08-18T14:04:16.000Z</time>
      </trkpt>
      <trkpt lat="46.65745" lon="6.26725">
        <ele>1119</ele>
        <time>2013-08-18T14:04:17.000Z</time>
      </trkpt>
      <trkpt lat="46.65738" lon="6.26729">
        <ele>1119</ele>
        <time>2013-08-18T14:04:18.000Z</time>
      </trkpt>
      <trkpt lat="46.65732" lon="6.26733">
        <ele>1119</ele>
        <time>2013-08-18T14:04:19.000Z</time>
      </trkpt>
      <trkpt lat="46.65726" lon="6.26736">
        <ele>1119</ele>
        <time>2013-08-18T14:04:20.000Z</time>
      </trkpt>
      <trkpt lat="46.6572" lon="6.26739">
        <ele>1118</ele>
        <time>2013-08-18T14:04:21.000Z</time>
      </trkpt>
      <trkpt lat="46.65715" lon="6.26741">
        <ele>1118</ele>
        <time>2013-08-18T14:04:22.000Z</time>
      </trkpt>
      <trkpt lat="46.6571" lon="6.26744">
        <ele>1118</ele>
        <time>2013-08-18T14:04:23.000Z</time>
      </trkpt>
      <trkpt lat="46.65705" lon="6.26746">
        <ele>1117</ele>
        <time>2013-08-18T14:04:24.000Z</time>
      </trkpt>
      <trkpt lat="46.65701" lon="6.26749">
        <ele>1117</ele>
        <time>2013-08-18T14:04:25.000Z</time>
      </trkpt>
      <trkpt lat="46.65695" lon="6.26751">
        <ele>1116</ele>
        <time>2013-08-18T14:04:26.000Z</time>
      </trkpt>
      <trkpt lat="46.6569" lon="6.26754">
        <ele>1116</ele>
        <time>2013-08-18T14:04:27.000Z</time>
      </trkpt>
      <trkpt lat="46.65684" lon="6.26757">
        <ele>1116</ele>
        <time>2013-08-18T14:04:28.000Z</time>
      </trkpt>
      <trkpt lat="46.65679" lon="6.26759">
        <ele>1115</ele>
        <time>2013-08-18T14:04:29.000Z</time>
      </trkpt>
      <trkpt lat="46.65674" lon="6.26762">
        <ele>1115</ele>
        <time>2013-08-18T14:04:30.000Z</time>
      </trkpt>
      <trkpt lat="46.6567" lon="6.26766">
        <ele>1115</ele>
        <time>2013-08-18T14:04:31.000Z</time>
      </trkpt>
      <trkpt lat="46.65665" lon="6.26769">
        <ele>1113</ele>
        <time>2013-08-18T14:04:32.000Z</time>
      </trkpt>
      <trkpt lat="46.65659" lon="6.26771">
        <ele>1113</ele>
        <time>2013-08-18T14:04:33.000Z</time>
      </trkpt>
      <trkpt lat="46.65654" lon="6.26774">
        <ele>1113</ele>
        <time>2013-08-18T14:04:34.000Z</time>
      </trkpt>
      <trkpt lat="46.65649" lon="6.26776">
        <ele>1113</ele>
        <time>2013-08-18T14:04:35.000Z</time>
      </trkpt>
      <trkpt lat="46.65643" lon="6.26779">
        <ele>1113</ele>
        <time>2013-08-18T14:04:36.000Z</time>
      </trkpt>
      <trkpt lat="46.65637" lon="6.26781">
        <ele>1113</ele>
        <time>2013-08-18T14:04:37.000Z</time>
      </trkpt>
      <trkpt lat="46.6563" lon="6.26783">
        <ele>1113</ele>
        <time>2013-08-18T14:04:38.000Z</time>
      </trkpt>
      <trkpt lat="46.65623" lon="6.26785">
        <ele>1113</ele>
        <time>2013-08-18T14:04:39.000Z</time>
      </trkpt>
      <trkpt lat="46.65618" lon="6.26787">
        <ele>1113</ele>
        <time>2013-08-18T14:04:40.000Z</time>
      </trkpt>
      <trkpt lat="46.65611" lon="6.26788">
        <ele>1113</ele>
        <time>2013-08-18T14:04:41.000Z</time>
      </trkpt>
      <trkpt lat="46.65604" lon="6.2679">
        <ele>1113</ele>
        <time>2013-08-18T14:04:42.000Z</time>
      </trkpt>
      <trkpt lat="46.65597" lon="6.26792">
        <ele>1113</ele>
        <time>2013-08-18T14:04:43.000Z</time>
      </trkpt>
      <trkpt lat="46.6559" lon="6.26793">
        <ele>1113</ele>
        <time>2013-08-18T14:04:44.000Z</time>
      </trkpt>
      <trkpt lat="46.65583" lon="6.26794">
        <ele>1111</ele>
        <time>2013-08-18T14:04:45.000Z</time>
      </trkpt>
      <trkpt lat="46.65576" lon="6.26794">
        <ele>1111</ele>
        <time>2013-08-18T14:04:46.000Z</time>
      </trkpt>
      <trkpt lat="46.65569" lon="6.26795">
        <ele>1111</ele>
        <time>2013-08-18T14:04:47.000Z</time>
      </trkpt>
      <trkpt lat="46.65562" lon="6.26797">
        <ele>1111</ele>
        <time>2013-08-18T14:04:48.000Z</time>
      </trkpt>
      <trkpt lat="46.65555" lon="6.26799">
        <ele>1111</ele>
        <time>2013-08-18T14:04:49.000Z</time>
      </trkpt>
      <trkpt lat="46.65548" lon="6.26801">
        <ele>1111</ele>
        <time>2013-08-18T14:04:50.000Z</time>
      </trkpt>
      <trkpt lat="46.65541" lon="6.26802">
        <ele>1111</ele>
        <time>2013-08-18T14:04:51.000Z</time>
      </trkpt>
      <trkpt lat="46.65535" lon="6.26804">
        <ele>1110</ele>
        <time>2013-08-18T14:04:52.000Z</time>
      </trkpt>
      <trkpt lat="46.65528" lon="6.26806">
        <ele>1110</ele>
        <time>2013-08-18T14:04:53.000Z</time>
      </trkpt>
      <trkpt lat="46.65521" lon="6.26807">
        <ele>1110</ele>
        <time>2013-08-18T14:04:54.000Z</time>
      </trkpt>
      <trkpt lat="46.65514" lon="6.26809">
        <ele>1110</ele>
        <time>2013-08-18T14:04:55.000Z</time>
      </trkpt>
      <trkpt lat="46.65507" lon="6.2681">
        <ele>1110</ele>
        <time>2013-08-18T14:04:56.000Z</time>
      </trkpt>
      <trkpt lat="46.655" lon="6.26812">
        <ele>1107</ele>
        <time>2013-08-18T14:04:57.000Z</time>
      </trkpt>
      <trkpt lat="46.65494" lon="6.26813">
        <ele>1107</ele>
        <time>2013-08-18T14:04:58.000Z</time>
      </trkpt>
      <trkpt lat="46.65488" lon="6.26815">
        <ele>1107</ele>
        <time>2013-08-18T14:04:59.000Z</time>
      </trkpt>
      <trkpt lat="46.65482" lon="6.26816">
        <ele>1107</ele>
        <time>2013-08-18T14:05:00.000Z</time>
      </trkpt>
      <trkpt lat="46.65477" lon="6.26817">
        <ele>1107</ele>
        <time>2013-08-18T14:05:01.000Z</time>
      </trkpt>
      <trkpt lat="46.65472" lon="6.26818">
        <ele>1106</ele>
        <time>2013-08-18T14:05:02.000Z</time>
      </trkpt>
      <trkpt lat="46.65466" lon="6.26819">
        <ele>1106</ele>
        <time>2013-08-18T14:05:03.000Z</time>
      </trkpt>
      <trkpt lat="46.65459" lon="6.26821">
        <ele>1106</ele>
        <time>2013-08-18T14:05:04.000Z</time>
      </trkpt>
      <trkpt lat="46.65453" lon="6.26823">
        <ele>1105</ele>
        <time>2013-08-18T14:05:05.000Z</time>
      </trkpt>
      <trkpt lat="46.65447" lon="6.26825">
        <ele>1105</ele>
        <time>2013-08-18T14:05:06.000Z</time>
      </trkpt>
      <trkpt lat="46.65441" lon="6.26827">
        <ele>1104</ele>
        <time>2013-08-18T14:05:07.000Z</time>
      </trkpt>
      <trkpt lat="46.65435" lon="6.26829">
        <ele>1104</ele>
        <time>2013-08-18T14:05:08.000Z</time>
      </trkpt>
      <trkpt lat="46.65429" lon="6.26831">
        <ele>1103</ele>
        <time>2013-08-18T14:05:09.000Z</time>
      </trkpt>
      <trkpt lat="46.65424" lon="6.26833">
        <ele>1102</ele>
        <time>2013-08-18T14:05:10.000Z</time>
      </trkpt>
      <trkpt lat="46.65419" lon="6.26835">
        <ele>1102</ele>
        <time>2013-08-18T14:05:11.000Z</time>
      </trkpt>
      <trkpt lat="46.65414" lon="6.26837">
        <ele>1100</ele>
        <time>2013-08-18T14:05:12.000Z</time>
      </trkpt>
      <trkpt lat="46.65409" lon="6.2684">
        <ele>1099</ele>
        <time>2013-08-18T14:05:13.000Z</time>
      </trkpt>
      <trkpt lat="46.65403" lon="6.26842">
        <ele>1099</ele>
        <time>2013-08-18T14:05:14.000Z</time>
      </trkpt>
      <trkpt lat="46.65398" lon="6.26844">
        <ele>1098</ele>
        <time>2013-08-18T14:05:15.000Z</time>
      </trkpt>
      <trkpt lat="46.65393" lon="6.26846">
        <ele>1097</ele>
        <time>2013-08-18T14:05:16.000Z</time>
      </trkpt>
      <trkpt lat="46.65388" lon="6.26849">
        <ele>1097</ele>
        <time>2013-08-18T14:05:17.000Z</time>
      </trkpt>
      <trkpt lat="46.65384" lon="6.26852">
        <ele>1097</ele>
        <time>2013-08-18T14:05:18.000Z</time>
      </trkpt>
      <trkpt lat="46.6538" lon="6.26857">
        <ele>1096</ele>
        <time>2013-08-18T14:05:19.000Z</time>
      </trkpt>
      <trkpt lat="46.65377" lon="6.26861">
        <ele>1096</ele>
        <time>2013-08-18T14:05:20.000Z</time>
      </trkpt>
      <trkpt lat="46.65374" lon="6.26865">
        <ele>1096</ele>
        <time>2013-08-18T14:05:21.000Z</time>
      </trkpt>
      <trkpt lat="46.65372" lon="6.26868">
        <ele>1096</ele>
        <time>2013-08-18T14:05:22.000Z</time>
      </trkpt>
      <trkpt lat="46.6537" lon="6.26871">
        <ele>1095</ele>
        <time>2013-08-18T14:05:23.000Z</time>
      </trkpt>
      <trkpt lat="46.65368" lon="6.26874">
        <ele>1095</ele>
        <time>2013-08-18T14:05:24.000Z</time>
      </trkpt>
      <trkpt lat="46.65367" lon="6.26878">
        <ele>1095</ele>
        <time>2013-08-18T14:05:25.000Z</time>
      </trkpt>
      <trkpt lat="46.65366" lon="6.26882">
        <ele>1095</ele>
        <time>2013-08-18T14:05:26.000Z</time>
      </trkpt>
      <trkpt lat="46.65365" lon="6.26886">
        <ele>1095</ele>
        <time>2013-08-18T14:05:27.000Z</time>
      </trkpt>
      <trkpt lat="46.65365" lon="6.2689">
        <ele>1095</ele>
        <time>2013-08-18T14:05:28.000Z</time>
      </trkpt>
      <trkpt lat="46.65365" lon="6.26905">
        <ele>1094</ele>
        <time>2013-08-18T14:05:31.000Z</time>
      </trkpt>
      <trkpt lat="46.65364" lon="6.26911">
        <ele>1094</ele>
        <time>2013-08-18T14:05:32.000Z</time>
      </trkpt>
      <trkpt lat="46.65365" lon="6.26916">
        <ele>1094</ele>
        <time>2013-08-18T14:05:33.000Z</time>
      </trkpt>
      <trkpt lat="46.65364" lon="6.26922">
        <ele>1094</ele>
        <time>2013-08-18T14:05:34.000Z</time>
      </trkpt>
      <trkpt lat="46.65364" lon="6.26927">
        <ele>1094</ele>
        <time>2013-08-18T14:05:35.000Z</time>
      </trkpt>
      <trkpt lat="46.65363" lon="6.26933">
        <ele>1094</ele>
        <time>2013-08-18T14:05:36.000Z</time>
      </trkpt>
      <trkpt lat="46.65363" lon="6.26939">
        <ele>1094</ele>
        <time>2013-08-18T14:05:37.000Z</time>
      </trkpt>
      <trkpt lat="46.65362" lon="6.26944">
        <ele>1094</ele>
        <time>2013-08-18T14:05:38.000Z</time>
      </trkpt>
      <trkpt lat="46.65362" lon="6.2695">
        <ele>1094</ele>
        <time>2013-08-18T14:05:39.000Z</time>
      </trkpt>
      <trkpt lat="46.65362" lon="6.26956">
        <ele>1094</ele>
        <time>2013-08-18T14:05:40.000Z</time>
      </trkpt>
      <trkpt lat="46.65361" lon="6.26962">
        <ele>1094</ele>
        <time>2013-08-18T14:05:41.000Z</time>
      </trkpt>
      <trkpt lat="46.65361" lon="6.26968">
        <ele>1094</ele>
        <time>2013-08-18T14:05:42.000Z</time>
      </trkpt>
      <trkpt lat="46.6536" lon="6.26973">
        <ele>1094</ele>
        <time>2013-08-18T14:05:43.000Z</time>
      </trkpt>
      <trkpt lat="46.6536" lon="6.26979">
        <ele>1093</ele>
        <time>2013-08-18T14:05:44.000Z</time>
      </trkpt>
      <trkpt lat="46.65359" lon="6.26985">
        <ele>1093</ele>
        <time>2013-08-18T14:05:45.000Z</time>
      </trkpt>
      <trkpt lat="46.65359" lon="6.26991">
        <ele>1093</ele>
        <time>2013-08-18T14:05:46.000Z</time>
      </trkpt>
      <trkpt lat="46.65358" lon="6.26997">
        <ele>1093</ele>
        <time>2013-08-18T14:05:47.000Z</time>
      </trkpt>
      <trkpt lat="46.65358" lon="6.27003">
        <ele>1093</ele>
        <time>2013-08-18T14:05:48.000Z</time>
      </trkpt>
      <trkpt lat="46.65357" lon="6.27009">
        <ele>1093</ele>
        <time>2013-08-18T14:05:49.000Z</time>
      </trkpt>
      <trkpt lat="46.65357" lon="6.27015">
        <ele>1093</ele>
        <time>2013-08-18T14:05:50.000Z</time>
      </trkpt>
      <trkpt lat="46.65357" lon="6.27022">
        <ele>1093</ele>
        <time>2013-08-18T14:05:51.000Z</time>
      </trkpt>
      <trkpt lat="46.65356" lon="6.27028">
        <ele>1093</ele>
        <time>2013-08-18T14:05:52.000Z</time>
      </trkpt>
      <trkpt lat="46.65356" lon="6.27035">
        <ele>1093</ele>
        <time>2013-08-18T14:05:53.000Z</time>
      </trkpt>
      <trkpt lat="46.65356" lon="6.27042">
        <ele>1093</ele>
        <time>2013-08-18T14:05:54.000Z</time>
      </trkpt>
      <trkpt lat="46.65355" lon="6.27056">
        <ele>1093</ele>
        <time>2013-08-18T14:05:56.000Z</time>
      </trkpt>
      <trkpt lat="46.65355" lon="6.27064">
        <ele>1093</ele>
        <time>2013-08-18T14:05:57.000Z</time>
      </trkpt>
      <trkpt lat="46.65354" lon="6.27071">
        <ele>1092</ele>
        <time>2013-08-18T14:05:58.000Z</time>
      </trkpt>
      <trkpt lat="46.65354" lon="6.27079">
        <ele>1092</ele>
        <time>2013-08-18T14:05:59.000Z</time>
      </trkpt>
      <trkpt lat="46.65353" lon="6.27087">
        <ele>1092</ele>
        <time>2013-08-18T14:06:00.000Z</time>
      </trkpt>
      <trkpt lat="46.65353" lon="6.27094">
        <ele>1092</ele>
        <time>2013-08-18T14:06:01.000Z</time>
      </trkpt>
      <trkpt lat="46.65353" lon="6.27102">
        <ele>1092</ele>
        <time>2013-08-18T14:06:02.000Z</time>
      </trkpt>
      <trkpt lat="46.65352" lon="6.27109">
        <ele>1092</ele>
        <time>2013-08-18T14:06:03.000Z</time>
      </trkpt>
      <trkpt lat="46.65352" lon="6.27116">
        <ele>1092</ele>
        <time>2013-08-18T14:06:04.000Z</time>
      </trkpt>
      <trkpt lat="46.65352" lon="6.27123">
        <ele>1092</ele>
        <time>2013-08-18T14:06:05.000Z</time>
      </trkpt>
      <trkpt lat="46.65351" lon="6.27131">
        <ele>1092</ele>
        <time>2013-08-18T14:06:06.000Z</time>
      </trkpt>
      <trkpt lat="46.65351" lon="6.27139">
        <ele>1092</ele>
        <time>2013-08-18T14:06:07.000Z</time>
      </trkpt>
      <trkpt lat="46.65351" lon="6.27147">
        <ele>1091</ele>
        <time>2013-08-18T14:06:08.000Z</time>
      </trkpt>
      <trkpt lat="46.6535" lon="6.27155">
        <ele>1090</ele>
        <time>2013-08-18T14:06:09.000Z</time>
      </trkpt>
      <trkpt lat="46.6535" lon="6.27163">
        <ele>1090</ele>
        <time>2013-08-18T14:06:10.000Z</time>
      </trkpt>
      <trkpt lat="46.65349" lon="6.27172">
        <ele>1089</ele>
        <time>2013-08-18T14:06:11.000Z</time>
      </trkpt>
      <trkpt lat="46.65348" lon="6.27181">
        <ele>1089</ele>
        <time>2013-08-18T14:06:12.000Z</time>
      </trkpt>
      <trkpt lat="46.65348" lon="6.2719">
        <ele>1090</ele>
        <time>2013-08-18T14:06:13.000Z</time>
      </trkpt>
      <trkpt lat="46.65347" lon="6.272">
        <ele>1090</ele>
        <time>2013-08-18T14:06:14.000Z</time>
      </trkpt>
      <trkpt lat="46.65347" lon="6.27209">
        <ele>1090</ele>
        <time>2013-08-18T14:06:15.000Z</time>
      </trkpt>
      <trkpt lat="46.65346" lon="6.27219">
        <ele>1090</ele>
        <time>2013-08-18T14:06:16.000Z</time>
      </trkpt>
      <trkpt lat="46.65346" lon="6.27228">
        <ele>1089</ele>
        <time>2013-08-18T14:06:17.000Z</time>
      </trkpt>
      <trkpt lat="46.65345" lon="6.27237">
        <ele>1088</ele>
        <time>2013-08-18T14:06:18.000Z</time>
      </trkpt>
      <trkpt lat="46.65345" lon="6.27247">
        <ele>1088</ele>
        <time>2013-08-18T14:06:19.000Z</time>
      </trkpt>
      <trkpt lat="46.65344" lon="6.27256">
        <ele>1087</ele>
        <time>2013-08-18T14:06:20.000Z</time>
      </trkpt>
      <trkpt lat="46.65343" lon="6.27265">
        <ele>1088</ele>
        <time>2013-08-18T14:06:21.000Z</time>
      </trkpt>
      <trkpt lat="46.65343" lon="6.27275">
        <ele>1088</ele>
        <time>2013-08-18T14:06:22.000Z</time>
      </trkpt>
      <trkpt lat="46.65342" lon="6.27284">
        <ele>1088</ele>
        <time>2013-08-18T14:06:23.000Z</time>
      </trkpt>
      <trkpt lat="46.65341" lon="6.27293">
        <ele>1088</ele>
        <time>2013-08-18T14:06:24.000Z</time>
      </trkpt>
      <trkpt lat="46.6534" lon="6.27303">
        <ele>1088</ele>
        <time>2013-08-18T14:06:25.000Z</time>
      </trkpt>
      <trkpt lat="46.65339" lon="6.27312">
        <ele>1088</ele>
        <time>2013-08-18T14:06:26.000Z</time>
      </trkpt>
      <trkpt lat="46.65338" lon="6.27322">
        <ele>1087</ele>
        <time>2013-08-18T14:06:27.000Z</time>
      </trkpt>
      <trkpt lat="46.65337" lon="6.27331">
        <ele>1086</ele>
        <time>2013-08-18T14:06:28.000Z</time>
      </trkpt>
      <trkpt lat="46.65335" lon="6.2734">
        <ele>1086</ele>
        <time>2013-08-18T14:06:29.000Z</time>
      </trkpt>
      <trkpt lat="46.65333" lon="6.27349">
        <ele>1085</ele>
        <time>2013-08-18T14:06:30.000Z</time>
      </trkpt>
      <trkpt lat="46.65331" lon="6.27356">
        <ele>1084</ele>
        <time>2013-08-18T14:06:31.000Z</time>
      </trkpt>
      <trkpt lat="46.65329" lon="6.27363">
        <ele>1084</ele>
        <time>2013-08-18T14:06:32.000Z</time>
      </trkpt>
      <trkpt lat="46.65327" lon="6.27369">
        <ele>1084</ele>
        <time>2013-08-18T14:06:33.000Z</time>
      </trkpt>
      <trkpt lat="46.65326" lon="6.27373">
        <ele>1084</ele>
        <time>2013-08-18T14:06:34.000Z</time>
      </trkpt>
      <trkpt lat="46.65325" lon="6.27377">
        <ele>1084</ele>
        <time>2013-08-18T14:06:35.000Z</time>
      </trkpt>
      <trkpt lat="46.65324" lon="6.2738">
        <ele>1084</ele>
        <time>2013-08-18T14:06:36.000Z</time>
      </trkpt>
      <trkpt lat="46.65323" lon="6.27383">
        <ele>1084</ele>
        <time>2013-08-18T14:06:37.000Z</time>
      </trkpt>
      <trkpt lat="46.65323" lon="6.27386">
        <ele>1084</ele>
        <time>2013-08-18T14:06:38.000Z</time>
      </trkpt>
      <trkpt lat="46.65323" lon="6.27392">
        <ele>1084</ele>
        <time>2013-08-18T14:06:40.000Z</time>
      </trkpt>
      <trkpt lat="46.65323" lon="6.27394">
        <ele>1084</ele>
        <time>2013-08-18T14:06:41.000Z</time>
      </trkpt>
      <trkpt lat="46.65323" lon="6.27396">
        <ele>1084</ele>
        <time>2013-08-18T14:06:42.000Z</time>
      </trkpt>
      <trkpt lat="46.65323" lon="6.27398">
        <ele>1084</ele>
        <time>2013-08-18T14:06:43.000Z</time>
      </trkpt>
      <trkpt lat="46.65323" lon="6.27399">
        <ele>1084</ele>
        <time>2013-08-18T14:06:44.000Z</time>
      </trkpt>
      <trkpt lat="46.65323" lon="6.274">
        <ele>1084</ele>
        <time>2013-08-18T14:06:45.000Z</time>
      </trkpt>
      <trkpt lat="46.65322" lon="6.27402">
        <ele>1084</ele>
        <time>2013-08-18T14:06:46.000Z</time>
      </trkpt>
      <trkpt lat="46.6532" lon="6.27404">
        <ele>1084</ele>
        <time>2013-08-18T14:06:47.000Z</time>
      </trkpt>
      <trkpt lat="46.65318" lon="6.27405">
        <ele>1084</ele>
        <time>2013-08-18T14:06:48.000Z</time>
      </trkpt>
      <trkpt lat="46.65316" lon="6.27406">
        <ele>1084</ele>
        <time>2013-08-18T14:06:49.000Z</time>
      </trkpt>
      <trkpt lat="46.65314" lon="6.27406">
        <ele>1084</ele>
        <time>2013-08-18T14:06:51.000Z</time>
      </trkpt>
      <trkpt lat="46.65314" lon="6.27406">
        <ele>1084</ele>
        <time>2013-08-18T14:06:58.000Z</time>
      </trkpt>
      <trkpt lat="46.65314" lon="6.27406">
        <ele>1084</ele>
        <time>2013-08-18T14:07:06.000Z</time>
      </trkpt>
      <trkpt lat="46.65315" lon="6.27406">
        <ele>1084</ele>
        <time>2013-08-18T14:07:14.000Z</time>
      </trkpt>
      <trkpt lat="46.65315" lon="6.27406">
        <ele>1084</ele>
        <time>2013-08-18T14:07:30.000Z</time>
      </trkpt>
      <trkpt lat="46.65315" lon="6.27406">
        <ele>1084</ele>
        <time>2013-08-18T14:07:31.000Z</time>
      </trkpt>
      <trkpt lat="46.65313" lon="6.27406">
        <ele>1084</ele>
        <time>2013-08-18T14:07:32.000Z</time>
      </trkpt>
      <trkpt lat="46.65311" lon="6.27407">
        <ele>1084</ele>
        <time>2013-08-18T14:07:33.000Z</time>
      </trkpt>
      <trkpt lat="46.65309" lon="6.27409">
        <ele>1084</ele>
        <time>2013-08-18T14:07:34.000Z</time>
      </trkpt>
      <trkpt lat="46.65307" lon="6.27412">
        <ele>1084</ele>
        <time>2013-08-18T14:07:35.000Z</time>
      </trkpt>
      <trkpt lat="46.65305" lon="6.27415">
        <ele>1084</ele>
        <time>2013-08-18T14:07:36.000Z</time>
      </trkpt>
      <trkpt lat="46.65302" lon="6.27418">
        <ele>1086</ele>
        <time>2013-08-18T14:07:37.000Z</time>
      </trkpt>
      <trkpt lat="46.653" lon="6.27422">
        <ele>1086</ele>
        <time>2013-08-18T14:07:38.000Z</time>
      </trkpt>
      <trkpt lat="46.65297" lon="6.27426">
        <ele>1086</ele>
        <time>2013-08-18T14:07:39.000Z</time>
      </trkpt>
      <trkpt lat="46.65295" lon="6.2743">
        <ele>1086</ele>
        <time>2013-08-18T14:07:40.000Z</time>
      </trkpt>
      <trkpt lat="46.65293" lon="6.27435">
        <ele>1086</ele>
        <time>2013-08-18T14:07:41.000Z</time>
      </trkpt>
      <trkpt lat="46.6529" lon="6.2744">
        <ele>1086</ele>
        <time>2013-08-18T14:07:42.000Z</time>
      </trkpt>
      <trkpt lat="46.65287" lon="6.27445">
        <ele>1086</ele>
        <time>2013-08-18T14:07:43.000Z</time>
      </trkpt>
      <trkpt lat="46.65285" lon="6.2745">
        <ele>1087</ele>
        <time>2013-08-18T14:07:44.000Z</time>
      </trkpt>
      <trkpt lat="46.65282" lon="6.27454">
        <ele>1087</ele>
        <time>2013-08-18T14:07:45.000Z</time>
      </trkpt>
      <trkpt lat="46.65279" lon="6.27459">
        <ele>1087</ele>
        <time>2013-08-18T14:07:46.000Z</time>
      </trkpt>
      <trkpt lat="46.65276" lon="6.27464">
        <ele>1087</ele>
        <time>2013-08-18T14:07:47.000Z</time>
      </trkpt>
      <trkpt lat="46.65273" lon="6.2747">
        <ele>1087</ele>
        <time>2013-08-18T14:07:48.000Z</time>
      </trkpt>
      <trkpt lat="46.6527" lon="6.27474">
        <ele>1087</ele>
        <time>2013-08-18T14:07:49.000Z</time>
      </trkpt>
      <trkpt lat="46.65266" lon="6.27479">
        <ele>1088</ele>
        <time>2013-08-18T14:07:50.000Z</time>
      </trkpt>
      <trkpt lat="46.65263" lon="6.27485">
        <ele>1088</ele>
        <time>2013-08-18T14:07:51.000Z</time>
      </trkpt>
      <trkpt lat="46.6526" lon="6.27491">
        <ele>1088</ele>
        <time>2013-08-18T14:07:52.000Z</time>
      </trkpt>
      <trkpt lat="46.65258" lon="6.27497">
        <ele>1088</ele>
        <time>2013-08-18T14:07:53.000Z</time>
      </trkpt>
      <trkpt lat="46.65254" lon="6.27502">
        <ele>1090</ele>
        <time>2013-08-18T14:07:54.000Z</time>
      </trkpt>
      <trkpt lat="46.65251" lon="6.27507">
        <ele>1090</ele>
        <time>2013-08-18T14:07:55.000Z</time>
      </trkpt>
      <trkpt lat="46.65248" lon="6.27513">
        <ele>1091</ele>
        <time>2013-08-18T14:07:56.000Z</time>
      </trkpt>
      <trkpt lat="46.65245" lon="6.27519">
        <ele>1091</ele>
        <time>2013-08-18T14:07:57.000Z</time>
      </trkpt>
      <trkpt lat="46.65242" lon="6.27524">
        <ele>1092</ele>
        <time>2013-08-18T14:07:58.000Z</time>
      </trkpt>
      <trkpt lat="46.65239" lon="6.27529">
        <ele>1092</ele>
        <time>2013-08-18T14:07:59.000Z</time>
      </trkpt>
      <trkpt lat="46.65236" lon="6.27534">
        <ele>1092</ele>
        <time>2013-08-18T14:08:00.000Z</time>
      </trkpt>
      <trkpt lat="46.65233" lon="6.27539">
        <ele>1093</ele>
        <time>2013-08-18T14:08:01.000Z</time>
      </trkpt>
      <trkpt lat="46.6523" lon="6.27544">
        <ele>1093</ele>
        <time>2013-08-18T14:08:02.000Z</time>
      </trkpt>
      <trkpt lat="46.65227" lon="6.27549">
        <ele>1093</ele>
        <time>2013-08-18T14:08:03.000Z</time>
      </trkpt>
      <trkpt lat="46.65224" lon="6.27555">
        <ele>1093</ele>
        <time>2013-08-18T14:08:04.000Z</time>
      </trkpt>
      <trkpt lat="46.65221" lon="6.2756">
        <ele>1093</ele>
        <time>2013-08-18T14:08:05.000Z</time>
      </trkpt>
      <trkpt lat="46.65218" lon="6.27566">
        <ele>1094</ele>
        <time>2013-08-18T14:08:06.000Z</time>
      </trkpt>
      <trkpt lat="46.65215" lon="6.27571">
        <ele>1094</ele>
        <time>2013-08-18T14:08:07.000Z</time>
      </trkpt>
      <trkpt lat="46.65212" lon="6.27577">
        <ele>1094</ele>
        <time>2013-08-18T14:08:08.000Z</time>
      </trkpt>
      <trkpt lat="46.65208" lon="6.27583">
        <ele>1094</ele>
        <time>2013-08-18T14:08:09.000Z</time>
      </trkpt>
      <trkpt lat="46.65205" lon="6.27589">
        <ele>1094</ele>
        <time>2013-08-18T14:08:10.000Z</time>
      </trkpt>
      <trkpt lat="46.65202" lon="6.27595">
        <ele>1094</ele>
        <time>2013-08-18T14:08:11.000Z</time>
      </trkpt>
      <trkpt lat="46.65199" lon="6.27602">
        <ele>1094</ele>
        <time>2013-08-18T14:08:12.000Z</time>
      </trkpt>
      <trkpt lat="46.65197" lon="6.27608">
        <ele>1094</ele>
        <time>2013-08-18T14:08:13.000Z</time>
      </trkpt>
      <trkpt lat="46.65194" lon="6.27615">
        <ele>1094</ele>
        <time>2013-08-18T14:08:14.000Z</time>
      </trkpt>
      <trkpt lat="46.65192" lon="6.27622">
        <ele>1094</ele>
        <time>2013-08-18T14:08:15.000Z</time>
      </trkpt>
      <trkpt lat="46.65189" lon="6.27629">
        <ele>1094</ele>
        <time>2013-08-18T14:08:16.000Z</time>
      </trkpt>
      <trkpt lat="46.65187" lon="6.27636">
        <ele>1093</ele>
        <time>2013-08-18T14:08:17.000Z</time>
      </trkpt>
      <trkpt lat="46.65184" lon="6.27642">
        <ele>1093</ele>
        <time>2013-08-18T14:08:18.000Z</time>
      </trkpt>
      <trkpt lat="46.65182" lon="6.27648">
        <ele>1092</ele>
        <time>2013-08-18T14:08:19.000Z</time>
      </trkpt>
      <trkpt lat="46.65179" lon="6.27656">
        <ele>1091</ele>
        <time>2013-08-18T14:08:20.000Z</time>
      </trkpt>
      <trkpt lat="46.65175" lon="6.27664">
        <ele>1090</ele>
        <time>2013-08-18T14:08:21.000Z</time>
      </trkpt>
      <trkpt lat="46.65172" lon="6.27674">
        <ele>1090</ele>
        <time>2013-08-18T14:08:22.000Z</time>
      </trkpt>
      <trkpt lat="46.6517" lon="6.27684">
        <ele>1091</ele>
        <time>2013-08-18T14:08:23.000Z</time>
      </trkpt>
      <trkpt lat="46.65169" lon="6.27694">
        <ele>1092</ele>
        <time>2013-08-18T14:08:24.000Z</time>
      </trkpt>
      <trkpt lat="46.65169" lon="6.27704">
        <ele>1092</ele>
        <time>2013-08-18T14:08:25.000Z</time>
      </trkpt>
      <trkpt lat="46.65168" lon="6.27713">
        <ele>1092</ele>
        <time>2013-08-18T14:08:26.000Z</time>
      </trkpt>
      <trkpt lat="46.65167" lon="6.27722">
        <ele>1092</ele>
        <time>2013-08-18T14:08:27.000Z</time>
      </trkpt>
      <trkpt lat="46.65166" lon="6.2773">
        <ele>1083</ele>
        <time>2013-08-18T14:08:28.000Z</time>
      </trkpt>
      <trkpt lat="46.65164" lon="6.27737">
        <ele>1084</ele>
        <time>2013-08-18T14:08:29.000Z</time>
      </trkpt>
      <trkpt lat="46.65161" lon="6.27744">
        <ele>1085</ele>
        <time>2013-08-18T14:08:30.000Z</time>
      </trkpt>
      <trkpt lat="46.65159" lon="6.2775">
        <ele>1085</ele>
        <time>2013-08-18T14:08:31.000Z</time>
      </trkpt>
      <trkpt lat="46.65156" lon="6.27755">
        <ele>1083</ele>
        <time>2013-08-18T14:08:32.000Z</time>
      </trkpt>
      <trkpt lat="46.65153" lon="6.27758">
        <ele>1082</ele>
        <time>2013-08-18T14:08:33.000Z</time>
      </trkpt>
      <trkpt lat="46.65152" lon="6.27762">
        <ele>1081</ele>
        <time>2013-08-18T14:08:34.000Z</time>
      </trkpt>
      <trkpt lat="46.65152" lon="6.27763">
        <ele>1081</ele>
        <time>2013-08-18T14:08:35.000Z</time>
      </trkpt>
      <trkpt lat="46.65151" lon="6.27764">
        <ele>1080</ele>
        <time>2013-08-18T14:08:37.000Z</time>
      </trkpt>
      <trkpt lat="46.65151" lon="6.27764">
        <ele>1080</ele>
        <time>2013-08-18T14:08:38.000Z</time>
      </trkpt>
      <trkpt lat="46.65151" lon="6.27764">
        <ele>1080</ele>
        <time>2013-08-18T14:08:40.000Z</time>
      </trkpt>
      <trkpt lat="46.65151" lon="6.27764">
        <ele>1080</ele>
        <time>2013-08-18T14:08:41.000Z</time>
      </trkpt>
      <trkpt lat="46.65151" lon="6.27765">
        <ele>1080</ele>
        <time>2013-08-18T14:08:43.000Z</time>
      </trkpt>
      <trkpt lat="46.65151" lon="6.27765">
        <ele>1080</ele>
        <time>2013-08-18T14:08:46.000Z</time>
      </trkpt>
      <trkpt lat="46.6515" lon="6.27765">
        <ele>1080</ele>
        <time>2013-08-18T14:08:50.000Z</time>
      </trkpt>
      <trkpt lat="46.6515" lon="6.27765">
        <ele>1080</ele>
        <time>2013-08-18T14:08:53.000Z</time>
      </trkpt>
      <trkpt lat="46.6515" lon="6.27765">
        <ele>1080</ele>
        <time>2013-08-18T14:08:55.000Z</time>
      </trkpt>
      <trkpt lat="46.6515" lon="6.27765">
        <ele>1080</ele>
        <time>2013-08-18T14:08:56.000Z</time>
      </trkpt>
      <trkpt lat="46.65149" lon="6.27766">
        <ele>1080</ele>
        <time>2013-08-18T14:08:57.000Z</time>
      </trkpt>
      <trkpt lat="46.65148" lon="6.27767">
        <ele>1080</ele>
        <time>2013-08-18T14:08:58.000Z</time>
      </trkpt>
      <trkpt lat="46.65147" lon="6.27767">
        <ele>1079</ele>
        <time>2013-08-18T14:08:59.000Z</time>
      </trkpt>
      <trkpt lat="46.65146" lon="6.27768">
        <ele>1079</ele>
        <time>2013-08-18T14:09:00.000Z</time>
      </trkpt>
      <trkpt lat="46.65143" lon="6.27768">
        <ele>1079</ele>
        <time>2013-08-18T14:09:01.000Z</time>
      </trkpt>
      <trkpt lat="46.6514" lon="6.27767">
        <ele>1078</ele>
        <time>2013-08-18T14:09:02.000Z</time>
      </trkpt>
      <trkpt lat="46.65134" lon="6.27767">
        <ele>1077</ele>
        <time>2013-08-18T14:09:04.000Z</time>
      </trkpt>
      <trkpt lat="46.65131" lon="6.27767">
        <ele>1077</ele>
        <time>2013-08-18T14:09:05.000Z</time>
      </trkpt>
      <trkpt lat="46.65127" lon="6.27766">
        <ele>1077</ele>
        <time>2013-08-18T14:09:06.000Z</time>
      </trkpt>
      <trkpt lat="46.65123" lon="6.27765">
        <ele>1076</ele>
        <time>2013-08-18T14:09:07.000Z</time>
      </trkpt>
      <trkpt lat="46.65119" lon="6.27764">
        <ele>1075</ele>
        <time>2013-08-18T14:09:08.000Z</time>
      </trkpt>
      <trkpt lat="46.65116" lon="6.27761">
        <ele>1075</ele>
        <time>2013-08-18T14:09:09.000Z</time>
      </trkpt>
      <trkpt lat="46.65112" lon="6.27759">
        <ele>1074</ele>
        <time>2013-08-18T14:09:10.000Z</time>
      </trkpt>
      <trkpt lat="46.65108" lon="6.27757">
        <ele>1074</ele>
        <time>2013-08-18T14:09:11.000Z</time>
      </trkpt>
      <trkpt lat="46.65104" lon="6.27754">
        <ele>1073</ele>
        <time>2013-08-18T14:09:12.000Z</time>
      </trkpt>
      <trkpt lat="46.65099" lon="6.27752">
        <ele>1072</ele>
        <time>2013-08-18T14:09:13.000Z</time>
      </trkpt>
      <trkpt lat="46.65095" lon="6.27749">
        <ele>1072</ele>
        <time>2013-08-18T14:09:14.000Z</time>
      </trkpt>
      <trkpt lat="46.65091" lon="6.27745">
        <ele>1072</ele>
        <time>2013-08-18T14:09:15.000Z</time>
      </trkpt>
      <trkpt lat="46.65086" lon="6.2774">
        <ele>1072</ele>
        <time>2013-08-18T14:09:16.000Z</time>
      </trkpt>
      <trkpt lat="46.65082" lon="6.27736">
        <ele>1068</ele>
        <time>2013-08-18T14:09:17.000Z</time>
      </trkpt>
      <trkpt lat="46.65078" lon="6.27731">
        <ele>1068</ele>
        <time>2013-08-18T14:09:18.000Z</time>
      </trkpt>
      <trkpt lat="46.65073" lon="6.27726">
        <ele>1068</ele>
        <time>2013-08-18T14:09:19.000Z</time>
      </trkpt>
      <trkpt lat="46.65068" lon="6.27722">
        <ele>1069</ele>
        <time>2013-08-18T14:09:20.000Z</time>
      </trkpt>
      <trkpt lat="46.65063" lon="6.27718">
        <ele>1069</ele>
        <time>2013-08-18T14:09:21.000Z</time>
      </trkpt>
      <trkpt lat="46.65057" lon="6.27715">
        <ele>1069</ele>
        <time>2013-08-18T14:09:22.000Z</time>
      </trkpt>
      <trkpt lat="46.65051" lon="6.27712">
        <ele>1068</ele>
        <time>2013-08-18T14:09:23.000Z</time>
      </trkpt>
      <trkpt lat="46.65045" lon="6.2771">
        <ele>1068</ele>
        <time>2013-08-18T14:09:24.000Z</time>
      </trkpt>
      <trkpt lat="46.65039" lon="6.27708">
        <ele>1068</ele>
        <time>2013-08-18T14:09:25.000Z</time>
      </trkpt>
      <trkpt lat="46.65033" lon="6.27706">
        <ele>1068</ele>
        <time>2013-08-18T14:09:26.000Z</time>
      </trkpt>
      <trkpt lat="46.65027" lon="6.27705">
        <ele>1068</ele>
        <time>2013-08-18T14:09:27.000Z</time>
      </trkpt>
      <trkpt lat="46.65021" lon="6.27702">
        <ele>1068</ele>
        <time>2013-08-18T14:09:28.000Z</time>
      </trkpt>
      <trkpt lat="46.65015" lon="6.277">
        <ele>1068</ele>
        <time>2013-08-18T14:09:29.000Z</time>
      </trkpt>
      <trkpt lat="46.65008" lon="6.27699">
        <ele>1068</ele>
        <time>2013-08-18T14:09:30.000Z</time>
      </trkpt>
      <trkpt lat="46.65002" lon="6.27697">
        <ele>1068</ele>
        <time>2013-08-18T14:09:31.000Z</time>
      </trkpt>
      <trkpt lat="46.64995" lon="6.27695">
        <ele>1063</ele>
        <time>2013-08-18T14:09:32.000Z</time>
      </trkpt>
      <trkpt lat="46.64988" lon="6.27692">
        <ele>1063</ele>
        <time>2013-08-18T14:09:33.000Z</time>
      </trkpt>
      <trkpt lat="46.64982" lon="6.2769">
        <ele>1063</ele>
        <time>2013-08-18T14:09:34.000Z</time>
      </trkpt>
      <trkpt lat="46.64975" lon="6.27687">
        <ele>1063</ele>
        <time>2013-08-18T14:09:35.000Z</time>
      </trkpt>
      <trkpt lat="46.64968" lon="6.27684">
        <ele>1062</ele>
        <time>2013-08-18T14:09:36.000Z</time>
      </trkpt>
      <trkpt lat="46.64962" lon="6.27681">
        <ele>1062</ele>
        <time>2013-08-18T14:09:37.000Z</time>
      </trkpt>
      <trkpt lat="46.64956" lon="6.27677">
        <ele>1062</ele>
        <time>2013-08-18T14:09:38.000Z</time>
      </trkpt>
      <trkpt lat="46.64951" lon="6.27672">
        <ele>1062</ele>
        <time>2013-08-18T14:09:39.000Z</time>
      </trkpt>
      <trkpt lat="46.64946" lon="6.27668">
        <ele>1061</ele>
        <time>2013-08-18T14:09:40.000Z</time>
      </trkpt>
      <trkpt lat="46.64942" lon="6.27663">
        <ele>1065</ele>
        <time>2013-08-18T14:09:41.000Z</time>
      </trkpt>
      <trkpt lat="46.64938" lon="6.27659">
        <ele>1065</ele>
        <time>2013-08-18T14:09:42.000Z</time>
      </trkpt>
      <trkpt lat="46.64935" lon="6.27656">
        <ele>1065</ele>
        <time>2013-08-18T14:09:43.000Z</time>
      </trkpt>
      <trkpt lat="46.64932" lon="6.27653">
        <ele>1065</ele>
        <time>2013-08-18T14:09:44.000Z</time>
      </trkpt>
      <trkpt lat="46.64928" lon="6.27651">
        <ele>1065</ele>
        <time>2013-08-18T14:09:45.000Z</time>
      </trkpt>
      <trkpt lat="46.64925" lon="6.2765">
        <ele>1065</ele>
        <time>2013-08-18T14:09:46.000Z</time>
      </trkpt>
      <trkpt lat="46.64921" lon="6.27648">
        <ele>1065</ele>
        <time>2013-08-18T14:09:47.000Z</time>
      </trkpt>
      <trkpt lat="46.64916" lon="6.27645">
        <ele>1061</ele>
        <time>2013-08-18T14:09:48.000Z</time>
      </trkpt>
      <trkpt lat="46.64911" lon="6.27642">
        <ele>1060</ele>
        <time>2013-08-18T14:09:49.000Z</time>
      </trkpt>
      <trkpt lat="46.64905" lon="6.27638">
        <ele>1060</ele>
        <time>2013-08-18T14:09:50.000Z</time>
      </trkpt>
      <trkpt lat="46.64898" lon="6.27635">
        <ele>1060</ele>
        <time>2013-08-18T14:09:51.000Z</time>
      </trkpt>
      <trkpt lat="46.6489" lon="6.27631">
        <ele>1060</ele>
        <time>2013-08-18T14:09:52.000Z</time>
      </trkpt>
      <trkpt lat="46.64883" lon="6.27625">
        <ele>1060</ele>
        <time>2013-08-18T14:09:53.000Z</time>
      </trkpt>
      <trkpt lat="46.64876" lon="6.27619">
        <ele>1060</ele>
        <time>2013-08-18T14:09:54.000Z</time>
      </trkpt>
      <trkpt lat="46.6487" lon="6.27614">
        <ele>1060</ele>
        <time>2013-08-18T14:09:55.000Z</time>
      </trkpt>
      <trkpt lat="46.64864" lon="6.27609">
        <ele>1060</ele>
        <time>2013-08-18T14:09:56.000Z</time>
      </trkpt>
      <trkpt lat="46.64858" lon="6.27606">
        <ele>1059</ele>
        <time>2013-08-18T14:09:57.000Z</time>
      </trkpt>
      <trkpt lat="46.64852" lon="6.27602">
        <ele>1059</ele>
        <time>2013-08-18T14:09:58.000Z</time>
      </trkpt>
      <trkpt lat="46.64846" lon="6.27598">
        <ele>1059</ele>
        <time>2013-08-18T14:09:59.000Z</time>
      </trkpt>
      <trkpt lat="46.64839" lon="6.27593">
        <ele>1059</ele>
        <time>2013-08-18T14:10:00.000Z</time>
      </trkpt>
      <trkpt lat="46.64832" lon="6.27588">
        <ele>1057</ele>
        <time>2013-08-18T14:10:01.000Z</time>
      </trkpt>
      <trkpt lat="46.64824" lon="6.27583">
        <ele>1058</ele>
        <time>2013-08-18T14:10:02.000Z</time>
      </trkpt>
      <trkpt lat="46.64817" lon="6.27576">
        <ele>1057</ele>
        <time>2013-08-18T14:10:03.000Z</time>
      </trkpt>
      <trkpt lat="46.6481" lon="6.2757">
        <ele>1056</ele>
        <time>2013-08-18T14:10:04.000Z</time>
      </trkpt>
      <trkpt lat="46.64803" lon="6.27563">
        <ele>1055</ele>
        <time>2013-08-18T14:10:05.000Z</time>
      </trkpt>
      <trkpt lat="46.64797" lon="6.27555">
        <ele>1055</ele>
        <time>2013-08-18T14:10:06.000Z</time>
      </trkpt>
      <trkpt lat="46.64792" lon="6.27546">
        <ele>1055</ele>
        <time>2013-08-18T14:10:07.000Z</time>
      </trkpt>
      <trkpt lat="46.64787" lon="6.27539">
        <ele>1055</ele>
        <time>2013-08-18T14:10:08.000Z</time>
      </trkpt>
      <trkpt lat="46.64782" lon="6.27532">
        <ele>1054</ele>
        <time>2013-08-18T14:10:09.000Z</time>
      </trkpt>
      <trkpt lat="46.64777" lon="6.27526">
        <ele>1054</ele>
        <time>2013-08-18T14:10:10.000Z</time>
      </trkpt>
      <trkpt lat="46.64773" lon="6.27521">
        <ele>1054</ele>
        <time>2013-08-18T14:10:11.000Z</time>
      </trkpt>
      <trkpt lat="46.64769" lon="6.27517">
        <ele>1054</ele>
        <time>2013-08-18T14:10:12.000Z</time>
      </trkpt>
      <trkpt lat="46.64764" lon="6.27515">
        <ele>1053</ele>
        <time>2013-08-18T14:10:13.000Z</time>
      </trkpt>
      <trkpt lat="46.64758" lon="6.27514">
        <ele>1053</ele>
        <time>2013-08-18T14:10:14.000Z</time>
      </trkpt>
      <trkpt lat="46.64753" lon="6.27516">
        <ele>1053</ele>
        <time>2013-08-18T14:10:15.000Z</time>
      </trkpt>
      <trkpt lat="46.64746" lon="6.27519">
        <ele>1049</ele>
        <time>2013-08-18T14:10:16.000Z</time>
      </trkpt>
      <trkpt lat="46.6474" lon="6.27525">
        <ele>1049</ele>
        <time>2013-08-18T14:10:17.000Z</time>
      </trkpt>
      <trkpt lat="46.64734" lon="6.27532">
        <ele>1048</ele>
        <time>2013-08-18T14:10:18.000Z</time>
      </trkpt>
      <trkpt lat="46.64729" lon="6.27541">
        <ele>1048</ele>
        <time>2013-08-18T14:10:19.000Z</time>
      </trkpt>
      <trkpt lat="46.64725" lon="6.2755">
        <ele>1047</ele>
        <time>2013-08-18T14:10:20.000Z</time>
      </trkpt>
      <trkpt lat="46.64721" lon="6.27561">
        <ele>1047</ele>
        <time>2013-08-18T14:10:21.000Z</time>
      </trkpt>
      <trkpt lat="46.64718" lon="6.27572">
        <ele>1047</ele>
        <time>2013-08-18T14:10:22.000Z</time>
      </trkpt>
      <trkpt lat="46.64716" lon="6.27583">
        <ele>1046</ele>
        <time>2013-08-18T14:10:23.000Z</time>
      </trkpt>
      <trkpt lat="46.64713" lon="6.27595">
        <ele>1043</ele>
        <time>2013-08-18T14:10:24.000Z</time>
      </trkpt>
      <trkpt lat="46.64711" lon="6.27606">
        <ele>1043</ele>
        <time>2013-08-18T14:10:25.000Z</time>
      </trkpt>
      <trkpt lat="46.6471" lon="6.27617">
        <ele>1043</ele>
        <time>2013-08-18T14:10:26.000Z</time>
      </trkpt>
      <trkpt lat="46.64708" lon="6.27627">
        <ele>1042</ele>
        <time>2013-08-18T14:10:27.000Z</time>
      </trkpt>
      <trkpt lat="46.64707" lon="6.27637">
        <ele>1042</ele>
        <time>2013-08-18T14:10:28.000Z</time>
      </trkpt>
      <trkpt lat="46.64707" lon="6.27645">
        <ele>1042</ele>
        <time>2013-08-18T14:10:29.000Z</time>
      </trkpt>
      <trkpt lat="46.64707" lon="6.27654">
        <ele>1042</ele>
        <time>2013-08-18T14:10:30.000Z</time>
      </trkpt>
      <trkpt lat="46.64706" lon="6.27662">
        <ele>1042</ele>
        <time>2013-08-18T14:10:31.000Z</time>
      </trkpt>
      <trkpt lat="46.64706" lon="6.27671">
        <ele>1040</ele>
        <time>2013-08-18T14:10:32.000Z</time>
      </trkpt>
      <trkpt lat="46.64707" lon="6.27688">
        <ele>1040</ele>
        <time>2013-08-18T14:10:34.000Z</time>
      </trkpt>
      <trkpt lat="46.64708" lon="6.27697">
        <ele>1040</ele>
        <time>2013-08-18T14:10:35.000Z</time>
      </trkpt>
      <trkpt lat="46.6471" lon="6.27706">
        <ele>1040</ele>
        <time>2013-08-18T14:10:36.000Z</time>
      </trkpt>
      <trkpt lat="46.64711" lon="6.27714">
        <ele>1039</ele>
        <time>2013-08-18T14:10:37.000Z</time>
      </trkpt>
      <trkpt lat="46.64713" lon="6.27723">
        <ele>1039</ele>
        <time>2013-08-18T14:10:38.000Z</time>
      </trkpt>
      <trkpt lat="46.64714" lon="6.27732">
        <ele>1039</ele>
        <time>2013-08-18T14:10:39.000Z</time>
      </trkpt>
      <trkpt lat="46.64716" lon="6.2774">
        <ele>1039</ele>
        <time>2013-08-18T14:10:40.000Z</time>
      </trkpt>
      <trkpt lat="46.64717" lon="6.27749">
        <ele>1039</ele>
        <time>2013-08-18T14:10:41.000Z</time>
      </trkpt>
      <trkpt lat="46.64719" lon="6.27758">
        <ele>1038</ele>
        <time>2013-08-18T14:10:42.000Z</time>
      </trkpt>
      <trkpt lat="46.64721" lon="6.27767">
        <ele>1038</ele>
        <time>2013-08-18T14:10:43.000Z</time>
      </trkpt>
      <trkpt lat="46.64722" lon="6.27776">
        <ele>1038</ele>
        <time>2013-08-18T14:10:44.000Z</time>
      </trkpt>
      <trkpt lat="46.64724" lon="6.27785">
        <ele>1038</ele>
        <time>2013-08-18T14:10:45.000Z</time>
      </trkpt>
      <trkpt lat="46.64726" lon="6.27794">
        <ele>1038</ele>
        <time>2013-08-18T14:10:46.000Z</time>
      </trkpt>
      <trkpt lat="46.64728" lon="6.27803">
        <ele>1038</ele>
        <time>2013-08-18T14:10:47.000Z</time>
      </trkpt>
      <trkpt lat="46.64729" lon="6.27811">
        <ele>1038</ele>
        <time>2013-08-18T14:10:48.000Z</time>
      </trkpt>
      <trkpt lat="46.64731" lon="6.2782">
        <ele>1038</ele>
        <time>2013-08-18T14:10:49.000Z</time>
      </trkpt>
      <trkpt lat="46.64733" lon="6.27828">
        <ele>1038</ele>
        <time>2013-08-18T14:10:50.000Z</time>
      </trkpt>
      <trkpt lat="46.64735" lon="6.27836">
        <ele>1038</ele>
        <time>2013-08-18T14:10:51.000Z</time>
      </trkpt>
      <trkpt lat="46.64737" lon="6.27844">
        <ele>1038</ele>
        <time>2013-08-18T14:10:52.000Z</time>
      </trkpt>
      <trkpt lat="46.64739" lon="6.27852">
        <ele>1038</ele>
        <time>2013-08-18T14:10:53.000Z</time>
      </trkpt>
      <trkpt lat="46.64741" lon="6.27861">
        <ele>1038</ele>
        <time>2013-08-18T14:10:54.000Z</time>
      </trkpt>
      <trkpt lat="46.64742" lon="6.27869">
        <ele>1038</ele>
        <time>2013-08-18T14:10:55.000Z</time>
      </trkpt>
      <trkpt lat="46.64745" lon="6.27877">
        <ele>1038</ele>
        <time>2013-08-18T14:10:56.000Z</time>
      </trkpt>
      <trkpt lat="46.64747" lon="6.27885">
        <ele>1038</ele>
        <time>2013-08-18T14:10:57.000Z</time>
      </trkpt>
      <trkpt lat="46.6475" lon="6.27893">
        <ele>1038</ele>
        <time>2013-08-18T14:10:58.000Z</time>
      </trkpt>
      <trkpt lat="46.64752" lon="6.27901">
        <ele>1041</ele>
        <time>2013-08-18T14:10:59.000Z</time>
      </trkpt>
      <trkpt lat="46.64754" lon="6.27909">
        <ele>1041</ele>
        <time>2013-08-18T14:11:00.000Z</time>
      </trkpt>
      <trkpt lat="46.64756" lon="6.27917">
        <ele>1040</ele>
        <time>2013-08-18T14:11:01.000Z</time>
      </trkpt>
      <trkpt lat="46.64758" lon="6.27925">
        <ele>1040</ele>
        <time>2013-08-18T14:11:02.000Z</time>
      </trkpt>
      <trkpt lat="46.64759" lon="6.27933">
        <ele>1041</ele>
        <time>2013-08-18T14:11:03.000Z</time>
      </trkpt>
      <trkpt lat="46.64761" lon="6.27941">
        <ele>1041</ele>
        <time>2013-08-18T14:11:04.000Z</time>
      </trkpt>
      <trkpt lat="46.64762" lon="6.27949">
        <ele>1042</ele>
        <time>2013-08-18T14:11:05.000Z</time>
      </trkpt>
      <trkpt lat="46.64764" lon="6.27957">
        <ele>1042</ele>
        <time>2013-08-18T14:11:06.000Z</time>
      </trkpt>
      <trkpt lat="46.64766" lon="6.27964">
        <ele>1041</ele>
        <time>2013-08-18T14:11:07.000Z</time>
      </trkpt>
      <trkpt lat="46.64768" lon="6.27972">
        <ele>1041</ele>
        <time>2013-08-18T14:11:08.000Z</time>
      </trkpt>
      <trkpt lat="46.6477" lon="6.27979">
        <ele>1041</ele>
        <time>2013-08-18T14:11:09.000Z</time>
      </trkpt>
      <trkpt lat="46.64771" lon="6.27987">
        <ele>1041</ele>
        <time>2013-08-18T14:11:10.000Z</time>
      </trkpt>
      <trkpt lat="46.64772" lon="6.27994">
        <ele>1041</ele>
        <time>2013-08-18T14:11:11.000Z</time>
      </trkpt>
      <trkpt lat="46.64774" lon="6.28001">
        <ele>1040</ele>
        <time>2013-08-18T14:11:12.000Z</time>
      </trkpt>
      <trkpt lat="46.64775" lon="6.28008">
        <ele>1040</ele>
        <time>2013-08-18T14:11:13.000Z</time>
      </trkpt>
      <trkpt lat="46.64777" lon="6.28015">
        <ele>1041</ele>
        <time>2013-08-18T14:11:14.000Z</time>
      </trkpt>
      <trkpt lat="46.64778" lon="6.28023">
        <ele>1041</ele>
        <time>2013-08-18T14:11:15.000Z</time>
      </trkpt>
      <trkpt lat="46.6478" lon="6.28031">
        <ele>1041</ele>
        <time>2013-08-18T14:11:16.000Z</time>
      </trkpt>
      <trkpt lat="46.64782" lon="6.28039">
        <ele>1041</ele>
        <time>2013-08-18T14:11:17.000Z</time>
      </trkpt>
      <trkpt lat="46.64783" lon="6.28046">
        <ele>1042</ele>
        <time>2013-08-18T14:11:18.000Z</time>
      </trkpt>
      <trkpt lat="46.64785" lon="6.28054">
        <ele>1042</ele>
        <time>2013-08-18T14:11:19.000Z</time>
      </trkpt>
      <trkpt lat="46.64787" lon="6.28061">
        <ele>1042</ele>
        <time>2013-08-18T14:11:20.000Z</time>
      </trkpt>
      <trkpt lat="46.64788" lon="6.28068">
        <ele>1042</ele>
        <time>2013-08-18T14:11:21.000Z</time>
      </trkpt>
      <trkpt lat="46.6479" lon="6.28075">
        <ele>1042</ele>
        <time>2013-08-18T14:11:22.000Z</time>
      </trkpt>
      <trkpt lat="46.64791" lon="6.28083">
        <ele>1042</ele>
        <time>2013-08-18T14:11:23.000Z</time>
      </trkpt>
      <trkpt lat="46.6479" lon="6.2809">
        <ele>1043</ele>
        <time>2013-08-18T14:11:24.000Z</time>
      </trkpt>
      <trkpt lat="46.64788" lon="6.28096">
        <ele>1043</ele>
        <time>2013-08-18T14:11:25.000Z</time>
      </trkpt>
      <trkpt lat="46.64785" lon="6.28101">
        <ele>1042</ele>
        <time>2013-08-18T14:11:26.000Z</time>
      </trkpt>
      <trkpt lat="46.64782" lon="6.28106">
        <ele>1042</ele>
        <time>2013-08-18T14:11:27.000Z</time>
      </trkpt>
      <trkpt lat="46.64778" lon="6.28111">
        <ele>1042</ele>
        <time>2013-08-18T14:11:28.000Z</time>
      </trkpt>
      <trkpt lat="46.64775" lon="6.28116">
        <ele>1042</ele>
        <time>2013-08-18T14:11:29.000Z</time>
      </trkpt>
      <trkpt lat="46.64772" lon="6.2812">
        <ele>1042</ele>
        <time>2013-08-18T14:11:30.000Z</time>
      </trkpt>
      <trkpt lat="46.64768" lon="6.28124">
        <ele>1042</ele>
        <time>2013-08-18T14:11:31.000Z</time>
      </trkpt>
      <trkpt lat="46.64764" lon="6.28127">
        <ele>1042</ele>
        <time>2013-08-18T14:11:32.000Z</time>
      </trkpt>
      <trkpt lat="46.64759" lon="6.28129">
        <ele>1042</ele>
        <time>2013-08-18T14:11:33.000Z</time>
      </trkpt>
      <trkpt lat="46.64755" lon="6.28131">
        <ele>1042</ele>
        <time>2013-08-18T14:11:34.000Z</time>
      </trkpt>
      <trkpt lat="46.64751" lon="6.28134">
        <ele>1042</ele>
        <time>2013-08-18T14:11:35.000Z</time>
      </trkpt>
      <trkpt lat="46.64747" lon="6.28136">
        <ele>1041</ele>
        <time>2013-08-18T14:11:36.000Z</time>
      </trkpt>
      <trkpt lat="46.64742" lon="6.28138">
        <ele>1041</ele>
        <time>2013-08-18T14:11:37.000Z</time>
      </trkpt>
      <trkpt lat="46.64738" lon="6.2814">
        <ele>1041</ele>
        <time>2013-08-18T14:11:38.000Z</time>
      </trkpt>
      <trkpt lat="46.64734" lon="6.2814">
        <ele>1041</ele>
        <time>2013-08-18T14:11:39.000Z</time>
      </trkpt>
      <trkpt lat="46.64731" lon="6.28138">
        <ele>1041</ele>
        <time>2013-08-18T14:11:40.000Z</time>
      </trkpt>
      <trkpt lat="46.64729" lon="6.28134">
        <ele>1041</ele>
        <time>2013-08-18T14:11:41.000Z</time>
      </trkpt>
      <trkpt lat="46.64727" lon="6.2813">
        <ele>1041</ele>
        <time>2013-08-18T14:11:42.000Z</time>
      </trkpt>
      <trkpt lat="46.64724" lon="6.28125">
        <ele>1041</ele>
        <time>2013-08-18T14:11:43.000Z</time>
      </trkpt>
      <trkpt lat="46.64721" lon="6.28121">
        <ele>1040</ele>
        <time>2013-08-18T14:11:44.000Z</time>
      </trkpt>
      <trkpt lat="46.64719" lon="6.28117">
        <ele>1040</ele>
        <time>2013-08-18T14:11:45.000Z</time>
      </trkpt>
      <trkpt lat="46.64716" lon="6.28113">
        <ele>1040</ele>
        <time>2013-08-18T14:11:46.000Z</time>
      </trkpt>
      <trkpt lat="46.64714" lon="6.28109">
        <ele>1040</ele>
        <time>2013-08-18T14:11:47.000Z</time>
      </trkpt>
      <trkpt lat="46.64711" lon="6.28107">
        <ele>1040</ele>
        <time>2013-08-18T14:11:48.000Z</time>
      </trkpt>
      <trkpt lat="46.64709" lon="6.28104">
        <ele>1040</ele>
        <time>2013-08-18T14:11:49.000Z</time>
      </trkpt>
      <trkpt lat="46.64706" lon="6.28101">
        <ele>1040</ele>
        <time>2013-08-18T14:11:50.000Z</time>
      </trkpt>
      <trkpt lat="46.64704" lon="6.28098">
        <ele>1040</ele>
        <time>2013-08-18T14:11:51.000Z</time>
      </trkpt>
      <trkpt lat="46.64701" lon="6.28095">
        <ele>1041</ele>
        <time>2013-08-18T14:11:52.000Z</time>
      </trkpt>
      <trkpt lat="46.64698" lon="6.28092">
        <ele>1041</ele>
        <time>2013-08-18T14:11:53.000Z</time>
      </trkpt>
      <trkpt lat="46.64695" lon="6.28089">
        <ele>1041</ele>
        <time>2013-08-18T14:11:54.000Z</time>
      </trkpt>
      <trkpt lat="46.64692" lon="6.28087">
        <ele>1041</ele>
        <time>2013-08-18T14:11:55.000Z</time>
      </trkpt>
      <trkpt lat="46.64688" lon="6.28086">
        <ele>1041</ele>
        <time>2013-08-18T14:11:56.000Z</time>
      </trkpt>
      <trkpt lat="46.64684" lon="6.28087">
        <ele>1041</ele>
        <time>2013-08-18T14:11:57.000Z</time>
      </trkpt>
      <trkpt lat="46.6468" lon="6.28089">
        <ele>1041</ele>
        <time>2013-08-18T14:11:58.000Z</time>
      </trkpt>
      <trkpt lat="46.64677" lon="6.28092">
        <ele>1041</ele>
        <time>2013-08-18T14:11:59.000Z</time>
      </trkpt>
      <trkpt lat="46.64675" lon="6.28095">
        <ele>1041</ele>
        <time>2013-08-18T14:12:00.000Z</time>
      </trkpt>
      <trkpt lat="46.64673" lon="6.28098">
        <ele>1041</ele>
        <time>2013-08-18T14:12:01.000Z</time>
      </trkpt>
      <trkpt lat="46.6467" lon="6.28101">
        <ele>1041</ele>
        <time>2013-08-18T14:12:02.000Z</time>
      </trkpt>
      <trkpt lat="46.64669" lon="6.28105">
        <ele>1041</ele>
        <time>2013-08-18T14:12:03.000Z</time>
      </trkpt>
      <trkpt lat="46.64667" lon="6.28108">
        <ele>1041</ele>
        <time>2013-08-18T14:12:04.000Z</time>
      </trkpt>
      <trkpt lat="46.64666" lon="6.28112">
        <ele>1044</ele>
        <time>2013-08-18T14:12:05.000Z</time>
      </trkpt>
      <trkpt lat="46.64665" lon="6.28115">
        <ele>1045</ele>
        <time>2013-08-18T14:12:06.000Z</time>
      </trkpt>
      <trkpt lat="46.64663" lon="6.28118">
        <ele>1045</ele>
        <time>2013-08-18T14:12:07.000Z</time>
      </trkpt>
      <trkpt lat="46.64662" lon="6.28121">
        <ele>1045</ele>
        <time>2013-08-18T14:12:08.000Z</time>
      </trkpt>
      <trkpt lat="46.64662" lon="6.28125">
        <ele>1045</ele>
        <time>2013-08-18T14:12:09.000Z</time>
      </trkpt>
      <trkpt lat="46.64661" lon="6.28128">
        <ele>1045</ele>
        <time>2013-08-18T14:12:10.000Z</time>
      </trkpt>
      <trkpt lat="46.64661" lon="6.28132">
        <ele>1045</ele>
        <time>2013-08-18T14:12:11.000Z</time>
      </trkpt>
      <trkpt lat="46.64661" lon="6.28138">
        <ele>1045</ele>
        <time>2013-08-18T14:12:13.000Z</time>
      </trkpt>
      <trkpt lat="46.64661" lon="6.28142">
        <ele>1045</ele>
        <time>2013-08-18T14:12:14.000Z</time>
      </trkpt>
      <trkpt lat="46.64662" lon="6.28145">
        <ele>1045</ele>
        <time>2013-08-18T14:12:15.000Z</time>
      </trkpt>
      <trkpt lat="46.64662" lon="6.28148">
        <ele>1045</ele>
        <time>2013-08-18T14:12:16.000Z</time>
      </trkpt>
      <trkpt lat="46.64662" lon="6.28152">
        <ele>1045</ele>
        <time>2013-08-18T14:12:17.000Z</time>
      </trkpt>
      <trkpt lat="46.64663" lon="6.28155">
        <ele>1044</ele>
        <time>2013-08-18T14:12:18.000Z</time>
      </trkpt>
      <trkpt lat="46.64664" lon="6.28158">
        <ele>1044</ele>
        <time>2013-08-18T14:12:19.000Z</time>
      </trkpt>
      <trkpt lat="46.64665" lon="6.28162">
        <ele>1044</ele>
        <time>2013-08-18T14:12:20.000Z</time>
      </trkpt>
      <trkpt lat="46.64666" lon="6.28165">
        <ele>1043</ele>
        <time>2013-08-18T14:12:21.000Z</time>
      </trkpt>
      <trkpt lat="46.64667" lon="6.28168">
        <ele>1043</ele>
        <time>2013-08-18T14:12:22.000Z</time>
      </trkpt>
      <trkpt lat="46.64668" lon="6.28171">
        <ele>1043</ele>
        <time>2013-08-18T14:12:23.000Z</time>
      </trkpt>
      <trkpt lat="46.64669" lon="6.28174">
        <ele>1043</ele>
        <time>2013-08-18T14:12:24.000Z</time>
      </trkpt>
      <trkpt lat="46.6467" lon="6.28177">
        <ele>1043</ele>
        <time>2013-08-18T14:12:25.000Z</time>
      </trkpt>
      <trkpt lat="46.64671" lon="6.2818">
        <ele>1043</ele>
        <time>2013-08-18T14:12:26.000Z</time>
      </trkpt>
      <trkpt lat="46.64672" lon="6.28183">
        <ele>1043</ele>
        <time>2013-08-18T14:12:27.000Z</time>
      </trkpt>
      <trkpt lat="46.64673" lon="6.28187">
        <ele>1043</ele>
        <time>2013-08-18T14:12:28.000Z</time>
      </trkpt>
      <trkpt lat="46.64674" lon="6.2819">
        <ele>1043</ele>
        <time>2013-08-18T14:12:29.000Z</time>
      </trkpt>
      <trkpt lat="46.64675" lon="6.28193">
        <ele>1043</ele>
        <time>2013-08-18T14:12:30.000Z</time>
      </trkpt>
      <trkpt lat="46.64676" lon="6.28196">
        <ele>1043</ele>
        <time>2013-08-18T14:12:31.000Z</time>
      </trkpt>
      <trkpt lat="46.64677" lon="6.28199">
        <ele>1043</ele>
        <time>2013-08-18T14:12:32.000Z</time>
      </trkpt>
      <trkpt lat="46.64678" lon="6.28202">
        <ele>1044</ele>
        <time>2013-08-18T14:12:33.000Z</time>
      </trkpt>
      <trkpt lat="46.6468" lon="6.28205">
        <ele>1044</ele>
        <time>2013-08-18T14:12:34.000Z</time>
      </trkpt>
      <trkpt lat="46.64681" lon="6.28209">
        <ele>1044</ele>
        <time>2013-08-18T14:12:35.000Z</time>
      </trkpt>
      <trkpt lat="46.64682" lon="6.28212">
        <ele>1044</ele>
        <time>2013-08-18T14:12:36.000Z</time>
      </trkpt>
      <trkpt lat="46.64683" lon="6.28215">
        <ele>1044</ele>
        <time>2013-08-18T14:12:37.000Z</time>
      </trkpt>
      <trkpt lat="46.64684" lon="6.28218">
        <ele>1044</ele>
        <time>2013-08-18T14:12:38.000Z</time>
      </trkpt>
      <trkpt lat="46.64685" lon="6.28221">
        <ele>1044</ele>
        <time>2013-08-18T14:12:39.000Z</time>
      </trkpt>
      <trkpt lat="46.64687" lon="6.28224">
        <ele>1044</ele>
        <time>2013-08-18T14:12:40.000Z</time>
      </trkpt>
      <trkpt lat="46.64688" lon="6.28227">
        <ele>1044</ele>
        <time>2013-08-18T14:12:41.000Z</time>
      </trkpt>
      <trkpt lat="46.64689" lon="6.2823">
        <ele>1044</ele>
        <time>2013-08-18T14:12:42.000Z</time>
      </trkpt>
      <trkpt lat="46.64691" lon="6.28233">
        <ele>1044</ele>
        <time>2013-08-18T14:12:43.000Z</time>
      </trkpt>
      <trkpt lat="46.64692" lon="6.28236">
        <ele>1044</ele>
        <time>2013-08-18T14:12:44.000Z</time>
      </trkpt>
      <trkpt lat="46.64693" lon="6.28239">
        <ele>1044</ele>
        <time>2013-08-18T14:12:45.000Z</time>
      </trkpt>
      <trkpt lat="46.64694" lon="6.28242">
        <ele>1044</ele>
        <time>2013-08-18T14:12:46.000Z</time>
      </trkpt>
      <trkpt lat="46.64695" lon="6.28245">
        <ele>1044</ele>
        <time>2013-08-18T14:12:47.000Z</time>
      </trkpt>
      <trkpt lat="46.64697" lon="6.28248">
        <ele>1044</ele>
        <time>2013-08-18T14:12:48.000Z</time>
      </trkpt>
      <trkpt lat="46.64698" lon="6.28251">
        <ele>1046</ele>
        <time>2013-08-18T14:12:49.000Z</time>
      </trkpt>
      <trkpt lat="46.64699" lon="6.28254">
        <ele>1046</ele>
        <time>2013-08-18T14:12:50.000Z</time>
      </trkpt>
      <trkpt lat="46.64701" lon="6.28258">
        <ele>1046</ele>
        <time>2013-08-18T14:12:51.000Z</time>
      </trkpt>
      <trkpt lat="46.64702" lon="6.28261">
        <ele>1046</ele>
        <time>2013-08-18T14:12:52.000Z</time>
      </trkpt>
      <trkpt lat="46.64703" lon="6.28264">
        <ele>1046</ele>
        <time>2013-08-18T14:12:53.000Z</time>
      </trkpt>
      <trkpt lat="46.64705" lon="6.28268">
        <ele>1046</ele>
        <time>2013-08-18T14:12:54.000Z</time>
      </trkpt>
      <trkpt lat="46.64706" lon="6.28271">
        <ele>1046</ele>
        <time>2013-08-18T14:12:55.000Z</time>
      </trkpt>
      <trkpt lat="46.64708" lon="6.28274">
        <ele>1046</ele>
        <time>2013-08-18T14:12:56.000Z</time>
      </trkpt>
      <trkpt lat="46.64709" lon="6.28277">
        <ele>1046</ele>
        <time>2013-08-18T14:12:57.000Z</time>
      </trkpt>
      <trkpt lat="46.6471" lon="6.2828">
        <ele>1046</ele>
        <time>2013-08-18T14:12:58.000Z</time>
      </trkpt>
      <trkpt lat="46.64711" lon="6.28283">
        <ele>1046</ele>
        <time>2013-08-18T14:12:59.000Z</time>
      </trkpt>
      <trkpt lat="46.64712" lon="6.28286">
        <ele>1046</ele>
        <time>2013-08-18T14:13:00.000Z</time>
      </trkpt>
      <trkpt lat="46.64714" lon="6.28289">
        <ele>1046</ele>
        <time>2013-08-18T14:13:01.000Z</time>
      </trkpt>
      <trkpt lat="46.64715" lon="6.28292">
        <ele>1046</ele>
        <time>2013-08-18T14:13:02.000Z</time>
      </trkpt>
      <trkpt lat="46.64716" lon="6.28296">
        <ele>1046</ele>
        <time>2013-08-18T14:13:03.000Z</time>
      </trkpt>
      <trkpt lat="46.64717" lon="6.28299">
        <ele>1046</ele>
        <time>2013-08-18T14:13:04.000Z</time>
      </trkpt>
      <trkpt lat="46.64719" lon="6.28302">
        <ele>1046</ele>
        <time>2013-08-18T14:13:05.000Z</time>
      </trkpt>
      <trkpt lat="46.6472" lon="6.28305">
        <ele>1046</ele>
        <time>2013-08-18T14:13:06.000Z</time>
      </trkpt>
      <trkpt lat="46.64721" lon="6.28308">
        <ele>1046</ele>
        <time>2013-08-18T14:13:07.000Z</time>
      </trkpt>
      <trkpt lat="46.64723" lon="6.28311">
        <ele>1046</ele>
        <time>2013-08-18T14:13:08.000Z</time>
      </trkpt>
      <trkpt lat="46.64724" lon="6.28314">
        <ele>1046</ele>
        <time>2013-08-18T14:13:09.000Z</time>
      </trkpt>
      <trkpt lat="46.64725" lon="6.28317">
        <ele>1045</ele>
        <time>2013-08-18T14:13:10.000Z</time>
      </trkpt>
      <trkpt lat="46.64727" lon="6.2832">
        <ele>1045</ele>
        <time>2013-08-18T14:13:11.000Z</time>
      </trkpt>
      <trkpt lat="46.64728" lon="6.28323">
        <ele>1045</ele>
        <time>2013-08-18T14:13:12.000Z</time>
      </trkpt>
      <trkpt lat="46.64729" lon="6.28327">
        <ele>1045</ele>
        <time>2013-08-18T14:13:13.000Z</time>
      </trkpt>
      <trkpt lat="46.64731" lon="6.2833">
        <ele>1045</ele>
        <time>2013-08-18T14:13:14.000Z</time>
      </trkpt>
      <trkpt lat="46.64732" lon="6.28333">
        <ele>1045</ele>
        <time>2013-08-18T14:13:15.000Z</time>
      </trkpt>
      <trkpt lat="46.64733" lon="6.28335">
        <ele>1047</ele>
        <time>2013-08-18T14:13:16.000Z</time>
      </trkpt>
      <trkpt lat="46.64734" lon="6.28338">
        <ele>1047</ele>
        <time>2013-08-18T14:13:17.000Z</time>
      </trkpt>
      <trkpt lat="46.64735" lon="6.28341">
        <ele>1047</ele>
        <time>2013-08-18T14:13:18.000Z</time>
      </trkpt>
      <trkpt lat="46.64736" lon="6.28344">
        <ele>1047</ele>
        <time>2013-08-18T14:13:19.000Z</time>
      </trkpt>
      <trkpt lat="46.64737" lon="6.28347">
        <ele>1047</ele>
        <time>2013-08-18T14:13:20.000Z</time>
      </trkpt>
      <trkpt lat="46.64738" lon="6.2835">
        <ele>1047</ele>
        <time>2013-08-18T14:13:21.000Z</time>
      </trkpt>
      <trkpt lat="46.64739" lon="6.28352">
        <ele>1047</ele>
        <time>2013-08-18T14:13:22.000Z</time>
      </trkpt>
      <trkpt lat="46.64741" lon="6.28355">
        <ele>1047</ele>
        <time>2013-08-18T14:13:23.000Z</time>
      </trkpt>
      <trkpt lat="46.64742" lon="6.28358">
        <ele>1048</ele>
        <time>2013-08-18T14:13:24.000Z</time>
      </trkpt>
      <trkpt lat="46.64742" lon="6.28361">
        <ele>1048</ele>
        <time>2013-08-18T14:13:25.000Z</time>
      </trkpt>
      <trkpt lat="46.64742" lon="6.28364">
        <ele>1048</ele>
        <time>2013-08-18T14:13:26.000Z</time>
      </trkpt>
      <trkpt lat="46.64741" lon="6.28367">
        <ele>1048</ele>
        <time>2013-08-18T14:13:27.000Z</time>
      </trkpt>
      <trkpt lat="46.6474" lon="6.2837">
        <ele>1048</ele>
        <time>2013-08-18T14:13:28.000Z</time>
      </trkpt>
      <trkpt lat="46.6474" lon="6.28373">
        <ele>1049</ele>
        <time>2013-08-18T14:13:29.000Z</time>
      </trkpt>
      <trkpt lat="46.64739" lon="6.28375">
        <ele>1049</ele>
        <time>2013-08-18T14:13:30.000Z</time>
      </trkpt>
      <trkpt lat="46.64738" lon="6.28378">
        <ele>1049</ele>
        <time>2013-08-18T14:13:31.000Z</time>
      </trkpt>
      <trkpt lat="46.64737" lon="6.2838">
        <ele>1049</ele>
        <time>2013-08-18T14:13:32.000Z</time>
      </trkpt>
      <trkpt lat="46.64737" lon="6.28383">
        <ele>1049</ele>
        <time>2013-08-18T14:13:33.000Z</time>
      </trkpt>
      <trkpt lat="46.64736" lon="6.28385">
        <ele>1049</ele>
        <time>2013-08-18T14:13:34.000Z</time>
      </trkpt>
      <trkpt lat="46.64736" lon="6.28388">
        <ele>1049</ele>
        <time>2013-08-18T14:13:35.000Z</time>
      </trkpt>
      <trkpt lat="46.64736" lon="6.2839">
        <ele>1049</ele>
        <time>2013-08-18T14:13:36.000Z</time>
      </trkpt>
      <trkpt lat="46.64736" lon="6.28392">
        <ele>1049</ele>
        <time>2013-08-18T14:13:37.000Z</time>
      </trkpt>
      <trkpt lat="46.64737" lon="6.28393">
        <ele>1049</ele>
        <time>2013-08-18T14:13:38.000Z</time>
      </trkpt>
      <trkpt lat="46.64737" lon="6.28394">
        <ele>1049</ele>
        <time>2013-08-18T14:13:39.000Z</time>
      </trkpt>
      <trkpt lat="46.64737" lon="6.28395">
        <ele>1049</ele>
        <time>2013-08-18T14:13:40.000Z</time>
      </trkpt>
      <trkpt lat="46.64737" lon="6.28397">
        <ele>1049</ele>
        <time>2013-08-18T14:13:41.000Z</time>
      </trkpt>
      <trkpt lat="46.64737" lon="6.28398">
        <ele>1049</ele>
        <time>2013-08-18T14:13:42.000Z</time>
      </trkpt>
      <trkpt lat="46.64736" lon="6.28399">
        <ele>1049</ele>
        <time>2013-08-18T14:13:43.000Z</time>
      </trkpt>
      <trkpt lat="46.64735" lon="6.28399">
        <ele>1049</ele>
        <time>2013-08-18T14:13:44.000Z</time>
      </trkpt>
      <trkpt lat="46.64733" lon="6.284">
        <ele>1049</ele>
        <time>2013-08-18T14:13:45.000Z</time>
      </trkpt>
      <trkpt lat="46.64732" lon="6.28401">
        <ele>1049</ele>
        <time>2013-08-18T14:13:46.000Z</time>
      </trkpt>
      <trkpt lat="46.6473" lon="6.28402">
        <ele>1049</ele>
        <time>2013-08-18T14:13:47.000Z</time>
      </trkpt>
      <trkpt lat="46.64729" lon="6.28404">
        <ele>1050</ele>
        <time>2013-08-18T14:13:48.000Z</time>
      </trkpt>
      <trkpt lat="46.64727" lon="6.28406">
        <ele>1050</ele>
        <time>2013-08-18T14:13:49.000Z</time>
      </trkpt>
      <trkpt lat="46.64726" lon="6.28408">
        <ele>1050</ele>
        <time>2013-08-18T14:13:50.000Z</time>
      </trkpt>
      <trkpt lat="46.64724" lon="6.28409">
        <ele>1050</ele>
        <time>2013-08-18T14:13:51.000Z</time>
      </trkpt>
      <trkpt lat="46.64723" lon="6.2841">
        <ele>1050</ele>
        <time>2013-08-18T14:13:52.000Z</time>
      </trkpt>
      <trkpt lat="46.64722" lon="6.28411">
        <ele>1050</ele>
        <time>2013-08-18T14:13:53.000Z</time>
      </trkpt>
      <trkpt lat="46.64721" lon="6.28412">
        <ele>1050</ele>
        <time>2013-08-18T14:13:54.000Z</time>
      </trkpt>
      <trkpt lat="46.64719" lon="6.28412">
        <ele>1050</ele>
        <time>2013-08-18T14:13:55.000Z</time>
      </trkpt>
      <trkpt lat="46.64718" lon="6.28413">
        <ele>1051</ele>
        <time>2013-08-18T14:13:56.000Z</time>
      </trkpt>
      <trkpt lat="46.64717" lon="6.28413">
        <ele>1051</ele>
        <time>2013-08-18T14:13:57.000Z</time>
      </trkpt>
      <trkpt lat="46.64715" lon="6.28413">
        <ele>1051</ele>
        <time>2013-08-18T14:13:58.000Z</time>
      </trkpt>
      <trkpt lat="46.64714" lon="6.28412">
        <ele>1051</ele>
        <time>2013-08-18T14:13:59.000Z</time>
      </trkpt>
      <trkpt lat="46.64713" lon="6.28412">
        <ele>1051</ele>
        <time>2013-08-18T14:14:00.000Z</time>
      </trkpt>
      <trkpt lat="46.64711" lon="6.2841">
        <ele>1051</ele>
        <time>2013-08-18T14:14:01.000Z</time>
      </trkpt>
      <trkpt lat="46.6471" lon="6.28409">
        <ele>1051</ele>
        <time>2013-08-18T14:14:02.000Z</time>
      </trkpt>
      <trkpt lat="46.64709" lon="6.28407">
        <ele>1051</ele>
        <time>2013-08-18T14:14:03.000Z</time>
      </trkpt>
      <trkpt lat="46.64708" lon="6.28405">
        <ele>1051</ele>
        <time>2013-08-18T14:14:04.000Z</time>
      </trkpt>
      <trkpt lat="46.64707" lon="6.28403">
        <ele>1052</ele>
        <time>2013-08-18T14:14:05.000Z</time>
      </trkpt>
      <trkpt lat="46.64706" lon="6.28402">
        <ele>1052</ele>
        <time>2013-08-18T14:14:06.000Z</time>
      </trkpt>
      <trkpt lat="46.64705" lon="6.284">
        <ele>1052</ele>
        <time>2013-08-18T14:14:07.000Z</time>
      </trkpt>
      <trkpt lat="46.64704" lon="6.28398">
        <ele>1052</ele>
        <time>2013-08-18T14:14:08.000Z</time>
      </trkpt>
      <trkpt lat="46.64703" lon="6.28396">
        <ele>1052</ele>
        <time>2013-08-18T14:14:09.000Z</time>
      </trkpt>
      <trkpt lat="46.64703" lon="6.28394">
        <ele>1052</ele>
        <time>2013-08-18T14:14:10.000Z</time>
      </trkpt>
      <trkpt lat="46.64702" lon="6.28392">
        <ele>1052</ele>
        <time>2013-08-18T14:14:11.000Z</time>
      </trkpt>
      <trkpt lat="46.64701" lon="6.2839">
        <ele>1052</ele>
        <time>2013-08-18T14:14:12.000Z</time>
      </trkpt>
      <trkpt lat="46.647" lon="6.28388">
        <ele>1052</ele>
        <time>2013-08-18T14:14:13.000Z</time>
      </trkpt>
      <trkpt lat="46.64698" lon="6.28386">
        <ele>1052</ele>
        <time>2013-08-18T14:14:14.000Z</time>
      </trkpt>
      <trkpt lat="46.64698" lon="6.28384">
        <ele>1052</ele>
        <time>2013-08-18T14:14:15.000Z</time>
      </trkpt>
      <trkpt lat="46.64696" lon="6.28382">
        <ele>1052</ele>
        <time>2013-08-18T14:14:16.000Z</time>
      </trkpt>
      <trkpt lat="46.64695" lon="6.2838">
        <ele>1052</ele>
        <time>2013-08-18T14:14:17.000Z</time>
      </trkpt>
      <trkpt lat="46.64694" lon="6.28378">
        <ele>1052</ele>
        <time>2013-08-18T14:14:18.000Z</time>
      </trkpt>
      <trkpt lat="46.64693" lon="6.28376">
        <ele>1051</ele>
        <time>2013-08-18T14:14:19.000Z</time>
      </trkpt>
      <trkpt lat="46.64692" lon="6.28374">
        <ele>1051</ele>
        <time>2013-08-18T14:14:20.000Z</time>
      </trkpt>
      <trkpt lat="46.64691" lon="6.28371">
        <ele>1051</ele>
        <time>2013-08-18T14:14:21.000Z</time>
      </trkpt>
      <trkpt lat="46.6469" lon="6.28369">
        <ele>1051</ele>
        <time>2013-08-18T14:14:22.000Z</time>
      </trkpt>
      <trkpt lat="46.64688" lon="6.28367">
        <ele>1051</ele>
        <time>2013-08-18T14:14:23.000Z</time>
      </trkpt>
      <trkpt lat="46.64687" lon="6.28365">
        <ele>1051</ele>
        <time>2013-08-18T14:14:24.000Z</time>
      </trkpt>
      <trkpt lat="46.64686" lon="6.28363">
        <ele>1051</ele>
        <time>2013-08-18T14:14:25.000Z</time>
      </trkpt>
      <trkpt lat="46.64685" lon="6.2836">
        <ele>1051</ele>
        <time>2013-08-18T14:14:26.000Z</time>
      </trkpt>
      <trkpt lat="46.64683" lon="6.28358">
        <ele>1051</ele>
        <time>2013-08-18T14:14:27.000Z</time>
      </trkpt>
      <trkpt lat="46.64682" lon="6.28357">
        <ele>1051</ele>
        <time>2013-08-18T14:14:28.000Z</time>
      </trkpt>
      <trkpt lat="46.64681" lon="6.28355">
        <ele>1051</ele>
        <time>2013-08-18T14:14:29.000Z</time>
      </trkpt>
      <trkpt lat="46.64679" lon="6.28353">
        <ele>1051</ele>
        <time>2013-08-18T14:14:30.000Z</time>
      </trkpt>
      <trkpt lat="46.64678" lon="6.28351">
        <ele>1051</ele>
        <time>2013-08-18T14:14:31.000Z</time>
      </trkpt>
      <trkpt lat="46.64676" lon="6.28348">
        <ele>1051</ele>
        <time>2013-08-18T14:14:32.000Z</time>
      </trkpt>
      <trkpt lat="46.64675" lon="6.28346">
        <ele>1051</ele>
        <time>2013-08-18T14:14:33.000Z</time>
      </trkpt>
      <trkpt lat="46.64674" lon="6.28344">
        <ele>1052</ele>
        <time>2013-08-18T14:14:34.000Z</time>
      </trkpt>
      <trkpt lat="46.64673" lon="6.28342">
        <ele>1052</ele>
        <time>2013-08-18T14:14:35.000Z</time>
      </trkpt>
      <trkpt lat="46.64671" lon="6.2834">
        <ele>1052</ele>
        <time>2013-08-18T14:14:36.000Z</time>
      </trkpt>
      <trkpt lat="46.6467" lon="6.28338">
        <ele>1052</ele>
        <time>2013-08-18T14:14:37.000Z</time>
      </trkpt>
      <trkpt lat="46.64668" lon="6.28336">
        <ele>1052</ele>
        <time>2013-08-18T14:14:38.000Z</time>
      </trkpt>
      <trkpt lat="46.64667" lon="6.28334">
        <ele>1052</ele>
        <time>2013-08-18T14:14:39.000Z</time>
      </trkpt>
      <trkpt lat="46.64665" lon="6.28331">
        <ele>1052</ele>
        <time>2013-08-18T14:14:40.000Z</time>
      </trkpt>
      <trkpt lat="46.64664" lon="6.2833">
        <ele>1053</ele>
        <time>2013-08-18T14:14:41.000Z</time>
      </trkpt>
      <trkpt lat="46.64662" lon="6.28328">
        <ele>1053</ele>
        <time>2013-08-18T14:14:42.000Z</time>
      </trkpt>
      <trkpt lat="46.64661" lon="6.28326">
        <ele>1053</ele>
        <time>2013-08-18T14:14:43.000Z</time>
      </trkpt>
      <trkpt lat="46.64659" lon="6.28324">
        <ele>1053</ele>
        <time>2013-08-18T14:14:44.000Z</time>
      </trkpt>
      <trkpt lat="46.64658" lon="6.28322">
        <ele>1053</ele>
        <time>2013-08-18T14:14:45.000Z</time>
      </trkpt>
      <trkpt lat="46.64657" lon="6.28319">
        <ele>1053</ele>
        <time>2013-08-18T14:14:46.000Z</time>
      </trkpt>
      <trkpt lat="46.64655" lon="6.28318">
        <ele>1054</ele>
        <time>2013-08-18T14:14:47.000Z</time>
      </trkpt>
      <trkpt lat="46.64654" lon="6.28315">
        <ele>1054</ele>
        <time>2013-08-18T14:14:48.000Z</time>
      </trkpt>
      <trkpt lat="46.64652" lon="6.28313">
        <ele>1054</ele>
        <time>2013-08-18T14:14:49.000Z</time>
      </trkpt>
      <trkpt lat="46.64651" lon="6.28311">
        <ele>1054</ele>
        <time>2013-08-18T14:14:50.000Z</time>
      </trkpt>
      <trkpt lat="46.64649" lon="6.28309">
        <ele>1054</ele>
        <time>2013-08-18T14:14:51.000Z</time>
      </trkpt>
      <trkpt lat="46.64648" lon="6.28308">
        <ele>1054</ele>
        <time>2013-08-18T14:14:52.000Z</time>
      </trkpt>
      <trkpt lat="46.64646" lon="6.28305">
        <ele>1054</ele>
        <time>2013-08-18T14:14:53.000Z</time>
      </trkpt>
      <trkpt lat="46.64645" lon="6.28303">
        <ele>1054</ele>
        <time>2013-08-18T14:14:54.000Z</time>
      </trkpt>
      <trkpt lat="46.64643" lon="6.28301">
        <ele>1054</ele>
        <time>2013-08-18T14:14:55.000Z</time>
      </trkpt>
      <trkpt lat="46.64642" lon="6.28299">
        <ele>1054</ele>
        <time>2013-08-18T14:14:56.000Z</time>
      </trkpt>
      <trkpt lat="46.6464" lon="6.28297">
        <ele>1054</ele>
        <time>2013-08-18T14:14:57.000Z</time>
      </trkpt>
      <trkpt lat="46.64639" lon="6.28295">
        <ele>1054</ele>
        <time>2013-08-18T14:14:58.000Z</time>
      </trkpt>
      <trkpt lat="46.64637" lon="6.28293">
        <ele>1054</ele>
        <time>2013-08-18T14:14:59.000Z</time>
      </trkpt>
      <trkpt lat="46.64636" lon="6.28291">
        <ele>1054</ele>
        <time>2013-08-18T14:15:00.000Z</time>
      </trkpt>
      <trkpt lat="46.64634" lon="6.28289">
        <ele>1055</ele>
        <time>2013-08-18T14:15:01.000Z</time>
      </trkpt>
      <trkpt lat="46.64633" lon="6.28288">
        <ele>1055</ele>
        <time>2013-08-18T14:15:02.000Z</time>
      </trkpt>
      <trkpt lat="46.64631" lon="6.28286">
        <ele>1055</ele>
        <time>2013-08-18T14:15:03.000Z</time>
      </trkpt>
      <trkpt lat="46.6463" lon="6.28284">
        <ele>1055</ele>
        <time>2013-08-18T14:15:04.000Z</time>
      </trkpt>
      <trkpt lat="46.64628" lon="6.28282">
        <ele>1055</ele>
        <time>2013-08-18T14:15:05.000Z</time>
      </trkpt>
      <trkpt lat="46.64626" lon="6.2828">
        <ele>1055</ele>
        <time>2013-08-18T14:15:06.000Z</time>
      </trkpt>
      <trkpt lat="46.64625" lon="6.28278">
        <ele>1055</ele>
        <time>2013-08-18T14:15:07.000Z</time>
      </trkpt>
      <trkpt lat="46.64623" lon="6.28276">
        <ele>1055</ele>
        <time>2013-08-18T14:15:08.000Z</time>
      </trkpt>
      <trkpt lat="46.64622" lon="6.28275">
        <ele>1055</ele>
        <time>2013-08-18T14:15:09.000Z</time>
      </trkpt>
      <trkpt lat="46.6462" lon="6.28273">
        <ele>1055</ele>
        <time>2013-08-18T14:15:10.000Z</time>
      </trkpt>
      <trkpt lat="46.64618" lon="6.28271">
        <ele>1055</ele>
        <time>2013-08-18T14:15:11.000Z</time>
      </trkpt>
      <trkpt lat="46.64617" lon="6.2827">
        <ele>1056</ele>
        <time>2013-08-18T14:15:12.000Z</time>
      </trkpt>
      <trkpt lat="46.64615" lon="6.28269">
        <ele>1056</ele>
        <time>2013-08-18T14:15:13.000Z</time>
      </trkpt>
      <trkpt lat="46.64613" lon="6.28267">
        <ele>1056</ele>
        <time>2013-08-18T14:15:14.000Z</time>
      </trkpt>
      <trkpt lat="46.64611" lon="6.28266">
        <ele>1056</ele>
        <time>2013-08-18T14:15:15.000Z</time>
      </trkpt>
      <trkpt lat="46.64609" lon="6.28265">
        <ele>1056</ele>
        <time>2013-08-18T14:15:16.000Z</time>
      </trkpt>
      <trkpt lat="46.64607" lon="6.28264">
        <ele>1056</ele>
        <time>2013-08-18T14:15:17.000Z</time>
      </trkpt>
      <trkpt lat="46.64605" lon="6.28263">
        <ele>1057</ele>
        <time>2013-08-18T14:15:18.000Z</time>
      </trkpt>
      <trkpt lat="46.64603" lon="6.28262">
        <ele>1057</ele>
        <time>2013-08-18T14:15:19.000Z</time>
      </trkpt>
      <trkpt lat="46.64602" lon="6.28261">
        <ele>1057</ele>
        <time>2013-08-18T14:15:20.000Z</time>
      </trkpt>
      <trkpt lat="46.646" lon="6.2826">
        <ele>1057</ele>
        <time>2013-08-18T14:15:21.000Z</time>
      </trkpt>
      <trkpt lat="46.64598" lon="6.28259">
        <ele>1057</ele>
        <time>2013-08-18T14:15:22.000Z</time>
      </trkpt>
      <trkpt lat="46.64596" lon="6.28258">
        <ele>1058</ele>
        <time>2013-08-18T14:15:23.000Z</time>
      </trkpt>
      <trkpt lat="46.64594" lon="6.28257">
        <ele>1058</ele>
        <time>2013-08-18T14:15:24.000Z</time>
      </trkpt>
      <trkpt lat="46.64593" lon="6.28255">
        <ele>1058</ele>
        <time>2013-08-18T14:15:25.000Z</time>
      </trkpt>
      <trkpt lat="46.64591" lon="6.28254">
        <ele>1059</ele>
        <time>2013-08-18T14:15:26.000Z</time>
      </trkpt>
      <trkpt lat="46.64589" lon="6.28253">
        <ele>1059</ele>
        <time>2013-08-18T14:15:27.000Z</time>
      </trkpt>
      <trkpt lat="46.64588" lon="6.28252">
        <ele>1059</ele>
        <time>2013-08-18T14:15:28.000Z</time>
      </trkpt>
      <trkpt lat="46.64586" lon="6.28251">
        <ele>1059</ele>
        <time>2013-08-18T14:15:29.000Z</time>
      </trkpt>
      <trkpt lat="46.64584" lon="6.28249">
        <ele>1060</ele>
        <time>2013-08-18T14:15:30.000Z</time>
      </trkpt>
      <trkpt lat="46.64583" lon="6.28248">
        <ele>1060</ele>
        <time>2013-08-18T14:15:31.000Z</time>
      </trkpt>
      <trkpt lat="46.64581" lon="6.28246">
        <ele>1060</ele>
        <time>2013-08-18T14:15:32.000Z</time>
      </trkpt>
      <trkpt lat="46.64579" lon="6.28244">
        <ele>1060</ele>
        <time>2013-08-18T14:15:33.000Z</time>
      </trkpt>
      <trkpt lat="46.64578" lon="6.28242">
        <ele>1061</ele>
        <time>2013-08-18T14:15:34.000Z</time>
      </trkpt>
      <trkpt lat="46.64576" lon="6.2824">
        <ele>1061</ele>
        <time>2013-08-18T14:15:35.000Z</time>
      </trkpt>
      <trkpt lat="46.64574" lon="6.28238">
        <ele>1061</ele>
        <time>2013-08-18T14:15:36.000Z</time>
      </trkpt>
      <trkpt lat="46.64572" lon="6.28236">
        <ele>1061</ele>
        <time>2013-08-18T14:15:37.000Z</time>
      </trkpt>
      <trkpt lat="46.64571" lon="6.28233">
        <ele>1061</ele>
        <time>2013-08-18T14:15:38.000Z</time>
      </trkpt>
      <trkpt lat="46.64569" lon="6.28231">
        <ele>1061</ele>
        <time>2013-08-18T14:15:39.000Z</time>
      </trkpt>
      <trkpt lat="46.64567" lon="6.28229">
        <ele>1061</ele>
        <time>2013-08-18T14:15:40.000Z</time>
      </trkpt>
      <trkpt lat="46.64566" lon="6.28226">
        <ele>1061</ele>
        <time>2013-08-18T14:15:41.000Z</time>
      </trkpt>
      <trkpt lat="46.64564" lon="6.28224">
        <ele>1061</ele>
        <time>2013-08-18T14:15:42.000Z</time>
      </trkpt>
      <trkpt lat="46.64563" lon="6.28222">
        <ele>1061</ele>
        <time>2013-08-18T14:15:43.000Z</time>
      </trkpt>
      <trkpt lat="46.64562" lon="6.28219">
        <ele>1061</ele>
        <time>2013-08-18T14:15:44.000Z</time>
      </trkpt>
      <trkpt lat="46.6456" lon="6.28217">
        <ele>1061</ele>
        <time>2013-08-18T14:15:45.000Z</time>
      </trkpt>
      <trkpt lat="46.64559" lon="6.28215">
        <ele>1061</ele>
        <time>2013-08-18T14:15:46.000Z</time>
      </trkpt>
      <trkpt lat="46.64557" lon="6.28213">
        <ele>1061</ele>
        <time>2013-08-18T14:15:47.000Z</time>
      </trkpt>
      <trkpt lat="46.64556" lon="6.2821">
        <ele>1061</ele>
        <time>2013-08-18T14:15:48.000Z</time>
      </trkpt>
      <trkpt lat="46.64554" lon="6.28208">
        <ele>1061</ele>
        <time>2013-08-18T14:15:49.000Z</time>
      </trkpt>
      <trkpt lat="46.64553" lon="6.28206">
        <ele>1061</ele>
        <time>2013-08-18T14:15:50.000Z</time>
      </trkpt>
      <trkpt lat="46.64551" lon="6.28204">
        <ele>1061</ele>
        <time>2013-08-18T14:15:51.000Z</time>
      </trkpt>
      <trkpt lat="46.64549" lon="6.28202">
        <ele>1061</ele>
        <time>2013-08-18T14:15:52.000Z</time>
      </trkpt>
      <trkpt lat="46.64548" lon="6.28201">
        <ele>1061</ele>
        <time>2013-08-18T14:15:53.000Z</time>
      </trkpt>
      <trkpt lat="46.64546" lon="6.28199">
        <ele>1061</ele>
        <time>2013-08-18T14:15:54.000Z</time>
      </trkpt>
      <trkpt lat="46.64544" lon="6.28197">
        <ele>1061</ele>
        <time>2013-08-18T14:15:55.000Z</time>
      </trkpt>
      <trkpt lat="46.64542" lon="6.28195">
        <ele>1061</ele>
        <time>2013-08-18T14:15:56.000Z</time>
      </trkpt>
      <trkpt lat="46.6454" lon="6.28193">
        <ele>1061</ele>
        <time>2013-08-18T14:15:57.000Z</time>
      </trkpt>
      <trkpt lat="46.64538" lon="6.28191">
        <ele>1062</ele>
        <time>2013-08-18T14:15:58.000Z</time>
      </trkpt>
      <trkpt lat="46.64536" lon="6.28189">
        <ele>1062</ele>
        <time>2013-08-18T14:15:59.000Z</time>
      </trkpt>
      <trkpt lat="46.64534" lon="6.28187">
        <ele>1062</ele>
        <time>2013-08-18T14:16:00.000Z</time>
      </trkpt>
      <trkpt lat="46.64532" lon="6.28185">
        <ele>1062</ele>
        <time>2013-08-18T14:16:01.000Z</time>
      </trkpt>
      <trkpt lat="46.6453" lon="6.28183">
        <ele>1062</ele>
        <time>2013-08-18T14:16:02.000Z</time>
      </trkpt>
      <trkpt lat="46.64528" lon="6.28181">
        <ele>1062</ele>
        <time>2013-08-18T14:16:03.000Z</time>
      </trkpt>
      <trkpt lat="46.64525" lon="6.2818">
        <ele>1062</ele>
        <time>2013-08-18T14:16:04.000Z</time>
      </trkpt>
      <trkpt lat="46.64523" lon="6.28179">
        <ele>1062</ele>
        <time>2013-08-18T14:16:05.000Z</time>
      </trkpt>
      <trkpt lat="46.64521" lon="6.28178">
        <ele>1062</ele>
        <time>2013-08-18T14:16:06.000Z</time>
      </trkpt>
      <trkpt lat="46.64519" lon="6.28179">
        <ele>1063</ele>
        <time>2013-08-18T14:16:07.000Z</time>
      </trkpt>
      <trkpt lat="46.64517" lon="6.2818">
        <ele>1063</ele>
        <time>2013-08-18T14:16:08.000Z</time>
      </trkpt>
      <trkpt lat="46.64515" lon="6.28182">
        <ele>1063</ele>
        <time>2013-08-18T14:16:09.000Z</time>
      </trkpt>
      <trkpt lat="46.64514" lon="6.28183">
        <ele>1063</ele>
        <time>2013-08-18T14:16:10.000Z</time>
      </trkpt>
      <trkpt lat="46.64513" lon="6.28185">
        <ele>1063</ele>
        <time>2013-08-18T14:16:11.000Z</time>
      </trkpt>
      <trkpt lat="46.64511" lon="6.28187">
        <ele>1063</ele>
        <time>2013-08-18T14:16:12.000Z</time>
      </trkpt>
      <trkpt lat="46.6451" lon="6.28188">
        <ele>1063</ele>
        <time>2013-08-18T14:16:13.000Z</time>
      </trkpt>
      <trkpt lat="46.64509" lon="6.2819">
        <ele>1063</ele>
        <time>2013-08-18T14:16:14.000Z</time>
      </trkpt>
      <trkpt lat="46.64508" lon="6.28192">
        <ele>1063</ele>
        <time>2013-08-18T14:16:15.000Z</time>
      </trkpt>
      <trkpt lat="46.64507" lon="6.28194">
        <ele>1063</ele>
        <time>2013-08-18T14:16:16.000Z</time>
      </trkpt>
      <trkpt lat="46.64506" lon="6.28195">
        <ele>1063</ele>
        <time>2013-08-18T14:16:17.000Z</time>
      </trkpt>
      <trkpt lat="46.64505" lon="6.28197">
        <ele>1063</ele>
        <time>2013-08-18T14:16:18.000Z</time>
      </trkpt>
      <trkpt lat="46.64503" lon="6.28198">
        <ele>1063</ele>
        <time>2013-08-18T14:16:19.000Z</time>
      </trkpt>
      <trkpt lat="46.64502" lon="6.28199">
        <ele>1063</ele>
        <time>2013-08-18T14:16:20.000Z</time>
      </trkpt>
      <trkpt lat="46.64501" lon="6.282">
        <ele>1063</ele>
        <time>2013-08-18T14:16:21.000Z</time>
      </trkpt>
      <trkpt lat="46.64499" lon="6.28202">
        <ele>1063</ele>
        <time>2013-08-18T14:16:22.000Z</time>
      </trkpt>
      <trkpt lat="46.64498" lon="6.28204">
        <ele>1063</ele>
        <time>2013-08-18T14:16:23.000Z</time>
      </trkpt>
      <trkpt lat="46.64497" lon="6.28205">
        <ele>1063</ele>
        <time>2013-08-18T14:16:24.000Z</time>
      </trkpt>
      <trkpt lat="46.64496" lon="6.28207">
        <ele>1063</ele>
        <time>2013-08-18T14:16:25.000Z</time>
      </trkpt>
      <trkpt lat="46.64495" lon="6.28209">
        <ele>1063</ele>
        <time>2013-08-18T14:16:26.000Z</time>
      </trkpt>
      <trkpt lat="46.64494" lon="6.28211">
        <ele>1063</ele>
        <time>2013-08-18T14:16:27.000Z</time>
      </trkpt>
      <trkpt lat="46.64493" lon="6.28213">
        <ele>1063</ele>
        <time>2013-08-18T14:16:28.000Z</time>
      </trkpt>
      <trkpt lat="46.64492" lon="6.28215">
        <ele>1063</ele>
        <time>2013-08-18T14:16:29.000Z</time>
      </trkpt>
      <trkpt lat="46.64491" lon="6.28217">
        <ele>1063</ele>
        <time>2013-08-18T14:16:30.000Z</time>
      </trkpt>
      <trkpt lat="46.6449" lon="6.2822">
        <ele>1063</ele>
        <time>2013-08-18T14:16:31.000Z</time>
      </trkpt>
      <trkpt lat="46.64489" lon="6.28223">
        <ele>1063</ele>
        <time>2013-08-18T14:16:32.000Z</time>
      </trkpt>
      <trkpt lat="46.64489" lon="6.28225">
        <ele>1064</ele>
        <time>2013-08-18T14:16:33.000Z</time>
      </trkpt>
      <trkpt lat="46.64489" lon="6.28231">
        <ele>1064</ele>
        <time>2013-08-18T14:16:35.000Z</time>
      </trkpt>
      <trkpt lat="46.64489" lon="6.28234">
        <ele>1064</ele>
        <time>2013-08-18T14:16:36.000Z</time>
      </trkpt>
      <trkpt lat="46.64489" lon="6.28236">
        <ele>1064</ele>
        <time>2013-08-18T14:16:37.000Z</time>
      </trkpt>
      <trkpt lat="46.6449" lon="6.28238">
        <ele>1065</ele>
        <time>2013-08-18T14:16:38.000Z</time>
      </trkpt>
      <trkpt lat="46.64489" lon="6.28238">
        <ele>1065</ele>
        <time>2013-08-18T14:16:40.000Z</time>
      </trkpt>
      <trkpt lat="46.64489" lon="6.28238">
        <ele>1065</ele>
        <time>2013-08-18T14:16:42.000Z</time>
      </trkpt>
      <trkpt lat="46.64489" lon="6.28238">
        <ele>1065</ele>
        <time>2013-08-18T14:16:43.000Z</time>
      </trkpt>
      <trkpt lat="46.64488" lon="6.28238">
        <ele>1064</ele>
        <time>2013-08-18T14:16:48.000Z</time>
      </trkpt>
      <trkpt lat="46.64487" lon="6.28238">
        <ele>1064</ele>
        <time>2013-08-18T14:16:57.000Z</time>
      </trkpt>
      <trkpt lat="46.64486" lon="6.28239">
        <ele>1064</ele>
        <time>2013-08-18T14:17:03.000Z</time>
      </trkpt>
      <trkpt lat="46.64486" lon="6.28239">
        <ele>1064</ele>
        <time>2013-08-18T14:17:06.000Z</time>
      </trkpt>
      <trkpt lat="46.64485" lon="6.28239">
        <ele>1064</ele>
        <time>2013-08-18T14:17:08.000Z</time>
      </trkpt>
      <trkpt lat="46.64485" lon="6.28239">
        <ele>1064</ele>
        <time>2013-08-18T14:17:14.000Z</time>
      </trkpt>
      <trkpt lat="46.64486" lon="6.28242">
        <ele>1065</ele>
        <time>2013-08-18T14:17:16.000Z</time>
      </trkpt>
      <trkpt lat="46.64487" lon="6.28244">
        <ele>1065</ele>
        <time>2013-08-18T14:17:17.000Z</time>
      </trkpt>
      <trkpt lat="46.64489" lon="6.28246">
        <ele>1065</ele>
        <time>2013-08-18T14:17:18.000Z</time>
      </trkpt>
      <trkpt lat="46.6449" lon="6.28249">
        <ele>1066</ele>
        <time>2013-08-18T14:17:19.000Z</time>
      </trkpt>
      <trkpt lat="46.64492" lon="6.28251">
        <ele>1064</ele>
        <time>2013-08-18T14:17:20.000Z</time>
      </trkpt>
      <trkpt lat="46.64493" lon="6.28254">
        <ele>1064</ele>
        <time>2013-08-18T14:17:21.000Z</time>
      </trkpt>
      <trkpt lat="46.64495" lon="6.28257">
        <ele>1064</ele>
        <time>2013-08-18T14:17:22.000Z</time>
      </trkpt>
      <trkpt lat="46.64497" lon="6.2826">
        <ele>1064</ele>
        <time>2013-08-18T14:17:23.000Z</time>
      </trkpt>
      <trkpt lat="46.64499" lon="6.28263">
        <ele>1063</ele>
        <time>2013-08-18T14:17:24.000Z</time>
      </trkpt>
      <trkpt lat="46.64501" lon="6.28266">
        <ele>1066</ele>
        <time>2013-08-18T14:17:25.000Z</time>
      </trkpt>
      <trkpt lat="46.64502" lon="6.2827">
        <ele>1065</ele>
        <time>2013-08-18T14:17:26.000Z</time>
      </trkpt>
      <trkpt lat="46.64504" lon="6.28273">
        <ele>1065</ele>
        <time>2013-08-18T14:17:27.000Z</time>
      </trkpt>
      <trkpt lat="46.64507" lon="6.28277">
        <ele>1065</ele>
        <time>2013-08-18T14:17:28.000Z</time>
      </trkpt>
      <trkpt lat="46.64509" lon="6.28281">
        <ele>1065</ele>
        <time>2013-08-18T14:17:29.000Z</time>
      </trkpt>
      <trkpt lat="46.64511" lon="6.28285">
        <ele>1064</ele>
        <time>2013-08-18T14:17:30.000Z</time>
      </trkpt>
      <trkpt lat="46.64513" lon="6.28288">
        <ele>1064</ele>
        <time>2013-08-18T14:17:31.000Z</time>
      </trkpt>
      <trkpt lat="46.64515" lon="6.28292">
        <ele>1064</ele>
        <time>2013-08-18T14:17:32.000Z</time>
      </trkpt>
      <trkpt lat="46.64517" lon="6.28296">
        <ele>1064</ele>
        <time>2013-08-18T14:17:33.000Z</time>
      </trkpt>
      <trkpt lat="46.6452" lon="6.283">
        <ele>1064</ele>
        <time>2013-08-18T14:17:34.000Z</time>
      </trkpt>
      <trkpt lat="46.64522" lon="6.28303">
        <ele>1064</ele>
        <time>2013-08-18T14:17:35.000Z</time>
      </trkpt>
      <trkpt lat="46.64524" lon="6.28306">
        <ele>1064</ele>
        <time>2013-08-18T14:17:36.000Z</time>
      </trkpt>
      <trkpt lat="46.64526" lon="6.2831">
        <ele>1064</ele>
        <time>2013-08-18T14:17:37.000Z</time>
      </trkpt>
      <trkpt lat="46.64528" lon="6.28313">
        <ele>1064</ele>
        <time>2013-08-18T14:17:38.000Z</time>
      </trkpt>
      <trkpt lat="46.64529" lon="6.28316">
        <ele>1063</ele>
        <time>2013-08-18T14:17:39.000Z</time>
      </trkpt>
      <trkpt lat="46.64531" lon="6.2832">
        <ele>1063</ele>
        <time>2013-08-18T14:17:40.000Z</time>
      </trkpt>
      <trkpt lat="46.64533" lon="6.28323">
        <ele>1063</ele>
        <time>2013-08-18T14:17:41.000Z</time>
      </trkpt>
      <trkpt lat="46.64535" lon="6.28326">
        <ele>1063</ele>
        <time>2013-08-18T14:17:42.000Z</time>
      </trkpt>
      <trkpt lat="46.64537" lon="6.28329">
        <ele>1063</ele>
        <time>2013-08-18T14:17:43.000Z</time>
      </trkpt>
      <trkpt lat="46.64539" lon="6.28331">
        <ele>1063</ele>
        <time>2013-08-18T14:17:44.000Z</time>
      </trkpt>
      <trkpt lat="46.64541" lon="6.28333">
        <ele>1063</ele>
        <time>2013-08-18T14:17:45.000Z</time>
      </trkpt>
      <trkpt lat="46.64542" lon="6.28335">
        <ele>1060</ele>
        <time>2013-08-18T14:17:46.000Z</time>
      </trkpt>
      <trkpt lat="46.64544" lon="6.28337">
        <ele>1060</ele>
        <time>2013-08-18T14:17:47.000Z</time>
      </trkpt>
      <trkpt lat="46.64546" lon="6.2834">
        <ele>1060</ele>
        <time>2013-08-18T14:17:48.000Z</time>
      </trkpt>
      <trkpt lat="46.64547" lon="6.28342">
        <ele>1060</ele>
        <time>2013-08-18T14:17:49.000Z</time>
      </trkpt>
      <trkpt lat="46.64549" lon="6.28344">
        <ele>1059</ele>
        <time>2013-08-18T14:17:50.000Z</time>
      </trkpt>
      <trkpt lat="46.6455" lon="6.28347">
        <ele>1059</ele>
        <time>2013-08-18T14:17:51.000Z</time>
      </trkpt>
      <trkpt lat="46.64552" lon="6.28349">
        <ele>1059</ele>
        <time>2013-08-18T14:17:52.000Z</time>
      </trkpt>
      <trkpt lat="46.64554" lon="6.28351">
        <ele>1059</ele>
        <time>2013-08-18T14:17:53.000Z</time>
      </trkpt>
      <trkpt lat="46.64556" lon="6.28353">
        <ele>1059</ele>
        <time>2013-08-18T14:17:54.000Z</time>
      </trkpt>
      <trkpt lat="46.64558" lon="6.28354">
        <ele>1060</ele>
        <time>2013-08-18T14:17:55.000Z</time>
      </trkpt>
      <trkpt lat="46.6456" lon="6.28356">
        <ele>1060</ele>
        <time>2013-08-18T14:17:56.000Z</time>
      </trkpt>
      <trkpt lat="46.64563" lon="6.28358">
        <ele>1060</ele>
        <time>2013-08-18T14:17:57.000Z</time>
      </trkpt>
      <trkpt lat="46.64565" lon="6.2836">
        <ele>1060</ele>
        <time>2013-08-18T14:17:58.000Z</time>
      </trkpt>
      <trkpt lat="46.64567" lon="6.28362">
        <ele>1060</ele>
        <time>2013-08-18T14:17:59.000Z</time>
      </trkpt>
      <trkpt lat="46.6457" lon="6.28363">
        <ele>1060</ele>
        <time>2013-08-18T14:18:00.000Z</time>
      </trkpt>
      <trkpt lat="46.64572" lon="6.28365">
        <ele>1060</ele>
        <time>2013-08-18T14:18:01.000Z</time>
      </trkpt>
      <trkpt lat="46.64574" lon="6.28367">
        <ele>1060</ele>
        <time>2013-08-18T14:18:02.000Z</time>
      </trkpt>
      <trkpt lat="46.64577" lon="6.28369">
        <ele>1060</ele>
        <time>2013-08-18T14:18:03.000Z</time>
      </trkpt>
      <trkpt lat="46.6458" lon="6.2837">
        <ele>1060</ele>
        <time>2013-08-18T14:18:04.000Z</time>
      </trkpt>
      <trkpt lat="46.64582" lon="6.28372">
        <ele>1060</ele>
        <time>2013-08-18T14:18:05.000Z</time>
      </trkpt>
      <trkpt lat="46.64585" lon="6.28373">
        <ele>1061</ele>
        <time>2013-08-18T14:18:06.000Z</time>
      </trkpt>
      <trkpt lat="46.64587" lon="6.28375">
        <ele>1061</ele>
        <time>2013-08-18T14:18:07.000Z</time>
      </trkpt>
      <trkpt lat="46.64589" lon="6.28378">
        <ele>1061</ele>
        <time>2013-08-18T14:18:08.000Z</time>
      </trkpt>
      <trkpt lat="46.64591" lon="6.28381">
        <ele>1061</ele>
        <time>2013-08-18T14:18:09.000Z</time>
      </trkpt>
      <trkpt lat="46.64593" lon="6.28384">
        <ele>1061</ele>
        <time>2013-08-18T14:18:10.000Z</time>
      </trkpt>
      <trkpt lat="46.64595" lon="6.28386">
        <ele>1061</ele>
        <time>2013-08-18T14:18:11.000Z</time>
      </trkpt>
      <trkpt lat="46.64596" lon="6.28389">
        <ele>1061</ele>
        <time>2013-08-18T14:18:12.000Z</time>
      </trkpt>
      <trkpt lat="46.64598" lon="6.28392">
        <ele>1061</ele>
        <time>2013-08-18T14:18:13.000Z</time>
      </trkpt>
      <trkpt lat="46.646" lon="6.28394">
        <ele>1061</ele>
        <time>2013-08-18T14:18:14.000Z</time>
      </trkpt>
      <trkpt lat="46.64601" lon="6.28397">
        <ele>1061</ele>
        <time>2013-08-18T14:18:15.000Z</time>
      </trkpt>
      <trkpt lat="46.64602" lon="6.284">
        <ele>1061</ele>
        <time>2013-08-18T14:18:16.000Z</time>
      </trkpt>
      <trkpt lat="46.64604" lon="6.28403">
        <ele>1061</ele>
        <time>2013-08-18T14:18:17.000Z</time>
      </trkpt>
      <trkpt lat="46.64605" lon="6.28406">
        <ele>1061</ele>
        <time>2013-08-18T14:18:18.000Z</time>
      </trkpt>
      <trkpt lat="46.64607" lon="6.28409">
        <ele>1061</ele>
        <time>2013-08-18T14:18:19.000Z</time>
      </trkpt>
      <trkpt lat="46.64609" lon="6.28412">
        <ele>1061</ele>
        <time>2013-08-18T14:18:20.000Z</time>
      </trkpt>
      <trkpt lat="46.6461" lon="6.28416">
        <ele>1061</ele>
        <time>2013-08-18T14:18:21.000Z</time>
      </trkpt>
      <trkpt lat="46.64612" lon="6.28419">
        <ele>1062</ele>
        <time>2013-08-18T14:18:22.000Z</time>
      </trkpt>
      <trkpt lat="46.64613" lon="6.28423">
        <ele>1062</ele>
        <time>2013-08-18T14:18:23.000Z</time>
      </trkpt>
      <trkpt lat="46.64615" lon="6.28426">
        <ele>1062</ele>
        <time>2013-08-18T14:18:24.000Z</time>
      </trkpt>
      <trkpt lat="46.64617" lon="6.28429">
        <ele>1062</ele>
        <time>2013-08-18T14:18:25.000Z</time>
      </trkpt>
      <trkpt lat="46.64619" lon="6.28433">
        <ele>1062</ele>
        <time>2013-08-18T14:18:26.000Z</time>
      </trkpt>
      <trkpt lat="46.64621" lon="6.28436">
        <ele>1062</ele>
        <time>2013-08-18T14:18:27.000Z</time>
      </trkpt>
      <trkpt lat="46.64623" lon="6.2844">
        <ele>1062</ele>
        <time>2013-08-18T14:18:28.000Z</time>
      </trkpt>
      <trkpt lat="46.64626" lon="6.28444">
        <ele>1062</ele>
        <time>2013-08-18T14:18:29.000Z</time>
      </trkpt>
      <trkpt lat="46.64629" lon="6.28449">
        <ele>1062</ele>
        <time>2013-08-18T14:18:30.000Z</time>
      </trkpt>
      <trkpt lat="46.64632" lon="6.28454">
        <ele>1062</ele>
        <time>2013-08-18T14:18:31.000Z</time>
      </trkpt>
      <trkpt lat="46.64636" lon="6.2846">
        <ele>1062</ele>
        <time>2013-08-18T14:18:32.000Z</time>
      </trkpt>
      <trkpt lat="46.6464" lon="6.28465">
        <ele>1062</ele>
        <time>2013-08-18T14:18:33.000Z</time>
      </trkpt>
      <trkpt lat="46.64644" lon="6.28472">
        <ele>1062</ele>
        <time>2013-08-18T14:18:34.000Z</time>
      </trkpt>
      <trkpt lat="46.64648" lon="6.2848">
        <ele>1063</ele>
        <time>2013-08-18T14:18:35.000Z</time>
      </trkpt>
      <trkpt lat="46.64652" lon="6.28488">
        <ele>1064</ele>
        <time>2013-08-18T14:18:36.000Z</time>
      </trkpt>
      <trkpt lat="46.64657" lon="6.28497">
        <ele>1065</ele>
        <time>2013-08-18T14:18:37.000Z</time>
      </trkpt>
      <trkpt lat="46.64661" lon="6.28505">
        <ele>1065</ele>
        <time>2013-08-18T14:18:38.000Z</time>
      </trkpt>
      <trkpt lat="46.64665" lon="6.28514">
        <ele>1064</ele>
        <time>2013-08-18T14:18:39.000Z</time>
      </trkpt>
      <trkpt lat="46.64669" lon="6.28522">
        <ele>1065</ele>
        <time>2013-08-18T14:18:40.000Z</time>
      </trkpt>
      <trkpt lat="46.64672" lon="6.2853">
        <ele>1065</ele>
        <time>2013-08-18T14:18:41.000Z</time>
      </trkpt>
      <trkpt lat="46.64675" lon="6.28536">
        <ele>1065</ele>
        <time>2013-08-18T14:18:42.000Z</time>
      </trkpt>
      <trkpt lat="46.64678" lon="6.28542">
        <ele>1065</ele>
        <time>2013-08-18T14:18:43.000Z</time>
      </trkpt>
      <trkpt lat="46.6468" lon="6.28546">
        <ele>1065</ele>
        <time>2013-08-18T14:18:44.000Z</time>
      </trkpt>
      <trkpt lat="46.64682" lon="6.2855">
        <ele>1065</ele>
        <time>2013-08-18T14:18:45.000Z</time>
      </trkpt>
      <trkpt lat="46.64684" lon="6.28553">
        <ele>1065</ele>
        <time>2013-08-18T14:18:46.000Z</time>
      </trkpt>
      <trkpt lat="46.64686" lon="6.28557">
        <ele>1065</ele>
        <time>2013-08-18T14:18:47.000Z</time>
      </trkpt>
      <trkpt lat="46.64687" lon="6.2856">
        <ele>1065</ele>
        <time>2013-08-18T14:18:48.000Z</time>
      </trkpt>
      <trkpt lat="46.64689" lon="6.28563">
        <ele>1065</ele>
        <time>2013-08-18T14:18:49.000Z</time>
      </trkpt>
      <trkpt lat="46.6469" lon="6.28567">
        <ele>1065</ele>
        <time>2013-08-18T14:18:50.000Z</time>
      </trkpt>
      <trkpt lat="46.64692" lon="6.2857">
        <ele>1065</ele>
        <time>2013-08-18T14:18:51.000Z</time>
      </trkpt>
      <trkpt lat="46.64693" lon="6.28573">
        <ele>1065</ele>
        <time>2013-08-18T14:18:52.000Z</time>
      </trkpt>
      <trkpt lat="46.64695" lon="6.28576">
        <ele>1065</ele>
        <time>2013-08-18T14:18:53.000Z</time>
      </trkpt>
      <trkpt lat="46.64696" lon="6.28579">
        <ele>1065</ele>
        <time>2013-08-18T14:18:54.000Z</time>
      </trkpt>
      <trkpt lat="46.64698" lon="6.28582">
        <ele>1065</ele>
        <time>2013-08-18T14:18:55.000Z</time>
      </trkpt>
      <trkpt lat="46.64699" lon="6.28585">
        <ele>1066</ele>
        <time>2013-08-18T14:18:56.000Z</time>
      </trkpt>
      <trkpt lat="46.64701" lon="6.28589">
        <ele>1066</ele>
        <time>2013-08-18T14:18:57.000Z</time>
      </trkpt>
      <trkpt lat="46.64702" lon="6.28592">
        <ele>1066</ele>
        <time>2013-08-18T14:18:58.000Z</time>
      </trkpt>
      <trkpt lat="46.64703" lon="6.28595">
        <ele>1066</ele>
        <time>2013-08-18T14:18:59.000Z</time>
      </trkpt>
      <trkpt lat="46.64705" lon="6.28598">
        <ele>1066</ele>
        <time>2013-08-18T14:19:00.000Z</time>
      </trkpt>
      <trkpt lat="46.64707" lon="6.28601">
        <ele>1066</ele>
        <time>2013-08-18T14:19:01.000Z</time>
      </trkpt>
      <trkpt lat="46.64708" lon="6.28605">
        <ele>1066</ele>
        <time>2013-08-18T14:19:02.000Z</time>
      </trkpt>
      <trkpt lat="46.6471" lon="6.28608">
        <ele>1066</ele>
        <time>2013-08-18T14:19:03.000Z</time>
      </trkpt>
      <trkpt lat="46.64711" lon="6.28611">
        <ele>1066</ele>
        <time>2013-08-18T14:19:04.000Z</time>
      </trkpt>
      <trkpt lat="46.64713" lon="6.28615">
        <ele>1066</ele>
        <time>2013-08-18T14:19:05.000Z</time>
      </trkpt>
      <trkpt lat="46.64716" lon="6.28618">
        <ele>1066</ele>
        <time>2013-08-18T14:19:06.000Z</time>
      </trkpt>
      <trkpt lat="46.64718" lon="6.28621">
        <ele>1066</ele>
        <time>2013-08-18T14:19:07.000Z</time>
      </trkpt>
      <trkpt lat="46.64721" lon="6.28626">
        <ele>1066</ele>
        <time>2013-08-18T14:19:08.000Z</time>
      </trkpt>
      <trkpt lat="46.64724" lon="6.28631">
        <ele>1067</ele>
        <time>2013-08-18T14:19:09.000Z</time>
      </trkpt>
      <trkpt lat="46.64728" lon="6.28636">
        <ele>1067</ele>
        <time>2013-08-18T14:19:10.000Z</time>
      </trkpt>
      <trkpt lat="46.64732" lon="6.28642">
        <ele>1068</ele>
        <time>2013-08-18T14:19:11.000Z</time>
      </trkpt>
      <trkpt lat="46.64736" lon="6.28649">
        <ele>1068</ele>
        <time>2013-08-18T14:19:12.000Z</time>
      </trkpt>
      <trkpt lat="46.64739" lon="6.28656">
        <ele>1069</ele>
        <time>2013-08-18T14:19:13.000Z</time>
      </trkpt>
      <trkpt lat="46.64741" lon="6.28664">
        <ele>1070</ele>
        <time>2013-08-18T14:19:14.000Z</time>
      </trkpt>
      <trkpt lat="46.64742" lon="6.28671">
        <ele>1070</ele>
        <time>2013-08-18T14:19:15.000Z</time>
      </trkpt>
      <trkpt lat="46.64743" lon="6.28678">
        <ele>1069</ele>
        <time>2013-08-18T14:19:16.000Z</time>
      </trkpt>
      <trkpt lat="46.64743" lon="6.28684">
        <ele>1068</ele>
        <time>2013-08-18T14:19:17.000Z</time>
      </trkpt>
      <trkpt lat="46.64742" lon="6.28689">
        <ele>1067</ele>
        <time>2013-08-18T14:19:18.000Z</time>
      </trkpt>
      <trkpt lat="46.64743" lon="6.28694">
        <ele>1067</ele>
        <time>2013-08-18T14:19:19.000Z</time>
      </trkpt>
      <trkpt lat="46.64742" lon="6.28703">
        <ele>1066</ele>
        <time>2013-08-18T14:19:21.000Z</time>
      </trkpt>
      <trkpt lat="46.64743" lon="6.28706">
        <ele>1066</ele>
        <time>2013-08-18T14:19:22.000Z</time>
      </trkpt>
      <trkpt lat="46.64742" lon="6.28711">
        <ele>1066</ele>
        <time>2013-08-18T14:19:23.000Z</time>
      </trkpt>
      <trkpt lat="46.64741" lon="6.28715">
        <ele>1066</ele>
        <time>2013-08-18T14:19:24.000Z</time>
      </trkpt>
      <trkpt lat="46.6474" lon="6.2872">
        <ele>1066</ele>
        <time>2013-08-18T14:19:25.000Z</time>
      </trkpt>
      <trkpt lat="46.64739" lon="6.28725">
        <ele>1066</ele>
        <time>2013-08-18T14:19:26.000Z</time>
      </trkpt>
      <trkpt lat="46.64739" lon="6.2873">
        <ele>1067</ele>
        <time>2013-08-18T14:19:27.000Z</time>
      </trkpt>
      <trkpt lat="46.64738" lon="6.2874">
        <ele>1068</ele>
        <time>2013-08-18T14:19:29.000Z</time>
      </trkpt>
      <trkpt lat="46.64739" lon="6.28745">
        <ele>1068</ele>
        <time>2013-08-18T14:19:30.000Z</time>
      </trkpt>
      <trkpt lat="46.64739" lon="6.28751">
        <ele>1065</ele>
        <time>2013-08-18T14:19:31.000Z</time>
      </trkpt>
      <trkpt lat="46.6474" lon="6.28757">
        <ele>1064</ele>
        <time>2013-08-18T14:19:32.000Z</time>
      </trkpt>
      <trkpt lat="46.6474" lon="6.28763">
        <ele>1062</ele>
        <time>2013-08-18T14:19:33.000Z</time>
      </trkpt>
      <trkpt lat="46.6474" lon="6.28769">
        <ele>1060</ele>
        <time>2013-08-18T14:19:34.000Z</time>
      </trkpt>
      <trkpt lat="46.64741" lon="6.28775">
        <ele>1058</ele>
        <time>2013-08-18T14:19:35.000Z</time>
      </trkpt>
      <trkpt lat="46.64742" lon="6.28781">
        <ele>1057</ele>
        <time>2013-08-18T14:19:36.000Z</time>
      </trkpt>
      <trkpt lat="46.64744" lon="6.28787">
        <ele>1056</ele>
        <time>2013-08-18T14:19:37.000Z</time>
      </trkpt>
      <trkpt lat="46.64746" lon="6.28792">
        <ele>1056</ele>
        <time>2013-08-18T14:19:38.000Z</time>
      </trkpt>
      <trkpt lat="46.64747" lon="6.28796">
        <ele>1055</ele>
        <time>2013-08-18T14:19:39.000Z</time>
      </trkpt>
      <trkpt lat="46.64749" lon="6.28801">
        <ele>1055</ele>
        <time>2013-08-18T14:19:40.000Z</time>
      </trkpt>
      <trkpt lat="46.64751" lon="6.28806">
        <ele>1064</ele>
        <time>2013-08-18T14:19:41.000Z</time>
      </trkpt>
      <trkpt lat="46.64754" lon="6.2881">
        <ele>1064</ele>
        <time>2013-08-18T14:19:42.000Z</time>
      </trkpt>
      <trkpt lat="46.64756" lon="6.28815">
        <ele>1063</ele>
        <time>2013-08-18T14:19:43.000Z</time>
      </trkpt>
      <trkpt lat="46.64759" lon="6.2882">
        <ele>1062</ele>
        <time>2013-08-18T14:19:44.000Z</time>
      </trkpt>
      <trkpt lat="46.64762" lon="6.28826">
        <ele>1062</ele>
        <time>2013-08-18T14:19:45.000Z</time>
      </trkpt>
      <trkpt lat="46.64764" lon="6.28831">
        <ele>1062</ele>
        <time>2013-08-18T14:19:46.000Z</time>
      </trkpt>
      <trkpt lat="46.64768" lon="6.28837">
        <ele>1060</ele>
        <time>2013-08-18T14:19:47.000Z</time>
      </trkpt>
      <trkpt lat="46.6477" lon="6.28842">
        <ele>1060</ele>
        <time>2013-08-18T14:19:48.000Z</time>
      </trkpt>
      <trkpt lat="46.64773" lon="6.28847">
        <ele>1060</ele>
        <time>2013-08-18T14:19:49.000Z</time>
      </trkpt>
      <trkpt lat="46.64775" lon="6.28851">
        <ele>1060</ele>
        <time>2013-08-18T14:19:50.000Z</time>
      </trkpt>
      <trkpt lat="46.64778" lon="6.28856">
        <ele>1061</ele>
        <time>2013-08-18T14:19:51.000Z</time>
      </trkpt>
      <trkpt lat="46.64781" lon="6.28861">
        <ele>1061</ele>
        <time>2013-08-18T14:19:52.000Z</time>
      </trkpt>
      <trkpt lat="46.64785" lon="6.28866">
        <ele>1061</ele>
        <time>2013-08-18T14:19:53.000Z</time>
      </trkpt>
      <trkpt lat="46.64787" lon="6.28871">
        <ele>1061</ele>
        <time>2013-08-18T14:19:54.000Z</time>
      </trkpt>
      <trkpt lat="46.64789" lon="6.28876">
        <ele>1061</ele>
        <time>2013-08-18T14:19:55.000Z</time>
      </trkpt>
      <trkpt lat="46.64792" lon="6.2888">
        <ele>1061</ele>
        <time>2013-08-18T14:19:56.000Z</time>
      </trkpt>
      <trkpt lat="46.64795" lon="6.28884">
        <ele>1061</ele>
        <time>2013-08-18T14:19:57.000Z</time>
      </trkpt>
      <trkpt lat="46.64797" lon="6.28889">
        <ele>1062</ele>
        <time>2013-08-18T14:19:58.000Z</time>
      </trkpt>
      <trkpt lat="46.648" lon="6.28893">
        <ele>1062</ele>
        <time>2013-08-18T14:19:59.000Z</time>
      </trkpt>
      <trkpt lat="46.64804" lon="6.28897">
        <ele>1063</ele>
        <time>2013-08-18T14:20:00.000Z</time>
      </trkpt>
      <trkpt lat="46.64808" lon="6.28901">
        <ele>1064</ele>
        <time>2013-08-18T14:20:01.000Z</time>
      </trkpt>
      <trkpt lat="46.64812" lon="6.28906">
        <ele>1065</ele>
        <time>2013-08-18T14:20:02.000Z</time>
      </trkpt>
      <trkpt lat="46.64817" lon="6.28911">
        <ele>1066</ele>
        <time>2013-08-18T14:20:03.000Z</time>
      </trkpt>
      <trkpt lat="46.64821" lon="6.28918">
        <ele>1064</ele>
        <time>2013-08-18T14:20:04.000Z</time>
      </trkpt>
      <trkpt lat="46.64825" lon="6.28923">
        <ele>1065</ele>
        <time>2013-08-18T14:20:05.000Z</time>
      </trkpt>
      <trkpt lat="46.6483" lon="6.28928">
        <ele>1065</ele>
        <time>2013-08-18T14:20:06.000Z</time>
      </trkpt>
      <trkpt lat="46.64834" lon="6.28933">
        <ele>1070</ele>
        <time>2013-08-18T14:20:07.000Z</time>
      </trkpt>
      <trkpt lat="46.64837" lon="6.28938">
        <ele>1069</ele>
        <time>2013-08-18T14:20:08.000Z</time>
      </trkpt>
      <trkpt lat="46.64839" lon="6.28943">
        <ele>1069</ele>
        <time>2013-08-18T14:20:09.000Z</time>
      </trkpt>
      <trkpt lat="46.64842" lon="6.28947">
        <ele>1068</ele>
        <time>2013-08-18T14:20:10.000Z</time>
      </trkpt>
      <trkpt lat="46.64844" lon="6.28952">
        <ele>1068</ele>
        <time>2013-08-18T14:20:11.000Z</time>
      </trkpt>
      <trkpt lat="46.64847" lon="6.28956">
        <ele>1068</ele>
        <time>2013-08-18T14:20:12.000Z</time>
      </trkpt>
      <trkpt lat="46.6485" lon="6.2896">
        <ele>1068</ele>
        <time>2013-08-18T14:20:13.000Z</time>
      </trkpt>
      <trkpt lat="46.64853" lon="6.28962">
        <ele>1067</ele>
        <time>2013-08-18T14:20:14.000Z</time>
      </trkpt>
      <trkpt lat="46.64857" lon="6.28964">
        <ele>1067</ele>
        <time>2013-08-18T14:20:15.000Z</time>
      </trkpt>
      <trkpt lat="46.6486" lon="6.28966">
        <ele>1067</ele>
        <time>2013-08-18T14:20:16.000Z</time>
      </trkpt>
      <trkpt lat="46.64863" lon="6.28967">
        <ele>1068</ele>
        <time>2013-08-18T14:20:17.000Z</time>
      </trkpt>
      <trkpt lat="46.64866" lon="6.28967">
        <ele>1068</ele>
        <time>2013-08-18T14:20:18.000Z</time>
      </trkpt>
      <trkpt lat="46.64869" lon="6.28968">
        <ele>1068</ele>
        <time>2013-08-18T14:20:19.000Z</time>
      </trkpt>
      <trkpt lat="46.64871" lon="6.28968">
        <ele>1068</ele>
        <time>2013-08-18T14:20:20.000Z</time>
      </trkpt>
      <trkpt lat="46.64874" lon="6.28968">
        <ele>1068</ele>
        <time>2013-08-18T14:20:21.000Z</time>
      </trkpt>
      <trkpt lat="46.64876" lon="6.28969">
        <ele>1068</ele>
        <time>2013-08-18T14:20:22.000Z</time>
      </trkpt>
      <trkpt lat="46.64878" lon="6.2897">
        <ele>1068</ele>
        <time>2013-08-18T14:20:23.000Z</time>
      </trkpt>
      <trkpt lat="46.64879" lon="6.28971">
        <ele>1068</ele>
        <time>2013-08-18T14:20:24.000Z</time>
      </trkpt>
      <trkpt lat="46.64882" lon="6.28972">
        <ele>1068</ele>
        <time>2013-08-18T14:20:25.000Z</time>
      </trkpt>
      <trkpt lat="46.64883" lon="6.28973">
        <ele>1068</ele>
        <time>2013-08-18T14:20:26.000Z</time>
      </trkpt>
      <trkpt lat="46.64885" lon="6.28974">
        <ele>1068</ele>
        <time>2013-08-18T14:20:27.000Z</time>
      </trkpt>
      <trkpt lat="46.64887" lon="6.28975">
        <ele>1069</ele>
        <time>2013-08-18T14:20:28.000Z</time>
      </trkpt>
      <trkpt lat="46.64888" lon="6.28976">
        <ele>1069</ele>
        <time>2013-08-18T14:20:29.000Z</time>
      </trkpt>
      <trkpt lat="46.6489" lon="6.28978">
        <ele>1069</ele>
        <time>2013-08-18T14:20:30.000Z</time>
      </trkpt>
      <trkpt lat="46.64891" lon="6.28979">
        <ele>1069</ele>
        <time>2013-08-18T14:20:31.000Z</time>
      </trkpt>
      <trkpt lat="46.64893" lon="6.28981">
        <ele>1069</ele>
        <time>2013-08-18T14:20:32.000Z</time>
      </trkpt>
      <trkpt lat="46.64894" lon="6.28983">
        <ele>1069</ele>
        <time>2013-08-18T14:20:33.000Z</time>
      </trkpt>
      <trkpt lat="46.64896" lon="6.28985">
        <ele>1070</ele>
        <time>2013-08-18T14:20:34.000Z</time>
      </trkpt>
      <trkpt lat="46.64897" lon="6.28988">
        <ele>1070</ele>
        <time>2013-08-18T14:20:35.000Z</time>
      </trkpt>
      <trkpt lat="46.64898" lon="6.2899">
        <ele>1070</ele>
        <time>2013-08-18T14:20:36.000Z</time>
      </trkpt>
      <trkpt lat="46.64898" lon="6.28992">
        <ele>1070</ele>
        <time>2013-08-18T14:20:37.000Z</time>
      </trkpt>
      <trkpt lat="46.64899" lon="6.28994">
        <ele>1070</ele>
        <time>2013-08-18T14:20:38.000Z</time>
      </trkpt>
      <trkpt lat="46.649" lon="6.28995">
        <ele>1071</ele>
        <time>2013-08-18T14:20:39.000Z</time>
      </trkpt>
      <trkpt lat="46.64901" lon="6.28997">
        <ele>1071</ele>
        <time>2013-08-18T14:20:40.000Z</time>
      </trkpt>
      <trkpt lat="46.64902" lon="6.28999">
        <ele>1071</ele>
        <time>2013-08-18T14:20:41.000Z</time>
      </trkpt>
      <trkpt lat="46.64903" lon="6.29001">
        <ele>1070</ele>
        <time>2013-08-18T14:20:42.000Z</time>
      </trkpt>
      <trkpt lat="46.64903" lon="6.29003">
        <ele>1070</ele>
        <time>2013-08-18T14:20:43.000Z</time>
      </trkpt>
      <trkpt lat="46.64904" lon="6.29005">
        <ele>1070</ele>
        <time>2013-08-18T14:20:44.000Z</time>
      </trkpt>
      <trkpt lat="46.64905" lon="6.29007">
        <ele>1070</ele>
        <time>2013-08-18T14:20:45.000Z</time>
      </trkpt>
      <trkpt lat="46.64905" lon="6.29009">
        <ele>1070</ele>
        <time>2013-08-18T14:20:46.000Z</time>
      </trkpt>
      <trkpt lat="46.64906" lon="6.29011">
        <ele>1069</ele>
        <time>2013-08-18T14:20:47.000Z</time>
      </trkpt>
      <trkpt lat="46.64907" lon="6.29013">
        <ele>1069</ele>
        <time>2013-08-18T14:20:48.000Z</time>
      </trkpt>
      <trkpt lat="46.64907" lon="6.29015">
        <ele>1069</ele>
        <time>2013-08-18T14:20:49.000Z</time>
      </trkpt>
      <trkpt lat="46.64907" lon="6.29016">
        <ele>1069</ele>
        <time>2013-08-18T14:20:50.000Z</time>
      </trkpt>
      <trkpt lat="46.64908" lon="6.29017">
        <ele>1069</ele>
        <time>2013-08-18T14:20:51.000Z</time>
      </trkpt>
      <trkpt lat="46.64908" lon="6.29017">
        <ele>1069</ele>
        <time>2013-08-18T14:20:52.000Z</time>
      </trkpt>
      <trkpt lat="46.64908" lon="6.29021">
        <ele>1068</ele>
        <time>2013-08-18T14:20:54.000Z</time>
      </trkpt>
      <trkpt lat="46.64909" lon="6.29023">
        <ele>1068</ele>
        <time>2013-08-18T14:20:55.000Z</time>
      </trkpt>
      <trkpt lat="46.6491" lon="6.29025">
        <ele>1068</ele>
        <time>2013-08-18T14:20:56.000Z</time>
      </trkpt>
      <trkpt lat="46.6491" lon="6.29028">
        <ele>1068</ele>
        <time>2013-08-18T14:20:57.000Z</time>
      </trkpt>
      <trkpt lat="46.64911" lon="6.29032">
        <ele>1068</ele>
        <time>2013-08-18T14:20:58.000Z</time>
      </trkpt>
      <trkpt lat="46.64913" lon="6.29037">
        <ele>1067</ele>
        <time>2013-08-18T14:20:59.000Z</time>
      </trkpt>
      <trkpt lat="46.64915" lon="6.29041">
        <ele>1068</ele>
        <time>2013-08-18T14:21:00.000Z</time>
      </trkpt>
      <trkpt lat="46.64918" lon="6.29045">
        <ele>1070</ele>
        <time>2013-08-18T14:21:01.000Z</time>
      </trkpt>
      <trkpt lat="46.64921" lon="6.29049">
        <ele>1070</ele>
        <time>2013-08-18T14:21:02.000Z</time>
      </trkpt>
      <trkpt lat="46.64923" lon="6.29053">
        <ele>1070</ele>
        <time>2013-08-18T14:21:03.000Z</time>
      </trkpt>
      <trkpt lat="46.64924" lon="6.29056">
        <ele>1070</ele>
        <time>2013-08-18T14:21:04.000Z</time>
      </trkpt>
      <trkpt lat="46.64926" lon="6.29058">
        <ele>1070</ele>
        <time>2013-08-18T14:21:05.000Z</time>
      </trkpt>
      <trkpt lat="46.64926" lon="6.2906">
        <ele>1070</ele>
        <time>2013-08-18T14:21:06.000Z</time>
      </trkpt>
      <trkpt lat="46.64927" lon="6.29062">
        <ele>1071</ele>
        <time>2013-08-18T14:21:07.000Z</time>
      </trkpt>
      <trkpt lat="46.64927" lon="6.29063">
        <ele>1071</ele>
        <time>2013-08-18T14:21:08.000Z</time>
      </trkpt>
      <trkpt lat="46.64927" lon="6.29069">
        <ele>1071</ele>
        <time>2013-08-18T14:21:10.000Z</time>
      </trkpt>
      <trkpt lat="46.64928" lon="6.29072">
        <ele>1072</ele>
        <time>2013-08-18T14:21:11.000Z</time>
      </trkpt>
      <trkpt lat="46.64929" lon="6.29075">
        <ele>1072</ele>
        <time>2013-08-18T14:21:12.000Z</time>
      </trkpt>
      <trkpt lat="46.6493" lon="6.29078">
        <ele>1072</ele>
        <time>2013-08-18T14:21:13.000Z</time>
      </trkpt>
      <trkpt lat="46.64931" lon="6.29081">
        <ele>1072</ele>
        <time>2013-08-18T14:21:14.000Z</time>
      </trkpt>
      <trkpt lat="46.64933" lon="6.29084">
        <ele>1073</ele>
        <time>2013-08-18T14:21:15.000Z</time>
      </trkpt>
      <trkpt lat="46.64935" lon="6.29087">
        <ele>1072</ele>
        <time>2013-08-18T14:21:16.000Z</time>
      </trkpt>
      <trkpt lat="46.64936" lon="6.2909">
        <ele>1072</ele>
        <time>2013-08-18T14:21:17.000Z</time>
      </trkpt>
      <trkpt lat="46.64937" lon="6.29092">
        <ele>1072</ele>
        <time>2013-08-18T14:21:18.000Z</time>
      </trkpt>
      <trkpt lat="46.64938" lon="6.29093">
        <ele>1072</ele>
        <time>2013-08-18T14:21:19.000Z</time>
      </trkpt>
      <trkpt lat="46.64939" lon="6.29096">
        <ele>1071</ele>
        <time>2013-08-18T14:21:20.000Z</time>
      </trkpt>
      <trkpt lat="46.64941" lon="6.29099">
        <ele>1071</ele>
        <time>2013-08-18T14:21:21.000Z</time>
      </trkpt>
      <trkpt lat="46.64942" lon="6.29101">
        <ele>1071</ele>
        <time>2013-08-18T14:21:22.000Z</time>
      </trkpt>
      <trkpt lat="46.64944" lon="6.29104">
        <ele>1071</ele>
        <time>2013-08-18T14:21:23.000Z</time>
      </trkpt>
      <trkpt lat="46.64945" lon="6.29107">
        <ele>1070</ele>
        <time>2013-08-18T14:21:24.000Z</time>
      </trkpt>
      <trkpt lat="46.64947" lon="6.29111">
        <ele>1070</ele>
        <time>2013-08-18T14:21:25.000Z</time>
      </trkpt>
      <trkpt lat="46.6495" lon="6.29116">
        <ele>1070</ele>
        <time>2013-08-18T14:21:26.000Z</time>
      </trkpt>
      <trkpt lat="46.64953" lon="6.29121">
        <ele>1070</ele>
        <time>2013-08-18T14:21:27.000Z</time>
      </trkpt>
      <trkpt lat="46.64956" lon="6.29127">
        <ele>1070</ele>
        <time>2013-08-18T14:21:28.000Z</time>
      </trkpt>
      <trkpt lat="46.64959" lon="6.29133">
        <ele>1070</ele>
        <time>2013-08-18T14:21:29.000Z</time>
      </trkpt>
      <trkpt lat="46.64962" lon="6.29137">
        <ele>1070</ele>
        <time>2013-08-18T14:21:30.000Z</time>
      </trkpt>
      <trkpt lat="46.64964" lon="6.2914">
        <ele>1070</ele>
        <time>2013-08-18T14:21:31.000Z</time>
      </trkpt>
      <trkpt lat="46.64966" lon="6.29143">
        <ele>1070</ele>
        <time>2013-08-18T14:21:32.000Z</time>
      </trkpt>
      <trkpt lat="46.64967" lon="6.29145">
        <ele>1070</ele>
        <time>2013-08-18T14:21:33.000Z</time>
      </trkpt>
      <trkpt lat="46.64968" lon="6.29148">
        <ele>1070</ele>
        <time>2013-08-18T14:21:34.000Z</time>
      </trkpt>
      <trkpt lat="46.64968" lon="6.2915">
        <ele>1070</ele>
        <time>2013-08-18T14:21:35.000Z</time>
      </trkpt>
      <trkpt lat="46.64969" lon="6.29152">
        <ele>1070</ele>
        <time>2013-08-18T14:21:36.000Z</time>
      </trkpt>
      <trkpt lat="46.6497" lon="6.29155">
        <ele>1070</ele>
        <time>2013-08-18T14:21:37.000Z</time>
      </trkpt>
      <trkpt lat="46.64971" lon="6.29157">
        <ele>1071</ele>
        <time>2013-08-18T14:21:38.000Z</time>
      </trkpt>
      <trkpt lat="46.64972" lon="6.2916">
        <ele>1071</ele>
        <time>2013-08-18T14:21:39.000Z</time>
      </trkpt>
      <trkpt lat="46.64973" lon="6.29163">
        <ele>1071</ele>
        <time>2013-08-18T14:21:40.000Z</time>
      </trkpt>
      <trkpt lat="46.64975" lon="6.29165">
        <ele>1071</ele>
        <time>2013-08-18T14:21:41.000Z</time>
      </trkpt>
      <trkpt lat="46.64976" lon="6.29168">
        <ele>1069</ele>
        <time>2013-08-18T14:21:42.000Z</time>
      </trkpt>
      <trkpt lat="46.64977" lon="6.29171">
        <ele>1069</ele>
        <time>2013-08-18T14:21:43.000Z</time>
      </trkpt>
      <trkpt lat="46.64978" lon="6.29174">
        <ele>1069</ele>
        <time>2013-08-18T14:21:44.000Z</time>
      </trkpt>
      <trkpt lat="46.64979" lon="6.29177">
        <ele>1069</ele>
        <time>2013-08-18T14:21:45.000Z</time>
      </trkpt>
      <trkpt lat="46.6498" lon="6.2918">
        <ele>1069</ele>
        <time>2013-08-18T14:21:46.000Z</time>
      </trkpt>
      <trkpt lat="46.64981" lon="6.29182">
        <ele>1069</ele>
        <time>2013-08-18T14:21:47.000Z</time>
      </trkpt>
      <trkpt lat="46.64982" lon="6.29185">
        <ele>1069</ele>
        <time>2013-08-18T14:21:48.000Z</time>
      </trkpt>
      <trkpt lat="46.64983" lon="6.29188">
        <ele>1069</ele>
        <time>2013-08-18T14:21:49.000Z</time>
      </trkpt>
      <trkpt lat="46.64984" lon="6.2919">
        <ele>1069</ele>
        <time>2013-08-18T14:21:50.000Z</time>
      </trkpt>
      <trkpt lat="46.64986" lon="6.29193">
        <ele>1069</ele>
        <time>2013-08-18T14:21:51.000Z</time>
      </trkpt>
      <trkpt lat="46.64987" lon="6.29196">
        <ele>1068</ele>
        <time>2013-08-18T14:21:52.000Z</time>
      </trkpt>
      <trkpt lat="46.64988" lon="6.292">
        <ele>1068</ele>
        <time>2013-08-18T14:21:53.000Z</time>
      </trkpt>
      <trkpt lat="46.64989" lon="6.29205">
        <ele>1068</ele>
        <time>2013-08-18T14:21:54.000Z</time>
      </trkpt>
      <trkpt lat="46.64991" lon="6.2921">
        <ele>1068</ele>
        <time>2013-08-18T14:21:55.000Z</time>
      </trkpt>
      <trkpt lat="46.64993" lon="6.29215">
        <ele>1068</ele>
        <time>2013-08-18T14:21:56.000Z</time>
      </trkpt>
      <trkpt lat="46.64994" lon="6.29219">
        <ele>1069</ele>
        <time>2013-08-18T14:21:57.000Z</time>
      </trkpt>
      <trkpt lat="46.64996" lon="6.29224">
        <ele>1069</ele>
        <time>2013-08-18T14:21:58.000Z</time>
      </trkpt>
      <trkpt lat="46.64997" lon="6.29228">
        <ele>1070</ele>
        <time>2013-08-18T14:21:59.000Z</time>
      </trkpt>
      <trkpt lat="46.64999" lon="6.29232">
        <ele>1071</ele>
        <time>2013-08-18T14:22:00.000Z</time>
      </trkpt>
      <trkpt lat="46.65001" lon="6.29237">
        <ele>1072</ele>
        <time>2013-08-18T14:22:01.000Z</time>
      </trkpt>
      <trkpt lat="46.65003" lon="6.29243">
        <ele>1073</ele>
        <time>2013-08-18T14:22:02.000Z</time>
      </trkpt>
      <trkpt lat="46.65006" lon="6.29248">
        <ele>1073</ele>
        <time>2013-08-18T14:22:03.000Z</time>
      </trkpt>
      <trkpt lat="46.65008" lon="6.29252">
        <ele>1074</ele>
        <time>2013-08-18T14:22:04.000Z</time>
      </trkpt>
      <trkpt lat="46.65009" lon="6.29256">
        <ele>1073</ele>
        <time>2013-08-18T14:22:05.000Z</time>
      </trkpt>
      <trkpt lat="46.65011" lon="6.2926">
        <ele>1073</ele>
        <time>2013-08-18T14:22:06.000Z</time>
      </trkpt>
      <trkpt lat="46.65013" lon="6.29264">
        <ele>1072</ele>
        <time>2013-08-18T14:22:07.000Z</time>
      </trkpt>
      <trkpt lat="46.65014" lon="6.29268">
        <ele>1072</ele>
        <time>2013-08-18T14:22:08.000Z</time>
      </trkpt>
      <trkpt lat="46.65015" lon="6.29271">
        <ele>1072</ele>
        <time>2013-08-18T14:22:09.000Z</time>
      </trkpt>
      <trkpt lat="46.65017" lon="6.29274">
        <ele>1071</ele>
        <time>2013-08-18T14:22:10.000Z</time>
      </trkpt>
      <trkpt lat="46.65018" lon="6.29276">
        <ele>1071</ele>
        <time>2013-08-18T14:22:11.000Z</time>
      </trkpt>
      <trkpt lat="46.65019" lon="6.29279">
        <ele>1071</ele>
        <time>2013-08-18T14:22:12.000Z</time>
      </trkpt>
      <trkpt lat="46.6502" lon="6.29282">
        <ele>1071</ele>
        <time>2013-08-18T14:22:13.000Z</time>
      </trkpt>
      <trkpt lat="46.65022" lon="6.29285">
        <ele>1071</ele>
        <time>2013-08-18T14:22:14.000Z</time>
      </trkpt>
      <trkpt lat="46.65024" lon="6.29288">
        <ele>1070</ele>
        <time>2013-08-18T14:22:15.000Z</time>
      </trkpt>
      <trkpt lat="46.65025" lon="6.29291">
        <ele>1070</ele>
        <time>2013-08-18T14:22:16.000Z</time>
      </trkpt>
      <trkpt lat="46.65027" lon="6.29294">
        <ele>1070</ele>
        <time>2013-08-18T14:22:17.000Z</time>
      </trkpt>
      <trkpt lat="46.65028" lon="6.29297">
        <ele>1070</ele>
        <time>2013-08-18T14:22:18.000Z</time>
      </trkpt>
      <trkpt lat="46.65029" lon="6.293">
        <ele>1070</ele>
        <time>2013-08-18T14:22:19.000Z</time>
      </trkpt>
      <trkpt lat="46.6503" lon="6.29302">
        <ele>1070</ele>
        <time>2013-08-18T14:22:20.000Z</time>
      </trkpt>
      <trkpt lat="46.65031" lon="6.29305">
        <ele>1070</ele>
        <time>2013-08-18T14:22:21.000Z</time>
      </trkpt>
      <trkpt lat="46.65033" lon="6.29308">
        <ele>1070</ele>
        <time>2013-08-18T14:22:22.000Z</time>
      </trkpt>
      <trkpt lat="46.65034" lon="6.2931">
        <ele>1070</ele>
        <time>2013-08-18T14:22:23.000Z</time>
      </trkpt>
      <trkpt lat="46.65036" lon="6.29312">
        <ele>1070</ele>
        <time>2013-08-18T14:22:24.000Z</time>
      </trkpt>
      <trkpt lat="46.65038" lon="6.29315">
        <ele>1071</ele>
        <time>2013-08-18T14:22:25.000Z</time>
      </trkpt>
      <trkpt lat="46.6504" lon="6.29318">
        <ele>1071</ele>
        <time>2013-08-18T14:22:26.000Z</time>
      </trkpt>
      <trkpt lat="46.65041" lon="6.29321">
        <ele>1071</ele>
        <time>2013-08-18T14:22:27.000Z</time>
      </trkpt>
      <trkpt lat="46.65043" lon="6.29324">
        <ele>1071</ele>
        <time>2013-08-18T14:22:28.000Z</time>
      </trkpt>
      <trkpt lat="46.65044" lon="6.29327">
        <ele>1071</ele>
        <time>2013-08-18T14:22:29.000Z</time>
      </trkpt>
      <trkpt lat="46.65046" lon="6.2933">
        <ele>1071</ele>
        <time>2013-08-18T14:22:30.000Z</time>
      </trkpt>
      <trkpt lat="46.65047" lon="6.29333">
        <ele>1071</ele>
        <time>2013-08-18T14:22:31.000Z</time>
      </trkpt>
      <trkpt lat="46.65049" lon="6.29336">
        <ele>1072</ele>
        <time>2013-08-18T14:22:32.000Z</time>
      </trkpt>
      <trkpt lat="46.65051" lon="6.29339">
        <ele>1072</ele>
        <time>2013-08-18T14:22:33.000Z</time>
      </trkpt>
      <trkpt lat="46.65052" lon="6.29342">
        <ele>1072</ele>
        <time>2013-08-18T14:22:34.000Z</time>
      </trkpt>
      <trkpt lat="46.65054" lon="6.29345">
        <ele>1072</ele>
        <time>2013-08-18T14:22:35.000Z</time>
      </trkpt>
      <trkpt lat="46.65056" lon="6.29347">
        <ele>1072</ele>
        <time>2013-08-18T14:22:36.000Z</time>
      </trkpt>
      <trkpt lat="46.65058" lon="6.2935">
        <ele>1072</ele>
        <time>2013-08-18T14:22:37.000Z</time>
      </trkpt>
      <trkpt lat="46.65059" lon="6.29353">
        <ele>1072</ele>
        <time>2013-08-18T14:22:38.000Z</time>
      </trkpt>
      <trkpt lat="46.6506" lon="6.29356">
        <ele>1072</ele>
        <time>2013-08-18T14:22:39.000Z</time>
      </trkpt>
      <trkpt lat="46.65061" lon="6.29359">
        <ele>1072</ele>
        <time>2013-08-18T14:22:40.000Z</time>
      </trkpt>
      <trkpt lat="46.65062" lon="6.29361">
        <ele>1072</ele>
        <time>2013-08-18T14:22:41.000Z</time>
      </trkpt>
      <trkpt lat="46.65063" lon="6.29364">
        <ele>1072</ele>
        <time>2013-08-18T14:22:42.000Z</time>
      </trkpt>
      <trkpt lat="46.65063" lon="6.29365">
        <ele>1072</ele>
        <time>2013-08-18T14:22:43.000Z</time>
      </trkpt>
      <trkpt lat="46.65064" lon="6.29367">
        <ele>1072</ele>
        <time>2013-08-18T14:22:44.000Z</time>
      </trkpt>
      <trkpt lat="46.65065" lon="6.2937">
        <ele>1072</ele>
        <time>2013-08-18T14:22:45.000Z</time>
      </trkpt>
      <trkpt lat="46.65066" lon="6.29372">
        <ele>1072</ele>
        <time>2013-08-18T14:22:46.000Z</time>
      </trkpt>
      <trkpt lat="46.65067" lon="6.29375">
        <ele>1072</ele>
        <time>2013-08-18T14:22:47.000Z</time>
      </trkpt>
      <trkpt lat="46.65068" lon="6.29378">
        <ele>1073</ele>
        <time>2013-08-18T14:22:48.000Z</time>
      </trkpt>
      <trkpt lat="46.65069" lon="6.2938">
        <ele>1073</ele>
        <time>2013-08-18T14:22:49.000Z</time>
      </trkpt>
      <trkpt lat="46.6507" lon="6.29383">
        <ele>1073</ele>
        <time>2013-08-18T14:22:50.000Z</time>
      </trkpt>
      <trkpt lat="46.65071" lon="6.29385">
        <ele>1073</ele>
        <time>2013-08-18T14:22:51.000Z</time>
      </trkpt>
      <trkpt lat="46.65072" lon="6.29388">
        <ele>1073</ele>
        <time>2013-08-18T14:22:52.000Z</time>
      </trkpt>
      <trkpt lat="46.65073" lon="6.2939">
        <ele>1074</ele>
        <time>2013-08-18T14:22:53.000Z</time>
      </trkpt>
      <trkpt lat="46.65074" lon="6.29392">
        <ele>1074</ele>
        <time>2013-08-18T14:22:54.000Z</time>
      </trkpt>
      <trkpt lat="46.65075" lon="6.29394">
        <ele>1074</ele>
        <time>2013-08-18T14:22:55.000Z</time>
      </trkpt>
      <trkpt lat="46.65076" lon="6.29396">
        <ele>1075</ele>
        <time>2013-08-18T14:22:56.000Z</time>
      </trkpt>
      <trkpt lat="46.65077" lon="6.29397">
        <ele>1075</ele>
        <time>2013-08-18T14:22:57.000Z</time>
      </trkpt>
      <trkpt lat="46.65078" lon="6.29399">
        <ele>1076</ele>
        <time>2013-08-18T14:22:58.000Z</time>
      </trkpt>
      <trkpt lat="46.65078" lon="6.29402">
        <ele>1076</ele>
        <time>2013-08-18T14:22:59.000Z</time>
      </trkpt>
      <trkpt lat="46.65079" lon="6.29404">
        <ele>1077</ele>
        <time>2013-08-18T14:23:00.000Z</time>
      </trkpt>
      <trkpt lat="46.6508" lon="6.29406">
        <ele>1077</ele>
        <time>2013-08-18T14:23:01.000Z</time>
      </trkpt>
      <trkpt lat="46.65082" lon="6.29408">
        <ele>1078</ele>
        <time>2013-08-18T14:23:02.000Z</time>
      </trkpt>
      <trkpt lat="46.65083" lon="6.2941">
        <ele>1079</ele>
        <time>2013-08-18T14:23:03.000Z</time>
      </trkpt>
      <trkpt lat="46.65083" lon="6.29412">
        <ele>1080</ele>
        <time>2013-08-18T14:23:04.000Z</time>
      </trkpt>
      <trkpt lat="46.65084" lon="6.29414">
        <ele>1080</ele>
        <time>2013-08-18T14:23:05.000Z</time>
      </trkpt>
      <trkpt lat="46.65085" lon="6.29417">
        <ele>1081</ele>
        <time>2013-08-18T14:23:06.000Z</time>
      </trkpt>
      <trkpt lat="46.65085" lon="6.29419">
        <ele>1081</ele>
        <time>2013-08-18T14:23:07.000Z</time>
      </trkpt>
      <trkpt lat="46.65086" lon="6.29421">
        <ele>1080</ele>
        <time>2013-08-18T14:23:08.000Z</time>
      </trkpt>
      <trkpt lat="46.65087" lon="6.29423">
        <ele>1079</ele>
        <time>2013-08-18T14:23:09.000Z</time>
      </trkpt>
      <trkpt lat="46.65087" lon="6.29426">
        <ele>1079</ele>
        <time>2013-08-18T14:23:10.000Z</time>
      </trkpt>
      <trkpt lat="46.65088" lon="6.29428">
        <ele>1078</ele>
        <time>2013-08-18T14:23:11.000Z</time>
      </trkpt>
      <trkpt lat="46.65089" lon="6.29431">
        <ele>1078</ele>
        <time>2013-08-18T14:23:12.000Z</time>
      </trkpt>
      <trkpt lat="46.6509" lon="6.29433">
        <ele>1077</ele>
        <time>2013-08-18T14:23:13.000Z</time>
      </trkpt>
      <trkpt lat="46.65091" lon="6.29436">
        <ele>1077</ele>
        <time>2013-08-18T14:23:14.000Z</time>
      </trkpt>
      <trkpt lat="46.65092" lon="6.29438">
        <ele>1076</ele>
        <time>2013-08-18T14:23:15.000Z</time>
      </trkpt>
      <trkpt lat="46.65093" lon="6.2944">
        <ele>1076</ele>
        <time>2013-08-18T14:23:16.000Z</time>
      </trkpt>
      <trkpt lat="46.65094" lon="6.29443">
        <ele>1076</ele>
        <time>2013-08-18T14:23:17.000Z</time>
      </trkpt>
      <trkpt lat="46.65095" lon="6.29445">
        <ele>1075</ele>
        <time>2013-08-18T14:23:18.000Z</time>
      </trkpt>
      <trkpt lat="46.65096" lon="6.29447">
        <ele>1075</ele>
        <time>2013-08-18T14:23:19.000Z</time>
      </trkpt>
      <trkpt lat="46.65097" lon="6.29449">
        <ele>1075</ele>
        <time>2013-08-18T14:23:20.000Z</time>
      </trkpt>
      <trkpt lat="46.65098" lon="6.29451">
        <ele>1075</ele>
        <time>2013-08-18T14:23:21.000Z</time>
      </trkpt>
      <trkpt lat="46.65099" lon="6.29453">
        <ele>1075</ele>
        <time>2013-08-18T14:23:22.000Z</time>
      </trkpt>
      <trkpt lat="46.651" lon="6.29454">
        <ele>1075</ele>
        <time>2013-08-18T14:23:23.000Z</time>
      </trkpt>
      <trkpt lat="46.65101" lon="6.29456">
        <ele>1075</ele>
        <time>2013-08-18T14:23:24.000Z</time>
      </trkpt>
      <trkpt lat="46.65102" lon="6.29458">
        <ele>1074</ele>
        <time>2013-08-18T14:23:25.000Z</time>
      </trkpt>
      <trkpt lat="46.65103" lon="6.29461">
        <ele>1074</ele>
        <time>2013-08-18T14:23:26.000Z</time>
      </trkpt>
      <trkpt lat="46.65105" lon="6.29463">
        <ele>1074</ele>
        <time>2013-08-18T14:23:27.000Z</time>
      </trkpt>
      <trkpt lat="46.65106" lon="6.29466">
        <ele>1074</ele>
        <time>2013-08-18T14:23:28.000Z</time>
      </trkpt>
      <trkpt lat="46.65107" lon="6.29468">
        <ele>1074</ele>
        <time>2013-08-18T14:23:29.000Z</time>
      </trkpt>
      <trkpt lat="46.65108" lon="6.29471">
        <ele>1074</ele>
        <time>2013-08-18T14:23:30.000Z</time>
      </trkpt>
      <trkpt lat="46.65109" lon="6.29474">
        <ele>1074</ele>
        <time>2013-08-18T14:23:31.000Z</time>
      </trkpt>
      <trkpt lat="46.65111" lon="6.29477">
        <ele>1074</ele>
        <time>2013-08-18T14:23:32.000Z</time>
      </trkpt>
      <trkpt lat="46.65112" lon="6.2948">
        <ele>1074</ele>
        <time>2013-08-18T14:23:33.000Z</time>
      </trkpt>
      <trkpt lat="46.65114" lon="6.29483">
        <ele>1074</ele>
        <time>2013-08-18T14:23:34.000Z</time>
      </trkpt>
      <trkpt lat="46.65115" lon="6.29486">
        <ele>1074</ele>
        <time>2013-08-18T14:23:35.000Z</time>
      </trkpt>
      <trkpt lat="46.65116" lon="6.29489">
        <ele>1074</ele>
        <time>2013-08-18T14:23:36.000Z</time>
      </trkpt>
      <trkpt lat="46.65118" lon="6.29492">
        <ele>1074</ele>
        <time>2013-08-18T14:23:37.000Z</time>
      </trkpt>
      <trkpt lat="46.65119" lon="6.29494">
        <ele>1074</ele>
        <time>2013-08-18T14:23:38.000Z</time>
      </trkpt>
      <trkpt lat="46.6512" lon="6.29497">
        <ele>1074</ele>
        <time>2013-08-18T14:23:39.000Z</time>
      </trkpt>
      <trkpt lat="46.65121" lon="6.29499">
        <ele>1074</ele>
        <time>2013-08-18T14:23:40.000Z</time>
      </trkpt>
      <trkpt lat="46.65122" lon="6.29502">
        <ele>1074</ele>
        <time>2013-08-18T14:23:41.000Z</time>
      </trkpt>
      <trkpt lat="46.65123" lon="6.29505">
        <ele>1074</ele>
        <time>2013-08-18T14:23:42.000Z</time>
      </trkpt>
      <trkpt lat="46.65125" lon="6.29508">
        <ele>1074</ele>
        <time>2013-08-18T14:23:43.000Z</time>
      </trkpt>
      <trkpt lat="46.65126" lon="6.29512">
        <ele>1073</ele>
        <time>2013-08-18T14:23:44.000Z</time>
      </trkpt>
      <trkpt lat="46.65127" lon="6.29516">
        <ele>1073</ele>
        <time>2013-08-18T14:23:45.000Z</time>
      </trkpt>
      <trkpt lat="46.65129" lon="6.2952">
        <ele>1073</ele>
        <time>2013-08-18T14:23:46.000Z</time>
      </trkpt>
      <trkpt lat="46.6513" lon="6.29524">
        <ele>1073</ele>
        <time>2013-08-18T14:23:47.000Z</time>
      </trkpt>
      <trkpt lat="46.65131" lon="6.29528">
        <ele>1073</ele>
        <time>2013-08-18T14:23:48.000Z</time>
      </trkpt>
      <trkpt lat="46.65132" lon="6.29533">
        <ele>1073</ele>
        <time>2013-08-18T14:23:49.000Z</time>
      </trkpt>
      <trkpt lat="46.65134" lon="6.29538">
        <ele>1073</ele>
        <time>2013-08-18T14:23:50.000Z</time>
      </trkpt>
      <trkpt lat="46.65135" lon="6.29544">
        <ele>1073</ele>
        <time>2013-08-18T14:23:51.000Z</time>
      </trkpt>
      <trkpt lat="46.65137" lon="6.2955">
        <ele>1073</ele>
        <time>2013-08-18T14:23:52.000Z</time>
      </trkpt>
      <trkpt lat="46.65139" lon="6.29557">
        <ele>1073</ele>
        <time>2013-08-18T14:23:53.000Z</time>
      </trkpt>
      <trkpt lat="46.65142" lon="6.29564">
        <ele>1074</ele>
        <time>2013-08-18T14:23:54.000Z</time>
      </trkpt>
      <trkpt lat="46.65144" lon="6.29571">
        <ele>1074</ele>
        <time>2013-08-18T14:23:55.000Z</time>
      </trkpt>
      <trkpt lat="46.65146" lon="6.29578">
        <ele>1075</ele>
        <time>2013-08-18T14:23:56.000Z</time>
      </trkpt>
      <trkpt lat="46.65149" lon="6.29584">
        <ele>1073</ele>
        <time>2013-08-18T14:23:57.000Z</time>
      </trkpt>
      <trkpt lat="46.65151" lon="6.29588">
        <ele>1073</ele>
        <time>2013-08-18T14:23:58.000Z</time>
      </trkpt>
      <trkpt lat="46.65153" lon="6.29593">
        <ele>1073</ele>
        <time>2013-08-18T14:23:59.000Z</time>
      </trkpt>
      <trkpt lat="46.65155" lon="6.29599">
        <ele>1073</ele>
        <time>2013-08-18T14:24:00.000Z</time>
      </trkpt>
      <trkpt lat="46.65157" lon="6.29604">
        <ele>1072</ele>
        <time>2013-08-18T14:24:01.000Z</time>
      </trkpt>
      <trkpt lat="46.65158" lon="6.29609">
        <ele>1072</ele>
        <time>2013-08-18T14:24:02.000Z</time>
      </trkpt>
      <trkpt lat="46.6516" lon="6.29613">
        <ele>1071</ele>
        <time>2013-08-18T14:24:03.000Z</time>
      </trkpt>
      <trkpt lat="46.65163" lon="6.29618">
        <ele>1071</ele>
        <time>2013-08-18T14:24:04.000Z</time>
      </trkpt>
      <trkpt lat="46.65165" lon="6.29622">
        <ele>1071</ele>
        <time>2013-08-18T14:24:05.000Z</time>
      </trkpt>
      <trkpt lat="46.65167" lon="6.29627">
        <ele>1071</ele>
        <time>2013-08-18T14:24:06.000Z</time>
      </trkpt>
      <trkpt lat="46.65169" lon="6.29631">
        <ele>1071</ele>
        <time>2013-08-18T14:24:07.000Z</time>
      </trkpt>
      <trkpt lat="46.65171" lon="6.29634">
        <ele>1071</ele>
        <time>2013-08-18T14:24:08.000Z</time>
      </trkpt>
      <trkpt lat="46.65173" lon="6.29639">
        <ele>1071</ele>
        <time>2013-08-18T14:24:09.000Z</time>
      </trkpt>
      <trkpt lat="46.65174" lon="6.29644">
        <ele>1072</ele>
        <time>2013-08-18T14:24:10.000Z</time>
      </trkpt>
      <trkpt lat="46.65177" lon="6.29649">
        <ele>1072</ele>
        <time>2013-08-18T14:24:11.000Z</time>
      </trkpt>
      <trkpt lat="46.65179" lon="6.29655">
        <ele>1072</ele>
        <time>2013-08-18T14:24:12.000Z</time>
      </trkpt>
      <trkpt lat="46.65182" lon="6.2966">
        <ele>1073</ele>
        <time>2013-08-18T14:24:13.000Z</time>
      </trkpt>
      <trkpt lat="46.65184" lon="6.29664">
        <ele>1072</ele>
        <time>2013-08-18T14:24:14.000Z</time>
      </trkpt>
      <trkpt lat="46.65186" lon="6.29668">
        <ele>1075</ele>
        <time>2013-08-18T14:24:15.000Z</time>
      </trkpt>
      <trkpt lat="46.65189" lon="6.29671">
        <ele>1074</ele>
        <time>2013-08-18T14:24:16.000Z</time>
      </trkpt>
      <trkpt lat="46.65191" lon="6.29675">
        <ele>1074</ele>
        <time>2013-08-18T14:24:17.000Z</time>
      </trkpt>
      <trkpt lat="46.65192" lon="6.29678">
        <ele>1073</ele>
        <time>2013-08-18T14:24:18.000Z</time>
      </trkpt>
      <trkpt lat="46.65193" lon="6.2968">
        <ele>1073</ele>
        <time>2013-08-18T14:24:19.000Z</time>
      </trkpt>
      <trkpt lat="46.65194" lon="6.29682">
        <ele>1073</ele>
        <time>2013-08-18T14:24:20.000Z</time>
      </trkpt>
      <trkpt lat="46.65195" lon="6.29685">
        <ele>1073</ele>
        <time>2013-08-18T14:24:21.000Z</time>
      </trkpt>
      <trkpt lat="46.65197" lon="6.29688">
        <ele>1073</ele>
        <time>2013-08-18T14:24:22.000Z</time>
      </trkpt>
      <trkpt lat="46.65198" lon="6.29691">
        <ele>1073</ele>
        <time>2013-08-18T14:24:23.000Z</time>
      </trkpt>
      <trkpt lat="46.65199" lon="6.29693">
        <ele>1072</ele>
        <time>2013-08-18T14:24:24.000Z</time>
      </trkpt>
      <trkpt lat="46.652" lon="6.29696">
        <ele>1072</ele>
        <time>2013-08-18T14:24:25.000Z</time>
      </trkpt>
      <trkpt lat="46.65201" lon="6.29699">
        <ele>1072</ele>
        <time>2013-08-18T14:24:26.000Z</time>
      </trkpt>
      <trkpt lat="46.65203" lon="6.29701">
        <ele>1072</ele>
        <time>2013-08-18T14:24:27.000Z</time>
      </trkpt>
      <trkpt lat="46.65204" lon="6.29704">
        <ele>1072</ele>
        <time>2013-08-18T14:24:28.000Z</time>
      </trkpt>
      <trkpt lat="46.65206" lon="6.29708">
        <ele>1072</ele>
        <time>2013-08-18T14:24:29.000Z</time>
      </trkpt>
      <trkpt lat="46.65207" lon="6.2971">
        <ele>1072</ele>
        <time>2013-08-18T14:24:30.000Z</time>
      </trkpt>
      <trkpt lat="46.65208" lon="6.29713">
        <ele>1072</ele>
        <time>2013-08-18T14:24:31.000Z</time>
      </trkpt>
      <trkpt lat="46.6521" lon="6.29717">
        <ele>1073</ele>
        <time>2013-08-18T14:24:32.000Z</time>
      </trkpt>
      <trkpt lat="46.65212" lon="6.2972">
        <ele>1073</ele>
        <time>2013-08-18T14:24:33.000Z</time>
      </trkpt>
      <trkpt lat="46.65215" lon="6.29724">
        <ele>1073</ele>
        <time>2013-08-18T14:24:34.000Z</time>
      </trkpt>
      <trkpt lat="46.65217" lon="6.29728">
        <ele>1073</ele>
        <time>2013-08-18T14:24:35.000Z</time>
      </trkpt>
      <trkpt lat="46.65219" lon="6.29732">
        <ele>1073</ele>
        <time>2013-08-18T14:24:36.000Z</time>
      </trkpt>
      <trkpt lat="46.6522" lon="6.29735">
        <ele>1073</ele>
        <time>2013-08-18T14:24:37.000Z</time>
      </trkpt>
      <trkpt lat="46.65222" lon="6.29739">
        <ele>1074</ele>
        <time>2013-08-18T14:24:38.000Z</time>
      </trkpt>
      <trkpt lat="46.65224" lon="6.29743">
        <ele>1074</ele>
        <time>2013-08-18T14:24:39.000Z</time>
      </trkpt>
      <trkpt lat="46.65225" lon="6.29745">
        <ele>1074</ele>
        <time>2013-08-18T14:24:40.000Z</time>
      </trkpt>
      <trkpt lat="46.65226" lon="6.29748">
        <ele>1074</ele>
        <time>2013-08-18T14:24:41.000Z</time>
      </trkpt>
      <trkpt lat="46.65228" lon="6.29751">
        <ele>1075</ele>
        <time>2013-08-18T14:24:42.000Z</time>
      </trkpt>
      <trkpt lat="46.65229" lon="6.29755">
        <ele>1075</ele>
        <time>2013-08-18T14:24:43.000Z</time>
      </trkpt>
      <trkpt lat="46.6523" lon="6.29758">
        <ele>1075</ele>
        <time>2013-08-18T14:24:44.000Z</time>
      </trkpt>
      <trkpt lat="46.65232" lon="6.29761">
        <ele>1075</ele>
        <time>2013-08-18T14:24:45.000Z</time>
      </trkpt>
      <trkpt lat="46.65233" lon="6.29764">
        <ele>1075</ele>
        <time>2013-08-18T14:24:46.000Z</time>
      </trkpt>
      <trkpt lat="46.65234" lon="6.29766">
        <ele>1075</ele>
        <time>2013-08-18T14:24:47.000Z</time>
      </trkpt>
      <trkpt lat="46.65235" lon="6.29769">
        <ele>1075</ele>
        <time>2013-08-18T14:24:48.000Z</time>
      </trkpt>
      <trkpt lat="46.65236" lon="6.29771">
        <ele>1075</ele>
        <time>2013-08-18T14:24:49.000Z</time>
      </trkpt>
      <trkpt lat="46.65238" lon="6.29774">
        <ele>1075</ele>
        <time>2013-08-18T14:24:50.000Z</time>
      </trkpt>
      <trkpt lat="46.65239" lon="6.29776">
        <ele>1075</ele>
        <time>2013-08-18T14:24:51.000Z</time>
      </trkpt>
      <trkpt lat="46.6524" lon="6.29778">
        <ele>1075</ele>
        <time>2013-08-18T14:24:52.000Z</time>
      </trkpt>
      <trkpt lat="46.65241" lon="6.2978">
        <ele>1075</ele>
        <time>2013-08-18T14:24:53.000Z</time>
      </trkpt>
      <trkpt lat="46.65242" lon="6.29783">
        <ele>1075</ele>
        <time>2013-08-18T14:24:54.000Z</time>
      </trkpt>
      <trkpt lat="46.65242" lon="6.29785">
        <ele>1075</ele>
        <time>2013-08-18T14:24:55.000Z</time>
      </trkpt>
      <trkpt lat="46.65243" lon="6.29787">
        <ele>1075</ele>
        <time>2013-08-18T14:24:56.000Z</time>
      </trkpt>
      <trkpt lat="46.65244" lon="6.29789">
        <ele>1075</ele>
        <time>2013-08-18T14:24:57.000Z</time>
      </trkpt>
      <trkpt lat="46.65245" lon="6.2979">
        <ele>1075</ele>
        <time>2013-08-18T14:24:58.000Z</time>
      </trkpt>
      <trkpt lat="46.65246" lon="6.29792">
        <ele>1075</ele>
        <time>2013-08-18T14:24:59.000Z</time>
      </trkpt>
      <trkpt lat="46.65247" lon="6.29794">
        <ele>1075</ele>
        <time>2013-08-18T14:25:00.000Z</time>
      </trkpt>
      <trkpt lat="46.65248" lon="6.29796">
        <ele>1075</ele>
        <time>2013-08-18T14:25:01.000Z</time>
      </trkpt>
      <trkpt lat="46.65249" lon="6.29799">
        <ele>1075</ele>
        <time>2013-08-18T14:25:02.000Z</time>
      </trkpt>
      <trkpt lat="46.6525" lon="6.29801">
        <ele>1076</ele>
        <time>2013-08-18T14:25:03.000Z</time>
      </trkpt>
      <trkpt lat="46.65251" lon="6.29803">
        <ele>1074</ele>
        <time>2013-08-18T14:25:04.000Z</time>
      </trkpt>
      <trkpt lat="46.65252" lon="6.29805">
        <ele>1074</ele>
        <time>2013-08-18T14:25:05.000Z</time>
      </trkpt>
      <trkpt lat="46.65253" lon="6.29807">
        <ele>1075</ele>
        <time>2013-08-18T14:25:06.000Z</time>
      </trkpt>
      <trkpt lat="46.65253" lon="6.29809">
        <ele>1075</ele>
        <time>2013-08-18T14:25:07.000Z</time>
      </trkpt>
      <trkpt lat="46.65254" lon="6.29811">
        <ele>1075</ele>
        <time>2013-08-18T14:25:08.000Z</time>
      </trkpt>
      <trkpt lat="46.65254" lon="6.29813">
        <ele>1076</ele>
        <time>2013-08-18T14:25:09.000Z</time>
      </trkpt>
      <trkpt lat="46.65255" lon="6.29814">
        <ele>1076</ele>
        <time>2013-08-18T14:25:10.000Z</time>
      </trkpt>
      <trkpt lat="46.65255" lon="6.29815">
        <ele>1076</ele>
        <time>2013-08-18T14:25:11.000Z</time>
      </trkpt>
      <trkpt lat="46.65255" lon="6.29815">
        <ele>1076</ele>
        <time>2013-08-18T14:25:12.000Z</time>
      </trkpt>
      <trkpt lat="46.65255" lon="6.29816">
        <ele>1076</ele>
        <time>2013-08-18T14:25:14.000Z</time>
      </trkpt>
      <trkpt lat="46.65255" lon="6.29817">
        <ele>1076</ele>
        <time>2013-08-18T14:25:16.000Z</time>
      </trkpt>
      <trkpt lat="46.65254" lon="6.29817">
        <ele>1077</ele>
        <time>2013-08-18T14:25:18.000Z</time>
      </trkpt>
      <trkpt lat="46.65254" lon="6.29817">
        <ele>1077</ele>
        <time>2013-08-18T14:25:19.000Z</time>
      </trkpt>
      <trkpt lat="46.65254" lon="6.29817">
        <ele>1077</ele>
        <time>2013-08-18T14:25:21.000Z</time>
      </trkpt>
      <trkpt lat="46.65253" lon="6.29817">
        <ele>1077</ele>
        <time>2013-08-18T14:25:23.000Z</time>
      </trkpt>
      <trkpt lat="46.65253" lon="6.29818">
        <ele>1077</ele>
        <time>2013-08-18T14:25:26.000Z</time>
      </trkpt>
      <trkpt lat="46.65252" lon="6.29818">
        <ele>1077</ele>
        <time>2013-08-18T14:25:33.000Z</time>
      </trkpt>
      <trkpt lat="46.65251" lon="6.29818">
        <ele>1077</ele>
        <time>2013-08-18T14:25:36.000Z</time>
      </trkpt>
      <trkpt lat="46.65251" lon="6.29818">
        <ele>1077</ele>
        <time>2013-08-18T14:25:39.000Z</time>
      </trkpt>
      <trkpt lat="46.65251" lon="6.29818">
        <ele>1077</ele>
        <time>2013-08-18T14:25:43.000Z</time>
      </trkpt>
      <trkpt lat="46.65251" lon="6.29819">
        <ele>1077</ele>
        <time>2013-08-18T14:25:48.000Z</time>
      </trkpt>
      <trkpt lat="46.65251" lon="6.29819">
        <ele>1078</ele>
        <time>2013-08-18T14:25:57.000Z</time>
      </trkpt>
      <trkpt lat="46.6525" lon="6.2982">
        <ele>1078</ele>
        <time>2013-08-18T14:25:59.000Z</time>
      </trkpt>
      <trkpt lat="46.65251" lon="6.2982">
        <ele>1078</ele>
        <time>2013-08-18T14:26:02.000Z</time>
      </trkpt>
      <trkpt lat="46.65251" lon="6.2982">
        <ele>1078</ele>
        <time>2013-08-18T14:26:06.000Z</time>
      </trkpt>
      <trkpt lat="46.65251" lon="6.2982">
        <ele>1078</ele>
        <time>2013-08-18T14:26:07.000Z</time>
      </trkpt>
      <trkpt lat="46.65251" lon="6.29821">
        <ele>1078</ele>
        <time>2013-08-18T14:26:11.000Z</time>
      </trkpt>
      <trkpt lat="46.65251" lon="6.29821">
        <ele>1078</ele>
        <time>2013-08-18T14:26:12.000Z</time>
      </trkpt>
      <trkpt lat="46.65251" lon="6.29821">
        <ele>1078</ele>
        <time>2013-08-18T14:26:14.000Z</time>
      </trkpt>
      <trkpt lat="46.65252" lon="6.29821">
        <ele>1078</ele>
        <time>2013-08-18T14:26:17.000Z</time>
      </trkpt>
      <trkpt lat="46.65252" lon="6.29821">
        <ele>1078</ele>
        <time>2013-08-18T14:26:20.000Z</time>
      </trkpt>
      <trkpt lat="46.65252" lon="6.29822">
        <ele>1078</ele>
        <time>2013-08-18T14:26:23.000Z</time>
      </trkpt>
      <trkpt lat="46.65252" lon="6.29821">
        <ele>1078</ele>
        <time>2013-08-18T14:26:41.000Z</time>
      </trkpt>
      <trkpt lat="46.65252" lon="6.29821">
        <ele>1078</ele>
        <time>2013-08-18T14:26:43.000Z</time>
      </trkpt>
      <trkpt lat="46.65252" lon="6.29821">
        <ele>1078</ele>
        <time>2013-08-18T14:26:45.000Z</time>
      </trkpt>
      <trkpt lat="46.65252" lon="6.29821">
        <ele>1078</ele>
        <time>2013-08-18T14:26:49.000Z</time>
      </trkpt>
      <trkpt lat="46.65252" lon="6.29821">
        <ele>1078</ele>
        <time>2013-08-18T14:26:52.000Z</time>
      </trkpt>
      <trkpt lat="46.65251" lon="6.29821">
        <ele>1078</ele>
        <time>2013-08-18T14:26:54.000Z</time>
      </trkpt>
      <trkpt lat="46.65252" lon="6.29822">
        <ele>1079</ele>
        <time>2013-08-18T14:26:55.000Z</time>
      </trkpt>
      <trkpt lat="46.65252" lon="6.29824">
        <ele>1079</ele>
        <time>2013-08-18T14:26:56.000Z</time>
      </trkpt>
      <trkpt lat="46.65253" lon="6.29825">
        <ele>1080</ele>
        <time>2013-08-18T14:26:57.000Z</time>
      </trkpt>
      <trkpt lat="46.65254" lon="6.29827">
        <ele>1080</ele>
        <time>2013-08-18T14:26:58.000Z</time>
      </trkpt>
      <trkpt lat="46.65255" lon="6.29829">
        <ele>1080</ele>
        <time>2013-08-18T14:26:59.000Z</time>
      </trkpt>
      <trkpt lat="46.65256" lon="6.29831">
        <ele>1080</ele>
        <time>2013-08-18T14:27:00.000Z</time>
      </trkpt>
      <trkpt lat="46.65257" lon="6.29833">
        <ele>1080</ele>
        <time>2013-08-18T14:27:01.000Z</time>
      </trkpt>
      <trkpt lat="46.65258" lon="6.29835">
        <ele>1081</ele>
        <time>2013-08-18T14:27:02.000Z</time>
      </trkpt>
      <trkpt lat="46.65259" lon="6.29837">
        <ele>1081</ele>
        <time>2013-08-18T14:27:03.000Z</time>
      </trkpt>
      <trkpt lat="46.65259" lon="6.29839">
        <ele>1081</ele>
        <time>2013-08-18T14:27:04.000Z</time>
      </trkpt>
      <trkpt lat="46.6526" lon="6.29842">
        <ele>1080</ele>
        <time>2013-08-18T14:27:05.000Z</time>
      </trkpt>
      <trkpt lat="46.65261" lon="6.29845">
        <ele>1080</ele>
        <time>2013-08-18T14:27:06.000Z</time>
      </trkpt>
      <trkpt lat="46.65262" lon="6.29847">
        <ele>1079</ele>
        <time>2013-08-18T14:27:07.000Z</time>
      </trkpt>
      <trkpt lat="46.65263" lon="6.2985">
        <ele>1079</ele>
        <time>2013-08-18T14:27:08.000Z</time>
      </trkpt>
      <trkpt lat="46.65263" lon="6.29853">
        <ele>1078</ele>
        <time>2013-08-18T14:27:09.000Z</time>
      </trkpt>
      <trkpt lat="46.65264" lon="6.29856">
        <ele>1078</ele>
        <time>2013-08-18T14:27:10.000Z</time>
      </trkpt>
      <trkpt lat="46.65265" lon="6.29858">
        <ele>1078</ele>
        <time>2013-08-18T14:27:11.000Z</time>
      </trkpt>
      <trkpt lat="46.65267" lon="6.29861">
        <ele>1078</ele>
        <time>2013-08-18T14:27:12.000Z</time>
      </trkpt>
      <trkpt lat="46.65268" lon="6.29864">
        <ele>1077</ele>
        <time>2013-08-18T14:27:13.000Z</time>
      </trkpt>
      <trkpt lat="46.65269" lon="6.29867">
        <ele>1077</ele>
        <time>2013-08-18T14:27:14.000Z</time>
      </trkpt>
      <trkpt lat="46.6527" lon="6.2987">
        <ele>1077</ele>
        <time>2013-08-18T14:27:15.000Z</time>
      </trkpt>
      <trkpt lat="46.65272" lon="6.29873">
        <ele>1077</ele>
        <time>2013-08-18T14:27:16.000Z</time>
      </trkpt>
      <trkpt lat="46.65273" lon="6.29876">
        <ele>1077</ele>
        <time>2013-08-18T14:27:17.000Z</time>
      </trkpt>
      <trkpt lat="46.65274" lon="6.2988">
        <ele>1077</ele>
        <time>2013-08-18T14:27:18.000Z</time>
      </trkpt>
      <trkpt lat="46.65276" lon="6.29883">
        <ele>1077</ele>
        <time>2013-08-18T14:27:19.000Z</time>
      </trkpt>
      <trkpt lat="46.65278" lon="6.29887">
        <ele>1077</ele>
        <time>2013-08-18T14:27:20.000Z</time>
      </trkpt>
      <trkpt lat="46.6528" lon="6.29891">
        <ele>1077</ele>
        <time>2013-08-18T14:27:21.000Z</time>
      </trkpt>
      <trkpt lat="46.65282" lon="6.29895">
        <ele>1077</ele>
        <time>2013-08-18T14:27:22.000Z</time>
      </trkpt>
      <trkpt lat="46.65283" lon="6.29898">
        <ele>1077</ele>
        <time>2013-08-18T14:27:23.000Z</time>
      </trkpt>
      <trkpt lat="46.65285" lon="6.29902">
        <ele>1077</ele>
        <time>2013-08-18T14:27:24.000Z</time>
      </trkpt>
      <trkpt lat="46.65287" lon="6.29906">
        <ele>1077</ele>
        <time>2013-08-18T14:27:25.000Z</time>
      </trkpt>
      <trkpt lat="46.65289" lon="6.2991">
        <ele>1077</ele>
        <time>2013-08-18T14:27:26.000Z</time>
      </trkpt>
      <trkpt lat="46.65291" lon="6.29913">
        <ele>1077</ele>
        <time>2013-08-18T14:27:27.000Z</time>
      </trkpt>
      <trkpt lat="46.65293" lon="6.29917">
        <ele>1077</ele>
        <time>2013-08-18T14:27:28.000Z</time>
      </trkpt>
      <trkpt lat="46.65294" lon="6.2992">
        <ele>1077</ele>
        <time>2013-08-18T14:27:29.000Z</time>
      </trkpt>
      <trkpt lat="46.65295" lon="6.29923">
        <ele>1077</ele>
        <time>2013-08-18T14:27:30.000Z</time>
      </trkpt>
      <trkpt lat="46.65297" lon="6.29926">
        <ele>1077</ele>
        <time>2013-08-18T14:27:31.000Z</time>
      </trkpt>
      <trkpt lat="46.65299" lon="6.29931">
        <ele>1077</ele>
        <time>2013-08-18T14:27:32.000Z</time>
      </trkpt>
      <trkpt lat="46.653" lon="6.29935">
        <ele>1077</ele>
        <time>2013-08-18T14:27:33.000Z</time>
      </trkpt>
      <trkpt lat="46.65302" lon="6.29939">
        <ele>1077</ele>
        <time>2013-08-18T14:27:34.000Z</time>
      </trkpt>
      <trkpt lat="46.65304" lon="6.29943">
        <ele>1077</ele>
        <time>2013-08-18T14:27:35.000Z</time>
      </trkpt>
      <trkpt lat="46.65305" lon="6.29947">
        <ele>1077</ele>
        <time>2013-08-18T14:27:36.000Z</time>
      </trkpt>
      <trkpt lat="46.65306" lon="6.2995">
        <ele>1077</ele>
        <time>2013-08-18T14:27:37.000Z</time>
      </trkpt>
      <trkpt lat="46.65307" lon="6.29953">
        <ele>1077</ele>
        <time>2013-08-18T14:27:38.000Z</time>
      </trkpt>
      <trkpt lat="46.65308" lon="6.29955">
        <ele>1077</ele>
        <time>2013-08-18T14:27:39.000Z</time>
      </trkpt>
      <trkpt lat="46.65309" lon="6.29958">
        <ele>1078</ele>
        <time>2013-08-18T14:27:40.000Z</time>
      </trkpt>
      <trkpt lat="46.65311" lon="6.29961">
        <ele>1078</ele>
        <time>2013-08-18T14:27:41.000Z</time>
      </trkpt>
      <trkpt lat="46.65312" lon="6.29964">
        <ele>1078</ele>
        <time>2013-08-18T14:27:42.000Z</time>
      </trkpt>
      <trkpt lat="46.65314" lon="6.29967">
        <ele>1078</ele>
        <time>2013-08-18T14:27:43.000Z</time>
      </trkpt>
      <trkpt lat="46.65315" lon="6.29971">
        <ele>1079</ele>
        <time>2013-08-18T14:27:44.000Z</time>
      </trkpt>
      <trkpt lat="46.65317" lon="6.29974">
        <ele>1079</ele>
        <time>2013-08-18T14:27:45.000Z</time>
      </trkpt>
      <trkpt lat="46.65319" lon="6.29978">
        <ele>1080</ele>
        <time>2013-08-18T14:27:46.000Z</time>
      </trkpt>
      <trkpt lat="46.65322" lon="6.29982">
        <ele>1081</ele>
        <time>2013-08-18T14:27:47.000Z</time>
      </trkpt>
      <trkpt lat="46.65324" lon="6.29986">
        <ele>1082</ele>
        <time>2013-08-18T14:27:48.000Z</time>
      </trkpt>
      <trkpt lat="46.65326" lon="6.2999">
        <ele>1084</ele>
        <time>2013-08-18T14:27:49.000Z</time>
      </trkpt>
      <trkpt lat="46.65328" lon="6.29994">
        <ele>1085</ele>
        <time>2013-08-18T14:27:50.000Z</time>
      </trkpt>
      <trkpt lat="46.65329" lon="6.29997">
        <ele>1087</ele>
        <time>2013-08-18T14:27:51.000Z</time>
      </trkpt>
      <trkpt lat="46.6533" lon="6.30001">
        <ele>1087</ele>
        <time>2013-08-18T14:27:52.000Z</time>
      </trkpt>
      <trkpt lat="46.65331" lon="6.30004">
        <ele>1086</ele>
        <time>2013-08-18T14:27:53.000Z</time>
      </trkpt>
      <trkpt lat="46.65333" lon="6.30008">
        <ele>1084</ele>
        <time>2013-08-18T14:27:54.000Z</time>
      </trkpt>
      <trkpt lat="46.65335" lon="6.30012">
        <ele>1086</ele>
        <time>2013-08-18T14:27:55.000Z</time>
      </trkpt>
      <trkpt lat="46.65337" lon="6.30016">
        <ele>1084</ele>
        <time>2013-08-18T14:27:56.000Z</time>
      </trkpt>
      <trkpt lat="46.65339" lon="6.3002">
        <ele>1083</ele>
        <time>2013-08-18T14:27:57.000Z</time>
      </trkpt>
      <trkpt lat="46.65341" lon="6.30024">
        <ele>1083</ele>
        <time>2013-08-18T14:27:58.000Z</time>
      </trkpt>
      <trkpt lat="46.65343" lon="6.30028">
        <ele>1082</ele>
        <time>2013-08-18T14:27:59.000Z</time>
      </trkpt>
      <trkpt lat="46.65345" lon="6.30032">
        <ele>1082</ele>
        <time>2013-08-18T14:28:00.000Z</time>
      </trkpt>
      <trkpt lat="46.65347" lon="6.30036">
        <ele>1081</ele>
        <time>2013-08-18T14:28:01.000Z</time>
      </trkpt>
      <trkpt lat="46.65349" lon="6.30039">
        <ele>1081</ele>
        <time>2013-08-18T14:28:02.000Z</time>
      </trkpt>
      <trkpt lat="46.65351" lon="6.30043">
        <ele>1081</ele>
        <time>2013-08-18T14:28:03.000Z</time>
      </trkpt>
      <trkpt lat="46.65353" lon="6.30047">
        <ele>1081</ele>
        <time>2013-08-18T14:28:04.000Z</time>
      </trkpt>
      <trkpt lat="46.65355" lon="6.30051">
        <ele>1080</ele>
        <time>2013-08-18T14:28:05.000Z</time>
      </trkpt>
      <trkpt lat="46.65357" lon="6.30054">
        <ele>1080</ele>
        <time>2013-08-18T14:28:06.000Z</time>
      </trkpt>
      <trkpt lat="46.65359" lon="6.30057">
        <ele>1080</ele>
        <time>2013-08-18T14:28:07.000Z</time>
      </trkpt>
      <trkpt lat="46.6536" lon="6.30062">
        <ele>1080</ele>
        <time>2013-08-18T14:28:08.000Z</time>
      </trkpt>
      <trkpt lat="46.65362" lon="6.30066">
        <ele>1080</ele>
        <time>2013-08-18T14:28:09.000Z</time>
      </trkpt>
      <trkpt lat="46.65364" lon="6.30072">
        <ele>1080</ele>
        <time>2013-08-18T14:28:10.000Z</time>
      </trkpt>
      <trkpt lat="46.65365" lon="6.30078">
        <ele>1080</ele>
        <time>2013-08-18T14:28:11.000Z</time>
      </trkpt>
      <trkpt lat="46.65367" lon="6.30084">
        <ele>1080</ele>
        <time>2013-08-18T14:28:12.000Z</time>
      </trkpt>
      <trkpt lat="46.6537" lon="6.30091">
        <ele>1080</ele>
        <time>2013-08-18T14:28:13.000Z</time>
      </trkpt>
      <trkpt lat="46.65372" lon="6.30097">
        <ele>1080</ele>
        <time>2013-08-18T14:28:14.000Z</time>
      </trkpt>
      <trkpt lat="46.65374" lon="6.30103">
        <ele>1080</ele>
        <time>2013-08-18T14:28:15.000Z</time>
      </trkpt>
      <trkpt lat="46.65375" lon="6.30108">
        <ele>1080</ele>
        <time>2013-08-18T14:28:16.000Z</time>
      </trkpt>
      <trkpt lat="46.65377" lon="6.30113">
        <ele>1080</ele>
        <time>2013-08-18T14:28:17.000Z</time>
      </trkpt>
      <trkpt lat="46.65378" lon="6.30118">
        <ele>1080</ele>
        <time>2013-08-18T14:28:18.000Z</time>
      </trkpt>
      <trkpt lat="46.6538" lon="6.30122">
        <ele>1080</ele>
        <time>2013-08-18T14:28:19.000Z</time>
      </trkpt>
      <trkpt lat="46.65382" lon="6.30126">
        <ele>1080</ele>
        <time>2013-08-18T14:28:20.000Z</time>
      </trkpt>
      <trkpt lat="46.65383" lon="6.3013">
        <ele>1080</ele>
        <time>2013-08-18T14:28:21.000Z</time>
      </trkpt>
      <trkpt lat="46.65385" lon="6.30134">
        <ele>1080</ele>
        <time>2013-08-18T14:28:22.000Z</time>
      </trkpt>
      <trkpt lat="46.65386" lon="6.30138">
        <ele>1080</ele>
        <time>2013-08-18T14:28:23.000Z</time>
      </trkpt>
      <trkpt lat="46.65388" lon="6.30141">
        <ele>1080</ele>
        <time>2013-08-18T14:28:24.000Z</time>
      </trkpt>
      <trkpt lat="46.65389" lon="6.30145">
        <ele>1080</ele>
        <time>2013-08-18T14:28:25.000Z</time>
      </trkpt>
      <trkpt lat="46.65391" lon="6.30148">
        <ele>1081</ele>
        <time>2013-08-18T14:28:26.000Z</time>
      </trkpt>
      <trkpt lat="46.65392" lon="6.30151">
        <ele>1081</ele>
        <time>2013-08-18T14:28:27.000Z</time>
      </trkpt>
      <trkpt lat="46.65393" lon="6.30155">
        <ele>1081</ele>
        <time>2013-08-18T14:28:28.000Z</time>
      </trkpt>
      <trkpt lat="46.65395" lon="6.30157">
        <ele>1081</ele>
        <time>2013-08-18T14:28:29.000Z</time>
      </trkpt>
      <trkpt lat="46.65398" lon="6.3016">
        <ele>1082</ele>
        <time>2013-08-18T14:28:30.000Z</time>
      </trkpt>
      <trkpt lat="46.65399" lon="6.30163">
        <ele>1082</ele>
        <time>2013-08-18T14:28:31.000Z</time>
      </trkpt>
      <trkpt lat="46.654" lon="6.30166">
        <ele>1082</ele>
        <time>2013-08-18T14:28:32.000Z</time>
      </trkpt>
      <trkpt lat="46.65402" lon="6.30169">
        <ele>1081</ele>
        <time>2013-08-18T14:28:33.000Z</time>
      </trkpt>
      <trkpt lat="46.65403" lon="6.30172">
        <ele>1081</ele>
        <time>2013-08-18T14:28:34.000Z</time>
      </trkpt>
      <trkpt lat="46.65405" lon="6.30175">
        <ele>1081</ele>
        <time>2013-08-18T14:28:35.000Z</time>
      </trkpt>
      <trkpt lat="46.65406" lon="6.30179">
        <ele>1080</ele>
        <time>2013-08-18T14:28:36.000Z</time>
      </trkpt>
      <trkpt lat="46.65408" lon="6.30182">
        <ele>1080</ele>
        <time>2013-08-18T14:28:37.000Z</time>
      </trkpt>
      <trkpt lat="46.6541" lon="6.30186">
        <ele>1080</ele>
        <time>2013-08-18T14:28:38.000Z</time>
      </trkpt>
      <trkpt lat="46.65412" lon="6.30189">
        <ele>1079</ele>
        <time>2013-08-18T14:28:39.000Z</time>
      </trkpt>
      <trkpt lat="46.65414" lon="6.30192">
        <ele>1079</ele>
        <time>2013-08-18T14:28:40.000Z</time>
      </trkpt>
      <trkpt lat="46.65415" lon="6.30195">
        <ele>1079</ele>
        <time>2013-08-18T14:28:41.000Z</time>
      </trkpt>
      <trkpt lat="46.65417" lon="6.30197">
        <ele>1079</ele>
        <time>2013-08-18T14:28:42.000Z</time>
      </trkpt>
      <trkpt lat="46.65418" lon="6.30199">
        <ele>1080</ele>
        <time>2013-08-18T14:28:43.000Z</time>
      </trkpt>
      <trkpt lat="46.65418" lon="6.30201">
        <ele>1080</ele>
        <time>2013-08-18T14:28:44.000Z</time>
      </trkpt>
      <trkpt lat="46.65418" lon="6.30201">
        <ele>1080</ele>
        <time>2013-08-18T14:28:45.000Z</time>
      </trkpt>
      <trkpt lat="46.65419" lon="6.30202">
        <ele>1080</ele>
        <time>2013-08-18T14:28:46.000Z</time>
      </trkpt>
      <trkpt lat="46.65419" lon="6.30202">
        <ele>1080</ele>
        <time>2013-08-18T14:28:47.000Z</time>
      </trkpt>
      <trkpt lat="46.6542" lon="6.30203">
        <ele>1080</ele>
        <time>2013-08-18T14:28:48.000Z</time>
      </trkpt>
      <trkpt lat="46.6542" lon="6.30204">
        <ele>1079</ele>
        <time>2013-08-18T14:28:49.000Z</time>
      </trkpt>
      <trkpt lat="46.6542" lon="6.30204">
        <ele>1079</ele>
        <time>2013-08-18T14:28:50.000Z</time>
      </trkpt>
      <trkpt lat="46.6542" lon="6.30205">
        <ele>1079</ele>
        <time>2013-08-18T14:28:51.000Z</time>
      </trkpt>
      <trkpt lat="46.6542" lon="6.30206">
        <ele>1079</ele>
        <time>2013-08-18T14:28:53.000Z</time>
      </trkpt>
      <trkpt lat="46.6542" lon="6.30206">
        <ele>1079</ele>
        <time>2013-08-18T14:28:54.000Z</time>
      </trkpt>
      <trkpt lat="46.65421" lon="6.30208">
        <ele>1079</ele>
        <time>2013-08-18T14:28:55.000Z</time>
      </trkpt>
      <trkpt lat="46.65421" lon="6.30209">
        <ele>1079</ele>
        <time>2013-08-18T14:28:56.000Z</time>
      </trkpt>
      <trkpt lat="46.65422" lon="6.3021">
        <ele>1079</ele>
        <time>2013-08-18T14:28:57.000Z</time>
      </trkpt>
      <trkpt lat="46.65423" lon="6.30211">
        <ele>1079</ele>
        <time>2013-08-18T14:28:58.000Z</time>
      </trkpt>
      <trkpt lat="46.65423" lon="6.30212">
        <ele>1079</ele>
        <time>2013-08-18T14:28:59.000Z</time>
      </trkpt>
      <trkpt lat="46.65424" lon="6.30213">
        <ele>1079</ele>
        <time>2013-08-18T14:29:00.000Z</time>
      </trkpt>
      <trkpt lat="46.65424" lon="6.30213">
        <ele>1079</ele>
        <time>2013-08-18T14:29:01.000Z</time>
      </trkpt>
      <trkpt lat="46.65425" lon="6.30213">
        <ele>1079</ele>
        <time>2013-08-18T14:29:02.000Z</time>
      </trkpt>
      <trkpt lat="46.65426" lon="6.30214">
        <ele>1079</ele>
        <time>2013-08-18T14:29:03.000Z</time>
      </trkpt>
      <trkpt lat="46.65427" lon="6.30214">
        <ele>1079</ele>
        <time>2013-08-18T14:29:04.000Z</time>
      </trkpt>
      <trkpt lat="46.65427" lon="6.30215">
        <ele>1079</ele>
        <time>2013-08-18T14:29:05.000Z</time>
      </trkpt>
      <trkpt lat="46.65428" lon="6.30216">
        <ele>1079</ele>
        <time>2013-08-18T14:29:06.000Z</time>
      </trkpt>
      <trkpt lat="46.65429" lon="6.30217">
        <ele>1079</ele>
        <time>2013-08-18T14:29:07.000Z</time>
      </trkpt>
      <trkpt lat="46.65429" lon="6.30217">
        <ele>1079</ele>
        <time>2013-08-18T14:29:09.000Z</time>
      </trkpt>
      <trkpt lat="46.65429" lon="6.30217">
        <ele>1079</ele>
        <time>2013-08-18T14:29:11.000Z</time>
      </trkpt>
      <trkpt lat="46.65429" lon="6.30219">
        <ele>1079</ele>
        <time>2013-08-18T14:29:12.000Z</time>
      </trkpt>
      <trkpt lat="46.65429" lon="6.30221">
        <ele>1079</ele>
        <time>2013-08-18T14:29:13.000Z</time>
      </trkpt>
      <trkpt lat="46.6543" lon="6.30223">
        <ele>1080</ele>
        <time>2013-08-18T14:29:14.000Z</time>
      </trkpt>
      <trkpt lat="46.65431" lon="6.30225">
        <ele>1080</ele>
        <time>2013-08-18T14:29:15.000Z</time>
      </trkpt>
      <trkpt lat="46.65432" lon="6.30228">
        <ele>1080</ele>
        <time>2013-08-18T14:29:16.000Z</time>
      </trkpt>
      <trkpt lat="46.65434" lon="6.3023">
        <ele>1080</ele>
        <time>2013-08-18T14:29:17.000Z</time>
      </trkpt>
      <trkpt lat="46.65435" lon="6.30232">
        <ele>1080</ele>
        <time>2013-08-18T14:29:18.000Z</time>
      </trkpt>
      <trkpt lat="46.65437" lon="6.30235">
        <ele>1080</ele>
        <time>2013-08-18T14:29:19.000Z</time>
      </trkpt>
      <trkpt lat="46.65438" lon="6.30237">
        <ele>1080</ele>
        <time>2013-08-18T14:29:20.000Z</time>
      </trkpt>
      <trkpt lat="46.6544" lon="6.3024">
        <ele>1080</ele>
        <time>2013-08-18T14:29:21.000Z</time>
      </trkpt>
      <trkpt lat="46.65442" lon="6.30243">
        <ele>1080</ele>
        <time>2013-08-18T14:29:22.000Z</time>
      </trkpt>
      <trkpt lat="46.65444" lon="6.30247">
        <ele>1080</ele>
        <time>2013-08-18T14:29:23.000Z</time>
      </trkpt>
      <trkpt lat="46.65446" lon="6.30251">
        <ele>1083</ele>
        <time>2013-08-18T14:29:24.000Z</time>
      </trkpt>
      <trkpt lat="46.65448" lon="6.30254">
        <ele>1083</ele>
        <time>2013-08-18T14:29:25.000Z</time>
      </trkpt>
      <trkpt lat="46.65449" lon="6.30257">
        <ele>1083</ele>
        <time>2013-08-18T14:29:26.000Z</time>
      </trkpt>
      <trkpt lat="46.65451" lon="6.30261">
        <ele>1083</ele>
        <time>2013-08-18T14:29:27.000Z</time>
      </trkpt>
      <trkpt lat="46.65452" lon="6.30263">
        <ele>1083</ele>
        <time>2013-08-18T14:29:28.000Z</time>
      </trkpt>
      <trkpt lat="46.65454" lon="6.30267">
        <ele>1083</ele>
        <time>2013-08-18T14:29:29.000Z</time>
      </trkpt>
      <trkpt lat="46.65456" lon="6.3027">
        <ele>1083</ele>
        <time>2013-08-18T14:29:30.000Z</time>
      </trkpt>
      <trkpt lat="46.65457" lon="6.30274">
        <ele>1083</ele>
        <time>2013-08-18T14:29:31.000Z</time>
      </trkpt>
      <trkpt lat="46.6546" lon="6.30278">
        <ele>1083</ele>
        <time>2013-08-18T14:29:32.000Z</time>
      </trkpt>
      <trkpt lat="46.65463" lon="6.30283">
        <ele>1083</ele>
        <time>2013-08-18T14:29:33.000Z</time>
      </trkpt>
      <trkpt lat="46.65466" lon="6.30288">
        <ele>1083</ele>
        <time>2013-08-18T14:29:34.000Z</time>
      </trkpt>
      <trkpt lat="46.65469" lon="6.30293">
        <ele>1083</ele>
        <time>2013-08-18T14:29:35.000Z</time>
      </trkpt>
      <trkpt lat="46.65472" lon="6.30298">
        <ele>1083</ele>
        <time>2013-08-18T14:29:36.000Z</time>
      </trkpt>
      <trkpt lat="46.65475" lon="6.30301">
        <ele>1083</ele>
        <time>2013-08-18T14:29:37.000Z</time>
      </trkpt>
      <trkpt lat="46.65478" lon="6.30304">
        <ele>1084</ele>
        <time>2013-08-18T14:29:38.000Z</time>
      </trkpt>
      <trkpt lat="46.6548" lon="6.30307">
        <ele>1084</ele>
        <time>2013-08-18T14:29:39.000Z</time>
      </trkpt>
      <trkpt lat="46.65481" lon="6.30309">
        <ele>1084</ele>
        <time>2013-08-18T14:29:40.000Z</time>
      </trkpt>
      <trkpt lat="46.65483" lon="6.30311">
        <ele>1085</ele>
        <time>2013-08-18T14:29:41.000Z</time>
      </trkpt>
      <trkpt lat="46.65484" lon="6.30313">
        <ele>1085</ele>
        <time>2013-08-18T14:29:42.000Z</time>
      </trkpt>
      <trkpt lat="46.65485" lon="6.30315">
        <ele>1085</ele>
        <time>2013-08-18T14:29:43.000Z</time>
      </trkpt>
      <trkpt lat="46.65486" lon="6.30317">
        <ele>1085</ele>
        <time>2013-08-18T14:29:44.000Z</time>
      </trkpt>
      <trkpt lat="46.65488" lon="6.30319">
        <ele>1086</ele>
        <time>2013-08-18T14:29:45.000Z</time>
      </trkpt>
      <trkpt lat="46.65489" lon="6.30322">
        <ele>1086</ele>
        <time>2013-08-18T14:29:46.000Z</time>
      </trkpt>
      <trkpt lat="46.6549" lon="6.30324">
        <ele>1087</ele>
        <time>2013-08-18T14:29:47.000Z</time>
      </trkpt>
      <trkpt lat="46.65492" lon="6.30326">
        <ele>1087</ele>
        <time>2013-08-18T14:29:48.000Z</time>
      </trkpt>
      <trkpt lat="46.65493" lon="6.30328">
        <ele>1088</ele>
        <time>2013-08-18T14:29:49.000Z</time>
      </trkpt>
      <trkpt lat="46.65495" lon="6.30331">
        <ele>1088</ele>
        <time>2013-08-18T14:29:50.000Z</time>
      </trkpt>
      <trkpt lat="46.65496" lon="6.30333">
        <ele>1089</ele>
        <time>2013-08-18T14:29:51.000Z</time>
      </trkpt>
      <trkpt lat="46.65497" lon="6.30335">
        <ele>1089</ele>
        <time>2013-08-18T14:29:52.000Z</time>
      </trkpt>
      <trkpt lat="46.65498" lon="6.30338">
        <ele>1088</ele>
        <time>2013-08-18T14:29:53.000Z</time>
      </trkpt>
      <trkpt lat="46.655" lon="6.3034">
        <ele>1088</ele>
        <time>2013-08-18T14:29:54.000Z</time>
      </trkpt>
      <trkpt lat="46.65501" lon="6.30342">
        <ele>1087</ele>
        <time>2013-08-18T14:29:55.000Z</time>
      </trkpt>
      <trkpt lat="46.65502" lon="6.30344">
        <ele>1086</ele>
        <time>2013-08-18T14:29:56.000Z</time>
      </trkpt>
      <trkpt lat="46.65504" lon="6.30346">
        <ele>1086</ele>
        <time>2013-08-18T14:29:57.000Z</time>
      </trkpt>
      <trkpt lat="46.65505" lon="6.30349">
        <ele>1085</ele>
        <time>2013-08-18T14:29:58.000Z</time>
      </trkpt>
      <trkpt lat="46.65506" lon="6.30352">
        <ele>1085</ele>
        <time>2013-08-18T14:29:59.000Z</time>
      </trkpt>
      <trkpt lat="46.65508" lon="6.30354">
        <ele>1084</ele>
        <time>2013-08-18T14:30:00.000Z</time>
      </trkpt>
      <trkpt lat="46.65509" lon="6.30356">
        <ele>1084</ele>
        <time>2013-08-18T14:30:01.000Z</time>
      </trkpt>
      <trkpt lat="46.6551" lon="6.30359">
        <ele>1084</ele>
        <time>2013-08-18T14:30:02.000Z</time>
      </trkpt>
      <trkpt lat="46.65511" lon="6.30361">
        <ele>1084</ele>
        <time>2013-08-18T14:30:03.000Z</time>
      </trkpt>
      <trkpt lat="46.65512" lon="6.30363">
        <ele>1083</ele>
        <time>2013-08-18T14:30:04.000Z</time>
      </trkpt>
      <trkpt lat="46.65514" lon="6.30366">
        <ele>1083</ele>
        <time>2013-08-18T14:30:05.000Z</time>
      </trkpt>
      <trkpt lat="46.65515" lon="6.30369">
        <ele>1083</ele>
        <time>2013-08-18T14:30:06.000Z</time>
      </trkpt>
      <trkpt lat="46.65517" lon="6.30372">
        <ele>1083</ele>
        <time>2013-08-18T14:30:07.000Z</time>
      </trkpt>
      <trkpt lat="46.65519" lon="6.30375">
        <ele>1083</ele>
        <time>2013-08-18T14:30:08.000Z</time>
      </trkpt>
      <trkpt lat="46.6552" lon="6.30378">
        <ele>1083</ele>
        <time>2013-08-18T14:30:09.000Z</time>
      </trkpt>
      <trkpt lat="46.65522" lon="6.30381">
        <ele>1083</ele>
        <time>2013-08-18T14:30:10.000Z</time>
      </trkpt>
      <trkpt lat="46.65524" lon="6.30383">
        <ele>1083</ele>
        <time>2013-08-18T14:30:11.000Z</time>
      </trkpt>
      <trkpt lat="46.65526" lon="6.30385">
        <ele>1083</ele>
        <time>2013-08-18T14:30:12.000Z</time>
      </trkpt>
      <trkpt lat="46.65527" lon="6.30388">
        <ele>1083</ele>
        <time>2013-08-18T14:30:13.000Z</time>
      </trkpt>
      <trkpt lat="46.65529" lon="6.30391">
        <ele>1083</ele>
        <time>2013-08-18T14:30:14.000Z</time>
      </trkpt>
      <trkpt lat="46.65531" lon="6.30394">
        <ele>1083</ele>
        <time>2013-08-18T14:30:15.000Z</time>
      </trkpt>
      <trkpt lat="46.65534" lon="6.30398">
        <ele>1083</ele>
        <time>2013-08-18T14:30:16.000Z</time>
      </trkpt>
      <trkpt lat="46.65536" lon="6.30401">
        <ele>1083</ele>
        <time>2013-08-18T14:30:17.000Z</time>
      </trkpt>
      <trkpt lat="46.65538" lon="6.30404">
        <ele>1082</ele>
        <time>2013-08-18T14:30:18.000Z</time>
      </trkpt>
      <trkpt lat="46.65539" lon="6.30406">
        <ele>1082</ele>
        <time>2013-08-18T14:30:19.000Z</time>
      </trkpt>
      <trkpt lat="46.65541" lon="6.30409">
        <ele>1082</ele>
        <time>2013-08-18T14:30:20.000Z</time>
      </trkpt>
      <trkpt lat="46.65542" lon="6.30411">
        <ele>1082</ele>
        <time>2013-08-18T14:30:21.000Z</time>
      </trkpt>
      <trkpt lat="46.65544" lon="6.30414">
        <ele>1082</ele>
        <time>2013-08-18T14:30:22.000Z</time>
      </trkpt>
      <trkpt lat="46.65546" lon="6.30418">
        <ele>1085</ele>
        <time>2013-08-18T14:30:23.000Z</time>
      </trkpt>
      <trkpt lat="46.65547" lon="6.30421">
        <ele>1085</ele>
        <time>2013-08-18T14:30:24.000Z</time>
      </trkpt>
      <trkpt lat="46.65549" lon="6.30424">
        <ele>1085</ele>
        <time>2013-08-18T14:30:25.000Z</time>
      </trkpt>
      <trkpt lat="46.65551" lon="6.30428">
        <ele>1085</ele>
        <time>2013-08-18T14:30:26.000Z</time>
      </trkpt>
      <trkpt lat="46.65553" lon="6.30432">
        <ele>1085</ele>
        <time>2013-08-18T14:30:27.000Z</time>
      </trkpt>
      <trkpt lat="46.65555" lon="6.30435">
        <ele>1085</ele>
        <time>2013-08-18T14:30:28.000Z</time>
      </trkpt>
      <trkpt lat="46.65557" lon="6.30439">
        <ele>1085</ele>
        <time>2013-08-18T14:30:29.000Z</time>
      </trkpt>
      <trkpt lat="46.65559" lon="6.30443">
        <ele>1085</ele>
        <time>2013-08-18T14:30:30.000Z</time>
      </trkpt>
      <trkpt lat="46.65561" lon="6.30448">
        <ele>1085</ele>
        <time>2013-08-18T14:30:31.000Z</time>
      </trkpt>
      <trkpt lat="46.65563" lon="6.30451">
        <ele>1085</ele>
        <time>2013-08-18T14:30:32.000Z</time>
      </trkpt>
      <trkpt lat="46.65565" lon="6.30455">
        <ele>1085</ele>
        <time>2013-08-18T14:30:33.000Z</time>
      </trkpt>
      <trkpt lat="46.65568" lon="6.30459">
        <ele>1085</ele>
        <time>2013-08-18T14:30:34.000Z</time>
      </trkpt>
      <trkpt lat="46.6557" lon="6.30463">
        <ele>1085</ele>
        <time>2013-08-18T14:30:35.000Z</time>
      </trkpt>
      <trkpt lat="46.65572" lon="6.30467">
        <ele>1086</ele>
        <time>2013-08-18T14:30:36.000Z</time>
      </trkpt>
      <trkpt lat="46.65573" lon="6.30472">
        <ele>1086</ele>
        <time>2013-08-18T14:30:37.000Z</time>
      </trkpt>
      <trkpt lat="46.65575" lon="6.30475">
        <ele>1086</ele>
        <time>2013-08-18T14:30:38.000Z</time>
      </trkpt>
      <trkpt lat="46.65576" lon="6.30478">
        <ele>1086</ele>
        <time>2013-08-18T14:30:39.000Z</time>
      </trkpt>
      <trkpt lat="46.65576" lon="6.30482">
        <ele>1087</ele>
        <time>2013-08-18T14:30:40.000Z</time>
      </trkpt>
      <trkpt lat="46.65576" lon="6.30488">
        <ele>1087</ele>
        <time>2013-08-18T14:30:42.000Z</time>
      </trkpt>
      <trkpt lat="46.65576" lon="6.30491">
        <ele>1087</ele>
        <time>2013-08-18T14:30:43.000Z</time>
      </trkpt>
      <trkpt lat="46.65577" lon="6.30496">
        <ele>1088</ele>
        <time>2013-08-18T14:30:45.000Z</time>
      </trkpt>
      <trkpt lat="46.65577" lon="6.30499">
        <ele>1088</ele>
        <time>2013-08-18T14:30:46.000Z</time>
      </trkpt>
      <trkpt lat="46.65577" lon="6.30502">
        <ele>1087</ele>
        <time>2013-08-18T14:30:47.000Z</time>
      </trkpt>
      <trkpt lat="46.65578" lon="6.30504">
        <ele>1087</ele>
        <time>2013-08-18T14:30:48.000Z</time>
      </trkpt>
      <trkpt lat="46.65578" lon="6.30507">
        <ele>1087</ele>
        <time>2013-08-18T14:30:49.000Z</time>
      </trkpt>
      <trkpt lat="46.65579" lon="6.3051">
        <ele>1087</ele>
        <time>2013-08-18T14:30:50.000Z</time>
      </trkpt>
      <trkpt lat="46.6558" lon="6.30512">
        <ele>1086</ele>
        <time>2013-08-18T14:30:51.000Z</time>
      </trkpt>
      <trkpt lat="46.6558" lon="6.30515">
        <ele>1086</ele>
        <time>2013-08-18T14:30:52.000Z</time>
      </trkpt>
      <trkpt lat="46.65581" lon="6.30517">
        <ele>1086</ele>
        <time>2013-08-18T14:30:53.000Z</time>
      </trkpt>
      <trkpt lat="46.65582" lon="6.3052">
        <ele>1085</ele>
        <time>2013-08-18T14:30:54.000Z</time>
      </trkpt>
      <trkpt lat="46.65582" lon="6.30522">
        <ele>1085</ele>
        <time>2013-08-18T14:30:55.000Z</time>
      </trkpt>
      <trkpt lat="46.65583" lon="6.30526">
        <ele>1085</ele>
        <time>2013-08-18T14:30:56.000Z</time>
      </trkpt>
      <trkpt lat="46.65584" lon="6.30529">
        <ele>1084</ele>
        <time>2013-08-18T14:30:57.000Z</time>
      </trkpt>
      <trkpt lat="46.65584" lon="6.30533">
        <ele>1084</ele>
        <time>2013-08-18T14:30:58.000Z</time>
      </trkpt>
      <trkpt lat="46.65585" lon="6.30537">
        <ele>1084</ele>
        <time>2013-08-18T14:30:59.000Z</time>
      </trkpt>
      <trkpt lat="46.65586" lon="6.30542">
        <ele>1083</ele>
        <time>2013-08-18T14:31:00.000Z</time>
      </trkpt>
      <trkpt lat="46.65587" lon="6.30548">
        <ele>1083</ele>
        <time>2013-08-18T14:31:01.000Z</time>
      </trkpt>
      <trkpt lat="46.65589" lon="6.30553">
        <ele>1084</ele>
        <time>2013-08-18T14:31:02.000Z</time>
      </trkpt>
      <trkpt lat="46.65591" lon="6.30559">
        <ele>1084</ele>
        <time>2013-08-18T14:31:03.000Z</time>
      </trkpt>
      <trkpt lat="46.65594" lon="6.30564">
        <ele>1084</ele>
        <time>2013-08-18T14:31:04.000Z</time>
      </trkpt>
      <trkpt lat="46.65596" lon="6.30569">
        <ele>1084</ele>
        <time>2013-08-18T14:31:05.000Z</time>
      </trkpt>
      <trkpt lat="46.656" lon="6.30575">
        <ele>1084</ele>
        <time>2013-08-18T14:31:06.000Z</time>
      </trkpt>
      <trkpt lat="46.65603" lon="6.3058">
        <ele>1084</ele>
        <time>2013-08-18T14:31:07.000Z</time>
      </trkpt>
      <trkpt lat="46.65606" lon="6.30585">
        <ele>1084</ele>
        <time>2013-08-18T14:31:08.000Z</time>
      </trkpt>
      <trkpt lat="46.6561" lon="6.30589">
        <ele>1084</ele>
        <time>2013-08-18T14:31:09.000Z</time>
      </trkpt>
      <trkpt lat="46.65614" lon="6.30593">
        <ele>1084</ele>
        <time>2013-08-18T14:31:10.000Z</time>
      </trkpt>
      <trkpt lat="46.65617" lon="6.30596">
        <ele>1084</ele>
        <time>2013-08-18T14:31:11.000Z</time>
      </trkpt>
      <trkpt lat="46.6562" lon="6.30598">
        <ele>1083</ele>
        <time>2013-08-18T14:31:12.000Z</time>
      </trkpt>
      <trkpt lat="46.65623" lon="6.306">
        <ele>1083</ele>
        <time>2013-08-18T14:31:13.000Z</time>
      </trkpt>
      <trkpt lat="46.65626" lon="6.30601">
        <ele>1083</ele>
        <time>2013-08-18T14:31:14.000Z</time>
      </trkpt>
      <trkpt lat="46.65629" lon="6.30603">
        <ele>1083</ele>
        <time>2013-08-18T14:31:15.000Z</time>
      </trkpt>
      <trkpt lat="46.65631" lon="6.30605">
        <ele>1083</ele>
        <time>2013-08-18T14:31:16.000Z</time>
      </trkpt>
      <trkpt lat="46.65634" lon="6.30606">
        <ele>1083</ele>
        <time>2013-08-18T14:31:17.000Z</time>
      </trkpt>
      <trkpt lat="46.65636" lon="6.30608">
        <ele>1083</ele>
        <time>2013-08-18T14:31:18.000Z</time>
      </trkpt>
      <trkpt lat="46.65639" lon="6.3061">
        <ele>1083</ele>
        <time>2013-08-18T14:31:19.000Z</time>
      </trkpt>
      <trkpt lat="46.65642" lon="6.30611">
        <ele>1083</ele>
        <time>2013-08-18T14:31:20.000Z</time>
      </trkpt>
      <trkpt lat="46.65645" lon="6.30612">
        <ele>1083</ele>
        <time>2013-08-18T14:31:21.000Z</time>
      </trkpt>
      <trkpt lat="46.65647" lon="6.30614">
        <ele>1083</ele>
        <time>2013-08-18T14:31:22.000Z</time>
      </trkpt>
      <trkpt lat="46.6565" lon="6.30616">
        <ele>1083</ele>
        <time>2013-08-18T14:31:23.000Z</time>
      </trkpt>
      <trkpt lat="46.65652" lon="6.30619">
        <ele>1083</ele>
        <time>2013-08-18T14:31:24.000Z</time>
      </trkpt>
      <trkpt lat="46.65655" lon="6.30621">
        <ele>1083</ele>
        <time>2013-08-18T14:31:25.000Z</time>
      </trkpt>
      <trkpt lat="46.65657" lon="6.30624">
        <ele>1083</ele>
        <time>2013-08-18T14:31:26.000Z</time>
      </trkpt>
      <trkpt lat="46.65659" lon="6.30626">
        <ele>1083</ele>
        <time>2013-08-18T14:31:27.000Z</time>
      </trkpt>
      <trkpt lat="46.65661" lon="6.30629">
        <ele>1083</ele>
        <time>2013-08-18T14:31:28.000Z</time>
      </trkpt>
      <trkpt lat="46.65663" lon="6.30631">
        <ele>1083</ele>
        <time>2013-08-18T14:31:29.000Z</time>
      </trkpt>
      <trkpt lat="46.65664" lon="6.30634">
        <ele>1083</ele>
        <time>2013-08-18T14:31:30.000Z</time>
      </trkpt>
      <trkpt lat="46.65666" lon="6.30636">
        <ele>1084</ele>
        <time>2013-08-18T14:31:31.000Z</time>
      </trkpt>
      <trkpt lat="46.65667" lon="6.30639">
        <ele>1084</ele>
        <time>2013-08-18T14:31:32.000Z</time>
      </trkpt>
      <trkpt lat="46.65668" lon="6.30641">
        <ele>1079</ele>
        <time>2013-08-18T14:31:33.000Z</time>
      </trkpt>
      <trkpt lat="46.65669" lon="6.30644">
        <ele>1080</ele>
        <time>2013-08-18T14:31:34.000Z</time>
      </trkpt>
      <trkpt lat="46.65671" lon="6.30647">
        <ele>1080</ele>
        <time>2013-08-18T14:31:35.000Z</time>
      </trkpt>
      <trkpt lat="46.65672" lon="6.30649">
        <ele>1080</ele>
        <time>2013-08-18T14:31:36.000Z</time>
      </trkpt>
      <trkpt lat="46.65673" lon="6.30652">
        <ele>1081</ele>
        <time>2013-08-18T14:31:37.000Z</time>
      </trkpt>
      <trkpt lat="46.65674" lon="6.30656">
        <ele>1081</ele>
        <time>2013-08-18T14:31:38.000Z</time>
      </trkpt>
      <trkpt lat="46.65676" lon="6.30659">
        <ele>1082</ele>
        <time>2013-08-18T14:31:39.000Z</time>
      </trkpt>
      <trkpt lat="46.65677" lon="6.30662">
        <ele>1082</ele>
        <time>2013-08-18T14:31:40.000Z</time>
      </trkpt>
      <trkpt lat="46.65679" lon="6.30666">
        <ele>1082</ele>
        <time>2013-08-18T14:31:41.000Z</time>
      </trkpt>
      <trkpt lat="46.6568" lon="6.3067">
        <ele>1084</ele>
        <time>2013-08-18T14:31:42.000Z</time>
      </trkpt>
      <trkpt lat="46.65682" lon="6.30675">
        <ele>1083</ele>
        <time>2013-08-18T14:31:43.000Z</time>
      </trkpt>
      <trkpt lat="46.65684" lon="6.3068">
        <ele>1083</ele>
        <time>2013-08-18T14:31:44.000Z</time>
      </trkpt>
      <trkpt lat="46.65686" lon="6.30686">
        <ele>1083</ele>
        <time>2013-08-18T14:31:45.000Z</time>
      </trkpt>
      <trkpt lat="46.65687" lon="6.30692">
        <ele>1082</ele>
        <time>2013-08-18T14:31:46.000Z</time>
      </trkpt>
      <trkpt lat="46.65689" lon="6.30698">
        <ele>1082</ele>
        <time>2013-08-18T14:31:47.000Z</time>
      </trkpt>
      <trkpt lat="46.65691" lon="6.30703">
        <ele>1082</ele>
        <time>2013-08-18T14:31:48.000Z</time>
      </trkpt>
      <trkpt lat="46.65693" lon="6.30708">
        <ele>1082</ele>
        <time>2013-08-18T14:31:49.000Z</time>
      </trkpt>
      <trkpt lat="46.65695" lon="6.30711">
        <ele>1082</ele>
        <time>2013-08-18T14:31:50.000Z</time>
      </trkpt>
      <trkpt lat="46.65697" lon="6.30714">
        <ele>1082</ele>
        <time>2013-08-18T14:31:51.000Z</time>
      </trkpt>
      <trkpt lat="46.65699" lon="6.30717">
        <ele>1082</ele>
        <time>2013-08-18T14:31:52.000Z</time>
      </trkpt>
      <trkpt lat="46.65701" lon="6.3072">
        <ele>1082</ele>
        <time>2013-08-18T14:31:53.000Z</time>
      </trkpt>
      <trkpt lat="46.65703" lon="6.30723">
        <ele>1082</ele>
        <time>2013-08-18T14:31:54.000Z</time>
      </trkpt>
      <trkpt lat="46.65705" lon="6.30726">
        <ele>1082</ele>
        <time>2013-08-18T14:31:55.000Z</time>
      </trkpt>
      <trkpt lat="46.65708" lon="6.30729">
        <ele>1082</ele>
        <time>2013-08-18T14:31:56.000Z</time>
      </trkpt>
      <trkpt lat="46.6571" lon="6.30732">
        <ele>1082</ele>
        <time>2013-08-18T14:31:57.000Z</time>
      </trkpt>
      <trkpt lat="46.65712" lon="6.30735">
        <ele>1082</ele>
        <time>2013-08-18T14:31:58.000Z</time>
      </trkpt>
      <trkpt lat="46.65714" lon="6.30738">
        <ele>1082</ele>
        <time>2013-08-18T14:31:59.000Z</time>
      </trkpt>
      <trkpt lat="46.65716" lon="6.30741">
        <ele>1082</ele>
        <time>2013-08-18T14:32:00.000Z</time>
      </trkpt>
      <trkpt lat="46.65717" lon="6.30744">
        <ele>1082</ele>
        <time>2013-08-18T14:32:01.000Z</time>
      </trkpt>
      <trkpt lat="46.65719" lon="6.30747">
        <ele>1082</ele>
        <time>2013-08-18T14:32:02.000Z</time>
      </trkpt>
      <trkpt lat="46.65721" lon="6.3075">
        <ele>1082</ele>
        <time>2013-08-18T14:32:03.000Z</time>
      </trkpt>
      <trkpt lat="46.65722" lon="6.30753">
        <ele>1080</ele>
        <time>2013-08-18T14:32:04.000Z</time>
      </trkpt>
      <trkpt lat="46.65724" lon="6.30755">
        <ele>1080</ele>
        <time>2013-08-18T14:32:05.000Z</time>
      </trkpt>
      <trkpt lat="46.65726" lon="6.30758">
        <ele>1081</ele>
        <time>2013-08-18T14:32:06.000Z</time>
      </trkpt>
      <trkpt lat="46.65728" lon="6.30761">
        <ele>1081</ele>
        <time>2013-08-18T14:32:07.000Z</time>
      </trkpt>
      <trkpt lat="46.65729" lon="6.30764">
        <ele>1081</ele>
        <time>2013-08-18T14:32:08.000Z</time>
      </trkpt>
      <trkpt lat="46.65731" lon="6.30767">
        <ele>1081</ele>
        <time>2013-08-18T14:32:09.000Z</time>
      </trkpt>
      <trkpt lat="46.65733" lon="6.30769">
        <ele>1080</ele>
        <time>2013-08-18T14:32:10.000Z</time>
      </trkpt>
      <trkpt lat="46.65734" lon="6.30772">
        <ele>1080</ele>
        <time>2013-08-18T14:32:11.000Z</time>
      </trkpt>
      <trkpt lat="46.65736" lon="6.30775">
        <ele>1080</ele>
        <time>2013-08-18T14:32:12.000Z</time>
      </trkpt>
      <trkpt lat="46.65737" lon="6.30778">
        <ele>1080</ele>
        <time>2013-08-18T14:32:13.000Z</time>
      </trkpt>
      <trkpt lat="46.65738" lon="6.30781">
        <ele>1080</ele>
        <time>2013-08-18T14:32:14.000Z</time>
      </trkpt>
      <trkpt lat="46.6574" lon="6.30785">
        <ele>1080</ele>
        <time>2013-08-18T14:32:15.000Z</time>
      </trkpt>
      <trkpt lat="46.65741" lon="6.30788">
        <ele>1080</ele>
        <time>2013-08-18T14:32:16.000Z</time>
      </trkpt>
      <trkpt lat="46.65743" lon="6.30791">
        <ele>1080</ele>
        <time>2013-08-18T14:32:17.000Z</time>
      </trkpt>
      <trkpt lat="46.65745" lon="6.30794">
        <ele>1080</ele>
        <time>2013-08-18T14:32:18.000Z</time>
      </trkpt>
      <trkpt lat="46.65745" lon="6.30798">
        <ele>1080</ele>
        <time>2013-08-18T14:32:19.000Z</time>
      </trkpt>
      <trkpt lat="46.65746" lon="6.30803">
        <ele>1080</ele>
        <time>2013-08-18T14:32:20.000Z</time>
      </trkpt>
      <trkpt lat="46.65747" lon="6.30809">
        <ele>1080</ele>
        <time>2013-08-18T14:32:21.000Z</time>
      </trkpt>
      <trkpt lat="46.65749" lon="6.30814">
        <ele>1081</ele>
        <time>2013-08-18T14:32:22.000Z</time>
      </trkpt>
      <trkpt lat="46.6575" lon="6.3082">
        <ele>1081</ele>
        <time>2013-08-18T14:32:23.000Z</time>
      </trkpt>
      <trkpt lat="46.65751" lon="6.30825">
        <ele>1081</ele>
        <time>2013-08-18T14:32:24.000Z</time>
      </trkpt>
      <trkpt lat="46.65753" lon="6.30829">
        <ele>1082</ele>
        <time>2013-08-18T14:32:25.000Z</time>
      </trkpt>
      <trkpt lat="46.65754" lon="6.30832">
        <ele>1083</ele>
        <time>2013-08-18T14:32:26.000Z</time>
      </trkpt>
      <trkpt lat="46.65755" lon="6.30835">
        <ele>1083</ele>
        <time>2013-08-18T14:32:27.000Z</time>
      </trkpt>
      <trkpt lat="46.65757" lon="6.30838">
        <ele>1082</ele>
        <time>2013-08-18T14:32:28.000Z</time>
      </trkpt>
      <trkpt lat="46.65758" lon="6.30842">
        <ele>1082</ele>
        <time>2013-08-18T14:32:29.000Z</time>
      </trkpt>
      <trkpt lat="46.65759" lon="6.30845">
        <ele>1081</ele>
        <time>2013-08-18T14:32:30.000Z</time>
      </trkpt>
      <trkpt lat="46.65761" lon="6.30847">
        <ele>1081</ele>
        <time>2013-08-18T14:32:31.000Z</time>
      </trkpt>
      <trkpt lat="46.65762" lon="6.30851">
        <ele>1081</ele>
        <time>2013-08-18T14:32:32.000Z</time>
      </trkpt>
      <trkpt lat="46.65763" lon="6.30854">
        <ele>1080</ele>
        <time>2013-08-18T14:32:33.000Z</time>
      </trkpt>
      <trkpt lat="46.65764" lon="6.30857">
        <ele>1080</ele>
        <time>2013-08-18T14:32:34.000Z</time>
      </trkpt>
      <trkpt lat="46.65766" lon="6.30861">
        <ele>1080</ele>
        <time>2013-08-18T14:32:35.000Z</time>
      </trkpt>
      <trkpt lat="46.65767" lon="6.30864">
        <ele>1080</ele>
        <time>2013-08-18T14:32:36.000Z</time>
      </trkpt>
      <trkpt lat="46.65769" lon="6.30867">
        <ele>1080</ele>
        <time>2013-08-18T14:32:37.000Z</time>
      </trkpt>
      <trkpt lat="46.65769" lon="6.3087">
        <ele>1079</ele>
        <time>2013-08-18T14:32:38.000Z</time>
      </trkpt>
      <trkpt lat="46.6577" lon="6.30873">
        <ele>1079</ele>
        <time>2013-08-18T14:32:39.000Z</time>
      </trkpt>
      <trkpt lat="46.65771" lon="6.30876">
        <ele>1079</ele>
        <time>2013-08-18T14:32:40.000Z</time>
      </trkpt>
      <trkpt lat="46.65773" lon="6.3088">
        <ele>1079</ele>
        <time>2013-08-18T14:32:41.000Z</time>
      </trkpt>
      <trkpt lat="46.65774" lon="6.30883">
        <ele>1079</ele>
        <time>2013-08-18T14:32:42.000Z</time>
      </trkpt>
      <trkpt lat="46.65775" lon="6.30888">
        <ele>1079</ele>
        <time>2013-08-18T14:32:43.000Z</time>
      </trkpt>
      <trkpt lat="46.65777" lon="6.30892">
        <ele>1079</ele>
        <time>2013-08-18T14:32:44.000Z</time>
      </trkpt>
      <trkpt lat="46.65778" lon="6.30896">
        <ele>1079</ele>
        <time>2013-08-18T14:32:45.000Z</time>
      </trkpt>
      <trkpt lat="46.6578" lon="6.309">
        <ele>1079</ele>
        <time>2013-08-18T14:32:46.000Z</time>
      </trkpt>
      <trkpt lat="46.65781" lon="6.30903">
        <ele>1079</ele>
        <time>2013-08-18T14:32:47.000Z</time>
      </trkpt>
      <trkpt lat="46.65783" lon="6.30905">
        <ele>1079</ele>
        <time>2013-08-18T14:32:48.000Z</time>
      </trkpt>
      <trkpt lat="46.65784" lon="6.30907">
        <ele>1079</ele>
        <time>2013-08-18T14:32:49.000Z</time>
      </trkpt>
      <trkpt lat="46.65785" lon="6.30909">
        <ele>1079</ele>
        <time>2013-08-18T14:32:50.000Z</time>
      </trkpt>
      <trkpt lat="46.65787" lon="6.30912">
        <ele>1079</ele>
        <time>2013-08-18T14:32:51.000Z</time>
      </trkpt>
      <trkpt lat="46.65789" lon="6.30915">
        <ele>1079</ele>
        <time>2013-08-18T14:32:52.000Z</time>
      </trkpt>
      <trkpt lat="46.65791" lon="6.30919">
        <ele>1077</ele>
        <time>2013-08-18T14:32:53.000Z</time>
      </trkpt>
      <trkpt lat="46.65794" lon="6.30922">
        <ele>1077</ele>
        <time>2013-08-18T14:32:54.000Z</time>
      </trkpt>
      <trkpt lat="46.65798" lon="6.30925">
        <ele>1077</ele>
        <time>2013-08-18T14:32:55.000Z</time>
      </trkpt>
      <trkpt lat="46.65802" lon="6.30928">
        <ele>1077</ele>
        <time>2013-08-18T14:32:56.000Z</time>
      </trkpt>
      <trkpt lat="46.65805" lon="6.30931">
        <ele>1077</ele>
        <time>2013-08-18T14:32:57.000Z</time>
      </trkpt>
      <trkpt lat="46.65809" lon="6.30935">
        <ele>1078</ele>
        <time>2013-08-18T14:32:58.000Z</time>
      </trkpt>
      <trkpt lat="46.65812" lon="6.30939">
        <ele>1078</ele>
        <time>2013-08-18T14:32:59.000Z</time>
      </trkpt>
      <trkpt lat="46.65814" lon="6.30942">
        <ele>1078</ele>
        <time>2013-08-18T14:33:00.000Z</time>
      </trkpt>
      <trkpt lat="46.65817" lon="6.30945">
        <ele>1078</ele>
        <time>2013-08-18T14:33:01.000Z</time>
      </trkpt>
      <trkpt lat="46.65819" lon="6.30948">
        <ele>1077</ele>
        <time>2013-08-18T14:33:02.000Z</time>
      </trkpt>
      <trkpt lat="46.65822" lon="6.30951">
        <ele>1077</ele>
        <time>2013-08-18T14:33:03.000Z</time>
      </trkpt>
      <trkpt lat="46.65824" lon="6.30954">
        <ele>1077</ele>
        <time>2013-08-18T14:33:04.000Z</time>
      </trkpt>
      <trkpt lat="46.65826" lon="6.30957">
        <ele>1077</ele>
        <time>2013-08-18T14:33:05.000Z</time>
      </trkpt>
      <trkpt lat="46.65828" lon="6.3096">
        <ele>1077</ele>
        <time>2013-08-18T14:33:06.000Z</time>
      </trkpt>
      <trkpt lat="46.6583" lon="6.30964">
        <ele>1077</ele>
        <time>2013-08-18T14:33:07.000Z</time>
      </trkpt>
      <trkpt lat="46.65833" lon="6.30968">
        <ele>1077</ele>
        <time>2013-08-18T14:33:08.000Z</time>
      </trkpt>
      <trkpt lat="46.65836" lon="6.30972">
        <ele>1078</ele>
        <time>2013-08-18T14:33:09.000Z</time>
      </trkpt>
      <trkpt lat="46.65838" lon="6.30977">
        <ele>1078</ele>
        <time>2013-08-18T14:33:10.000Z</time>
      </trkpt>
      <trkpt lat="46.65841" lon="6.30982">
        <ele>1078</ele>
        <time>2013-08-18T14:33:11.000Z</time>
      </trkpt>
      <trkpt lat="46.65843" lon="6.30986">
        <ele>1079</ele>
        <time>2013-08-18T14:33:12.000Z</time>
      </trkpt>
      <trkpt lat="46.65845" lon="6.3099">
        <ele>1079</ele>
        <time>2013-08-18T14:33:13.000Z</time>
      </trkpt>
      <trkpt lat="46.65847" lon="6.30993">
        <ele>1079</ele>
        <time>2013-08-18T14:33:14.000Z</time>
      </trkpt>
      <trkpt lat="46.65848" lon="6.30996">
        <ele>1079</ele>
        <time>2013-08-18T14:33:15.000Z</time>
      </trkpt>
      <trkpt lat="46.65851" lon="6.30999">
        <ele>1078</ele>
        <time>2013-08-18T14:33:16.000Z</time>
      </trkpt>
      <trkpt lat="46.65853" lon="6.31003">
        <ele>1078</ele>
        <time>2013-08-18T14:33:17.000Z</time>
      </trkpt>
      <trkpt lat="46.65855" lon="6.31006">
        <ele>1078</ele>
        <time>2013-08-18T14:33:18.000Z</time>
      </trkpt>
      <trkpt lat="46.65858" lon="6.31009">
        <ele>1078</ele>
        <time>2013-08-18T14:33:19.000Z</time>
      </trkpt>
      <trkpt lat="46.65861" lon="6.31011">
        <ele>1077</ele>
        <time>2013-08-18T14:33:20.000Z</time>
      </trkpt>
      <trkpt lat="46.65863" lon="6.31014">
        <ele>1077</ele>
        <time>2013-08-18T14:33:21.000Z</time>
      </trkpt>
      <trkpt lat="46.65866" lon="6.31018">
        <ele>1077</ele>
        <time>2013-08-18T14:33:22.000Z</time>
      </trkpt>
      <trkpt lat="46.65869" lon="6.31022">
        <ele>1076</ele>
        <time>2013-08-18T14:33:23.000Z</time>
      </trkpt>
      <trkpt lat="46.65872" lon="6.31027">
        <ele>1076</ele>
        <time>2013-08-18T14:33:24.000Z</time>
      </trkpt>
      <trkpt lat="46.65875" lon="6.31031">
        <ele>1076</ele>
        <time>2013-08-18T14:33:25.000Z</time>
      </trkpt>
      <trkpt lat="46.65877" lon="6.31036">
        <ele>1076</ele>
        <time>2013-08-18T14:33:26.000Z</time>
      </trkpt>
      <trkpt lat="46.65879" lon="6.3104">
        <ele>1076</ele>
        <time>2013-08-18T14:33:27.000Z</time>
      </trkpt>
      <trkpt lat="46.65881" lon="6.31043">
        <ele>1076</ele>
        <time>2013-08-18T14:33:28.000Z</time>
      </trkpt>
      <trkpt lat="46.65883" lon="6.31047">
        <ele>1076</ele>
        <time>2013-08-18T14:33:29.000Z</time>
      </trkpt>
      <trkpt lat="46.65884" lon="6.3105">
        <ele>1076</ele>
        <time>2013-08-18T14:33:30.000Z</time>
      </trkpt>
      <trkpt lat="46.65886" lon="6.31053">
        <ele>1076</ele>
        <time>2013-08-18T14:33:31.000Z</time>
      </trkpt>
      <trkpt lat="46.65887" lon="6.31057">
        <ele>1076</ele>
        <time>2013-08-18T14:33:32.000Z</time>
      </trkpt>
      <trkpt lat="46.65889" lon="6.31061">
        <ele>1077</ele>
        <time>2013-08-18T14:33:33.000Z</time>
      </trkpt>
      <trkpt lat="46.65891" lon="6.31064">
        <ele>1077</ele>
        <time>2013-08-18T14:33:34.000Z</time>
      </trkpt>
      <trkpt lat="46.65893" lon="6.31068">
        <ele>1077</ele>
        <time>2013-08-18T14:33:35.000Z</time>
      </trkpt>
      <trkpt lat="46.65895" lon="6.31071">
        <ele>1077</ele>
        <time>2013-08-18T14:33:36.000Z</time>
      </trkpt>
      <trkpt lat="46.65896" lon="6.31074">
        <ele>1077</ele>
        <time>2013-08-18T14:33:37.000Z</time>
      </trkpt>
      <trkpt lat="46.65898" lon="6.31078">
        <ele>1078</ele>
        <time>2013-08-18T14:33:38.000Z</time>
      </trkpt>
      <trkpt lat="46.659" lon="6.31082">
        <ele>1078</ele>
        <time>2013-08-18T14:33:39.000Z</time>
      </trkpt>
      <trkpt lat="46.65903" lon="6.31086">
        <ele>1077</ele>
        <time>2013-08-18T14:33:40.000Z</time>
      </trkpt>
      <trkpt lat="46.65905" lon="6.3109">
        <ele>1078</ele>
        <time>2013-08-18T14:33:41.000Z</time>
      </trkpt>
      <trkpt lat="46.65907" lon="6.31094">
        <ele>1078</ele>
        <time>2013-08-18T14:33:42.000Z</time>
      </trkpt>
      <trkpt lat="46.65909" lon="6.31097">
        <ele>1077</ele>
        <time>2013-08-18T14:33:43.000Z</time>
      </trkpt>
      <trkpt lat="46.65911" lon="6.31101">
        <ele>1077</ele>
        <time>2013-08-18T14:33:44.000Z</time>
      </trkpt>
      <trkpt lat="46.65913" lon="6.31104">
        <ele>1077</ele>
        <time>2013-08-18T14:33:45.000Z</time>
      </trkpt>
      <trkpt lat="46.65915" lon="6.31108">
        <ele>1077</ele>
        <time>2013-08-18T14:33:46.000Z</time>
      </trkpt>
      <trkpt lat="46.65917" lon="6.31112">
        <ele>1076</ele>
        <time>2013-08-18T14:33:47.000Z</time>
      </trkpt>
      <trkpt lat="46.6592" lon="6.31115">
        <ele>1076</ele>
        <time>2013-08-18T14:33:48.000Z</time>
      </trkpt>
      <trkpt lat="46.65921" lon="6.31119">
        <ele>1076</ele>
        <time>2013-08-18T14:33:49.000Z</time>
      </trkpt>
      <trkpt lat="46.65923" lon="6.31123">
        <ele>1076</ele>
        <time>2013-08-18T14:33:50.000Z</time>
      </trkpt>
      <trkpt lat="46.65925" lon="6.31126">
        <ele>1076</ele>
        <time>2013-08-18T14:33:51.000Z</time>
      </trkpt>
      <trkpt lat="46.65928" lon="6.3113">
        <ele>1076</ele>
        <time>2013-08-18T14:33:52.000Z</time>
      </trkpt>
      <trkpt lat="46.6593" lon="6.31134">
        <ele>1076</ele>
        <time>2013-08-18T14:33:53.000Z</time>
      </trkpt>
      <trkpt lat="46.65932" lon="6.31138">
        <ele>1076</ele>
        <time>2013-08-18T14:33:54.000Z</time>
      </trkpt>
      <trkpt lat="46.65934" lon="6.31142">
        <ele>1076</ele>
        <time>2013-08-18T14:33:55.000Z</time>
      </trkpt>
      <trkpt lat="46.65936" lon="6.31147">
        <ele>1076</ele>
        <time>2013-08-18T14:33:56.000Z</time>
      </trkpt>
      <trkpt lat="46.65938" lon="6.31152">
        <ele>1076</ele>
        <time>2013-08-18T14:33:57.000Z</time>
      </trkpt>
      <trkpt lat="46.65941" lon="6.31156">
        <ele>1076</ele>
        <time>2013-08-18T14:33:58.000Z</time>
      </trkpt>
      <trkpt lat="46.65943" lon="6.31159">
        <ele>1076</ele>
        <time>2013-08-18T14:33:59.000Z</time>
      </trkpt>
      <trkpt lat="46.65944" lon="6.31163">
        <ele>1076</ele>
        <time>2013-08-18T14:34:00.000Z</time>
      </trkpt>
      <trkpt lat="46.65946" lon="6.31166">
        <ele>1076</ele>
        <time>2013-08-18T14:34:01.000Z</time>
      </trkpt>
      <trkpt lat="46.65948" lon="6.3117">
        <ele>1078</ele>
        <time>2013-08-18T14:34:02.000Z</time>
      </trkpt>
      <trkpt lat="46.6595" lon="6.31173">
        <ele>1077</ele>
        <time>2013-08-18T14:34:03.000Z</time>
      </trkpt>
      <trkpt lat="46.65951" lon="6.31177">
        <ele>1077</ele>
        <time>2013-08-18T14:34:04.000Z</time>
      </trkpt>
      <trkpt lat="46.65953" lon="6.3118">
        <ele>1077</ele>
        <time>2013-08-18T14:34:05.000Z</time>
      </trkpt>
      <trkpt lat="46.65955" lon="6.31184">
        <ele>1077</ele>
        <time>2013-08-18T14:34:06.000Z</time>
      </trkpt>
      <trkpt lat="46.65957" lon="6.31187">
        <ele>1077</ele>
        <time>2013-08-18T14:34:07.000Z</time>
      </trkpt>
      <trkpt lat="46.6596" lon="6.31191">
        <ele>1077</ele>
        <time>2013-08-18T14:34:08.000Z</time>
      </trkpt>
      <trkpt lat="46.65962" lon="6.31195">
        <ele>1077</ele>
        <time>2013-08-18T14:34:09.000Z</time>
      </trkpt>
      <trkpt lat="46.65965" lon="6.31198">
        <ele>1077</ele>
        <time>2013-08-18T14:34:10.000Z</time>
      </trkpt>
      <trkpt lat="46.65967" lon="6.31201">
        <ele>1077</ele>
        <time>2013-08-18T14:34:11.000Z</time>
      </trkpt>
      <trkpt lat="46.6597" lon="6.31205">
        <ele>1077</ele>
        <time>2013-08-18T14:34:12.000Z</time>
      </trkpt>
      <trkpt lat="46.65972" lon="6.31208">
        <ele>1077</ele>
        <time>2013-08-18T14:34:13.000Z</time>
      </trkpt>
      <trkpt lat="46.65974" lon="6.31211">
        <ele>1077</ele>
        <time>2013-08-18T14:34:14.000Z</time>
      </trkpt>
      <trkpt lat="46.65977" lon="6.31215">
        <ele>1077</ele>
        <time>2013-08-18T14:34:15.000Z</time>
      </trkpt>
      <trkpt lat="46.65979" lon="6.31219">
        <ele>1078</ele>
        <time>2013-08-18T14:34:16.000Z</time>
      </trkpt>
      <trkpt lat="46.65981" lon="6.31222">
        <ele>1078</ele>
        <time>2013-08-18T14:34:17.000Z</time>
      </trkpt>
      <trkpt lat="46.65982" lon="6.31226">
        <ele>1078</ele>
        <time>2013-08-18T14:34:18.000Z</time>
      </trkpt>
      <trkpt lat="46.65984" lon="6.3123">
        <ele>1078</ele>
        <time>2013-08-18T14:34:19.000Z</time>
      </trkpt>
      <trkpt lat="46.65985" lon="6.31233">
        <ele>1079</ele>
        <time>2013-08-18T14:34:20.000Z</time>
      </trkpt>
      <trkpt lat="46.65986" lon="6.31237">
        <ele>1079</ele>
        <time>2013-08-18T14:34:21.000Z</time>
      </trkpt>
      <trkpt lat="46.65988" lon="6.31241">
        <ele>1079</ele>
        <time>2013-08-18T14:34:22.000Z</time>
      </trkpt>
      <trkpt lat="46.65989" lon="6.31244">
        <ele>1080</ele>
        <time>2013-08-18T14:34:23.000Z</time>
      </trkpt>
      <trkpt lat="46.65991" lon="6.31248">
        <ele>1080</ele>
        <time>2013-08-18T14:34:24.000Z</time>
      </trkpt>
      <trkpt lat="46.65993" lon="6.31253">
        <ele>1078</ele>
        <time>2013-08-18T14:34:25.000Z</time>
      </trkpt>
      <trkpt lat="46.65994" lon="6.31258">
        <ele>1078</ele>
        <time>2013-08-18T14:34:26.000Z</time>
      </trkpt>
      <trkpt lat="46.65996" lon="6.31262">
        <ele>1077</ele>
        <time>2013-08-18T14:34:27.000Z</time>
      </trkpt>
      <trkpt lat="46.65997" lon="6.31266">
        <ele>1076</ele>
        <time>2013-08-18T14:34:28.000Z</time>
      </trkpt>
      <trkpt lat="46.65999" lon="6.31271">
        <ele>1075</ele>
        <time>2013-08-18T14:34:29.000Z</time>
      </trkpt>
      <trkpt lat="46.66" lon="6.31275">
        <ele>1077</ele>
        <time>2013-08-18T14:34:30.000Z</time>
      </trkpt>
      <trkpt lat="46.66002" lon="6.31279">
        <ele>1076</ele>
        <time>2013-08-18T14:34:31.000Z</time>
      </trkpt>
      <trkpt lat="46.66004" lon="6.31284">
        <ele>1076</ele>
        <time>2013-08-18T14:34:32.000Z</time>
      </trkpt>
      <trkpt lat="46.66005" lon="6.31288">
        <ele>1075</ele>
        <time>2013-08-18T14:34:33.000Z</time>
      </trkpt>
      <trkpt lat="46.66007" lon="6.31292">
        <ele>1075</ele>
        <time>2013-08-18T14:34:34.000Z</time>
      </trkpt>
      <trkpt lat="46.66008" lon="6.31297">
        <ele>1075</ele>
        <time>2013-08-18T14:34:35.000Z</time>
      </trkpt>
      <trkpt lat="46.66011" lon="6.31301">
        <ele>1075</ele>
        <time>2013-08-18T14:34:36.000Z</time>
      </trkpt>
      <trkpt lat="46.66013" lon="6.31305">
        <ele>1074</ele>
        <time>2013-08-18T14:34:37.000Z</time>
      </trkpt>
      <trkpt lat="46.66016" lon="6.31309">
        <ele>1074</ele>
        <time>2013-08-18T14:34:38.000Z</time>
      </trkpt>
      <trkpt lat="46.66019" lon="6.31313">
        <ele>1074</ele>
        <time>2013-08-18T14:34:39.000Z</time>
      </trkpt>
      <trkpt lat="46.66022" lon="6.31316">
        <ele>1074</ele>
        <time>2013-08-18T14:34:40.000Z</time>
      </trkpt>
      <trkpt lat="46.66025" lon="6.31319">
        <ele>1074</ele>
        <time>2013-08-18T14:34:41.000Z</time>
      </trkpt>
      <trkpt lat="46.66027" lon="6.31322">
        <ele>1074</ele>
        <time>2013-08-18T14:34:42.000Z</time>
      </trkpt>
      <trkpt lat="46.66029" lon="6.31326">
        <ele>1074</ele>
        <time>2013-08-18T14:34:43.000Z</time>
      </trkpt>
      <trkpt lat="46.66032" lon="6.31329">
        <ele>1074</ele>
        <time>2013-08-18T14:34:44.000Z</time>
      </trkpt>
      <trkpt lat="46.66036" lon="6.31332">
        <ele>1074</ele>
        <time>2013-08-18T14:34:45.000Z</time>
      </trkpt>
      <trkpt lat="46.6604" lon="6.31335">
        <ele>1074</ele>
        <time>2013-08-18T14:34:46.000Z</time>
      </trkpt>
      <trkpt lat="46.66043" lon="6.31336">
        <ele>1074</ele>
        <time>2013-08-18T14:34:47.000Z</time>
      </trkpt>
      <trkpt lat="46.66046" lon="6.31337">
        <ele>1074</ele>
        <time>2013-08-18T14:34:48.000Z</time>
      </trkpt>
      <trkpt lat="46.66049" lon="6.31337">
        <ele>1074</ele>
        <time>2013-08-18T14:34:49.000Z</time>
      </trkpt>
      <trkpt lat="46.66052" lon="6.31337">
        <ele>1074</ele>
        <time>2013-08-18T14:34:50.000Z</time>
      </trkpt>
      <trkpt lat="46.66055" lon="6.31338">
        <ele>1074</ele>
        <time>2013-08-18T14:34:51.000Z</time>
      </trkpt>
      <trkpt lat="46.66058" lon="6.31339">
        <ele>1074</ele>
        <time>2013-08-18T14:34:52.000Z</time>
      </trkpt>
      <trkpt lat="46.66061" lon="6.3134">
        <ele>1074</ele>
        <time>2013-08-18T14:34:53.000Z</time>
      </trkpt>
      <trkpt lat="46.66065" lon="6.31343">
        <ele>1075</ele>
        <time>2013-08-18T14:34:54.000Z</time>
      </trkpt>
      <trkpt lat="46.66069" lon="6.31346">
        <ele>1075</ele>
        <time>2013-08-18T14:34:55.000Z</time>
      </trkpt>
      <trkpt lat="46.66072" lon="6.3135">
        <ele>1075</ele>
        <time>2013-08-18T14:34:56.000Z</time>
      </trkpt>
      <trkpt lat="46.66075" lon="6.31354">
        <ele>1075</ele>
        <time>2013-08-18T14:34:57.000Z</time>
      </trkpt>
      <trkpt lat="46.66077" lon="6.31359">
        <ele>1074</ele>
        <time>2013-08-18T14:34:58.000Z</time>
      </trkpt>
      <trkpt lat="46.66079" lon="6.31363">
        <ele>1074</ele>
        <time>2013-08-18T14:34:59.000Z</time>
      </trkpt>
      <trkpt lat="46.6608" lon="6.31368">
        <ele>1074</ele>
        <time>2013-08-18T14:35:00.000Z</time>
      </trkpt>
      <trkpt lat="46.66082" lon="6.31373">
        <ele>1074</ele>
        <time>2013-08-18T14:35:01.000Z</time>
      </trkpt>
      <trkpt lat="46.66083" lon="6.31377">
        <ele>1074</ele>
        <time>2013-08-18T14:35:02.000Z</time>
      </trkpt>
      <trkpt lat="46.66083" lon="6.31382">
        <ele>1074</ele>
        <time>2013-08-18T14:35:03.000Z</time>
      </trkpt>
      <trkpt lat="46.66084" lon="6.31386">
        <ele>1069</ele>
        <time>2013-08-18T14:35:04.000Z</time>
      </trkpt>
      <trkpt lat="46.66085" lon="6.31391">
        <ele>1070</ele>
        <time>2013-08-18T14:35:05.000Z</time>
      </trkpt>
      <trkpt lat="46.66087" lon="6.31396">
        <ele>1070</ele>
        <time>2013-08-18T14:35:06.000Z</time>
      </trkpt>
      <trkpt lat="46.66089" lon="6.31402">
        <ele>1071</ele>
        <time>2013-08-18T14:35:07.000Z</time>
      </trkpt>
      <trkpt lat="46.66092" lon="6.31408">
        <ele>1072</ele>
        <time>2013-08-18T14:35:08.000Z</time>
      </trkpt>
      <trkpt lat="46.66094" lon="6.31413">
        <ele>1072</ele>
        <time>2013-08-18T14:35:09.000Z</time>
      </trkpt>
      <trkpt lat="46.66097" lon="6.31418">
        <ele>1073</ele>
        <time>2013-08-18T14:35:10.000Z</time>
      </trkpt>
      <trkpt lat="46.66099" lon="6.31423">
        <ele>1073</ele>
        <time>2013-08-18T14:35:11.000Z</time>
      </trkpt>
      <trkpt lat="46.66102" lon="6.31427">
        <ele>1072</ele>
        <time>2013-08-18T14:35:12.000Z</time>
      </trkpt>
      <trkpt lat="46.66105" lon="6.31432">
        <ele>1072</ele>
        <time>2013-08-18T14:35:13.000Z</time>
      </trkpt>
      <trkpt lat="46.66108" lon="6.31437">
        <ele>1071</ele>
        <time>2013-08-18T14:35:14.000Z</time>
      </trkpt>
      <trkpt lat="46.66111" lon="6.31442">
        <ele>1071</ele>
        <time>2013-08-18T14:35:15.000Z</time>
      </trkpt>
      <trkpt lat="46.66113" lon="6.31447">
        <ele>1071</ele>
        <time>2013-08-18T14:35:16.000Z</time>
      </trkpt>
      <trkpt lat="46.66116" lon="6.31452">
        <ele>1071</ele>
        <time>2013-08-18T14:35:17.000Z</time>
      </trkpt>
      <trkpt lat="46.66119" lon="6.31456">
        <ele>1071</ele>
        <time>2013-08-18T14:35:18.000Z</time>
      </trkpt>
      <trkpt lat="46.66121" lon="6.3146">
        <ele>1070</ele>
        <time>2013-08-18T14:35:19.000Z</time>
      </trkpt>
      <trkpt lat="46.66124" lon="6.31465">
        <ele>1070</ele>
        <time>2013-08-18T14:35:20.000Z</time>
      </trkpt>
      <trkpt lat="46.66126" lon="6.3147">
        <ele>1071</ele>
        <time>2013-08-18T14:35:21.000Z</time>
      </trkpt>
      <trkpt lat="46.66129" lon="6.31474">
        <ele>1071</ele>
        <time>2013-08-18T14:35:22.000Z</time>
      </trkpt>
      <trkpt lat="46.66131" lon="6.31479">
        <ele>1071</ele>
        <time>2013-08-18T14:35:23.000Z</time>
      </trkpt>
      <trkpt lat="46.66134" lon="6.31484">
        <ele>1071</ele>
        <time>2013-08-18T14:35:24.000Z</time>
      </trkpt>
      <trkpt lat="46.66136" lon="6.31489">
        <ele>1071</ele>
        <time>2013-08-18T14:35:25.000Z</time>
      </trkpt>
      <trkpt lat="46.66139" lon="6.31494">
        <ele>1071</ele>
        <time>2013-08-18T14:35:26.000Z</time>
      </trkpt>
      <trkpt lat="46.66142" lon="6.315">
        <ele>1071</ele>
        <time>2013-08-18T14:35:27.000Z</time>
      </trkpt>
      <trkpt lat="46.66145" lon="6.31506">
        <ele>1071</ele>
        <time>2013-08-18T14:35:28.000Z</time>
      </trkpt>
      <trkpt lat="46.66148" lon="6.31512">
        <ele>1071</ele>
        <time>2013-08-18T14:35:29.000Z</time>
      </trkpt>
      <trkpt lat="46.66151" lon="6.31517">
        <ele>1071</ele>
        <time>2013-08-18T14:35:30.000Z</time>
      </trkpt>
      <trkpt lat="46.66154" lon="6.31522">
        <ele>1071</ele>
        <time>2013-08-18T14:35:31.000Z</time>
      </trkpt>
      <trkpt lat="46.66156" lon="6.31527">
        <ele>1071</ele>
        <time>2013-08-18T14:35:32.000Z</time>
      </trkpt>
      <trkpt lat="46.66159" lon="6.31532">
        <ele>1071</ele>
        <time>2013-08-18T14:35:33.000Z</time>
      </trkpt>
      <trkpt lat="46.66162" lon="6.31537">
        <ele>1071</ele>
        <time>2013-08-18T14:35:34.000Z</time>
      </trkpt>
      <trkpt lat="46.66164" lon="6.31542">
        <ele>1071</ele>
        <time>2013-08-18T14:35:35.000Z</time>
      </trkpt>
      <trkpt lat="46.66166" lon="6.31546">
        <ele>1071</ele>
        <time>2013-08-18T14:35:36.000Z</time>
      </trkpt>
      <trkpt lat="46.66168" lon="6.31549">
        <ele>1066</ele>
        <time>2013-08-18T14:35:37.000Z</time>
      </trkpt>
      <trkpt lat="46.66171" lon="6.31551">
        <ele>1066</ele>
        <time>2013-08-18T14:35:38.000Z</time>
      </trkpt>
      <trkpt lat="46.66173" lon="6.31553">
        <ele>1066</ele>
        <time>2013-08-18T14:35:39.000Z</time>
      </trkpt>
      <trkpt lat="46.66175" lon="6.31554">
        <ele>1065</ele>
        <time>2013-08-18T14:35:40.000Z</time>
      </trkpt>
      <trkpt lat="46.66177" lon="6.31555">
        <ele>1065</ele>
        <time>2013-08-18T14:35:41.000Z</time>
      </trkpt>
      <trkpt lat="46.6618" lon="6.31555">
        <ele>1065</ele>
        <time>2013-08-18T14:35:42.000Z</time>
      </trkpt>
      <trkpt lat="46.66181" lon="6.31556">
        <ele>1065</ele>
        <time>2013-08-18T14:35:43.000Z</time>
      </trkpt>
      <trkpt lat="46.66183" lon="6.31556">
        <ele>1065</ele>
        <time>2013-08-18T14:35:44.000Z</time>
      </trkpt>
      <trkpt lat="46.66185" lon="6.31557">
        <ele>1065</ele>
        <time>2013-08-18T14:35:45.000Z</time>
      </trkpt>
      <trkpt lat="46.66187" lon="6.31558">
        <ele>1065</ele>
        <time>2013-08-18T14:35:46.000Z</time>
      </trkpt>
      <trkpt lat="46.66189" lon="6.31559">
        <ele>1064</ele>
        <time>2013-08-18T14:35:47.000Z</time>
      </trkpt>
      <trkpt lat="46.66191" lon="6.3156">
        <ele>1064</ele>
        <time>2013-08-18T14:35:48.000Z</time>
      </trkpt>
      <trkpt lat="46.66194" lon="6.3156">
        <ele>1064</ele>
        <time>2013-08-18T14:35:49.000Z</time>
      </trkpt>
      <trkpt lat="46.66196" lon="6.31561">
        <ele>1063</ele>
        <time>2013-08-18T14:35:50.000Z</time>
      </trkpt>
      <trkpt lat="46.66198" lon="6.31561">
        <ele>1063</ele>
        <time>2013-08-18T14:35:51.000Z</time>
      </trkpt>
      <trkpt lat="46.662" lon="6.31562">
        <ele>1063</ele>
        <time>2013-08-18T14:35:52.000Z</time>
      </trkpt>
      <trkpt lat="46.66201" lon="6.31563">
        <ele>1063</ele>
        <time>2013-08-18T14:35:53.000Z</time>
      </trkpt>
      <trkpt lat="46.66203" lon="6.31563">
        <ele>1063</ele>
        <time>2013-08-18T14:35:54.000Z</time>
      </trkpt>
      <trkpt lat="46.66204" lon="6.31564">
        <ele>1062</ele>
        <time>2013-08-18T14:35:55.000Z</time>
      </trkpt>
      <trkpt lat="46.66206" lon="6.31564">
        <ele>1062</ele>
        <time>2013-08-18T14:35:56.000Z</time>
      </trkpt>
      <trkpt lat="46.66207" lon="6.31566">
        <ele>1062</ele>
        <time>2013-08-18T14:35:57.000Z</time>
      </trkpt>
      <trkpt lat="46.66208" lon="6.31568">
        <ele>1062</ele>
        <time>2013-08-18T14:35:58.000Z</time>
      </trkpt>
      <trkpt lat="46.6621" lon="6.3157">
        <ele>1062</ele>
        <time>2013-08-18T14:35:59.000Z</time>
      </trkpt>
      <trkpt lat="46.66211" lon="6.31572">
        <ele>1062</ele>
        <time>2013-08-18T14:36:00.000Z</time>
      </trkpt>
      <trkpt lat="46.66213" lon="6.31574">
        <ele>1061</ele>
        <time>2013-08-18T14:36:01.000Z</time>
      </trkpt>
      <trkpt lat="46.66214" lon="6.31575">
        <ele>1061</ele>
        <time>2013-08-18T14:36:02.000Z</time>
      </trkpt>
      <trkpt lat="46.66215" lon="6.31576">
        <ele>1061</ele>
        <time>2013-08-18T14:36:03.000Z</time>
      </trkpt>
      <trkpt lat="46.66217" lon="6.31577">
        <ele>1061</ele>
        <time>2013-08-18T14:36:04.000Z</time>
      </trkpt>
      <trkpt lat="46.66218" lon="6.31578">
        <ele>1060</ele>
        <time>2013-08-18T14:36:05.000Z</time>
      </trkpt>
      <trkpt lat="46.6622" lon="6.31579">
        <ele>1060</ele>
        <time>2013-08-18T14:36:06.000Z</time>
      </trkpt>
      <trkpt lat="46.66222" lon="6.3158">
        <ele>1060</ele>
        <time>2013-08-18T14:36:07.000Z</time>
      </trkpt>
      <trkpt lat="46.66223" lon="6.31581">
        <ele>1060</ele>
        <time>2013-08-18T14:36:08.000Z</time>
      </trkpt>
      <trkpt lat="46.66225" lon="6.31582">
        <ele>1059</ele>
        <time>2013-08-18T14:36:09.000Z</time>
      </trkpt>
      <trkpt lat="46.66226" lon="6.31583">
        <ele>1059</ele>
        <time>2013-08-18T14:36:10.000Z</time>
      </trkpt>
      <trkpt lat="46.66228" lon="6.31585">
        <ele>1062</ele>
        <time>2013-08-18T14:36:11.000Z</time>
      </trkpt>
      <trkpt lat="46.66229" lon="6.31586">
        <ele>1062</ele>
        <time>2013-08-18T14:36:12.000Z</time>
      </trkpt>
      <trkpt lat="46.66231" lon="6.31588">
        <ele>1061</ele>
        <time>2013-08-18T14:36:13.000Z</time>
      </trkpt>
      <trkpt lat="46.66232" lon="6.3159">
        <ele>1061</ele>
        <time>2013-08-18T14:36:14.000Z</time>
      </trkpt>
      <trkpt lat="46.66235" lon="6.31592">
        <ele>1061</ele>
        <time>2013-08-18T14:36:15.000Z</time>
      </trkpt>
      <trkpt lat="46.66237" lon="6.31594">
        <ele>1061</ele>
        <time>2013-08-18T14:36:16.000Z</time>
      </trkpt>
      <trkpt lat="46.6624" lon="6.31597">
        <ele>1061</ele>
        <time>2013-08-18T14:36:17.000Z</time>
      </trkpt>
      <trkpt lat="46.66243" lon="6.316">
        <ele>1061</ele>
        <time>2013-08-18T14:36:18.000Z</time>
      </trkpt>
      <trkpt lat="46.66245" lon="6.31603">
        <ele>1061</ele>
        <time>2013-08-18T14:36:19.000Z</time>
      </trkpt>
      <trkpt lat="46.66247" lon="6.31606">
        <ele>1062</ele>
        <time>2013-08-18T14:36:20.000Z</time>
      </trkpt>
      <trkpt lat="46.66249" lon="6.3161">
        <ele>1062</ele>
        <time>2013-08-18T14:36:21.000Z</time>
      </trkpt>
      <trkpt lat="46.66251" lon="6.31613">
        <ele>1052</ele>
        <time>2013-08-18T14:36:22.000Z</time>
      </trkpt>
      <trkpt lat="46.66253" lon="6.31616">
        <ele>1052</ele>
        <time>2013-08-18T14:36:23.000Z</time>
      </trkpt>
      <trkpt lat="46.66255" lon="6.31619">
        <ele>1052</ele>
        <time>2013-08-18T14:36:24.000Z</time>
      </trkpt>
      <trkpt lat="46.66257" lon="6.31621">
        <ele>1052</ele>
        <time>2013-08-18T14:36:25.000Z</time>
      </trkpt>
      <trkpt lat="46.66259" lon="6.31624">
        <ele>1052</ele>
        <time>2013-08-18T14:36:26.000Z</time>
      </trkpt>
      <trkpt lat="46.66261" lon="6.31627">
        <ele>1052</ele>
        <time>2013-08-18T14:36:27.000Z</time>
      </trkpt>
      <trkpt lat="46.66264" lon="6.31629">
        <ele>1052</ele>
        <time>2013-08-18T14:36:28.000Z</time>
      </trkpt>
      <trkpt lat="46.66266" lon="6.31631">
        <ele>1052</ele>
        <time>2013-08-18T14:36:29.000Z</time>
      </trkpt>
      <trkpt lat="46.66269" lon="6.31633">
        <ele>1052</ele>
        <time>2013-08-18T14:36:30.000Z</time>
      </trkpt>
      <trkpt lat="46.66271" lon="6.31635">
        <ele>1052</ele>
        <time>2013-08-18T14:36:31.000Z</time>
      </trkpt>
      <trkpt lat="46.66273" lon="6.31637">
        <ele>1052</ele>
        <time>2013-08-18T14:36:32.000Z</time>
      </trkpt>
      <trkpt lat="46.66276" lon="6.31639">
        <ele>1052</ele>
        <time>2013-08-18T14:36:33.000Z</time>
      </trkpt>
      <trkpt lat="46.66278" lon="6.31641">
        <ele>1051</ele>
        <time>2013-08-18T14:36:34.000Z</time>
      </trkpt>
      <trkpt lat="46.6628" lon="6.31643">
        <ele>1051</ele>
        <time>2013-08-18T14:36:35.000Z</time>
      </trkpt>
      <trkpt lat="46.66283" lon="6.31644">
        <ele>1051</ele>
        <time>2013-08-18T14:36:36.000Z</time>
      </trkpt>
      <trkpt lat="46.66286" lon="6.31646">
        <ele>1050</ele>
        <time>2013-08-18T14:36:37.000Z</time>
      </trkpt>
      <trkpt lat="46.66289" lon="6.31648">
        <ele>1050</ele>
        <time>2013-08-18T14:36:38.000Z</time>
      </trkpt>
      <trkpt lat="46.66291" lon="6.31649">
        <ele>1050</ele>
        <time>2013-08-18T14:36:39.000Z</time>
      </trkpt>
      <trkpt lat="46.66294" lon="6.31651">
        <ele>1049</ele>
        <time>2013-08-18T14:36:40.000Z</time>
      </trkpt>
      <trkpt lat="46.66296" lon="6.31654">
        <ele>1049</ele>
        <time>2013-08-18T14:36:41.000Z</time>
      </trkpt>
      <trkpt lat="46.66299" lon="6.31656">
        <ele>1049</ele>
        <time>2013-08-18T14:36:42.000Z</time>
      </trkpt>
      <trkpt lat="46.66301" lon="6.31659">
        <ele>1048</ele>
        <time>2013-08-18T14:36:43.000Z</time>
      </trkpt>
      <trkpt lat="46.66302" lon="6.31661">
        <ele>1048</ele>
        <time>2013-08-18T14:36:44.000Z</time>
      </trkpt>
      <trkpt lat="46.66304" lon="6.31664">
        <ele>1048</ele>
        <time>2013-08-18T14:36:45.000Z</time>
      </trkpt>
      <trkpt lat="46.66305" lon="6.31667">
        <ele>1051</ele>
        <time>2013-08-18T14:36:46.000Z</time>
      </trkpt>
      <trkpt lat="46.66307" lon="6.31669">
        <ele>1051</ele>
        <time>2013-08-18T14:36:47.000Z</time>
      </trkpt>
      <trkpt lat="46.66308" lon="6.31671">
        <ele>1051</ele>
        <time>2013-08-18T14:36:48.000Z</time>
      </trkpt>
      <trkpt lat="46.66311" lon="6.31672">
        <ele>1050</ele>
        <time>2013-08-18T14:36:49.000Z</time>
      </trkpt>
      <trkpt lat="46.66313" lon="6.31674">
        <ele>1050</ele>
        <time>2013-08-18T14:36:50.000Z</time>
      </trkpt>
      <trkpt lat="46.66315" lon="6.31675">
        <ele>1049</ele>
        <time>2013-08-18T14:36:51.000Z</time>
      </trkpt>
      <trkpt lat="46.66317" lon="6.31677">
        <ele>1049</ele>
        <time>2013-08-18T14:36:52.000Z</time>
      </trkpt>
      <trkpt lat="46.66321" lon="6.31679">
        <ele>1049</ele>
        <time>2013-08-18T14:36:53.000Z</time>
      </trkpt>
      <trkpt lat="46.66325" lon="6.31682">
        <ele>1048</ele>
        <time>2013-08-18T14:36:54.000Z</time>
      </trkpt>
      <trkpt lat="46.66328" lon="6.31684">
        <ele>1049</ele>
        <time>2013-08-18T14:36:55.000Z</time>
      </trkpt>
      <trkpt lat="46.66331" lon="6.31688">
        <ele>1049</ele>
        <time>2013-08-18T14:36:56.000Z</time>
      </trkpt>
      <trkpt lat="46.66335" lon="6.31692">
        <ele>1038</ele>
        <time>2013-08-18T14:36:57.000Z</time>
      </trkpt>
      <trkpt lat="46.66338" lon="6.31696">
        <ele>1037</ele>
        <time>2013-08-18T14:36:58.000Z</time>
      </trkpt>
      <trkpt lat="46.66341" lon="6.31699">
        <ele>1037</ele>
        <time>2013-08-18T14:36:59.000Z</time>
      </trkpt>
      <trkpt lat="46.66343" lon="6.31703">
        <ele>1037</ele>
        <time>2013-08-18T14:37:00.000Z</time>
      </trkpt>
      <trkpt lat="46.66345" lon="6.31707">
        <ele>1037</ele>
        <time>2013-08-18T14:37:01.000Z</time>
      </trkpt>
      <trkpt lat="46.66348" lon="6.31712">
        <ele>1037</ele>
        <time>2013-08-18T14:37:02.000Z</time>
      </trkpt>
      <trkpt lat="46.66349" lon="6.31717">
        <ele>1037</ele>
        <time>2013-08-18T14:37:03.000Z</time>
      </trkpt>
      <trkpt lat="46.66351" lon="6.31721">
        <ele>1037</ele>
        <time>2013-08-18T14:37:04.000Z</time>
      </trkpt>
      <trkpt lat="46.66353" lon="6.31726">
        <ele>1037</ele>
        <time>2013-08-18T14:37:05.000Z</time>
      </trkpt>
      <trkpt lat="46.66354" lon="6.3173">
        <ele>1037</ele>
        <time>2013-08-18T14:37:06.000Z</time>
      </trkpt>
      <trkpt lat="46.66355" lon="6.31735">
        <ele>1037</ele>
        <time>2013-08-18T14:37:07.000Z</time>
      </trkpt>
      <trkpt lat="46.66357" lon="6.31739">
        <ele>1037</ele>
        <time>2013-08-18T14:37:08.000Z</time>
      </trkpt>
      <trkpt lat="46.66358" lon="6.31743">
        <ele>1037</ele>
        <time>2013-08-18T14:37:09.000Z</time>
      </trkpt>
      <trkpt lat="46.66359" lon="6.31746">
        <ele>1037</ele>
        <time>2013-08-18T14:37:10.000Z</time>
      </trkpt>
      <trkpt lat="46.6636" lon="6.31749">
        <ele>1037</ele>
        <time>2013-08-18T14:37:11.000Z</time>
      </trkpt>
      <trkpt lat="46.66361" lon="6.3175">
        <ele>1038</ele>
        <time>2013-08-18T14:37:12.000Z</time>
      </trkpt>
      <trkpt lat="46.66361" lon="6.31751">
        <ele>1038</ele>
        <time>2013-08-18T14:37:13.000Z</time>
      </trkpt>
      <trkpt lat="46.66361" lon="6.31752">
        <ele>1038</ele>
        <time>2013-08-18T14:37:14.000Z</time>
      </trkpt>
      <trkpt lat="46.66361" lon="6.31752">
        <ele>1038</ele>
        <time>2013-08-18T14:37:16.000Z</time>
      </trkpt>
      <trkpt lat="46.66362" lon="6.31752">
        <ele>1038</ele>
        <time>2013-08-18T14:37:18.000Z</time>
      </trkpt>
      <trkpt lat="46.66361" lon="6.31752">
        <ele>1038</ele>
        <time>2013-08-18T14:37:19.000Z</time>
      </trkpt>
      <trkpt lat="46.66361" lon="6.31753">
        <ele>1038</ele>
        <time>2013-08-18T14:37:24.000Z</time>
      </trkpt>
      <trkpt lat="46.66361" lon="6.31753">
        <ele>1038</ele>
        <time>2013-08-18T14:37:28.000Z</time>
      </trkpt>
      <trkpt lat="46.66361" lon="6.31754">
        <ele>1038</ele>
        <time>2013-08-18T14:37:31.000Z</time>
      </trkpt>
      <trkpt lat="46.66361" lon="6.31754">
        <ele>1038</ele>
        <time>2013-08-18T14:37:35.000Z</time>
      </trkpt>
      <trkpt lat="46.66361" lon="6.31755">
        <ele>1038</ele>
        <time>2013-08-18T14:37:56.000Z</time>
      </trkpt>
      <trkpt lat="46.66361" lon="6.31755">
        <ele>1038</ele>
        <time>2013-08-18T14:38:01.000Z</time>
      </trkpt>
      <trkpt lat="46.66362" lon="6.31755">
        <ele>1038</ele>
        <time>2013-08-18T14:38:18.000Z</time>
      </trkpt>
      <trkpt lat="46.66362" lon="6.31755">
        <ele>1038</ele>
        <time>2013-08-18T14:38:20.000Z</time>
      </trkpt>
      <trkpt lat="46.66363" lon="6.31755">
        <ele>1038</ele>
        <time>2013-08-18T14:38:28.000Z</time>
      </trkpt>
      <trkpt lat="46.66363" lon="6.31755">
        <ele>1038</ele>
        <time>2013-08-18T14:38:30.000Z</time>
      </trkpt>
      <trkpt lat="46.66363" lon="6.31755">
        <ele>1038</ele>
        <time>2013-08-18T14:38:35.000Z</time>
      </trkpt>
      <trkpt lat="46.66363" lon="6.31755">
        <ele>1038</ele>
        <time>2013-08-18T14:38:38.000Z</time>
      </trkpt>
      <trkpt lat="46.66364" lon="6.31755">
        <ele>1038</ele>
        <time>2013-08-18T14:38:56.000Z</time>
      </trkpt>
      <trkpt lat="46.66364" lon="6.31755">
        <ele>1038</ele>
        <time>2013-08-18T14:38:59.000Z</time>
      </trkpt>
      <trkpt lat="46.66365" lon="6.31756">
        <ele>1038</ele>
        <time>2013-08-18T14:39:00.000Z</time>
      </trkpt>
      <trkpt lat="46.66366" lon="6.31757">
        <ele>1037</ele>
        <time>2013-08-18T14:39:01.000Z</time>
      </trkpt>
      <trkpt lat="46.66369" lon="6.31757">
        <ele>1037</ele>
        <time>2013-08-18T14:39:02.000Z</time>
      </trkpt>
      <trkpt lat="46.66371" lon="6.31757">
        <ele>1036</ele>
        <time>2013-08-18T14:39:03.000Z</time>
      </trkpt>
      <trkpt lat="46.66374" lon="6.31756">
        <ele>1036</ele>
        <time>2013-08-18T14:39:04.000Z</time>
      </trkpt>
      <trkpt lat="46.66376" lon="6.31755">
        <ele>1035</ele>
        <time>2013-08-18T14:39:05.000Z</time>
      </trkpt>
      <trkpt lat="46.66379" lon="6.31753">
        <ele>1035</ele>
        <time>2013-08-18T14:39:06.000Z</time>
      </trkpt>
      <trkpt lat="46.66381" lon="6.31751">
        <ele>1034</ele>
        <time>2013-08-18T14:39:07.000Z</time>
      </trkpt>
      <trkpt lat="46.66384" lon="6.31748">
        <ele>1032</ele>
        <time>2013-08-18T14:39:08.000Z</time>
      </trkpt>
      <trkpt lat="46.66386" lon="6.31745">
        <ele>1032</ele>
        <time>2013-08-18T14:39:09.000Z</time>
      </trkpt>
      <trkpt lat="46.66389" lon="6.31742">
        <ele>1031</ele>
        <time>2013-08-18T14:39:10.000Z</time>
      </trkpt>
      <trkpt lat="46.66391" lon="6.31739">
        <ele>1031</ele>
        <time>2013-08-18T14:39:11.000Z</time>
      </trkpt>
      <trkpt lat="46.66392" lon="6.31736">
        <ele>1031</ele>
        <time>2013-08-18T14:39:12.000Z</time>
      </trkpt>
      <trkpt lat="46.66394" lon="6.31733">
        <ele>1030</ele>
        <time>2013-08-18T14:39:13.000Z</time>
      </trkpt>
      <trkpt lat="46.66396" lon="6.31732">
        <ele>1030</ele>
        <time>2013-08-18T14:39:14.000Z</time>
      </trkpt>
      <trkpt lat="46.66399" lon="6.31731">
        <ele>1030</ele>
        <time>2013-08-18T14:39:15.000Z</time>
      </trkpt>
      <trkpt lat="46.66402" lon="6.31731">
        <ele>1029</ele>
        <time>2013-08-18T14:39:16.000Z</time>
      </trkpt>
      <trkpt lat="46.66404" lon="6.31732">
        <ele>1029</ele>
        <time>2013-08-18T14:39:17.000Z</time>
      </trkpt>
      <trkpt lat="46.66406" lon="6.31734">
        <ele>1029</ele>
        <time>2013-08-18T14:39:18.000Z</time>
      </trkpt>
      <trkpt lat="46.66408" lon="6.31736">
        <ele>1028</ele>
        <time>2013-08-18T14:39:19.000Z</time>
      </trkpt>
      <trkpt lat="46.66409" lon="6.3174">
        <ele>1027</ele>
        <time>2013-08-18T14:39:20.000Z</time>
      </trkpt>
      <trkpt lat="46.66409" lon="6.31745">
        <ele>1026</ele>
        <time>2013-08-18T14:39:21.000Z</time>
      </trkpt>
      <trkpt lat="46.6641" lon="6.3175">
        <ele>1026</ele>
        <time>2013-08-18T14:39:22.000Z</time>
      </trkpt>
      <trkpt lat="46.6641" lon="6.31761">
        <ele>1028</ele>
        <time>2013-08-18T14:39:24.000Z</time>
      </trkpt>
      <trkpt lat="46.66411" lon="6.31767">
        <ele>1029</ele>
        <time>2013-08-18T14:39:25.000Z</time>
      </trkpt>
      <trkpt lat="46.66411" lon="6.31773">
        <ele>1030</ele>
        <time>2013-08-18T14:39:26.000Z</time>
      </trkpt>
      <trkpt lat="46.66412" lon="6.31779">
        <ele>1031</ele>
        <time>2013-08-18T14:39:27.000Z</time>
      </trkpt>
      <trkpt lat="46.66413" lon="6.31785">
        <ele>1031</ele>
        <time>2013-08-18T14:39:28.000Z</time>
      </trkpt>
      <trkpt lat="46.66414" lon="6.31789">
        <ele>1031</ele>
        <time>2013-08-18T14:39:29.000Z</time>
      </trkpt>
      <trkpt lat="46.66415" lon="6.31794">
        <ele>1032</ele>
        <time>2013-08-18T14:39:30.000Z</time>
      </trkpt>
      <trkpt lat="46.66417" lon="6.31797">
        <ele>1020</ele>
        <time>2013-08-18T14:39:31.000Z</time>
      </trkpt>
      <trkpt lat="46.66418" lon="6.31801">
        <ele>1021</ele>
        <time>2013-08-18T14:39:32.000Z</time>
      </trkpt>
      <trkpt lat="46.66421" lon="6.31804">
        <ele>1021</ele>
        <time>2013-08-18T14:39:33.000Z</time>
      </trkpt>
      <trkpt lat="46.66423" lon="6.31808">
        <ele>1021</ele>
        <time>2013-08-18T14:39:34.000Z</time>
      </trkpt>
      <trkpt lat="46.66425" lon="6.31812">
        <ele>1021</ele>
        <time>2013-08-18T14:39:35.000Z</time>
      </trkpt>
      <trkpt lat="46.66427" lon="6.31815">
        <ele>1021</ele>
        <time>2013-08-18T14:39:36.000Z</time>
      </trkpt>
      <trkpt lat="46.66428" lon="6.3182">
        <ele>1021</ele>
        <time>2013-08-18T14:39:37.000Z</time>
      </trkpt>
      <trkpt lat="46.6643" lon="6.31823">
        <ele>1021</ele>
        <time>2013-08-18T14:39:38.000Z</time>
      </trkpt>
      <trkpt lat="46.66432" lon="6.31827">
        <ele>1021</ele>
        <time>2013-08-18T14:39:39.000Z</time>
      </trkpt>
      <trkpt lat="46.66433" lon="6.31829">
        <ele>1021</ele>
        <time>2013-08-18T14:39:40.000Z</time>
      </trkpt>
      <trkpt lat="46.66435" lon="6.31831">
        <ele>1021</ele>
        <time>2013-08-18T14:39:41.000Z</time>
      </trkpt>
      <trkpt lat="46.66436" lon="6.31831">
        <ele>1021</ele>
        <time>2013-08-18T14:39:42.000Z</time>
      </trkpt>
      <trkpt lat="46.66437" lon="6.31832">
        <ele>1021</ele>
        <time>2013-08-18T14:39:43.000Z</time>
      </trkpt>
      <trkpt lat="46.66438" lon="6.31832">
        <ele>1021</ele>
        <time>2013-08-18T14:39:44.000Z</time>
      </trkpt>
      <trkpt lat="46.66439" lon="6.31832">
        <ele>1021</ele>
        <time>2013-08-18T14:39:46.000Z</time>
      </trkpt>
      <trkpt lat="46.66439" lon="6.31832">
        <ele>1021</ele>
        <time>2013-08-18T14:39:47.000Z</time>
      </trkpt>
      <trkpt lat="46.66439" lon="6.31833">
        <ele>1021</ele>
        <time>2013-08-18T14:39:48.000Z</time>
      </trkpt>
      <trkpt lat="46.66439" lon="6.31833">
        <ele>1020</ele>
        <time>2013-08-18T14:39:49.000Z</time>
      </trkpt>
      <trkpt lat="46.6644" lon="6.31834">
        <ele>1021</ele>
        <time>2013-08-18T14:39:50.000Z</time>
      </trkpt>
      <trkpt lat="46.6644" lon="6.31834">
        <ele>1021</ele>
        <time>2013-08-18T14:39:51.000Z</time>
      </trkpt>
      <trkpt lat="46.6644" lon="6.31834">
        <ele>1021</ele>
        <time>2013-08-18T14:39:52.000Z</time>
      </trkpt>
      <trkpt lat="46.66441" lon="6.31833">
        <ele>1020</ele>
        <time>2013-08-18T14:39:53.000Z</time>
      </trkpt>
      <trkpt lat="46.66441" lon="6.31834">
        <ele>1021</ele>
        <time>2013-08-18T14:39:54.000Z</time>
      </trkpt>
      <trkpt lat="46.66441" lon="6.31834">
        <ele>1021</ele>
        <time>2013-08-18T14:40:00.000Z</time>
      </trkpt>
      <trkpt lat="46.66441" lon="6.31834">
        <ele>1021</ele>
        <time>2013-08-18T14:40:02.000Z</time>
      </trkpt>
      <trkpt lat="46.66442" lon="6.31834">
        <ele>1021</ele>
        <time>2013-08-18T14:40:05.000Z</time>
      </trkpt>
      <trkpt lat="46.66442" lon="6.31834">
        <ele>1021</ele>
        <time>2013-08-18T14:40:07.000Z</time>
      </trkpt>
      <trkpt lat="46.66443" lon="6.31835">
        <ele>1021</ele>
        <time>2013-08-18T14:40:12.000Z</time>
      </trkpt>
      <trkpt lat="46.66443" lon="6.31835">
        <ele>1021</ele>
        <time>2013-08-18T14:40:15.000Z</time>
      </trkpt>
      <trkpt lat="46.66443" lon="6.31835">
        <ele>1021</ele>
        <time>2013-08-18T14:40:16.000Z</time>
      </trkpt>
      <trkpt lat="46.66444" lon="6.31835">
        <ele>1021</ele>
        <time>2013-08-18T14:40:17.000Z</time>
      </trkpt>
      <trkpt lat="46.66444" lon="6.31836">
        <ele>1020</ele>
        <time>2013-08-18T14:40:21.000Z</time>
      </trkpt>
      <trkpt lat="46.66445" lon="6.31836">
        <ele>1020</ele>
        <time>2013-08-18T14:40:22.000Z</time>
      </trkpt>
      <trkpt lat="46.66446" lon="6.31837">
        <ele>1020</ele>
        <time>2013-08-18T14:40:23.000Z</time>
      </trkpt>
      <trkpt lat="46.66448" lon="6.31835">
        <ele>1020</ele>
        <time>2013-08-18T14:40:25.000Z</time>
      </trkpt>
      <trkpt lat="46.66451" lon="6.31834">
        <ele>1020</ele>
        <time>2013-08-18T14:40:26.000Z</time>
      </trkpt>
      <trkpt lat="46.66454" lon="6.31832">
        <ele>1019</ele>
        <time>2013-08-18T14:40:27.000Z</time>
      </trkpt>
      <trkpt lat="46.66457" lon="6.31831">
        <ele>1018</ele>
        <time>2013-08-18T14:40:28.000Z</time>
      </trkpt>
      <trkpt lat="46.6646" lon="6.3183">
        <ele>1018</ele>
        <time>2013-08-18T14:40:29.000Z</time>
      </trkpt>
      <trkpt lat="46.66463" lon="6.3183">
        <ele>1017</ele>
        <time>2013-08-18T14:40:30.000Z</time>
      </trkpt>
      <trkpt lat="46.66466" lon="6.31831">
        <ele>1017</ele>
        <time>2013-08-18T14:40:31.000Z</time>
      </trkpt>
      <trkpt lat="46.66469" lon="6.31834">
        <ele>1017</ele>
        <time>2013-08-18T14:40:32.000Z</time>
      </trkpt>
      <trkpt lat="46.66471" lon="6.31837">
        <ele>1017</ele>
        <time>2013-08-18T14:40:33.000Z</time>
      </trkpt>
      <trkpt lat="46.66474" lon="6.31842">
        <ele>1017</ele>
        <time>2013-08-18T14:40:34.000Z</time>
      </trkpt>
      <trkpt lat="46.66476" lon="6.31846">
        <ele>1016</ele>
        <time>2013-08-18T14:40:35.000Z</time>
      </trkpt>
      <trkpt lat="46.66478" lon="6.3185">
        <ele>1016</ele>
        <time>2013-08-18T14:40:36.000Z</time>
      </trkpt>
      <trkpt lat="46.6648" lon="6.31856">
        <ele>1016</ele>
        <time>2013-08-18T14:40:37.000Z</time>
      </trkpt>
      <trkpt lat="46.66481" lon="6.31862">
        <ele>1017</ele>
        <time>2013-08-18T14:40:38.000Z</time>
      </trkpt>
      <trkpt lat="46.66483" lon="6.31869">
        <ele>1017</ele>
        <time>2013-08-18T14:40:39.000Z</time>
      </trkpt>
      <trkpt lat="46.66484" lon="6.31876">
        <ele>1017</ele>
        <time>2013-08-18T14:40:40.000Z</time>
      </trkpt>
      <trkpt lat="46.66484" lon="6.31883">
        <ele>1017</ele>
        <time>2013-08-18T14:40:41.000Z</time>
      </trkpt>
      <trkpt lat="46.66485" lon="6.31888">
        <ele>1016</ele>
        <time>2013-08-18T14:40:42.000Z</time>
      </trkpt>
      <trkpt lat="46.66486" lon="6.31893">
        <ele>1016</ele>
        <time>2013-08-18T14:40:43.000Z</time>
      </trkpt>
      <trkpt lat="46.66486" lon="6.31897">
        <ele>1016</ele>
        <time>2013-08-18T14:40:44.000Z</time>
      </trkpt>
      <trkpt lat="46.66486" lon="6.319">
        <ele>1015</ele>
        <time>2013-08-18T14:40:45.000Z</time>
      </trkpt>
      <trkpt lat="46.66486" lon="6.31907">
        <ele>1015</ele>
        <time>2013-08-18T14:40:48.000Z</time>
      </trkpt>
      <trkpt lat="46.66486" lon="6.31907">
        <ele>1015</ele>
        <time>2013-08-18T14:40:49.000Z</time>
      </trkpt>
      <trkpt lat="46.66486" lon="6.31908">
        <ele>1015</ele>
        <time>2013-08-18T14:40:51.000Z</time>
      </trkpt>
      <trkpt lat="46.66486" lon="6.31908">
        <ele>1015</ele>
        <time>2013-08-18T14:40:52.000Z</time>
      </trkpt>
      <trkpt lat="46.66487" lon="6.31908">
        <ele>1014</ele>
        <time>2013-08-18T14:40:55.000Z</time>
      </trkpt>
      <trkpt lat="46.66488" lon="6.31908">
        <ele>1014</ele>
        <time>2013-08-18T14:41:01.000Z</time>
      </trkpt>
      <trkpt lat="46.66488" lon="6.31908">
        <ele>1014</ele>
        <time>2013-08-18T14:41:04.000Z</time>
      </trkpt>
      <trkpt lat="46.66488" lon="6.31909">
        <ele>1014</ele>
        <time>2013-08-18T14:41:05.000Z</time>
      </trkpt>
      <trkpt lat="46.6649" lon="6.3191">
        <ele>1014</ele>
        <time>2013-08-18T14:41:06.000Z</time>
      </trkpt>
      <trkpt lat="46.66491" lon="6.31911">
        <ele>1013</ele>
        <time>2013-08-18T14:41:07.000Z</time>
      </trkpt>
      <trkpt lat="46.66493" lon="6.31912">
        <ele>1013</ele>
        <time>2013-08-18T14:41:08.000Z</time>
      </trkpt>
      <trkpt lat="46.66495" lon="6.3191">
        <ele>1013</ele>
        <time>2013-08-18T14:41:09.000Z</time>
      </trkpt>
      <trkpt lat="46.66497" lon="6.31907">
        <ele>1013</ele>
        <time>2013-08-18T14:41:10.000Z</time>
      </trkpt>
      <trkpt lat="46.66499" lon="6.31904">
        <ele>1013</ele>
        <time>2013-08-18T14:41:11.000Z</time>
      </trkpt>
      <trkpt lat="46.665" lon="6.31901">
        <ele>1014</ele>
        <time>2013-08-18T14:41:12.000Z</time>
      </trkpt>
      <trkpt lat="46.66501" lon="6.31897">
        <ele>1008</ele>
        <time>2013-08-18T14:41:13.000Z</time>
      </trkpt>
      <trkpt lat="46.66503" lon="6.31893">
        <ele>1008</ele>
        <time>2013-08-18T14:41:14.000Z</time>
      </trkpt>
      <trkpt lat="46.66504" lon="6.31889">
        <ele>1008</ele>
        <time>2013-08-18T14:41:15.000Z</time>
      </trkpt>
      <trkpt lat="46.66505" lon="6.31884">
        <ele>1007</ele>
        <time>2013-08-18T14:41:16.000Z</time>
      </trkpt>
      <trkpt lat="46.66506" lon="6.31879">
        <ele>1007</ele>
        <time>2013-08-18T14:41:17.000Z</time>
      </trkpt>
      <trkpt lat="46.66507" lon="6.31874">
        <ele>1007</ele>
        <time>2013-08-18T14:41:18.000Z</time>
      </trkpt>
      <trkpt lat="46.66508" lon="6.31869">
        <ele>1007</ele>
        <time>2013-08-18T14:41:19.000Z</time>
      </trkpt>
      <trkpt lat="46.6651" lon="6.31863">
        <ele>1008</ele>
        <time>2013-08-18T14:41:20.000Z</time>
      </trkpt>
      <trkpt lat="46.66511" lon="6.31857">
        <ele>1008</ele>
        <time>2013-08-18T14:41:21.000Z</time>
      </trkpt>
      <trkpt lat="46.66513" lon="6.31852">
        <ele>1008</ele>
        <time>2013-08-18T14:41:22.000Z</time>
      </trkpt>
      <trkpt lat="46.66514" lon="6.31846">
        <ele>1008</ele>
        <time>2013-08-18T14:41:23.000Z</time>
      </trkpt>
      <trkpt lat="46.66516" lon="6.3184">
        <ele>1008</ele>
        <time>2013-08-18T14:41:24.000Z</time>
      </trkpt>
      <trkpt lat="46.66517" lon="6.31834">
        <ele>1008</ele>
        <time>2013-08-18T14:41:25.000Z</time>
      </trkpt>
      <trkpt lat="46.66519" lon="6.31828">
        <ele>1009</ele>
        <time>2013-08-18T14:41:26.000Z</time>
      </trkpt>
      <trkpt lat="46.6652" lon="6.31821">
        <ele>1009</ele>
        <time>2013-08-18T14:41:27.000Z</time>
      </trkpt>
      <trkpt lat="46.66522" lon="6.31815">
        <ele>1008</ele>
        <time>2013-08-18T14:41:28.000Z</time>
      </trkpt>
      <trkpt lat="46.66523" lon="6.31808">
        <ele>1008</ele>
        <time>2013-08-18T14:41:29.000Z</time>
      </trkpt>
      <trkpt lat="46.66525" lon="6.31802">
        <ele>1008</ele>
        <time>2013-08-18T14:41:30.000Z</time>
      </trkpt>
      <trkpt lat="46.66526" lon="6.31795">
        <ele>1008</ele>
        <time>2013-08-18T14:41:31.000Z</time>
      </trkpt>
      <trkpt lat="46.66528" lon="6.31788">
        <ele>1008</ele>
        <time>2013-08-18T14:41:32.000Z</time>
      </trkpt>
      <trkpt lat="46.66529" lon="6.31781">
        <ele>1008</ele>
        <time>2013-08-18T14:41:33.000Z</time>
      </trkpt>
      <trkpt lat="46.66531" lon="6.31775">
        <ele>1008</ele>
        <time>2013-08-18T14:41:34.000Z</time>
      </trkpt>
      <trkpt lat="46.66533" lon="6.31768">
        <ele>1008</ele>
        <time>2013-08-18T14:41:35.000Z</time>
      </trkpt>
      <trkpt lat="46.66535" lon="6.31761">
        <ele>1008</ele>
        <time>2013-08-18T14:41:36.000Z</time>
      </trkpt>
      <trkpt lat="46.66537" lon="6.31754">
        <ele>1008</ele>
        <time>2013-08-18T14:41:37.000Z</time>
      </trkpt>
      <trkpt lat="46.66539" lon="6.31747">
        <ele>1009</ele>
        <time>2013-08-18T14:41:38.000Z</time>
      </trkpt>
      <trkpt lat="46.66541" lon="6.31739">
        <ele>1009</ele>
        <time>2013-08-18T14:41:39.000Z</time>
      </trkpt>
      <trkpt lat="46.66542" lon="6.31732">
        <ele>1009</ele>
        <time>2013-08-18T14:41:40.000Z</time>
      </trkpt>
      <trkpt lat="46.66544" lon="6.31726">
        <ele>1009</ele>
        <time>2013-08-18T14:41:41.000Z</time>
      </trkpt>
      <trkpt lat="46.66546" lon="6.31719">
        <ele>1009</ele>
        <time>2013-08-18T14:41:42.000Z</time>
      </trkpt>
      <trkpt lat="46.66548" lon="6.31712">
        <ele>1008</ele>
        <time>2013-08-18T14:41:43.000Z</time>
      </trkpt>
      <trkpt lat="46.66549" lon="6.31706">
        <ele>1008</ele>
        <time>2013-08-18T14:41:44.000Z</time>
      </trkpt>
      <trkpt lat="46.66551" lon="6.31699">
        <ele>1008</ele>
        <time>2013-08-18T14:41:45.000Z</time>
      </trkpt>
      <trkpt lat="46.66552" lon="6.31692">
        <ele>1008</ele>
        <time>2013-08-18T14:41:46.000Z</time>
      </trkpt>
      <trkpt lat="46.66554" lon="6.31686">
        <ele>1008</ele>
        <time>2013-08-18T14:41:47.000Z</time>
      </trkpt>
      <trkpt lat="46.66555" lon="6.3168">
        <ele>1008</ele>
        <time>2013-08-18T14:41:48.000Z</time>
      </trkpt>
      <trkpt lat="46.66557" lon="6.31673">
        <ele>1008</ele>
        <time>2013-08-18T14:41:49.000Z</time>
      </trkpt>
      <trkpt lat="46.66559" lon="6.31667">
        <ele>1008</ele>
        <time>2013-08-18T14:41:50.000Z</time>
      </trkpt>
      <trkpt lat="46.66561" lon="6.31661">
        <ele>1008</ele>
        <time>2013-08-18T14:41:51.000Z</time>
      </trkpt>
      <trkpt lat="46.66562" lon="6.31655">
        <ele>1008</ele>
        <time>2013-08-18T14:41:52.000Z</time>
      </trkpt>
      <trkpt lat="46.66563" lon="6.3165">
        <ele>1008</ele>
        <time>2013-08-18T14:41:53.000Z</time>
      </trkpt>
      <trkpt lat="46.66565" lon="6.31644">
        <ele>1008</ele>
        <time>2013-08-18T14:41:54.000Z</time>
      </trkpt>
      <trkpt lat="46.66566" lon="6.31639">
        <ele>1009</ele>
        <time>2013-08-18T14:41:55.000Z</time>
      </trkpt>
      <trkpt lat="46.66568" lon="6.31634">
        <ele>1009</ele>
        <time>2013-08-18T14:41:56.000Z</time>
      </trkpt>
      <trkpt lat="46.66569" lon="6.31629">
        <ele>1009</ele>
        <time>2013-08-18T14:41:57.000Z</time>
      </trkpt>
      <trkpt lat="46.66571" lon="6.31624">
        <ele>1009</ele>
        <time>2013-08-18T14:41:58.000Z</time>
      </trkpt>
      <trkpt lat="46.66572" lon="6.31618">
        <ele>1009</ele>
        <time>2013-08-18T14:41:59.000Z</time>
      </trkpt>
      <trkpt lat="46.66573" lon="6.31613">
        <ele>1009</ele>
        <time>2013-08-18T14:42:00.000Z</time>
      </trkpt>
      <trkpt lat="46.66575" lon="6.31608">
        <ele>1009</ele>
        <time>2013-08-18T14:42:01.000Z</time>
      </trkpt>
      <trkpt lat="46.66576" lon="6.31603">
        <ele>1009</ele>
        <time>2013-08-18T14:42:02.000Z</time>
      </trkpt>
      <trkpt lat="46.66577" lon="6.31598">
        <ele>1009</ele>
        <time>2013-08-18T14:42:03.000Z</time>
      </trkpt>
      <trkpt lat="46.66578" lon="6.31592">
        <ele>1008</ele>
        <time>2013-08-18T14:42:04.000Z</time>
      </trkpt>
      <trkpt lat="46.6658" lon="6.31588">
        <ele>1008</ele>
        <time>2013-08-18T14:42:05.000Z</time>
      </trkpt>
      <trkpt lat="46.66581" lon="6.31583">
        <ele>1008</ele>
        <time>2013-08-18T14:42:06.000Z</time>
      </trkpt>
      <trkpt lat="46.66582" lon="6.31578">
        <ele>1009</ele>
        <time>2013-08-18T14:42:07.000Z</time>
      </trkpt>
      <trkpt lat="46.66584" lon="6.31573">
        <ele>1008</ele>
        <time>2013-08-18T14:42:08.000Z</time>
      </trkpt>
      <trkpt lat="46.66586" lon="6.31569">
        <ele>1008</ele>
        <time>2013-08-18T14:42:09.000Z</time>
      </trkpt>
      <trkpt lat="46.66588" lon="6.31564">
        <ele>1009</ele>
        <time>2013-08-18T14:42:10.000Z</time>
      </trkpt>
      <trkpt lat="46.66589" lon="6.31559">
        <ele>1009</ele>
        <time>2013-08-18T14:42:11.000Z</time>
      </trkpt>
      <trkpt lat="46.6659" lon="6.31555">
        <ele>1009</ele>
        <time>2013-08-18T14:42:12.000Z</time>
      </trkpt>
      <trkpt lat="46.66591" lon="6.3155">
        <ele>1009</ele>
        <time>2013-08-18T14:42:13.000Z</time>
      </trkpt>
      <trkpt lat="46.66592" lon="6.31545">
        <ele>1009</ele>
        <time>2013-08-18T14:42:14.000Z</time>
      </trkpt>
      <trkpt lat="46.66593" lon="6.3154">
        <ele>1009</ele>
        <time>2013-08-18T14:42:15.000Z</time>
      </trkpt>
      <trkpt lat="46.66595" lon="6.31536">
        <ele>1009</ele>
        <time>2013-08-18T14:42:16.000Z</time>
      </trkpt>
      <trkpt lat="46.66597" lon="6.31531">
        <ele>1009</ele>
        <time>2013-08-18T14:42:17.000Z</time>
      </trkpt>
      <trkpt lat="46.66599" lon="6.31528">
        <ele>1010</ele>
        <time>2013-08-18T14:42:18.000Z</time>
      </trkpt>
      <trkpt lat="46.666" lon="6.31525">
        <ele>1010</ele>
        <time>2013-08-18T14:42:19.000Z</time>
      </trkpt>
      <trkpt lat="46.66602" lon="6.31521">
        <ele>1010</ele>
        <time>2013-08-18T14:42:20.000Z</time>
      </trkpt>
      <trkpt lat="46.66603" lon="6.31519">
        <ele>1010</ele>
        <time>2013-08-18T14:42:21.000Z</time>
      </trkpt>
      <trkpt lat="46.66605" lon="6.31517">
        <ele>1010</ele>
        <time>2013-08-18T14:42:22.000Z</time>
      </trkpt>
      <trkpt lat="46.66607" lon="6.31515">
        <ele>1010</ele>
        <time>2013-08-18T14:42:23.000Z</time>
      </trkpt>
      <trkpt lat="46.66608" lon="6.31514">
        <ele>1010</ele>
        <time>2013-08-18T14:42:24.000Z</time>
      </trkpt>
      <trkpt lat="46.66608" lon="6.31513">
        <ele>1010</ele>
        <time>2013-08-18T14:42:25.000Z</time>
      </trkpt>
      <trkpt lat="46.66609" lon="6.31513">
        <ele>1010</ele>
        <time>2013-08-18T14:42:27.000Z</time>
      </trkpt>
      <trkpt lat="46.66608" lon="6.31513">
        <ele>1010</ele>
        <time>2013-08-18T14:42:30.000Z</time>
      </trkpt>
      <trkpt lat="46.66608" lon="6.31512">
        <ele>1010</ele>
        <time>2013-08-18T14:42:31.000Z</time>
      </trkpt>
      <trkpt lat="46.66608" lon="6.31512">
        <ele>1010</ele>
        <time>2013-08-18T14:42:32.000Z</time>
      </trkpt>
      <trkpt lat="46.66608" lon="6.31512">
        <ele>1010</ele>
        <time>2013-08-18T14:42:33.000Z</time>
      </trkpt>
    </trkseg>
  </trk>
</gpx>